﻿<?xml version="1.0" encoding="utf-8"?><gpx creator="Garmin Desktop App" version="1.1" xsi:schemaLocation="http://www.topografix.com/GPX/1/1 http://www.topografix.com/GPX/1/1/gpx.xsd http://www.garmin.com/xmlschemas/WaypointExtension/v1 http://www8.garmin.com/xmlschemas/WaypointExtensionv1.xsd http://www.garmin.com/xmlschemas/TrackPointExtension/v1 http://www.garmin.com/xmlschemas/TrackPointExtensionv1.xsd http://www.garmin.com/xmlschemas/GpxExtensions/v3 http://www8.garmin.com/xmlschemas/GpxExtensionsv3.xsd http://www.garmin.com/xmlschemas/ActivityExtension/v1 http://www8.garmin.com/xmlschemas/ActivityExtensionv1.xsd http://www.garmin.com/xmlschemas/AdventuresExtensions/v1 http://www8.garmin.com/xmlschemas/AdventuresExtensionv1.xsd http://www.garmin.com/xmlschemas/PressureExtension/v1 http://www.garmin.com/xmlschemas/PressureExtensionv1.xsd http://www.garmin.com/xmlschemas/TripExtensions/v1 http://www.garmin.com/xmlschemas/TripExtensionsv1.xsd http://www.garmin.com/xmlschemas/TripMetaDataExtensions/v1 http://www.garmin.com/xmlschemas/TripMetaDataExtensionsv1.xsd http://www.garmin.com/xmlschemas/ViaPointTransportationModeExtensions/v1 http://www.garmin.com/xmlschemas/ViaPointTransportationModeExtensionsv1.xsd http://www.garmin.com/xmlschemas/CreationTimeExtension/v1 http://www.garmin.com/xmlschemas/CreationTimeExtensionsv1.xsd http://www.garmin.com/xmlschemas/AccelerationExtension/v1 http://www.garmin.com/xmlschemas/AccelerationExtensionv1.xsd http://www.garmin.com/xmlschemas/PowerExtension/v1 http://www.garmin.com/xmlschemas/PowerExtensionv1.xsd http://www.garmin.com/xmlschemas/VideoExtension/v1 http://www.garmin.com/xmlschemas/VideoExtensionv1.xsd" xmlns="http://www.topografix.com/GPX/1/1" xmlns:xsi="http://www.w3.org/2001/XMLSchema-instance" xmlns:wptx1="http://www.garmin.com/xmlschemas/WaypointExtension/v1" xmlns:gpxtrx="http://www.garmin.com/xmlschemas/GpxExtensions/v3" xmlns:gpxtpx="http://www.garmin.com/xmlschemas/TrackPointExtension/v1" xmlns:gpxx="http://www.garmin.com/xmlschemas/GpxExtensions/v3" xmlns:trp="http://www.garmin.com/xmlschemas/TripExtensions/v1" xmlns:adv="http://www.garmin.com/xmlschemas/AdventuresExtensions/v1" xmlns:prs="http://www.garmin.com/xmlschemas/PressureExtension/v1" xmlns:tmd="http://www.garmin.com/xmlschemas/TripMetaDataExtensions/v1" xmlns:vptm="http://www.garmin.com/xmlschemas/ViaPointTransportationModeExtensions/v1" xmlns:ctx="http://www.garmin.com/xmlschemas/CreationTimeExtension/v1" xmlns:gpxacc="http://www.garmin.com/xmlschemas/AccelerationExtension/v1" xmlns:gpxpx="http://www.garmin.com/xmlschemas/PowerExtension/v1" xmlns:vidx1="http://www.garmin.com/xmlschemas/VideoExtension/v1">

  <metadata>
    <link href="http://www.garmin.com">
      <text>Garmin International</text>
    </link>
    <time>2017-06-26T15:39:40Z</time>
    <bounds maxlat="71.168782990425825" maxlon="25.968409990891814" minlat="69.959022989496589" minlon="23.224604967981577" />
  </metadata>

  <trk>
    <name>Track vom: 26 JUN 2017 07:57</name>
    <extensions>
      <gpxx:TrackExtension>
        <gpxx:DisplayColor>DarkGray</gpxx:DisplayColor>
      </gpxx:TrackExtension>
    </extensions>
    <trkseg>
      <trkpt lat="69.959126003086567" lon="23.224604967981577">
        <ele>68.390000000000001</ele>
        <time>2017-06-26T05:57:47Z</time>
      </trkpt>
      <trkpt lat="69.959151986986399" lon="23.224655007943511">
        <ele>60.219999999999999</ele>
        <time>2017-06-26T05:59:20Z</time>
      </trkpt>
      <trkpt lat="69.959143018350005" lon="23.224660037085414">
        <ele>58.780000000000001</ele>
        <time>2017-06-26T06:00:35Z</time>
      </trkpt>
      <trkpt lat="69.959143018350005" lon="23.224659031257033">
        <ele>58.299999999999997</ele>
        <time>2017-06-26T06:00:44Z</time>
      </trkpt>
      <trkpt lat="69.959185011684895" lon="23.224627012386918">
        <ele>50.609999999999999</ele>
        <time>2017-06-26T06:00:53Z</time>
      </trkpt>
      <trkpt lat="69.959148969501257" lon="23.224835973232985">
        <ele>50.130000000000003</ele>
        <time>2017-06-26T06:00:55Z</time>
      </trkpt>
      <trkpt lat="69.959022989496589" lon="23.22525599040091">
        <ele>46.280000000000001</ele>
        <time>2017-06-26T06:01:03Z</time>
      </trkpt>
      <trkpt lat="69.959031036123633" lon="23.225411977618933">
        <ele>45.799999999999997</ele>
        <time>2017-06-26T06:01:04Z</time>
      </trkpt>
      <trkpt lat="69.959061965346336" lon="23.22562001645565">
        <ele>44.840000000000003</ele>
        <time>2017-06-26T06:01:05Z</time>
      </trkpt>
      <trkpt lat="69.959458010271192" lon="23.228093013167381">
        <ele>37.630000000000003</ele>
        <time>2017-06-26T06:01:13Z</time>
      </trkpt>
      <trkpt lat="69.960046000778675" lon="23.232921995222569">
        <ele>34.740000000000002</ele>
        <time>2017-06-26T06:01:26Z</time>
      </trkpt>
      <trkpt lat="69.960557967424393" lon="23.2376519870013">
        <ele>40.990000000000002</ele>
        <time>2017-06-26T06:01:41Z</time>
      </trkpt>
      <trkpt lat="69.961382998153567" lon="23.242148961871862">
        <ele>46.759999999999998</ele>
        <time>2017-06-26T06:01:56Z</time>
      </trkpt>
      <trkpt lat="69.962770035490394" lon="23.248528009280562">
        <ele>46.759999999999998</ele>
        <time>2017-06-26T06:02:18Z</time>
      </trkpt>
      <trkpt lat="69.963613003492355" lon="23.253383981063962">
        <ele>44.840000000000003</ele>
        <time>2017-06-26T06:02:34Z</time>
      </trkpt>
      <trkpt lat="69.963990021497011" lon="23.256560973823071">
        <ele>47.240000000000002</ele>
        <time>2017-06-26T06:02:44Z</time>
      </trkpt>
      <trkpt lat="69.964776998385787" lon="23.259699996560812">
        <ele>54.450000000000003</ele>
        <time>2017-06-26T06:02:56Z</time>
      </trkpt>
      <trkpt lat="69.964957963675261" lon="23.260372979566455">
        <ele>54.93</ele>
        <time>2017-06-26T06:03:00Z</time>
      </trkpt>
      <trkpt lat="69.964983025565743" lon="23.260499965399504">
        <ele>54.93</ele>
        <time>2017-06-26T06:03:01Z</time>
      </trkpt>
      <trkpt lat="69.965111017227173" lon="23.261139001697302">
        <ele>55.409999999999997</ele>
        <time>2017-06-26T06:03:05Z</time>
      </trkpt>
      <trkpt lat="69.965160973370075" lon="23.261289959773421">
        <ele>55.409999999999997</ele>
        <time>2017-06-26T06:03:06Z</time>
      </trkpt>
      <trkpt lat="69.965218976140022" lon="23.261423986405134">
        <ele>55.409999999999997</ele>
        <time>2017-06-26T06:03:07Z</time>
      </trkpt>
      <trkpt lat="69.965425003319979" lon="23.261892031878233">
        <ele>55.890000000000001</ele>
        <time>2017-06-26T06:03:10Z</time>
      </trkpt>
      <trkpt lat="69.9654929805547" lon="23.262108033522964">
        <ele>55.890000000000001</ele>
        <time>2017-06-26T06:03:11Z</time>
      </trkpt>
      <trkpt lat="69.96555601246655" lon="23.262354964390397">
        <ele>55.890000000000001</ele>
        <time>2017-06-26T06:03:12Z</time>
      </trkpt>
      <trkpt lat="69.966337960213423" lon="23.265940994024277">
        <ele>59.259999999999998</ele>
        <time>2017-06-26T06:03:24Z</time>
      </trkpt>
      <trkpt lat="69.967176988720894" lon="23.268604008480906">
        <ele>64.549999999999997</ele>
        <time>2017-06-26T06:03:33Z</time>
      </trkpt>
      <trkpt lat="69.968581963330507" lon="23.271300969645381">
        <ele>63.579999999999998</ele>
        <time>2017-06-26T06:03:46Z</time>
      </trkpt>
      <trkpt lat="69.968842975795269" lon="23.271947968751192">
        <ele>64.549999999999997</ele>
        <time>2017-06-26T06:03:49Z</time>
      </trkpt>
      <trkpt lat="69.968938026577234" lon="23.272133963182569">
        <ele>64.549999999999997</ele>
        <time>2017-06-26T06:03:50Z</time>
      </trkpt>
      <trkpt lat="69.969843020662665" lon="23.274171017110348">
        <ele>70.790000000000006</ele>
        <time>2017-06-26T06:03:59Z</time>
      </trkpt>
      <trkpt lat="69.971183035522699" lon="23.278328021988273">
        <ele>79.450000000000003</ele>
        <time>2017-06-26T06:04:12Z</time>
      </trkpt>
      <trkpt lat="69.972323980182409" lon="23.281913967803121">
        <ele>79.450000000000003</ele>
        <time>2017-06-26T06:04:24Z</time>
      </trkpt>
      <trkpt lat="69.972653975710273" lon="23.282955000177026">
        <ele>79.930000000000007</ele>
        <time>2017-06-26T06:04:31Z</time>
      </trkpt>
      <trkpt lat="69.972800994291902" lon="23.28352396376431">
        <ele>79.930000000000007</ele>
        <time>2017-06-26T06:04:35Z</time>
      </trkpt>
      <trkpt lat="69.972874000668526" lon="23.28369302675128">
        <ele>79.930000000000007</ele>
        <time>2017-06-26T06:04:36Z</time>
      </trkpt>
      <trkpt lat="69.973796010017395" lon="23.285980029031634">
        <ele>78</ele>
        <time>2017-06-26T06:04:46Z</time>
      </trkpt>
      <trkpt lat="69.975777994841337" lon="23.290518997237086">
        <ele>74.640000000000001</ele>
        <time>2017-06-26T06:05:06Z</time>
      </trkpt>
      <trkpt lat="69.976717019453645" lon="23.292210968211293">
        <ele>70.790000000000006</ele>
        <time>2017-06-26T06:05:17Z</time>
      </trkpt>
      <trkpt lat="69.977047014981508" lon="23.293114034458995">
        <ele>69.829999999999998</ele>
        <time>2017-06-26T06:05:22Z</time>
      </trkpt>
      <trkpt lat="69.977111974731088" lon="23.293357025831938">
        <ele>69.349999999999994</ele>
        <time>2017-06-26T06:05:23Z</time>
      </trkpt>
      <trkpt lat="69.977172994986176" lon="23.29362097196281">
        <ele>68.870000000000005</ele>
        <time>2017-06-26T06:05:24Z</time>
      </trkpt>
      <trkpt lat="69.977228986099362" lon="23.29390000551939">
        <ele>68.390000000000001</ele>
        <time>2017-06-26T06:05:25Z</time>
      </trkpt>
      <trkpt lat="69.977279026061296" lon="23.294196976348758">
        <ele>68.390000000000001</ele>
        <time>2017-06-26T06:05:26Z</time>
      </trkpt>
      <trkpt lat="69.977324036881328" lon="23.294518003240228">
        <ele>67.909999999999997</ele>
        <time>2017-06-26T06:05:27Z</time>
      </trkpt>
      <trkpt lat="69.97735396027565" lon="23.294855961576104">
        <ele>66.950000000000003</ele>
        <time>2017-06-26T06:05:28Z</time>
      </trkpt>
      <trkpt lat="69.977374998852611" lon="23.295213030651212">
        <ele>65.989999999999995</ele>
        <time>2017-06-26T06:05:29Z</time>
      </trkpt>
      <trkpt lat="69.977385979145765" lon="23.295588959008455">
        <ele>65.030000000000001</ele>
        <time>2017-06-26T06:05:30Z</time>
      </trkpt>
      <trkpt lat="69.977385979145765" lon="23.295967988669872">
        <ele>63.579999999999998</ele>
        <time>2017-06-26T06:05:31Z</time>
      </trkpt>
      <trkpt lat="69.977371981367469" lon="23.296360010281205">
        <ele>62.140000000000001</ele>
        <time>2017-06-26T06:05:32Z</time>
      </trkpt>
      <trkpt lat="69.977350020781159" lon="23.296765023842454">
        <ele>61.659999999999997</ele>
        <time>2017-06-26T06:05:33Z</time>
      </trkpt>
      <trkpt lat="69.977315990254283" lon="23.297169031575322">
        <ele>60.219999999999999</ele>
        <time>2017-06-26T06:05:34Z</time>
      </trkpt>
      <trkpt lat="69.977268967777491" lon="23.297564992681146">
        <ele>59.259999999999998</ele>
        <time>2017-06-26T06:05:35Z</time>
      </trkpt>
      <trkpt lat="69.977206019684672" lon="23.297944022342563">
        <ele>57.82</ele>
        <time>2017-06-26T06:05:36Z</time>
      </trkpt>
      <trkpt lat="69.977126978337765" lon="23.29830402508378">
        <ele>56.859999999999999</ele>
        <time>2017-06-26T06:05:37Z</time>
      </trkpt>
      <trkpt lat="69.977036034688354" lon="23.298660004511476">
        <ele>55.890000000000001</ele>
        <time>2017-06-26T06:05:38Z</time>
      </trkpt>
      <trkpt lat="69.976936960592866" lon="23.298997962847352">
        <ele>54.93</ele>
        <time>2017-06-26T06:05:39Z</time>
      </trkpt>
      <trkpt lat="69.976246962323785" lon="23.302388023585081">
        <ele>46.280000000000001</ele>
        <time>2017-06-26T06:05:48Z</time>
      </trkpt>
      <trkpt lat="69.975844966247678" lon="23.307304009795189">
        <ele>33.780000000000001</ele>
        <time>2017-06-26T06:06:00Z</time>
      </trkpt>
      <trkpt lat="69.975829040631652" lon="23.314035013318062">
        <ele>20.32</ele>
        <time>2017-06-26T06:06:16Z</time>
      </trkpt>
      <trkpt lat="69.97563298791647" lon="23.318551015108824">
        <ele>13.119999999999999</ele>
        <time>2017-06-26T06:06:28Z</time>
      </trkpt>
      <trkpt lat="69.975602980703115" lon="23.322987975552678">
        <ele>8.789999999999999</ele>
        <time>2017-06-26T06:06:40Z</time>
      </trkpt>
      <trkpt lat="69.975507007911801" lon="23.328584991395473">
        <ele>7.35</ele>
        <time>2017-06-26T06:06:57Z</time>
      </trkpt>
      <trkpt lat="69.975434001535177" lon="23.33126300945878">
        <ele>6.87</ele>
        <time>2017-06-26T06:07:06Z</time>
      </trkpt>
      <trkpt lat="69.975244989618659" lon="23.336292989552021">
        <ele>6.39</ele>
        <time>2017-06-26T06:07:20Z</time>
      </trkpt>
      <trkpt lat="69.975033011287451" lon="23.339805006980896">
        <ele>5.91</ele>
        <time>2017-06-26T06:07:30Z</time>
      </trkpt>
      <trkpt lat="69.974521966651082" lon="23.348233010619879">
        <ele>5.91</ele>
        <time>2017-06-26T06:07:52Z</time>
      </trkpt>
      <trkpt lat="69.97449497692287" lon="23.348527969792485">
        <ele>6.39</ele>
        <time>2017-06-26T06:07:53Z</time>
      </trkpt>
      <trkpt lat="69.974405961111188" lon="23.349368004128337">
        <ele>6.39</ele>
        <time>2017-06-26T06:07:56Z</time>
      </trkpt>
      <trkpt lat="69.974395986646414" lon="23.349647037684917">
        <ele>6.39</ele>
        <time>2017-06-26T06:07:57Z</time>
      </trkpt>
      <trkpt lat="69.97427998110652" lon="23.352819001302123">
        <ele>5.91</ele>
        <time>2017-06-26T06:08:08Z</time>
      </trkpt>
      <trkpt lat="69.974063979461789" lon="23.359677996486425">
        <ele>6.39</ele>
        <time>2017-06-26T06:08:29Z</time>
      </trkpt>
      <trkpt lat="69.973692996427417" lon="23.363569965586066">
        <ele>5.91</ele>
        <time>2017-06-26T06:08:42Z</time>
      </trkpt>
      <trkpt lat="69.973580008372664" lon="23.364228028804064">
        <ele>6.39</ele>
        <time>2017-06-26T06:08:45Z</time>
      </trkpt>
      <trkpt lat="69.973533991724253" lon="23.36439298465848">
        <ele>6.39</ele>
        <time>2017-06-26T06:08:46Z</time>
      </trkpt>
      <trkpt lat="69.973423015326262" lon="23.364967983216047">
        <ele>5.91</ele>
        <time>2017-06-26T06:08:49Z</time>
      </trkpt>
      <trkpt lat="69.973341962322593" lon="23.365725036710501">
        <ele>5.91</ele>
        <time>2017-06-26T06:08:52Z</time>
      </trkpt>
      <trkpt lat="69.972837958484888" lon="23.368751993402839">
        <ele>6.39</ele>
        <time>2017-06-26T06:09:04Z</time>
      </trkpt>
      <trkpt lat="69.972519027069211" lon="23.370413035154343">
        <ele>6.87</ele>
        <time>2017-06-26T06:09:12Z</time>
      </trkpt>
      <trkpt lat="69.97238801792264" lon="23.371080989018083">
        <ele>6.87</ele>
        <time>2017-06-26T06:09:16Z</time>
      </trkpt>
      <trkpt lat="69.972268994897604" lon="23.371670991182327">
        <ele>7.35</ele>
        <time>2017-06-26T06:09:19Z</time>
      </trkpt>
      <trkpt lat="69.972207974642515" lon="23.371835025027394">
        <ele>7.35</ele>
        <time>2017-06-26T06:09:20Z</time>
      </trkpt>
      <trkpt lat="69.972144020721316" lon="23.371984977275133">
        <ele>7.35</ele>
        <time>2017-06-26T06:09:21Z</time>
      </trkpt>
      <trkpt lat="69.971985016018152" lon="23.37227700278163">
        <ele>6.87</ele>
        <time>2017-06-26T06:09:23Z</time>
      </trkpt>
      <trkpt lat="69.971893988549709" lon="23.372398959472775">
        <ele>6.87</ele>
        <time>2017-06-26T06:09:24Z</time>
      </trkpt>
      <trkpt lat="69.971798015758395" lon="23.372498033568263">
        <ele>6.87</ele>
        <time>2017-06-26T06:09:25Z</time>
      </trkpt>
      <trkpt lat="69.97170003131032" lon="23.372569028288126">
        <ele>6.39</ele>
        <time>2017-06-26T06:09:26Z</time>
      </trkpt>
      <trkpt lat="69.971597017720342" lon="23.37262200191617">
        <ele>6.39</ele>
        <time>2017-06-26T06:09:27Z</time>
      </trkpt>
      <trkpt lat="69.971494004130363" lon="23.372668018564582">
        <ele>6.39</ele>
        <time>2017-06-26T06:09:28Z</time>
      </trkpt>
      <trkpt lat="69.970532013103366" lon="23.372934982180595">
        <ele>6.39</ele>
        <time>2017-06-26T06:09:38Z</time>
      </trkpt>
      <trkpt lat="69.969415040686727" lon="23.373347958549857">
        <ele>6.87</ele>
        <time>2017-06-26T06:09:49Z</time>
      </trkpt>
      <trkpt lat="69.969344967976213" lon="23.373411996290088">
        <ele>6.87</ele>
        <time>2017-06-26T06:09:50Z</time>
      </trkpt>
      <trkpt lat="69.969287971034646" lon="23.373522972688079">
        <ele>7.35</ele>
        <time>2017-06-26T06:09:51Z</time>
      </trkpt>
      <trkpt lat="69.968527983874083" lon="23.374867010861635">
        <ele>9.75</ele>
        <time>2017-06-26T06:10:00Z</time>
      </trkpt>
      <trkpt lat="69.966782033443451" lon="23.377526002004743">
        <ele>5.42</ele>
        <time>2017-06-26T06:10:15Z</time>
      </trkpt>
      <trkpt lat="69.964121030643582" lon="23.381562978029251">
        <ele>5.91</ele>
        <time>2017-06-26T06:10:37Z</time>
      </trkpt>
      <trkpt lat="69.963471014052629" lon="23.382830992341042">
        <ele>8.310000000000001</ele>
        <time>2017-06-26T06:10:43Z</time>
      </trkpt>
      <trkpt lat="69.963389961048961" lon="23.383114971220493">
        <ele>7.83</ele>
        <time>2017-06-26T06:10:44Z</time>
      </trkpt>
      <trkpt lat="69.963320977985859" lon="23.383426023647189">
        <ele>7.83</ele>
        <time>2017-06-26T06:10:45Z</time>
      </trkpt>
      <trkpt lat="69.963263981044292" lon="23.383757025003433">
        <ele>7.35</ele>
        <time>2017-06-26T06:10:46Z</time>
      </trkpt>
      <trkpt lat="69.963221987709403" lon="23.384114010259509">
        <ele>7.83</ele>
        <time>2017-06-26T06:10:47Z</time>
      </trkpt>
      <trkpt lat="69.963187035173178" lon="23.384479964151978">
        <ele>7.83</ele>
        <time>2017-06-26T06:10:48Z</time>
      </trkpt>
      <trkpt lat="69.963156022131443" lon="23.384865028783679">
        <ele>7.83</ele>
        <time>2017-06-26T06:10:49Z</time>
      </trkpt>
      <trkpt lat="69.962953012436628" lon="23.38796298019588">
        <ele>7.35</ele>
        <time>2017-06-26T06:10:58Z</time>
      </trkpt>
      <trkpt lat="69.962557973340154" lon="23.393576005473733">
        <ele>5.42</ele>
        <time>2017-06-26T06:11:12Z</time>
      </trkpt>
      <trkpt lat="69.96224801056087" lon="23.396337004378438">
        <ele>4.94</ele>
        <time>2017-06-26T06:11:21Z</time>
      </trkpt>
      <trkpt lat="69.961690027266741" lon="23.399704014882445">
        <ele>6.87</ele>
        <time>2017-06-26T06:11:32Z</time>
      </trkpt>
      <trkpt lat="69.961421974003315" lon="23.401682982221246">
        <ele>10.23</ele>
        <time>2017-06-26T06:11:37Z</time>
      </trkpt>
      <trkpt lat="69.961400013417006" lon="23.402104005217552">
        <ele>11.19</ele>
        <time>2017-06-26T06:11:38Z</time>
      </trkpt>
      <trkpt lat="69.961392972618341" lon="23.402528967708349">
        <ele>12.630000000000001</ele>
        <time>2017-06-26T06:11:39Z</time>
      </trkpt>
      <trkpt lat="69.961393978446722" lon="23.402948984876275">
        <ele>14.08</ele>
        <time>2017-06-26T06:11:40Z</time>
      </trkpt>
      <trkpt lat="69.961413005366921" lon="23.403363972902298">
        <ele>15.039999999999999</ele>
        <time>2017-06-26T06:11:41Z</time>
      </trkpt>
      <trkpt lat="69.961444018408656" lon="23.403773009777069">
        <ele>16</ele>
        <time>2017-06-26T06:11:42Z</time>
      </trkpt>
      <trkpt lat="69.961493974551558" lon="23.404166959226131">
        <ele>16.960000000000001</ele>
        <time>2017-06-26T06:11:43Z</time>
      </trkpt>
      <trkpt lat="69.961552983149886" lon="23.404556969180703">
        <ele>17.920000000000002</ele>
        <time>2017-06-26T06:11:44Z</time>
      </trkpt>
      <trkpt lat="69.961620960384607" lon="23.404929041862488">
        <ele>18.399999999999999</ele>
        <time>2017-06-26T06:11:45Z</time>
      </trkpt>
      <trkpt lat="69.961702013388276" lon="23.405312011018395">
        <ele>18.879999999999999</ele>
        <time>2017-06-26T06:11:46Z</time>
      </trkpt>
      <trkpt lat="69.961786000058055" lon="23.405691040679812">
        <ele>19.359999999999999</ele>
        <time>2017-06-26T06:11:47Z</time>
      </trkpt>
      <trkpt lat="69.963338999077678" lon="23.411986017599702">
        <ele>25.129999999999999</ele>
        <time>2017-06-26T06:12:04Z</time>
      </trkpt>
      <trkpt lat="69.964770041406155" lon="23.416849030181766">
        <ele>23.210000000000001</ele>
        <time>2017-06-26T06:12:18Z</time>
      </trkpt>
      <trkpt lat="69.96650299988687" lon="23.421851014718413">
        <ele>24.649999999999999</ele>
        <time>2017-06-26T06:12:33Z</time>
      </trkpt>
      <trkpt lat="69.968251967802644" lon="23.427277961745858">
        <ele>23.210000000000001</ele>
        <time>2017-06-26T06:12:49Z</time>
      </trkpt>
      <trkpt lat="69.969283025711775" lon="23.431439995765686">
        <ele>21.77</ele>
        <time>2017-06-26T06:13:00Z</time>
      </trkpt>
      <trkpt lat="69.969332981854677" lon="23.431893959641457">
        <ele>21.289999999999999</ele>
        <time>2017-06-26T06:13:01Z</time>
      </trkpt>
      <trkpt lat="69.969797004014254" lon="23.436461007222533">
        <ele>21.77</ele>
        <time>2017-06-26T06:13:11Z</time>
      </trkpt>
      <trkpt lat="69.970963010564446" lon="23.441399037837982">
        <ele>20.32</ele>
        <time>2017-06-26T06:13:24Z</time>
      </trkpt>
      <trkpt lat="69.971994990482926" lon="23.444056017324328">
        <ele>18.399999999999999</ele>
        <time>2017-06-26T06:13:33Z</time>
      </trkpt>
      <trkpt lat="69.973542960360646" lon="23.448117971420288">
        <ele>14.08</ele>
        <time>2017-06-26T06:13:46Z</time>
      </trkpt>
      <trkpt lat="69.974106978625059" lon="23.451509037986398">
        <ele>12.15</ele>
        <time>2017-06-26T06:13:54Z</time>
      </trkpt>
      <trkpt lat="69.974857997149229" lon="23.453800985589623">
        <ele>9.75</ele>
        <time>2017-06-26T06:14:01Z</time>
      </trkpt>
      <trkpt lat="69.975383039563894" lon="23.456020010635257">
        <ele>6.39</ele>
        <time>2017-06-26T06:14:07Z</time>
      </trkpt>
      <trkpt lat="69.975426038727164" lon="23.456454025581479">
        <ele>6.39</ele>
        <time>2017-06-26T06:14:08Z</time>
      </trkpt>
      <trkpt lat="69.975447999313474" lon="23.456893991678953">
        <ele>5.91</ele>
        <time>2017-06-26T06:14:09Z</time>
      </trkpt>
      <trkpt lat="69.975449005141854" lon="23.457339992746711">
        <ele>5.91</ele>
        <time>2017-06-26T06:14:10Z</time>
      </trkpt>
      <trkpt lat="69.975429978221655" lon="23.457773001864552">
        <ele>5.91</ele>
        <time>2017-06-26T06:14:11Z</time>
      </trkpt>
      <trkpt lat="69.975392008200288" lon="23.458199976012111">
        <ele>5.91</ele>
        <time>2017-06-26T06:14:12Z</time>
      </trkpt>
      <trkpt lat="69.975327970460057" lon="23.458607001230121">
        <ele>6.39</ele>
        <time>2017-06-26T06:14:13Z</time>
      </trkpt>
      <trkpt lat="69.975249012932181" lon="23.458987958729267">
        <ele>6.39</ele>
        <time>2017-06-26T06:14:14Z</time>
      </trkpt>
      <trkpt lat="69.975162008777261" lon="23.459356008097529">
        <ele>6.87</ele>
        <time>2017-06-26T06:14:15Z</time>
      </trkpt>
      <trkpt lat="69.975066035985947" lon="23.459715005010366">
        <ele>7.35</ele>
        <time>2017-06-26T06:14:16Z</time>
      </trkpt>
      <trkpt lat="69.97473101131618" lon="23.461159961298108">
        <ele>6.39</ele>
        <time>2017-06-26T06:14:20Z</time>
      </trkpt>
      <trkpt lat="69.974683988839388" lon="23.461538990959525">
        <ele>5.91</ele>
        <time>2017-06-26T06:14:21Z</time>
      </trkpt>
      <trkpt lat="69.974652975797653" lon="23.461923971772194">
        <ele>4.94</ele>
        <time>2017-06-26T06:14:22Z</time>
      </trkpt>
      <trkpt lat="69.974638978019357" lon="23.462313981726766">
        <ele>4.46</ele>
        <time>2017-06-26T06:14:23Z</time>
      </trkpt>
      <trkpt lat="69.974641995504498" lon="23.462715977802873">
        <ele>3.98</ele>
        <time>2017-06-26T06:14:24Z</time>
      </trkpt>
      <trkpt lat="69.974662028253078" lon="23.463128032162786">
        <ele>3.5</ele>
        <time>2017-06-26T06:14:25Z</time>
      </trkpt>
      <trkpt lat="69.974689017981291" lon="23.46354897134006">
        <ele>3.02</ele>
        <time>2017-06-26T06:14:26Z</time>
      </trkpt>
      <trkpt lat="69.974727993831038" lon="23.463974017649889">
        <ele>2.06</ele>
        <time>2017-06-26T06:14:27Z</time>
      </trkpt>
      <trkpt lat="69.974778033792973" lon="23.464403003454208">
        <ele>1.58</ele>
        <time>2017-06-26T06:14:28Z</time>
      </trkpt>
      <trkpt lat="69.974898984655738" lon="23.465243959799409">
        <ele>0.62</ele>
        <time>2017-06-26T06:14:30Z</time>
      </trkpt>
      <trkpt lat="69.974977020174265" lon="23.465631036087871">
        <ele>-0.34</ele>
        <time>2017-06-26T06:14:31Z</time>
      </trkpt>
      <trkpt lat="69.975067041814327" lon="23.465995984151959">
        <ele>-0.34</ele>
        <time>2017-06-26T06:14:32Z</time>
      </trkpt>
      <trkpt lat="69.975167959928513" lon="23.466332014650106">
        <ele>-0.82</ele>
        <time>2017-06-26T06:14:33Z</time>
      </trkpt>
      <trkpt lat="69.975278014317155" lon="23.466643989086151">
        <ele>-1.3</ele>
        <time>2017-06-26T06:14:34Z</time>
      </trkpt>
      <trkpt lat="69.97539795935154" lon="23.466939032077789">
        <ele>-1.3</ele>
        <time>2017-06-26T06:14:35Z</time>
      </trkpt>
      <trkpt lat="69.97552502900362" lon="23.467215970158577">
        <ele>-1.3</ele>
        <time>2017-06-26T06:14:36Z</time>
      </trkpt>
      <trkpt lat="69.978144960477948" lon="23.47263403236866">
        <ele>1.1</ele>
        <time>2017-06-26T06:14:57Z</time>
      </trkpt>
      <trkpt lat="69.981062030419707" lon="23.478735974058509">
        <ele>3.98</ele>
        <time>2017-06-26T06:15:19Z</time>
      </trkpt>
      <trkpt lat="69.984371960163116" lon="23.485434958711267">
        <ele>7.83</ele>
        <time>2017-06-26T06:15:44Z</time>
      </trkpt>
      <trkpt lat="69.984518978744745" lon="23.485613996163011">
        <ele>7.83</ele>
        <time>2017-06-26T06:15:45Z</time>
      </trkpt>
      <trkpt lat="69.984667003154755" lon="23.485751040279865">
        <ele>8.310000000000001</ele>
        <time>2017-06-26T06:15:46Z</time>
      </trkpt>
      <trkpt lat="69.984817039221525" lon="23.485840978100896">
        <ele>8.310000000000001</ele>
        <time>2017-06-26T06:15:47Z</time>
      </trkpt>
      <trkpt lat="69.984970008954406" lon="23.485899986699224">
        <ele>8.789999999999999</ele>
        <time>2017-06-26T06:15:48Z</time>
      </trkpt>
      <trkpt lat="69.985127002000809" lon="23.485942985862494">
        <ele>8.789999999999999</ele>
        <time>2017-06-26T06:15:49Z</time>
      </trkpt>
      <trkpt lat="69.989403029903769" lon="23.487045038491488">
        <ele>8.789999999999999</ele>
        <time>2017-06-26T06:16:16Z</time>
      </trkpt>
      <trkpt lat="69.992468040436506" lon="23.487806031480432">
        <ele>7.83</ele>
        <time>2017-06-26T06:16:35Z</time>
      </trkpt>
      <trkpt lat="69.99383001588285" lon="23.487097006291151">
        <ele>6.87</ele>
        <time>2017-06-26T06:16:43Z</time>
      </trkpt>
      <trkpt lat="69.995354013517499" lon="23.485574014484882">
        <ele>7.35</ele>
        <time>2017-06-26T06:16:52Z</time>
      </trkpt>
      <trkpt lat="69.996399991214275" lon="23.482822990044951">
        <ele>10.710000000000001</ele>
        <time>2017-06-26T06:17:00Z</time>
      </trkpt>
      <trkpt lat="69.997862968593836" lon="23.479250958189368">
        <ele>16</ele>
        <time>2017-06-26T06:17:11Z</time>
      </trkpt>
      <trkpt lat="69.999362993985415" lon="23.477796027436852">
        <ele>11.67</ele>
        <time>2017-06-26T06:17:20Z</time>
      </trkpt>
      <trkpt lat="69.999701036140323" lon="23.47776903770864">
        <ele>11.67</ele>
        <time>2017-06-26T06:17:22Z</time>
      </trkpt>
      <trkpt lat="69.999861968681216" lon="23.477829974144697">
        <ele>11.67</ele>
        <time>2017-06-26T06:17:23Z</time>
      </trkpt>
      <trkpt lat="70.000019967556" lon="23.477946985512972">
        <ele>11.67</ele>
        <time>2017-06-26T06:17:24Z</time>
      </trkpt>
      <trkpt lat="70.00017000362277" lon="23.478125017136335">
        <ele>11.19</ele>
        <time>2017-06-26T06:17:25Z</time>
      </trkpt>
      <trkpt lat="70.000310987234116" lon="23.478367002680898">
        <ele>10.710000000000001</ele>
        <time>2017-06-26T06:17:26Z</time>
      </trkpt>
      <trkpt lat="70.000439984723926" lon="23.478670008480549">
        <ele>11.19</ele>
        <time>2017-06-26T06:17:27Z</time>
      </trkpt>
      <trkpt lat="70.00055599026382" lon="23.479011990129948">
        <ele>10.710000000000001</ele>
        <time>2017-06-26T06:17:28Z</time>
      </trkpt>
      <trkpt lat="70.000656992197037" lon="23.479402000084519">
        <ele>10.23</ele>
        <time>2017-06-26T06:17:29Z</time>
      </trkpt>
      <trkpt lat="70.000752964988351" lon="23.479815982282162">
        <ele>9.75</ele>
        <time>2017-06-26T06:17:30Z</time>
      </trkpt>
      <trkpt lat="70.000844998285174" lon="23.480252008885145">
        <ele>8.789999999999999</ele>
        <time>2017-06-26T06:17:31Z</time>
      </trkpt>
      <trkpt lat="70.001471964642406" lon="23.484386969357729">
        <ele>4.94</ele>
        <time>2017-06-26T06:17:40Z</time>
      </trkpt>
      <trkpt lat="70.001399964094162" lon="23.488367032259703">
        <ele>4.94</ele>
        <time>2017-06-26T06:17:48Z</time>
      </trkpt>
      <trkpt lat="70.001165019348264" lon="23.497802959755063">
        <ele>5.42</ele>
        <time>2017-06-26T06:18:07Z</time>
      </trkpt>
      <trkpt lat="70.001191003248096" lon="23.498260024935007">
        <ele>4.94</ele>
        <time>2017-06-26T06:18:08Z</time>
      </trkpt>
      <trkpt lat="70.001236014068127" lon="23.498711977154016">
        <ele>4.94</ele>
        <time>2017-06-26T06:18:09Z</time>
      </trkpt>
      <trkpt lat="70.001294016838074" lon="23.499154960736632">
        <ele>4.94</ele>
        <time>2017-06-26T06:18:10Z</time>
      </trkpt>
      <trkpt lat="70.00137004069984" lon="23.499572966247797">
        <ele>4.46</ele>
        <time>2017-06-26T06:18:11Z</time>
      </trkpt>
      <trkpt lat="70.001457966864109" lon="23.499980997294188">
        <ele>4.46</ele>
        <time>2017-06-26T06:18:12Z</time>
      </trkpt>
      <trkpt lat="70.001562992110848" lon="23.500361032783985">
        <ele>4.46</ele>
        <time>2017-06-26T06:18:13Z</time>
      </trkpt>
      <trkpt lat="70.001681009307504" lon="23.500709971413016">
        <ele>4.46</ele>
        <time>2017-06-26T06:18:14Z</time>
      </trkpt>
      <trkpt lat="70.001813024282455" lon="23.501009959727526">
        <ele>4.46</ele>
        <time>2017-06-26T06:18:15Z</time>
      </trkpt>
      <trkpt lat="70.001958031207323" lon="23.501267032697797">
        <ele>3.98</ele>
        <time>2017-06-26T06:18:16Z</time>
      </trkpt>
      <trkpt lat="70.002113012596965" lon="23.50148999132216">
        <ele>3.98</ele>
        <time>2017-06-26T06:18:17Z</time>
      </trkpt>
      <trkpt lat="70.00227302312851" lon="23.501698030158877">
        <ele>3.98</ele>
        <time>2017-06-26T06:18:18Z</time>
      </trkpt>
      <trkpt lat="70.004173032939434" lon="23.503193026408553">
        <ele>2.54</ele>
        <time>2017-06-26T06:18:29Z</time>
      </trkpt>
      <trkpt lat="70.004493976011872" lon="23.503536013886333">
        <ele>2.06</ele>
        <time>2017-06-26T06:18:31Z</time>
      </trkpt>
      <trkpt lat="70.004637977108359" lon="23.503783028572798">
        <ele>2.06</ele>
        <time>2017-06-26T06:18:32Z</time>
      </trkpt>
      <trkpt lat="70.004770997911692" lon="23.504087962210178">
        <ele>2.06</ele>
        <time>2017-06-26T06:18:33Z</time>
      </trkpt>
      <trkpt lat="70.004887003451586" lon="23.504428016021848">
        <ele>2.54</ele>
        <time>2017-06-26T06:18:34Z</time>
      </trkpt>
      <trkpt lat="70.004994040355086" lon="23.504803022369742">
        <ele>2.54</ele>
        <time>2017-06-26T06:18:35Z</time>
      </trkpt>
      <trkpt lat="70.005318000912666" lon="23.505948996171355">
        <ele>2.54</ele>
        <time>2017-06-26T06:18:38Z</time>
      </trkpt>
      <trkpt lat="70.005440963432193" lon="23.506278991699219">
        <ele>2.54</ele>
        <time>2017-06-26T06:18:39Z</time>
      </trkpt>
      <trkpt lat="70.005577001720667" lon="23.506562970578671">
        <ele>2.54</ele>
        <time>2017-06-26T06:18:40Z</time>
      </trkpt>
      <trkpt lat="70.005721002817154" lon="23.506811996921897">
        <ele>2.54</ele>
        <time>2017-06-26T06:18:41Z</time>
      </trkpt>
      <trkpt lat="70.005875984206796" lon="23.507021041586995">
        <ele>2.54</ele>
        <time>2017-06-26T06:18:42Z</time>
      </trkpt>
      <trkpt lat="70.006038006395102" lon="23.507175017148256">
        <ele>2.06</ele>
        <time>2017-06-26T06:18:43Z</time>
      </trkpt>
      <trkpt lat="70.006204973906279" lon="23.507297979667783">
        <ele>2.06</ele>
        <time>2017-06-26T06:18:44Z</time>
      </trkpt>
      <trkpt lat="70.006375964730978" lon="23.507374003529549">
        <ele>1.58</ele>
        <time>2017-06-26T06:18:45Z</time>
      </trkpt>
      <trkpt lat="70.006547039374709" lon="23.507393030449748">
        <ele>1.58</ele>
        <time>2017-06-26T06:18:46Z</time>
      </trkpt>
      <trkpt lat="70.00672004185617" lon="23.507400993257761">
        <ele>1.58</ele>
        <time>2017-06-26T06:18:47Z</time>
      </trkpt>
      <trkpt lat="70.009382972493768" lon="23.507676003500819">
        <ele>3.02</ele>
        <time>2017-06-26T06:19:02Z</time>
      </trkpt>
      <trkpt lat="70.009538037702441" lon="23.507798966020346">
        <ele>3.02</ele>
        <time>2017-06-26T06:19:03Z</time>
      </trkpt>
      <trkpt lat="70.009682038798928" lon="23.507974985986948">
        <ele>3.02</ele>
        <time>2017-06-26T06:19:04Z</time>
      </trkpt>
      <trkpt lat="70.009821010753512" lon="23.50821596570313">
        <ele>3.02</ele>
        <time>2017-06-26T06:19:05Z</time>
      </trkpt>
      <trkpt lat="70.009946990758181" lon="23.508512014523149">
        <ele>2.54</ele>
        <time>2017-06-26T06:19:06Z</time>
      </trkpt>
      <trkpt lat="70.010056961327791" lon="23.508867993950844">
        <ele>2.54</ele>
        <time>2017-06-26T06:19:07Z</time>
      </trkpt>
      <trkpt lat="70.010154023766518" lon="23.509258003905416">
        <ele>3.02</ele>
        <time>2017-06-26T06:19:08Z</time>
      </trkpt>
      <trkpt lat="70.010234992951155" lon="23.50967600941658">
        <ele>3.5</ele>
        <time>2017-06-26T06:19:09Z</time>
      </trkpt>
      <trkpt lat="70.010307999327779" lon="23.510119998827577">
        <ele>3.98</ele>
        <time>2017-06-26T06:19:10Z</time>
      </trkpt>
      <trkpt lat="70.010922979563475" lon="23.515449967235327">
        <ele>3.02</ele>
        <time>2017-06-26T06:19:21Z</time>
      </trkpt>
      <trkpt lat="70.011566961184144" lon="23.521896991878748">
        <ele>4.94</ele>
        <time>2017-06-26T06:19:34Z</time>
      </trkpt>
      <trkpt lat="70.012582009658217" lon="23.526007980108261">
        <ele>5.91</ele>
        <time>2017-06-26T06:19:44Z</time>
      </trkpt>
      <trkpt lat="70.012730034068227" lon="23.526296988129616">
        <ele>5.91</ele>
        <time>2017-06-26T06:19:45Z</time>
      </trkpt>
      <trkpt lat="70.0140490103513" lon="23.528695972636342">
        <ele>5.91</ele>
        <time>2017-06-26T06:19:54Z</time>
      </trkpt>
      <trkpt lat="70.01415696926415" lon="23.529032003134489">
        <ele>5.42</ele>
        <time>2017-06-26T06:19:55Z</time>
      </trkpt>
      <trkpt lat="70.014241961762309" lon="23.529412960633636">
        <ele>4.94</ele>
        <time>2017-06-26T06:19:56Z</time>
      </trkpt>
      <trkpt lat="70.014298958703876" lon="23.529832977801561">
        <ele>3.98</ele>
        <time>2017-06-26T06:19:57Z</time>
      </trkpt>
      <trkpt lat="70.014335000887513" lon="23.530273027718067">
        <ele>3.5</ele>
        <time>2017-06-26T06:19:58Z</time>
      </trkpt>
      <trkpt lat="70.014358973130584" lon="23.530747024342418">
        <ele>3.02</ele>
        <time>2017-06-26T06:19:59Z</time>
      </trkpt>
      <trkpt lat="70.014374982565641" lon="23.531236024573445">
        <ele>2.54</ele>
        <time>2017-06-26T06:20:00Z</time>
      </trkpt>
      <trkpt lat="70.01454102806747" lon="23.535121958702803">
        <ele>3.5</ele>
        <time>2017-06-26T06:20:08Z</time>
      </trkpt>
      <trkpt lat="70.014594001695514" lon="23.535558991134167">
        <ele>3.5</ele>
        <time>2017-06-26T06:20:09Z</time>
      </trkpt>
      <trkpt lat="70.01467103138566" lon="23.535962998867035">
        <ele>3.5</ele>
        <time>2017-06-26T06:20:10Z</time>
      </trkpt>
      <trkpt lat="70.014765998348594" lon="23.536327024921775">
        <ele>3.5</ele>
        <time>2017-06-26T06:20:11Z</time>
      </trkpt>
      <trkpt lat="70.014876974746585" lon="23.536641011014581">
        <ele>3.5</ele>
        <time>2017-06-26T06:20:12Z</time>
      </trkpt>
      <trkpt lat="70.015003960579634" lon="23.536916021257639">
        <ele>3.5</ele>
        <time>2017-06-26T06:20:13Z</time>
      </trkpt>
      <trkpt lat="70.015141004696488" lon="23.537164963781834">
        <ele>3.98</ele>
        <time>2017-06-26T06:20:14Z</time>
      </trkpt>
      <trkpt lat="70.015286011621356" lon="23.537392029538751">
        <ele>3.98</ele>
        <time>2017-06-26T06:20:15Z</time>
      </trkpt>
      <trkpt lat="70.015431018546224" lon="23.537590010091662">
        <ele>3.98</ele>
        <time>2017-06-26T06:20:16Z</time>
      </trkpt>
      <trkpt lat="70.015576025471091" lon="23.537762006744742">
        <ele>4.46</ele>
        <time>2017-06-26T06:20:17Z</time>
      </trkpt>
      <trkpt lat="70.015721032395959" lon="23.537906007841229">
        <ele>4.94</ele>
        <time>2017-06-26T06:20:18Z</time>
      </trkpt>
      <trkpt lat="70.017149979248643" lon="23.538872022181749">
        <ele>8.310000000000001</ele>
        <time>2017-06-26T06:20:29Z</time>
      </trkpt>
      <trkpt lat="70.018136026337743" lon="23.538054032251239">
        <ele>17.440000000000001</ele>
        <time>2017-06-26T06:20:37Z</time>
      </trkpt>
      <trkpt lat="70.018627038225532" lon="23.537705009803176">
        <ele>24.170000000000002</ele>
        <time>2017-06-26T06:20:41Z</time>
      </trkpt>
      <trkpt lat="70.01875402405858" lon="23.537700986489654">
        <ele>25.609999999999999</ele>
        <time>2017-06-26T06:20:42Z</time>
      </trkpt>
      <trkpt lat="70.020703990012407" lon="23.538167020305991">
        <ele>33.299999999999997</ele>
        <time>2017-06-26T06:20:56Z</time>
      </trkpt>
      <trkpt lat="70.022418005391955" lon="23.537637032568455">
        <ele>39.07</ele>
        <time>2017-06-26T06:21:08Z</time>
      </trkpt>
      <trkpt lat="70.023250998929143" lon="23.537517003715038">
        <ele>40.509999999999998</ele>
        <time>2017-06-26T06:21:14Z</time>
      </trkpt>
      <trkpt lat="70.023373961448669" lon="23.537638038396835">
        <ele>40.509999999999998</ele>
        <time>2017-06-26T06:21:15Z</time>
      </trkpt>
      <trkpt lat="70.023490972816944" lon="23.537812968716025">
        <ele>40.509999999999998</ele>
        <time>2017-06-26T06:21:16Z</time>
      </trkpt>
      <trkpt lat="70.023600021377206" lon="23.53803601115942">
        <ele>40.030000000000001</ele>
        <time>2017-06-26T06:21:17Z</time>
      </trkpt>
      <trkpt lat="70.023709991946816" lon="23.538289982825518">
        <ele>40.030000000000001</ele>
        <time>2017-06-26T06:21:18Z</time>
      </trkpt>
      <trkpt lat="70.023814011365175" lon="23.538586031645536">
        <ele>40.030000000000001</ele>
        <time>2017-06-26T06:21:19Z</time>
      </trkpt>
      <trkpt lat="70.025683008134365" lon="23.544025970622897">
        <ele>46.280000000000001</ele>
        <time>2017-06-26T06:21:37Z</time>
      </trkpt>
      <trkpt lat="70.02580395899713" lon="23.544190004467964">
        <ele>46.759999999999998</ele>
        <time>2017-06-26T06:21:38Z</time>
      </trkpt>
      <trkpt lat="70.025932034477592" lon="23.544291006401181">
        <ele>46.759999999999998</ele>
        <time>2017-06-26T06:21:39Z</time>
      </trkpt>
      <trkpt lat="70.026070000603795" lon="23.544332999736071">
        <ele>47.240000000000002</ele>
        <time>2017-06-26T06:21:40Z</time>
      </trkpt>
      <trkpt lat="70.02620997838676" lon="23.544325958937407">
        <ele>47.719999999999999</ele>
        <time>2017-06-26T06:21:41Z</time>
      </trkpt>
      <trkpt lat="70.026353979483247" lon="23.544274996966124">
        <ele>47.719999999999999</ele>
        <time>2017-06-26T06:21:42Z</time>
      </trkpt>
      <trkpt lat="70.026498986408114" lon="23.544205008074641">
        <ele>48.68</ele>
        <time>2017-06-26T06:21:43Z</time>
      </trkpt>
      <trkpt lat="70.027365004643798" lon="23.543923040851951">
        <ele>53.009999999999998</ele>
        <time>2017-06-26T06:21:49Z</time>
      </trkpt>
      <trkpt lat="70.027514034882188" lon="23.543998980894685">
        <ele>54.93</ele>
        <time>2017-06-26T06:21:50Z</time>
      </trkpt>
      <trkpt lat="70.027663987129927" lon="23.544130995869637">
        <ele>56.369999999999997</ele>
        <time>2017-06-26T06:21:51Z</time>
      </trkpt>
      <trkpt lat="70.027811005711555" lon="23.544315984472632">
        <ele>57.340000000000003</ele>
        <time>2017-06-26T06:21:52Z</time>
      </trkpt>
      <trkpt lat="70.027958024293184" lon="23.544535003602505">
        <ele>58.780000000000001</ele>
        <time>2017-06-26T06:21:53Z</time>
      </trkpt>
      <trkpt lat="70.029062004759908" lon="23.546026982367039">
        <ele>67.909999999999997</ele>
        <time>2017-06-26T06:22:00Z</time>
      </trkpt>
      <trkpt lat="70.029200976714492" lon="23.546295035630465">
        <ele>69.349999999999994</ele>
        <time>2017-06-26T06:22:01Z</time>
      </trkpt>
      <trkpt lat="70.029318993911147" lon="23.546611033380032">
        <ele>71.269999999999996</ele>
        <time>2017-06-26T06:22:02Z</time>
      </trkpt>
      <trkpt lat="70.029425024986267" lon="23.546968018636107">
        <ele>73.200000000000003</ele>
        <time>2017-06-26T06:22:03Z</time>
      </trkpt>
      <trkpt lat="70.029523009434342" lon="23.547348976135254">
        <ele>74.640000000000001</ele>
        <time>2017-06-26T06:22:04Z</time>
      </trkpt>
      <trkpt lat="70.029729958623648" lon="23.548116004094481">
        <ele>77.040000000000006</ele>
        <time>2017-06-26T06:22:06Z</time>
      </trkpt>
      <trkpt lat="70.029847975820303" lon="23.548466032370925">
        <ele>78</ele>
        <time>2017-06-26T06:22:07Z</time>
      </trkpt>
      <trkpt lat="70.029976973310113" lon="23.548788987100124">
        <ele>78.969999999999999</ele>
        <time>2017-06-26T06:22:08Z</time>
      </trkpt>
      <trkpt lat="70.03011804074049" lon="23.549088975414634">
        <ele>80.409999999999997</ele>
        <time>2017-06-26T06:22:09Z</time>
      </trkpt>
      <trkpt lat="70.03027000464499" lon="23.549351999536157">
        <ele>81.849999999999994</ele>
        <time>2017-06-26T06:22:10Z</time>
      </trkpt>
      <trkpt lat="70.030429009348154" lon="23.549609994515777">
        <ele>83.290000000000006</ele>
        <time>2017-06-26T06:22:11Z</time>
      </trkpt>
      <trkpt lat="70.031749997287989" lon="23.552340986207128">
        <ele>95.310000000000002</ele>
        <time>2017-06-26T06:22:19Z</time>
      </trkpt>
      <trkpt lat="70.032279985025525" lon="23.553256038576365">
        <ele>100.11</ele>
        <time>2017-06-26T06:22:22Z</time>
      </trkpt>
      <trkpt lat="70.032472014427185" lon="23.553456030786037">
        <ele>101.56</ele>
        <time>2017-06-26T06:22:23Z</time>
      </trkpt>
      <trkpt lat="70.03267602995038" lon="23.553588967770338">
        <ele>103</ele>
        <time>2017-06-26T06:22:24Z</time>
      </trkpt>
      <trkpt lat="70.032879961654544" lon="23.553669014945626">
        <ele>103.95999999999999</ele>
        <time>2017-06-26T06:22:25Z</time>
      </trkpt>
      <trkpt lat="70.033091017976403" lon="23.553725006058812">
        <ele>104.44</ele>
        <time>2017-06-26T06:22:26Z</time>
      </trkpt>
      <trkpt lat="70.034820958971977" lon="23.554354989901185">
        <ele>119.34</ele>
        <time>2017-06-26T06:22:34Z</time>
      </trkpt>
      <trkpt lat="70.035015000030398" lon="23.554553976282477">
        <ele>121.26000000000001</ele>
        <time>2017-06-26T06:22:35Z</time>
      </trkpt>
      <trkpt lat="70.035197976976633" lon="23.554808031767607">
        <ele>123.67</ele>
        <time>2017-06-26T06:22:36Z</time>
      </trkpt>
      <trkpt lat="70.035373996943235" lon="23.55511799454689">
        <ele>125.59</ele>
        <time>2017-06-26T06:22:37Z</time>
      </trkpt>
      <trkpt lat="70.035537024959922" lon="23.555467016994953">
        <ele>126.55</ele>
        <time>2017-06-26T06:22:38Z</time>
      </trkpt>
      <trkpt lat="70.035698041319847" lon="23.555839005857706">
        <ele>127.98999999999999</ele>
        <time>2017-06-26T06:22:39Z</time>
      </trkpt>
      <trkpt lat="70.0376380328089" lon="23.561007035896182">
        <ele>128.94999999999999</ele>
        <time>2017-06-26T06:22:51Z</time>
      </trkpt>
      <trkpt lat="70.039274012669921" lon="23.565994016826153">
        <ele>138.56999999999999</ele>
        <time>2017-06-26T06:23:02Z</time>
      </trkpt>
      <trkpt lat="70.039412984624505" lon="23.566298028454185">
        <ele>139.53</ele>
        <time>2017-06-26T06:23:03Z</time>
      </trkpt>
      <trkpt lat="70.039549022912979" lon="23.566500032320619">
        <ele>140.49000000000001</ele>
        <time>2017-06-26T06:23:04Z</time>
      </trkpt>
      <trkpt lat="70.03967902623117" lon="23.566608997061849">
        <ele>141.44999999999999</ele>
        <time>2017-06-26T06:23:05Z</time>
      </trkpt>
      <trkpt lat="70.039804000407457" lon="23.566614026203752">
        <ele>142.41</ele>
        <time>2017-06-26T06:23:06Z</time>
      </trkpt>
      <trkpt lat="70.039923023432493" lon="23.56652501039207">
        <ele>143.84999999999999</ele>
        <time>2017-06-26T06:23:07Z</time>
      </trkpt>
      <trkpt lat="70.040041962638497" lon="23.566352007910609">
        <ele>144.34</ele>
        <time>2017-06-26T06:23:08Z</time>
      </trkpt>
      <trkpt lat="70.040162997320294" lon="23.566127037629485">
        <ele>144.81999999999999</ele>
        <time>2017-06-26T06:23:09Z</time>
      </trkpt>
      <trkpt lat="70.041145021095872" lon="23.564675962552428">
        <ele>150.58000000000001</ele>
        <time>2017-06-26T06:23:16Z</time>
      </trkpt>
      <trkpt lat="70.041294973343611" lon="23.564617037773132">
        <ele>151.53999999999999</ele>
        <time>2017-06-26T06:23:17Z</time>
      </trkpt>
      <trkpt lat="70.04144299775362" lon="23.564637992531061">
        <ele>153.47</ele>
        <time>2017-06-26T06:23:18Z</time>
      </trkpt>
      <trkpt lat="70.041586998850107" lon="23.564697001129389">
        <ele>154.43000000000001</ele>
        <time>2017-06-26T06:23:19Z</time>
      </trkpt>
      <trkpt lat="70.041726976633072" lon="23.564795991405845">
        <ele>155.87</ele>
        <time>2017-06-26T06:23:20Z</time>
      </trkpt>
      <trkpt lat="70.041867038235068" lon="23.56493404135108">
        <ele>156.83000000000001</ele>
        <time>2017-06-26T06:23:21Z</time>
      </trkpt>
      <trkpt lat="70.042922990396619" lon="23.565909024327993">
        <ele>159.24000000000001</ele>
        <time>2017-06-26T06:23:27Z</time>
      </trkpt>
      <trkpt lat="70.043137986212969" lon="23.565955962985754">
        <ele>160.68000000000001</ele>
        <time>2017-06-26T06:23:28Z</time>
      </trkpt>
      <trkpt lat="70.043352982029319" lon="23.565930984914303">
        <ele>163.08000000000001</ele>
        <time>2017-06-26T06:23:29Z</time>
      </trkpt>
      <trkpt lat="70.044029988348484" lon="23.565586991608143">
        <ele>169.33000000000001</ele>
        <time>2017-06-26T06:23:33Z</time>
      </trkpt>
      <trkpt lat="70.044155968353152" lon="23.565405020490289">
        <ele>170.28999999999999</ele>
        <time>2017-06-26T06:23:34Z</time>
      </trkpt>
      <trkpt lat="70.044256970286369" lon="23.565117018297315">
        <ele>174.13999999999999</ele>
        <time>2017-06-26T06:23:35Z</time>
      </trkpt>
      <trkpt lat="70.044331988319755" lon="23.56476497836411">
        <ele>174.62</ele>
        <time>2017-06-26T06:23:36Z</time>
      </trkpt>
      <trkpt lat="70.044382028281689" lon="23.564410004764795">
        <ele>173.16999999999999</ele>
        <time>2017-06-26T06:23:37Z</time>
      </trkpt>
      <trkpt lat="70.044411029666662" lon="23.564021000638604">
        <ele>174.13999999999999</ele>
        <time>2017-06-26T06:23:38Z</time>
      </trkpt>
      <trkpt lat="70.044419998303056" lon="23.563596038147807">
        <ele>175.58000000000001</ele>
        <time>2017-06-26T06:23:39Z</time>
      </trkpt>
      <trkpt lat="70.04440700635314" lon="23.563125981017947">
        <ele>177.02000000000001</ele>
        <time>2017-06-26T06:23:40Z</time>
      </trkpt>
      <trkpt lat="70.044382028281689" lon="23.562652990221977">
        <ele>178.46000000000001</ele>
        <time>2017-06-26T06:23:41Z</time>
      </trkpt>
      <trkpt lat="70.044342968612909" lon="23.561673983931541">
        <ele>181.83000000000001</ele>
        <time>2017-06-26T06:23:43Z</time>
      </trkpt>
      <trkpt lat="70.044347997754812" lon="23.561152964830399">
        <ele>183.27000000000001</ele>
        <time>2017-06-26T06:23:44Z</time>
      </trkpt>
      <trkpt lat="70.044366018846631" lon="23.560621971264482">
        <ele>184.71000000000001</ele>
        <time>2017-06-26T06:23:45Z</time>
      </trkpt>
      <trkpt lat="70.044402983039618" lon="23.560108998790383">
        <ele>186.63</ele>
        <time>2017-06-26T06:23:46Z</time>
      </trkpt>
      <trkpt lat="70.044464003294706" lon="23.559616981074214">
        <ele>188.08000000000001</ele>
        <time>2017-06-26T06:23:47Z</time>
      </trkpt>
      <trkpt lat="70.044550001621246" lon="23.559166034683585">
        <ele>189.52000000000001</ele>
        <time>2017-06-26T06:23:48Z</time>
      </trkpt>
      <trkpt lat="70.044655026867986" lon="23.558781975880265">
        <ele>190.47999999999999</ele>
        <time>2017-06-26T06:23:49Z</time>
      </trkpt>
      <trkpt lat="70.044772960245609" lon="23.558495985344052">
        <ele>191.44</ele>
        <time>2017-06-26T06:23:50Z</time>
      </trkpt>
      <trkpt lat="70.044905981048942" lon="23.558310996741056">
        <ele>193.36000000000001</ele>
        <time>2017-06-26T06:23:51Z</time>
      </trkpt>
      <trkpt lat="70.045056017115712" lon="23.558192979544401">
        <ele>194.31999999999999</ele>
        <time>2017-06-26T06:23:52Z</time>
      </trkpt>
      <trkpt lat="70.045221978798509" lon="23.558144029229879">
        <ele>195.77000000000001</ele>
        <time>2017-06-26T06:23:53Z</time>
      </trkpt>
      <trkpt lat="70.04539699293673" lon="23.558137994259596">
        <ele>196.72999999999999</ele>
        <time>2017-06-26T06:23:54Z</time>
      </trkpt>
      <trkpt lat="70.045580975711346" lon="23.55814796872437">
        <ele>198.16999999999999</ele>
        <time>2017-06-26T06:23:55Z</time>
      </trkpt>
      <trkpt lat="70.047471011057496" lon="23.558246959000826">
        <ele>202.00999999999999</ele>
        <time>2017-06-26T06:24:04Z</time>
      </trkpt>
      <trkpt lat="70.049148984253407" lon="23.557264013215899">
        <ele>206.81999999999999</ele>
        <time>2017-06-26T06:24:11Z</time>
      </trkpt>
      <trkpt lat="70.049629015848041" lon="23.557149013504386">
        <ele>207.78</ele>
        <time>2017-06-26T06:24:13Z</time>
      </trkpt>
      <trkpt lat="70.049864966422319" lon="23.55720198713243">
        <ele>208.25999999999999</ele>
        <time>2017-06-26T06:24:14Z</time>
      </trkpt>
      <trkpt lat="70.050102006644011" lon="23.557313969358802">
        <ele>209.22</ele>
        <time>2017-06-26T06:24:15Z</time>
      </trkpt>
      <trkpt lat="70.052522029727697" lon="23.558832015842199">
        <ele>225.09</ele>
        <time>2017-06-26T06:24:25Z</time>
      </trkpt>
      <trkpt lat="70.053880987688899" lon="23.558503026142716">
        <ele>226.05000000000001</ele>
        <time>2017-06-26T06:24:31Z</time>
      </trkpt>
      <trkpt lat="70.05534396506846" lon="23.556976011022925">
        <ele>229.88999999999999</ele>
        <time>2017-06-26T06:24:38Z</time>
      </trkpt>
      <trkpt lat="70.056852959096432" lon="23.555098967626691">
        <ele>234.22</ele>
        <time>2017-06-26T06:24:47Z</time>
      </trkpt>
      <trkpt lat="70.057843029499054" lon="23.552580960094929">
        <ele>234.69999999999999</ele>
        <time>2017-06-26T06:24:54Z</time>
      </trkpt>
      <trkpt lat="70.059269964694977" lon="23.549893973395228">
        <ele>232.78</ele>
        <time>2017-06-26T06:25:01Z</time>
      </trkpt>
      <trkpt lat="70.060815000906587" lon="23.547068014740944">
        <ele>236.13999999999999</ele>
        <time>2017-06-26T06:25:09Z</time>
      </trkpt>
      <trkpt lat="70.060986997559667" lon="23.546965001150966">
        <ele>235.18000000000001</ele>
        <time>2017-06-26T06:25:10Z</time>
      </trkpt>
      <trkpt lat="70.061172991991043" lon="23.546917978674173">
        <ele>234.22</ele>
        <time>2017-06-26T06:25:11Z</time>
      </trkpt>
      <trkpt lat="70.062663964927197" lon="23.546220017597079">
        <ele>229.88999999999999</ele>
        <time>2017-06-26T06:25:18Z</time>
      </trkpt>
      <trkpt lat="70.063780015334487" lon="23.544973963871598">
        <ele>239.50999999999999</ele>
        <time>2017-06-26T06:25:24Z</time>
      </trkpt>
      <trkpt lat="70.065671978518367" lon="23.544136025011539">
        <ele>233.74000000000001</ele>
        <time>2017-06-26T06:25:33Z</time>
      </trkpt>
      <trkpt lat="70.067370990291238" lon="23.54312701150775">
        <ele>233.74000000000001</ele>
        <time>2017-06-26T06:25:41Z</time>
      </trkpt>
      <trkpt lat="70.069361021742225" lon="23.543327003717422">
        <ele>234.22</ele>
        <time>2017-06-26T06:25:50Z</time>
      </trkpt>
      <trkpt lat="70.071622040122747" lon="23.544270973652601">
        <ele>237.09999999999999</ele>
        <time>2017-06-26T06:26:00Z</time>
      </trkpt>
      <trkpt lat="70.073963021859527" lon="23.543870989233255">
        <ele>235.66</ele>
        <time>2017-06-26T06:26:10Z</time>
      </trkpt>
      <trkpt lat="70.077241016551852" lon="23.54171197861433">
        <ele>240.94999999999999</ele>
        <time>2017-06-26T06:26:25Z</time>
      </trkpt>
      <trkpt lat="70.079545034095645" lon="23.539632009342313">
        <ele>239.50999999999999</ele>
        <time>2017-06-26T06:26:36Z</time>
      </trkpt>
      <trkpt lat="70.080897035077214" lon="23.53913202881813">
        <ele>233.25999999999999</ele>
        <time>2017-06-26T06:26:42Z</time>
      </trkpt>
      <trkpt lat="70.083090998232365" lon="23.538610003888607">
        <ele>225.56999999999999</ele>
        <time>2017-06-26T06:26:52Z</time>
      </trkpt>
      <trkpt lat="70.085843028500676" lon="23.537104027345777">
        <ele>220.75999999999999</ele>
        <time>2017-06-26T06:27:05Z</time>
      </trkpt>
      <trkpt lat="70.086223985999823" lon="23.537082988768816">
        <ele>219.31999999999999</ele>
        <time>2017-06-26T06:27:07Z</time>
      </trkpt>
      <trkpt lat="70.086416015401483" lon="23.53717896156013">
        <ele>218.84</ele>
        <time>2017-06-26T06:27:08Z</time>
      </trkpt>
      <trkpt lat="70.086594969034195" lon="23.537347018718719">
        <ele>218.36000000000001</ele>
        <time>2017-06-26T06:27:09Z</time>
      </trkpt>
      <trkpt lat="70.086761014536023" lon="23.53758598677814">
        <ele>218.36000000000001</ele>
        <time>2017-06-26T06:27:10Z</time>
      </trkpt>
      <trkpt lat="70.086918007582426" lon="23.537896033376455">
        <ele>218.84</ele>
        <time>2017-06-26T06:27:11Z</time>
      </trkpt>
      <trkpt lat="70.087067959830165" lon="23.53825100697577">
        <ele>218.84</ele>
        <time>2017-06-26T06:27:12Z</time>
      </trkpt>
      <trkpt lat="70.087211038917303" lon="23.538654008880258">
        <ele>218.36000000000001</ele>
        <time>2017-06-26T06:27:13Z</time>
      </trkpt>
      <trkpt lat="70.088491961359978" lon="23.542134007439017">
        <ele>202.97999999999999</ele>
        <time>2017-06-26T06:27:21Z</time>
      </trkpt>
      <trkpt lat="70.089656040072441" lon="23.543589022010565">
        <ele>197.21000000000001</ele>
        <time>2017-06-26T06:27:27Z</time>
      </trkpt>
      <trkpt lat="70.09144096635282" lon="23.544852007180452">
        <ele>193.36000000000001</ele>
        <time>2017-06-26T06:27:35Z</time>
      </trkpt>
      <trkpt lat="70.092863962054253" lon="23.547303965315223">
        <ele>189.03999999999999</ele>
        <time>2017-06-26T06:27:42Z</time>
      </trkpt>
      <trkpt lat="70.095011992380023" lon="23.55082000605762">
        <ele>184.71000000000001</ele>
        <time>2017-06-26T06:27:53Z</time>
      </trkpt>
      <trkpt lat="70.096340021118522" lon="23.552217017859221">
        <ele>181.34999999999999</ele>
        <time>2017-06-26T06:28:00Z</time>
      </trkpt>
      <trkpt lat="70.096524003893137" lon="23.552249958738685">
        <ele>180.87</ele>
        <time>2017-06-26T06:28:01Z</time>
      </trkpt>
      <trkpt lat="70.096713015809655" lon="23.552224980667233">
        <ele>179.90000000000001</ele>
        <time>2017-06-26T06:28:02Z</time>
      </trkpt>
      <trkpt lat="70.096905967220664" lon="23.552157003432512">
        <ele>178.94</ele>
        <time>2017-06-26T06:28:03Z</time>
      </trkpt>
      <trkpt lat="70.097094979137182" lon="23.55204401537776">
        <ele>177.97999999999999</ele>
        <time>2017-06-26T06:28:04Z</time>
      </trkpt>
      <trkpt lat="70.097814984619617" lon="23.551774034276605">
        <ele>176.06</ele>
        <time>2017-06-26T06:28:08Z</time>
      </trkpt>
      <trkpt lat="70.097997039556503" lon="23.551815021783113">
        <ele>175.58000000000001</ele>
        <time>2017-06-26T06:28:09Z</time>
      </trkpt>
      <trkpt lat="70.098179010674357" lon="23.551925998181105">
        <ele>175.09999999999999</ele>
        <time>2017-06-26T06:28:10Z</time>
      </trkpt>
      <trkpt lat="70.098363999277353" lon="23.552097994834185">
        <ele>174.62</ele>
        <time>2017-06-26T06:28:11Z</time>
      </trkpt>
      <trkpt lat="70.098547982051969" lon="23.552307039499283">
        <ele>174.13999999999999</ele>
        <time>2017-06-26T06:28:12Z</time>
      </trkpt>
      <trkpt lat="70.099937031045556" lon="23.553310018032789">
        <ele>168.37</ele>
        <time>2017-06-26T06:28:19Z</time>
      </trkpt>
      <trkpt lat="70.102519998326898" lon="23.553202981129289">
        <ele>161.16</ele>
        <time>2017-06-26T06:28:31Z</time>
      </trkpt>
      <trkpt lat="70.104801971465349" lon="23.553520990535617">
        <ele>156.34999999999999</ele>
        <time>2017-06-26T06:28:42Z</time>
      </trkpt>
      <trkpt lat="70.10594098828733" lon="23.554149968549609">
        <ele>153.94999999999999</ele>
        <time>2017-06-26T06:28:48Z</time>
      </trkpt>
      <trkpt lat="70.106111979112029" lon="23.554120967164636">
        <ele>153.94999999999999</ele>
        <time>2017-06-26T06:28:49Z</time>
      </trkpt>
      <trkpt lat="70.106269977986813" lon="23.554020971059799">
        <ele>153.47</ele>
        <time>2017-06-26T06:28:50Z</time>
      </trkpt>
      <trkpt lat="70.1064139790833" lon="23.553857021033764">
        <ele>153.94999999999999</ele>
        <time>2017-06-26T06:28:51Z</time>
      </trkpt>
      <trkpt lat="70.106549011543393" lon="23.553638001903892">
        <ele>153.47</ele>
        <time>2017-06-26T06:28:52Z</time>
      </trkpt>
      <trkpt lat="70.106682032346725" lon="23.553396016359329">
        <ele>153.47</ele>
        <time>2017-06-26T06:28:53Z</time>
      </trkpt>
      <trkpt lat="70.107086962088943" lon="23.55281800031662">
        <ele>152.99000000000001</ele>
        <time>2017-06-26T06:28:56Z</time>
      </trkpt>
      <trkpt lat="70.1072290353477" lon="23.552739964798093">
        <ele>152.03</ele>
        <time>2017-06-26T06:28:57Z</time>
      </trkpt>
      <trkpt lat="70.107372030615807" lon="23.552745999768376">
        <ele>152.50999999999999</ele>
        <time>2017-06-26T06:28:58Z</time>
      </trkpt>
      <trkpt lat="70.10750899091363" lon="23.552845995873213">
        <ele>152.50999999999999</ele>
        <time>2017-06-26T06:28:59Z</time>
      </trkpt>
      <trkpt lat="70.107636982575059" lon="23.553047999739647">
        <ele>152.50999999999999</ele>
        <time>2017-06-26T06:29:00Z</time>
      </trkpt>
      <trkpt lat="70.107758017256856" lon="23.55333499610424">
        <ele>152.99000000000001</ele>
        <time>2017-06-26T06:29:01Z</time>
      </trkpt>
      <trkpt lat="70.107862036675215" lon="23.5536789894104">
        <ele>152.99000000000001</ele>
        <time>2017-06-26T06:29:02Z</time>
      </trkpt>
      <trkpt lat="70.107957003638148" lon="23.554061036556959">
        <ele>152.99000000000001</ele>
        <time>2017-06-26T06:29:03Z</time>
      </trkpt>
      <trkpt lat="70.108053982257843" lon="23.554467977955937">
        <ele>153.47</ele>
        <time>2017-06-26T06:29:04Z</time>
      </trkpt>
      <trkpt lat="70.108271995559335" lon="23.555237017571926">
        <ele>153.94999999999999</ele>
        <time>2017-06-26T06:29:06Z</time>
      </trkpt>
      <trkpt lat="70.108398981392384" lon="23.555580005049706">
        <ele>153.94999999999999</ele>
        <time>2017-06-26T06:29:07Z</time>
      </trkpt>
      <trkpt lat="70.108536025509238" lon="23.555882005020976">
        <ele>153.94999999999999</ele>
        <time>2017-06-26T06:29:08Z</time>
      </trkpt>
      <trkpt lat="70.108685977756977" lon="23.556136982515454">
        <ele>154.43000000000001</ele>
        <time>2017-06-26T06:29:09Z</time>
      </trkpt>
      <trkpt lat="70.108847999945283" lon="23.556372011080384">
        <ele>154.43000000000001</ele>
        <time>2017-06-26T06:29:10Z</time>
      </trkpt>
      <trkpt lat="70.109013039618731" lon="23.556588012725115">
        <ele>154.43000000000001</ele>
        <time>2017-06-26T06:29:11Z</time>
      </trkpt>
      <trkpt lat="70.1103460136801" lon="23.559065032750368">
        <ele>154.43000000000001</ele>
        <time>2017-06-26T06:29:19Z</time>
      </trkpt>
      <trkpt lat="70.112866032868624" lon="23.564724996685982">
        <ele>155.38999999999999</ele>
        <time>2017-06-26T06:29:34Z</time>
      </trkpt>
      <trkpt lat="70.114788003265858" lon="23.570416979491711">
        <ele>154.91</ele>
        <time>2017-06-26T06:29:46Z</time>
      </trkpt>
      <trkpt lat="70.116586005315185" lon="23.574511958286166">
        <ele>156.34999999999999</ele>
        <time>2017-06-26T06:29:56Z</time>
      </trkpt>
      <trkpt lat="70.11926100589335" lon="23.580139987170696">
        <ele>159.72</ele>
        <time>2017-06-26T06:30:11Z</time>
      </trkpt>
      <trkpt lat="70.122307995334268" lon="23.589180037379265">
        <ele>168.37</ele>
        <time>2017-06-26T06:30:31Z</time>
      </trkpt>
      <trkpt lat="70.124369021505117" lon="23.595753964036703">
        <ele>178.46000000000001</ele>
        <time>2017-06-26T06:30:45Z</time>
      </trkpt>
      <trkpt lat="70.126317981630564" lon="23.602647995576262">
        <ele>187.11000000000001</ele>
        <time>2017-06-26T06:30:57Z</time>
      </trkpt>
      <trkpt lat="70.127911968156695" lon="23.609467009082437">
        <ele>191.44</ele>
        <time>2017-06-26T06:31:08Z</time>
      </trkpt>
      <trkpt lat="70.129996966570616" lon="23.61880000680685">
        <ele>211.63</ele>
        <time>2017-06-26T06:31:23Z</time>
      </trkpt>
      <trkpt lat="70.130946971476078" lon="23.623388009145856">
        <ele>223.63999999999999</ele>
        <time>2017-06-26T06:31:31Z</time>
      </trkpt>
      <trkpt lat="70.131779965013266" lon="23.628346994519234">
        <ele>239.50999999999999</ele>
        <time>2017-06-26T06:31:39Z</time>
      </trkpt>
      <trkpt lat="70.132211968302727" lon="23.632509028539062">
        <ele>250.08000000000001</ele>
        <time>2017-06-26T06:31:46Z</time>
      </trkpt>
      <trkpt lat="70.132806999608874" lon="23.635225016623735">
        <ele>255.84999999999999</ele>
        <time>2017-06-26T06:31:53Z</time>
      </trkpt>
      <trkpt lat="70.133178988471627" lon="23.63826303742826">
        <ele>264.5</ele>
        <time>2017-06-26T06:32:01Z</time>
      </trkpt>
      <trkpt lat="70.133631024509668" lon="23.641672963276505">
        <ele>270.75</ele>
        <time>2017-06-26T06:32:09Z</time>
      </trkpt>
      <trkpt lat="70.13432202860713" lon="23.645208030939102">
        <ele>279.39999999999998</ele>
        <time>2017-06-26T06:32:18Z</time>
      </trkpt>
      <trkpt lat="70.135238002985716" lon="23.649786980822682">
        <ele>289.97000000000003</ele>
        <time>2017-06-26T06:32:29Z</time>
      </trkpt>
      <trkpt lat="70.136438040062785" lon="23.656231993809342">
        <ele>292.38</ele>
        <time>2017-06-26T06:32:40Z</time>
      </trkpt>
      <trkpt lat="70.137429032474756" lon="23.663891963660717">
        <ele>301.99000000000001</ele>
        <time>2017-06-26T06:32:52Z</time>
      </trkpt>
      <trkpt lat="70.138888992369175" lon="23.673855029046535">
        <ele>310.63999999999999</ele>
        <time>2017-06-26T06:33:07Z</time>
      </trkpt>
      <trkpt lat="70.140629997476935" lon="23.680242039263248">
        <ele>318.81</ele>
        <time>2017-06-26T06:33:18Z</time>
      </trkpt>
      <trkpt lat="70.142051987349987" lon="23.683311995118856">
        <ele>321.22000000000003</ele>
        <time>2017-06-26T06:33:25Z</time>
      </trkpt>
      <trkpt lat="70.143418991938233" lon="23.686805991455913">
        <ele>328.43000000000001</ele>
        <time>2017-06-26T06:33:32Z</time>
      </trkpt>
      <trkpt lat="70.145906992256641" lon="23.694969965144992">
        <ele>348.62</ele>
        <time>2017-06-26T06:33:47Z</time>
      </trkpt>
      <trkpt lat="70.148088969290257" lon="23.701731981709599">
        <ele>351.5</ele>
        <time>2017-06-26T06:33:59Z</time>
      </trkpt>
      <trkpt lat="70.149590000510216" lon="23.707181978970766">
        <ele>352.94</ele>
        <time>2017-06-26T06:34:08Z</time>
      </trkpt>
      <trkpt lat="70.151415998116136" lon="23.712963983416557">
        <ele>352.94</ele>
        <time>2017-06-26T06:34:18Z</time>
      </trkpt>
      <trkpt lat="70.155723039060831" lon="23.725317986682057">
        <ele>355.33999999999997</ele>
        <time>2017-06-26T06:34:39Z</time>
      </trkpt>
      <trkpt lat="70.160031002014875" lon="23.737759999930859">
        <ele>350.54000000000002</ele>
        <time>2017-06-26T06:35:00Z</time>
      </trkpt>
      <trkpt lat="70.163098024204373" lon="23.745981976389885">
        <ele>339.95999999999998</ele>
        <time>2017-06-26T06:35:15Z</time>
      </trkpt>
      <trkpt lat="70.16577797010541" lon="23.750841971486807">
        <ele>335.63999999999999</ele>
        <time>2017-06-26T06:35:27Z</time>
      </trkpt>
      <trkpt lat="70.167577983811498" lon="23.755657039582729">
        <ele>327.47000000000003</ele>
        <time>2017-06-26T06:35:36Z</time>
      </trkpt>
      <trkpt lat="70.169260986149311" lon="23.762215962633491">
        <ele>325.54000000000002</ele>
        <time>2017-06-26T06:35:46Z</time>
      </trkpt>
      <trkpt lat="70.171413039788604" lon="23.773845015093684">
        <ele>320.74000000000001</ele>
        <time>2017-06-26T06:36:02Z</time>
      </trkpt>
      <trkpt lat="70.17488700337708" lon="23.792746961116791">
        <ele>316.41000000000003</ele>
        <time>2017-06-26T06:36:28Z</time>
      </trkpt>
      <trkpt lat="70.177847994491458" lon="23.808781960979104">
        <ele>316.88999999999999</ele>
        <time>2017-06-26T06:36:50Z</time>
      </trkpt>
      <trkpt lat="70.180608993396163" lon="23.824603976681828">
        <ele>315.93000000000001</ele>
        <time>2017-06-26T06:37:11Z</time>
      </trkpt>
      <trkpt lat="70.181275019422174" lon="23.831752985715866">
        <ele>314.00999999999999</ele>
        <time>2017-06-26T06:37:20Z</time>
      </trkpt>
      <trkpt lat="70.181474005803466" lon="23.840120974928141">
        <ele>317.85000000000002</ele>
        <time>2017-06-26T06:37:30Z</time>
      </trkpt>
      <trkpt lat="70.181091036647558" lon="23.847393030300736">
        <ele>328.91000000000003</ele>
        <time>2017-06-26T06:37:39Z</time>
      </trkpt>
      <trkpt lat="70.180306993424892" lon="23.853868972510099">
        <ele>342.37</ele>
        <time>2017-06-26T06:37:48Z</time>
      </trkpt>
      <trkpt lat="70.179099999368191" lon="23.859795983880758">
        <ele>356.31</ele>
        <time>2017-06-26T06:37:57Z</time>
      </trkpt>
      <trkpt lat="70.178121998906136" lon="23.864214001223445">
        <ele>364.95999999999998</ele>
        <time>2017-06-26T06:38:05Z</time>
      </trkpt>
      <trkpt lat="70.177555968984962" lon="23.867260990664363">
        <ele>366.88</ele>
        <time>2017-06-26T06:38:10Z</time>
      </trkpt>
      <trkpt lat="70.177032016217709" lon="23.872686009854078">
        <ele>369.75999999999999</ele>
        <time>2017-06-26T06:38:18Z</time>
      </trkpt>
      <trkpt lat="70.17665097489953" lon="23.882838003337383">
        <ele>378.89999999999998</ele>
        <time>2017-06-26T06:38:31Z</time>
      </trkpt>
      <trkpt lat="70.176381999626756" lon="23.891219990327954">
        <ele>384.18000000000001</ele>
        <time>2017-06-26T06:38:42Z</time>
      </trkpt>
      <trkpt lat="70.176533963531256" lon="23.897907994687557">
        <ele>372.64999999999998</ele>
        <time>2017-06-26T06:38:51Z</time>
      </trkpt>
      <trkpt lat="70.17720895819366" lon="23.910709004849195">
        <ele>348.13</ele>
        <time>2017-06-26T06:39:07Z</time>
      </trkpt>
      <trkpt lat="70.177985960617661" lon="23.92180697992444">
        <ele>341.88999999999999</ele>
        <time>2017-06-26T06:39:21Z</time>
      </trkpt>
      <trkpt lat="70.179014001041651" lon="23.930849963799119">
        <ele>347.17000000000002</ele>
        <time>2017-06-26T06:39:33Z</time>
      </trkpt>
      <trkpt lat="70.180839998647571" lon="23.942628968507051">
        <ele>333.70999999999998</ele>
        <time>2017-06-26T06:39:50Z</time>
      </trkpt>
      <trkpt lat="70.183306038379669" lon="23.958350988104939">
        <ele>328.43000000000001</ele>
        <time>2017-06-26T06:40:13Z</time>
      </trkpt>
      <trkpt lat="70.185046959668398" lon="23.96771801635623">
        <ele>322.18000000000001</ele>
        <time>2017-06-26T06:40:27Z</time>
      </trkpt>
      <trkpt lat="70.18779999576509" lon="23.981988038867712">
        <ele>305.83999999999997</ele>
        <time>2017-06-26T06:40:48Z</time>
      </trkpt>
      <trkpt lat="70.18913003616035" lon="23.987383972853422">
        <ele>301.50999999999999</ele>
        <time>2017-06-26T06:40:57Z</time>
      </trkpt>
      <trkpt lat="70.189206982031465" lon="23.98798000998795">
        <ele>301.02999999999997</ele>
        <time>2017-06-26T06:40:58Z</time>
      </trkpt>
      <trkpt lat="70.18925903365016" lon="23.988592978566885">
        <ele>300.55000000000001</ele>
        <time>2017-06-26T06:40:59Z</time>
      </trkpt>
      <trkpt lat="70.189293986186385" lon="23.989227991551161">
        <ele>299.11000000000001</ele>
        <time>2017-06-26T06:41:00Z</time>
      </trkpt>
      <trkpt lat="70.189306978136301" lon="23.989886976778507">
        <ele>298.14999999999998</ele>
        <time>2017-06-26T06:41:01Z</time>
      </trkpt>
      <trkpt lat="70.18930303864181" lon="23.990567000582814">
        <ele>296.69999999999999</ele>
        <time>2017-06-26T06:41:02Z</time>
      </trkpt>
      <trkpt lat="70.18928300589323" lon="23.991252975538373">
        <ele>295.25999999999999</ele>
        <time>2017-06-26T06:41:03Z</time>
      </trkpt>
      <trkpt lat="70.189249981194735" lon="23.99195303209126">
        <ele>294.30000000000001</ele>
        <time>2017-06-26T06:41:04Z</time>
      </trkpt>
      <trkpt lat="70.189202036708593" lon="23.99266398511827">
        <ele>292.86000000000001</ele>
        <time>2017-06-26T06:41:05Z</time>
      </trkpt>
      <trkpt lat="70.188480019569397" lon="24.000895014032722">
        <ele>289.97000000000003</ele>
        <time>2017-06-26T06:41:16Z</time>
      </trkpt>
      <trkpt lat="70.187310995534062" lon="24.015258997678757">
        <ele>301.02999999999997</ele>
        <time>2017-06-26T06:41:35Z</time>
      </trkpt>
      <trkpt lat="70.187291968613863" lon="24.022029982879758">
        <ele>289.97000000000003</ele>
        <time>2017-06-26T06:41:44Z</time>
      </trkpt>
      <trkpt lat="70.187524985522032" lon="24.03488296084106">
        <ele>284.20999999999998</ele>
        <time>2017-06-26T06:42:01Z</time>
      </trkpt>
      <trkpt lat="70.188127979636192" lon="24.040772002190351">
        <ele>284.20999999999998</ele>
        <time>2017-06-26T06:42:09Z</time>
      </trkpt>
      <trkpt lat="70.189651977270842" lon="24.050189992412925">
        <ele>286.61000000000001</ele>
        <time>2017-06-26T06:42:23Z</time>
      </trkpt>
      <trkpt lat="70.190882021561265" lon="24.053942989557981">
        <ele>281.31999999999999</ele>
        <time>2017-06-26T06:42:30Z</time>
      </trkpt>
      <trkpt lat="70.192280961200595" lon="24.055946012958884">
        <ele>278.92000000000002</ele>
        <time>2017-06-26T06:42:36Z</time>
      </trkpt>
      <trkpt lat="70.196536034345627" lon="24.059777967631817">
        <ele>279.39999999999998</ele>
        <time>2017-06-26T06:42:53Z</time>
      </trkpt>
      <trkpt lat="70.20249699242413" lon="24.065270964056253">
        <ele>280.83999999999997</ele>
        <time>2017-06-26T06:43:17Z</time>
      </trkpt>
      <trkpt lat="70.207491014152765" lon="24.069833988323808">
        <ele>287.56999999999999</ele>
        <time>2017-06-26T06:43:37Z</time>
      </trkpt>
      <trkpt lat="70.210555018857121" lon="24.071479020640254">
        <ele>276.51999999999998</ele>
        <time>2017-06-26T06:43:49Z</time>
      </trkpt>
      <trkpt lat="70.217362968251109" lon="24.074763972312212">
        <ele>272.19</ele>
        <time>2017-06-26T06:44:15Z</time>
      </trkpt>
      <trkpt lat="70.220827041193843" lon="24.076328035444021">
        <ele>282.76999999999998</ele>
        <time>2017-06-26T06:44:29Z</time>
      </trkpt>
      <trkpt lat="70.224014008417726" lon="24.077157005667686">
        <ele>284.69</ele>
        <time>2017-06-26T06:44:42Z</time>
      </trkpt>
      <trkpt lat="70.228206971660256" lon="24.078227961435914">
        <ele>272.67000000000002</ele>
        <time>2017-06-26T06:44:58Z</time>
      </trkpt>
      <trkpt lat="70.232593975961208" lon="24.079646011814475">
        <ele>260.64999999999998</ele>
        <time>2017-06-26T06:45:14Z</time>
      </trkpt>
      <trkpt lat="70.237140990793705" lon="24.082546988502145">
        <ele>274.58999999999997</ele>
        <time>2017-06-26T06:45:31Z</time>
      </trkpt>
      <trkpt lat="70.241798982024193" lon="24.085259037092328">
        <ele>264.01999999999998</ele>
        <time>2017-06-26T06:45:48Z</time>
      </trkpt>
      <trkpt lat="70.244075004011393" lon="24.086540965363383">
        <ele>258.25</ele>
        <time>2017-06-26T06:45:57Z</time>
      </trkpt>
      <trkpt lat="70.244683027267456" lon="24.086893005296588">
        <ele>256.81</ele>
        <time>2017-06-26T06:46:02Z</time>
      </trkpt>
      <trkpt lat="70.244762990623713" lon="24.0869199950248">
        <ele>256.32999999999998</ele>
        <time>2017-06-26T06:46:08Z</time>
      </trkpt>
      <trkpt lat="70.245003970339894" lon="24.087027031928301">
        <ele>255.84999999999999</ele>
        <time>2017-06-26T06:46:38Z</time>
      </trkpt>
      <trkpt lat="70.245936959981918" lon="24.087556013837457">
        <ele>254.41</ele>
        <time>2017-06-26T06:46:45Z</time>
      </trkpt>
      <trkpt lat="70.247392980381846" lon="24.088396970182657">
        <ele>249.59999999999999</ele>
        <time>2017-06-26T06:46:52Z</time>
      </trkpt>
      <trkpt lat="70.249745026230812" lon="24.089730028063059">
        <ele>249.59999999999999</ele>
        <time>2017-06-26T06:47:01Z</time>
      </trkpt>
      <trkpt lat="70.253713019192219" lon="24.091977970674634">
        <ele>243.83000000000001</ele>
        <time>2017-06-26T06:47:15Z</time>
      </trkpt>
      <trkpt lat="70.25825098156929" lon="24.094536965712905">
        <ele>246.22999999999999</ele>
        <time>2017-06-26T06:47:31Z</time>
      </trkpt>
      <trkpt lat="70.262231966480613" lon="24.096780968829989">
        <ele>254.41</ele>
        <time>2017-06-26T06:47:46Z</time>
      </trkpt>
      <trkpt lat="70.266879983246326" lon="24.099519001320004">
        <ele>239.02000000000001</ele>
        <time>2017-06-26T06:48:03Z</time>
      </trkpt>
      <trkpt lat="70.269336970523" lon="24.100988013669848">
        <ele>231.81</ele>
        <time>2017-06-26T06:48:13Z</time>
      </trkpt>
      <trkpt lat="70.27116104029119" lon="24.101633001118898">
        <ele>236.13999999999999</ele>
        <time>2017-06-26T06:48:20Z</time>
      </trkpt>
      <trkpt lat="70.273980963975191" lon="24.101596958935261">
        <ele>236.62</ele>
        <time>2017-06-26T06:48:31Z</time>
      </trkpt>
      <trkpt lat="70.277547966688871" lon="24.100960018113256">
        <ele>230.84999999999999</ele>
        <time>2017-06-26T06:48:45Z</time>
      </trkpt>
      <trkpt lat="70.280801989138126" lon="24.099804991856217">
        <ele>233.25999999999999</ele>
        <time>2017-06-26T06:48:58Z</time>
      </trkpt>
      <trkpt lat="70.282316012308002" lon="24.100038008764386">
        <ele>234.22</ele>
        <time>2017-06-26T06:49:04Z</time>
      </trkpt>
      <trkpt lat="70.284851035103202" lon="24.102316964417696">
        <ele>231.81</ele>
        <time>2017-06-26T06:49:14Z</time>
      </trkpt>
      <trkpt lat="70.287033012136817" lon="24.105192041024566">
        <ele>229.41</ele>
        <time>2017-06-26T06:49:23Z</time>
      </trkpt>
      <trkpt lat="70.288389036431909" lon="24.109042016789317">
        <ele>226.05000000000001</ele>
        <time>2017-06-26T06:49:30Z</time>
      </trkpt>
      <trkpt lat="70.290906960144639" lon="24.118794025853276">
        <ele>217.88</ele>
        <time>2017-06-26T06:49:45Z</time>
      </trkpt>
      <trkpt lat="70.293580032885075" lon="24.128225008025765">
        <ele>210.66999999999999</ele>
        <time>2017-06-26T06:50:00Z</time>
      </trkpt>
      <trkpt lat="70.29625897295773" lon="24.137746011838317">
        <ele>209.22</ele>
        <time>2017-06-26T06:50:15Z</time>
      </trkpt>
      <trkpt lat="70.297148041427135" lon="24.142431998625398">
        <ele>211.15000000000001</ele>
        <time>2017-06-26T06:50:22Z</time>
      </trkpt>
      <trkpt lat="70.29726798646152" lon="24.145929012447596">
        <ele>213.55000000000001</ele>
        <time>2017-06-26T06:50:27Z</time>
      </trkpt>
      <trkpt lat="70.296946037560701" lon="24.149083960801363">
        <ele>214.03</ele>
        <time>2017-06-26T06:50:32Z</time>
      </trkpt>
      <trkpt lat="70.296267019584775" lon="24.151743035763502">
        <ele>212.59</ele>
        <time>2017-06-26T06:50:38Z</time>
      </trkpt>
      <trkpt lat="70.295019960030913" lon="24.154852973297238">
        <ele>208.74000000000001</ele>
        <time>2017-06-26T06:50:46Z</time>
      </trkpt>
      <trkpt lat="70.294211022555828" lon="24.158158963546157">
        <ele>207.78</ele>
        <time>2017-06-26T06:50:53Z</time>
      </trkpt>
      <trkpt lat="70.294053023681045" lon="24.159852024167776">
        <ele>207.78</ele>
        <time>2017-06-26T06:50:56Z</time>
      </trkpt>
      <trkpt lat="70.294030979275703" lon="24.160442026332021">
        <ele>207.78</ele>
        <time>2017-06-26T06:50:57Z</time>
      </trkpt>
      <trkpt lat="70.294027039781213" lon="24.161048037931323">
        <ele>207.78</ele>
        <time>2017-06-26T06:50:58Z</time>
      </trkpt>
      <trkpt lat="70.294040031731129" lon="24.161662012338638">
        <ele>207.78</ele>
        <time>2017-06-26T06:50:59Z</time>
      </trkpt>
      <trkpt lat="70.294062998145819" lon="24.162294007837772">
        <ele>207.30000000000001</ele>
        <time>2017-06-26T06:51:00Z</time>
      </trkpt>
      <trkpt lat="70.294554010033607" lon="24.169393982738256">
        <ele>206.34</ele>
        <time>2017-06-26T06:51:11Z</time>
      </trkpt>
      <trkpt lat="70.295447017997503" lon="24.172525964677334">
        <ele>205.38</ele>
        <time>2017-06-26T06:51:17Z</time>
      </trkpt>
      <trkpt lat="70.297836028039455" lon="24.177830033004284">
        <ele>194.80000000000001</ele>
        <time>2017-06-26T06:51:29Z</time>
      </trkpt>
      <trkpt lat="70.300154965370893" lon="24.181992989033461">
        <ele>185.19</ele>
        <time>2017-06-26T06:51:40Z</time>
      </trkpt>
      <trkpt lat="70.302815968170762" lon="24.185253968462348">
        <ele>188.08000000000001</ele>
        <time>2017-06-26T06:51:52Z</time>
      </trkpt>
      <trkpt lat="70.307479994371533" lon="24.192322008311749">
        <ele>170.77000000000001</ele>
        <time>2017-06-26T06:52:13Z</time>
      </trkpt>
      <trkpt lat="70.308577017858624" lon="24.195447033271194">
        <ele>170.28999999999999</ele>
        <time>2017-06-26T06:52:19Z</time>
      </trkpt>
      <trkpt lat="70.311874039471149" lon="24.207761976867914">
        <ele>166.93000000000001</ele>
        <time>2017-06-26T06:52:39Z</time>
      </trkpt>
      <trkpt lat="70.314462035894394" lon="24.216311015188694">
        <ele>162.12</ele>
        <time>2017-06-26T06:52:54Z</time>
      </trkpt>
      <trkpt lat="70.317218005657196" lon="24.223004970699549">
        <ele>169.33000000000001</ele>
        <time>2017-06-26T06:53:08Z</time>
      </trkpt>
      <trkpt lat="70.318617029115558" lon="24.227435979992151">
        <ele>174.13999999999999</ele>
        <time>2017-06-26T06:53:16Z</time>
      </trkpt>
      <trkpt lat="70.320360967889428" lon="24.235546980053186">
        <ele>165.47999999999999</ele>
        <time>2017-06-26T06:53:28Z</time>
      </trkpt>
      <trkpt lat="70.322281010448933" lon="24.243167974054813">
        <ele>164.03999999999999</ele>
        <time>2017-06-26T06:53:40Z</time>
      </trkpt>
      <trkpt lat="70.324315968900919" lon="24.248406998813152">
        <ele>163.56</ele>
        <time>2017-06-26T06:53:50Z</time>
      </trkpt>
      <trkpt lat="70.325646009296179" lon="24.251739978790283">
        <ele>165.47999999999999</ele>
        <time>2017-06-26T06:53:58Z</time>
      </trkpt>
      <trkpt lat="70.327321970835328" lon="24.256623024120927">
        <ele>164.03999999999999</ele>
        <time>2017-06-26T06:54:10Z</time>
      </trkpt>
      <trkpt lat="70.328647987917066" lon="24.261337006464601">
        <ele>158.75</ele>
        <time>2017-06-26T06:54:18Z</time>
      </trkpt>
      <trkpt lat="70.331011014059186" lon="24.270446039736271">
        <ele>157.31</ele>
        <time>2017-06-26T06:54:32Z</time>
      </trkpt>
      <trkpt lat="70.332237035036087" lon="24.277885984629393">
        <ele>151.06</ele>
        <time>2017-06-26T06:54:42Z</time>
      </trkpt>
      <trkpt lat="70.334598971530795" lon="24.293514965102077">
        <ele>152.03</ele>
        <time>2017-06-26T06:55:03Z</time>
      </trkpt>
      <trkpt lat="70.336024984717369" lon="24.300354011356831">
        <ele>152.99000000000001</ele>
        <time>2017-06-26T06:55:13Z</time>
      </trkpt>
      <trkpt lat="70.338879022747278" lon="24.313671011477709">
        <ele>143.84999999999999</ele>
        <time>2017-06-26T06:55:32Z</time>
      </trkpt>
      <trkpt lat="70.342013016343117" lon="24.327572984620929">
        <ele>138.56999999999999</ele>
        <time>2017-06-26T06:55:52Z</time>
      </trkpt>
      <trkpt lat="70.344640994444489" lon="24.338611029088497">
        <ele>135.68000000000001</ele>
        <time>2017-06-26T06:56:08Z</time>
      </trkpt>
      <trkpt lat="70.346648963168263" lon="24.345319988206029">
        <ele>133.28</ele>
        <time>2017-06-26T06:56:19Z</time>
      </trkpt>
      <trkpt lat="70.349226985126734" lon="24.352544015273452">
        <ele>135.68000000000001</ele>
        <time>2017-06-26T06:56:32Z</time>
      </trkpt>
      <trkpt lat="70.350770009681582" lon="24.356373036280274">
        <ele>140.49000000000001</ele>
        <time>2017-06-26T06:56:41Z</time>
      </trkpt>
      <trkpt lat="70.351229002699256" lon="24.357278030365705">
        <ele>141.44999999999999</ele>
        <time>2017-06-26T06:56:44Z</time>
      </trkpt>
      <trkpt lat="70.351379960775375" lon="24.357493026182055">
        <ele>141.44999999999999</ele>
        <time>2017-06-26T06:56:45Z</time>
      </trkpt>
      <trkpt lat="70.352055039256811" lon="24.358072970062494">
        <ele>141.93000000000001</ele>
        <time>2017-06-26T06:56:51Z</time>
      </trkpt>
      <trkpt lat="70.352285038679838" lon="24.358173971995711">
        <ele>141.93000000000001</ele>
        <time>2017-06-26T06:56:55Z</time>
      </trkpt>
      <trkpt lat="70.352323008701205" lon="24.358163997530937">
        <ele>141.93000000000001</ele>
        <time>2017-06-26T06:56:56Z</time>
      </trkpt>
      <trkpt lat="70.352402972057462" lon="24.358165003359318">
        <ele>141.44999999999999</ele>
        <time>2017-06-26T06:57:04Z</time>
      </trkpt>
      <trkpt lat="70.352645963430405" lon="24.358029970899224">
        <ele>141.44999999999999</ele>
        <time>2017-06-26T06:57:50Z</time>
      </trkpt>
      <trkpt lat="70.353519022464752" lon="24.35750400647521">
        <ele>140.97</ele>
        <time>2017-06-26T06:57:57Z</time>
      </trkpt>
      <trkpt lat="70.355110997334123" lon="24.356348980218172">
        <ele>141.44999999999999</ele>
        <time>2017-06-26T06:58:06Z</time>
      </trkpt>
      <trkpt lat="70.355972992256284" lon="24.356248984113336">
        <ele>141.93000000000001</ele>
        <time>2017-06-26T06:58:10Z</time>
      </trkpt>
      <trkpt lat="70.356186982244253" lon="24.356358032673597">
        <ele>141.93000000000001</ele>
        <time>2017-06-26T06:58:11Z</time>
      </trkpt>
      <trkpt lat="70.356399966403842" lon="24.35653698630631">
        <ele>142.41</ele>
        <time>2017-06-26T06:58:12Z</time>
      </trkpt>
      <trkpt lat="70.356606999412179" lon="24.356774026528001">
        <ele>142.41</ele>
        <time>2017-06-26T06:58:13Z</time>
      </trkpt>
      <trkpt lat="70.356807997450233" lon="24.357078960165381">
        <ele>142.41</ele>
        <time>2017-06-26T06:58:14Z</time>
      </trkpt>
      <trkpt lat="70.357006983831525" lon="24.357436029240489">
        <ele>142.41</ele>
        <time>2017-06-26T06:58:15Z</time>
      </trkpt>
      <trkpt lat="70.357200019061565" lon="24.357840958982706">
        <ele>142.88999999999999</ele>
        <time>2017-06-26T06:58:16Z</time>
      </trkpt>
      <trkpt lat="70.357385007664561" lon="24.358285032212734">
        <ele>143.37</ele>
        <time>2017-06-26T06:58:17Z</time>
      </trkpt>
      <trkpt lat="70.359178986400366" lon="24.362781001254916">
        <ele>150.09999999999999</ele>
        <time>2017-06-26T06:58:26Z</time>
      </trkpt>
      <trkpt lat="70.3627759963274" lon="24.371053017675877">
        <ele>150.58000000000001</ele>
        <time>2017-06-26T06:58:42Z</time>
      </trkpt>
      <trkpt lat="70.366482976824045" lon="24.378707958385348">
        <ele>160.19999999999999</ele>
        <time>2017-06-26T06:58:58Z</time>
      </trkpt>
      <trkpt lat="70.368128009140491" lon="24.382819030433893">
        <ele>150.58000000000001</ele>
        <time>2017-06-26T06:59:06Z</time>
      </trkpt>
      <trkpt lat="70.369487972930074" lon="24.388031987473369">
        <ele>140.00999999999999</ele>
        <time>2017-06-26T06:59:14Z</time>
      </trkpt>
      <trkpt lat="70.372454999014735" lon="24.401193000376225">
        <ele>127.98999999999999</ele>
        <time>2017-06-26T06:59:33Z</time>
      </trkpt>
      <trkpt lat="70.375081971287727" lon="24.412154015153646">
        <ele>119.81999999999999</ele>
        <time>2017-06-26T06:59:49Z</time>
      </trkpt>
      <trkpt lat="70.377275012433529" lon="24.421856990084052">
        <ele>104.92</ele>
        <time>2017-06-26T07:00:03Z</time>
      </trkpt>
      <trkpt lat="70.378500027582049" lon="24.42711696960032">
        <ele>101.08</ele>
        <time>2017-06-26T07:00:12Z</time>
      </trkpt>
      <trkpt lat="70.379888992756605" lon="24.433142971247435">
        <ele>97.230000000000004</ele>
        <time>2017-06-26T07:00:23Z</time>
      </trkpt>
      <trkpt lat="70.38127301260829" lon="24.440331039950252">
        <ele>101.08</ele>
        <time>2017-06-26T07:00:33Z</time>
      </trkpt>
      <trkpt lat="70.382369030267" lon="24.443716993555427">
        <ele>113.56999999999999</ele>
        <time>2017-06-26T07:00:39Z</time>
      </trkpt>
      <trkpt lat="70.383347030729055" lon="24.447727985680103">
        <ele>124.63</ele>
        <time>2017-06-26T07:00:46Z</time>
      </trkpt>
      <trkpt lat="70.384188992902637" lon="24.450026974081993">
        <ele>127.03</ele>
        <time>2017-06-26T07:00:51Z</time>
      </trkpt>
      <trkpt lat="70.384387979283929" lon="24.45034297183156">
        <ele>127.03</ele>
        <time>2017-06-26T07:00:52Z</time>
      </trkpt>
      <trkpt lat="70.384593000635505" lon="24.450595015659928">
        <ele>126.55</ele>
        <time>2017-06-26T07:00:53Z</time>
      </trkpt>
      <trkpt lat="70.384807996451855" lon="24.450754020363092">
        <ele>126.06999999999999</ele>
        <time>2017-06-26T07:00:54Z</time>
      </trkpt>
      <trkpt lat="70.385026009753346" lon="24.450847981497645">
        <ele>125.59</ele>
        <time>2017-06-26T07:00:55Z</time>
      </trkpt>
      <trkpt lat="70.385255003347993" lon="24.450854016467929">
        <ele>125.11</ele>
        <time>2017-06-26T07:00:56Z</time>
      </trkpt>
      <trkpt lat="70.385486008599401" lon="24.450784027576447">
        <ele>124.15000000000001</ele>
        <time>2017-06-26T07:00:57Z</time>
      </trkpt>
      <trkpt lat="70.38572003133595" lon="24.450639020651579">
        <ele>123.19</ele>
        <time>2017-06-26T07:00:58Z</time>
      </trkpt>
      <trkpt lat="70.385951958596706" lon="24.450444979593158">
        <ele>122.22</ele>
        <time>2017-06-26T07:00:59Z</time>
      </trkpt>
      <trkpt lat="70.386185981333256" lon="24.450187990441918">
        <ele>121.73999999999999</ele>
        <time>2017-06-26T07:01:00Z</time>
      </trkpt>
      <trkpt lat="70.386418998241425" lon="24.449897976592183">
        <ele>121.26000000000001</ele>
        <time>2017-06-26T07:01:01Z</time>
      </trkpt>
      <trkpt lat="70.388248013332486" lon="24.44683900102973">
        <ele>113.09</ele>
        <time>2017-06-26T07:01:09Z</time>
      </trkpt>
      <trkpt lat="70.389617029577494" lon="24.443909022957087">
        <ele>106.84</ele>
        <time>2017-06-26T07:01:16Z</time>
      </trkpt>
      <trkpt lat="70.391061985865235" lon="24.442828008905053">
        <ele>107.31999999999999</ele>
        <time>2017-06-26T07:01:22Z</time>
      </trkpt>
      <trkpt lat="70.393037013709545" lon="24.442752990871668">
        <ele>113.56999999999999</ele>
        <time>2017-06-26T07:01:30Z</time>
      </trkpt>
      <trkpt lat="70.393910994753242" lon="24.443526975810528">
        <ele>113.09</ele>
        <time>2017-06-26T07:01:34Z</time>
      </trkpt>
      <trkpt lat="70.394103024154902" lon="24.443842973560095">
        <ele>113.09</ele>
        <time>2017-06-26T07:01:35Z</time>
      </trkpt>
      <trkpt lat="70.394286001101136" lon="24.444219991564751">
        <ele>112.61</ele>
        <time>2017-06-26T07:01:36Z</time>
      </trkpt>
      <trkpt lat="70.394460009410977" lon="24.444637997075915">
        <ele>111.65000000000001</ele>
        <time>2017-06-26T07:01:37Z</time>
      </trkpt>
      <trkpt lat="70.394624965265393" lon="24.44509900175035">
        <ele>111.65000000000001</ele>
        <time>2017-06-26T07:01:38Z</time>
      </trkpt>
      <trkpt lat="70.394786987453699" lon="24.44561499170959">
        <ele>111.17</ele>
        <time>2017-06-26T07:01:39Z</time>
      </trkpt>
      <trkpt lat="70.39648499339819" lon="24.450689982622862">
        <ele>104.44</ele>
        <time>2017-06-26T07:01:49Z</time>
      </trkpt>
      <trkpt lat="70.397630967199802" lon="24.454413978382945">
        <ele>100.59999999999999</ele>
        <time>2017-06-26T07:01:56Z</time>
      </trkpt>
      <trkpt lat="70.399263007566333" lon="24.461951991543174">
        <ele>83.290000000000006</ele>
        <time>2017-06-26T07:02:07Z</time>
      </trkpt>
      <trkpt lat="70.400432031601667" lon="24.468289967626333">
        <ele>76.560000000000002</ele>
        <time>2017-06-26T07:02:16Z</time>
      </trkpt>
      <trkpt lat="70.401300983503461" lon="24.472130974754691">
        <ele>76.079999999999998</ele>
        <time>2017-06-26T07:02:22Z</time>
      </trkpt>
      <trkpt lat="70.40321096777916" lon="24.482368966564536">
        <ele>76.079999999999998</ele>
        <time>2017-06-26T07:02:36Z</time>
      </trkpt>
      <trkpt lat="70.404541008174419" lon="24.487277995795012">
        <ele>78.969999999999999</ele>
        <time>2017-06-26T07:02:44Z</time>
      </trkpt>
      <trkpt lat="70.406259968876839" lon="24.490988999605179">
        <ele>71.760000000000005</ele>
        <time>2017-06-26T07:02:52Z</time>
      </trkpt>
      <trkpt lat="70.409535029903054" lon="24.495759978890419">
        <ele>65.030000000000001</ele>
        <time>2017-06-26T07:03:05Z</time>
      </trkpt>
      <trkpt lat="70.412199972197413" lon="24.498113030567765">
        <ele>67.430000000000007</ele>
        <time>2017-06-26T07:03:15Z</time>
      </trkpt>
      <trkpt lat="70.41446995921433" lon="24.500412018969655">
        <ele>72.719999999999999</ele>
        <time>2017-06-26T07:03:24Z</time>
      </trkpt>
      <trkpt lat="70.415945006534457" lon="24.501209976151586">
        <ele>68.390000000000001</ele>
        <time>2017-06-26T07:03:30Z</time>
      </trkpt>
      <trkpt lat="70.419565988704562" lon="24.502412024885416">
        <ele>58.780000000000001</ele>
        <time>2017-06-26T07:03:43Z</time>
      </trkpt>
      <trkpt lat="70.422819005325437" lon="24.503472000360489">
        <ele>56.369999999999997</ele>
        <time>2017-06-26T07:03:55Z</time>
      </trkpt>
      <trkpt lat="70.424737958237529" lon="24.503004038706422">
        <ele>54.450000000000003</ele>
        <time>2017-06-26T07:04:02Z</time>
      </trkpt>
      <trkpt lat="70.427500968798995" lon="24.501398988068104">
        <ele>52.049999999999997</ele>
        <time>2017-06-26T07:04:13Z</time>
      </trkpt>
      <trkpt lat="70.429326966404915" lon="24.50048896484077">
        <ele>48.200000000000003</ele>
        <time>2017-06-26T07:04:23Z</time>
      </trkpt>
      <trkpt lat="70.430549969896674" lon="24.500967990607023">
        <ele>45.799999999999997</ele>
        <time>2017-06-26T07:04:30Z</time>
      </trkpt>
      <trkpt lat="70.430882982909679" lon="24.501138981431723">
        <ele>47.240000000000002</ele>
        <time>2017-06-26T07:04:32Z</time>
      </trkpt>
      <trkpt lat="70.431041987612844" lon="24.501136969774961">
        <ele>47.719999999999999</ele>
        <time>2017-06-26T07:04:33Z</time>
      </trkpt>
      <trkpt lat="70.431624026969075" lon="24.501058012247086">
        <ele>51.090000000000003</ele>
        <time>2017-06-26T07:04:37Z</time>
      </trkpt>
      <trkpt lat="70.431752018630505" lon="24.50113202445209">
        <ele>52.049999999999997</ele>
        <time>2017-06-26T07:04:38Z</time>
      </trkpt>
      <trkpt lat="70.43187296949327" lon="24.501244006678462">
        <ele>53.009999999999998</ele>
        <time>2017-06-26T07:04:39Z</time>
      </trkpt>
      <trkpt lat="70.432414021342993" lon="24.502064008265734">
        <ele>55.409999999999997</ele>
        <time>2017-06-26T07:04:45Z</time>
      </trkpt>
      <trkpt lat="70.432462971657515" lon="24.502216977998614">
        <ele>55.409999999999997</ele>
        <time>2017-06-26T07:04:46Z</time>
      </trkpt>
      <trkpt lat="70.432492978870869" lon="24.50240196660161">
        <ele>55.890000000000001</ele>
        <time>2017-06-26T07:04:47Z</time>
      </trkpt>
      <trkpt lat="70.432503037154675" lon="24.502611011266708">
        <ele>55.890000000000001</ele>
        <time>2017-06-26T07:04:48Z</time>
      </trkpt>
      <trkpt lat="70.432488033547997" lon="24.502822989597917">
        <ele>55.409999999999997</ele>
        <time>2017-06-26T07:04:49Z</time>
      </trkpt>
      <trkpt lat="70.432456014677882" lon="24.503058018162847">
        <ele>55.890000000000001</ele>
        <time>2017-06-26T07:04:50Z</time>
      </trkpt>
      <trkpt lat="70.432417038828135" lon="24.503297992050648">
        <ele>56.369999999999997</ele>
        <time>2017-06-26T07:04:51Z</time>
      </trkpt>
      <trkpt lat="70.432373033836484" lon="24.503553975373507">
        <ele>56.369999999999997</ele>
        <time>2017-06-26T07:04:52Z</time>
      </trkpt>
      <trkpt lat="70.431902976706624" lon="24.506705990061164">
        <ele>58.299999999999997</ele>
        <time>2017-06-26T07:05:01Z</time>
      </trkpt>
      <trkpt lat="70.431525958701968" lon="24.511139011010528">
        <ele>60.700000000000003</ele>
        <time>2017-06-26T07:05:11Z</time>
      </trkpt>
      <trkpt lat="70.431554038077593" lon="24.516582973301411">
        <ele>65.510000000000005</ele>
        <time>2017-06-26T07:05:21Z</time>
      </trkpt>
      <trkpt lat="70.431581027805805" lon="24.517126958817244">
        <ele>66.469999999999999</ele>
        <time>2017-06-26T07:05:22Z</time>
      </trkpt>
      <trkpt lat="70.431626960635185" lon="24.517658036202192">
        <ele>67.430000000000007</ele>
        <time>2017-06-26T07:05:23Z</time>
      </trkpt>
      <trkpt lat="70.431696027517319" lon="24.518171008676291">
        <ele>68.390000000000001</ele>
        <time>2017-06-26T07:05:24Z</time>
      </trkpt>
      <trkpt lat="70.431781020015478" lon="24.518671995028853">
        <ele>69.349999999999994</ele>
        <time>2017-06-26T07:05:25Z</time>
      </trkpt>
      <trkpt lat="70.431875986978412" lon="24.519187984988093">
        <ele>69.829999999999998</ele>
        <time>2017-06-26T07:05:26Z</time>
      </trkpt>
      <trkpt lat="70.432345038279891" lon="24.52190900221467">
        <ele>73.200000000000003</ele>
        <time>2017-06-26T07:05:31Z</time>
      </trkpt>
      <trkpt lat="70.432401029393077" lon="24.522489029914141">
        <ele>74.159999999999997</ele>
        <time>2017-06-26T07:05:32Z</time>
      </trkpt>
      <trkpt lat="70.432434976100922" lon="24.523070985451341">
        <ele>75.120000000000005</ele>
        <time>2017-06-26T07:05:33Z</time>
      </trkpt>
      <trkpt lat="70.432681990787387" lon="24.529110984876752">
        <ele>85.209999999999994</ele>
        <time>2017-06-26T07:05:43Z</time>
      </trkpt>
      <trkpt lat="70.433272998780012" lon="24.535690024495125">
        <ele>98.670000000000002</ele>
        <time>2017-06-26T07:05:54Z</time>
      </trkpt>
      <trkpt lat="70.433787982910872" lon="24.538224041461945">
        <ele>103</ele>
        <time>2017-06-26T07:05:59Z</time>
      </trkpt>
      <trkpt lat="70.43393399566412" lon="24.538663001731038">
        <ele>104.44</ele>
        <time>2017-06-26T07:06:00Z</time>
      </trkpt>
      <trkpt lat="70.434087971225381" lon="24.53907698392868">
        <ele>105.88</ele>
        <time>2017-06-26T07:06:01Z</time>
      </trkpt>
      <trkpt lat="70.434531960636377" lon="24.540329994633794">
        <ele>109.73</ele>
        <time>2017-06-26T07:06:04Z</time>
      </trkpt>
      <trkpt lat="70.434638997539878" lon="24.540803991258144">
        <ele>110.69</ele>
        <time>2017-06-26T07:06:05Z</time>
      </trkpt>
      <trkpt lat="70.434726001694798" lon="24.541292991489172">
        <ele>112.13</ele>
        <time>2017-06-26T07:06:06Z</time>
      </trkpt>
      <trkpt lat="70.434954995289445" lon="24.542769966647029">
        <ele>116.45999999999999</ele>
        <time>2017-06-26T07:06:09Z</time>
      </trkpt>
      <trkpt lat="70.435057003051043" lon="24.543219991028309">
        <ele>117.90000000000001</ele>
        <time>2017-06-26T07:06:10Z</time>
      </trkpt>
      <trkpt lat="70.435178959742188" lon="24.543635984882712">
        <ele>118.86</ele>
        <time>2017-06-26T07:06:11Z</time>
      </trkpt>
      <trkpt lat="70.435313992202282" lon="24.544024989008904">
        <ele>120.78</ele>
        <time>2017-06-26T07:06:12Z</time>
      </trkpt>
      <trkpt lat="70.435466039925814" lon="24.544404018670321">
        <ele>122.22</ele>
        <time>2017-06-26T07:06:13Z</time>
      </trkpt>
      <trkpt lat="70.437162034213543" lon="24.54822801053524">
        <ele>136.63999999999999</ele>
        <time>2017-06-26T07:06:23Z</time>
      </trkpt>
      <trkpt lat="70.438095023855567" lon="24.551671966910362">
        <ele>143.84999999999999</ele>
        <time>2017-06-26T07:06:30Z</time>
      </trkpt>
      <trkpt lat="70.438642026856542" lon="24.556505978107452">
        <ele>151.53999999999999</ele>
        <time>2017-06-26T07:06:38Z</time>
      </trkpt>
      <trkpt lat="70.438952995464206" lon="24.56455897539854">
        <ele>157.78999999999999</ele>
        <time>2017-06-26T07:06:50Z</time>
      </trkpt>
      <trkpt lat="70.43956303037703" lon="24.579775985330343">
        <ele>176.06</ele>
        <time>2017-06-26T07:07:11Z</time>
      </trkpt>
      <trkpt lat="70.439980030059814" lon="24.586646966636181">
        <ele>183.27000000000001</ele>
        <time>2017-06-26T07:07:20Z</time>
      </trkpt>
      <trkpt lat="70.440820986405015" lon="24.599904036149383">
        <ele>184.22999999999999</ele>
        <time>2017-06-26T07:07:37Z</time>
      </trkpt>
      <trkpt lat="70.441766967996955" lon="24.615057008340955">
        <ele>189.52000000000001</ele>
        <time>2017-06-26T07:07:56Z</time>
      </trkpt>
      <trkpt lat="70.442669028416276" lon="24.626065967604518">
        <ele>195.28</ele>
        <time>2017-06-26T07:08:10Z</time>
      </trkpt>
      <trkpt lat="70.443895971402526" lon="24.633124032989144">
        <ele>196.72999999999999</ele>
        <time>2017-06-26T07:08:20Z</time>
      </trkpt>
      <trkpt lat="70.446275006979704" lon="24.644686030223966">
        <ele>214.99000000000001</ele>
        <time>2017-06-26T07:08:37Z</time>
      </trkpt>
      <trkpt lat="70.447637988254428" lon="24.655360970646143">
        <ele>224.61000000000001</ele>
        <time>2017-06-26T07:08:51Z</time>
      </trkpt>
      <trkpt lat="70.449770009145141" lon="24.672566000372171">
        <ele>233.25999999999999</ele>
        <time>2017-06-26T07:09:13Z</time>
      </trkpt>
      <trkpt lat="70.452016023918986" lon="24.690338987857103">
        <ele>224.61000000000001</ele>
        <time>2017-06-26T07:09:36Z</time>
      </trkpt>
      <trkpt lat="70.453821988776326" lon="24.700672030448914">
        <ele>211.63</ele>
        <time>2017-06-26T07:09:50Z</time>
      </trkpt>
      <trkpt lat="70.456324992701411" lon="24.714939035475254">
        <ele>191.44</ele>
        <time>2017-06-26T07:10:09Z</time>
      </trkpt>
      <trkpt lat="70.457241972908378" lon="24.721991987898946">
        <ele>189.03999999999999</ele>
        <time>2017-06-26T07:10:18Z</time>
      </trkpt>
      <trkpt lat="70.457384968176484" lon="24.728520987555385">
        <ele>187.11000000000001</ele>
        <time>2017-06-26T07:10:26Z</time>
      </trkpt>
      <trkpt lat="70.457730973139405" lon="24.737654998898506">
        <ele>179.41999999999999</ele>
        <time>2017-06-26T07:10:37Z</time>
      </trkpt>
      <trkpt lat="70.458525996655226" lon="24.747343976050615">
        <ele>181.34999999999999</ele>
        <time>2017-06-26T07:10:49Z</time>
      </trkpt>
      <trkpt lat="70.460240012034774" lon="24.758313959464431">
        <ele>183.75</ele>
        <time>2017-06-26T07:11:03Z</time>
      </trkpt>
      <trkpt lat="70.462777968496084" lon="24.774647019803524">
        <ele>185.19</ele>
        <time>2017-06-26T07:11:24Z</time>
      </trkpt>
      <trkpt lat="70.465181982144713" lon="24.790190001949668">
        <ele>189.03999999999999</ele>
        <time>2017-06-26T07:11:44Z</time>
      </trkpt>
      <trkpt lat="70.465996032580733" lon="24.79747898876667">
        <ele>189.52000000000001</ele>
        <time>2017-06-26T07:11:53Z</time>
      </trkpt>
      <trkpt lat="70.466876970604062" lon="24.806464975699782">
        <ele>190.96000000000001</ele>
        <time>2017-06-26T07:12:04Z</time>
      </trkpt>
      <trkpt lat="70.468033002689481" lon="24.812392992898822">
        <ele>192.40000000000001</ele>
        <time>2017-06-26T07:12:12Z</time>
      </trkpt>
      <trkpt lat="70.470310030505061" lon="24.823321988806129">
        <ele>191.44</ele>
        <time>2017-06-26T07:12:27Z</time>
      </trkpt>
      <trkpt lat="70.472786966711283" lon="24.839388001710176">
        <ele>191.44</ele>
        <time>2017-06-26T07:12:48Z</time>
      </trkpt>
      <trkpt lat="70.474951006472111" lon="24.852605005726218">
        <ele>189.03999999999999</ele>
        <time>2017-06-26T07:13:06Z</time>
      </trkpt>
      <trkpt lat="70.47761301510036" lon="24.864607974886894">
        <ele>177.5</ele>
        <time>2017-06-26T07:13:23Z</time>
      </trkpt>
      <trkpt lat="70.479140030220151" lon="24.872677987441421">
        <ele>170.77000000000001</ele>
        <time>2017-06-26T07:13:34Z</time>
      </trkpt>
      <trkpt lat="70.479497015476227" lon="24.878332000225782">
        <ele>170.77000000000001</ele>
        <time>2017-06-26T07:13:41Z</time>
      </trkpt>
      <trkpt lat="70.479335999116302" lon="24.883896997198462">
        <ele>174.13999999999999</ele>
        <time>2017-06-26T07:13:48Z</time>
      </trkpt>
      <trkpt lat="70.478679025545716" lon="24.88906997255981">
        <ele>181.34999999999999</ele>
        <time>2017-06-26T07:13:55Z</time>
      </trkpt>
      <trkpt lat="70.476555973291397" lon="24.901245022192597">
        <ele>191.44</ele>
        <time>2017-06-26T07:14:12Z</time>
      </trkpt>
      <trkpt lat="70.47443300485611" lon="24.913525013253093">
        <ele>181.34999999999999</ele>
        <time>2017-06-26T07:14:29Z</time>
      </trkpt>
      <trkpt lat="70.472816973924637" lon="24.92286304011941">
        <ele>164.03999999999999</ele>
        <time>2017-06-26T07:14:42Z</time>
      </trkpt>
      <trkpt lat="70.472212973982096" lon="24.928246987983584">
        <ele>152.03</ele>
        <time>2017-06-26T07:14:50Z</time>
      </trkpt>
      <trkpt lat="70.471762027591467" lon="24.936666022986174">
        <ele>135.19999999999999</ele>
        <time>2017-06-26T07:15:01Z</time>
      </trkpt>
      <trkpt lat="70.470891986042261" lon="24.944783980026841">
        <ele>125.59</ele>
        <time>2017-06-26T07:15:12Z</time>
      </trkpt>
      <trkpt lat="70.470227971673012" lon="24.953072005882859">
        <ele>111.17</ele>
        <time>2017-06-26T07:15:23Z</time>
      </trkpt>
      <trkpt lat="70.469110999256372" lon="24.966148026287556">
        <ele>85.209999999999994</ele>
        <time>2017-06-26T07:15:40Z</time>
      </trkpt>
      <trkpt lat="70.469095995649695" lon="24.971445975825191">
        <ele>77.040000000000006</ele>
        <time>2017-06-26T07:15:47Z</time>
      </trkpt>
      <trkpt lat="70.46908300369978" lon="24.977626036852598">
        <ele>65.030000000000001</ele>
        <time>2017-06-26T07:15:55Z</time>
      </trkpt>
      <trkpt lat="70.468734987080097" lon="24.984302977100015">
        <ele>52.530000000000001</ele>
        <time>2017-06-26T07:16:04Z</time>
      </trkpt>
      <trkpt lat="70.468942020088434" lon="24.989713998511434">
        <ele>48.200000000000003</ele>
        <time>2017-06-26T07:16:11Z</time>
      </trkpt>
      <trkpt lat="70.469332030043006" lon="24.996675001457334">
        <ele>45.32</ele>
        <time>2017-06-26T07:16:20Z</time>
      </trkpt>
      <trkpt lat="70.469206972047687" lon="25.002085017040372">
        <ele>44.840000000000003</ele>
        <time>2017-06-26T07:16:27Z</time>
      </trkpt>
      <trkpt lat="70.469370000064373" lon="25.008173966780305">
        <ele>46.759999999999998</ele>
        <time>2017-06-26T07:16:35Z</time>
      </trkpt>
      <trkpt lat="70.46983502805233" lon="25.015182998031378">
        <ele>47.719999999999999</ele>
        <time>2017-06-26T07:16:44Z</time>
      </trkpt>
      <trkpt lat="70.470748990774155" lon="25.027722995728254">
        <ele>39.549999999999997</ele>
        <time>2017-06-26T07:17:00Z</time>
      </trkpt>
      <trkpt lat="70.470770029351115" lon="25.028454987332225">
        <ele>39.07</ele>
        <time>2017-06-26T07:17:01Z</time>
      </trkpt>
      <trkpt lat="70.470771035179496" lon="25.029198965057731">
        <ele>38.590000000000003</ele>
        <time>2017-06-26T07:17:02Z</time>
      </trkpt>
      <trkpt lat="70.470743039622903" lon="25.037685977295041">
        <ele>39.07</ele>
        <time>2017-06-26T07:17:13Z</time>
      </trkpt>
      <trkpt lat="70.47106197103858" lon="25.041091041639447">
        <ele>41.469999999999999</ele>
        <time>2017-06-26T07:17:18Z</time>
      </trkpt>
      <trkpt lat="70.471174959093332" lon="25.041689006611705">
        <ele>41.950000000000003</ele>
        <time>2017-06-26T07:17:19Z</time>
      </trkpt>
      <trkpt lat="70.471303034573793" lon="25.042226035147905">
        <ele>41.950000000000003</ele>
        <time>2017-06-26T07:17:20Z</time>
      </trkpt>
      <trkpt lat="70.471443012356758" lon="25.042745964601636">
        <ele>42.439999999999998</ele>
        <time>2017-06-26T07:17:21Z</time>
      </trkpt>
      <trkpt lat="70.471594976261258" lon="25.043248040601611">
        <ele>42.439999999999998</ele>
        <time>2017-06-26T07:17:22Z</time>
      </trkpt>
      <trkpt lat="70.473864963278174" lon="25.050031011924148">
        <ele>39.07</ele>
        <time>2017-06-26T07:17:37Z</time>
      </trkpt>
      <trkpt lat="70.474076019600034" lon="25.050922008231282">
        <ele>37.149999999999999</ele>
        <time>2017-06-26T07:17:39Z</time>
      </trkpt>
      <trkpt lat="70.474141985177994" lon="25.051386030390859">
        <ele>36.189999999999998</ele>
        <time>2017-06-26T07:17:40Z</time>
      </trkpt>
      <trkpt lat="70.47417500987649" lon="25.051846029236913">
        <ele>35.229999999999997</ele>
        <time>2017-06-26T07:17:41Z</time>
      </trkpt>
      <trkpt lat="70.474181966856122" lon="25.052290018647909">
        <ele>34.259999999999998</ele>
        <time>2017-06-26T07:17:42Z</time>
      </trkpt>
      <trkpt lat="70.474166041240096" lon="25.052729984745383">
        <ele>32.82</ele>
        <time>2017-06-26T07:17:43Z</time>
      </trkpt>
      <trkpt lat="70.4741330165416" lon="25.053171962499619">
        <ele>31.859999999999999</ele>
        <time>2017-06-26T07:17:44Z</time>
      </trkpt>
      <trkpt lat="70.474088005721569" lon="25.05362500436604">
        <ele>30.899999999999999</ele>
        <time>2017-06-26T07:17:45Z</time>
      </trkpt>
      <trkpt lat="70.47402698546648" lon="25.054080979898572">
        <ele>29.940000000000001</ele>
        <time>2017-06-26T07:17:46Z</time>
      </trkpt>
      <trkpt lat="70.473948027938604" lon="25.054524969309568">
        <ele>28.5</ele>
        <time>2017-06-26T07:17:47Z</time>
      </trkpt>
      <trkpt lat="70.473851971328259" lon="25.054964013397694">
        <ele>27.530000000000001</ele>
        <time>2017-06-26T07:17:48Z</time>
      </trkpt>
      <trkpt lat="70.473743006587029" lon="25.055384030565619">
        <ele>26.57</ele>
        <time>2017-06-26T07:17:49Z</time>
      </trkpt>
      <trkpt lat="70.473621971905231" lon="25.055803041905165">
        <ele>25.609999999999999</ele>
        <time>2017-06-26T07:17:50Z</time>
      </trkpt>
      <trkpt lat="70.472481027245522" lon="25.059691993519664">
        <ele>12.15</ele>
        <time>2017-06-26T07:18:00Z</time>
      </trkpt>
      <trkpt lat="70.472356975078583" lon="25.060360031202435">
        <ele>10.23</ele>
        <time>2017-06-26T07:18:02Z</time>
      </trkpt>
      <trkpt lat="70.472324034199119" lon="25.060668988153338">
        <ele>9.27</ele>
        <time>2017-06-26T07:18:03Z</time>
      </trkpt>
      <trkpt lat="70.472321016713977" lon="25.060989009216428">
        <ele>8.310000000000001</ele>
        <time>2017-06-26T07:18:04Z</time>
      </trkpt>
      <trkpt lat="70.472344988957047" lon="25.061311963945627">
        <ele>7.83</ele>
        <time>2017-06-26T07:18:05Z</time>
      </trkpt>
      <trkpt lat="70.472397962585092" lon="25.061649000272155">
        <ele>6.87</ele>
        <time>2017-06-26T07:18:06Z</time>
      </trkpt>
      <trkpt lat="70.472481027245522" lon="25.061967009678483">
        <ele>5.91</ele>
        <time>2017-06-26T07:18:07Z</time>
      </trkpt>
      <trkpt lat="70.472589991986752" lon="25.062292981892824">
        <ele>4.94</ele>
        <time>2017-06-26T07:18:08Z</time>
      </trkpt>
      <trkpt lat="70.47271597199142" lon="25.062637981027365">
        <ele>3.98</ele>
        <time>2017-06-26T07:18:09Z</time>
      </trkpt>
      <trkpt lat="70.473395995795727" lon="25.065255984663963">
        <ele>-1.3</ele>
        <time>2017-06-26T07:18:15Z</time>
      </trkpt>
      <trkpt lat="70.473455004394054" lon="25.065732998773456">
        <ele>-1.79</ele>
        <time>2017-06-26T07:18:16Z</time>
      </trkpt>
      <trkpt lat="70.473499009385705" lon="25.066221999004483">
        <ele>-2.27</ele>
        <time>2017-06-26T07:18:17Z</time>
      </trkpt>
      <trkpt lat="70.47353002242744" lon="25.066731031984091">
        <ele>-3.23</ele>
        <time>2017-06-26T07:18:18Z</time>
      </trkpt>
      <trkpt lat="70.473555000498891" lon="25.067241992801428">
        <ele>-3.23</ele>
        <time>2017-06-26T07:18:19Z</time>
      </trkpt>
      <trkpt lat="70.473701013252139" lon="25.07105098105967">
        <ele>-4.19</ele>
        <time>2017-06-26T07:18:28Z</time>
      </trkpt>
      <trkpt lat="70.47372599132359" lon="25.071408972144127">
        <ele>-4.19</ele>
        <time>2017-06-26T07:18:30Z</time>
      </trkpt>
      <trkpt lat="70.473740994930267" lon="25.071486001834273">
        <ele>-4.19</ele>
        <time>2017-06-26T07:18:31Z</time>
      </trkpt>
      <trkpt lat="70.473769996315241" lon="25.071525983512402">
        <ele>-4.19</ele>
        <time>2017-06-26T07:18:32Z</time>
      </trkpt>
      <trkpt lat="70.473820036277175" lon="25.071536041796207">
        <ele>-4.19</ele>
        <time>2017-06-26T07:18:33Z</time>
      </trkpt>
      <trkpt lat="70.473892958834767" lon="25.071508968248963">
        <ele>-4.19</ele>
        <time>2017-06-26T07:18:34Z</time>
      </trkpt>
      <trkpt lat="70.473976023495197" lon="25.071446020156145">
        <ele>-4.19</ele>
        <time>2017-06-26T07:18:35Z</time>
      </trkpt>
      <trkpt lat="70.474067972972989" lon="25.071354992687702">
        <ele>-4.19</ele>
        <time>2017-06-26T07:18:36Z</time>
      </trkpt>
      <trkpt lat="70.475017977878451" lon="25.070293005555868">
        <ele>-3.23</ele>
        <time>2017-06-26T07:18:44Z</time>
      </trkpt>
      <trkpt lat="70.476530995219946" lon="25.068751992657781">
        <ele>-2.75</ele>
        <time>2017-06-26T07:18:54Z</time>
      </trkpt>
      <trkpt lat="70.478943977504969" lon="25.066874027252197">
        <ele>-2.27</ele>
        <time>2017-06-26T07:19:08Z</time>
      </trkpt>
      <trkpt lat="70.479132989421487" lon="25.066891964524984">
        <ele>-1.3</ele>
        <time>2017-06-26T07:19:09Z</time>
      </trkpt>
      <trkpt lat="70.479319989681244" lon="25.066960025578737">
        <ele>0.14</ele>
        <time>2017-06-26T07:19:10Z</time>
      </trkpt>
      <trkpt lat="70.479502966627479" lon="25.067087011411786">
        <ele>1.1</ele>
        <time>2017-06-26T07:19:11Z</time>
      </trkpt>
      <trkpt lat="70.479680998250842" lon="25.067277029156685">
        <ele>2.06</ele>
        <time>2017-06-26T07:19:12Z</time>
      </trkpt>
      <trkpt lat="70.47984997741878" lon="25.06752303801477">
        <ele>3.02</ele>
        <time>2017-06-26T07:19:13Z</time>
      </trkpt>
      <trkpt lat="70.480014011263847" lon="25.067816991358995">
        <ele>3.5</ele>
        <time>2017-06-26T07:19:14Z</time>
      </trkpt>
      <trkpt lat="70.480168992653489" lon="25.06816802546382">
        <ele>3.98</ele>
        <time>2017-06-26T07:19:15Z</time>
      </trkpt>
      <trkpt lat="70.480313999578357" lon="25.068570021539927">
        <ele>4.46</ele>
        <time>2017-06-26T07:19:16Z</time>
      </trkpt>
      <trkpt lat="70.48044802621007" lon="25.069027002900839">
        <ele>4.46</ele>
        <time>2017-06-26T07:19:17Z</time>
      </trkpt>
      <trkpt lat="70.480574006214738" lon="25.06952203810215">
        <ele>4.46</ele>
        <time>2017-06-26T07:19:18Z</time>
      </trkpt>
      <trkpt lat="70.480695040896535" lon="25.0700409617275">
        <ele>4.46</ele>
        <time>2017-06-26T07:19:19Z</time>
      </trkpt>
      <trkpt lat="70.482037989422679" lon="25.075674019753933">
        <ele>5.42</ele>
        <time>2017-06-26T07:19:30Z</time>
      </trkpt>
      <trkpt lat="70.482175033539534" lon="25.076046008616686">
        <ele>5.42</ele>
        <time>2017-06-26T07:19:31Z</time>
      </trkpt>
      <trkpt lat="70.482328003272414" lon="25.07637700997293">
        <ele>5.91</ele>
        <time>2017-06-26T07:19:32Z</time>
      </trkpt>
      <trkpt lat="70.482494970783591" lon="25.076646991074085">
        <ele>5.91</ele>
        <time>2017-06-26T07:19:33Z</time>
      </trkpt>
      <trkpt lat="70.482671996578574" lon="25.076868021860719">
        <ele>5.91</ele>
        <time>2017-06-26T07:19:34Z</time>
      </trkpt>
      <trkpt lat="70.48285698518157" lon="25.077024009078741">
        <ele>5.91</ele>
        <time>2017-06-26T07:19:35Z</time>
      </trkpt>
      <trkpt lat="70.483047002926469" lon="25.077133979648352">
        <ele>5.91</ele>
        <time>2017-06-26T07:19:36Z</time>
      </trkpt>
      <trkpt lat="70.483240038156509" lon="25.077170021831989">
        <ele>5.91</ele>
        <time>2017-06-26T07:19:37Z</time>
      </trkpt>
      <trkpt lat="70.483427960425615" lon="25.077121993526816">
        <ele>5.91</ele>
        <time>2017-06-26T07:19:38Z</time>
      </trkpt>
      <trkpt lat="70.483618983998895" lon="25.077004982158542">
        <ele>5.42</ele>
        <time>2017-06-26T07:19:39Z</time>
      </trkpt>
      <trkpt lat="70.483810007572174" lon="25.07682703435421">
        <ele>5.42</ele>
        <time>2017-06-26T07:19:40Z</time>
      </trkpt>
      <trkpt lat="70.483998013660312" lon="25.076593011617661">
        <ele>4.94</ele>
        <time>2017-06-26T07:19:41Z</time>
      </trkpt>
      <trkpt lat="70.484175039455295" lon="25.076305009424686">
        <ele>4.46</ele>
        <time>2017-06-26T07:19:42Z</time>
      </trkpt>
      <trkpt lat="70.484334966167808" lon="25.075961016118526">
        <ele>4.46</ele>
        <time>2017-06-26T07:19:43Z</time>
      </trkpt>
      <trkpt lat="70.484477961435914" lon="25.075561031699181">
        <ele>4.46</ele>
        <time>2017-06-26T07:19:44Z</time>
      </trkpt>
      <trkpt lat="70.484594972804189" lon="25.075090974569321">
        <ele>4.46</ele>
        <time>2017-06-26T07:19:45Z</time>
      </trkpt>
      <trkpt lat="70.484693963080645" lon="25.074571967124939">
        <ele>4.94</ele>
        <time>2017-06-26T07:19:46Z</time>
      </trkpt>
      <trkpt lat="70.484779039397836" lon="25.073996968567371">
        <ele>4.94</ele>
        <time>2017-06-26T07:19:47Z</time>
      </trkpt>
      <trkpt lat="70.48485598526895" lon="25.073414007201791">
        <ele>4.94</ele>
        <time>2017-06-26T07:19:48Z</time>
      </trkpt>
      <trkpt lat="70.485178017988801" lon="25.071107978001237">
        <ele>4.46</ele>
        <time>2017-06-26T07:19:52Z</time>
      </trkpt>
      <trkpt lat="70.485298968851566" lon="25.0705779902637">
        <ele>3.98</ele>
        <time>2017-06-26T07:19:53Z</time>
      </trkpt>
      <trkpt lat="70.485439030453563" lon="25.070089995861053">
        <ele>3.98</ele>
        <time>2017-06-26T07:19:54Z</time>
      </trkpt>
      <trkpt lat="70.485595017671585" lon="25.069648018106818">
        <ele>4.46</ele>
        <time>2017-06-26T07:19:55Z</time>
      </trkpt>
      <trkpt lat="70.485760979354382" lon="25.069238981232047">
        <ele>4.46</ele>
        <time>2017-06-26T07:19:56Z</time>
      </trkpt>
      <trkpt lat="70.486059039831161" lon="25.068429037928581">
        <ele>5.42</ele>
        <time>2017-06-26T07:19:58Z</time>
      </trkpt>
      <trkpt lat="70.486166998744011" lon="25.067968033254147">
        <ele>5.91</ele>
        <time>2017-06-26T07:19:59Z</time>
      </trkpt>
      <trkpt lat="70.48625098541379" lon="25.067467968910933">
        <ele>6.39</ele>
        <time>2017-06-26T07:20:00Z</time>
      </trkpt>
      <trkpt lat="70.486305970698595" lon="25.066914008930326">
        <ele>6.39</ele>
        <time>2017-06-26T07:20:01Z</time>
      </trkpt>
      <trkpt lat="70.486342012882233" lon="25.066347979009151">
        <ele>5.91</ele>
        <time>2017-06-26T07:20:02Z</time>
      </trkpt>
      <trkpt lat="70.486355004832149" lon="25.065768035128713">
        <ele>5.91</ele>
        <time>2017-06-26T07:20:03Z</time>
      </trkpt>
      <trkpt lat="70.486338995397091" lon="25.065182978287339">
        <ele>5.91</ele>
        <time>2017-06-26T07:20:04Z</time>
      </trkpt>
      <trkpt lat="70.486298007890582" lon="25.064588030800223">
        <ele>5.42</ele>
        <time>2017-06-26T07:20:05Z</time>
      </trkpt>
      <trkpt lat="70.486237993463874" lon="25.063985958695412">
        <ele>5.42</ele>
        <time>2017-06-26T07:20:06Z</time>
      </trkpt>
      <trkpt lat="70.48616498708725" lon="25.063377013429999">
        <ele>4.94</ele>
        <time>2017-06-26T07:20:07Z</time>
      </trkpt>
      <trkpt lat="70.485625024884939" lon="25.059087993577123">
        <ele>1.1</ele>
        <time>2017-06-26T07:20:14Z</time>
      </trkpt>
      <trkpt lat="70.485609015449882" lon="25.058536967262626">
        <ele>1.58</ele>
        <time>2017-06-26T07:20:15Z</time>
      </trkpt>
      <trkpt lat="70.485625024884939" lon="25.057997005060315">
        <ele>1.58</ele>
        <time>2017-06-26T07:20:16Z</time>
      </trkpt>
      <trkpt lat="70.485665006563067" lon="25.057486966252327">
        <ele>1.58</ele>
        <time>2017-06-26T07:20:17Z</time>
      </trkpt>
      <trkpt lat="70.485731977969408" lon="25.057006012648344">
        <ele>2.06</ele>
        <time>2017-06-26T07:20:18Z</time>
      </trkpt>
      <trkpt lat="70.48582199960947" lon="25.056556994095445">
        <ele>3.5</ele>
        <time>2017-06-26T07:20:19Z</time>
      </trkpt>
      <trkpt lat="70.485935993492603" lon="25.056151980534196">
        <ele>4.46</ele>
        <time>2017-06-26T07:20:20Z</time>
      </trkpt>
      <trkpt lat="70.486065996810794" lon="25.055831037461758">
        <ele>4.94</ele>
        <time>2017-06-26T07:20:21Z</time>
      </trkpt>
      <trkpt lat="70.486212009564042" lon="25.055569019168615">
        <ele>5.91</ele>
        <time>2017-06-26T07:20:22Z</time>
      </trkpt>
      <trkpt lat="70.486371014267206" lon="25.055348994210362">
        <ele>6.87</ele>
        <time>2017-06-26T07:20:23Z</time>
      </trkpt>
      <trkpt lat="70.486540999263525" lon="25.055174985900521">
        <ele>7.83</ele>
        <time>2017-06-26T07:20:24Z</time>
      </trkpt>
      <trkpt lat="70.486722970381379" lon="25.055016987025738">
        <ele>8.310000000000001</ele>
        <time>2017-06-26T07:20:25Z</time>
      </trkpt>
      <trkpt lat="70.488943001255393" lon="25.053137009963393">
        <ele>17.920000000000002</ele>
        <time>2017-06-26T07:20:36Z</time>
      </trkpt>
      <trkpt lat="70.491404011845589" lon="25.049878964200616">
        <ele>26.57</ele>
        <time>2017-06-26T07:20:48Z</time>
      </trkpt>
      <trkpt lat="70.492513021454215" lon="25.047142021358013">
        <ele>26.57</ele>
        <time>2017-06-26T07:20:55Z</time>
      </trkpt>
      <trkpt lat="70.494906976819038" lon="25.04111903719604">
        <ele>19.84</ele>
        <time>2017-06-26T07:21:09Z</time>
      </trkpt>
      <trkpt lat="70.495104035362601" lon="25.040860958397388">
        <ele>19.84</ele>
        <time>2017-06-26T07:21:10Z</time>
      </trkpt>
      <trkpt lat="70.495306961238384" lon="25.040660966187716">
        <ele>19.359999999999999</ele>
        <time>2017-06-26T07:21:11Z</time>
      </trkpt>
      <trkpt lat="70.495513994246721" lon="25.040510008111596">
        <ele>19.359999999999999</ele>
        <time>2017-06-26T07:21:12Z</time>
      </trkpt>
      <trkpt lat="70.49572697840631" lon="25.040396014228463">
        <ele>18.879999999999999</ele>
        <time>2017-06-26T07:21:13Z</time>
      </trkpt>
      <trkpt lat="70.498291002586484" lon="25.039624040946364">
        <ele>5.42</ele>
        <time>2017-06-26T07:21:24Z</time>
      </trkpt>
      <trkpt lat="70.500571969896555" lon="25.039119031280279">
        <ele>-3.23</ele>
        <time>2017-06-26T07:21:34Z</time>
      </trkpt>
      <trkpt lat="70.501722972840071" lon="25.040542026981711">
        <ele>-3.23</ele>
        <time>2017-06-26T07:21:40Z</time>
      </trkpt>
      <trkpt lat="70.502347005531192" lon="25.042167026549578">
        <ele>-2.27</ele>
        <time>2017-06-26T07:21:44Z</time>
      </trkpt>
      <trkpt lat="70.502460999414325" lon="25.042650997638702">
        <ele>-2.27</ele>
        <time>2017-06-26T07:21:45Z</time>
      </trkpt>
      <trkpt lat="70.502554960548878" lon="25.043167993426323">
        <ele>-2.27</ele>
        <time>2017-06-26T07:21:46Z</time>
      </trkpt>
      <trkpt lat="70.502635007724166" lon="25.043695969507098">
        <ele>-2.27</ele>
        <time>2017-06-26T07:21:47Z</time>
      </trkpt>
      <trkpt lat="70.50270801410079" lon="25.044264011085033">
        <ele>-1.79</ele>
        <time>2017-06-26T07:21:48Z</time>
      </trkpt>
      <trkpt lat="70.503474958240986" lon="25.050598969683051">
        <ele>2.54</ele>
        <time>2017-06-26T07:21:59Z</time>
      </trkpt>
      <trkpt lat="70.503593981266022" lon="25.051073972135782">
        <ele>3.5</ele>
        <time>2017-06-26T07:22:00Z</time>
      </trkpt>
      <trkpt lat="70.503728007897735" lon="25.051515027880669">
        <ele>4.46</ele>
        <time>2017-06-26T07:22:01Z</time>
      </trkpt>
      <trkpt lat="70.503876032307744" lon="25.051930015906692">
        <ele>4.94</ele>
        <time>2017-06-26T07:22:02Z</time>
      </trkpt>
      <trkpt lat="70.504034031182528" lon="25.052312985062599">
        <ele>5.91</ele>
        <time>2017-06-26T07:22:03Z</time>
      </trkpt>
      <trkpt lat="70.504202004522085" lon="25.052677011117339">
        <ele>6.87</ele>
        <time>2017-06-26T07:22:04Z</time>
      </trkpt>
      <trkpt lat="70.506624961271882" lon="25.057356962934136">
        <ele>8.789999999999999</ele>
        <time>2017-06-26T07:22:17Z</time>
      </trkpt>
      <trkpt lat="70.509287975728512" lon="25.061725024133921">
        <ele>5.91</ele>
        <time>2017-06-26T07:22:30Z</time>
      </trkpt>
      <trkpt lat="70.510780960321426" lon="25.063775992020965">
        <ele>3.98</ele>
        <time>2017-06-26T07:22:38Z</time>
      </trkpt>
      <trkpt lat="70.512173026800156" lon="25.065716989338398">
        <ele>3.5</ele>
        <time>2017-06-26T07:22:47Z</time>
      </trkpt>
      <trkpt lat="70.514341006055474" lon="25.068818964064121">
        <ele>4.94</ele>
        <time>2017-06-26T07:22:58Z</time>
      </trkpt>
      <trkpt lat="70.515712033957243" lon="25.07152397185564">
        <ele>5.42</ele>
        <time>2017-06-26T07:23:06Z</time>
      </trkpt>
      <trkpt lat="70.517942039296031" lon="25.076446998864412">
        <ele>3.5</ele>
        <time>2017-06-26T07:23:22Z</time>
      </trkpt>
      <trkpt lat="70.518291983753443" lon="25.077096009626985">
        <ele>2.54</ele>
        <time>2017-06-26T07:23:27Z</time>
      </trkpt>
      <trkpt lat="70.518325008451939" lon="25.077121993526816">
        <ele>2.54</ele>
        <time>2017-06-26T07:23:34Z</time>
      </trkpt>
      <trkpt lat="70.51860798150301" lon="25.077290972694755">
        <ele>1.58</ele>
        <time>2017-06-26T07:24:07Z</time>
      </trkpt>
      <trkpt lat="70.519506018608809" lon="25.077463975176215">
        <ele>1.1</ele>
        <time>2017-06-26T07:24:16Z</time>
      </trkpt>
      <trkpt lat="70.519838025793433" lon="25.077489037066698">
        <ele>0.14</ele>
        <time>2017-06-26T07:24:23Z</time>
      </trkpt>
      <trkpt lat="70.520077999681234" lon="25.077492976561189">
        <ele>0.14</ele>
        <time>2017-06-26T07:25:02Z</time>
      </trkpt>
      <trkpt lat="70.520962039008737" lon="25.077815009281039">
        <ele>1.58</ele>
        <time>2017-06-26T07:25:09Z</time>
      </trkpt>
      <trkpt lat="70.522144977003336" lon="25.079333977773786">
        <ele>2.54</ele>
        <time>2017-06-26T07:25:16Z</time>
      </trkpt>
      <trkpt lat="70.524046998471022" lon="25.082820011302829">
        <ele>-2.75</ele>
        <time>2017-06-26T07:25:27Z</time>
      </trkpt>
      <trkpt lat="70.525251980870962" lon="25.085677988827229">
        <ele>2.06</ele>
        <time>2017-06-26T07:25:37Z</time>
      </trkpt>
      <trkpt lat="70.525940973311663" lon="25.087942024692893">
        <ele>0.62</ele>
        <time>2017-06-26T07:25:44Z</time>
      </trkpt>
      <trkpt lat="70.526009034365416" lon="25.088338991627097">
        <ele>0.14</ele>
        <time>2017-06-26T07:25:45Z</time>
      </trkpt>
      <trkpt lat="70.526061002165079" lon="25.088750962167978">
        <ele>0.14</ele>
        <time>2017-06-26T07:25:46Z</time>
      </trkpt>
      <trkpt lat="70.526096038520336" lon="25.089186988770962">
        <ele>0.14</ele>
        <time>2017-06-26T07:25:47Z</time>
      </trkpt>
      <trkpt lat="70.526119004935026" lon="25.089639024809003">
        <ele>-0.34</ele>
        <time>2017-06-26T07:25:48Z</time>
      </trkpt>
      <trkpt lat="70.526137026026845" lon="25.09008502587676">
        <ele>0.14</ele>
        <time>2017-06-26T07:25:49Z</time>
      </trkpt>
      <trkpt lat="70.526280021294951" lon="25.092246970161796">
        <ele>1.1</ele>
        <time>2017-06-26T07:25:54Z</time>
      </trkpt>
      <trkpt lat="70.52634104155004" lon="25.092627005651593">
        <ele>1.1</ele>
        <time>2017-06-26T07:25:55Z</time>
      </trkpt>
      <trkpt lat="70.526413964107633" lon="25.092968987300992">
        <ele>1.1</ele>
        <time>2017-06-26T07:25:56Z</time>
      </trkpt>
      <trkpt lat="70.526499962434173" lon="25.093248020857573">
        <ele>1.1</ele>
        <time>2017-06-26T07:25:57Z</time>
      </trkpt>
      <trkpt lat="70.526599958539009" lon="25.093471985310316">
        <ele>1.1</ele>
        <time>2017-06-26T07:25:58Z</time>
      </trkpt>
      <trkpt lat="70.526714958250523" lon="25.09363099001348">
        <ele>1.58</ele>
        <time>2017-06-26T07:25:59Z</time>
      </trkpt>
      <trkpt lat="70.526838004589081" lon="25.093752024695277">
        <ele>1.1</ele>
        <time>2017-06-26T07:26:00Z</time>
      </trkpt>
      <trkpt lat="70.526969013735652" lon="25.093818996101618">
        <ele>0.62</ele>
        <time>2017-06-26T07:26:01Z</time>
      </trkpt>
      <trkpt lat="70.527107985690236" lon="25.093824025243521">
        <ele>0.62</ele>
        <time>2017-06-26T07:26:02Z</time>
      </trkpt>
      <trkpt lat="70.527249975129962" lon="25.09375898167491">
        <ele>0.14</ele>
        <time>2017-06-26T07:26:03Z</time>
      </trkpt>
      <trkpt lat="70.52739498205483" lon="25.093625960871577">
        <ele>-0.34</ele>
        <time>2017-06-26T07:26:04Z</time>
      </trkpt>
      <trkpt lat="70.527540994808078" lon="25.093450024724007">
        <ele>-0.34</ele>
        <time>2017-06-26T07:26:05Z</time>
      </trkpt>
      <trkpt lat="70.527683990076184" lon="25.093237962573767">
        <ele>-0.34</ele>
        <time>2017-06-26T07:26:06Z</time>
      </trkpt>
      <trkpt lat="70.52846803329885" lon="25.092258034273982">
        <ele>-2.75</ele>
        <time>2017-06-26T07:26:11Z</time>
      </trkpt>
      <trkpt lat="70.528635000810027" lon="25.092155020684004">
        <ele>-3.23</ele>
        <time>2017-06-26T07:26:12Z</time>
      </trkpt>
      <trkpt lat="70.528802974149585" lon="25.092121995985508">
        <ele>-3.23</ele>
        <time>2017-06-26T07:26:13Z</time>
      </trkpt>
      <trkpt lat="70.528973964974284" lon="25.092158038169146">
        <ele>-3.23</ele>
        <time>2017-06-26T07:26:14Z</time>
      </trkpt>
      <trkpt lat="70.529140010476112" lon="25.092269014567137">
        <ele>-2.75</ele>
        <time>2017-06-26T07:26:15Z</time>
      </trkpt>
      <trkpt lat="70.529300021007657" lon="25.09244997985661">
        <ele>-1.79</ele>
        <time>2017-06-26T07:26:16Z</time>
      </trkpt>
      <trkpt lat="70.529453996568918" lon="25.092671010643244">
        <ele>-1.3</ele>
        <time>2017-06-26T07:26:17Z</time>
      </trkpt>
      <trkpt lat="70.529606966301799" lon="25.092907967045903">
        <ele>-0.34</ele>
        <time>2017-06-26T07:26:18Z</time>
      </trkpt>
      <trkpt lat="70.531447967514396" lon="25.096028968691826">
        <ele>-0.34</ele>
        <time>2017-06-26T07:26:30Z</time>
      </trkpt>
      <trkpt lat="70.532732997089624" lon="25.100039038807154">
        <ele>-2.27</ele>
        <time>2017-06-26T07:26:40Z</time>
      </trkpt>
      <trkpt lat="70.533194001764059" lon="25.101811978965998">
        <ele>-1.79</ele>
        <time>2017-06-26T07:26:44Z</time>
      </trkpt>
      <trkpt lat="70.533276982605457" lon="25.102294022217393">
        <ele>-1.79</ele>
        <time>2017-06-26T07:26:45Z</time>
      </trkpt>
      <trkpt lat="70.533339008688927" lon="25.102821998298168">
        <ele>-1.79</ele>
        <time>2017-06-26T07:26:46Z</time>
      </trkpt>
      <trkpt lat="70.533382007852197" lon="25.103375958278775">
        <ele>-1.79</ele>
        <time>2017-06-26T07:26:47Z</time>
      </trkpt>
      <trkpt lat="70.533402962610126" lon="25.103947017341852">
        <ele>-2.27</ele>
        <time>2017-06-26T07:26:48Z</time>
      </trkpt>
      <trkpt lat="70.533407991752028" lon="25.104508018121123">
        <ele>-2.27</ele>
        <time>2017-06-26T07:26:49Z</time>
      </trkpt>
      <trkpt lat="70.533402962610126" lon="25.10503800585866">
        <ele>-1.79</ele>
        <time>2017-06-26T07:26:50Z</time>
      </trkpt>
      <trkpt lat="70.533414026722312" lon="25.106016006320715">
        <ele>-1.79</ele>
        <time>2017-06-26T07:26:52Z</time>
      </trkpt>
      <trkpt lat="70.533446967601776" lon="25.106464019045234">
        <ele>-1.79</ele>
        <time>2017-06-26T07:26:53Z</time>
      </trkpt>
      <trkpt lat="70.533502958714962" lon="25.106870960444212">
        <ele>-1.3</ele>
        <time>2017-06-26T07:26:54Z</time>
      </trkpt>
      <trkpt lat="70.533584011718631" lon="25.107241021469235">
        <ele>-1.3</ele>
        <time>2017-06-26T07:26:55Z</time>
      </trkpt>
      <trkpt lat="70.533685013651848" lon="25.107579985633492">
        <ele>-1.3</ele>
        <time>2017-06-26T07:26:56Z</time>
      </trkpt>
      <trkpt lat="70.533804958686233" lon="25.107907969504595">
        <ele>-1.79</ele>
        <time>2017-06-26T07:26:57Z</time>
      </trkpt>
      <trkpt lat="70.533943008631468" lon="25.108204018324614">
        <ele>-1.3</ele>
        <time>2017-06-26T07:26:58Z</time>
      </trkpt>
      <trkpt lat="70.534093966707587" lon="25.108501994982362">
        <ele>-1.3</ele>
        <time>2017-06-26T07:26:59Z</time>
      </trkpt>
      <trkpt lat="70.535093005746603" lon="25.111049003899097">
        <ele>0.14</ele>
        <time>2017-06-26T07:27:06Z</time>
      </trkpt>
      <trkpt lat="70.535189984366298" lon="25.111513026058674">
        <ele>1.1</ele>
        <time>2017-06-26T07:27:07Z</time>
      </trkpt>
      <trkpt lat="70.535270031541586" lon="25.11201904155314">
        <ele>2.06</ele>
        <time>2017-06-26T07:27:08Z</time>
      </trkpt>
      <trkpt lat="70.535334991291165" lon="25.112554980441928">
        <ele>3.02</ele>
        <time>2017-06-26T07:27:09Z</time>
      </trkpt>
      <trkpt lat="70.535395005717874" lon="25.113111035898328">
        <ele>3.5</ele>
        <time>2017-06-26T07:27:10Z</time>
      </trkpt>
      <trkpt lat="70.535685019567609" lon="25.11859598569572">
        <ele>3.98</ele>
        <time>2017-06-26T07:27:19Z</time>
      </trkpt>
      <trkpt lat="70.535731036216021" lon="25.123779019340873">
        <ele>0.62</ele>
        <time>2017-06-26T07:27:28Z</time>
      </trkpt>
      <trkpt lat="70.535800019279122" lon="25.124318981543183">
        <ele>0.14</ele>
        <time>2017-06-26T07:27:29Z</time>
      </trkpt>
      <trkpt lat="70.536555983126163" lon="25.129335969686508">
        <ele>1.58</ele>
        <time>2017-06-26T07:27:38Z</time>
      </trkpt>
      <trkpt lat="70.537132993340492" lon="25.135713005438447">
        <ele>6.87</ele>
        <time>2017-06-26T07:27:49Z</time>
      </trkpt>
      <trkpt lat="70.537222009152174" lon="25.136153977364302">
        <ele>6.87</ele>
        <time>2017-06-26T07:27:50Z</time>
      </trkpt>
      <trkpt lat="70.537331979721785" lon="25.136553961783648">
        <ele>6.39</ele>
        <time>2017-06-26T07:27:51Z</time>
      </trkpt>
      <trkpt lat="70.537463994696736" lon="25.136918993666768">
        <ele>6.39</ele>
        <time>2017-06-26T07:27:52Z</time>
      </trkpt>
      <trkpt lat="70.537616964429617" lon="25.137256029993296">
        <ele>5.91</ele>
        <time>2017-06-26T07:27:53Z</time>
      </trkpt>
      <trkpt lat="70.537792984396219" lon="25.137535985559225">
        <ele>5.91</ele>
        <time>2017-06-26T07:27:54Z</time>
      </trkpt>
      <trkpt lat="70.537981996312737" lon="25.137790041044354">
        <ele>5.91</ele>
        <time>2017-06-26T07:27:55Z</time>
      </trkpt>
      <trkpt lat="70.538178971037269" lon="25.138035966083407">
        <ele>5.91</ele>
        <time>2017-06-26T07:27:56Z</time>
      </trkpt>
      <trkpt lat="70.53974999114871" lon="25.140182990580797">
        <ele>7.35</ele>
        <time>2017-06-26T07:28:04Z</time>
      </trkpt>
      <trkpt lat="70.53992098197341" lon="25.140590015798807">
        <ele>6.87</ele>
        <time>2017-06-26T07:28:05Z</time>
      </trkpt>
      <trkpt lat="70.540079986676574" lon="25.141045991331339">
        <ele>6.87</ele>
        <time>2017-06-26T07:28:06Z</time>
      </trkpt>
      <trkpt lat="70.540918009355664" lon="25.143838003277779">
        <ele>7.35</ele>
        <time>2017-06-26T07:28:12Z</time>
      </trkpt>
      <trkpt lat="70.54105999879539" lon="25.144130028784275">
        <ele>7.35</ele>
        <time>2017-06-26T07:28:13Z</time>
      </trkpt>
      <trkpt lat="70.541217997670174" lon="25.144377965480089">
        <ele>6.87</ele>
        <time>2017-06-26T07:28:14Z</time>
      </trkpt>
      <trkpt lat="70.541387982666492" lon="25.144577035680413">
        <ele>6.87</ele>
        <time>2017-06-26T07:28:15Z</time>
      </trkpt>
      <trkpt lat="70.541564002633095" lon="25.144754983484745">
        <ele>6.39</ele>
        <time>2017-06-26T07:28:16Z</time>
      </trkpt>
      <trkpt lat="70.542790023609996" lon="25.146732022985816">
        <ele>7.35</ele>
        <time>2017-06-26T07:28:23Z</time>
      </trkpt>
      <trkpt lat="70.542941987514496" lon="25.147189004346728">
        <ele>7.35</ele>
        <time>2017-06-26T07:28:24Z</time>
      </trkpt>
      <trkpt lat="70.54307802580297" lon="25.147695019841194">
        <ele>7.83</ele>
        <time>2017-06-26T07:28:25Z</time>
      </trkpt>
      <trkpt lat="70.543199982494116" lon="25.14824696816504">
        <ele>8.310000000000001</ele>
        <time>2017-06-26T07:28:26Z</time>
      </trkpt>
      <trkpt lat="70.543311964720488" lon="25.148822972550988">
        <ele>8.310000000000001</ele>
        <time>2017-06-26T07:28:27Z</time>
      </trkpt>
      <trkpt lat="70.543414978310466" lon="25.149422027170658">
        <ele>8.310000000000001</ele>
        <time>2017-06-26T07:28:28Z</time>
      </trkpt>
      <trkpt lat="70.54464703425765" lon="25.155086014419794">
        <ele>8.789999999999999</ele>
        <time>2017-06-26T07:28:38Z</time>
      </trkpt>
      <trkpt lat="70.546737983822823" lon="25.161476964130998">
        <ele>9.27</ele>
        <time>2017-06-26T07:28:51Z</time>
      </trkpt>
      <trkpt lat="70.549273006618023" lon="25.169503977522254">
        <ele>8.310000000000001</ele>
        <time>2017-06-26T07:29:06Z</time>
      </trkpt>
      <trkpt lat="70.551190031692386" lon="25.175326969474554">
        <ele>9.27</ele>
        <time>2017-06-26T07:29:17Z</time>
      </trkpt>
      <trkpt lat="70.552602969110012" lon="25.177899040281773">
        <ele>7.83</ele>
        <time>2017-06-26T07:29:24Z</time>
      </trkpt>
      <trkpt lat="70.554254036396742" lon="25.18056096509099">
        <ele>7.35</ele>
        <time>2017-06-26T07:29:32Z</time>
      </trkpt>
      <trkpt lat="70.555720031261444" lon="25.185397993773222">
        <ele>6.39</ele>
        <time>2017-06-26T07:29:41Z</time>
      </trkpt>
      <trkpt lat="70.556849995627999" lon="25.188486976549029">
        <ele>5.42</ele>
        <time>2017-06-26T07:29:48Z</time>
      </trkpt>
      <trkpt lat="70.558454040437937" lon="25.194290019571781">
        <ele>6.87</ele>
        <time>2017-06-26T07:29:59Z</time>
      </trkpt>
      <trkpt lat="70.559178991243243" lon="25.198636036366224">
        <ele>6.39</ele>
        <time>2017-06-26T07:30:06Z</time>
      </trkpt>
      <trkpt lat="70.560936005786061" lon="25.206177989020944">
        <ele>9.27</ele>
        <time>2017-06-26T07:30:19Z</time>
      </trkpt>
      <trkpt lat="70.562697965651751" lon="25.213796971365809">
        <ele>11.19</ele>
        <time>2017-06-26T07:30:32Z</time>
      </trkpt>
      <trkpt lat="70.563381006941199" lon="25.220384979620576">
        <ele>8.789999999999999</ele>
        <time>2017-06-26T07:30:42Z</time>
      </trkpt>
      <trkpt lat="70.563881993293762" lon="25.224894024431705">
        <ele>7.35</ele>
        <time>2017-06-26T07:30:50Z</time>
      </trkpt>
      <trkpt lat="70.563978971913457" lon="25.22539702244103">
        <ele>7.35</ele>
        <time>2017-06-26T07:30:51Z</time>
      </trkpt>
      <trkpt lat="70.56409003213048" lon="25.225881999358535">
        <ele>6.87</ele>
        <time>2017-06-26T07:30:52Z</time>
      </trkpt>
      <trkpt lat="70.564217017963529" lon="25.226359013468027">
        <ele>6.39</ele>
        <time>2017-06-26T07:30:53Z</time>
      </trkpt>
      <trkpt lat="70.564353978261352" lon="25.226835021749139">
        <ele>6.39</ele>
        <time>2017-06-26T07:30:54Z</time>
      </trkpt>
      <trkpt lat="70.566366976127028" lon="25.232954984530807">
        <ele>5.42</ele>
        <time>2017-06-26T07:31:07Z</time>
      </trkpt>
      <trkpt lat="70.567548992112279" lon="25.235687987878919">
        <ele>5.91</ele>
        <time>2017-06-26T07:31:14Z</time>
      </trkpt>
      <trkpt lat="70.567733980715275" lon="25.235927039757371">
        <ele>5.91</ele>
        <time>2017-06-26T07:31:15Z</time>
      </trkpt>
      <trkpt lat="70.567929027602077" lon="25.236127031967044">
        <ele>5.91</ele>
        <time>2017-06-26T07:31:16Z</time>
      </trkpt>
      <trkpt lat="70.569401979446411" lon="25.237552039325237">
        <ele>5.91</ele>
        <time>2017-06-26T07:31:23Z</time>
      </trkpt>
      <trkpt lat="70.571925016120076" lon="25.240912009030581">
        <ele>6.87</ele>
        <time>2017-06-26T07:31:35Z</time>
      </trkpt>
      <trkpt lat="70.572111010551453" lon="25.241008987650275">
        <ele>6.87</ele>
        <time>2017-06-26T07:31:36Z</time>
      </trkpt>
      <trkpt lat="70.572292981669307" lon="25.241028014570475">
        <ele>6.87</ele>
        <time>2017-06-26T07:31:37Z</time>
      </trkpt>
      <trkpt lat="70.572475958615541" lon="25.240972023457289">
        <ele>6.87</ele>
        <time>2017-06-26T07:31:38Z</time>
      </trkpt>
      <trkpt lat="70.572663964703679" lon="25.240844031795859">
        <ele>6.39</ele>
        <time>2017-06-26T07:31:39Z</time>
      </trkpt>
      <trkpt lat="70.572849037125707" lon="25.240658959373832">
        <ele>6.39</ele>
        <time>2017-06-26T07:31:40Z</time>
      </trkpt>
      <trkpt lat="70.573034025728703" lon="25.240428959950805">
        <ele>6.39</ele>
        <time>2017-06-26T07:31:41Z</time>
      </trkpt>
      <trkpt lat="70.573219014331698" lon="25.240129977464676">
        <ele>5.91</ele>
        <time>2017-06-26T07:31:42Z</time>
      </trkpt>
      <trkpt lat="70.573400985449553" lon="25.239796964451671">
        <ele>5.42</ele>
        <time>2017-06-26T07:31:43Z</time>
      </trkpt>
      <trkpt lat="70.574542013928294" lon="25.238003991544247">
        <ele>2.54</ele>
        <time>2017-06-26T07:31:49Z</time>
      </trkpt>
      <trkpt lat="70.574756003916264" lon="25.237844986841083">
        <ele>2.06</ele>
        <time>2017-06-26T07:31:50Z</time>
      </trkpt>
      <trkpt lat="70.574978040531278" lon="25.237749014049768">
        <ele>1.58</ele>
        <time>2017-06-26T07:31:51Z</time>
      </trkpt>
      <trkpt lat="70.575200999155641" lon="25.237699979916215">
        <ele>0.62</ele>
        <time>2017-06-26T07:31:52Z</time>
      </trkpt>
      <trkpt lat="70.575427981093526" lon="25.237692017108202">
        <ele>0.62</ele>
        <time>2017-06-26T07:31:53Z</time>
      </trkpt>
      <trkpt lat="70.57565001770854" lon="25.237733004614711">
        <ele>0.62</ele>
        <time>2017-06-26T07:31:54Z</time>
      </trkpt>
      <trkpt lat="70.575867025181651" lon="25.237820008769631">
        <ele>1.1</ele>
        <time>2017-06-26T07:31:55Z</time>
      </trkpt>
      <trkpt lat="70.576083026826382" lon="25.237951017916203">
        <ele>1.58</ele>
        <time>2017-06-26T07:31:56Z</time>
      </trkpt>
      <trkpt lat="70.576299028471112" lon="25.238127959892154">
        <ele>2.06</ele>
        <time>2017-06-26T07:31:57Z</time>
      </trkpt>
      <trkpt lat="70.576508995145559" lon="25.238351002335548">
        <ele>2.54</ele>
        <time>2017-06-26T07:31:58Z</time>
      </trkpt>
      <trkpt lat="70.576718961820006" lon="25.238627018406987">
        <ele>3.02</ele>
        <time>2017-06-26T07:31:59Z</time>
      </trkpt>
      <trkpt lat="70.576922977343202" lon="25.238937987014651">
        <ele>3.02</ele>
        <time>2017-06-26T07:32:00Z</time>
      </trkpt>
      <trkpt lat="70.578200966119766" lon="25.241941977292299">
        <ele>3.02</ele>
        <time>2017-06-26T07:32:07Z</time>
      </trkpt>
      <trkpt lat="70.579405026510358" lon="25.244417991489172">
        <ele>5.91</ele>
        <time>2017-06-26T07:32:14Z</time>
      </trkpt>
      <trkpt lat="70.581158017739654" lon="25.246449010446668">
        <ele>7.83</ele>
        <time>2017-06-26T07:32:23Z</time>
      </trkpt>
      <trkpt lat="70.581335965543985" lon="25.246526040136814">
        <ele>7.83</ele>
        <time>2017-06-26T07:32:24Z</time>
      </trkpt>
      <trkpt lat="70.583370001986623" lon="25.246994001790881">
        <ele>4.46</ele>
        <time>2017-06-26T07:32:34Z</time>
      </trkpt>
      <trkpt lat="70.586021030321717" lon="25.247524995356798">
        <ele>1.58</ele>
        <time>2017-06-26T07:32:47Z</time>
      </trkpt>
      <trkpt lat="70.586195960640907" lon="25.247446037828922">
        <ele>2.06</ele>
        <time>2017-06-26T07:32:48Z</time>
      </trkpt>
      <trkpt lat="70.586369968950748" lon="25.247288960963488">
        <ele>2.06</ele>
        <time>2017-06-26T07:32:49Z</time>
      </trkpt>
      <trkpt lat="70.586542971432209" lon="25.247049992904067">
        <ele>2.54</ele>
        <time>2017-06-26T07:32:50Z</time>
      </trkpt>
      <trkpt lat="70.586713962256908" lon="25.246761990711093">
        <ele>2.06</ele>
        <time>2017-06-26T07:32:51Z</time>
      </trkpt>
      <trkpt lat="70.586883025243878" lon="25.246437024325132">
        <ele>1.58</ele>
        <time>2017-06-26T07:32:52Z</time>
      </trkpt>
      <trkpt lat="70.587949035689235" lon="25.244584959000349">
        <ele>-2.27</ele>
        <time>2017-06-26T07:32:58Z</time>
      </trkpt>
      <trkpt lat="70.588127989321947" lon="25.244442969560623">
        <ele>-2.75</ele>
        <time>2017-06-26T07:32:59Z</time>
      </trkpt>
      <trkpt lat="70.588309960439801" lon="25.24436904117465">
        <ele>-3.23</ele>
        <time>2017-06-26T07:33:00Z</time>
      </trkpt>
      <trkpt lat="70.588491009548306" lon="25.244360994547606">
        <ele>-3.23</ele>
        <time>2017-06-26T07:33:01Z</time>
      </trkpt>
      <trkpt lat="70.58866904117167" lon="25.244404999539256">
        <ele>-3.23</ele>
        <time>2017-06-26T07:33:02Z</time>
      </trkpt>
      <trkpt lat="70.588839026167989" lon="25.244493009522557">
        <ele>-3.71</ele>
        <time>2017-06-26T07:33:03Z</time>
      </trkpt>
      <trkpt lat="70.588999958708882" lon="25.244632987305522">
        <ele>-3.71</ele>
        <time>2017-06-26T07:33:04Z</time>
      </trkpt>
      <trkpt lat="70.589152006432414" lon="25.244829040020704">
        <ele>-3.23</ele>
        <time>2017-06-26T07:33:05Z</time>
      </trkpt>
      <trkpt lat="70.589299025014043" lon="25.245054010301828">
        <ele>-3.23</ele>
        <time>2017-06-26T07:33:06Z</time>
      </trkpt>
      <trkpt lat="70.589445037767291" lon="25.245306976139545">
        <ele>-3.23</ele>
        <time>2017-06-26T07:33:07Z</time>
      </trkpt>
      <trkpt lat="70.590178035199642" lon="25.247337995097041">
        <ele>-1.79</ele>
        <time>2017-06-26T07:33:14Z</time>
      </trkpt>
      <trkpt lat="70.590714979916811" lon="25.250388002023101">
        <ele>-0.34</ele>
        <time>2017-06-26T07:33:24Z</time>
      </trkpt>
      <trkpt lat="70.591286960989237" lon="25.253835981711745">
        <ele>0.62</ele>
        <time>2017-06-26T07:33:33Z</time>
      </trkpt>
      <trkpt lat="70.591697003692389" lon="25.257695009931922">
        <ele>2.06</ele>
        <time>2017-06-26T07:33:40Z</time>
      </trkpt>
      <trkpt lat="70.591836981475353" lon="25.262471018359065">
        <ele>5.91</ele>
        <time>2017-06-26T07:33:47Z</time>
      </trkpt>
      <trkpt lat="70.591607987880707" lon="25.266889035701752">
        <ele>11.19</ele>
        <time>2017-06-26T07:33:54Z</time>
      </trkpt>
      <trkpt lat="70.591606982052326" lon="25.267469985410571">
        <ele>11.19</ele>
        <time>2017-06-26T07:33:55Z</time>
      </trkpt>
      <trkpt lat="70.591620979830623" lon="25.268066022545099">
        <ele>11.19</ele>
        <time>2017-06-26T07:33:56Z</time>
      </trkpt>
      <trkpt lat="70.591658027842641" lon="25.268683014437556">
        <ele>11.19</ele>
        <time>2017-06-26T07:33:57Z</time>
      </trkpt>
      <trkpt lat="70.591716030612588" lon="25.269310986623168">
        <ele>11.67</ele>
        <time>2017-06-26T07:33:58Z</time>
      </trkpt>
      <trkpt lat="70.591791970655322" lon="25.269977012649179">
        <ele>11.67</ele>
        <time>2017-06-26T07:33:59Z</time>
      </trkpt>
      <trkpt lat="70.592695958912373" lon="25.277618039399385">
        <ele>9.27</ele>
        <time>2017-06-26T07:34:10Z</time>
      </trkpt>
      <trkpt lat="70.593174984678626" lon="25.280926041305065">
        <ele>8.310000000000001</ele>
        <time>2017-06-26T07:34:16Z</time>
      </trkpt>
      <trkpt lat="70.593281015753746" lon="25.281341029331088">
        <ele>8.310000000000001</ele>
        <time>2017-06-26T07:34:17Z</time>
      </trkpt>
      <trkpt lat="70.594505025073886" lon="25.285365013405681">
        <ele>6.39</ele>
        <time>2017-06-26T07:34:26Z</time>
      </trkpt>
      <trkpt lat="70.595268029719591" lon="25.289047015830874">
        <ele>7.83</ele>
        <time>2017-06-26T07:34:34Z</time>
      </trkpt>
      <trkpt lat="70.595348998904228" lon="25.289395032450557">
        <ele>8.310000000000001</ele>
        <time>2017-06-26T07:34:35Z</time>
      </trkpt>
      <trkpt lat="70.595437008887529" lon="25.289694014936686">
        <ele>8.310000000000001</ele>
        <time>2017-06-26T07:34:36Z</time>
      </trkpt>
      <trkpt lat="70.595532981678843" lon="25.289957039058208">
        <ele>8.789999999999999</ele>
        <time>2017-06-26T07:34:37Z</time>
      </trkpt>
      <trkpt lat="70.5964470282197" lon="25.292445961385965">
        <ele>11.67</ele>
        <time>2017-06-26T07:34:47Z</time>
      </trkpt>
      <trkpt lat="70.597033007070422" lon="25.294278999790549">
        <ele>15.039999999999999</ele>
        <time>2017-06-26T07:34:56Z</time>
      </trkpt>
      <trkpt lat="70.59709201566875" lon="25.294378995895386">
        <ele>16</ele>
        <time>2017-06-26T07:34:57Z</time>
      </trkpt>
      <trkpt lat="70.59720098040998" lon="25.294631961733103">
        <ele>17.920000000000002</ele>
        <time>2017-06-26T07:35:00Z</time>
      </trkpt>
      <trkpt lat="70.617624996230006" lon="25.33950699493289">
        <ele>26.09</ele>
        <time>2017-06-26T07:37:51Z</time>
      </trkpt>
      <trkpt lat="70.618739034980536" lon="25.34122696146369">
        <ele>16.48</ele>
        <time>2017-06-26T07:37:58Z</time>
      </trkpt>
      <trkpt lat="70.619928007945418" lon="25.343862986192107">
        <ele>10.23</ele>
        <time>2017-06-26T07:38:05Z</time>
      </trkpt>
      <trkpt lat="70.621403977274895" lon="25.348051004111767">
        <ele>8.310000000000001</ele>
        <time>2017-06-26T07:38:15Z</time>
      </trkpt>
      <trkpt lat="70.622434029355645" lon="25.35100101493299">
        <ele>7.83</ele>
        <time>2017-06-26T07:38:23Z</time>
      </trkpt>
      <trkpt lat="70.623533986508846" lon="25.353766959160566">
        <ele>6.87</ele>
        <time>2017-06-26T07:38:32Z</time>
      </trkpt>
      <trkpt lat="70.624687001109123" lon="25.355325993150473">
        <ele>7.35</ele>
        <time>2017-06-26T07:38:39Z</time>
      </trkpt>
      <trkpt lat="70.626963023096323" lon="25.359623981639743">
        <ele>6.87</ele>
        <time>2017-06-26T07:38:53Z</time>
      </trkpt>
      <trkpt lat="70.627888971939683" lon="25.361124007031322">
        <ele>5.42</ele>
        <time>2017-06-26T07:39:00Z</time>
      </trkpt>
      <trkpt lat="70.62801000662148" lon="25.361183015629649">
        <ele>5.91</ele>
        <time>2017-06-26T07:39:01Z</time>
      </trkpt>
      <trkpt lat="70.628113020211458" lon="25.361181003972888">
        <ele>6.39</ele>
        <time>2017-06-26T07:39:02Z</time>
      </trkpt>
      <trkpt lat="70.628201030194759" lon="25.361115960404277">
        <ele>6.39</ele>
        <time>2017-06-26T07:39:03Z</time>
      </trkpt>
      <trkpt lat="70.628279987722635" lon="25.360984029248357">
        <ele>5.91</ele>
        <time>2017-06-26T07:39:04Z</time>
      </trkpt>
      <trkpt lat="70.628357017412782" lon="25.360771967098117">
        <ele>6.39</ele>
        <time>2017-06-26T07:39:05Z</time>
      </trkpt>
      <trkpt lat="70.628423988819122" lon="25.360500980168581">
        <ele>6.39</ele>
        <time>2017-06-26T07:39:06Z</time>
      </trkpt>
      <trkpt lat="70.628475034609437" lon="25.360171990469098">
        <ele>6.39</ele>
        <time>2017-06-26T07:39:07Z</time>
      </trkpt>
      <trkpt lat="70.62850596383214" lon="25.35983101464808">
        <ele>6.39</ele>
        <time>2017-06-26T07:39:08Z</time>
      </trkpt>
      <trkpt lat="70.628506969660521" lon="25.359448967501521">
        <ele>6.39</ele>
        <time>2017-06-26T07:39:09Z</time>
      </trkpt>
      <trkpt lat="70.628489032387733" lon="25.359045965597034">
        <ele>6.39</ele>
        <time>2017-06-26T07:39:10Z</time>
      </trkpt>
      <trkpt lat="70.628464976325631" lon="25.358613962307572">
        <ele>6.39</ele>
        <time>2017-06-26T07:39:11Z</time>
      </trkpt>
      <trkpt lat="70.628367997705936" lon="25.355546018108726">
        <ele>5.91</ele>
        <time>2017-06-26T07:39:18Z</time>
      </trkpt>
      <trkpt lat="70.628329021856189" lon="25.355172017589211">
        <ele>5.42</ele>
        <time>2017-06-26T07:39:19Z</time>
      </trkpt>
      <trkpt lat="70.628277976065874" lon="25.354792987927794">
        <ele>4.46</ele>
        <time>2017-06-26T07:39:20Z</time>
      </trkpt>
      <trkpt lat="70.627547996118665" lon="25.349794020876288">
        <ele>0.62</ele>
        <time>2017-06-26T07:39:32Z</time>
      </trkpt>
      <trkpt lat="70.626945002004504" lon="25.346543015912175">
        <ele>-1.3</ele>
        <time>2017-06-26T07:39:40Z</time>
      </trkpt>
      <trkpt lat="70.626302026212215" lon="25.340332025662065">
        <ele>-4.19</ele>
        <time>2017-06-26T07:39:51Z</time>
      </trkpt>
      <trkpt lat="70.626165987923741" lon="25.338209979236126">
        <ele>-7.07</ele>
        <time>2017-06-26T07:39:55Z</time>
      </trkpt>
      <trkpt lat="70.626169005408883" lon="25.337702035903931">
        <ele>-6.59</ele>
        <time>2017-06-26T07:39:56Z</time>
      </trkpt>
      <trkpt lat="70.626195995137095" lon="25.337211024016142">
        <ele>-6.59</ele>
        <time>2017-06-26T07:39:57Z</time>
      </trkpt>
      <trkpt lat="70.626241005957127" lon="25.336724035441875">
        <ele>-7.07</ele>
        <time>2017-06-26T07:39:58Z</time>
      </trkpt>
      <trkpt lat="70.626301020383835" lon="25.3362409863621">
        <ele>-6.59</ele>
        <time>2017-06-26T07:39:59Z</time>
      </trkpt>
      <trkpt lat="70.62637796625495" lon="25.335771013051271">
        <ele>-6.59</ele>
        <time>2017-06-26T07:40:00Z</time>
      </trkpt>
      <trkpt lat="70.626468993723392" lon="25.33531797118485">
        <ele>-6.59</ele>
        <time>2017-06-26T07:40:01Z</time>
      </trkpt>
      <trkpt lat="70.626574018970132" lon="25.334875993430614">
        <ele>-6.59</ele>
        <time>2017-06-26T07:40:02Z</time>
      </trkpt>
      <trkpt lat="70.626692036166787" lon="25.334463017061353">
        <ele>-7.07</ele>
        <time>2017-06-26T07:40:03Z</time>
      </trkpt>
      <trkpt lat="70.626823967322707" lon="25.334078036248684">
        <ele>-7.07</ele>
        <time>2017-06-26T07:40:04Z</time>
      </trkpt>
      <trkpt lat="70.626966040581465" lon="25.333729013800621">
        <ele>-7.07</ele>
        <time>2017-06-26T07:40:05Z</time>
      </trkpt>
      <trkpt lat="70.627116998657584" lon="25.333408992737532">
        <ele>-7.07</ele>
        <time>2017-06-26T07:40:06Z</time>
      </trkpt>
      <trkpt lat="70.627276003360748" lon="25.333130965009332">
        <ele>-7.55</ele>
        <time>2017-06-26T07:40:07Z</time>
      </trkpt>
      <trkpt lat="70.627437019720674" lon="25.332885961979628">
        <ele>-7.55</ele>
        <time>2017-06-26T07:40:08Z</time>
      </trkpt>
      <trkpt lat="70.627597030252218" lon="25.332682030275464">
        <ele>-7.55</ele>
        <time>2017-06-26T07:40:09Z</time>
      </trkpt>
      <trkpt lat="70.627757040783763" lon="25.3325230255723">
        <ele>-7.07</ele>
        <time>2017-06-26T07:40:10Z</time>
      </trkpt>
      <trkpt lat="70.627923002466559" lon="25.332424035295844">
        <ele>-6.59</ele>
        <time>2017-06-26T07:40:11Z</time>
      </trkpt>
      <trkpt lat="70.628089969977736" lon="25.332386987283826">
        <ele>-6.11</ele>
        <time>2017-06-26T07:40:12Z</time>
      </trkpt>
      <trkpt lat="70.628251992166042" lon="25.332414982840419">
        <ele>-5.63</ele>
        <time>2017-06-26T07:40:13Z</time>
      </trkpt>
      <trkpt lat="70.628410996869206" lon="25.3325230255723">
        <ele>-5.63</ele>
        <time>2017-06-26T07:40:14Z</time>
      </trkpt>
      <trkpt lat="70.628562960773706" lon="25.332700973376632">
        <ele>-5.15</ele>
        <time>2017-06-26T07:40:15Z</time>
      </trkpt>
      <trkpt lat="70.628706961870193" lon="25.332966009154916">
        <ele>-4.19</ele>
        <time>2017-06-26T07:40:16Z</time>
      </trkpt>
      <trkpt lat="70.628836965188384" lon="25.333294998854399">
        <ele>-3.23</ele>
        <time>2017-06-26T07:40:17Z</time>
      </trkpt>
      <trkpt lat="70.62895598821342" lon="25.333693977445364">
        <ele>-2.75</ele>
        <time>2017-06-26T07:40:18Z</time>
      </trkpt>
      <trkpt lat="70.629065958783031" lon="25.334150036796927">
        <ele>-2.27</ele>
        <time>2017-06-26T07:40:19Z</time>
      </trkpt>
      <trkpt lat="70.62917098402977" lon="25.334642976522446">
        <ele>-1.79</ele>
        <time>2017-06-26T07:40:20Z</time>
      </trkpt>
      <trkpt lat="70.630335984751582" lon="25.340134967118502">
        <ele>-0.82</ele>
        <time>2017-06-26T07:40:30Z</time>
      </trkpt>
      <trkpt lat="70.631697038188577" lon="25.346055021509528">
        <ele>1.58</ele>
        <time>2017-06-26T07:40:41Z</time>
      </trkpt>
      <trkpt lat="70.633060019463301" lon="25.350903030484915">
        <ele>3.02</ele>
        <time>2017-06-26T07:40:51Z</time>
      </trkpt>
      <trkpt lat="70.634618969634175" lon="25.356988040730357">
        <ele>3.5</ele>
        <time>2017-06-26T07:41:03Z</time>
      </trkpt>
      <trkpt lat="70.635592024773359" lon="25.362556977197528">
        <ele>1.58</ele>
        <time>2017-06-26T07:41:12Z</time>
      </trkpt>
      <trkpt lat="70.636578993871808" lon="25.368090039119124">
        <ele>9.75</ele>
        <time>2017-06-26T07:41:21Z</time>
      </trkpt>
      <trkpt lat="70.637144017964602" lon="25.372143024578691">
        <ele>22.73</ele>
        <time>2017-06-26T07:41:28Z</time>
      </trkpt>
      <trkpt lat="70.637219035997987" lon="25.372586008161306">
        <ele>23.690000000000001</ele>
        <time>2017-06-26T07:41:29Z</time>
      </trkpt>
      <trkpt lat="70.637303022667766" lon="25.372980963438749">
        <ele>25.129999999999999</ele>
        <time>2017-06-26T07:41:30Z</time>
      </trkpt>
      <trkpt lat="70.637406036257744" lon="25.373316993936896">
        <ele>26.09</ele>
        <time>2017-06-26T07:41:31Z</time>
      </trkpt>
      <trkpt lat="70.637522963806987" lon="25.373616982251406">
        <ele>27.050000000000001</ele>
        <time>2017-06-26T07:41:32Z</time>
      </trkpt>
      <trkpt lat="70.6376569904387" lon="25.373872965574265">
        <ele>27.530000000000001</ele>
        <time>2017-06-26T07:41:33Z</time>
      </trkpt>
      <trkpt lat="70.63780702650547" lon="25.374064994975924">
        <ele>27.530000000000001</ele>
        <time>2017-06-26T07:41:34Z</time>
      </trkpt>
      <trkpt lat="70.637962007895112" lon="25.374201033264399">
        <ele>28.02</ele>
        <time>2017-06-26T07:41:35Z</time>
      </trkpt>
      <trkpt lat="70.638131992891431" lon="25.374251995235682">
        <ele>28.02</ele>
        <time>2017-06-26T07:41:36Z</time>
      </trkpt>
      <trkpt lat="70.63830197788775" lon="25.37420597858727">
        <ele>27.530000000000001</ele>
        <time>2017-06-26T07:41:37Z</time>
      </trkpt>
      <trkpt lat="70.638470035046339" lon="25.374083016067743">
        <ele>27.530000000000001</ele>
        <time>2017-06-26T07:41:38Z</time>
      </trkpt>
      <trkpt lat="70.638632979243994" lon="25.373866008594632">
        <ele>27.050000000000001</ele>
        <time>2017-06-26T07:41:39Z</time>
      </trkpt>
      <trkpt lat="70.638778991997242" lon="25.373577000573277">
        <ele>27.050000000000001</ele>
        <time>2017-06-26T07:41:40Z</time>
      </trkpt>
      <trkpt lat="70.638915030285716" lon="25.373221021145582">
        <ele>26.57</ele>
        <time>2017-06-26T07:41:41Z</time>
      </trkpt>
      <trkpt lat="70.63903002999723" lon="25.372798992320895">
        <ele>26.09</ele>
        <time>2017-06-26T07:41:42Z</time>
      </trkpt>
      <trkpt lat="70.639129020273685" lon="25.372328013181686">
        <ele>25.609999999999999</ele>
        <time>2017-06-26T07:41:43Z</time>
      </trkpt>
      <trkpt lat="70.639215018600225" lon="25.371807999908924">
        <ele>25.129999999999999</ele>
        <time>2017-06-26T07:41:44Z</time>
      </trkpt>
      <trkpt lat="70.639290036633611" lon="25.371255967766047">
        <ele>25.129999999999999</ele>
        <time>2017-06-26T07:41:45Z</time>
      </trkpt>
      <trkpt lat="70.640153959393501" lon="25.366770979017019">
        <ele>22.73</ele>
        <time>2017-06-26T07:41:53Z</time>
      </trkpt>
      <trkpt lat="70.641258023679256" lon="25.363794984295964">
        <ele>20.809999999999999</ele>
        <time>2017-06-26T07:42:00Z</time>
      </trkpt>
      <trkpt lat="70.643016966059804" lon="25.36114102229476">
        <ele>13.119999999999999</ele>
        <time>2017-06-26T07:42:09Z</time>
      </trkpt>
      <trkpt lat="70.64481102861464" lon="25.360080040991306">
        <ele>8.310000000000001</ele>
        <time>2017-06-26T07:42:17Z</time>
      </trkpt>
      <trkpt lat="70.646102009341121" lon="25.360965002328157">
        <ele>7.83</ele>
        <time>2017-06-26T07:42:23Z</time>
      </trkpt>
      <trkpt lat="70.646812040358782" lon="25.362360002472997">
        <ele>7.83</ele>
        <time>2017-06-26T07:42:27Z</time>
      </trkpt>
      <trkpt lat="70.646953023970127" lon="25.362800974398851">
        <ele>7.83</ele>
        <time>2017-06-26T07:42:28Z</time>
      </trkpt>
      <trkpt lat="70.647079003974795" lon="25.363288968801498">
        <ele>7.83</ele>
        <time>2017-06-26T07:42:29Z</time>
      </trkpt>
      <trkpt lat="70.647185035049915" lon="25.363813005387783">
        <ele>7.35</ele>
        <time>2017-06-26T07:42:30Z</time>
      </trkpt>
      <trkpt lat="70.647273967042565" lon="25.364367971196771">
        <ele>7.35</ele>
        <time>2017-06-26T07:42:31Z</time>
      </trkpt>
      <trkpt lat="70.647342028096318" lon="25.364954033866525">
        <ele>7.35</ele>
        <time>2017-06-26T07:42:32Z</time>
      </trkpt>
      <trkpt lat="70.647385027259588" lon="25.36559097468853">
        <ele>7.35</ele>
        <time>2017-06-26T07:42:33Z</time>
      </trkpt>
      <trkpt lat="70.647405982017517" lon="25.36623596213758">
        <ele>6.87</ele>
        <time>2017-06-26T07:42:34Z</time>
      </trkpt>
      <trkpt lat="70.647401958703995" lon="25.366893019527197">
        <ele>6.87</ele>
        <time>2017-06-26T07:42:35Z</time>
      </trkpt>
      <trkpt lat="70.647376980632544" lon="25.367558039724827">
        <ele>6.87</ele>
        <time>2017-06-26T07:42:36Z</time>
      </trkpt>
      <trkpt lat="70.647330963984132" lon="25.36823202855885">
        <ele>6.39</ele>
        <time>2017-06-26T07:42:37Z</time>
      </trkpt>
      <trkpt lat="70.647276984527707" lon="25.368904005736113">
        <ele>6.39</ele>
        <time>2017-06-26T07:42:38Z</time>
      </trkpt>
      <trkpt lat="70.646966015920043" lon="25.374811990186572">
        <ele>5.42</ele>
        <time>2017-06-26T07:42:47Z</time>
      </trkpt>
      <trkpt lat="70.646853027865291" lon="25.380124021321535">
        <ele>6.39</ele>
        <time>2017-06-26T07:42:55Z</time>
      </trkpt>
      <trkpt lat="70.646912036463618" lon="25.381333027034998">
        <ele>6.87</ele>
        <time>2017-06-26T07:42:57Z</time>
      </trkpt>
      <trkpt lat="70.646970039233565" lon="25.381902996450663">
        <ele>6.87</ele>
        <time>2017-06-26T07:42:58Z</time>
      </trkpt>
      <trkpt lat="70.647047990933061" lon="25.382444970309734">
        <ele>6.87</ele>
        <time>2017-06-26T07:42:59Z</time>
      </trkpt>
      <trkpt lat="70.647145975381136" lon="25.382959032431245">
        <ele>7.35</ele>
        <time>2017-06-26T07:43:00Z</time>
      </trkpt>
      <trkpt lat="70.647260975092649" lon="25.383435040712357">
        <ele>7.83</ele>
        <time>2017-06-26T07:43:01Z</time>
      </trkpt>
      <trkpt lat="70.647392990067601" lon="25.383867966011167">
        <ele>7.83</ele>
        <time>2017-06-26T07:43:02Z</time>
      </trkpt>
      <trkpt lat="70.647542020305991" lon="25.384254036471248">
        <ele>7.83</ele>
        <time>2017-06-26T07:43:03Z</time>
      </trkpt>
      <trkpt lat="70.647704964503646" lon="25.384603980928659">
        <ele>7.83</ele>
        <time>2017-06-26T07:43:04Z</time>
      </trkpt>
      <trkpt lat="70.647879978641868" lon="25.384908998385072">
        <ele>7.83</ele>
        <time>2017-06-26T07:43:05Z</time>
      </trkpt>
      <trkpt lat="70.648060021921992" lon="25.385192977264524">
        <ele>7.83</ele>
        <time>2017-06-26T07:43:06Z</time>
      </trkpt>
      <trkpt lat="70.649390984326601" lon="25.38806302472949">
        <ele>8.789999999999999</ele>
        <time>2017-06-26T07:43:14Z</time>
      </trkpt>
      <trkpt lat="70.653092013671994" lon="25.398969976231456">
        <ele>12.630000000000001</ele>
        <time>2017-06-26T07:43:43Z</time>
      </trkpt>
      <trkpt lat="70.653252024203539" lon="25.399222020059824">
        <ele>12.15</ele>
        <time>2017-06-26T07:43:44Z</time>
      </trkpt>
      <trkpt lat="70.653424020856619" lon="25.399503987282515">
        <ele>11.67</ele>
        <time>2017-06-26T07:43:45Z</time>
      </trkpt>
      <trkpt lat="70.653599034994841" lon="25.399680007249117">
        <ele>11.19</ele>
        <time>2017-06-26T07:43:46Z</time>
      </trkpt>
      <trkpt lat="70.653787041082978" lon="25.399844963103533">
        <ele>11.19</ele>
        <time>2017-06-26T07:43:47Z</time>
      </trkpt>
      <trkpt lat="70.653997007757425" lon="25.399893997237086">
        <ele>10.710000000000001</ele>
        <time>2017-06-26T07:43:48Z</time>
      </trkpt>
      <trkpt lat="70.655696019530296" lon="25.401086993515491">
        <ele>7.83</ele>
        <time>2017-06-26T07:43:56Z</time>
      </trkpt>
      <trkpt lat="70.655889976769686" lon="25.401391005143523">
        <ele>7.35</ele>
        <time>2017-06-26T07:43:57Z</time>
      </trkpt>
      <trkpt lat="70.656077982857823" lon="25.40177296847105">
        <ele>8.310000000000001</ele>
        <time>2017-06-26T07:43:58Z</time>
      </trkpt>
      <trkpt lat="70.657536014914513" lon="25.40488600730896">
        <ele>7.35</ele>
        <time>2017-06-26T07:44:06Z</time>
      </trkpt>
      <trkpt lat="70.657729972153902" lon="25.405122041702271">
        <ele>7.35</ele>
        <time>2017-06-26T07:44:07Z</time>
      </trkpt>
      <trkpt lat="70.657929964363575" lon="25.405304012820125">
        <ele>6.87</ele>
        <time>2017-06-26T07:44:08Z</time>
      </trkpt>
      <trkpt lat="70.659870961681008" lon="25.406750980764627">
        <ele>3.02</ele>
        <time>2017-06-26T07:44:17Z</time>
      </trkpt>
      <trkpt lat="70.660490971058607" lon="25.407222965732217">
        <ele>2.54</ele>
        <time>2017-06-26T07:44:20Z</time>
      </trkpt>
      <trkpt lat="70.66068802960217" lon="25.407268982380629">
        <ele>3.02</ele>
        <time>2017-06-26T07:44:21Z</time>
      </trkpt>
      <trkpt lat="70.660880981013179" lon="25.407238975167274">
        <ele>3.5</ele>
        <time>2017-06-26T07:44:22Z</time>
      </trkpt>
      <trkpt lat="70.661064963787794" lon="25.407132022082806">
        <ele>3.5</ele>
        <time>2017-06-26T07:44:23Z</time>
      </trkpt>
      <trkpt lat="70.66124701872468" lon="25.406942004337907">
        <ele>3.98</ele>
        <time>2017-06-26T07:44:24Z</time>
      </trkpt>
      <trkpt lat="70.661424966529012" lon="25.406689960509539">
        <ele>3.98</ele>
        <time>2017-06-26T07:44:25Z</time>
      </trkpt>
      <trkpt lat="70.661602998152375" lon="25.406396007165313">
        <ele>3.98</ele>
        <time>2017-06-26T07:44:26Z</time>
      </trkpt>
      <trkpt lat="70.665164971724153" lon="25.398244019597769">
        <ele>6.87</ele>
        <time>2017-06-26T07:44:45Z</time>
      </trkpt>
      <trkpt lat="70.66588799469173" lon="25.39554001763463">
        <ele>6.87</ele>
        <time>2017-06-26T07:44:50Z</time>
      </trkpt>
      <trkpt lat="70.665980027988553" lon="25.394977005198598">
        <ele>6.87</ele>
        <time>2017-06-26T07:44:51Z</time>
      </trkpt>
      <trkpt lat="70.666056973859668" lon="25.39440200664103">
        <ele>6.39</ele>
        <time>2017-06-26T07:44:52Z</time>
      </trkpt>
      <trkpt lat="70.666370037943125" lon="25.391512010246515">
        <ele>3.98</ele>
        <time>2017-06-26T07:44:57Z</time>
      </trkpt>
      <trkpt lat="70.666462993249297" lon="25.391010018065572">
        <ele>3.5</ele>
        <time>2017-06-26T07:44:58Z</time>
      </trkpt>
      <trkpt lat="70.666575981304049" lon="25.390569968149066">
        <ele>3.02</ele>
        <time>2017-06-26T07:44:59Z</time>
      </trkpt>
      <trkpt lat="70.666703972965479" lon="25.390173001214862">
        <ele>2.54</ele>
        <time>2017-06-26T07:45:00Z</time>
      </trkpt>
      <trkpt lat="70.666846968233585" lon="25.389820961281657">
        <ele>2.06</ele>
        <time>2017-06-26T07:45:01Z</time>
      </trkpt>
      <trkpt lat="70.667003039270639" lon="25.38952499628067">
        <ele>1.58</ele>
        <time>2017-06-26T07:45:02Z</time>
      </trkpt>
      <trkpt lat="70.667169000953436" lon="25.389278987422585">
        <ele>1.58</ele>
        <time>2017-06-26T07:45:03Z</time>
      </trkpt>
      <trkpt lat="70.667347032576799" lon="25.389105984941125">
        <ele>1.58</ele>
        <time>2017-06-26T07:45:04Z</time>
      </trkpt>
      <trkpt lat="70.667531015351415" lon="25.388998026028275">
        <ele>1.58</ele>
        <time>2017-06-26T07:45:05Z</time>
      </trkpt>
      <trkpt lat="70.667719021439552" lon="25.38894597440958">
        <ele>1.58</ele>
        <time>2017-06-26T07:45:06Z</time>
      </trkpt>
      <trkpt lat="70.6679099611938" lon="25.38894597440958">
        <ele>2.06</ele>
        <time>2017-06-26T07:45:07Z</time>
      </trkpt>
      <trkpt lat="70.668105008080602" lon="25.389010012149811">
        <ele>2.54</ele>
        <time>2017-06-26T07:45:08Z</time>
      </trkpt>
      <trkpt lat="70.668299971148372" lon="25.389129035174847">
        <ele>3.02</ele>
        <time>2017-06-26T07:45:09Z</time>
      </trkpt>
      <trkpt lat="70.668499041348696" lon="25.389280999079347">
        <ele>3.98</ele>
        <time>2017-06-26T07:45:10Z</time>
      </trkpt>
      <trkpt lat="70.668697021901608" lon="25.389465987682343">
        <ele>3.98</ele>
        <time>2017-06-26T07:45:11Z</time>
      </trkpt>
      <trkpt lat="70.670245997607708" lon="25.391809986904263">
        <ele>6.87</ele>
        <time>2017-06-26T07:45:19Z</time>
      </trkpt>
      <trkpt lat="70.671553993597627" lon="25.395440021529794">
        <ele>6.87</ele>
        <time>2017-06-26T07:45:27Z</time>
      </trkpt>
      <trkpt lat="70.671886000782251" lon="25.397134004160762">
        <ele>5.91</ele>
        <time>2017-06-26T07:45:30Z</time>
      </trkpt>
      <trkpt lat="70.671964958310127" lon="25.397745966911316">
        <ele>6.39</ele>
        <time>2017-06-26T07:45:31Z</time>
      </trkpt>
      <trkpt lat="70.672021033242345" lon="25.398363964632154">
        <ele>6.39</ele>
        <time>2017-06-26T07:45:32Z</time>
      </trkpt>
      <trkpt lat="70.672052968293428" lon="25.398990008980036">
        <ele>6.87</ele>
        <time>2017-06-26T07:45:33Z</time>
      </trkpt>
      <trkpt lat="70.672059003263712" lon="25.399616975337267">
        <ele>7.35</ele>
        <time>2017-06-26T07:45:34Z</time>
      </trkpt>
      <trkpt lat="70.672036958858371" lon="25.400248970836401">
        <ele>8.310000000000001</ele>
        <time>2017-06-26T07:45:35Z</time>
      </trkpt>
      <trkpt lat="70.671985996887088" lon="25.40086998604238">
        <ele>8.789999999999999</ele>
        <time>2017-06-26T07:45:36Z</time>
      </trkpt>
      <trkpt lat="70.671911984682083" lon="25.401484966278076">
        <ele>9.75</ele>
        <time>2017-06-26T07:45:37Z</time>
      </trkpt>
      <trkpt lat="70.671815006062388" lon="25.402091983705759">
        <ele>10.23</ele>
        <time>2017-06-26T07:45:38Z</time>
      </trkpt>
      <trkpt lat="70.671700006350875" lon="25.402681985870004">
        <ele>10.710000000000001</ele>
        <time>2017-06-26T07:45:39Z</time>
      </trkpt>
      <trkpt lat="70.671567991375923" lon="25.403246004134417">
        <ele>11.19</ele>
        <time>2017-06-26T07:45:40Z</time>
      </trkpt>
      <trkpt lat="70.671418039128184" lon="25.40381396189332">
        <ele>11.19</ele>
        <time>2017-06-26T07:45:41Z</time>
      </trkpt>
      <trkpt lat="70.66999202594161" lon="25.409349035471678">
        <ele>7.35</ele>
        <time>2017-06-26T07:45:51Z</time>
      </trkpt>
      <trkpt lat="70.669917007908225" lon="25.409938031807542">
        <ele>6.87</ele>
        <time>2017-06-26T07:45:52Z</time>
      </trkpt>
      <trkpt lat="70.669852970167994" lon="25.410558963194489">
        <ele>5.91</ele>
        <time>2017-06-26T07:45:53Z</time>
      </trkpt>
      <trkpt lat="70.669815000146627" lon="25.411174027249217">
        <ele>5.42</ele>
        <time>2017-06-26T07:45:54Z</time>
      </trkpt>
      <trkpt lat="70.669801002368331" lon="25.411798981949687">
        <ele>5.42</ele>
        <time>2017-06-26T07:45:55Z</time>
      </trkpt>
      <trkpt lat="70.669807959347963" lon="25.412424020469189">
        <ele>5.42</ele>
        <time>2017-06-26T07:45:56Z</time>
      </trkpt>
      <trkpt lat="70.669834027066827" lon="25.413036989048123">
        <ele>5.42</ele>
        <time>2017-06-26T07:45:57Z</time>
      </trkpt>
      <trkpt lat="70.669881971552968" lon="25.413637971505523">
        <ele>5.42</ele>
        <time>2017-06-26T07:45:58Z</time>
      </trkpt>
      <trkpt lat="70.66995196044445" lon="25.414224034175277">
        <ele>5.91</ele>
        <time>2017-06-26T07:45:59Z</time>
      </trkpt>
      <trkpt lat="70.670038964599371" lon="25.414794003590941">
        <ele>6.39</ele>
        <time>2017-06-26T07:46:00Z</time>
      </trkpt>
      <trkpt lat="70.67014298401773" lon="25.41534997522831">
        <ele>6.87</ele>
        <time>2017-06-26T07:46:01Z</time>
      </trkpt>
      <trkpt lat="70.670262007042766" lon="25.415894966572523">
        <ele>7.83</ele>
        <time>2017-06-26T07:46:02Z</time>
      </trkpt>
      <trkpt lat="70.671213017776608" lon="25.421120999380946">
        <ele>9.75</ele>
        <time>2017-06-26T07:46:11Z</time>
      </trkpt>
      <trkpt lat="70.671177981421351" lon="25.425132997334003">
        <ele>8.310000000000001</ele>
        <time>2017-06-26T07:46:17Z</time>
      </trkpt>
      <trkpt lat="70.670452024787664" lon="25.432566991075873">
        <ele>8.789999999999999</ele>
        <time>2017-06-26T07:46:28Z</time>
      </trkpt>
      <trkpt lat="70.670480020344257" lon="25.436317976564169">
        <ele>8.789999999999999</ele>
        <time>2017-06-26T07:46:34Z</time>
      </trkpt>
      <trkpt lat="70.671226009726524" lon="25.445304969325662">
        <ele>8.310000000000001</ele>
        <time>2017-06-26T07:46:48Z</time>
      </trkpt>
      <trkpt lat="70.672760987654328" lon="25.455901036038995">
        <ele>10.23</ele>
        <time>2017-06-26T07:47:05Z</time>
      </trkpt>
      <trkpt lat="70.674089016392827" lon="25.461956961080432">
        <ele>10.710000000000001</ele>
        <time>2017-06-26T07:47:16Z</time>
      </trkpt>
      <trkpt lat="70.675183022394776" lon="25.465165972709656">
        <ele>10.710000000000001</ele>
        <time>2017-06-26T07:47:23Z</time>
      </trkpt>
      <trkpt lat="70.676917992532253" lon="25.47024498693645">
        <ele>10.710000000000001</ele>
        <time>2017-06-26T07:47:34Z</time>
      </trkpt>
      <trkpt lat="70.678096991032362" lon="25.472599966451526">
        <ele>9.75</ele>
        <time>2017-06-26T07:47:41Z</time>
      </trkpt>
      <trkpt lat="70.678431009873748" lon="25.473364982753992">
        <ele>9.75</ele>
        <time>2017-06-26T07:47:43Z</time>
      </trkpt>
      <trkpt lat="70.678577022626996" lon="25.473812995478511">
        <ele>9.75</ele>
        <time>2017-06-26T07:47:44Z</time>
      </trkpt>
      <trkpt lat="70.678700990974903" lon="25.4743040073663">
        <ele>9.27</ele>
        <time>2017-06-26T07:47:45Z</time>
      </trkpt>
      <trkpt lat="70.678802998736501" lon="25.474826032295823">
        <ele>9.27</ele>
        <time>2017-06-26T07:47:46Z</time>
      </trkpt>
      <trkpt lat="70.678893020376563" lon="25.475386027246714">
        <ele>9.27</ele>
        <time>2017-06-26T07:47:47Z</time>
      </trkpt>
      <trkpt lat="70.679644038900733" lon="25.479158973321319">
        <ele>9.75</ele>
        <time>2017-06-26T07:47:54Z</time>
      </trkpt>
      <trkpt lat="70.68013496696949" lon="25.481894994154572">
        <ele>8.310000000000001</ele>
        <time>2017-06-26T07:47:59Z</time>
      </trkpt>
      <trkpt lat="70.680262036621571" lon="25.482354993000627">
        <ele>8.310000000000001</ele>
        <time>2017-06-26T07:48:00Z</time>
      </trkpt>
      <trkpt lat="70.681792991235852" lon="25.486562959849834">
        <ele>9.75</ele>
        <time>2017-06-26T07:48:10Z</time>
      </trkpt>
      <trkpt lat="70.682957991957664" lon="25.488434974104166">
        <ele>10.710000000000001</ele>
        <time>2017-06-26T07:48:17Z</time>
      </trkpt>
      <trkpt lat="70.684599000960588" lon="25.49013901501894">
        <ele>10.710000000000001</ele>
        <time>2017-06-26T07:48:26Z</time>
      </trkpt>
      <trkpt lat="70.684791030362248" lon="25.490195006132126">
        <ele>10.23</ele>
        <time>2017-06-26T07:48:27Z</time>
      </trkpt>
      <trkpt lat="70.684993034228683" lon="25.490207998082042">
        <ele>9.75</ele>
        <time>2017-06-26T07:48:28Z</time>
      </trkpt>
      <trkpt lat="70.686733033508062" lon="25.490194000303745">
        <ele>8.789999999999999</ele>
        <time>2017-06-26T07:48:36Z</time>
      </trkpt>
      <trkpt lat="70.688747959211469" lon="25.491853030398488">
        <ele>10.23</ele>
        <time>2017-06-26T07:48:45Z</time>
      </trkpt>
      <trkpt lat="70.690366001799703" lon="25.494195017963648">
        <ele>7.35</ele>
        <time>2017-06-26T07:48:53Z</time>
      </trkpt>
      <trkpt lat="70.691589005291462" lon="25.496012968942523">
        <ele>9.75</ele>
        <time>2017-06-26T07:49:01Z</time>
      </trkpt>
      <trkpt lat="70.693134041503072" lon="25.498062008991838">
        <ele>10.710000000000001</ele>
        <time>2017-06-26T07:49:10Z</time>
      </trkpt>
      <trkpt lat="70.694385040551424" lon="25.500999027863145">
        <ele>11.19</ele>
        <time>2017-06-26T07:49:17Z</time>
      </trkpt>
      <trkpt lat="70.697047971189022" lon="25.508262030780315">
        <ele>21.289999999999999</ele>
        <time>2017-06-26T07:49:32Z</time>
      </trkpt>
      <trkpt lat="70.697188032791018" lon="25.508747007697821">
        <ele>22.25</ele>
        <time>2017-06-26T07:49:33Z</time>
      </trkpt>
      <trkpt lat="70.697304038330913" lon="25.509253023192286">
        <ele>23.210000000000001</ele>
        <time>2017-06-26T07:49:34Z</time>
      </trkpt>
      <trkpt lat="70.697394981980324" lon="25.509780999273062">
        <ele>23.690000000000001</ele>
        <time>2017-06-26T07:49:35Z</time>
      </trkpt>
      <trkpt lat="70.697470000013709" lon="25.510307969525456">
        <ele>23.690000000000001</ele>
        <time>2017-06-26T07:49:36Z</time>
      </trkpt>
      <trkpt lat="70.697535965591669" lon="25.510834017768502">
        <ele>22.73</ele>
        <time>2017-06-26T07:49:37Z</time>
      </trkpt>
      <trkpt lat="70.697841988876462" lon="25.512680970132351">
        <ele>18.879999999999999</ele>
        <time>2017-06-26T07:49:41Z</time>
      </trkpt>
      <trkpt lat="70.697951959446073" lon="25.513061005622149">
        <ele>17.440000000000001</ele>
        <time>2017-06-26T07:49:42Z</time>
      </trkpt>
      <trkpt lat="70.698080034926534" lon="25.513414973393083">
        <ele>16.48</ele>
        <time>2017-06-26T07:49:43Z</time>
      </trkpt>
      <trkpt lat="70.699460031464696" lon="25.516297006979585">
        <ele>9.75</ele>
        <time>2017-06-26T07:49:52Z</time>
      </trkpt>
      <trkpt lat="70.700770039111376" lon="25.517263021320105">
        <ele>7.35</ele>
        <time>2017-06-26T07:49:59Z</time>
      </trkpt>
      <trkpt lat="70.700949998572469" lon="25.517219016328454">
        <ele>6.87</ele>
        <time>2017-06-26T07:50:00Z</time>
      </trkpt>
      <trkpt lat="70.701133981347084" lon="25.517138969153166">
        <ele>6.39</ele>
        <time>2017-06-26T07:50:01Z</time>
      </trkpt>
      <trkpt lat="70.701735969632864" lon="25.516948029398918">
        <ele>6.87</ele>
        <time>2017-06-26T07:50:04Z</time>
      </trkpt>
      <trkpt lat="70.701944008469582" lon="25.516993962228298">
        <ele>6.87</ele>
        <time>2017-06-26T07:50:05Z</time>
      </trkpt>
      <trkpt lat="70.702153975144029" lon="25.517096975818276">
        <ele>6.87</ele>
        <time>2017-06-26T07:50:06Z</time>
      </trkpt>
      <trkpt lat="70.702363019809127" lon="25.517251035198569">
        <ele>6.87</ele>
        <time>2017-06-26T07:50:07Z</time>
      </trkpt>
      <trkpt lat="70.702574998140335" lon="25.5174480099231">
        <ele>6.39</ele>
        <time>2017-06-26T07:50:08Z</time>
      </trkpt>
      <trkpt lat="70.704832999035716" lon="25.520195011049509">
        <ele>7.83</ele>
        <time>2017-06-26T07:50:19Z</time>
      </trkpt>
      <trkpt lat="70.706177959218621" lon="25.523242000490427">
        <ele>9.75</ele>
        <time>2017-06-26T07:50:27Z</time>
      </trkpt>
      <trkpt lat="70.70630201138556" lon="25.52369998767972">
        <ele>9.75</ele>
        <time>2017-06-26T07:50:28Z</time>
      </trkpt>
      <trkpt lat="70.706403013318777" lon="25.524198962375522">
        <ele>9.75</ele>
        <time>2017-06-26T07:50:29Z</time>
      </trkpt>
      <trkpt lat="70.706479959189892" lon="25.524733979254961">
        <ele>9.75</ele>
        <time>2017-06-26T07:50:30Z</time>
      </trkpt>
      <trkpt lat="70.706537961959839" lon="25.525297997519374">
        <ele>9.75</ele>
        <time>2017-06-26T07:50:31Z</time>
      </trkpt>
      <trkpt lat="70.706577021628618" lon="25.52589101716876">
        <ele>10.23</ele>
        <time>2017-06-26T07:50:32Z</time>
      </trkpt>
      <trkpt lat="70.70660300552845" lon="25.526502979919314">
        <ele>10.23</ele>
        <time>2017-06-26T07:50:33Z</time>
      </trkpt>
      <trkpt lat="70.706617003306746" lon="25.527142016217113">
        <ele>9.75</ele>
        <time>2017-06-26T07:50:34Z</time>
      </trkpt>
      <trkpt lat="70.706548020243645" lon="25.534072006121278">
        <ele>7.83</ele>
        <time>2017-06-26T07:50:44Z</time>
      </trkpt>
      <trkpt lat="70.706491023302078" lon="25.536711970344186">
        <ele>7.83</ele>
        <time>2017-06-26T07:50:48Z</time>
      </trkpt>
      <trkpt lat="70.706440983340144" lon="25.537327034398913">
        <ele>7.35</ele>
        <time>2017-06-26T07:50:49Z</time>
      </trkpt>
      <trkpt lat="70.70636797696352" lon="25.537924999371171">
        <ele>6.87</ele>
        <time>2017-06-26T07:50:50Z</time>
      </trkpt>
      <trkpt lat="70.706270998343825" lon="25.538473008200526">
        <ele>6.87</ele>
        <time>2017-06-26T07:50:51Z</time>
      </trkpt>
      <trkpt lat="70.706146024167538" lon="25.538968965411186">
        <ele>6.87</ele>
        <time>2017-06-26T07:50:52Z</time>
      </trkpt>
      <trkpt lat="70.706003028899431" lon="25.53942795842886">
        <ele>6.87</ele>
        <time>2017-06-26T07:50:53Z</time>
      </trkpt>
      <trkpt lat="70.705853998661041" lon="25.539859039708972">
        <ele>7.35</ele>
        <time>2017-06-26T07:50:54Z</time>
      </trkpt>
      <trkpt lat="70.705597009509802" lon="25.540706031024456">
        <ele>7.83</ele>
        <time>2017-06-26T07:50:56Z</time>
      </trkpt>
      <trkpt lat="70.705500030890107" lon="25.541176004335284">
        <ele>8.310000000000001</ele>
        <time>2017-06-26T07:50:57Z</time>
      </trkpt>
      <trkpt lat="70.705423001199961" lon="25.541690988466144">
        <ele>8.310000000000001</ele>
        <time>2017-06-26T07:50:58Z</time>
      </trkpt>
      <trkpt lat="70.705359969288111" lon="25.542252995073795">
        <ele>8.789999999999999</ele>
        <time>2017-06-26T07:50:59Z</time>
      </trkpt>
      <trkpt lat="70.705309007316828" lon="25.542836962267756">
        <ele>9.27</ele>
        <time>2017-06-26T07:51:00Z</time>
      </trkpt>
      <trkpt lat="70.705267013981938" lon="25.543428976088762">
        <ele>9.75</ele>
        <time>2017-06-26T07:51:01Z</time>
      </trkpt>
      <trkpt lat="70.705201970413327" lon="25.546103976666927">
        <ele>10.710000000000001</ele>
        <time>2017-06-26T07:51:06Z</time>
      </trkpt>
      <trkpt lat="70.705231977626681" lon="25.546621978282928">
        <ele>10.710000000000001</ele>
        <time>2017-06-26T07:51:07Z</time>
      </trkpt>
      <trkpt lat="70.705281011760235" lon="25.547133022919297">
        <ele>10.710000000000001</ele>
        <time>2017-06-26T07:51:08Z</time>
      </trkpt>
      <trkpt lat="70.705347983166575" lon="25.547637026757002">
        <ele>10.23</ele>
        <time>2017-06-26T07:51:09Z</time>
      </trkpt>
      <trkpt lat="70.705430964007974" lon="25.548122003674507">
        <ele>9.75</ele>
        <time>2017-06-26T07:51:10Z</time>
      </trkpt>
      <trkpt lat="70.705525008961558" lon="25.548606980592012">
        <ele>9.75</ele>
        <time>2017-06-26T07:51:11Z</time>
      </trkpt>
      <trkpt lat="70.706389015540481" lon="25.551549028605223">
        <ele>7.83</ele>
        <time>2017-06-26T07:51:18Z</time>
      </trkpt>
      <trkpt lat="70.708132032305002" lon="25.557021992281079">
        <ele>13.119999999999999</ele>
        <time>2017-06-26T07:51:30Z</time>
      </trkpt>
      <trkpt lat="70.709489984437823" lon="25.559791037812829">
        <ele>13.119999999999999</ele>
        <time>2017-06-26T07:51:38Z</time>
      </trkpt>
      <trkpt lat="70.711656035855412" lon="25.563547974452376">
        <ele>12.15</ele>
        <time>2017-06-26T07:51:48Z</time>
      </trkpt>
      <trkpt lat="70.715414984151721" lon="25.570868980139494">
        <ele>11.19</ele>
        <time>2017-06-26T07:52:05Z</time>
      </trkpt>
      <trkpt lat="70.718531040474772" lon="25.57771498337388">
        <ele>10.710000000000001</ele>
        <time>2017-06-26T07:52:20Z</time>
      </trkpt>
      <trkpt lat="70.720039028674364" lon="25.581924039870501">
        <ele>15.039999999999999</ele>
        <time>2017-06-26T07:52:28Z</time>
      </trkpt>
      <trkpt lat="70.722913015633821" lon="25.590783040970564">
        <ele>15.52</ele>
        <time>2017-06-26T07:52:44Z</time>
      </trkpt>
      <trkpt lat="70.726137030869722" lon="25.598799996078014">
        <ele>27.530000000000001</ele>
        <time>2017-06-26T07:53:01Z</time>
      </trkpt>
      <trkpt lat="70.728622013702989" lon="25.605353973805904">
        <ele>27.530000000000001</ele>
        <time>2017-06-26T07:53:14Z</time>
      </trkpt>
      <trkpt lat="70.730951009318233" lon="25.610476993024349">
        <ele>28.98</ele>
        <time>2017-06-26T07:53:25Z</time>
      </trkpt>
      <trkpt lat="70.733514027670026" lon="25.614776993170381">
        <ele>42.439999999999998</ele>
        <time>2017-06-26T07:53:37Z</time>
      </trkpt>
      <trkpt lat="70.735273975878954" lon="25.617264993488789">
        <ele>37.149999999999999</ele>
        <time>2017-06-26T07:53:46Z</time>
      </trkpt>
      <trkpt lat="70.736612984910607" lon="25.618959981948137">
        <ele>36.189999999999998</ele>
        <time>2017-06-26T07:53:53Z</time>
      </trkpt>
      <trkpt lat="70.736792022362351" lon="25.619056960567832">
        <ele>36.670000000000002</ele>
        <time>2017-06-26T07:53:54Z</time>
      </trkpt>
      <trkpt lat="70.736973993480206" lon="25.61909300275147">
        <ele>36.670000000000002</ele>
        <time>2017-06-26T07:53:55Z</time>
      </trkpt>
      <trkpt lat="70.737157976254821" lon="25.619058972224593">
        <ele>37.149999999999999</ele>
        <time>2017-06-26T07:53:56Z</time>
      </trkpt>
      <trkpt lat="70.737337013706565" lon="25.618973979726434">
        <ele>37.149999999999999</ele>
        <time>2017-06-26T07:53:57Z</time>
      </trkpt>
      <trkpt lat="70.737510016188025" lon="25.618817992508411">
        <ele>37.149999999999999</ele>
        <time>2017-06-26T07:53:58Z</time>
      </trkpt>
      <trkpt lat="70.737683018669486" lon="25.618605008348823">
        <ele>36.670000000000002</ele>
        <time>2017-06-26T07:53:59Z</time>
      </trkpt>
      <trkpt lat="70.737851997837424" lon="25.618325974792242">
        <ele>36.189999999999998</ele>
        <time>2017-06-26T07:54:00Z</time>
      </trkpt>
      <trkpt lat="70.738017037510872" lon="25.617995979264379">
        <ele>35.229999999999997</ele>
        <time>2017-06-26T07:54:01Z</time>
      </trkpt>
      <trkpt lat="70.738172018900514" lon="25.617615021765232">
        <ele>34.740000000000002</ele>
        <time>2017-06-26T07:54:02Z</time>
      </trkpt>
      <trkpt lat="70.738319037482142" lon="25.617192992940545">
        <ele>34.740000000000002</ele>
        <time>2017-06-26T07:54:03Z</time>
      </trkpt>
      <trkpt lat="70.738453986123204" lon="25.616728970780969">
        <ele>33.780000000000001</ele>
        <time>2017-06-26T07:54:04Z</time>
      </trkpt>
      <trkpt lat="70.738586001098156" lon="25.616240976378322">
        <ele>33.299999999999997</ele>
        <time>2017-06-26T07:54:05Z</time>
      </trkpt>
      <trkpt lat="70.740136988461018" lon="25.610317988321185">
        <ele>24.170000000000002</ele>
        <time>2017-06-26T07:54:16Z</time>
      </trkpt>
      <trkpt lat="70.741011975333095" lon="25.607576016336679">
        <ele>19.84</ele>
        <time>2017-06-26T07:54:22Z</time>
      </trkpt>
      <trkpt lat="70.741177015006542" lon="25.607291031628847">
        <ele>20.32</ele>
        <time>2017-06-26T07:54:23Z</time>
      </trkpt>
      <trkpt lat="70.741349011659622" lon="25.607077041640878">
        <ele>20.809999999999999</ele>
        <time>2017-06-26T07:54:24Z</time>
      </trkpt>
      <trkpt lat="70.741529976949096" lon="25.606936980038881">
        <ele>21.289999999999999</ele>
        <time>2017-06-26T07:54:25Z</time>
      </trkpt>
      <trkpt lat="70.741724018007517" lon="25.606850981712341">
        <ele>21.77</ele>
        <time>2017-06-26T07:54:26Z</time>
      </trkpt>
      <trkpt lat="70.743164028972387" lon="25.605488000437617">
        <ele>23.690000000000001</ele>
        <time>2017-06-26T07:54:33Z</time>
      </trkpt>
      <trkpt lat="70.745115000754595" lon="25.603596037253737">
        <ele>34.259999999999998</ele>
        <time>2017-06-26T07:54:42Z</time>
      </trkpt>
      <trkpt lat="70.745288003236055" lon="25.603347010910511">
        <ele>35.229999999999997</ele>
        <time>2017-06-26T07:54:43Z</time>
      </trkpt>
      <trkpt lat="70.745439967140555" lon="25.603048028424382">
        <ele>35.710000000000001</ele>
        <time>2017-06-26T07:54:44Z</time>
      </trkpt>
      <trkpt lat="70.745569970458746" lon="25.60270101763308">
        <ele>36.189999999999998</ele>
        <time>2017-06-26T07:54:45Z</time>
      </trkpt>
      <trkpt lat="70.745678013190627" lon="25.602307990193367">
        <ele>36.189999999999998</ele>
        <time>2017-06-26T07:54:46Z</time>
      </trkpt>
      <trkpt lat="70.745765017345548" lon="25.601854026317596">
        <ele>35.710000000000001</ele>
        <time>2017-06-26T07:54:47Z</time>
      </trkpt>
      <trkpt lat="70.74583500623703" lon="25.601362008601427">
        <ele>35.229999999999997</ele>
        <time>2017-06-26T07:54:48Z</time>
      </trkpt>
      <trkpt lat="70.745889991521835" lon="25.600826991721988">
        <ele>34.259999999999998</ele>
        <time>2017-06-26T07:54:49Z</time>
      </trkpt>
      <trkpt lat="70.745927961543202" lon="25.600248975679278">
        <ele>33.299999999999997</ele>
        <time>2017-06-26T07:54:50Z</time>
      </trkpt>
      <trkpt lat="70.745956962928176" lon="25.59964899905026">
        <ele>31.859999999999999</ele>
        <time>2017-06-26T07:54:51Z</time>
      </trkpt>
      <trkpt lat="70.746172964572906" lon="25.596570996567607">
        <ele>26.09</ele>
        <time>2017-06-26T07:54:56Z</time>
      </trkpt>
      <trkpt lat="70.746262986212969" lon="25.59604000300169">
        <ele>25.129999999999999</ele>
        <time>2017-06-26T07:54:57Z</time>
      </trkpt>
      <trkpt lat="70.746375974267721" lon="25.595555026084185">
        <ele>23.690000000000001</ele>
        <time>2017-06-26T07:54:58Z</time>
      </trkpt>
      <trkpt lat="70.746510000899434" lon="25.595114976167679">
        <ele>22.25</ele>
        <time>2017-06-26T07:54:59Z</time>
      </trkpt>
      <trkpt lat="70.746663976460695" lon="25.59475002810359">
        <ele>21.77</ele>
        <time>2017-06-26T07:55:00Z</time>
      </trkpt>
      <trkpt lat="70.746830021962523" lon="25.594465965405107">
        <ele>20.809999999999999</ele>
        <time>2017-06-26T07:55:01Z</time>
      </trkpt>
      <trkpt lat="70.74699598364532" lon="25.594233032315969">
        <ele>19.84</ele>
        <time>2017-06-26T07:55:02Z</time>
      </trkpt>
      <trkpt lat="70.747149037197232" lon="25.594056006520987">
        <ele>18.879999999999999</ele>
        <time>2017-06-26T07:55:03Z</time>
      </trkpt>
      <trkpt lat="70.747774997726083" lon="25.593334995210171">
        <ele>15.039999999999999</ele>
        <time>2017-06-26T07:55:09Z</time>
      </trkpt>
      <trkpt lat="70.74819702655077" lon="25.592835014685988">
        <ele>12.15</ele>
        <time>2017-06-26T07:55:17Z</time>
      </trkpt>
      <trkpt lat="70.748914014548063" lon="25.591943012550473">
        <ele>8.310000000000001</ele>
        <time>2017-06-26T07:55:23Z</time>
      </trkpt>
      <trkpt lat="70.750616965815425" lon="25.589836975559592">
        <ele>7.83</ele>
        <time>2017-06-26T07:55:33Z</time>
      </trkpt>
      <trkpt lat="70.752018000930548" lon="25.589253008365631">
        <ele>9.75</ele>
        <time>2017-06-26T07:55:40Z</time>
      </trkpt>
      <trkpt lat="70.753488019108772" lon="25.59036897495389">
        <ele>11.67</ele>
        <time>2017-06-26T07:55:47Z</time>
      </trkpt>
      <trkpt lat="70.756703987717628" lon="25.592629993334413">
        <ele>17.440000000000001</ele>
        <time>2017-06-26T07:56:01Z</time>
      </trkpt>
      <trkpt lat="70.759612005203962" lon="25.594525979831815">
        <ele>12.15</ele>
        <time>2017-06-26T07:56:13Z</time>
      </trkpt>
      <trkpt lat="70.761381005868316" lon="25.597231993451715">
        <ele>10.23</ele>
        <time>2017-06-26T07:56:21Z</time>
      </trkpt>
      <trkpt lat="70.76403396204114" lon="25.603032018989325">
        <ele>13.6</ele>
        <time>2017-06-26T07:56:34Z</time>
      </trkpt>
      <trkpt lat="70.766607960686088" lon="25.608223015442491">
        <ele>15.039999999999999</ele>
        <time>2017-06-26T07:56:46Z</time>
      </trkpt>
      <trkpt lat="70.769995003938675" lon="25.613192981109023">
        <ele>10.23</ele>
        <time>2017-06-26T07:57:01Z</time>
      </trkpt>
      <trkpt lat="70.771268969401717" lon="25.614146003499627">
        <ele>10.710000000000001</ele>
        <time>2017-06-26T07:57:07Z</time>
      </trkpt>
      <trkpt lat="70.772490967065096" lon="25.614360999315977">
        <ele>11.67</ele>
        <time>2017-06-26T07:57:14Z</time>
      </trkpt>
      <trkpt lat="70.773433009162545" lon="25.615323996171355">
        <ele>12.15</ele>
        <time>2017-06-26T07:57:20Z</time>
      </trkpt>
      <trkpt lat="70.774613013491035" lon="25.617692973464727">
        <ele>11.67</ele>
        <time>2017-06-26T07:57:28Z</time>
      </trkpt>
      <trkpt lat="70.775091033428907" lon="25.618660999462008">
        <ele>12.15</ele>
        <time>2017-06-26T07:57:34Z</time>
      </trkpt>
      <trkpt lat="70.775288008153439" lon="25.619080010801554">
        <ele>13.119999999999999</ele>
        <time>2017-06-26T07:57:43Z</time>
      </trkpt>
      <trkpt lat="70.775305023416877" lon="25.619139019399881">
        <ele>12.630000000000001</ele>
        <time>2017-06-26T07:57:57Z</time>
      </trkpt>
      <trkpt lat="70.775474002584815" lon="25.619534980505705">
        <ele>13.119999999999999</ele>
        <time>2017-06-26T07:58:27Z</time>
      </trkpt>
      <trkpt lat="70.775932995602489" lon="25.620998963713646">
        <ele>14.08</ele>
        <time>2017-06-26T07:58:35Z</time>
      </trkpt>
      <trkpt lat="70.776402968913317" lon="25.624005971476436">
        <ele>13.119999999999999</ele>
        <time>2017-06-26T07:58:43Z</time>
      </trkpt>
      <trkpt lat="70.77662299387157" lon="25.629177019000053">
        <ele>13.6</ele>
        <time>2017-06-26T07:58:53Z</time>
      </trkpt>
      <trkpt lat="70.776925999671221" lon="25.632261978462338">
        <ele>13.6</ele>
        <time>2017-06-26T07:58:59Z</time>
      </trkpt>
      <trkpt lat="70.777021972462535" lon="25.63275801949203">
        <ele>13.6</ele>
        <time>2017-06-26T07:59:00Z</time>
      </trkpt>
      <trkpt lat="70.777132026851177" lon="25.633240984752774">
        <ele>13.6</ele>
        <time>2017-06-26T07:59:01Z</time>
      </trkpt>
      <trkpt lat="70.778067028149962" lon="25.637561017647386">
        <ele>11.19</ele>
        <time>2017-06-26T07:59:09Z</time>
      </trkpt>
      <trkpt lat="70.778614031150937" lon="25.641842996701598">
        <ele>12.630000000000001</ele>
        <time>2017-06-26T07:59:16Z</time>
      </trkpt>
      <trkpt lat="70.779607035219669" lon="25.646334020420909">
        <ele>13.119999999999999</ele>
        <time>2017-06-26T07:59:25Z</time>
      </trkpt>
      <trkpt lat="70.779758999124169" lon="25.647429032251239">
        <ele>13.6</ele>
        <time>2017-06-26T07:59:27Z</time>
      </trkpt>
      <trkpt lat="70.779812978580594" lon="25.648003024980426">
        <ele>14.56</ele>
        <time>2017-06-26T07:59:28Z</time>
      </trkpt>
      <trkpt lat="70.779852038249373" lon="25.648581963032484">
        <ele>16</ele>
        <time>2017-06-26T07:59:29Z</time>
      </trkpt>
      <trkpt lat="70.779875004664063" lon="25.649181017652154">
        <ele>16.960000000000001</ele>
        <time>2017-06-26T07:59:30Z</time>
      </trkpt>
      <trkpt lat="70.779895037412643" lon="25.649785017594695">
        <ele>17.440000000000001</ele>
        <time>2017-06-26T07:59:31Z</time>
      </trkpt>
      <trkpt lat="70.780284041538835" lon="25.653850995004177">
        <ele>19.359999999999999</ele>
        <time>2017-06-26T07:59:38Z</time>
      </trkpt>
      <trkpt lat="70.780669022351503" lon="25.657920995727181">
        <ele>20.809999999999999</ele>
        <time>2017-06-26T07:59:45Z</time>
      </trkpt>
      <trkpt lat="70.7806639932096" lon="25.658506974577904">
        <ele>21.77</ele>
        <time>2017-06-26T07:59:46Z</time>
      </trkpt>
      <trkpt lat="70.780638009309769" lon="25.659085996448994">
        <ele>22.73</ele>
        <time>2017-06-26T07:59:47Z</time>
      </trkpt>
      <trkpt lat="70.780594004318118" lon="25.659651020541787">
        <ele>23.210000000000001</ele>
        <time>2017-06-26T07:59:48Z</time>
      </trkpt>
      <trkpt lat="70.780528960749507" lon="25.660206992179155">
        <ele>23.690000000000001</ele>
        <time>2017-06-26T07:59:49Z</time>
      </trkpt>
      <trkpt lat="70.780450003221631" lon="25.660744020715356">
        <ele>24.649999999999999</ele>
        <time>2017-06-26T07:59:50Z</time>
      </trkpt>
      <trkpt lat="70.780359981581569" lon="25.661268979310989">
        <ele>25.129999999999999</ele>
        <time>2017-06-26T07:59:51Z</time>
      </trkpt>
      <trkpt lat="70.779962008818984" lon="25.663647009059787">
        <ele>27.530000000000001</ele>
        <time>2017-06-26T07:59:56Z</time>
      </trkpt>
      <trkpt lat="70.779922027140856" lon="25.664096027612686">
        <ele>28.02</ele>
        <time>2017-06-26T07:59:57Z</time>
      </trkpt>
      <trkpt lat="70.779901994392276" lon="25.664548985660076">
        <ele>28.5</ele>
        <time>2017-06-26T07:59:58Z</time>
      </trkpt>
      <trkpt lat="70.779897971078753" lon="25.664991969242692">
        <ele>28.5</ele>
        <time>2017-06-26T07:59:59Z</time>
      </trkpt>
      <trkpt lat="70.77990903519094" lon="25.665423972532153">
        <ele>28.5</ele>
        <time>2017-06-26T08:00:00Z</time>
      </trkpt>
      <trkpt lat="70.779938958585262" lon="25.665843989700079">
        <ele>28.98</ele>
        <time>2017-06-26T08:00:01Z</time>
      </trkpt>
      <trkpt lat="70.779990004375577" lon="25.666264006868005">
        <ele>28.98</ele>
        <time>2017-06-26T08:00:02Z</time>
      </trkpt>
      <trkpt lat="70.780056975781918" lon="25.666671032086015">
        <ele>28.98</ele>
        <time>2017-06-26T08:00:03Z</time>
      </trkpt>
      <trkpt lat="70.780137022957206" lon="25.667067999020219">
        <ele>28.5</ele>
        <time>2017-06-26T08:00:04Z</time>
      </trkpt>
      <trkpt lat="70.780226038768888" lon="25.667463960126042">
        <ele>28.5</ele>
        <time>2017-06-26T08:00:05Z</time>
      </trkpt>
      <trkpt lat="70.780872032046318" lon="25.670884028077126">
        <ele>29.460000000000001</ele>
        <time>2017-06-26T08:00:14Z</time>
      </trkpt>
      <trkpt lat="70.781051991507411" lon="25.672057997435331">
        <ele>29.940000000000001</ele>
        <time>2017-06-26T08:00:21Z</time>
      </trkpt>
      <trkpt lat="70.781062971800566" lon="25.672091022133827">
        <ele>29.940000000000001</ele>
        <time>2017-06-26T08:00:31Z</time>
      </trkpt>
      <trkpt lat="70.781084010377526" lon="25.672185989096761">
        <ele>29.940000000000001</ele>
        <time>2017-06-26T08:01:13Z</time>
      </trkpt>
      <trkpt lat="70.781339993700385" lon="25.673619965091348">
        <ele>30.420000000000002</ele>
        <time>2017-06-26T08:01:19Z</time>
      </trkpt>
      <trkpt lat="70.781875010579824" lon="25.676967026665807">
        <ele>31.379999999999999</ele>
        <time>2017-06-26T08:01:28Z</time>
      </trkpt>
      <trkpt lat="70.782809006050229" lon="25.680348034948111">
        <ele>31.859999999999999</ele>
        <time>2017-06-26T08:01:36Z</time>
      </trkpt>
      <trkpt lat="70.784459989517927" lon="25.684992028400302">
        <ele>31.379999999999999</ele>
        <time>2017-06-26T08:01:46Z</time>
      </trkpt>
      <trkpt lat="70.7856460288167" lon="25.688988016918302">
        <ele>30.899999999999999</ele>
        <time>2017-06-26T08:01:54Z</time>
      </trkpt>
      <trkpt lat="70.785744013264775" lon="25.689566032961011">
        <ele>31.379999999999999</ele>
        <time>2017-06-26T08:01:55Z</time>
      </trkpt>
      <trkpt lat="70.785831017419696" lon="25.690176989883184">
        <ele>31.379999999999999</ele>
        <time>2017-06-26T08:01:56Z</time>
      </trkpt>
      <trkpt lat="70.78614198602736" lon="25.692454017698765">
        <ele>31.859999999999999</ele>
        <time>2017-06-26T08:02:00Z</time>
      </trkpt>
      <trkpt lat="70.786247011274099" lon="25.692932959645987">
        <ele>31.859999999999999</ele>
        <time>2017-06-26T08:02:01Z</time>
      </trkpt>
      <trkpt lat="70.786371985450387" lon="25.693372003734112">
        <ele>32.340000000000003</ele>
        <time>2017-06-26T08:02:02Z</time>
      </trkpt>
      <trkpt lat="70.786516992375255" lon="25.693795960396528">
        <ele>31.859999999999999</ele>
        <time>2017-06-26T08:02:03Z</time>
      </trkpt>
      <trkpt lat="70.786672979593277" lon="25.694209020584822">
        <ele>31.859999999999999</ele>
        <time>2017-06-26T08:02:04Z</time>
      </trkpt>
      <trkpt lat="70.788101004436612" lon="25.698684034869075">
        <ele>31.859999999999999</ele>
        <time>2017-06-26T08:02:14Z</time>
      </trkpt>
      <trkpt lat="70.788188008591533" lon="25.69912601262331">
        <ele>31.379999999999999</ele>
        <time>2017-06-26T08:02:15Z</time>
      </trkpt>
      <trkpt lat="70.788254979997873" lon="25.699590034782887">
        <ele>30.420000000000002</ele>
        <time>2017-06-26T08:02:16Z</time>
      </trkpt>
      <trkpt lat="70.788296973332763" lon="25.700085991993546">
        <ele>29.940000000000001</ele>
        <time>2017-06-26T08:02:17Z</time>
      </trkpt>
      <trkpt lat="70.788307031616569" lon="25.700597036629915">
        <ele>29.940000000000001</ele>
        <time>2017-06-26T08:02:18Z</time>
      </trkpt>
      <trkpt lat="70.788291022181511" lon="25.701110009104013">
        <ele>29.940000000000001</ele>
        <time>2017-06-26T08:02:19Z</time>
      </trkpt>
      <trkpt lat="70.788245005533099" lon="25.701605966314673">
        <ele>29.940000000000001</ele>
        <time>2017-06-26T08:02:20Z</time>
      </trkpt>
      <trkpt lat="70.788170993328094" lon="25.702084992080927">
        <ele>30.420000000000002</ele>
        <time>2017-06-26T08:02:21Z</time>
      </trkpt>
      <trkpt lat="70.788068985566497" lon="25.702547002583742">
        <ele>30.420000000000002</ele>
        <time>2017-06-26T08:02:22Z</time>
      </trkpt>
      <trkpt lat="70.78794602304697" lon="25.702989986166358">
        <ele>30.899999999999999</ele>
        <time>2017-06-26T08:02:23Z</time>
      </trkpt>
      <trkpt lat="70.787803027778864" lon="25.703393993899226">
        <ele>31.859999999999999</ele>
        <time>2017-06-26T08:02:24Z</time>
      </trkpt>
      <trkpt lat="70.787656009197235" lon="25.70376799441874">
        <ele>32.340000000000003</ele>
        <time>2017-06-26T08:02:25Z</time>
      </trkpt>
      <trkpt lat="70.787263987585902" lon="25.704867029562593">
        <ele>34.259999999999998</ele>
        <time>2017-06-26T08:02:28Z</time>
      </trkpt>
      <trkpt lat="70.787168014794588" lon="25.705290986225009">
        <ele>34.259999999999998</ele>
        <time>2017-06-26T08:02:29Z</time>
      </trkpt>
      <trkpt lat="70.787092996761203" lon="25.705744028091431">
        <ele>34.740000000000002</ele>
        <time>2017-06-26T08:02:30Z</time>
      </trkpt>
      <trkpt lat="70.787028959020972" lon="25.706217018887401">
        <ele>34.740000000000002</ele>
        <time>2017-06-26T08:02:31Z</time>
      </trkpt>
      <trkpt lat="70.786986965686083" lon="25.706714987754822">
        <ele>34.740000000000002</ele>
        <time>2017-06-26T08:02:32Z</time>
      </trkpt>
      <trkpt lat="70.786963999271393" lon="25.707227038219571">
        <ele>34.259999999999998</ele>
        <time>2017-06-26T08:02:33Z</time>
      </trkpt>
      <trkpt lat="70.786967016756535" lon="25.707733975723386">
        <ele>34.259999999999998</ele>
        <time>2017-06-26T08:02:34Z</time>
      </trkpt>
      <trkpt lat="70.786995012313128" lon="25.708238985389471">
        <ele>34.259999999999998</ele>
        <time>2017-06-26T08:02:35Z</time>
      </trkpt>
      <trkpt lat="70.787048991769552" lon="25.708720022812486">
        <ele>33.780000000000001</ele>
        <time>2017-06-26T08:02:36Z</time>
      </trkpt>
      <trkpt lat="70.78712803311646" lon="25.70918002165854">
        <ele>33.299999999999997</ele>
        <time>2017-06-26T08:02:37Z</time>
      </trkpt>
      <trkpt lat="70.787230040878057" lon="25.709630968049169">
        <ele>33.299999999999997</ele>
        <time>2017-06-26T08:02:38Z</time>
      </trkpt>
      <trkpt lat="70.787342023104429" lon="25.710074035450816">
        <ele>33.299999999999997</ele>
        <time>2017-06-26T08:02:39Z</time>
      </trkpt>
      <trkpt lat="70.788685977458954" lon="25.715153971686959">
        <ele>40.990000000000002</ele>
        <time>2017-06-26T08:02:49Z</time>
      </trkpt>
      <trkpt lat="70.789124015718699" lon="25.716474037617445">
        <ele>44.840000000000003</ele>
        <time>2017-06-26T08:02:52Z</time>
      </trkpt>
      <trkpt lat="70.789287965744734" lon="25.716810990124941">
        <ele>45.32</ele>
        <time>2017-06-26T08:02:53Z</time>
      </trkpt>
      <trkpt lat="70.789461974054575" lon="25.717090023681521">
        <ele>45.799999999999997</ele>
        <time>2017-06-26T08:02:54Z</time>
      </trkpt>
      <trkpt lat="70.789650985971093" lon="25.717313988134265">
        <ele>46.280000000000001</ele>
        <time>2017-06-26T08:02:55Z</time>
      </trkpt>
      <trkpt lat="70.789855001494288" lon="25.71747500449419">
        <ele>46.280000000000001</ele>
        <time>2017-06-26T08:02:56Z</time>
      </trkpt>
      <trkpt lat="70.790066979825497" lon="25.717606013640761">
        <ele>46.759999999999998</ele>
        <time>2017-06-26T08:02:57Z</time>
      </trkpt>
      <trkpt lat="70.790284993126988" lon="25.717705003917217">
        <ele>46.759999999999998</ele>
        <time>2017-06-26T08:02:58Z</time>
      </trkpt>
      <trkpt lat="70.792062962427735" lon="25.719254985451698">
        <ele>49.649999999999999</ele>
        <time>2017-06-26T08:03:06Z</time>
      </trkpt>
      <trkpt lat="70.793399037793279" lon="25.722402976825833">
        <ele>51.57</ele>
        <time>2017-06-26T08:03:13Z</time>
      </trkpt>
      <trkpt lat="70.794657999649644" lon="25.724379010498524">
        <ele>50.609999999999999</ele>
        <time>2017-06-26T08:03:19Z</time>
      </trkpt>
      <trkpt lat="70.797218000516295" lon="25.726744970306754">
        <ele>49.159999999999997</ele>
        <time>2017-06-26T08:03:30Z</time>
      </trkpt>
      <trkpt lat="70.799652021378279" lon="25.730312978848815">
        <ele>48.68</ele>
        <time>2017-06-26T08:03:41Z</time>
      </trkpt>
      <trkpt lat="70.802316041663289" lon="25.733723994344473">
        <ele>49.159999999999997</ele>
        <time>2017-06-26T08:03:52Z</time>
      </trkpt>
      <trkpt lat="70.80638000741601" lon="25.737738003954291">
        <ele>46.280000000000001</ele>
        <time>2017-06-26T08:04:08Z</time>
      </trkpt>
      <trkpt lat="70.808675978332758" lon="25.741392010822892">
        <ele>48.68</ele>
        <time>2017-06-26T08:04:18Z</time>
      </trkpt>
      <trkpt lat="70.81125701777637" lon="25.744664976373315">
        <ele>48.200000000000003</ele>
        <time>2017-06-26T08:04:29Z</time>
      </trkpt>
      <trkpt lat="70.813287030905485" lon="25.74777097441256">
        <ele>43.399999999999999</ele>
        <time>2017-06-26T08:04:38Z</time>
      </trkpt>
      <trkpt lat="70.815063994377851" lon="25.752568021416664">
        <ele>40.030000000000001</ele>
        <time>2017-06-26T08:04:47Z</time>
      </trkpt>
      <trkpt lat="70.817159973084927" lon="25.757044963538647">
        <ele>36.670000000000002</ele>
        <time>2017-06-26T08:04:57Z</time>
      </trkpt>
      <trkpt lat="70.819127960130572" lon="25.761537998914719">
        <ele>28.5</ele>
        <time>2017-06-26T08:05:07Z</time>
      </trkpt>
      <trkpt lat="70.820764023810625" lon="25.766450967639685">
        <ele>21.289999999999999</ele>
        <time>2017-06-26T08:05:17Z</time>
      </trkpt>
      <trkpt lat="70.821997001767159" lon="25.768345026299357">
        <ele>15.039999999999999</ele>
        <time>2017-06-26T08:05:24Z</time>
      </trkpt>
      <trkpt lat="70.823926012963057" lon="25.769900036975741">
        <ele>11.19</ele>
        <time>2017-06-26T08:05:33Z</time>
      </trkpt>
      <trkpt lat="70.826081000268459" lon="25.772720966488123">
        <ele>15.52</ele>
        <time>2017-06-26T08:05:43Z</time>
      </trkpt>
      <trkpt lat="70.8288539852947" lon="25.776347983628511">
        <ele>22.25</ele>
        <time>2017-06-26T08:05:56Z</time>
      </trkpt>
      <trkpt lat="70.831766026094556" lon="25.778099969029427">
        <ele>24.170000000000002</ele>
        <time>2017-06-26T08:06:08Z</time>
      </trkpt>
      <trkpt lat="70.833325982093811" lon="25.779873998835683">
        <ele>25.609999999999999</ele>
        <time>2017-06-26T08:06:15Z</time>
      </trkpt>
      <trkpt lat="70.834739003330469" lon="25.783216031268239">
        <ele>29.460000000000001</ele>
        <time>2017-06-26T08:06:23Z</time>
      </trkpt>
      <trkpt lat="70.836645970121026" lon="25.786925023421645">
        <ele>35.229999999999997</ele>
        <time>2017-06-26T08:06:33Z</time>
      </trkpt>
      <trkpt lat="70.8385019749403" lon="25.788409039378166">
        <ele>26.09</ele>
        <time>2017-06-26T08:06:41Z</time>
      </trkpt>
      <trkpt lat="70.841951966285706" lon="25.789521988481283">
        <ele>19.359999999999999</ele>
        <time>2017-06-26T08:06:54Z</time>
      </trkpt>
      <trkpt lat="70.844296971336007" lon="25.791521994397044">
        <ele>24.170000000000002</ele>
        <time>2017-06-26T08:07:03Z</time>
      </trkpt>
      <trkpt lat="70.849278001114726" lon="25.79664702527225">
        <ele>35.710000000000001</ele>
        <time>2017-06-26T08:07:23Z</time>
      </trkpt>
      <trkpt lat="70.851639015600085" lon="25.798230031505227">
        <ele>39.549999999999997</ele>
        <time>2017-06-26T08:07:33Z</time>
      </trkpt>
      <trkpt lat="70.854954980313778" lon="25.80038501881063">
        <ele>39.07</ele>
        <time>2017-06-26T08:07:46Z</time>
      </trkpt>
      <trkpt lat="70.858606975525618" lon="25.802410002797842">
        <ele>23.210000000000001</ele>
        <time>2017-06-26T08:08:00Z</time>
      </trkpt>
      <trkpt lat="70.863025998696685" lon="25.804567001760006">
        <ele>16.48</ele>
        <time>2017-06-26T08:08:17Z</time>
      </trkpt>
      <trkpt lat="70.865003960207105" lon="25.806904966011643">
        <ele>18.879999999999999</ele>
        <time>2017-06-26T08:08:26Z</time>
      </trkpt>
      <trkpt lat="70.866555031388998" lon="25.810211040079594">
        <ele>16.960000000000001</ele>
        <time>2017-06-26T08:08:34Z</time>
      </trkpt>
      <trkpt lat="70.868247002363205" lon="25.815001968294382">
        <ele>14.56</ele>
        <time>2017-06-26T08:08:44Z</time>
      </trkpt>
      <trkpt lat="70.870080962777138" lon="25.819030981510878">
        <ele>16.48</ele>
        <time>2017-06-26T08:08:54Z</time>
      </trkpt>
      <trkpt lat="70.872918991371989" lon="25.824196999892592">
        <ele>34.259999999999998</ele>
        <time>2017-06-26T08:09:07Z</time>
      </trkpt>
      <trkpt lat="70.875751990824938" lon="25.830060979351401">
        <ele>55.409999999999997</ele>
        <time>2017-06-26T08:09:21Z</time>
      </trkpt>
      <trkpt lat="70.877314964309335" lon="25.833597974851727">
        <ele>67.430000000000007</ele>
        <time>2017-06-26T08:09:30Z</time>
      </trkpt>
      <trkpt lat="70.877774963155389" lon="25.834132991731167">
        <ele>69.829999999999998</ele>
        <time>2017-06-26T08:09:33Z</time>
      </trkpt>
      <trkpt lat="70.877932040020823" lon="25.834213960915804">
        <ele>70.790000000000006</ele>
        <time>2017-06-26T08:09:34Z</time>
      </trkpt>
      <trkpt lat="70.878091966733336" lon="25.834257965907454">
        <ele>70.790000000000006</ele>
        <time>2017-06-26T08:09:35Z</time>
      </trkpt>
      <trkpt lat="70.878258012235165" lon="25.834240028634667">
        <ele>71.269999999999996</ele>
        <time>2017-06-26T08:09:36Z</time>
      </trkpt>
      <trkpt lat="70.878425985574722" lon="25.834170039743185">
        <ele>71.269999999999996</ele>
        <time>2017-06-26T08:09:37Z</time>
      </trkpt>
      <trkpt lat="70.878597982227802" lon="25.834038024768233">
        <ele>71.269999999999996</ele>
        <time>2017-06-26T08:09:38Z</time>
      </trkpt>
      <trkpt lat="70.878767967224121" lon="25.833853958174586">
        <ele>71.760000000000005</ele>
        <time>2017-06-26T08:09:39Z</time>
      </trkpt>
      <trkpt lat="70.87893501855433" lon="25.833618007600307">
        <ele>71.760000000000005</ele>
        <time>2017-06-26T08:09:40Z</time>
      </trkpt>
      <trkpt lat="70.879098968580365" lon="25.83332497626543">
        <ele>71.760000000000005</ele>
        <time>2017-06-26T08:09:41Z</time>
      </trkpt>
      <trkpt lat="70.879252022132277" lon="25.832976037636399">
        <ele>71.760000000000005</ele>
        <time>2017-06-26T08:09:42Z</time>
      </trkpt>
      <trkpt lat="70.8793889824301" lon="25.832572029903531">
        <ele>71.269999999999996</ele>
        <time>2017-06-26T08:09:43Z</time>
      </trkpt>
      <trkpt lat="70.879511022940278" lon="25.83209996111691">
        <ele>70.790000000000006</ele>
        <time>2017-06-26T08:09:44Z</time>
      </trkpt>
      <trkpt lat="70.879619987681508" lon="25.831576008349657">
        <ele>70.310000000000002</ele>
        <time>2017-06-26T08:09:45Z</time>
      </trkpt>
      <trkpt lat="70.879714032635093" lon="25.831010984256864">
        <ele>69.829999999999998</ele>
        <time>2017-06-26T08:09:46Z</time>
      </trkpt>
      <trkpt lat="70.879790978506207" lon="25.830404972657561">
        <ele>69.349999999999994</ele>
        <time>2017-06-26T08:09:47Z</time>
      </trkpt>
      <trkpt lat="70.879846969619393" lon="25.829761996865273">
        <ele>69.349999999999994</ele>
        <time>2017-06-26T08:09:48Z</time>
      </trkpt>
      <trkpt lat="70.879876976832747" lon="25.829108040779829">
        <ele>70.310000000000002</ele>
        <time>2017-06-26T08:09:49Z</time>
      </trkpt>
      <trkpt lat="70.879878988489509" lon="25.828441008925438">
        <ele>71.269999999999996</ele>
        <time>2017-06-26T08:09:50Z</time>
      </trkpt>
      <trkpt lat="70.879853004589677" lon="25.82777900621295">
        <ele>72.239999999999995</ele>
        <time>2017-06-26T08:09:51Z</time>
      </trkpt>
      <trkpt lat="70.879803970456123" lon="25.827124966308475">
        <ele>73.680000000000007</ele>
        <time>2017-06-26T08:09:52Z</time>
      </trkpt>
      <trkpt lat="70.879742028191686" lon="25.826467992737889">
        <ele>75.599999999999994</ele>
        <time>2017-06-26T08:09:53Z</time>
      </trkpt>
      <trkpt lat="70.87882898747921" lon="25.816273000091314">
        <ele>91.459999999999994</ele>
        <time>2017-06-26T08:10:08Z</time>
      </trkpt>
      <trkpt lat="70.878082998096943" lon="25.809872997924685">
        <ele>87.620000000000005</ele>
        <time>2017-06-26T08:10:18Z</time>
      </trkpt>
      <trkpt lat="70.877125030383468" lon="25.806815028190613">
        <ele>80.890000000000001</ele>
        <time>2017-06-26T08:10:24Z</time>
      </trkpt>
      <trkpt lat="70.874584978446364" lon="25.799841033294797">
        <ele>68.390000000000001</ele>
        <time>2017-06-26T08:10:37Z</time>
      </trkpt>
      <trkpt lat="70.871655000373721" lon="25.791500033810735">
        <ele>60.700000000000003</ele>
        <time>2017-06-26T08:10:52Z</time>
      </trkpt>
      <trkpt lat="70.870442977175117" lon="25.786347007378936">
        <ele>63.579999999999998</ele>
        <time>2017-06-26T08:11:00Z</time>
      </trkpt>
      <trkpt lat="70.869510993361473" lon="25.779683981090784">
        <ele>62.140000000000001</ele>
        <time>2017-06-26T08:11:09Z</time>
      </trkpt>
      <trkpt lat="70.869215028360486" lon="25.774288969114423">
        <ele>62.619999999999997</ele>
        <time>2017-06-26T08:11:16Z</time>
      </trkpt>
      <trkpt lat="70.869231959804893" lon="25.773598970845342">
        <ele>62.140000000000001</ele>
        <time>2017-06-26T08:11:17Z</time>
      </trkpt>
      <trkpt lat="70.869270013645291" lon="25.773000000044703">
        <ele>61.659999999999997</ele>
        <time>2017-06-26T08:11:18Z</time>
      </trkpt>
      <trkpt lat="70.869322987273335" lon="25.772426007315516">
        <ele>61.18</ele>
        <time>2017-06-26T08:11:19Z</time>
      </trkpt>
      <trkpt lat="70.869388030841947" lon="25.771847991272807">
        <ele>60.700000000000003</ele>
        <time>2017-06-26T08:11:20Z</time>
      </trkpt>
      <trkpt lat="70.870181964710355" lon="25.765422005206347">
        <ele>47.240000000000002</ele>
        <time>2017-06-26T08:11:30Z</time>
      </trkpt>
      <trkpt lat="70.870352033525705" lon="25.761714018881321">
        <ele>40.030000000000001</ele>
        <time>2017-06-26T08:11:36Z</time>
      </trkpt>
      <trkpt lat="70.870022960007191" lon="25.758165037259459">
        <ele>34.740000000000002</ele>
        <time>2017-06-26T08:11:42Z</time>
      </trkpt>
      <trkpt lat="70.869232965633273" lon="25.755163980647922">
        <ele>29.940000000000001</ele>
        <time>2017-06-26T08:11:48Z</time>
      </trkpt>
      <trkpt lat="70.867723971605301" lon="25.751579962670803">
        <ele>21.289999999999999</ele>
        <time>2017-06-26T08:11:56Z</time>
      </trkpt>
      <trkpt lat="70.866294018924236" lon="25.746641010046005">
        <ele>17.920000000000002</ele>
        <time>2017-06-26T08:12:04Z</time>
      </trkpt>
      <trkpt lat="70.865133963525295" lon="25.742880972102284">
        <ele>18.399999999999999</ele>
        <time>2017-06-26T08:12:11Z</time>
      </trkpt>
      <trkpt lat="70.863634021952748" lon="25.740279983729124">
        <ele>19.359999999999999</ele>
        <time>2017-06-26T08:12:18Z</time>
      </trkpt>
      <trkpt lat="70.862328037619591" lon="25.737444972619414">
        <ele>19.359999999999999</ele>
        <time>2017-06-26T08:12:25Z</time>
      </trkpt>
      <trkpt lat="70.861932998523116" lon="25.735668009147048">
        <ele>19.359999999999999</ele>
        <time>2017-06-26T08:12:28Z</time>
      </trkpt>
      <trkpt lat="70.86183300241828" lon="25.735000977292657">
        <ele>18.879999999999999</ele>
        <time>2017-06-26T08:12:29Z</time>
      </trkpt>
      <trkpt lat="70.861750021576881" lon="25.734305027872324">
        <ele>18.879999999999999</ele>
        <time>2017-06-26T08:12:30Z</time>
      </trkpt>
      <trkpt lat="70.861685983836651" lon="25.733588039875031">
        <ele>18.399999999999999</ele>
        <time>2017-06-26T08:12:31Z</time>
      </trkpt>
      <trkpt lat="70.861646002158523" lon="25.732870968058705">
        <ele>18.399999999999999</ele>
        <time>2017-06-26T08:12:32Z</time>
      </trkpt>
      <trkpt lat="70.861624963581562" lon="25.732142999768257">
        <ele>17.920000000000002</ele>
        <time>2017-06-26T08:12:33Z</time>
      </trkpt>
      <trkpt lat="70.861626975238323" lon="25.731407990679145">
        <ele>17.440000000000001</ele>
        <time>2017-06-26T08:12:34Z</time>
      </trkpt>
      <trkpt lat="70.861649019643664" lon="25.730674993246794">
        <ele>17.440000000000001</ele>
        <time>2017-06-26T08:12:35Z</time>
      </trkpt>
      <trkpt lat="70.861689001321793" lon="25.729949036613107">
        <ele>17.440000000000001</ele>
        <time>2017-06-26T08:12:36Z</time>
      </trkpt>
      <trkpt lat="70.86174800992012" lon="25.729242023080587">
        <ele>16.960000000000001</ele>
        <time>2017-06-26T08:12:37Z</time>
      </trkpt>
      <trkpt lat="70.861825039610267" lon="25.728554036468267">
        <ele>16.960000000000001</ele>
        <time>2017-06-26T08:12:38Z</time>
      </trkpt>
      <trkpt lat="70.861923024058342" lon="25.727882981300354">
        <ele>16.48</ele>
        <time>2017-06-26T08:12:39Z</time>
      </trkpt>
      <trkpt lat="70.862037017941475" lon="25.727243022993207">
        <ele>16.48</ele>
        <time>2017-06-26T08:12:40Z</time>
      </trkpt>
      <trkpt lat="70.862167021259665" lon="25.726630976423621">
        <ele>16</ele>
        <time>2017-06-26T08:12:41Z</time>
      </trkpt>
      <trkpt lat="70.862314961850643" lon="25.726054972037673">
        <ele>16</ele>
        <time>2017-06-26T08:12:42Z</time>
      </trkpt>
      <trkpt lat="70.862475978210568" lon="25.725520038977265">
        <ele>16</ele>
        <time>2017-06-26T08:12:43Z</time>
      </trkpt>
      <trkpt lat="70.862647974863648" lon="25.725031038746238">
        <ele>16.48</ele>
        <time>2017-06-26T08:12:44Z</time>
      </trkpt>
      <trkpt lat="70.862834975123405" lon="25.7245840318501">
        <ele>16.960000000000001</ele>
        <time>2017-06-26T08:12:45Z</time>
      </trkpt>
      <trkpt lat="70.863032033666968" lon="25.724183041602373">
        <ele>17.440000000000001</ele>
        <time>2017-06-26T08:12:46Z</time>
      </trkpt>
      <trkpt lat="70.863243006169796" lon="25.72383301332593">
        <ele>18.399999999999999</ele>
        <time>2017-06-26T08:12:47Z</time>
      </trkpt>
      <trkpt lat="70.863464036956429" lon="25.723534030839801">
        <ele>18.399999999999999</ele>
        <time>2017-06-26T08:12:48Z</time>
      </trkpt>
      <trkpt lat="70.863685989752412" lon="25.723288021981716">
        <ele>18.879999999999999</ele>
        <time>2017-06-26T08:12:49Z</time>
      </trkpt>
      <trkpt lat="70.8639180008322" lon="25.723106972873211">
        <ele>19.84</ele>
        <time>2017-06-26T08:12:50Z</time>
      </trkpt>
      <trkpt lat="70.864150011911988" lon="25.722971018403769">
        <ele>20.32</ele>
        <time>2017-06-26T08:12:51Z</time>
      </trkpt>
      <trkpt lat="70.864381017163396" lon="25.722896000370383">
        <ele>20.809999999999999</ele>
        <time>2017-06-26T08:12:52Z</time>
      </trkpt>
      <trkpt lat="70.864613028243184" lon="25.722872028127313">
        <ele>21.289999999999999</ele>
        <time>2017-06-26T08:12:53Z</time>
      </trkpt>
      <trkpt lat="70.864845039322972" lon="25.722898012027144">
        <ele>21.77</ele>
        <time>2017-06-26T08:12:54Z</time>
      </trkpt>
      <trkpt lat="70.865081995725632" lon="25.722984010353684">
        <ele>22.25</ele>
        <time>2017-06-26T08:12:55Z</time>
      </trkpt>
      <trkpt lat="70.865317024290562" lon="25.723121976479888">
        <ele>22.73</ele>
        <time>2017-06-26T08:12:56Z</time>
      </trkpt>
      <trkpt lat="70.865550963208079" lon="25.723323980346322">
        <ele>22.25</ele>
        <time>2017-06-26T08:12:57Z</time>
      </trkpt>
      <trkpt lat="70.865783980116248" lon="25.723597984761">
        <ele>22.25</ele>
        <time>2017-06-26T08:12:58Z</time>
      </trkpt>
      <trkpt lat="70.866015991196036" lon="25.723913982510567">
        <ele>22.25</ele>
        <time>2017-06-26T08:12:59Z</time>
      </trkpt>
      <trkpt lat="70.866244984790683" lon="25.724269961938262">
        <ele>22.25</ele>
        <time>2017-06-26T08:13:00Z</time>
      </trkpt>
      <trkpt lat="70.86864598095417" lon="25.727973002940416">
        <ele>22.25</ele>
        <time>2017-06-26T08:13:11Z</time>
      </trkpt>
      <trkpt lat="70.869834031909704" lon="25.729688024148345">
        <ele>22.25</ele>
        <time>2017-06-26T08:13:19Z</time>
      </trkpt>
      <trkpt lat="70.871166000142694" lon="25.730659989640117">
        <ele>19.359999999999999</ele>
        <time>2017-06-26T08:13:26Z</time>
      </trkpt>
      <trkpt lat="70.872956961393356" lon="25.731229037046432">
        <ele>15.039999999999999</ele>
        <time>2017-06-26T08:13:34Z</time>
      </trkpt>
      <trkpt lat="70.874696038663387" lon="25.733419982716441">
        <ele>14.56</ele>
        <time>2017-06-26T08:13:42Z</time>
      </trkpt>
      <trkpt lat="70.875935973599553" lon="25.734020965173841">
        <ele>15.039999999999999</ele>
        <time>2017-06-26T08:13:48Z</time>
      </trkpt>
      <trkpt lat="70.877140033990145" lon="25.732984961941838">
        <ele>15.52</ele>
        <time>2017-06-26T08:13:54Z</time>
      </trkpt>
      <trkpt lat="70.878205038607121" lon="25.730297975242138">
        <ele>15.039999999999999</ele>
        <time>2017-06-26T08:14:00Z</time>
      </trkpt>
      <trkpt lat="70.880325995385647" lon="25.724709006026387">
        <ele>15.039999999999999</ele>
        <time>2017-06-26T08:14:11Z</time>
      </trkpt>
      <trkpt lat="70.881137028336525" lon="25.723458006978035">
        <ele>14.08</ele>
        <time>2017-06-26T08:14:15Z</time>
      </trkpt>
      <trkpt lat="70.881355963647366" lon="25.723291039466858">
        <ele>14.08</ele>
        <time>2017-06-26T08:14:16Z</time>
      </trkpt>
      <trkpt lat="70.88157900609076" lon="25.723209986463189">
        <ele>14.08</ele>
        <time>2017-06-26T08:14:17Z</time>
      </trkpt>
      <trkpt lat="70.881807999685407" lon="25.723164975643158">
        <ele>14.08</ele>
        <time>2017-06-26T08:14:18Z</time>
      </trkpt>
      <trkpt lat="70.882033975794911" lon="25.72319196537137">
        <ele>13.6</ele>
        <time>2017-06-26T08:14:19Z</time>
      </trkpt>
      <trkpt lat="70.88226699270308" lon="25.723272012546659">
        <ele>14.08</ele>
        <time>2017-06-26T08:14:20Z</time>
      </trkpt>
      <trkpt lat="70.882497997954488" lon="25.723377037793398">
        <ele>14.08</ele>
        <time>2017-06-26T08:14:21Z</time>
      </trkpt>
      <trkpt lat="70.883862990885973" lon="25.723724970594049">
        <ele>14.56</ele>
        <time>2017-06-26T08:14:27Z</time>
      </trkpt>
      <trkpt lat="70.884087039157748" lon="25.723611982539296">
        <ele>15.039999999999999</ele>
        <time>2017-06-26T08:14:28Z</time>
      </trkpt>
      <trkpt lat="70.88430798612535" lon="25.723431017249823">
        <ele>15.039999999999999</ele>
        <time>2017-06-26T08:14:29Z</time>
      </trkpt>
      <trkpt lat="70.884521976113319" lon="25.72319095954299">
        <ele>15.039999999999999</ele>
        <time>2017-06-26T08:14:30Z</time>
      </trkpt>
      <trkpt lat="70.884731020778418" lon="25.722885020077229">
        <ele>15.039999999999999</ele>
        <time>2017-06-26T08:14:31Z</time>
      </trkpt>
      <trkpt lat="70.884935958310962" lon="25.722529040649533">
        <ele>15.52</ele>
        <time>2017-06-26T08:14:32Z</time>
      </trkpt>
      <trkpt lat="70.885126981884241" lon="25.722129978239536">
        <ele>15.52</ele>
        <time>2017-06-26T08:14:33Z</time>
      </trkpt>
      <trkpt lat="70.885305013507605" lon="25.721671991050243">
        <ele>15.039999999999999</ele>
        <time>2017-06-26T08:14:34Z</time>
      </trkpt>
      <trkpt lat="70.88546896353364" lon="25.721172010526061">
        <ele>15.039999999999999</ele>
        <time>2017-06-26T08:14:35Z</time>
      </trkpt>
      <trkpt lat="70.88561899960041" lon="25.720631964504719">
        <ele>15.039999999999999</ele>
        <time>2017-06-26T08:14:36Z</time>
      </trkpt>
      <trkpt lat="70.885758977383375" lon="25.720057971775532">
        <ele>14.56</ele>
        <time>2017-06-26T08:14:37Z</time>
      </trkpt>
      <trkpt lat="70.885889986529946" lon="25.719454977661371">
        <ele>14.08</ele>
        <time>2017-06-26T08:14:38Z</time>
      </trkpt>
      <trkpt lat="70.886704958975315" lon="25.714534968137741">
        <ele>13.6</ele>
        <time>2017-06-26T08:14:46Z</time>
      </trkpt>
      <trkpt lat="70.887452960014343" lon="25.70735402405262">
        <ele>14.08</ele>
        <time>2017-06-26T08:14:56Z</time>
      </trkpt>
      <trkpt lat="70.888119991868734" lon="25.69912500679493">
        <ele>13.6</ele>
        <time>2017-06-26T08:15:07Z</time>
      </trkpt>
      <trkpt lat="70.888910992071033" lon="25.69480799138546">
        <ele>14.08</ele>
        <time>2017-06-26T08:15:14Z</time>
      </trkpt>
      <trkpt lat="70.88922799564898" lon="25.690158968791366">
        <ele>13.119999999999999</ele>
        <time>2017-06-26T08:15:21Z</time>
      </trkpt>
      <trkpt lat="70.889566037803888" lon="25.685043996199965">
        <ele>10.710000000000001</ele>
        <time>2017-06-26T08:15:29Z</time>
      </trkpt>
      <trkpt lat="70.890174983069301" lon="25.68200396373868">
        <ele>10.710000000000001</ele>
        <time>2017-06-26T08:15:35Z</time>
      </trkpt>
      <trkpt lat="70.890403976663947" lon="25.681286975741386">
        <ele>10.710000000000001</ele>
        <time>2017-06-26T08:15:39Z</time>
      </trkpt>
      <trkpt lat="70.890478994697332" lon="25.681123025715351">
        <ele>9.75</ele>
        <time>2017-06-26T08:15:48Z</time>
      </trkpt>
      <trkpt lat="70.890485029667616" lon="25.681115984916687">
        <ele>9.27</ele>
        <time>2017-06-26T08:17:09Z</time>
      </trkpt>
      <trkpt lat="70.890483018010855" lon="25.681130988523364">
        <ele>9.75</ele>
        <time>2017-06-26T08:19:04Z</time>
      </trkpt>
      <trkpt lat="70.890568010509014" lon="25.68084298633039">
        <ele>9.75</ele>
        <time>2017-06-26T08:19:08Z</time>
      </trkpt>
      <trkpt lat="70.891239987686276" lon="25.679310020059347">
        <ele>10.23</ele>
        <time>2017-06-26T08:19:16Z</time>
      </trkpt>
      <trkpt lat="70.953315021470189" lon="25.710223987698555">
        <ele>24.649999999999999</ele>
        <time>2017-06-26T08:24:36Z</time>
      </trkpt>
      <trkpt lat="70.954532995820045" lon="25.707478998228908">
        <ele>25.609999999999999</ele>
        <time>2017-06-26T08:24:42Z</time>
      </trkpt>
      <trkpt lat="70.957109006121755" lon="25.700817983597517">
        <ele>23.210000000000001</ele>
        <time>2017-06-26T08:24:55Z</time>
      </trkpt>
      <trkpt lat="70.958916982635856" lon="25.697065992280841">
        <ele>29.460000000000001</ele>
        <time>2017-06-26T08:25:04Z</time>
      </trkpt>
      <trkpt lat="70.96068799495697" lon="25.695071015506983">
        <ele>28.02</ele>
        <time>2017-06-26T08:25:12Z</time>
      </trkpt>
      <trkpt lat="70.962645001709461" lon="25.694485958665609">
        <ele>23.690000000000001</ele>
        <time>2017-06-26T08:25:20Z</time>
      </trkpt>
      <trkpt lat="70.962882963940501" lon="25.694615039974451">
        <ele>23.690000000000001</ele>
        <time>2017-06-26T08:25:21Z</time>
      </trkpt>
      <trkpt lat="70.963113969191909" lon="25.694798016920686">
        <ele>23.690000000000001</ele>
        <time>2017-06-26T08:25:22Z</time>
      </trkpt>
      <trkpt lat="70.963341034948826" lon="25.695032039657235">
        <ele>23.210000000000001</ele>
        <time>2017-06-26T08:25:23Z</time>
      </trkpt>
      <trkpt lat="70.963559970259666" lon="25.6953239813447">
        <ele>23.690000000000001</ele>
        <time>2017-06-26T08:25:24Z</time>
      </trkpt>
      <trkpt lat="70.963771026581526" lon="25.695664035156369">
        <ele>23.210000000000001</ele>
        <time>2017-06-26T08:25:25Z</time>
      </trkpt>
      <trkpt lat="70.96397403627634" lon="25.696057984605432">
        <ele>22.73</ele>
        <time>2017-06-26T08:25:26Z</time>
      </trkpt>
      <trkpt lat="70.964925969019532" lon="25.69787903688848">
        <ele>21.77</ele>
        <time>2017-06-26T08:25:32Z</time>
      </trkpt>
      <trkpt lat="70.965816965326667" lon="25.699030039831996">
        <ele>21.77</ele>
        <time>2017-06-26T08:25:41Z</time>
      </trkpt>
      <trkpt lat="70.967164020985365" lon="25.700669037178159">
        <ele>24.649999999999999</ele>
        <time>2017-06-26T08:25:49Z</time>
      </trkpt>
      <trkpt lat="70.968813998624682" lon="25.703717032447457">
        <ele>32.82</ele>
        <time>2017-06-26T08:25:58Z</time>
      </trkpt>
      <trkpt lat="70.970099028199911" lon="25.704575004056096">
        <ele>37.149999999999999</ele>
        <time>2017-06-26T08:26:04Z</time>
      </trkpt>
      <trkpt lat="70.971453040838242" lon="25.703601026907563">
        <ele>40.990000000000002</ele>
        <time>2017-06-26T08:26:10Z</time>
      </trkpt>
      <trkpt lat="70.972907971590757" lon="25.702528981491923">
        <ele>39.07</ele>
        <time>2017-06-26T08:26:17Z</time>
      </trkpt>
      <trkpt lat="70.974086970090866" lon="25.703480998054147">
        <ele>33.299999999999997</ele>
        <time>2017-06-26T08:26:23Z</time>
      </trkpt>
      <trkpt lat="70.975101012736559" lon="25.706108976155519">
        <ele>25.609999999999999</ele>
        <time>2017-06-26T08:26:29Z</time>
      </trkpt>
      <trkpt lat="70.977245019748807" lon="25.713314982131124">
        <ele>17.920000000000002</ele>
        <time>2017-06-26T08:26:42Z</time>
      </trkpt>
      <trkpt lat="70.97860598936677" lon="25.717064961791039">
        <ele>17.920000000000002</ele>
        <time>2017-06-26T08:26:51Z</time>
      </trkpt>
      <trkpt lat="70.979520035907626" lon="25.718152010813355">
        <ele>17.920000000000002</ele>
        <time>2017-06-26T08:26:55Z</time>
      </trkpt>
      <trkpt lat="70.979762021452188" lon="25.718295006081462">
        <ele>17.920000000000002</ele>
        <time>2017-06-26T08:26:56Z</time>
      </trkpt>
      <trkpt lat="70.980795007199049" lon="25.719437040388584">
        <ele>16.960000000000001</ele>
        <time>2017-06-26T08:27:01Z</time>
      </trkpt>
      <trkpt lat="70.980965998023748" lon="25.719811962917447">
        <ele>16.960000000000001</ele>
        <time>2017-06-26T08:27:02Z</time>
      </trkpt>
      <trkpt lat="70.981123996898532" lon="25.720219993963838">
        <ele>16.960000000000001</ele>
        <time>2017-06-26T08:27:03Z</time>
      </trkpt>
      <trkpt lat="70.981267997995019" lon="25.720693990588188">
        <ele>17.440000000000001</ele>
        <time>2017-06-26T08:27:04Z</time>
      </trkpt>
      <trkpt lat="70.981400012969971" lon="25.721185002475977">
        <ele>17.920000000000002</ele>
        <time>2017-06-26T08:27:05Z</time>
      </trkpt>
      <trkpt lat="70.981515012681484" lon="25.721723036840558">
        <ele>17.920000000000002</ele>
        <time>2017-06-26T08:27:06Z</time>
      </trkpt>
      <trkpt lat="70.981631018221378" lon="25.722273979336023">
        <ele>18.399999999999999</ele>
        <time>2017-06-26T08:27:07Z</time>
      </trkpt>
      <trkpt lat="70.982156982645392" lon="25.724283959716558">
        <ele>19.359999999999999</ele>
        <time>2017-06-26T08:27:11Z</time>
      </trkpt>
      <trkpt lat="70.982317999005318" lon="25.724690984934568">
        <ele>19.359999999999999</ele>
        <time>2017-06-26T08:27:12Z</time>
      </trkpt>
      <trkpt lat="70.982489995658398" lon="25.725031038746238">
        <ele>19.84</ele>
        <time>2017-06-26T08:27:13Z</time>
      </trkpt>
      <trkpt lat="70.982670960947871" lon="25.725323986262083">
        <ele>19.84</ele>
        <time>2017-06-26T08:27:14Z</time>
      </trkpt>
      <trkpt lat="70.98286097869277" lon="25.725558008998632">
        <ele>19.359999999999999</ele>
        <time>2017-06-26T08:27:15Z</time>
      </trkpt>
      <trkpt lat="70.983056025579572" lon="25.725730005651712">
        <ele>19.359999999999999</ele>
        <time>2017-06-26T08:27:16Z</time>
      </trkpt>
      <trkpt lat="70.983256017789245" lon="25.725840982049704">
        <ele>19.359999999999999</ele>
        <time>2017-06-26T08:27:17Z</time>
      </trkpt>
      <trkpt lat="70.983457015827298" lon="25.725896973162889">
        <ele>18.879999999999999</ele>
        <time>2017-06-26T08:27:18Z</time>
      </trkpt>
      <trkpt lat="70.983659019693732" lon="25.725916000083089">
        <ele>18.879999999999999</ele>
        <time>2017-06-26T08:27:19Z</time>
      </trkpt>
      <trkpt lat="70.984682030975819" lon="25.726167960092425">
        <ele>17.920000000000002</ele>
        <time>2017-06-26T08:27:24Z</time>
      </trkpt>
      <trkpt lat="70.984882023185492" lon="25.726357977837324">
        <ele>17.440000000000001</ele>
        <time>2017-06-26T08:27:25Z</time>
      </trkpt>
      <trkpt lat="70.985077992081642" lon="25.726607004180551">
        <ele>17.920000000000002</ele>
        <time>2017-06-26T08:27:26Z</time>
      </trkpt>
      <trkpt lat="70.985264992341399" lon="25.72692702524364">
        <ele>17.920000000000002</ele>
        <time>2017-06-26T08:27:27Z</time>
      </trkpt>
      <trkpt lat="70.98543799482286" lon="25.727300019934773">
        <ele>17.920000000000002</ele>
        <time>2017-06-26T08:27:28Z</time>
      </trkpt>
      <trkpt lat="70.985603034496307" lon="25.727732023224235">
        <ele>18.399999999999999</ele>
        <time>2017-06-26T08:27:29Z</time>
      </trkpt>
      <trkpt lat="70.98576002754271" lon="25.72819696739316">
        <ele>18.879999999999999</ele>
        <time>2017-06-26T08:27:30Z</time>
      </trkpt>
      <trkpt lat="70.985907968133688" lon="25.72868999093771">
        <ele>18.879999999999999</ele>
        <time>2017-06-26T08:27:31Z</time>
      </trkpt>
      <trkpt lat="70.98707003518939" lon="25.731706973165274">
        <ele>19.84</ele>
        <time>2017-06-26T08:27:38Z</time>
      </trkpt>
      <trkpt lat="70.988584980368614" lon="25.733188977465034">
        <ele>19.84</ele>
        <time>2017-06-26T08:27:45Z</time>
      </trkpt>
      <trkpt lat="70.990382982417941" lon="25.735214967280626">
        <ele>19.84</ele>
        <time>2017-06-26T08:27:54Z</time>
      </trkpt>
      <trkpt lat="70.990687999874353" lon="25.73601602576673">
        <ele>19.84</ele>
        <time>2017-06-26T08:27:56Z</time>
      </trkpt>
      <trkpt lat="70.990824038162827" lon="25.736481975764036">
        <ele>19.84</ele>
        <time>2017-06-26T08:27:57Z</time>
      </trkpt>
      <trkpt lat="70.990945994853973" lon="25.73698396794498">
        <ele>19.84</ele>
        <time>2017-06-26T08:27:58Z</time>
      </trkpt>
      <trkpt lat="70.991055965423584" lon="25.737517978996038">
        <ele>19.359999999999999</ele>
        <time>2017-06-26T08:27:59Z</time>
      </trkpt>
      <trkpt lat="70.99115202203393" lon="25.738073028624058">
        <ele>19.359999999999999</ele>
        <time>2017-06-26T08:28:00Z</time>
      </trkpt>
      <trkpt lat="70.991228967905045" lon="25.738655989989638">
        <ele>19.359999999999999</ele>
        <time>2017-06-26T08:28:01Z</time>
      </trkpt>
      <trkpt lat="70.991289988160133" lon="25.739266024902463">
        <ele>18.879999999999999</ele>
        <time>2017-06-26T08:28:02Z</time>
      </trkpt>
      <trkpt lat="70.991332987323403" lon="25.739887962117791">
        <ele>18.879999999999999</ele>
        <time>2017-06-26T08:28:03Z</time>
      </trkpt>
      <trkpt lat="70.991356959566474" lon="25.740515012294054">
        <ele>18.399999999999999</ele>
        <time>2017-06-26T08:28:04Z</time>
      </trkpt>
      <trkpt lat="70.991362994536757" lon="25.74115002527833">
        <ele>17.920000000000002</ele>
        <time>2017-06-26T08:28:05Z</time>
      </trkpt>
      <trkpt lat="70.991352014243603" lon="25.7417749799788">
        <ele>17.920000000000002</ele>
        <time>2017-06-26T08:28:06Z</time>
      </trkpt>
      <trkpt lat="70.991322007030249" lon="25.742393983528018">
        <ele>17.440000000000001</ele>
        <time>2017-06-26T08:28:07Z</time>
      </trkpt>
      <trkpt lat="70.991273978725076" lon="25.742995971813798">
        <ele>17.440000000000001</ele>
        <time>2017-06-26T08:28:08Z</time>
      </trkpt>
      <trkpt lat="70.991211030632257" lon="25.743588991463184">
        <ele>16.960000000000001</ele>
        <time>2017-06-26T08:28:09Z</time>
      </trkpt>
      <trkpt lat="70.991127965971828" lon="25.744163990020752">
        <ele>16.960000000000001</ele>
        <time>2017-06-26T08:28:10Z</time>
      </trkpt>
      <trkpt lat="70.991029981523752" lon="25.74471996165812">
        <ele>16.48</ele>
        <time>2017-06-26T08:28:11Z</time>
      </trkpt>
      <trkpt lat="70.990915987640619" lon="25.74525598436594">
        <ele>16.48</ele>
        <time>2017-06-26T08:28:12Z</time>
      </trkpt>
      <trkpt lat="70.99078799597919" lon="25.745768034830689">
        <ele>16</ele>
        <time>2017-06-26T08:28:13Z</time>
      </trkpt>
      <trkpt lat="70.990645000711083" lon="25.746237002313137">
        <ele>16.48</ele>
        <time>2017-06-26T08:28:14Z</time>
      </trkpt>
      <trkpt lat="70.990485996007919" lon="25.746662970632315">
        <ele>16.48</ele>
        <time>2017-06-26T08:28:15Z</time>
      </trkpt>
      <trkpt lat="70.990312993526459" lon="25.747053986415267">
        <ele>16.960000000000001</ele>
        <time>2017-06-26T08:28:16Z</time>
      </trkpt>
      <trkpt lat="70.990128004923463" lon="25.747405020520091">
        <ele>17.440000000000001</ele>
        <time>2017-06-26T08:28:17Z</time>
      </trkpt>
      <trkpt lat="70.989933041855693" lon="25.7477240357548">
        <ele>17.920000000000002</ele>
        <time>2017-06-26T08:28:18Z</time>
      </trkpt>
      <trkpt lat="70.989731959998608" lon="25.748022012412548">
        <ele>18.879999999999999</ele>
        <time>2017-06-26T08:28:19Z</time>
      </trkpt>
      <trkpt lat="70.988980019465089" lon="25.749447019770741">
        <ele>20.809999999999999</ele>
        <time>2017-06-26T08:28:23Z</time>
      </trkpt>
      <trkpt lat="70.988822020590305" lon="25.749908024445176">
        <ele>20.809999999999999</ele>
        <time>2017-06-26T08:28:24Z</time>
      </trkpt>
      <trkpt lat="70.988673996180296" lon="25.7504110224545">
        <ele>21.289999999999999</ele>
        <time>2017-06-26T08:28:25Z</time>
      </trkpt>
      <trkpt lat="70.988536030054092" lon="25.750945033505559">
        <ele>20.809999999999999</ele>
        <time>2017-06-26T08:28:26Z</time>
      </trkpt>
      <trkpt lat="70.988404015079141" lon="25.751509973779321">
        <ele>20.809999999999999</ele>
        <time>2017-06-26T08:28:27Z</time>
      </trkpt>
      <trkpt lat="70.987233985215425" lon="25.755643006414175">
        <ele>18.399999999999999</ele>
        <time>2017-06-26T08:28:35Z</time>
      </trkpt>
      <trkpt lat="70.985949961468577" lon="25.757461963221431">
        <ele>17.440000000000001</ele>
        <time>2017-06-26T08:28:41Z</time>
      </trkpt>
      <trkpt lat="70.984481032937765" lon="25.757849961519241">
        <ele>16.48</ele>
        <time>2017-06-26T08:28:47Z</time>
      </trkpt>
      <trkpt lat="70.983362970873713" lon="25.758565021678805">
        <ele>18.399999999999999</ele>
        <time>2017-06-26T08:28:52Z</time>
      </trkpt>
      <trkpt lat="70.982254967093468" lon="25.760904997587204">
        <ele>20.809999999999999</ele>
        <time>2017-06-26T08:28:58Z</time>
      </trkpt>
      <trkpt lat="70.981361037120223" lon="25.765008023008704">
        <ele>23.210000000000001</ele>
        <time>2017-06-26T08:29:05Z</time>
      </trkpt>
      <trkpt lat="70.980124035850167" lon="25.770377973094583">
        <ele>27.050000000000001</ele>
        <time>2017-06-26T08:29:15Z</time>
      </trkpt>
      <trkpt lat="70.978682013228536" lon="25.775156999006867">
        <ele>26.57</ele>
        <time>2017-06-26T08:29:27Z</time>
      </trkpt>
      <trkpt lat="70.977251976728439" lon="25.779899982735515">
        <ele>22.25</ele>
        <time>2017-06-26T08:29:38Z</time>
      </trkpt>
      <trkpt lat="70.976560972630978" lon="25.784456972032785">
        <ele>16.960000000000001</ele>
        <time>2017-06-26T08:29:46Z</time>
      </trkpt>
      <trkpt lat="70.976605983451009" lon="25.788178034126759">
        <ele>15.52</ele>
        <time>2017-06-26T08:29:52Z</time>
      </trkpt>
      <trkpt lat="70.976613024249673" lon="25.793025959283113">
        <ele>17.920000000000002</ele>
        <time>2017-06-26T08:30:00Z</time>
      </trkpt>
      <trkpt lat="70.976113965734839" lon="25.800538994371891">
        <ele>17.440000000000001</ele>
        <time>2017-06-26T08:30:11Z</time>
      </trkpt>
      <trkpt lat="70.975355990231037" lon="25.80941098742187">
        <ele>16.960000000000001</ele>
        <time>2017-06-26T08:30:23Z</time>
      </trkpt>
      <trkpt lat="70.975394966080785" lon="25.814556973055005">
        <ele>16.960000000000001</ele>
        <time>2017-06-26T08:30:30Z</time>
      </trkpt>
      <trkpt lat="70.975881032645702" lon="25.818308964371681">
        <ele>16.48</ele>
        <time>2017-06-26T08:30:36Z</time>
      </trkpt>
      <trkpt lat="70.992843993008137" lon="25.93799902126193">
        <ele>11.19</ele>
        <time>2017-06-26T08:33:50Z</time>
      </trkpt>
      <trkpt lat="70.992710972204804" lon="25.939683029428124">
        <ele>15.52</ele>
        <time>2017-06-26T08:33:54Z</time>
      </trkpt>
      <trkpt lat="70.992704015225172" lon="25.940068010240793">
        <ele>16.48</ele>
        <time>2017-06-26T08:33:55Z</time>
      </trkpt>
      <trkpt lat="70.992708960548043" lon="25.940418038517237">
        <ele>16.960000000000001</ele>
        <time>2017-06-26T08:33:56Z</time>
      </trkpt>
      <trkpt lat="70.992728993296623" lon="25.940764965489507">
        <ele>16.48</ele>
        <time>2017-06-26T08:33:57Z</time>
      </trkpt>
      <trkpt lat="70.992755983024836" lon="25.94111499376595">
        <ele>16.960000000000001</ele>
        <time>2017-06-26T08:33:58Z</time>
      </trkpt>
      <trkpt lat="70.992797976359725" lon="25.941465022042394">
        <ele>16.960000000000001</ele>
        <time>2017-06-26T08:33:59Z</time>
      </trkpt>
      <trkpt lat="70.99285296164453" lon="25.941834999248385">
        <ele>16.960000000000001</ele>
        <time>2017-06-26T08:34:00Z</time>
      </trkpt>
      <trkpt lat="70.992922028526664" lon="25.942199025303125">
        <ele>16.960000000000001</ele>
        <time>2017-06-26T08:34:01Z</time>
      </trkpt>
      <trkpt lat="70.993006015196443" lon="25.942555004730821">
        <ele>16.960000000000001</ele>
        <time>2017-06-26T08:34:02Z</time>
      </trkpt>
      <trkpt lat="70.993103999644518" lon="25.942908972501755">
        <ele>16.960000000000001</ele>
        <time>2017-06-26T08:34:03Z</time>
      </trkpt>
      <trkpt lat="70.993217993527651" lon="25.943249026313424">
        <ele>17.440000000000001</ele>
        <time>2017-06-26T08:34:04Z</time>
      </trkpt>
      <trkpt lat="70.993338022381067" lon="25.943583967164159">
        <ele>16.960000000000001</ele>
        <time>2017-06-26T08:34:05Z</time>
      </trkpt>
      <trkpt lat="70.993552012369037" lon="25.944303972646594">
        <ele>16.960000000000001</ele>
        <time>2017-06-26T08:34:07Z</time>
      </trkpt>
      <trkpt lat="70.993634993210435" lon="25.944712003692985">
        <ele>16.960000000000001</ele>
        <time>2017-06-26T08:34:08Z</time>
      </trkpt>
      <trkpt lat="70.993697019293904" lon="25.94515398144722">
        <ele>17.440000000000001</ele>
        <time>2017-06-26T08:34:09Z</time>
      </trkpt>
      <trkpt lat="70.993742030113935" lon="25.945636024698615">
        <ele>17.440000000000001</ele>
        <time>2017-06-26T08:34:10Z</time>
      </trkpt>
      <trkpt lat="70.993764996528625" lon="25.946145979687572">
        <ele>17.440000000000001</ele>
        <time>2017-06-26T08:34:11Z</time>
      </trkpt>
      <trkpt lat="70.993770025670528" lon="25.946682002395391">
        <ele>18.399999999999999</ele>
        <time>2017-06-26T08:34:12Z</time>
      </trkpt>
      <trkpt lat="70.993762984871864" lon="25.947227999567986">
        <ele>18.879999999999999</ele>
        <time>2017-06-26T08:34:13Z</time>
      </trkpt>
      <trkpt lat="70.993907991796732" lon="25.951850032433867">
        <ele>28.5</ele>
        <time>2017-06-26T08:34:21Z</time>
      </trkpt>
      <trkpt lat="70.993892988190055" lon="25.952411033213139">
        <ele>28.02</ele>
        <time>2017-06-26T08:34:22Z</time>
      </trkpt>
      <trkpt lat="70.993863986805081" lon="25.952949989587069">
        <ele>28.02</ele>
        <time>2017-06-26T08:34:23Z</time>
      </trkpt>
      <trkpt lat="70.993843032047153" lon="25.953466985374689">
        <ele>28.98</ele>
        <time>2017-06-26T08:34:24Z</time>
      </trkpt>
      <trkpt lat="70.993842026218772" lon="25.953950034454465">
        <ele>29.460000000000001</ele>
        <time>2017-06-26T08:34:25Z</time>
      </trkpt>
      <trkpt lat="70.993868010118604" lon="25.954397041350603">
        <ele>29.940000000000001</ele>
        <time>2017-06-26T08:34:26Z</time>
      </trkpt>
      <trkpt lat="70.993918972089887" lon="25.954815968871117">
        <ele>29.940000000000001</ele>
        <time>2017-06-26T08:34:27Z</time>
      </trkpt>
      <trkpt lat="70.99398703314364" lon="25.955198016017675">
        <ele>29.940000000000001</ele>
        <time>2017-06-26T08:34:28Z</time>
      </trkpt>
      <trkpt lat="70.994069008156657" lon="25.955524994060397">
        <ele>29.940000000000001</ele>
        <time>2017-06-26T08:34:29Z</time>
      </trkpt>
      <trkpt lat="70.994165986776352" lon="25.955803021788597">
        <ele>29.460000000000001</ele>
        <time>2017-06-26T08:34:30Z</time>
      </trkpt>
      <trkpt lat="70.994276041164994" lon="25.956044001504779">
        <ele>29.460000000000001</ele>
        <time>2017-06-26T08:34:31Z</time>
      </trkpt>
      <trkpt lat="70.99439699202776" lon="25.956224966794252">
        <ele>28.5</ele>
        <time>2017-06-26T08:34:32Z</time>
      </trkpt>
      <trkpt lat="70.994529007002711" lon="25.956349018961191">
        <ele>28.02</ele>
        <time>2017-06-26T08:34:33Z</time>
      </trkpt>
      <trkpt lat="70.994665967300534" lon="25.956409033387899">
        <ele>27.530000000000001</ele>
        <time>2017-06-26T08:34:34Z</time>
      </trkpt>
      <trkpt lat="70.994807034730911" lon="25.956391012296081">
        <ele>26.09</ele>
        <time>2017-06-26T08:34:35Z</time>
      </trkpt>
      <trkpt lat="70.994947012513876" lon="25.956330997869372">
        <ele>25.129999999999999</ele>
        <time>2017-06-26T08:34:36Z</time>
      </trkpt>
      <trkpt lat="70.995089001953602" lon="25.956235025078058">
        <ele>24.649999999999999</ele>
        <time>2017-06-26T08:34:37Z</time>
      </trkpt>
      <trkpt lat="70.995352026075125" lon="25.956106027588248">
        <ele>22.73</ele>
        <time>2017-06-26T08:34:39Z</time>
      </trkpt>
      <trkpt lat="70.995477000251412" lon="25.956109967082739">
        <ele>21.77</ele>
        <time>2017-06-26T08:34:40Z</time>
      </trkpt>
      <trkpt lat="70.99559904076159" lon="25.956182973459363">
        <ele>21.289999999999999</ele>
        <time>2017-06-26T08:34:41Z</time>
      </trkpt>
      <trkpt lat="70.995711022987962" lon="25.956330997869372">
        <ele>20.809999999999999</ele>
        <time>2017-06-26T08:34:42Z</time>
      </trkpt>
      <trkpt lat="70.995813030749559" lon="25.956555968150496">
        <ele>19.84</ele>
        <time>2017-06-26T08:34:43Z</time>
      </trkpt>
      <trkpt lat="70.995896011590958" lon="25.956841036677361">
        <ele>18.879999999999999</ele>
        <time>2017-06-26T08:34:44Z</time>
      </trkpt>
      <trkpt lat="70.995958037674427" lon="25.957172960042953">
        <ele>17.920000000000002</ele>
        <time>2017-06-26T08:34:45Z</time>
      </trkpt>
      <trkpt lat="70.996000031009316" lon="25.95757202245295">
        <ele>17.440000000000001</ele>
        <time>2017-06-26T08:34:46Z</time>
      </trkpt>
      <trkpt lat="70.996043030172586" lon="25.957968989387155">
        <ele>17.440000000000001</ele>
        <time>2017-06-26T08:34:47Z</time>
      </trkpt>
      <trkpt lat="70.996147971600294" lon="25.95871003344655">
        <ele>16.48</ele>
        <time>2017-06-26T08:34:49Z</time>
      </trkpt>
      <trkpt lat="70.99622399546206" lon="25.959028964862227">
        <ele>16</ele>
        <time>2017-06-26T08:34:50Z</time>
      </trkpt>
      <trkpt lat="70.996321979910135" lon="25.959286959841847">
        <ele>16</ele>
        <time>2017-06-26T08:34:51Z</time>
      </trkpt>
      <trkpt lat="70.996436979621649" lon="25.959481000900269">
        <ele>15.039999999999999</ele>
        <time>2017-06-26T08:34:52Z</time>
      </trkpt>
      <trkpt lat="70.996560025960207" lon="25.959638999775052">
        <ele>15.039999999999999</ele>
        <time>2017-06-26T08:34:53Z</time>
      </trkpt>
      <trkpt lat="70.996692962944508" lon="25.959757016971707">
        <ele>14.56</ele>
        <time>2017-06-26T08:34:54Z</time>
      </trkpt>
      <trkpt lat="70.997146004810929" lon="25.960094975307584">
        <ele>14.08</ele>
        <time>2017-06-26T08:34:57Z</time>
      </trkpt>
      <trkpt lat="70.9972960408777" lon="25.960274012759328">
        <ele>14.08</ele>
        <time>2017-06-26T08:34:58Z</time>
      </trkpt>
      <trkpt lat="70.997883025556803" lon="25.96098898909986">
        <ele>16.48</ele>
        <time>2017-06-26T08:35:02Z</time>
      </trkpt>
      <trkpt lat="70.99803096614778" lon="25.961093008518219">
        <ele>16.960000000000001</ele>
        <time>2017-06-26T08:35:03Z</time>
      </trkpt>
      <trkpt lat="70.998181002214551" lon="25.961150005459785">
        <ele>17.920000000000002</ele>
        <time>2017-06-26T08:35:04Z</time>
      </trkpt>
      <trkpt lat="70.998333971947432" lon="25.961162997409701">
        <ele>18.399999999999999</ele>
        <time>2017-06-26T08:35:05Z</time>
      </trkpt>
      <trkpt lat="70.998484008014202" lon="25.961146987974644">
        <ele>19.359999999999999</ele>
        <time>2017-06-26T08:35:06Z</time>
      </trkpt>
      <trkpt lat="70.99862901493907" lon="25.961107006296515">
        <ele>19.84</ele>
        <time>2017-06-26T08:35:07Z</time>
      </trkpt>
      <trkpt lat="71.000212021172047" lon="25.961456028744578">
        <ele>22.25</ele>
        <time>2017-06-26T08:35:18Z</time>
      </trkpt>
      <trkpt lat="71.001024981960654" lon="25.962403016164899">
        <ele>22.25</ele>
        <time>2017-06-26T08:35:24Z</time>
      </trkpt>
      <trkpt lat="71.001136964187026" lon="25.962661011144519">
        <ele>22.25</ele>
        <time>2017-06-26T08:35:25Z</time>
      </trkpt>
      <trkpt lat="71.001241989433765" lon="25.96294398419559">
        <ele>22.25</ele>
        <time>2017-06-26T08:35:26Z</time>
      </trkpt>
      <trkpt lat="71.00133896805346" lon="25.963250007480383">
        <ele>22.25</ele>
        <time>2017-06-26T08:35:27Z</time>
      </trkpt>
      <trkpt lat="71.001427983865142" lon="25.963582014665008">
        <ele>22.25</ele>
        <time>2017-06-26T08:35:28Z</time>
      </trkpt>
      <trkpt lat="71.001755967736244" lon="25.965026970952749">
        <ele>22.25</ele>
        <time>2017-06-26T08:35:33Z</time>
      </trkpt>
      <trkpt lat="71.001776000484824" lon="25.965241966769099">
        <ele>22.25</ele>
        <time>2017-06-26T08:35:34Z</time>
      </trkpt>
      <trkpt lat="71.001781029626727" lon="25.965416980907321">
        <ele>22.25</ele>
        <time>2017-06-26T08:35:35Z</time>
      </trkpt>
      <trkpt lat="71.001787986606359" lon="25.965556958690286">
        <ele>22.25</ele>
        <time>2017-06-26T08:35:36Z</time>
      </trkpt>
      <trkpt lat="71.00178899243474" lon="25.965675981715322">
        <ele>22.73</ele>
        <time>2017-06-26T08:35:37Z</time>
      </trkpt>
      <trkpt lat="71.001800978556275" lon="25.965803973376751">
        <ele>22.73</ele>
        <time>2017-06-26T08:35:38Z</time>
      </trkpt>
      <trkpt lat="71.001835009083152" lon="25.965934982523322">
        <ele>22.25</ele>
        <time>2017-06-26T08:35:39Z</time>
      </trkpt>
      <trkpt lat="71.001896029338241" lon="25.966064985841513">
        <ele>22.25</ele>
        <time>2017-06-26T08:35:40Z</time>
      </trkpt>
      <trkpt lat="71.001980016008019" lon="25.966178979724646">
        <ele>22.25</ele>
        <time>2017-06-26T08:35:41Z</time>
      </trkpt>
      <trkpt lat="71.002073977142572" lon="25.966288028284907">
        <ele>22.73</ele>
        <time>2017-06-26T08:35:42Z</time>
      </trkpt>
      <trkpt lat="71.002558032050729" lon="25.966694969683886">
        <ele>23.210000000000001</ele>
        <time>2017-06-26T08:35:46Z</time>
      </trkpt>
      <trkpt lat="71.002701027318835" lon="25.966731011867523">
        <ele>23.690000000000001</ele>
        <time>2017-06-26T08:35:47Z</time>
      </trkpt>
      <trkpt lat="71.004188982769847" lon="25.966588016599417">
        <ele>26.09</ele>
        <time>2017-06-26T08:35:56Z</time>
      </trkpt>
      <trkpt lat="71.004852997139096" lon="25.966023998335004">
        <ele>23.210000000000001</ele>
        <time>2017-06-26T08:36:00Z</time>
      </trkpt>
      <trkpt lat="71.005015019327402" lon="25.9657789953053">
        <ele>22.73</ele>
        <time>2017-06-26T08:36:01Z</time>
      </trkpt>
      <trkpt lat="71.005162037909031" lon="25.965473977848887">
        <ele>22.25</ele>
        <time>2017-06-26T08:36:02Z</time>
      </trkpt>
      <trkpt lat="71.00529296323657" lon="25.965110035613179">
        <ele>21.77</ele>
        <time>2017-06-26T08:36:03Z</time>
      </trkpt>
      <trkpt lat="71.00541902706027" lon="25.964709967374802">
        <ele>21.77</ele>
        <time>2017-06-26T08:36:04Z</time>
      </trkpt>
      <trkpt lat="71.006830036640167" lon="25.960210980847478">
        <ele>22.73</ele>
        <time>2017-06-26T08:36:15Z</time>
      </trkpt>
      <trkpt lat="71.008611023426056" lon="25.955547038465738">
        <ele>28.5</ele>
        <time>2017-06-26T08:36:27Z</time>
      </trkpt>
      <trkpt lat="71.00872702896595" lon="25.95507999882102">
        <ele>28.5</ele>
        <time>2017-06-26T08:36:28Z</time>
      </trkpt>
      <trkpt lat="71.008829036727548" lon="25.954599967226386">
        <ele>28.02</ele>
        <time>2017-06-26T08:36:29Z</time>
      </trkpt>
      <trkpt lat="71.008917968720198" lon="25.954088000580668">
        <ele>27.530000000000001</ele>
        <time>2017-06-26T08:36:30Z</time>
      </trkpt>
      <trkpt lat="71.008991980925202" lon="25.953543009236455">
        <ele>26.57</ele>
        <time>2017-06-26T08:36:31Z</time>
      </trkpt>
      <trkpt lat="71.009051995351911" lon="25.952968010678887">
        <ele>26.09</ele>
        <time>2017-06-26T08:36:32Z</time>
      </trkpt>
      <trkpt lat="71.009107986465096" lon="25.952364010736346">
        <ele>23.690000000000001</ele>
        <time>2017-06-26T08:36:33Z</time>
      </trkpt>
      <trkpt lat="71.009585000574589" lon="25.946539007127285">
        <ele>19.359999999999999</ele>
        <time>2017-06-26T08:36:42Z</time>
      </trkpt>
      <trkpt lat="71.009513000026345" lon="25.941254971548915">
        <ele>16.48</ele>
        <time>2017-06-26T08:36:50Z</time>
      </trkpt>
      <trkpt lat="71.009504031389952" lon="25.939381029456854">
        <ele>15.52</ele>
        <time>2017-06-26T08:36:53Z</time>
      </trkpt>
      <trkpt lat="71.009543007239699" lon="25.938823968172073">
        <ele>15.039999999999999</ele>
        <time>2017-06-26T08:36:54Z</time>
      </trkpt>
      <trkpt lat="71.009608972817659" lon="25.938309989869595">
        <ele>14.56</ele>
        <time>2017-06-26T08:36:55Z</time>
      </trkpt>
      <trkpt lat="71.009697988629341" lon="25.937834987416863">
        <ele>14.56</ele>
        <time>2017-06-26T08:36:56Z</time>
      </trkpt>
      <trkpt lat="71.0098020080477" lon="25.937369037419558">
        <ele>14.56</ele>
        <time>2017-06-26T08:36:57Z</time>
      </trkpt>
      <trkpt lat="71.010395027697086" lon="25.933410013094544">
        <ele>15.52</ele>
        <time>2017-06-26T08:37:04Z</time>
      </trkpt>
      <trkpt lat="71.010860977694392" lon="25.929805962368846">
        <ele>15.039999999999999</ele>
        <time>2017-06-26T08:37:10Z</time>
      </trkpt>
      <trkpt lat="71.010900037363172" lon="25.929238004609942">
        <ele>14.56</ele>
        <time>2017-06-26T08:37:11Z</time>
      </trkpt>
      <trkpt lat="71.010909005999565" lon="25.928670968860388">
        <ele>14.56</ele>
        <time>2017-06-26T08:37:12Z</time>
      </trkpt>
      <trkpt lat="71.010926021263003" lon="25.926971035078168">
        <ele>13.6</ele>
        <time>2017-06-26T08:37:15Z</time>
      </trkpt>
      <trkpt lat="71.010970026254654" lon="25.926446998491883">
        <ele>13.119999999999999</ele>
        <time>2017-06-26T08:37:16Z</time>
      </trkpt>
      <trkpt lat="71.011042026802897" lon="25.925959004089236">
        <ele>13.6</ele>
        <time>2017-06-26T08:37:17Z</time>
      </trkpt>
      <trkpt lat="71.011137999594212" lon="25.925504034385085">
        <ele>13.6</ele>
        <time>2017-06-26T08:37:18Z</time>
      </trkpt>
      <trkpt lat="71.011245958507061" lon="25.925063984468579">
        <ele>13.6</ele>
        <time>2017-06-26T08:37:19Z</time>
      </trkpt>
      <trkpt lat="71.011344026774168" lon="25.924631981179118">
        <ele>13.6</ele>
        <time>2017-06-26T08:37:20Z</time>
      </trkpt>
      <trkpt lat="71.011416027322412" lon="25.924186985939741">
        <ele>14.08</ele>
        <time>2017-06-26T08:37:21Z</time>
      </trkpt>
      <trkpt lat="71.011459026485682" lon="25.923720030114055">
        <ele>13.6</ele>
        <time>2017-06-26T08:37:22Z</time>
      </trkpt>
      <trkpt lat="71.011471012607217" lon="25.923237986862659">
        <ele>14.08</ele>
        <time>2017-06-26T08:37:23Z</time>
      </trkpt>
      <trkpt lat="71.011447962373495" lon="25.922741023823619">
        <ele>14.08</ele>
        <time>2017-06-26T08:37:24Z</time>
      </trkpt>
      <trkpt lat="71.011399012058973" lon="25.922243976965547">
        <ele>14.56</ele>
        <time>2017-06-26T08:37:25Z</time>
      </trkpt>
      <trkpt lat="71.011329023167491" lon="25.921739973127842">
        <ele>15.039999999999999</ele>
        <time>2017-06-26T08:37:26Z</time>
      </trkpt>
      <trkpt lat="71.011256016790867" lon="25.92121702618897">
        <ele>15.039999999999999</ele>
        <time>2017-06-26T08:37:27Z</time>
      </trkpt>
      <trkpt lat="71.010992992669344" lon="25.917538963258266">
        <ele>16.960000000000001</ele>
        <time>2017-06-26T08:37:33Z</time>
      </trkpt>
      <trkpt lat="71.010522013530135" lon="25.913907000795007">
        <ele>17.440000000000001</ele>
        <time>2017-06-26T08:37:39Z</time>
      </trkpt>
      <trkpt lat="71.009765965864062" lon="25.910574020817876">
        <ele>15.52</ele>
        <time>2017-06-26T08:37:46Z</time>
      </trkpt>
      <trkpt lat="71.009690025821328" lon="25.91011100448668">
        <ele>15.039999999999999</ele>
        <time>2017-06-26T08:37:47Z</time>
      </trkpt>
      <trkpt lat="71.009636968374252" lon="25.909648993983865">
        <ele>13.6</ele>
        <time>2017-06-26T08:37:48Z</time>
      </trkpt>
      <trkpt lat="71.009608972817659" lon="25.909176003187895">
        <ele>12.630000000000001</ele>
        <time>2017-06-26T08:37:49Z</time>
      </trkpt>
      <trkpt lat="71.009605033323169" lon="25.908725978806615">
        <ele>11.19</ele>
        <time>2017-06-26T08:37:50Z</time>
      </trkpt>
      <trkpt lat="71.009623976424336" lon="25.908295987173915">
        <ele>10.710000000000001</ele>
        <time>2017-06-26T08:37:51Z</time>
      </trkpt>
      <trkpt lat="71.009675022214651" lon="25.907888039946556">
        <ele>11.19</ele>
        <time>2017-06-26T08:37:52Z</time>
      </trkpt>
      <trkpt lat="71.009753979742527" lon="25.907500963658094">
        <ele>11.67</ele>
        <time>2017-06-26T08:37:53Z</time>
      </trkpt>
      <trkpt lat="71.009854981675744" lon="25.907131992280483">
        <ele>10.710000000000001</ele>
        <time>2017-06-26T08:37:54Z</time>
      </trkpt>
      <trkpt lat="71.009964030236006" lon="25.906761009246111">
        <ele>10.710000000000001</ele>
        <time>2017-06-26T08:37:55Z</time>
      </trkpt>
      <trkpt lat="71.01006000302732" lon="25.906376028433442">
        <ele>11.19</ele>
        <time>2017-06-26T08:37:56Z</time>
      </trkpt>
      <trkpt lat="71.010134015232325" lon="25.905979983508587">
        <ele>11.67</ele>
        <time>2017-06-26T08:37:57Z</time>
      </trkpt>
      <trkpt lat="71.010181037709117" lon="25.905575975775719">
        <ele>11.67</ele>
        <time>2017-06-26T08:37:58Z</time>
      </trkpt>
      <trkpt lat="71.010205009952188" lon="25.905146989971399">
        <ele>12.15</ele>
        <time>2017-06-26T08:37:59Z</time>
      </trkpt>
      <trkpt lat="71.010214984416962" lon="25.904689002782106">
        <ele>12.630000000000001</ele>
        <time>2017-06-26T08:38:00Z</time>
      </trkpt>
      <trkpt lat="71.010214984416962" lon="25.904211988672614">
        <ele>12.630000000000001</ele>
        <time>2017-06-26T08:38:01Z</time>
      </trkpt>
      <trkpt lat="71.010048016905785" lon="25.899745021015406">
        <ele>14.08</ele>
        <time>2017-06-26T08:38:09Z</time>
      </trkpt>
      <trkpt lat="71.009598998352885" lon="25.896789981052279">
        <ele>12.15</ele>
        <time>2017-06-26T08:38:15Z</time>
      </trkpt>
      <trkpt lat="71.009560022503138" lon="25.896369963884354">
        <ele>11.67</ele>
        <time>2017-06-26T08:38:16Z</time>
      </trkpt>
      <trkpt lat="71.009547030553222" lon="25.895966961979866">
        <ele>11.19</ele>
        <time>2017-06-26T08:38:17Z</time>
      </trkpt>
      <trkpt lat="71.009551975876093" lon="25.895576030015945">
        <ele>11.19</ele>
        <time>2017-06-26T08:38:18Z</time>
      </trkpt>
      <trkpt lat="71.009581983089447" lon="25.895181996747851">
        <ele>11.19</ele>
        <time>2017-06-26T08:38:19Z</time>
      </trkpt>
      <trkpt lat="71.009636968374252" lon="25.894790980964899">
        <ele>11.19</ele>
        <time>2017-06-26T08:38:20Z</time>
      </trkpt>
      <trkpt lat="71.009715003892779" lon="25.894439024850726">
        <ele>11.19</ele>
        <time>2017-06-26T08:38:21Z</time>
      </trkpt>
      <trkpt lat="71.009807959198952" lon="25.894128978252411">
        <ele>11.19</ele>
        <time>2017-06-26T08:38:22Z</time>
      </trkpt>
      <trkpt lat="71.009923964738846" lon="25.893857991322875">
        <ele>11.19</ele>
        <time>2017-06-26T08:38:23Z</time>
      </trkpt>
      <trkpt lat="71.010052040219307" lon="25.893636038526893">
        <ele>11.67</ele>
        <time>2017-06-26T08:38:24Z</time>
      </trkpt>
      <trkpt lat="71.010195035487413" lon="25.893475022166967">
        <ele>11.67</ele>
        <time>2017-06-26T08:38:25Z</time>
      </trkpt>
      <trkpt lat="71.010349011048675" lon="25.893375026062131">
        <ele>12.630000000000001</ele>
        <time>2017-06-26T08:38:26Z</time>
      </trkpt>
      <trkpt lat="71.010516984388232" lon="25.893318029120564">
        <ele>13.119999999999999</ele>
        <time>2017-06-26T08:38:27Z</time>
      </trkpt>
      <trkpt lat="71.010696021839976" lon="25.893283998593688">
        <ele>13.119999999999999</ele>
        <time>2017-06-26T08:38:28Z</time>
      </trkpt>
      <trkpt lat="71.012571975588799" lon="25.89277203194797">
        <ele>14.56</ele>
        <time>2017-06-26T08:38:38Z</time>
      </trkpt>
      <trkpt lat="71.012908006086946" lon="25.892639011144638">
        <ele>15.039999999999999</ele>
        <time>2017-06-26T08:38:40Z</time>
      </trkpt>
      <trkpt lat="71.013064999133348" lon="25.892503978684545">
        <ele>14.56</ele>
        <time>2017-06-26T08:38:41Z</time>
      </trkpt>
      <trkpt lat="71.013221992179751" lon="25.892319995909929">
        <ele>14.56</ele>
        <time>2017-06-26T08:38:42Z</time>
      </trkpt>
      <trkpt lat="71.014467040076852" lon="25.890543032437563">
        <ele>16.960000000000001</ele>
        <time>2017-06-26T08:38:50Z</time>
      </trkpt>
      <trkpt lat="71.014585979282856" lon="25.890261987224221">
        <ele>17.440000000000001</ele>
        <time>2017-06-26T08:38:51Z</time>
      </trkpt>
      <trkpt lat="71.014682035893202" lon="25.889944983646274">
        <ele>17.440000000000001</ele>
        <time>2017-06-26T08:38:52Z</time>
      </trkpt>
      <trkpt lat="71.014752024784684" lon="25.889579029753804">
        <ele>17.440000000000001</ele>
        <time>2017-06-26T08:38:53Z</time>
      </trkpt>
      <trkpt lat="71.014806004241109" lon="25.889178961515427">
        <ele>16.960000000000001</ele>
        <time>2017-06-26T08:38:54Z</time>
      </trkpt>
      <trkpt lat="71.014835005626082" lon="25.888761039823294">
        <ele>16.960000000000001</ele>
        <time>2017-06-26T08:38:55Z</time>
      </trkpt>
      <trkpt lat="71.014846991747618" lon="25.88834404014051">
        <ele>16</ele>
        <time>2017-06-26T08:38:56Z</time>
      </trkpt>
      <trkpt lat="71.014839028939605" lon="25.887921005487442">
        <ele>16</ele>
        <time>2017-06-26T08:38:57Z</time>
      </trkpt>
      <trkpt lat="71.014813967049122" lon="25.88748699054122">
        <ele>15.039999999999999</ele>
        <time>2017-06-26T08:38:58Z</time>
      </trkpt>
      <trkpt lat="71.014784965664148" lon="25.887035960331559">
        <ele>14.56</ele>
        <time>2017-06-26T08:38:59Z</time>
      </trkpt>
      <trkpt lat="71.014712965115905" lon="25.885611036792397">
        <ele>14.08</ele>
        <time>2017-06-26T08:39:02Z</time>
      </trkpt>
      <trkpt lat="71.014714976772666" lon="25.885133016854525">
        <ele>13.6</ele>
        <time>2017-06-26T08:39:03Z</time>
      </trkpt>
      <trkpt lat="71.014740038663149" lon="25.884679974988103">
        <ele>13.6</ele>
        <time>2017-06-26T08:39:04Z</time>
      </trkpt>
      <trkpt lat="71.01478798314929" lon="25.884244032204151">
        <ele>13.119999999999999</ele>
        <time>2017-06-26T08:39:05Z</time>
      </trkpt>
      <trkpt lat="71.014858977869153" lon="25.883836001157761">
        <ele>13.119999999999999</ele>
        <time>2017-06-26T08:39:06Z</time>
      </trkpt>
      <trkpt lat="71.014953022822738" lon="25.883451020345092">
        <ele>12.630000000000001</ele>
        <time>2017-06-26T08:39:07Z</time>
      </trkpt>
      <trkpt lat="71.01506601087749" lon="25.883110966533422">
        <ele>12.15</ele>
        <time>2017-06-26T08:39:08Z</time>
      </trkpt>
      <trkpt lat="71.015199031680822" lon="25.882817013189197">
        <ele>12.15</ele>
        <time>2017-06-26T08:39:09Z</time>
      </trkpt>
      <trkpt lat="71.015354013070464" lon="25.882559018209577">
        <ele>12.15</ele>
        <time>2017-06-26T08:39:10Z</time>
      </trkpt>
      <trkpt lat="71.015513017773628" lon="25.882348967716098">
        <ele>11.67</ele>
        <time>2017-06-26T08:39:11Z</time>
      </trkpt>
      <trkpt lat="71.015683002769947" lon="25.88217998854816">
        <ele>11.19</ele>
        <time>2017-06-26T08:39:12Z</time>
      </trkpt>
      <trkpt lat="71.015859022736549" lon="25.882082004100084">
        <ele>11.19</ele>
        <time>2017-06-26T08:39:13Z</time>
      </trkpt>
      <trkpt lat="71.016036970540881" lon="25.882042022421956">
        <ele>11.19</ele>
        <time>2017-06-26T08:39:14Z</time>
      </trkpt>
      <trkpt lat="71.016215002164245" lon="25.882092984393239">
        <ele>12.15</ele>
        <time>2017-06-26T08:39:15Z</time>
      </trkpt>
      <trkpt lat="71.016396973282099" lon="25.882190968841314">
        <ele>12.630000000000001</ele>
        <time>2017-06-26T08:39:16Z</time>
      </trkpt>
      <trkpt lat="71.016577016562223" lon="25.88230898603797">
        <ele>13.119999999999999</ele>
        <time>2017-06-26T08:39:17Z</time>
      </trkpt>
      <trkpt lat="71.018076036125422" lon="25.882556000724435">
        <ele>17.440000000000001</ele>
        <time>2017-06-26T08:39:25Z</time>
      </trkpt>
      <trkpt lat="71.020571999251842" lon="25.881756031885743">
        <ele>21.289999999999999</ele>
        <time>2017-06-26T08:39:38Z</time>
      </trkpt>
      <trkpt lat="71.020766040310264" lon="25.881829960271716">
        <ele>21.289999999999999</ele>
        <time>2017-06-26T08:39:39Z</time>
      </trkpt>
      <trkpt lat="71.020955974236131" lon="25.881972033530474">
        <ele>22.25</ele>
        <time>2017-06-26T08:39:40Z</time>
      </trkpt>
      <trkpt lat="71.021142974495888" lon="25.882160039618611">
        <ele>22.73</ele>
        <time>2017-06-26T08:39:41Z</time>
      </trkpt>
      <trkpt lat="71.021325029432774" lon="25.88239498436451">
        <ele>23.690000000000001</ele>
        <time>2017-06-26T08:39:42Z</time>
      </trkpt>
      <trkpt lat="71.021497026085854" lon="25.882687009871006">
        <ele>23.690000000000001</ele>
        <time>2017-06-26T08:39:43Z</time>
      </trkpt>
      <trkpt lat="71.021657958626747" lon="25.883019017055631">
        <ele>24.649999999999999</ele>
        <time>2017-06-26T08:39:44Z</time>
      </trkpt>
      <trkpt lat="71.021806988865137" lon="25.883382959291339">
        <ele>25.129999999999999</ele>
        <time>2017-06-26T08:39:45Z</time>
      </trkpt>
      <trkpt lat="71.021949984133244" lon="25.883779004216194">
        <ele>26.09</ele>
        <time>2017-06-26T08:39:46Z</time>
      </trkpt>
      <trkpt lat="71.02239397354424" lon="25.884875021874905">
        <ele>26.57</ele>
        <time>2017-06-26T08:39:49Z</time>
      </trkpt>
      <trkpt lat="71.022558007389307" lon="25.885149026289582">
        <ele>26.57</ele>
        <time>2017-06-26T08:39:50Z</time>
      </trkpt>
      <trkpt lat="71.022726986557245" lon="25.885379025712609">
        <ele>26.09</ele>
        <time>2017-06-26T08:39:51Z</time>
      </trkpt>
      <trkpt lat="71.024190969765186" lon="25.887399986386299">
        <ele>27.530000000000001</ele>
        <time>2017-06-26T08:39:59Z</time>
      </trkpt>
      <trkpt lat="71.025265026837587" lon="25.889857979491353">
        <ele>27.530000000000001</ele>
        <time>2017-06-26T08:40:06Z</time>
      </trkpt>
      <trkpt lat="71.025409027934074" lon="25.890051014721394">
        <ele>27.530000000000001</ele>
        <time>2017-06-26T08:40:07Z</time>
      </trkpt>
      <trkpt lat="71.025557974353433" lon="25.890146987512708">
        <ele>28.02</ele>
        <time>2017-06-26T08:40:08Z</time>
      </trkpt>
      <trkpt lat="71.025710022076964" lon="25.890141958370805">
        <ele>28.02</ele>
        <time>2017-06-26T08:40:09Z</time>
      </trkpt>
      <trkpt lat="71.025854023173451" lon="25.890042968094349">
        <ele>28.5</ele>
        <time>2017-06-26T08:40:10Z</time>
      </trkpt>
      <trkpt lat="71.025990983471274" lon="25.889858985319734">
        <ele>28.5</ele>
        <time>2017-06-26T08:40:11Z</time>
      </trkpt>
      <trkpt lat="71.026120986789465" lon="25.889620017260313">
        <ele>28.5</ele>
        <time>2017-06-26T08:40:12Z</time>
      </trkpt>
      <trkpt lat="71.026251995936036" lon="25.889374008402228">
        <ele>28.02</ele>
        <time>2017-06-26T08:40:13Z</time>
      </trkpt>
      <trkpt lat="71.027422025799751" lon="25.887826038524508">
        <ele>28.02</ele>
        <time>2017-06-26T08:40:21Z</time>
      </trkpt>
      <trkpt lat="71.029192032292485" lon="25.887441979721189">
        <ele>27.530000000000001</ele>
        <time>2017-06-26T08:40:31Z</time>
      </trkpt>
      <trkpt lat="71.029788991436362" lon="25.887245004996657">
        <ele>28.5</ele>
        <time>2017-06-26T08:40:35Z</time>
      </trkpt>
      <trkpt lat="71.029937015846372" lon="25.887091029435396">
        <ele>28.5</ele>
        <time>2017-06-26T08:40:36Z</time>
      </trkpt>
      <trkpt lat="71.030627014115453" lon="25.886169020086527">
        <ele>30.420000000000002</ele>
        <time>2017-06-26T08:40:41Z</time>
      </trkpt>
      <trkpt lat="71.030781995505095" lon="25.886085033416748">
        <ele>31.379999999999999</ele>
        <time>2017-06-26T08:40:42Z</time>
      </trkpt>
      <trkpt lat="71.030946029350162" lon="25.886053014546633">
        <ele>32.340000000000003</ele>
        <time>2017-06-26T08:40:43Z</time>
      </trkpt>
      <trkpt lat="71.031108973547816" lon="25.88606902398169">
        <ele>32.82</ele>
        <time>2017-06-26T08:40:44Z</time>
      </trkpt>
      <trkpt lat="71.031277030706406" lon="25.88613398373127">
        <ele>33.780000000000001</ele>
        <time>2017-06-26T08:40:45Z</time>
      </trkpt>
      <trkpt lat="71.031435029581189" lon="25.886245965957642">
        <ele>35.229999999999997</ele>
        <time>2017-06-26T08:40:46Z</time>
      </trkpt>
      <trkpt lat="71.031582970172167" lon="25.886425003409386">
        <ele>36.189999999999998</ele>
        <time>2017-06-26T08:40:47Z</time>
      </trkpt>
      <trkpt lat="71.031714985147119" lon="25.886678975075483">
        <ele>37.149999999999999</ele>
        <time>2017-06-26T08:40:48Z</time>
      </trkpt>
      <trkpt lat="71.031837025657296" lon="25.886997990310192">
        <ele>39.07</ele>
        <time>2017-06-26T08:40:49Z</time>
      </trkpt>
      <trkpt lat="71.031949007883668" lon="25.887345001101494">
        <ele>40.990000000000002</ele>
        <time>2017-06-26T08:40:50Z</time>
      </trkpt>
      <trkpt lat="71.032182024791837" lon="25.887964004650712">
        <ele>44.359999999999999</ele>
        <time>2017-06-26T08:40:52Z</time>
      </trkpt>
      <trkpt lat="71.032315967604518" lon="25.888166008517146">
        <ele>45.32</ele>
        <time>2017-06-26T08:40:53Z</time>
      </trkpt>
      <trkpt lat="71.032464997842908" lon="25.88830498047173">
        <ele>46.280000000000001</ele>
        <time>2017-06-26T08:40:54Z</time>
      </trkpt>
      <trkpt lat="71.033829990774393" lon="25.889029009267688">
        <ele>54.93</ele>
        <time>2017-06-26T08:41:02Z</time>
      </trkpt>
      <trkpt lat="71.034257970750332" lon="25.888991039246321">
        <ele>57.340000000000003</ele>
        <time>2017-06-26T08:41:05Z</time>
      </trkpt>
      <trkpt lat="71.034374982118607" lon="25.888876039534807">
        <ele>57.82</ele>
        <time>2017-06-26T08:41:06Z</time>
      </trkpt>
      <trkpt lat="71.034477995708585" lon="25.888709994032979">
        <ele>57.82</ele>
        <time>2017-06-26T08:41:07Z</time>
      </trkpt>
      <trkpt lat="71.034554019570351" lon="25.888488041236997">
        <ele>58.299999999999997</ele>
        <time>2017-06-26T08:41:08Z</time>
      </trkpt>
      <trkpt lat="71.034603975713253" lon="25.888248989358544">
        <ele>58.299999999999997</ele>
        <time>2017-06-26T08:41:09Z</time>
      </trkpt>
      <trkpt lat="71.034624008461833" lon="25.887993006035686">
        <ele>58.780000000000001</ele>
        <time>2017-06-26T08:41:10Z</time>
      </trkpt>
      <trkpt lat="71.034614033997059" lon="25.887728976085782">
        <ele>59.259999999999998</ele>
        <time>2017-06-26T08:41:11Z</time>
      </trkpt>
      <trkpt lat="71.034578997641802" lon="25.887451032176614">
        <ele>59.259999999999998</ele>
        <time>2017-06-26T08:41:12Z</time>
      </trkpt>
      <trkpt lat="71.034519989043474" lon="25.887196976691484">
        <ele>59.259999999999998</ele>
        <time>2017-06-26T08:41:13Z</time>
      </trkpt>
      <trkpt lat="71.034438014030457" lon="25.88699203915894">
        <ele>59.740000000000002</ele>
        <time>2017-06-26T08:41:14Z</time>
      </trkpt>
      <trkpt lat="71.034337012097239" lon="25.886839991435409">
        <ele>60.219999999999999</ele>
        <time>2017-06-26T08:41:15Z</time>
      </trkpt>
      <trkpt lat="71.034218994900584" lon="25.88673303835094">
        <ele>60.219999999999999</ele>
        <time>2017-06-26T08:41:16Z</time>
      </trkpt>
      <trkpt lat="71.034093014895916" lon="25.88667101226747">
        <ele>60.700000000000003</ele>
        <time>2017-06-26T08:41:17Z</time>
      </trkpt>
      <trkpt lat="71.033962005749345" lon="25.886644022539258">
        <ele>60.700000000000003</ele>
        <time>2017-06-26T08:41:18Z</time>
      </trkpt>
      <trkpt lat="71.033824039623141" lon="25.886630024760962">
        <ele>61.18</ele>
        <time>2017-06-26T08:41:19Z</time>
      </trkpt>
      <trkpt lat="71.032722992822528" lon="25.885954024270177">
        <ele>58.780000000000001</ele>
        <time>2017-06-26T08:41:27Z</time>
      </trkpt>
      <trkpt lat="71.031477022916079" lon="25.884705958887935">
        <ele>65.989999999999995</ele>
        <time>2017-06-26T08:41:35Z</time>
      </trkpt>
      <trkpt lat="71.031324975192547" lon="25.884418962523341">
        <ele>67.430000000000007</ele>
        <time>2017-06-26T08:41:36Z</time>
      </trkpt>
      <trkpt lat="71.03118197992444" lon="25.884088966995478">
        <ele>68.390000000000001</ele>
        <time>2017-06-26T08:41:37Z</time>
      </trkpt>
      <trkpt lat="71.031047031283379" lon="25.883727036416531">
        <ele>69.349999999999994</ele>
        <time>2017-06-26T08:41:38Z</time>
      </trkpt>
      <trkpt lat="71.030927002429962" lon="25.883335014805198">
        <ele>70.790000000000006</ele>
        <time>2017-06-26T08:41:39Z</time>
      </trkpt>
      <trkpt lat="71.030821977183223" lon="25.882907034829259">
        <ele>71.760000000000005</ele>
        <time>2017-06-26T08:41:40Z</time>
      </trkpt>
      <trkpt lat="71.030732039362192" lon="25.882433038204908">
        <ele>73.200000000000003</ele>
        <time>2017-06-26T08:41:41Z</time>
      </trkpt>
      <trkpt lat="71.030658027157187" lon="25.88194202631712">
        <ele>74.159999999999997</ele>
        <time>2017-06-26T08:41:42Z</time>
      </trkpt>
      <trkpt lat="71.030596001073718" lon="25.881424024701118">
        <ele>75.120000000000005</ele>
        <time>2017-06-26T08:41:43Z</time>
      </trkpt>
      <trkpt lat="71.030550990253687" lon="25.880872998386621">
        <ele>76.079999999999998</ele>
        <time>2017-06-26T08:41:44Z</time>
      </trkpt>
      <trkpt lat="71.030525006353855" lon="25.880336975678802">
        <ele>77.519999999999996</ele>
        <time>2017-06-26T08:41:45Z</time>
      </trkpt>
      <trkpt lat="71.030516037717462" lon="25.87979500181973">
        <ele>78.480000000000004</ele>
        <time>2017-06-26T08:41:46Z</time>
      </trkpt>
      <trkpt lat="71.030526012182236" lon="25.879246992990375">
        <ele>79.930000000000007</ele>
        <time>2017-06-26T08:41:47Z</time>
      </trkpt>
      <trkpt lat="71.030553001910448" lon="25.878695966675878">
        <ele>80.890000000000001</ele>
        <time>2017-06-26T08:41:48Z</time>
      </trkpt>
      <trkpt lat="71.03060002438724" lon="25.878147035837173">
        <ele>82.810000000000002</ele>
        <time>2017-06-26T08:41:49Z</time>
      </trkpt>
      <trkpt lat="71.030660960823298" lon="25.877591986209154">
        <ele>84.25</ele>
        <time>2017-06-26T08:41:50Z</time>
      </trkpt>
      <trkpt lat="71.030735978856683" lon="25.877042971551418">
        <ele>85.689999999999998</ele>
        <time>2017-06-26T08:41:51Z</time>
      </trkpt>
      <trkpt lat="71.031062034890056" lon="25.874695032835007">
        <ele>92.900000000000006</ele>
        <time>2017-06-26T08:41:56Z</time>
      </trkpt>
      <trkpt lat="71.031078966334462" lon="25.874327989295125">
        <ele>93.870000000000005</ele>
        <time>2017-06-26T08:41:57Z</time>
      </trkpt>
      <trkpt lat="71.031083995476365" lon="25.874007968232036">
        <ele>94.829999999999998</ele>
        <time>2017-06-26T08:41:58Z</time>
      </trkpt>
      <trkpt lat="71.031078966334462" lon="25.873744022101164">
        <ele>95.310000000000002</ele>
        <time>2017-06-26T08:41:59Z</time>
      </trkpt>
      <trkpt lat="71.031065974384546" lon="25.873529026284814">
        <ele>96.269999999999996</ele>
        <time>2017-06-26T08:42:00Z</time>
      </trkpt>
      <trkpt lat="71.031045019626617" lon="25.873320987448096">
        <ele>96.269999999999996</ele>
        <time>2017-06-26T08:42:01Z</time>
      </trkpt>
      <trkpt lat="71.031011994928122" lon="25.873100040480494">
        <ele>96.75</ele>
        <time>2017-06-26T08:42:02Z</time>
      </trkpt>
      <trkpt lat="71.030963966622949" lon="25.872864006087184">
        <ele>97.709999999999994</ele>
        <time>2017-06-26T08:42:03Z</time>
      </trkpt>
      <trkpt lat="71.03090001270175" lon="25.872608022764325">
        <ele>98.670000000000002</ele>
        <time>2017-06-26T08:42:04Z</time>
      </trkpt>
      <trkpt lat="71.030833963304758" lon="25.872343992814422">
        <ele>99.629999999999995</ele>
        <time>2017-06-26T08:42:05Z</time>
      </trkpt>
      <trkpt lat="71.030328031629324" lon="25.869702016934752">
        <ele>106.84</ele>
        <time>2017-06-26T08:42:12Z</time>
      </trkpt>
      <trkpt lat="71.029413985088468" lon="25.866569029167295">
        <ele>118.86</ele>
        <time>2017-06-26T08:42:20Z</time>
      </trkpt>
      <trkpt lat="71.029323963448405" lon="25.866183964535594">
        <ele>120.3</ele>
        <time>2017-06-26T08:42:21Z</time>
      </trkpt>
      <trkpt lat="71.029254980385303" lon="25.865777023136616">
        <ele>121.73999999999999</ele>
        <time>2017-06-26T08:42:22Z</time>
      </trkpt>
      <trkpt lat="71.029208041727543" lon="25.865349965170026">
        <ele>123.19</ele>
        <time>2017-06-26T08:42:23Z</time>
      </trkpt>
      <trkpt lat="71.029185997322202" lon="25.864914022386074">
        <ele>124.63</ele>
        <time>2017-06-26T08:42:24Z</time>
      </trkpt>
      <trkpt lat="71.029184991493821" lon="25.864487970247865">
        <ele>126.06999999999999</ele>
        <time>2017-06-26T08:42:25Z</time>
      </trkpt>
      <trkpt lat="71.029206030070782" lon="25.864083040505648">
        <ele>127.51000000000001</ele>
        <time>2017-06-26T08:42:26Z</time>
      </trkpt>
      <trkpt lat="71.029250035062432" lon="25.863676015287638">
        <ele>129.43000000000001</ele>
        <time>2017-06-26T08:42:27Z</time>
      </trkpt>
      <trkpt lat="71.029313988983631" lon="25.863298997282982">
        <ele>130.88</ele>
        <time>2017-06-26T08:42:28Z</time>
      </trkpt>
      <trkpt lat="71.029401998966932" lon="25.862948969006538">
        <ele>131.84</ele>
        <time>2017-06-26T08:42:29Z</time>
      </trkpt>
      <trkpt lat="71.029503000900149" lon="25.862641017884016">
        <ele>133.28</ele>
        <time>2017-06-26T08:42:30Z</time>
      </trkpt>
      <trkpt lat="71.029623029753566" lon="25.862378999590874">
        <ele>134.24000000000001</ele>
        <time>2017-06-26T08:42:31Z</time>
      </trkpt>
      <trkpt lat="71.029758984223008" lon="25.862174984067678">
        <ele>135.68000000000001</ele>
        <time>2017-06-26T08:42:32Z</time>
      </trkpt>
      <trkpt lat="71.029901979491115" lon="25.862055039033294">
        <ele>137.61000000000001</ele>
        <time>2017-06-26T08:42:33Z</time>
      </trkpt>
      <trkpt lat="71.030056038871408" lon="25.862023020163178">
        <ele>139.05000000000001</ele>
        <time>2017-06-26T08:42:34Z</time>
      </trkpt>
      <trkpt lat="71.030223006382585" lon="25.862041963264346">
        <ele>140.49000000000001</ele>
        <time>2017-06-26T08:42:35Z</time>
      </trkpt>
      <trkpt lat="71.030375976115465" lon="25.862118992954493">
        <ele>141.93000000000001</ele>
        <time>2017-06-26T08:42:36Z</time>
      </trkpt>
      <trkpt lat="71.030516037717462" lon="25.86219996213913">
        <ele>142.88999999999999</ele>
        <time>2017-06-26T08:42:37Z</time>
      </trkpt>
      <trkpt lat="71.03064201772213" lon="25.862218989059329">
        <ele>143.84999999999999</ele>
        <time>2017-06-26T08:42:38Z</time>
      </trkpt>
      <trkpt lat="71.030756011605263" lon="25.862145982682705">
        <ele>144.81999999999999</ele>
        <time>2017-06-26T08:42:39Z</time>
      </trkpt>
      <trkpt lat="71.030853996053338" lon="25.86198303848505">
        <ele>145.78</ele>
        <time>2017-06-26T08:42:40Z</time>
      </trkpt>
      <trkpt lat="71.030925996601582" lon="25.861753961071372">
        <ele>146.74000000000001</ele>
        <time>2017-06-26T08:42:41Z</time>
      </trkpt>
      <trkpt lat="71.030972013249993" lon="25.861451039090753">
        <ele>147.22</ele>
        <time>2017-06-26T08:42:42Z</time>
      </trkpt>
      <trkpt lat="71.030983999371529" lon="25.861126994714141">
        <ele>148.66</ele>
        <time>2017-06-26T08:42:43Z</time>
      </trkpt>
      <trkpt lat="71.03096597827971" lon="25.860805967822671">
        <ele>149.13999999999999</ele>
        <time>2017-06-26T08:42:44Z</time>
      </trkpt>
      <trkpt lat="71.030919039621949" lon="25.86050002835691">
        <ele>150.09999999999999</ele>
        <time>2017-06-26T08:42:45Z</time>
      </trkpt>
      <trkpt lat="71.030843015760183" lon="25.860238010063767">
        <ele>151.06</ele>
        <time>2017-06-26T08:42:46Z</time>
      </trkpt>
      <trkpt lat="71.030735978856683" lon="25.860015973448753">
        <ele>151.53999999999999</ele>
        <time>2017-06-26T08:42:47Z</time>
      </trkpt>
      <trkpt lat="71.030614022165537" lon="25.859799971804023">
        <ele>152.03</ele>
        <time>2017-06-26T08:42:48Z</time>
      </trkpt>
      <trkpt lat="71.030478989705443" lon="25.859607020393014">
        <ele>152.99000000000001</ele>
        <time>2017-06-26T08:42:49Z</time>
      </trkpt>
      <trkpt lat="71.029394036158919" lon="25.857959976419806">
        <ele>161.63999999999999</ele>
        <time>2017-06-26T08:42:56Z</time>
      </trkpt>
      <trkpt lat="71.029270989820361" lon="25.857654958963394">
        <ele>163.08000000000001</ele>
        <time>2017-06-26T08:42:57Z</time>
      </trkpt>
      <trkpt lat="71.029171999543905" lon="25.857309037819505">
        <ele>164.52000000000001</ele>
        <time>2017-06-26T08:42:58Z</time>
      </trkpt>
      <trkpt lat="71.029105028137565" lon="25.856897989287972">
        <ele>166.44999999999999</ele>
        <time>2017-06-26T08:42:59Z</time>
      </trkpt>
      <trkpt lat="71.029060017317533" lon="25.856447964906693">
        <ele>168.37</ele>
        <time>2017-06-26T08:43:00Z</time>
      </trkpt>
      <trkpt lat="71.029043002054095" lon="25.855956031009555">
        <ele>169.81</ele>
        <time>2017-06-26T08:43:01Z</time>
      </trkpt>
      <trkpt lat="71.029048031195998" lon="25.855445992201567">
        <ele>171.72999999999999</ele>
        <time>2017-06-26T08:43:02Z</time>
      </trkpt>
      <trkpt lat="71.029061023145914" lon="25.8549590036273">
        <ele>174.13999999999999</ele>
        <time>2017-06-26T08:43:03Z</time>
      </trkpt>
      <trkpt lat="71.029061023145914" lon="25.854519959539175">
        <ele>175.58000000000001</ele>
        <time>2017-06-26T08:43:04Z</time>
      </trkpt>
      <trkpt lat="71.029035961255431" lon="25.854119975119829">
        <ele>176.53999999999999</ele>
        <time>2017-06-26T08:43:05Z</time>
      </trkpt>
      <trkpt lat="71.028977958485484" lon="25.853751003742218">
        <ele>177.5</ele>
        <time>2017-06-26T08:43:06Z</time>
      </trkpt>
      <trkpt lat="71.028896989300847" lon="25.853423019871116">
        <ele>178.94</ele>
        <time>2017-06-26T08:43:07Z</time>
      </trkpt>
      <trkpt lat="71.028791964054108" lon="25.853149015456438">
        <ele>179.90000000000001</ele>
        <time>2017-06-26T08:43:08Z</time>
      </trkpt>
      <trkpt lat="71.028667995706201" lon="25.852925973013043">
        <ele>181.34999999999999</ele>
        <time>2017-06-26T08:43:09Z</time>
      </trkpt>
      <trkpt lat="71.028533969074488" lon="25.852740984410048">
        <ele>182.78999999999999</ele>
        <time>2017-06-26T08:43:10Z</time>
      </trkpt>
      <trkpt lat="71.028273040428758" lon="25.85231602191925">
        <ele>185.19</ele>
        <time>2017-06-26T08:43:12Z</time>
      </trkpt>
      <trkpt lat="71.028158962726593" lon="25.852062972262502">
        <ele>186.63</ele>
        <time>2017-06-26T08:43:13Z</time>
      </trkpt>
      <trkpt lat="71.028068019077182" lon="25.851784022524953">
        <ele>188.08000000000001</ele>
        <time>2017-06-26T08:43:14Z</time>
      </trkpt>
      <trkpt lat="71.027995012700558" lon="25.851470036432147">
        <ele>189.03999999999999</ele>
        <time>2017-06-26T08:43:15Z</time>
      </trkpt>
      <trkpt lat="71.027943966910243" lon="25.851125037297606">
        <ele>190.47999999999999</ele>
        <time>2017-06-26T08:43:16Z</time>
      </trkpt>
      <trkpt lat="71.02791303768754" lon="25.850770985707641">
        <ele>191.91999999999999</ele>
        <time>2017-06-26T08:43:17Z</time>
      </trkpt>
      <trkpt lat="71.027891999110579" lon="25.850427998229861">
        <ele>192.88</ele>
        <time>2017-06-26T08:43:18Z</time>
      </trkpt>
      <trkpt lat="71.027821004390717" lon="25.849431976675987">
        <ele>196.72999999999999</ele>
        <time>2017-06-26T08:43:21Z</time>
      </trkpt>
      <trkpt lat="71.027775993570685" lon="25.84911597892642">
        <ele>197.69</ele>
        <time>2017-06-26T08:43:22Z</time>
      </trkpt>
      <trkpt lat="71.027723019942641" lon="25.848821019753814">
        <ele>198.65000000000001</ele>
        <time>2017-06-26T08:43:23Z</time>
      </trkpt>
      <trkpt lat="71.027659988030791" lon="25.848535029217601">
        <ele>199.61000000000001</ele>
        <time>2017-06-26T08:43:24Z</time>
      </trkpt>
      <trkpt lat="71.027594022452831" lon="25.848258007317781">
        <ele>200.56999999999999</ele>
        <time>2017-06-26T08:43:25Z</time>
      </trkpt>
      <trkpt lat="71.027328986674547" lon="25.846955962479115">
        <ele>205.86000000000001</ele>
        <time>2017-06-26T08:43:29Z</time>
      </trkpt>
      <trkpt lat="71.027284981682897" lon="25.84657902829349">
        <ele>206.81999999999999</ele>
        <time>2017-06-26T08:43:30Z</time>
      </trkpt>
      <trkpt lat="71.027257991954684" lon="25.846189018338919">
        <ele>208.25999999999999</ele>
        <time>2017-06-26T08:43:31Z</time>
      </trkpt>
      <trkpt lat="71.027243994176388" lon="25.845798002555966">
        <ele>209.22</ele>
        <time>2017-06-26T08:43:32Z</time>
      </trkpt>
      <trkpt lat="71.02724701166153" lon="25.845416039228439">
        <ele>210.19</ele>
        <time>2017-06-26T08:43:33Z</time>
      </trkpt>
      <trkpt lat="71.027266038581729" lon="25.845037009567022">
        <ele>211.15000000000001</ele>
        <time>2017-06-26T08:43:34Z</time>
      </trkpt>
      <trkpt lat="71.027300991117954" lon="25.844671977683902">
        <ele>211.63</ele>
        <time>2017-06-26T08:43:35Z</time>
      </trkpt>
      <trkpt lat="71.027343990281224" lon="25.844305017963052">
        <ele>212.59</ele>
        <time>2017-06-26T08:43:36Z</time>
      </trkpt>
      <trkpt lat="71.027404004707932" lon="25.84393797442317">
        <ele>213.06999999999999</ele>
        <time>2017-06-26T08:43:37Z</time>
      </trkpt>
      <trkpt lat="71.027480028569698" lon="25.843574032187462">
        <ele>214.03</ele>
        <time>2017-06-26T08:43:38Z</time>
      </trkpt>
      <trkpt lat="71.027568038552999" lon="25.843222998082638">
        <ele>214.99000000000001</ele>
        <time>2017-06-26T08:43:39Z</time>
      </trkpt>
      <trkpt lat="71.027670968323946" lon="25.842867018654943">
        <ele>215.94999999999999</ele>
        <time>2017-06-26T08:43:40Z</time>
      </trkpt>
      <trkpt lat="71.027795020490885" lon="25.842488994821906">
        <ele>216.43000000000001</ele>
        <time>2017-06-26T08:43:41Z</time>
      </trkpt>
      <trkpt lat="71.029275013133883" lon="25.838223025202751">
        <ele>225.56999999999999</ele>
        <time>2017-06-26T08:43:51Z</time>
      </trkpt>
      <trkpt lat="71.030369019135833" lon="25.835285000503063">
        <ele>236.13999999999999</ele>
        <time>2017-06-26T08:43:58Z</time>
      </trkpt>
      <trkpt lat="71.030539004132152" lon="25.835025999695063">
        <ele>236.62</ele>
        <time>2017-06-26T08:43:59Z</time>
      </trkpt>
      <trkpt lat="71.030715024098754" lon="25.83482600748539">
        <ele>237.58000000000001</ele>
        <time>2017-06-26T08:44:00Z</time>
      </trkpt>
      <trkpt lat="71.030904036015272" lon="25.83469700999558">
        <ele>238.53999999999999</ele>
        <time>2017-06-26T08:44:01Z</time>
      </trkpt>
      <trkpt lat="71.031104028224945" lon="25.834629032760859">
        <ele>239.50999999999999</ele>
        <time>2017-06-26T08:44:02Z</time>
      </trkpt>
      <trkpt lat="71.031312989071012" lon="25.834606988355517">
        <ele>239.99000000000001</ele>
        <time>2017-06-26T08:44:03Z</time>
      </trkpt>
      <trkpt lat="71.031534019857645" lon="25.834630960598588">
        <ele>239.99000000000001</ele>
        <time>2017-06-26T08:44:04Z</time>
      </trkpt>
      <trkpt lat="71.033679032698274" lon="25.834786025807261">
        <ele>240.47</ele>
        <time>2017-06-26T08:44:13Z</time>
      </trkpt>
      <trkpt lat="71.033912971615791" lon="25.834642024710774">
        <ele>241.91</ele>
        <time>2017-06-26T08:44:14Z</time>
      </trkpt>
      <trkpt lat="71.034139031544328" lon="25.834428034722805">
        <ele>243.34999999999999</ele>
        <time>2017-06-26T08:44:15Z</time>
      </trkpt>
      <trkpt lat="71.034351009875536" lon="25.834152018651366">
        <ele>244.78999999999999</ele>
        <time>2017-06-26T08:44:16Z</time>
      </trkpt>
      <trkpt lat="71.034554019570351" lon="25.833826968446374">
        <ele>245.27000000000001</ele>
        <time>2017-06-26T08:44:17Z</time>
      </trkpt>
      <trkpt lat="71.034745965152979" lon="25.833470989018679">
        <ele>246.22999999999999</ele>
        <time>2017-06-26T08:44:18Z</time>
      </trkpt>
      <trkpt lat="71.034923996776342" lon="25.833058012649417">
        <ele>247.19999999999999</ele>
        <time>2017-06-26T08:44:19Z</time>
      </trkpt>
      <trkpt lat="71.035087024793029" lon="25.83261301741004">
        <ele>248.16</ele>
        <time>2017-06-26T08:44:20Z</time>
      </trkpt>
      <trkpt lat="71.035235971212387" lon="25.832116976380348">
        <ele>248.63999999999999</ele>
        <time>2017-06-26T08:44:21Z</time>
      </trkpt>
      <trkpt lat="71.035376032814384" lon="25.831573996692896">
        <ele>249.12</ele>
        <time>2017-06-26T08:44:22Z</time>
      </trkpt>
      <trkpt lat="71.035508969798684" lon="25.830987012013793">
        <ele>249.12</ele>
        <time>2017-06-26T08:44:23Z</time>
      </trkpt>
      <trkpt lat="71.035635033622384" lon="25.830376977100968">
        <ele>249.59999999999999</ele>
        <time>2017-06-26T08:44:24Z</time>
      </trkpt>
      <trkpt lat="71.035751039162278" lon="25.829724026843905">
        <ele>250.08000000000001</ele>
        <time>2017-06-26T08:44:25Z</time>
      </trkpt>
      <trkpt lat="71.035856986418366" lon="25.829060012474656">
        <ele>250.56</ele>
        <time>2017-06-26T08:44:26Z</time>
      </trkpt>
      <trkpt lat="71.036640023812652" lon="25.824172021821141">
        <ele>249.59999999999999</ele>
        <time>2017-06-26T08:44:34Z</time>
      </trkpt>
      <trkpt lat="71.037233965471387" lon="25.820228001102805">
        <ele>239.99000000000001</ele>
        <time>2017-06-26T08:44:41Z</time>
      </trkpt>
      <trkpt lat="71.037263972684741" lon="25.81959399394691">
        <ele>239.99000000000001</ele>
        <time>2017-06-26T08:44:42Z</time>
      </trkpt>
      <trkpt lat="71.037274030968547" lon="25.818952023983002">
        <ele>239.99000000000001</ele>
        <time>2017-06-26T08:44:43Z</time>
      </trkpt>
      <trkpt lat="71.037258021533489" lon="25.818317010998726">
        <ele>240.47</ele>
        <time>2017-06-26T08:44:44Z</time>
      </trkpt>
      <trkpt lat="71.03721996769309" lon="25.817697001621127">
        <ele>240.47</ele>
        <time>2017-06-26T08:44:45Z</time>
      </trkpt>
      <trkpt lat="71.037169005721807" lon="25.81708000972867">
        <ele>240.47</ele>
        <time>2017-06-26T08:44:46Z</time>
      </trkpt>
      <trkpt lat="71.037106979638338" lon="25.816470980644226">
        <ele>240.94999999999999</ele>
        <time>2017-06-26T08:44:47Z</time>
      </trkpt>
      <trkpt lat="71.036240039393306" lon="25.809093983843923">
        <ele>241.91</ele>
        <time>2017-06-26T08:44:58Z</time>
      </trkpt>
      <trkpt lat="71.035881964489818" lon="25.804113959893584">
        <ele>251.03999999999999</ele>
        <time>2017-06-26T08:45:05Z</time>
      </trkpt>
      <trkpt lat="71.036081034690142" lon="25.80139696598053">
        <ele>255.84999999999999</ele>
        <time>2017-06-26T08:45:09Z</time>
      </trkpt>
      <trkpt lat="71.036178013309836" lon="25.800748039036989">
        <ele>256.32999999999998</ele>
        <time>2017-06-26T08:45:10Z</time>
      </trkpt>
      <trkpt lat="71.036296030506492" lon="25.800116965547204">
        <ele>257.29000000000002</ele>
        <time>2017-06-26T08:45:11Z</time>
      </trkpt>
      <trkpt lat="71.036432990804315" lon="25.799521012231708">
        <ele>257.76999999999998</ele>
        <time>2017-06-26T08:45:12Z</time>
      </trkpt>
      <trkpt lat="71.036585038527846" lon="25.798961017280817">
        <ele>258.73000000000002</ele>
        <time>2017-06-26T08:45:13Z</time>
      </trkpt>
      <trkpt lat="71.036752006039023" lon="25.798426000401378">
        <ele>259.20999999999998</ele>
        <time>2017-06-26T08:45:14Z</time>
      </trkpt>
      <trkpt lat="71.036930959671736" lon="25.797911016270518">
        <ele>259.20999999999998</ele>
        <time>2017-06-26T08:45:15Z</time>
      </trkpt>
      <trkpt lat="71.038262005895376" lon="25.793414963409305">
        <ele>263.06</ele>
        <time>2017-06-26T08:45:23Z</time>
      </trkpt>
      <trkpt lat="71.038882015272975" lon="25.788521021604538">
        <ele>271.23000000000002</ele>
        <time>2017-06-26T08:45:30Z</time>
      </trkpt>
      <trkpt lat="71.039106985554099" lon="25.781909041106701">
        <ele>272.19</ele>
        <time>2017-06-26T08:45:39Z</time>
      </trkpt>
      <trkpt lat="71.039443016052246" lon="25.777497980743647">
        <ele>265.94</ele>
        <time>2017-06-26T08:45:46Z</time>
      </trkpt>
      <trkpt lat="71.040220018476248" lon="25.774257034063339">
        <ele>259.20999999999998</ele>
        <time>2017-06-26T08:45:52Z</time>
      </trkpt>
      <trkpt lat="71.041563972830772" lon="25.771768027916551">
        <ele>252.96000000000001</ele>
        <time>2017-06-26T08:45:59Z</time>
      </trkpt>
      <trkpt lat="71.043172040954232" lon="25.77056203968823">
        <ele>248.63999999999999</ele>
        <time>2017-06-26T08:46:06Z</time>
      </trkpt>
      <trkpt lat="71.04454399086535" lon="25.769517989829183">
        <ele>246.72</ele>
        <time>2017-06-26T08:46:12Z</time>
      </trkpt>
      <trkpt lat="71.044739037752151" lon="25.769193023443222">
        <ele>246.22999999999999</ele>
        <time>2017-06-26T08:46:13Z</time>
      </trkpt>
      <trkpt lat="71.044925032183528" lon="25.76882204040885">
        <ele>245.75</ele>
        <time>2017-06-26T08:46:14Z</time>
      </trkpt>
      <trkpt lat="71.045099962502718" lon="25.768400011584163">
        <ele>244.78999999999999</ele>
        <time>2017-06-26T08:46:15Z</time>
      </trkpt>
      <trkpt lat="71.045260978862643" lon="25.76792199164629">
        <ele>243.83000000000001</ele>
        <time>2017-06-26T08:46:16Z</time>
      </trkpt>
      <trkpt lat="71.045413026586175" lon="25.76740700751543">
        <ele>242.87</ele>
        <time>2017-06-26T08:46:17Z</time>
      </trkpt>
      <trkpt lat="71.04555300436914" lon="25.766854975372553">
        <ele>241.43000000000001</ele>
        <time>2017-06-26T08:46:18Z</time>
      </trkpt>
      <trkpt lat="71.04568300768733" lon="25.766276959329844">
        <ele>239.50999999999999</ele>
        <time>2017-06-26T08:46:19Z</time>
      </trkpt>
      <trkpt lat="71.046944987028837" lon="25.760975992307067">
        <ele>228.93000000000001</ele>
        <time>2017-06-26T08:46:28Z</time>
      </trkpt>
      <trkpt lat="71.047123018652201" lon="25.760567961260676">
        <ele>228.93000000000001</ele>
        <time>2017-06-26T08:46:29Z</time>
      </trkpt>
      <trkpt lat="71.047308007255197" lon="25.760220028460026">
        <ele>228.93000000000001</ele>
        <time>2017-06-26T08:46:30Z</time>
      </trkpt>
      <trkpt lat="71.047500958666205" lon="25.759938983246684">
        <ele>228.93000000000001</ele>
        <time>2017-06-26T08:46:31Z</time>
      </trkpt>
      <trkpt lat="71.047699023038149" lon="25.759723987430334">
        <ele>228.93000000000001</ele>
        <time>2017-06-26T08:46:32Z</time>
      </trkpt>
      <trkpt lat="71.047902032732964" lon="25.759570011869073">
        <ele>228.93000000000001</ele>
        <time>2017-06-26T08:46:33Z</time>
      </trkpt>
      <trkpt lat="71.048105964437127" lon="25.759472027420998">
        <ele>228.44999999999999</ele>
        <time>2017-06-26T08:46:34Z</time>
      </trkpt>
      <trkpt lat="71.048314003273845" lon="25.759427016600966">
        <ele>228.44999999999999</ele>
        <time>2017-06-26T08:46:35Z</time>
      </trkpt>
      <trkpt lat="71.048523969948292" lon="25.759449983015656">
        <ele>227.97</ele>
        <time>2017-06-26T08:46:36Z</time>
      </trkpt>
      <trkpt lat="71.048729997128248" lon="25.759543022140861">
        <ele>227.00999999999999</ele>
        <time>2017-06-26T08:46:37Z</time>
      </trkpt>
      <trkpt lat="71.048935018479824" lon="25.759692974388599">
        <ele>225.56999999999999</ele>
        <time>2017-06-26T08:46:38Z</time>
      </trkpt>
      <trkpt lat="71.049139034003019" lon="25.759891038760543">
        <ele>224.61000000000001</ele>
        <time>2017-06-26T08:46:39Z</time>
      </trkpt>
      <trkpt lat="71.049337014555931" lon="25.760160014033318">
        <ele>223.16</ele>
        <time>2017-06-26T08:46:40Z</time>
      </trkpt>
      <trkpt lat="71.049528960138559" lon="25.760484980419278">
        <ele>222.19999999999999</ele>
        <time>2017-06-26T08:46:41Z</time>
      </trkpt>
      <trkpt lat="71.049716966226697" lon="25.76085202395916">
        <ele>220.28</ele>
        <time>2017-06-26T08:46:42Z</time>
      </trkpt>
      <trkpt lat="71.051683025434613" lon="25.764751033857465">
        <ele>204.41999999999999</ele>
        <time>2017-06-26T08:46:52Z</time>
      </trkpt>
      <trkpt lat="71.053012982010841" lon="25.765604982152581">
        <ele>203.94</ele>
        <time>2017-06-26T08:46:58Z</time>
      </trkpt>
      <trkpt lat="71.054328018799424" lon="25.764950020238757">
        <ele>209.69999999999999</ele>
        <time>2017-06-26T08:47:04Z</time>
      </trkpt>
      <trkpt lat="71.056384015828371" lon="25.763962967321277">
        <ele>210.19</ele>
        <time>2017-06-26T08:47:14Z</time>
      </trkpt>
      <trkpt lat="71.058017984032631" lon="25.764781963080168">
        <ele>208.25999999999999</ele>
        <time>2017-06-26T08:47:22Z</time>
      </trkpt>
      <trkpt lat="71.059987982735038" lon="25.767403990030289">
        <ele>201.53</ele>
        <time>2017-06-26T08:47:32Z</time>
      </trkpt>
      <trkpt lat="71.061124987900257" lon="25.77056203968823">
        <ele>192.40000000000001</ele>
        <time>2017-06-26T08:47:39Z</time>
      </trkpt>
      <trkpt lat="71.062049008905888" lon="25.775240985676646">
        <ele>181.34999999999999</ele>
        <time>2017-06-26T08:47:47Z</time>
      </trkpt>
      <trkpt lat="71.063115019351244" lon="25.778742022812366">
        <ele>172.21000000000001</ele>
        <time>2017-06-26T08:47:54Z</time>
      </trkpt>
      <trkpt lat="71.064844960346818" lon="25.784209035336971">
        <ele>157.78999999999999</ele>
        <time>2017-06-26T08:48:05Z</time>
      </trkpt>
      <trkpt lat="71.066039968281984" lon="25.787957003340125">
        <ele>145.30000000000001</ele>
        <time>2017-06-26T08:48:13Z</time>
      </trkpt>
      <trkpt lat="71.067076977342367" lon="25.789156034588814">
        <ele>136.63999999999999</ele>
        <time>2017-06-26T08:48:18Z</time>
      </trkpt>
      <trkpt lat="71.067303959280252" lon="25.789248989894986">
        <ele>135.19999999999999</ele>
        <time>2017-06-26T08:48:19Z</time>
      </trkpt>
      <trkpt lat="71.06753203086555" lon="25.789290983229876">
        <ele>133.28</ele>
        <time>2017-06-26T08:48:20Z</time>
      </trkpt>
      <trkpt lat="71.067758006975055" lon="25.789286959916353">
        <ele>131.36000000000001</ele>
        <time>2017-06-26T08:48:21Z</time>
      </trkpt>
      <trkpt lat="71.067990018054843" lon="25.789244966581464">
        <ele>129.91999999999999</ele>
        <time>2017-06-26T08:48:22Z</time>
      </trkpt>
      <trkpt lat="71.068221023306251" lon="25.789158968254924">
        <ele>128.47</ele>
        <time>2017-06-26T08:48:23Z</time>
      </trkpt>
      <trkpt lat="71.068451022729278" lon="25.789022007957101">
        <ele>127.51000000000001</ele>
        <time>2017-06-26T08:48:24Z</time>
      </trkpt>
      <trkpt lat="71.068680016323924" lon="25.78882503323257">
        <ele>127.03</ele>
        <time>2017-06-26T08:48:25Z</time>
      </trkpt>
      <trkpt lat="71.068905992433429" lon="25.78856703825295">
        <ele>126.55</ele>
        <time>2017-06-26T08:48:26Z</time>
      </trkpt>
      <trkpt lat="71.069126017391682" lon="25.788242993876338">
        <ele>126.06999999999999</ele>
        <time>2017-06-26T08:48:27Z</time>
      </trkpt>
      <trkpt lat="71.069333972409368" lon="25.787862036377192">
        <ele>126.06999999999999</ele>
        <time>2017-06-26T08:48:28Z</time>
      </trkpt>
      <trkpt lat="71.06953396461904" lon="25.78743296675384">
        <ele>126.55</ele>
        <time>2017-06-26T08:48:29Z</time>
      </trkpt>
      <trkpt lat="71.069723982363939" lon="25.78695997595787">
        <ele>126.55</ele>
        <time>2017-06-26T08:48:30Z</time>
      </trkpt>
      <trkpt lat="71.069902013987303" lon="25.786447003483772">
        <ele>127.03</ele>
        <time>2017-06-26T08:48:31Z</time>
      </trkpt>
      <trkpt lat="71.070066969841719" lon="25.785888014361262">
        <ele>127.51000000000001</ele>
        <time>2017-06-26T08:48:32Z</time>
      </trkpt>
      <trkpt lat="71.07021801173687" lon="25.78530203551054">
        <ele>127.51000000000001</ele>
        <time>2017-06-26T08:48:33Z</time>
      </trkpt>
      <trkpt lat="71.070353966206312" lon="25.78468001447618">
        <ele>127.98999999999999</ele>
        <time>2017-06-26T08:48:34Z</time>
      </trkpt>
      <trkpt lat="71.070468965917826" lon="25.784026980400085">
        <ele>128.47</ele>
        <time>2017-06-26T08:48:35Z</time>
      </trkpt>
      <trkpt lat="71.070572985336185" lon="25.783365983515978">
        <ele>128.94999999999999</ele>
        <time>2017-06-26T08:48:36Z</time>
      </trkpt>
      <trkpt lat="71.070658983662724" lon="25.782683026045561">
        <ele>129.91999999999999</ele>
        <time>2017-06-26T08:48:37Z</time>
      </trkpt>
      <trkpt lat="71.070731990039349" lon="25.781987998634577">
        <ele>131.36000000000001</ele>
        <time>2017-06-26T08:48:38Z</time>
      </trkpt>
      <trkpt lat="71.071602031588554" lon="25.776242036372423">
        <ele>140.00999999999999</ele>
        <time>2017-06-26T08:48:47Z</time>
      </trkpt>
      <trkpt lat="71.072682961821556" lon="25.773995015770197">
        <ele>137.61000000000001</ele>
        <time>2017-06-26T08:48:53Z</time>
      </trkpt>
      <trkpt lat="71.074004033580422" lon="25.773394033312798">
        <ele>131.84</ele>
        <time>2017-06-26T08:48:59Z</time>
      </trkpt>
      <trkpt lat="71.07636597007513" lon="25.773050962015986">
        <ele>114.05</ele>
        <time>2017-06-26T08:49:09Z</time>
      </trkpt>
      <trkpt lat="71.078372010961175" lon="25.77131699770689">
        <ele>96.75</ele>
        <time>2017-06-26T08:49:18Z</time>
      </trkpt>
      <trkpt lat="71.079847980290651" lon="25.770595986396074">
        <ele>82.810000000000002</ele>
        <time>2017-06-26T08:49:25Z</time>
      </trkpt>
      <trkpt lat="71.08094098046422" lon="25.771536016836762">
        <ele>71.760000000000005</ele>
        <time>2017-06-26T08:49:31Z</time>
      </trkpt>
      <trkpt lat="71.08186399564147" lon="25.773412976413965">
        <ele>63.100000000000001</ele>
        <time>2017-06-26T08:49:38Z</time>
      </trkpt>
      <trkpt lat="71.082217963412404" lon="25.774211017414927">
        <ele>60.219999999999999</ele>
        <time>2017-06-26T08:49:44Z</time>
      </trkpt>
      <trkpt lat="71.082325000315905" lon="25.774572025984526">
        <ele>58.299999999999997</ele>
        <time>2017-06-26T08:49:55Z</time>
      </trkpt>
      <trkpt lat="71.082326006144285" lon="25.774574959650636">
        <ele>58.299999999999997</ele>
        <time>2017-06-26T08:50:13Z</time>
      </trkpt>
      <trkpt lat="71.08231502585113" lon="25.774551993235946">
        <ele>58.780000000000001</ele>
        <time>2017-06-26T08:50:33Z</time>
      </trkpt>
      <trkpt lat="71.082312008365989" lon="25.774545036256313">
        <ele>58.780000000000001</ele>
        <time>2017-06-26T08:51:24Z</time>
      </trkpt>
      <trkpt lat="71.082311002537608" lon="25.774554004892707">
        <ele>58.299999999999997</ele>
        <time>2017-06-26T08:52:32Z</time>
      </trkpt>
      <trkpt lat="71.082369005307555" lon="25.77449600212276">
        <ele>58.780000000000001</ele>
        <time>2017-06-26T08:52:35Z</time>
      </trkpt>
      <trkpt lat="71.082414016127586" lon="25.774545036256313">
        <ele>58.780000000000001</ele>
        <time>2017-06-26T08:52:36Z</time>
      </trkpt>
      <trkpt lat="71.082469001412392" lon="25.774656012654305">
        <ele>58.780000000000001</ele>
        <time>2017-06-26T08:52:37Z</time>
      </trkpt>
      <trkpt lat="71.082532033324242" lon="25.774829015135765">
        <ele>58.780000000000001</ele>
        <time>2017-06-26T08:52:38Z</time>
      </trkpt>
      <trkpt lat="71.083249021321535" lon="25.776373967528343">
        <ele>54.93</ele>
        <time>2017-06-26T08:52:45Z</time>
      </trkpt>
      <trkpt lat="71.084440005943179" lon="25.778571031987667">
        <ele>50.609999999999999</ele>
        <time>2017-06-26T08:52:52Z</time>
      </trkpt>
      <trkpt lat="71.086134994402528" lon="25.780011964961886">
        <ele>44.840000000000003</ele>
        <time>2017-06-26T08:52:59Z</time>
      </trkpt>
      <trkpt lat="71.089237974956632" lon="25.780929028987885">
        <ele>43.399999999999999</ele>
        <time>2017-06-26T08:53:11Z</time>
      </trkpt>
      <trkpt lat="71.090810000896454" lon="25.781839974224567">
        <ele>43.399999999999999</ele>
        <time>2017-06-26T08:53:19Z</time>
      </trkpt>
      <trkpt lat="71.091203028336167" lon="25.782239036634564">
        <ele>43.880000000000003</ele>
        <time>2017-06-26T08:53:23Z</time>
      </trkpt>
      <trkpt lat="71.091265976428986" lon="25.782191008329391">
        <ele>43.880000000000003</ele>
        <time>2017-06-26T08:53:24Z</time>
      </trkpt>
      <trkpt lat="71.091321967542171" lon="25.782053964212537">
        <ele>44.359999999999999</ele>
        <time>2017-06-26T08:53:25Z</time>
      </trkpt>
      <trkpt lat="71.091375024989247" lon="25.781825976446271">
        <ele>44.359999999999999</ele>
        <time>2017-06-26T08:53:26Z</time>
      </trkpt>
      <trkpt lat="71.091421041637659" lon="25.781516013666987">
        <ele>43.880000000000003</ele>
        <time>2017-06-26T08:53:27Z</time>
      </trkpt>
      <trkpt lat="71.09146798029542" lon="25.781141007319093">
        <ele>43.880000000000003</ele>
        <time>2017-06-26T08:53:28Z</time>
      </trkpt>
      <trkpt lat="71.091587003320456" lon="25.779746007174253">
        <ele>45.32</ele>
        <time>2017-06-26T08:53:31Z</time>
      </trkpt>
      <trkpt lat="71.091605024412274" lon="25.779231023043394">
        <ele>47.240000000000002</ele>
        <time>2017-06-26T08:53:32Z</time>
      </trkpt>
      <trkpt lat="71.091654980555177" lon="25.777725968509912">
        <ele>51.090000000000003</ele>
        <time>2017-06-26T08:53:35Z</time>
      </trkpt>
      <trkpt lat="71.091708960011601" lon="25.777265969663858">
        <ele>52.530000000000001</ele>
        <time>2017-06-26T08:53:36Z</time>
      </trkpt>
      <trkpt lat="71.091784983873367" lon="25.776842013001442">
        <ele>53.490000000000002</ele>
        <time>2017-06-26T08:53:37Z</time>
      </trkpt>
      <trkpt lat="71.091882968321443" lon="25.776432976126671">
        <ele>53.969999999999999</ele>
        <time>2017-06-26T08:53:38Z</time>
      </trkpt>
      <trkpt lat="71.091996962204576" lon="25.776027040556073">
        <ele>54.93</ele>
        <time>2017-06-26T08:53:39Z</time>
      </trkpt>
      <trkpt lat="71.092450004070997" lon="25.774209005758166">
        <ele>60.219999999999999</ele>
        <time>2017-06-26T08:53:43Z</time>
      </trkpt>
      <trkpt lat="71.092538014054298" lon="25.773694021627307">
        <ele>62.140000000000001</ele>
        <time>2017-06-26T08:53:44Z</time>
      </trkpt>
      <trkpt lat="71.092776982113719" lon="25.772231966257095">
        <ele>66.950000000000003</ele>
        <time>2017-06-26T08:53:47Z</time>
      </trkpt>
      <trkpt lat="71.092874966561794" lon="25.771887972950935">
        <ele>68.390000000000001</ele>
        <time>2017-06-26T08:53:48Z</time>
      </trkpt>
      <trkpt lat="71.092989966273308" lon="25.771624026820064">
        <ele>69.349999999999994</ele>
        <time>2017-06-26T08:53:49Z</time>
      </trkpt>
      <trkpt lat="71.093117035925388" lon="25.771425040438771">
        <ele>70.790000000000006</ele>
        <time>2017-06-26T08:53:50Z</time>
      </trkpt>
      <trkpt lat="71.093248967081308" lon="25.771261006593704">
        <ele>72.239999999999995</ele>
        <time>2017-06-26T08:53:51Z</time>
      </trkpt>
      <trkpt lat="71.093371007591486" lon="25.77110099606216">
        <ele>72.719999999999999</ele>
        <time>2017-06-26T08:53:52Z</time>
      </trkpt>
      <trkpt lat="71.093474021181464" lon="25.77088600024581">
        <ele>73.680000000000007</ele>
        <time>2017-06-26T08:53:53Z</time>
      </trkpt>
      <trkpt lat="71.09355297870934" lon="25.770592968910933">
        <ele>73.680000000000007</ele>
        <time>2017-06-26T08:53:54Z</time>
      </trkpt>
      <trkpt lat="71.093625985085964" lon="25.770234977826476">
        <ele>74.640000000000001</ele>
        <time>2017-06-26T08:53:55Z</time>
      </trkpt>
      <trkpt lat="71.093695973977447" lon="25.769851002842188">
        <ele>76.079999999999998</ele>
        <time>2017-06-26T08:53:56Z</time>
      </trkpt>
      <trkpt lat="71.093775015324354" lon="25.76946803368628">
        <ele>77.040000000000006</ele>
        <time>2017-06-26T08:53:57Z</time>
      </trkpt>
      <trkpt lat="71.093871993944049" lon="25.769115993753076">
        <ele>77.519999999999996</ele>
        <time>2017-06-26T08:53:58Z</time>
      </trkpt>
      <trkpt lat="71.093990011140704" lon="25.768796978518367">
        <ele>78.969999999999999</ele>
        <time>2017-06-26T08:53:59Z</time>
      </trkpt>
      <trkpt lat="71.094124037772417" lon="25.768517022952437">
        <ele>80.409999999999997</ele>
        <time>2017-06-26T08:54:00Z</time>
      </trkpt>
      <trkpt lat="71.094270972535014" lon="25.768275037407875">
        <ele>81.849999999999994</ele>
        <time>2017-06-26T08:54:01Z</time>
      </trkpt>
      <trkpt lat="71.094426037743688" lon="25.768080996349454">
        <ele>83.290000000000006</ele>
        <time>2017-06-26T08:54:02Z</time>
      </trkpt>
      <trkpt lat="71.094588981941342" lon="25.767916962504387">
        <ele>84.25</ele>
        <time>2017-06-26T08:54:03Z</time>
      </trkpt>
      <trkpt lat="71.094762990251184" lon="25.767764998599887">
        <ele>84.25</ele>
        <time>2017-06-26T08:54:04Z</time>
      </trkpt>
      <trkpt lat="71.096141980960965" lon="25.766492960974574">
        <ele>82.329999999999998</ele>
        <time>2017-06-26T08:54:11Z</time>
      </trkpt>
      <trkpt lat="71.097839986905456" lon="25.764887994155288">
        <ele>70.790000000000006</ele>
        <time>2017-06-26T08:54:20Z</time>
      </trkpt>
      <trkpt lat="71.099101966246963" lon="25.764470994472504">
        <ele>63.579999999999998</ele>
        <time>2017-06-26T08:54:26Z</time>
      </trkpt>
      <trkpt lat="71.10040501691401" lon="25.764018958434463">
        <ele>67.430000000000007</ele>
        <time>2017-06-26T08:54:33Z</time>
      </trkpt>
      <trkpt lat="71.100552035495639" lon="25.763854002580047">
        <ele>67.430000000000007</ele>
        <time>2017-06-26T08:54:34Z</time>
      </trkpt>
      <trkpt lat="71.100690001621842" lon="25.763617968186736">
        <ele>67.909999999999997</ele>
        <time>2017-06-26T08:54:35Z</time>
      </trkpt>
      <trkpt lat="71.10081497579813" lon="25.763308005407453">
        <ele>67.909999999999997</ele>
        <time>2017-06-26T08:54:36Z</time>
      </trkpt>
      <trkpt lat="71.100923018530011" lon="25.762954037636518">
        <ele>68.390000000000001</ele>
        <time>2017-06-26T08:54:37Z</time>
      </trkpt>
      <trkpt lat="71.101017985492945" lon="25.762566039338708">
        <ele>69.349999999999994</ele>
        <time>2017-06-26T08:54:38Z</time>
      </trkpt>
      <trkpt lat="71.101085040718317" lon="25.762136969715357">
        <ele>69.829999999999998</ele>
        <time>2017-06-26T08:54:39Z</time>
      </trkpt>
      <trkpt lat="71.101128039881587" lon="25.761683005839586">
        <ele>71.269999999999996</ele>
        <time>2017-06-26T08:54:40Z</time>
      </trkpt>
      <trkpt lat="71.101147988811135" lon="25.761200040578842">
        <ele>72.239999999999995</ele>
        <time>2017-06-26T08:54:41Z</time>
      </trkpt>
      <trkpt lat="71.101142037659883" lon="25.76070399954915">
        <ele>73.200000000000003</ele>
        <time>2017-06-26T08:54:42Z</time>
      </trkpt>
      <trkpt lat="71.101123010739684" lon="25.760195972397923">
        <ele>74.159999999999997</ele>
        <time>2017-06-26T08:54:43Z</time>
      </trkpt>
      <trkpt lat="71.101088980212808" lon="25.759665984660387">
        <ele>74.640000000000001</ele>
        <time>2017-06-26T08:54:44Z</time>
      </trkpt>
      <trkpt lat="71.10066301189363" lon="25.753071019425988">
        <ele>85.209999999999994</ele>
        <time>2017-06-26T08:54:55Z</time>
      </trkpt>
      <trkpt lat="71.100487997755408" lon="25.748516963794827">
        <ele>90.5</ele>
        <time>2017-06-26T08:55:02Z</time>
      </trkpt>
      <trkpt lat="71.100518004968762" lon="25.747930984944105">
        <ele>91.459999999999994</ele>
        <time>2017-06-26T08:55:03Z</time>
      </trkpt>
      <trkpt lat="71.100567039102316" lon="25.747346011921763">
        <ele>91.939999999999998</ele>
        <time>2017-06-26T08:55:04Z</time>
      </trkpt>
      <trkpt lat="71.101091997697949" lon="25.74256899766624">
        <ele>92.420000000000002</ele>
        <time>2017-06-26T08:55:12Z</time>
      </trkpt>
      <trkpt lat="71.10115896910429" lon="25.742151997983456">
        <ele>92.420000000000002</ele>
        <time>2017-06-26T08:55:13Z</time>
      </trkpt>
      <trkpt lat="71.101240022107959" lon="25.741800963878632">
        <ele>92.420000000000002</ele>
        <time>2017-06-26T08:55:14Z</time>
      </trkpt>
      <trkpt lat="71.101345969364047" lon="25.741501981392503">
        <ele>91.939999999999998</ele>
        <time>2017-06-26T08:55:15Z</time>
      </trkpt>
      <trkpt lat="71.101474966853857" lon="25.74123702943325">
        <ele>91.459999999999994</ele>
        <time>2017-06-26T08:55:16Z</time>
      </trkpt>
      <trkpt lat="71.101617040112615" lon="25.740990014746785">
        <ele>91.459999999999994</ele>
        <time>2017-06-26T08:55:17Z</time>
      </trkpt>
      <trkpt lat="71.101766992360353" lon="25.740761021152139">
        <ele>90.980000000000004</ele>
        <time>2017-06-26T08:55:18Z</time>
      </trkpt>
      <trkpt lat="71.10223202034831" lon="25.740142017602921">
        <ele>90.019999999999996</ele>
        <time>2017-06-26T08:55:21Z</time>
      </trkpt>
      <trkpt lat="71.102393958717585" lon="25.740019977092743">
        <ele>90.019999999999996</ele>
        <time>2017-06-26T08:55:22Z</time>
      </trkpt>
      <trkpt lat="71.102562015876174" lon="25.739955017343163">
        <ele>89.540000000000006</ele>
        <time>2017-06-26T08:55:23Z</time>
      </trkpt>
      <trkpt lat="71.102737030014396" lon="25.739939007908106">
        <ele>89.060000000000002</ele>
        <time>2017-06-26T08:55:24Z</time>
      </trkpt>
      <trkpt lat="71.102914977818727" lon="25.739951999858022">
        <ele>88.099999999999994</ele>
        <time>2017-06-26T08:55:25Z</time>
      </trkpt>
      <trkpt lat="71.103093009442091" lon="25.739979995414615">
        <ele>87.140000000000001</ele>
        <time>2017-06-26T08:55:26Z</time>
      </trkpt>
      <trkpt lat="71.103589972481132" lon="25.739970020949841">
        <ele>84.25</ele>
        <time>2017-06-26T08:55:29Z</time>
      </trkpt>
      <trkpt lat="71.10373598523438" lon="25.739898020401597">
        <ele>82.810000000000002</ele>
        <time>2017-06-26T08:55:30Z</time>
      </trkpt>
      <trkpt lat="71.103866994380951" lon="25.739771034568548">
        <ele>81.849999999999994</ele>
        <time>2017-06-26T08:55:31Z</time>
      </trkpt>
      <trkpt lat="71.103987023234367" lon="25.739586967974901">
        <ele>81.370000000000005</ele>
        <time>2017-06-26T08:55:32Z</time>
      </trkpt>
      <trkpt lat="71.104108979925513" lon="25.739355962723494">
        <ele>80.890000000000001</ele>
        <time>2017-06-26T08:55:33Z</time>
      </trkpt>
      <trkpt lat="71.104223979637027" lon="25.739086987450719">
        <ele>80.409999999999997</ele>
        <time>2017-06-26T08:55:34Z</time>
      </trkpt>
      <trkpt lat="71.104340991005301" lon="25.738776018843055">
        <ele>79.930000000000007</ele>
        <time>2017-06-26T08:55:35Z</time>
      </trkpt>
      <trkpt lat="71.104459008201957" lon="25.738438982516527">
        <ele>79.450000000000003</ele>
        <time>2017-06-26T08:55:36Z</time>
      </trkpt>
      <trkpt lat="71.105930032208562" lon="25.734422961249948">
        <ele>66.950000000000003</ele>
        <time>2017-06-26T08:55:47Z</time>
      </trkpt>
      <trkpt lat="71.106682978570461" lon="25.732269985601306">
        <ele>71.269999999999996</ele>
        <time>2017-06-26T08:55:53Z</time>
      </trkpt>
      <trkpt lat="71.106760008260608" lon="25.731848962605">
        <ele>72.719999999999999</ele>
        <time>2017-06-26T08:55:54Z</time>
      </trkpt>
      <trkpt lat="71.106818011030555" lon="25.731387035921216">
        <ele>74.159999999999997</ele>
        <time>2017-06-26T08:55:55Z</time>
      </trkpt>
      <trkpt lat="71.106851035729051" lon="25.730895018205047">
        <ele>75.120000000000005</ele>
        <time>2017-06-26T08:55:56Z</time>
      </trkpt>
      <trkpt lat="71.106868973001838" lon="25.730380034074187">
        <ele>77.040000000000006</ele>
        <time>2017-06-26T08:55:57Z</time>
      </trkpt>
      <trkpt lat="71.106866039335728" lon="25.729847028851509">
        <ele>78.480000000000004</ele>
        <time>2017-06-26T08:55:58Z</time>
      </trkpt>
      <trkpt lat="71.106840977445245" lon="25.729310000315309">
        <ele>79.450000000000003</ele>
        <time>2017-06-26T08:55:59Z</time>
      </trkpt>
      <trkpt lat="71.106798984110355" lon="25.728774983435869">
        <ele>81.370000000000005</ele>
        <time>2017-06-26T08:56:00Z</time>
      </trkpt>
      <trkpt lat="71.106738969683647" lon="25.728238960728049">
        <ele>83.290000000000006</ele>
        <time>2017-06-26T08:56:01Z</time>
      </trkpt>
      <trkpt lat="71.106660012155771" lon="25.727708972990513">
        <ele>84.730000000000004</ele>
        <time>2017-06-26T08:56:02Z</time>
      </trkpt>
      <trkpt lat="71.106576025485992" lon="25.727199018001556">
        <ele>86.659999999999997</ele>
        <time>2017-06-26T08:56:03Z</time>
      </trkpt>
      <trkpt lat="71.106209987774491" lon="25.724061001092196">
        <ele>97.230000000000004</ele>
        <time>2017-06-26T08:56:09Z</time>
      </trkpt>
      <trkpt lat="71.10620403662324" lon="25.72357501834631">
        <ele>98.670000000000002</ele>
        <time>2017-06-26T08:56:10Z</time>
      </trkpt>
      <trkpt lat="71.106219962239265" lon="25.723117031157017">
        <ele>100.11</ele>
        <time>2017-06-26T08:56:11Z</time>
      </trkpt>
      <trkpt lat="71.106257010251284" lon="25.722664995118976">
        <ele>101.56</ele>
        <time>2017-06-26T08:56:12Z</time>
      </trkpt>
      <trkpt lat="71.106319036334753" lon="25.722227040678263">
        <ele>102.52</ele>
        <time>2017-06-26T08:56:13Z</time>
      </trkpt>
      <trkpt lat="71.10640000551939" lon="25.721799982711673">
        <ele>103.48</ele>
        <time>2017-06-26T08:56:14Z</time>
      </trkpt>
      <trkpt lat="71.106493966653943" lon="25.721378959715366">
        <ele>105.40000000000001</ele>
        <time>2017-06-26T08:56:15Z</time>
      </trkpt>
      <trkpt lat="71.10659496858716" lon="25.720967995002866">
        <ele>105.88</ele>
        <time>2017-06-26T08:56:16Z</time>
      </trkpt>
      <trkpt lat="71.10717399045825" lon="25.718168020248413">
        <ele>113.56999999999999</ele>
        <time>2017-06-26T08:56:22Z</time>
      </trkpt>
      <trkpt lat="71.107232999056578" lon="25.717634009197354">
        <ele>114.53</ele>
        <time>2017-06-26T08:56:23Z</time>
      </trkpt>
      <trkpt lat="71.107274992391467" lon="25.717089017853141">
        <ele>115.98</ele>
        <time>2017-06-26T08:56:24Z</time>
      </trkpt>
      <trkpt lat="71.107303993776441" lon="25.716520976275206">
        <ele>117.42</ele>
        <time>2017-06-26T08:56:25Z</time>
      </trkpt>
      <trkpt lat="71.107317991554737" lon="25.715940026566386">
        <ele>118.86</ele>
        <time>2017-06-26T08:56:26Z</time>
      </trkpt>
      <trkpt lat="71.10732302069664" lon="25.715352036058903">
        <ele>120.78</ele>
        <time>2017-06-26T08:56:27Z</time>
      </trkpt>
      <trkpt lat="71.107342969626188" lon="25.712899994105101">
        <ele>127.03</ele>
        <time>2017-06-26T08:56:31Z</time>
      </trkpt>
      <trkpt lat="71.107378005981445" lon="25.712279984727502">
        <ele>128.47</ele>
        <time>2017-06-26T08:56:32Z</time>
      </trkpt>
      <trkpt lat="71.107427040114999" lon="25.711666010320187">
        <ele>129.91999999999999</ele>
        <time>2017-06-26T08:56:33Z</time>
      </trkpt>
      <trkpt lat="71.107634995132685" lon="25.709327040240169">
        <ele>137.61000000000001</ele>
        <time>2017-06-26T08:56:37Z</time>
      </trkpt>
      <trkpt lat="71.10764698125422" lon="25.708756987005472">
        <ele>139.05000000000001</ele>
        <time>2017-06-26T08:56:38Z</time>
      </trkpt>
      <trkpt lat="71.107642035931349" lon="25.708184000104666">
        <ele>140.97</ele>
        <time>2017-06-26T08:56:39Z</time>
      </trkpt>
      <trkpt lat="71.107619991526008" lon="25.707610007375479">
        <ele>142.88999999999999</ele>
        <time>2017-06-26T08:56:40Z</time>
      </trkpt>
      <trkpt lat="71.107593001797795" lon="25.707029979676008">
        <ele>144.34</ele>
        <time>2017-06-26T08:56:41Z</time>
      </trkpt>
      <trkpt lat="71.107294019311666" lon="25.699189966544509">
        <ele>164.03999999999999</ele>
        <time>2017-06-26T08:56:53Z</time>
      </trkpt>
      <trkpt lat="71.107277004048228" lon="25.696062007918954">
        <ele>173.66</ele>
        <time>2017-06-26T08:56:58Z</time>
      </trkpt>
      <trkpt lat="71.107313968241215" lon="25.695609971880913">
        <ele>175.09999999999999</ele>
        <time>2017-06-26T08:56:59Z</time>
      </trkpt>
      <trkpt lat="71.107369959354401" lon="25.695206969976425">
        <ele>176.06</ele>
        <time>2017-06-26T08:57:00Z</time>
      </trkpt>
      <trkpt lat="71.107449000701308" lon="25.694832969456911">
        <ele>177.5</ele>
        <time>2017-06-26T08:57:01Z</time>
      </trkpt>
      <trkpt lat="71.107537010684609" lon="25.69448403082788">
        <ele>178.46000000000001</ele>
        <time>2017-06-26T08:57:02Z</time>
      </trkpt>
      <trkpt lat="71.107627032324672" lon="25.694175995886326">
        <ele>179.41999999999999</ele>
        <time>2017-06-26T08:57:03Z</time>
      </trkpt>
      <trkpt lat="71.107714036479592" lon="25.693910960108042">
        <ele>180.38</ele>
        <time>2017-06-26T08:57:04Z</time>
      </trkpt>
      <trkpt lat="71.107801962643862" lon="25.693696970120072">
        <ele>181.83000000000001</ele>
        <time>2017-06-26T08:57:05Z</time>
      </trkpt>
      <trkpt lat="71.107898019254208" lon="25.693535031750798">
        <ele>181.83000000000001</ele>
        <time>2017-06-26T08:57:06Z</time>
      </trkpt>
      <trkpt lat="71.108000027015805" lon="25.693447021767497">
        <ele>182.78999999999999</ele>
        <time>2017-06-26T08:57:07Z</time>
      </trkpt>
      <trkpt lat="71.108114020898938" lon="25.693436041474342">
        <ele>183.75</ele>
        <time>2017-06-26T08:57:08Z</time>
      </trkpt>
      <trkpt lat="71.108228014782071" lon="25.693479962646961">
        <ele>184.22999999999999</ele>
        <time>2017-06-26T08:57:09Z</time>
      </trkpt>
      <trkpt lat="71.108350977301598" lon="25.693566966801882">
        <ele>185.66999999999999</ele>
        <time>2017-06-26T08:57:10Z</time>
      </trkpt>
      <trkpt lat="71.109161004424095" lon="25.694140959531069">
        <ele>193.36000000000001</ele>
        <time>2017-06-26T08:57:16Z</time>
      </trkpt>
      <trkpt lat="71.109272986650467" lon="25.694323014467955">
        <ele>195.28</ele>
        <time>2017-06-26T08:57:17Z</time>
      </trkpt>
      <trkpt lat="71.109372982755303" lon="25.694577991962433">
        <ele>196.72999999999999</ele>
        <time>2017-06-26T08:57:18Z</time>
      </trkpt>
      <trkpt lat="71.109459986910224" lon="25.694899018853903">
        <ele>197.69</ele>
        <time>2017-06-26T08:57:19Z</time>
      </trkpt>
      <trkpt lat="71.109541039913893" lon="25.695270001888275">
        <ele>198.65000000000001</ele>
        <time>2017-06-26T08:57:20Z</time>
      </trkpt>
      <trkpt lat="71.109627038240433" lon="25.695662023499608">
        <ele>199.61000000000001</ele>
        <time>2017-06-26T08:57:21Z</time>
      </trkpt>
      <trkpt lat="71.10972804017365" lon="25.696030994877219">
        <ele>201.53</ele>
        <time>2017-06-26T08:57:22Z</time>
      </trkpt>
      <trkpt lat="71.109844967722893" lon="25.696364007890224">
        <ele>203.46000000000001</ele>
        <time>2017-06-26T08:57:23Z</time>
      </trkpt>
      <trkpt lat="71.109976982697845" lon="25.696643963456154">
        <ele>204.90000000000001</ele>
        <time>2017-06-26T08:57:24Z</time>
      </trkpt>
      <trkpt lat="71.11011897213757" lon="25.696868011727929">
        <ele>206.34</ele>
        <time>2017-06-26T08:57:25Z</time>
      </trkpt>
      <trkpt lat="71.110269008204341" lon="25.697028022259474">
        <ele>207.78</ele>
        <time>2017-06-26T08:57:26Z</time>
      </trkpt>
      <trkpt lat="71.110427007079124" lon="25.69710798561573">
        <ele>209.22</ele>
        <time>2017-06-26T08:57:27Z</time>
      </trkpt>
      <trkpt lat="71.110591040924191" lon="25.697132963687181">
        <ele>210.66999999999999</ele>
        <time>2017-06-26T08:57:28Z</time>
      </trkpt>
      <trkpt lat="71.110755996778607" lon="25.697122989222407">
        <ele>212.11000000000001</ele>
        <time>2017-06-26T08:57:29Z</time>
      </trkpt>
      <trkpt lat="71.111094038933516" lon="25.697245029732585">
        <ele>215.94999999999999</ele>
        <time>2017-06-26T08:57:31Z</time>
      </trkpt>
      <trkpt lat="71.111261006444693" lon="25.697397999465466">
        <ele>217.88</ele>
        <time>2017-06-26T08:57:32Z</time>
      </trkpt>
      <trkpt lat="71.11142897978425" lon="25.6976000033319">
        <ele>219.31999999999999</ele>
        <time>2017-06-26T08:57:33Z</time>
      </trkpt>
      <trkpt lat="71.111596031114459" lon="25.697848023846745">
        <ele>220.75999999999999</ele>
        <time>2017-06-26T08:57:34Z</time>
      </trkpt>
      <trkpt lat="71.111762998625636" lon="25.698138037696481">
        <ele>222.68000000000001</ele>
        <time>2017-06-26T08:57:35Z</time>
      </trkpt>
      <trkpt lat="71.111933989450336" lon="25.698463004082441">
        <ele>223.63999999999999</ele>
        <time>2017-06-26T08:57:36Z</time>
      </trkpt>
      <trkpt lat="71.113226981833577" lon="25.700961984694004">
        <ele>237.58000000000001</ele>
        <time>2017-06-26T08:57:44Z</time>
      </trkpt>
      <trkpt lat="71.113393027335405" lon="25.70110397413373">
        <ele>239.50999999999999</ele>
        <time>2017-06-26T08:57:45Z</time>
      </trkpt>
      <trkpt lat="71.113568041473627" lon="25.701173041015863">
        <ele>240.94999999999999</ele>
        <time>2017-06-26T08:57:46Z</time>
      </trkpt>
      <trkpt lat="71.114742010831833" lon="25.700817983597517">
        <ele>251.03999999999999</ele>
        <time>2017-06-26T08:57:52Z</time>
      </trkpt>
      <trkpt lat="71.114942003041506" lon="25.700592007488012">
        <ele>252.96000000000001</ele>
        <time>2017-06-26T08:57:53Z</time>
      </trkpt>
      <trkpt lat="71.115610962733626" lon="25.699833026155829">
        <ele>259.69</ele>
        <time>2017-06-26T08:57:57Z</time>
      </trkpt>
      <trkpt lat="71.115772984921932" lon="25.69979396648705">
        <ele>261.13999999999999</ele>
        <time>2017-06-26T08:57:58Z</time>
      </trkpt>
      <trkpt lat="71.115943975746632" lon="25.69983403198421">
        <ele>262.57999999999998</ele>
        <time>2017-06-26T08:57:59Z</time>
      </trkpt>
      <trkpt lat="71.116115972399712" lon="25.699950959533453">
        <ele>263.54000000000002</ele>
        <time>2017-06-26T08:58:00Z</time>
      </trkpt>
      <trkpt lat="71.116287969052792" lon="25.700149023905396">
        <ele>264.5</ele>
        <time>2017-06-26T08:58:01Z</time>
      </trkpt>
      <trkpt lat="71.116461977362633" lon="25.700386986136436">
        <ele>265.94</ele>
        <time>2017-06-26T08:58:02Z</time>
      </trkpt>
      <trkpt lat="71.116632968187332" lon="25.700666019693017">
        <ele>266.89999999999998</ele>
        <time>2017-06-26T08:58:03Z</time>
      </trkpt>
      <trkpt lat="71.118611013516784" lon="25.703703034669161">
        <ele>283.25</ele>
        <time>2017-06-26T08:58:13Z</time>
      </trkpt>
      <trkpt lat="71.120639014989138" lon="25.707089994102716">
        <ele>293.81999999999999</ele>
        <time>2017-06-26T08:58:23Z</time>
      </trkpt>
      <trkpt lat="71.121651967987418" lon="25.70911799557507">
        <ele>290.45999999999998</ele>
        <time>2017-06-26T08:58:29Z</time>
      </trkpt>
      <trkpt lat="71.122763995081186" lon="25.711326962336898">
        <ele>285.17000000000002</ele>
        <time>2017-06-26T08:58:36Z</time>
      </trkpt>
      <trkpt lat="71.124927029013634" lon="25.715602990239859">
        <ele>274.58999999999997</ele>
        <time>2017-06-26T08:58:46Z</time>
      </trkpt>
      <trkpt lat="71.128286998718977" lon="25.722216982394457">
        <ele>289.00999999999999</ele>
        <time>2017-06-26T08:59:01Z</time>
      </trkpt>
      <trkpt lat="71.131705977022648" lon="25.728966007009149">
        <ele>279.39999999999998</ele>
        <time>2017-06-26T08:59:18Z</time>
      </trkpt>
      <trkpt lat="71.133253024891019" lon="25.731973014771938">
        <ele>279.88</ele>
        <time>2017-06-26T08:59:27Z</time>
      </trkpt>
      <trkpt lat="71.134838964790106" lon="25.735175991430879">
        <ele>272.67000000000002</ele>
        <time>2017-06-26T08:59:35Z</time>
      </trkpt>
      <trkpt lat="71.137310033664107" lon="25.740045960992575">
        <ele>266.42000000000002</ele>
        <time>2017-06-26T08:59:47Z</time>
      </trkpt>
      <trkpt lat="71.138335978612304" lon="25.742305973544717">
        <ele>256.81</ele>
        <time>2017-06-26T08:59:53Z</time>
      </trkpt>
      <trkpt lat="71.138459024950862" lon="25.742730014026165">
        <ele>254.88999999999999</ele>
        <time>2017-06-26T08:59:54Z</time>
      </trkpt>
      <trkpt lat="71.138560026884079" lon="25.743204010650516">
        <ele>253.44</ele>
        <time>2017-06-26T08:59:55Z</time>
      </trkpt>
      <trkpt lat="71.13865097053349" lon="25.743737015873194">
        <ele>252</ele>
        <time>2017-06-26T08:59:56Z</time>
      </trkpt>
      <trkpt lat="71.138735041022301" lon="25.744324000552297">
        <ele>250.56</ele>
        <time>2017-06-26T08:59:57Z</time>
      </trkpt>
      <trkpt lat="71.138809975236654" lon="25.74495499022305">
        <ele>249.12</ele>
        <time>2017-06-26T08:59:58Z</time>
      </trkpt>
      <trkpt lat="71.139512965455651" lon="25.751372007653117">
        <ele>232.30000000000001</ele>
        <time>2017-06-26T09:00:07Z</time>
      </trkpt>
      <trkpt lat="71.139872968196869" lon="25.753951035439968">
        <ele>227.97</ele>
        <time>2017-06-26T09:00:11Z</time>
      </trkpt>
      <trkpt lat="71.140000959858298" lon="25.75451698154211">
        <ele>227.49000000000001</ele>
        <time>2017-06-26T09:00:12Z</time>
      </trkpt>
      <trkpt lat="71.140152001753449" lon="25.755040012300014">
        <ele>227.49000000000001</ele>
        <time>2017-06-26T09:00:13Z</time>
      </trkpt>
      <trkpt lat="71.140315029770136" lon="25.755543010309339">
        <ele>227.49000000000001</ele>
        <time>2017-06-26T09:00:14Z</time>
      </trkpt>
      <trkpt lat="71.140486020594835" lon="25.756032010540366">
        <ele>227.49000000000001</ele>
        <time>2017-06-26T09:00:15Z</time>
      </trkpt>
      <trkpt lat="71.142358034849167" lon="25.760970963165164">
        <ele>213.06999999999999</ele>
        <time>2017-06-26T09:00:26Z</time>
      </trkpt>
      <trkpt lat="71.144436998292804" lon="25.764205036684871">
        <ele>208.25999999999999</ele>
        <time>2017-06-26T09:00:35Z</time>
      </trkpt>
      <trkpt lat="71.147957984358072" lon="25.769756035879254">
        <ele>238.53999999999999</ele>
        <time>2017-06-26T09:00:50Z</time>
      </trkpt>
      <trkpt lat="71.151330024003983" lon="25.775095978751779">
        <ele>265.94</ele>
        <time>2017-06-26T09:01:06Z</time>
      </trkpt>
      <trkpt lat="71.152479015290737" lon="25.77660396695137">
        <ele>275.56</ele>
        <time>2017-06-26T09:01:13Z</time>
      </trkpt>
      <trkpt lat="71.154349017888308" lon="25.777833005413413">
        <ele>273.14999999999998</ele>
        <time>2017-06-26T09:01:25Z</time>
      </trkpt>
      <trkpt lat="71.156237041577697" lon="25.778972022235394">
        <ele>271.23000000000002</ele>
        <time>2017-06-26T09:01:37Z</time>
      </trkpt>
      <trkpt lat="71.157069029286504" lon="25.779484994709492">
        <ele>274.58999999999997</ele>
        <time>2017-06-26T09:01:45Z</time>
      </trkpt>
      <trkpt lat="71.158335031941533" lon="25.780218997970223">
        <ele>270.75</ele>
        <time>2017-06-26T09:01:53Z</time>
      </trkpt>
      <trkpt lat="71.158854039385915" lon="25.780427036806941">
        <ele>268.82999999999998</ele>
        <time>2017-06-26T09:01:56Z</time>
      </trkpt>
      <trkpt lat="71.159012960270047" lon="25.780412033200264">
        <ele>267.86000000000001</ele>
        <time>2017-06-26T09:01:57Z</time>
      </trkpt>
      <trkpt lat="71.159165007993579" lon="25.780333997681737">
        <ele>267.38</ele>
        <time>2017-06-26T09:01:58Z</time>
      </trkpt>
      <trkpt lat="71.159315966069698" lon="25.780197959393263">
        <ele>265.94</ele>
        <time>2017-06-26T09:01:59Z</time>
      </trkpt>
      <trkpt lat="71.159467007964849" lon="25.780025040730834">
        <ele>264.98000000000002</ele>
        <time>2017-06-26T09:02:00Z</time>
      </trkpt>
      <trkpt lat="71.159616038203239" lon="25.779829993844032">
        <ele>263.54000000000002</ele>
        <time>2017-06-26T09:02:01Z</time>
      </trkpt>
      <trkpt lat="71.160915987566113" lon="25.778897004202008">
        <ele>252.47999999999999</ele>
        <time>2017-06-26T09:02:09Z</time>
      </trkpt>
      <trkpt lat="71.162539981305599" lon="25.778393000364304">
        <ele>259.20999999999998</ele>
        <time>2017-06-26T09:02:19Z</time>
      </trkpt>
      <trkpt lat="71.163634993135929" lon="25.777452969923615">
        <ele>268.82999999999998</ele>
        <time>2017-06-26T09:02:27Z</time>
      </trkpt>
      <trkpt lat="71.163777988404036" lon="25.777444001287222">
        <ele>269.79000000000002</ele>
        <time>2017-06-26T09:02:28Z</time>
      </trkpt>
      <trkpt lat="71.163921989500523" lon="25.777487000450492">
        <ele>270.75</ele>
        <time>2017-06-26T09:02:29Z</time>
      </trkpt>
      <trkpt lat="71.164072025567293" lon="25.777572998777032">
        <ele>271.23000000000002</ele>
        <time>2017-06-26T09:02:30Z</time>
      </trkpt>
      <trkpt lat="71.164232958108187" lon="25.77769797295332">
        <ele>271.70999999999998</ele>
        <time>2017-06-26T09:02:31Z</time>
      </trkpt>
      <trkpt lat="71.165343979373574" lon="25.778844030573964">
        <ele>274.58999999999997</ele>
        <time>2017-06-26T09:02:37Z</time>
      </trkpt>
      <trkpt lat="71.166088962927461" lon="25.779676018282771">
        <ele>277.48000000000002</ele>
        <time>2017-06-26T09:02:43Z</time>
      </trkpt>
      <trkpt lat="71.166361039504409" lon="25.78003903850913">
        <ele>278.44</ele>
        <time>2017-06-26T09:02:50Z</time>
      </trkpt>
      <trkpt lat="71.166460029780865" lon="25.780175998806953">
        <ele>278.92000000000002</ele>
        <time>2017-06-26T09:03:00Z</time>
      </trkpt>
      <trkpt lat="71.166461035609245" lon="25.780209023505449">
        <ele>278.92000000000002</ele>
        <time>2017-06-26T09:03:46Z</time>
      </trkpt>
      <trkpt lat="71.166542004793882" lon="25.780287981033325">
        <ele>279.39999999999998</ele>
        <time>2017-06-26T09:04:10Z</time>
      </trkpt>
      <trkpt lat="71.166543010622263" lon="25.780293010175228">
        <ele>279.88</ele>
        <time>2017-06-26T09:05:44Z</time>
      </trkpt>
      <trkpt lat="71.166624985635281" lon="25.780338020995259">
        <ele>280.83999999999997</ele>
        <time>2017-06-26T09:06:08Z</time>
      </trkpt>
      <trkpt lat="71.166624985635281" lon="25.780326034873724">
        <ele>281.31999999999999</ele>
        <time>2017-06-26T09:07:13Z</time>
      </trkpt>
      <trkpt lat="71.166691035032272" lon="25.78042896464467">
        <ele>281.80000000000001</ele>
        <time>2017-06-26T09:07:23Z</time>
      </trkpt>
      <trkpt lat="71.166749037802219" lon="25.780485961586237">
        <ele>281.80000000000001</ele>
        <time>2017-06-26T09:08:33Z</time>
      </trkpt>
      <trkpt lat="71.166812991723418" lon="25.780582018196583">
        <ele>281.80000000000001</ele>
        <time>2017-06-26T09:08:45Z</time>
      </trkpt>
      <trkpt lat="71.166864037513733" lon="25.780642032623291">
        <ele>282.27999999999997</ele>
        <time>2017-06-26T09:10:09Z</time>
      </trkpt>
      <trkpt lat="71.166853979229927" lon="25.780658964067698">
        <ele>282.76999999999998</ele>
        <time>2017-06-26T09:11:06Z</time>
      </trkpt>
      <trkpt lat="71.166892033070326" lon="25.780704980716109">
        <ele>283.25</ele>
        <time>2017-06-26T09:11:22Z</time>
      </trkpt>
      <trkpt lat="71.166989011690021" lon="25.780782010406256">
        <ele>283.73000000000002</ele>
        <time>2017-06-26T09:12:56Z</time>
      </trkpt>
      <trkpt lat="71.16761296056211" lon="25.781304035335779">
        <ele>287.56999999999999</ele>
        <time>2017-06-26T09:13:05Z</time>
      </trkpt>
      <trkpt lat="71.167971035465598" lon="25.781483994796872">
        <ele>289.97000000000003</ele>
        <time>2017-06-26T09:13:14Z</time>
      </trkpt>
    </trkseg>
  </trk>

  <trk>
    <name>Track vom: 26 JUN 2017 13:05</name>
    <extensions>
      <gpxx:TrackExtension>
        <gpxx:DisplayColor>DarkGray</gpxx:DisplayColor>
      </gpxx:TrackExtension>
    </extensions>
    <trkseg>
      <trkpt lat="71.168749965727329" lon="25.782977985218167">
        <ele>316.41000000000003</ele>
        <time>2017-06-26T11:05:53Z</time>
      </trkpt>
      <trkpt lat="71.168780978769064" lon="25.782396029680967">
        <ele>304.88</ele>
        <time>2017-06-26T11:08:15Z</time>
      </trkpt>
      <trkpt lat="71.168782990425825" lon="25.782335009425879">
        <ele>303.91000000000003</ele>
        <time>2017-06-26T11:09:25Z</time>
      </trkpt>
      <trkpt lat="71.168781984597445" lon="25.78231698833406">
        <ele>303.43000000000001</ele>
        <time>2017-06-26T11:11:06Z</time>
      </trkpt>
      <trkpt lat="71.168776033446193" lon="25.782182039692998">
        <ele>302.47000000000003</ele>
        <time>2017-06-26T11:11:31Z</time>
      </trkpt>
      <trkpt lat="71.1687480378896" lon="25.782114984467626">
        <ele>302.47000000000003</ele>
        <time>2017-06-26T11:11:51Z</time>
      </trkpt>
      <trkpt lat="71.168532036244869" lon="25.781367989256978">
        <ele>301.99000000000001</ele>
        <time>2017-06-26T11:12:00Z</time>
      </trkpt>
      <trkpt lat="71.168459029868245" lon="25.781161040067673">
        <ele>301.50999999999999</ele>
        <time>2017-06-26T11:12:02Z</time>
      </trkpt>
      <trkpt lat="71.168419970199466" lon="25.781076969578862">
        <ele>301.50999999999999</ele>
        <time>2017-06-26T11:12:03Z</time>
      </trkpt>
      <trkpt lat="71.168377976864576" lon="25.781016033142805">
        <ele>301.02999999999997</ele>
        <time>2017-06-26T11:12:04Z</time>
      </trkpt>
      <trkpt lat="71.168337995186448" lon="25.780983008444309">
        <ele>300.55000000000001</ele>
        <time>2017-06-26T11:12:05Z</time>
      </trkpt>
      <trkpt lat="71.1682990193367" lon="25.780969010666013">
        <ele>300.06999999999999</ele>
        <time>2017-06-26T11:12:06Z</time>
      </trkpt>
      <trkpt lat="71.168262977153063" lon="25.780977979302406">
        <ele>300.06999999999999</ele>
        <time>2017-06-26T11:12:07Z</time>
      </trkpt>
      <trkpt lat="71.168233975768089" lon="25.78100698068738">
        <ele>300.55000000000001</ele>
        <time>2017-06-26T11:12:08Z</time>
      </trkpt>
      <trkpt lat="71.168204974383116" lon="25.781040005385876">
        <ele>300.55000000000001</ele>
        <time>2017-06-26T11:12:09Z</time>
      </trkpt>
      <trkpt lat="71.168173039332032" lon="25.781086022034287">
        <ele>300.06999999999999</ele>
        <time>2017-06-26T11:12:10Z</time>
      </trkpt>
      <trkpt lat="71.168143032118678" lon="25.781143018975854">
        <ele>300.06999999999999</ele>
        <time>2017-06-26T11:12:11Z</time>
      </trkpt>
      <trkpt lat="71.168115036562085" lon="25.781204961240292">
        <ele>300.06999999999999</ele>
        <time>2017-06-26T11:12:12Z</time>
      </trkpt>
      <trkpt lat="71.168089974671602" lon="25.781261958181858">
        <ele>300.06999999999999</ele>
        <time>2017-06-26T11:12:13Z</time>
      </trkpt>
      <trkpt lat="71.167981009930372" lon="25.78150101006031">
        <ele>299.11000000000001</ele>
        <time>2017-06-26T11:12:19Z</time>
      </trkpt>
      <trkpt lat="71.167959971353412" lon="25.781509978696704">
        <ele>298.63</ele>
        <time>2017-06-26T11:12:20Z</time>
      </trkpt>
      <trkpt lat="71.167928958311677" lon="25.781497992575169">
        <ele>298.14999999999998</ele>
        <time>2017-06-26T11:12:21Z</time>
      </trkpt>
      <trkpt lat="71.167887970805168" lon="25.78147997148335">
        <ele>297.67000000000002</ele>
        <time>2017-06-26T11:12:22Z</time>
      </trkpt>
      <trkpt lat="71.167843965813518" lon="25.781450970098376">
        <ele>297.67000000000002</ele>
        <time>2017-06-26T11:12:23Z</time>
      </trkpt>
      <trkpt lat="71.167800966650248" lon="25.781407970935106">
        <ele>297.18000000000001</ele>
        <time>2017-06-26T11:12:24Z</time>
      </trkpt>
      <trkpt lat="71.167026981711388" lon="25.780570032075047">
        <ele>291.89999999999998</ele>
        <time>2017-06-26T11:12:37Z</time>
      </trkpt>
      <trkpt lat="71.16563399322331" lon="25.779205961152911">
        <ele>285.17000000000002</ele>
        <time>2017-06-26T11:12:54Z</time>
      </trkpt>
      <trkpt lat="71.16417596116662" lon="25.777700990438461">
        <ele>281.31999999999999</ele>
        <time>2017-06-26T11:13:09Z</time>
      </trkpt>
      <trkpt lat="71.163289994001389" lon="25.777454981580377">
        <ele>275.06999999999999</ele>
        <time>2017-06-26T11:13:20Z</time>
      </trkpt>
      <trkpt lat="71.161975041031837" lon="25.778609002009034">
        <ele>260.64999999999998</ele>
        <time>2017-06-26T11:13:32Z</time>
      </trkpt>
      <trkpt lat="71.16030796431005" lon="25.778917958959937">
        <ele>259.69</ele>
        <time>2017-06-26T11:13:45Z</time>
      </trkpt>
      <trkpt lat="71.159398024901748" lon="25.779880033805966">
        <ele>267.38</ele>
        <time>2017-06-26T11:13:54Z</time>
      </trkpt>
      <trkpt lat="71.158681036904454" lon="25.780293010175228">
        <ele>271.23000000000002</ele>
        <time>2017-06-26T11:14:01Z</time>
      </trkpt>
      <trkpt lat="71.15856503136456" lon="25.780251016840339">
        <ele>271.70999999999998</ele>
        <time>2017-06-26T11:14:02Z</time>
      </trkpt>
      <trkpt lat="71.156998034566641" lon="25.779320038855076">
        <ele>277</ele>
        <time>2017-06-26T11:14:14Z</time>
      </trkpt>
      <trkpt lat="71.154665015637875" lon="25.777876004576683">
        <ele>274.11000000000001</ele>
        <time>2017-06-26T11:14:32Z</time>
      </trkpt>
      <trkpt lat="71.152319004759192" lon="25.776308001950383">
        <ele>278.92000000000002</ele>
        <time>2017-06-26T11:14:50Z</time>
      </trkpt>
      <trkpt lat="71.150844041258097" lon="25.774286035448313">
        <ele>268.35000000000002</ele>
        <time>2017-06-26T11:15:01Z</time>
      </trkpt>
      <trkpt lat="71.149117033928633" lon="25.771465022116899">
        <ele>257.29000000000002</ele>
        <time>2017-06-26T11:15:13Z</time>
      </trkpt>
      <trkpt lat="71.14734903909266" lon="25.768698994070292">
        <ele>241.43000000000001</ele>
        <time>2017-06-26T11:15:25Z</time>
      </trkpt>
      <trkpt lat="71.144745033234358" lon="25.764563027769327">
        <ele>218.84</ele>
        <time>2017-06-26T11:15:41Z</time>
      </trkpt>
      <trkpt lat="71.141996020451188" lon="25.760145010426641">
        <ele>221.72</ele>
        <time>2017-06-26T11:15:57Z</time>
      </trkpt>
      <trkpt lat="71.140771005302668" lon="25.756759978830814">
        <ele>235.18000000000001</ele>
        <time>2017-06-26T11:16:06Z</time>
      </trkpt>
      <trkpt lat="71.139650009572506" lon="25.752744041383266">
        <ele>238.06</ele>
        <time>2017-06-26T11:16:15Z</time>
      </trkpt>
      <trkpt lat="71.138966968283057" lon="25.746818035840988">
        <ele>253.44</ele>
        <time>2017-06-26T11:16:25Z</time>
      </trkpt>
      <trkpt lat="71.138493977487087" lon="25.742931012064219">
        <ele>264.98000000000002</ele>
        <time>2017-06-26T11:16:32Z</time>
      </trkpt>
      <trkpt lat="71.13839297555387" lon="25.742458021268249">
        <ele>266.42000000000002</ele>
        <time>2017-06-26T11:16:33Z</time>
      </trkpt>
      <trkpt lat="71.138279987499118" lon="25.742018977180123">
        <ele>267.86000000000001</ele>
        <time>2017-06-26T11:16:34Z</time>
      </trkpt>
      <trkpt lat="71.138150990009308" lon="25.741626033559442">
        <ele>269.31</ele>
        <time>2017-06-26T11:16:35Z</time>
      </trkpt>
      <trkpt lat="71.138009000569582" lon="25.74127902276814">
        <ele>271.23000000000002</ele>
        <time>2017-06-26T11:16:36Z</time>
      </trkpt>
      <trkpt lat="71.137857958674431" lon="25.74095900170505">
        <ele>272.67000000000002</ele>
        <time>2017-06-26T11:16:37Z</time>
      </trkpt>
      <trkpt lat="71.137699959799647" lon="25.740654990077019">
        <ele>273.63</ele>
        <time>2017-06-26T11:16:38Z</time>
      </trkpt>
      <trkpt lat="71.135242972522974" lon="25.735872024670243">
        <ele>281.31999999999999</ele>
        <time>2017-06-26T11:16:53Z</time>
      </trkpt>
      <trkpt lat="71.132199000567198" lon="25.729882987216115">
        <ele>290.45999999999998</ele>
        <time>2017-06-26T11:17:10Z</time>
      </trkpt>
      <trkpt lat="71.130712972953916" lon="25.726983016356826">
        <ele>293.81999999999999</ele>
        <time>2017-06-26T11:17:19Z</time>
      </trkpt>
      <trkpt lat="71.127330036833882" lon="25.72028998285532">
        <ele>296.22000000000003</ele>
        <time>2017-06-26T11:17:38Z</time>
      </trkpt>
      <trkpt lat="71.124776992946863" lon="25.715286992490292">
        <ele>288.52999999999997</ele>
        <time>2017-06-26T11:17:51Z</time>
      </trkpt>
      <trkpt lat="71.122697023674846" lon="25.711188996210694">
        <ele>298.63</ele>
        <time>2017-06-26T11:18:03Z</time>
      </trkpt>
      <trkpt lat="71.121479971334338" lon="25.708762016147375">
        <ele>303.43000000000001</ele>
        <time>2017-06-26T11:18:10Z</time>
      </trkpt>
      <trkpt lat="71.119324984028935" lon="25.704778013750911">
        <ele>301.99000000000001</ele>
        <time>2017-06-26T11:18:22Z</time>
      </trkpt>
      <trkpt lat="71.1190349701792" lon="25.704249031841755">
        <ele>301.02999999999997</ele>
        <time>2017-06-26T11:18:26Z</time>
      </trkpt>
      <trkpt lat="71.118989959359169" lon="25.704220030456781">
        <ele>299.58999999999997</ele>
        <time>2017-06-26T11:18:33Z</time>
      </trkpt>
      <trkpt lat="71.118715032935143" lon="25.703875031322241">
        <ele>296.69999999999999</ele>
        <time>2017-06-26T11:19:09Z</time>
      </trkpt>
      <trkpt lat="71.117898970842361" lon="25.702688992023468">
        <ele>288.52999999999997</ele>
        <time>2017-06-26T11:19:16Z</time>
      </trkpt>
      <trkpt lat="71.116269025951624" lon="25.700220018625259">
        <ele>276.04000000000002</ele>
        <time>2017-06-26T11:19:26Z</time>
      </trkpt>
      <trkpt lat="71.11596199683845" lon="25.699821040034294">
        <ele>274.11000000000001</ele>
        <time>2017-06-26T11:19:28Z</time>
      </trkpt>
      <trkpt lat="71.115821013227105" lon="25.6997050344944">
        <ele>273.14999999999998</ele>
        <time>2017-06-26T11:19:29Z</time>
      </trkpt>
      <trkpt lat="71.115696039050817" lon="25.699647031724453">
        <ele>272.19</ele>
        <time>2017-06-26T11:19:30Z</time>
      </trkpt>
      <trkpt lat="71.115586990490556" lon="25.699645020067692">
        <ele>270.75</ele>
        <time>2017-06-26T11:19:31Z</time>
      </trkpt>
      <trkpt lat="71.11548900604248" lon="25.699691036716104">
        <ele>269.79000000000002</ele>
        <time>2017-06-26T11:19:32Z</time>
      </trkpt>
      <trkpt lat="71.115389009937644" lon="25.699783992022276">
        <ele>268.35000000000002</ele>
        <time>2017-06-26T11:19:33Z</time>
      </trkpt>
      <trkpt lat="71.115285996347666" lon="25.699909972026944">
        <ele>266.89999999999998</ele>
        <time>2017-06-26T11:19:34Z</time>
      </trkpt>
      <trkpt lat="71.114204982295632" lon="25.701032979413867">
        <ele>252</ele>
        <time>2017-06-26T11:19:42Z</time>
      </trkpt>
      <trkpt lat="71.113073006272316" lon="25.700828963890672">
        <ele>241.91</ele>
        <time>2017-06-26T11:19:49Z</time>
      </trkpt>
      <trkpt lat="71.112925987690687" lon="25.700622014701366">
        <ele>240.47</ele>
        <time>2017-06-26T11:19:50Z</time>
      </trkpt>
      <trkpt lat="71.112792966887355" lon="25.700358990579844">
        <ele>239.02000000000001</ele>
        <time>2017-06-26T11:19:51Z</time>
      </trkpt>
      <trkpt lat="71.11117098480463" lon="25.697272019460797">
        <ele>227.00999999999999</ele>
        <time>2017-06-26T11:20:03Z</time>
      </trkpt>
      <trkpt lat="71.110888011753559" lon="25.697050988674164">
        <ele>223.63999999999999</ele>
        <time>2017-06-26T11:20:05Z</time>
      </trkpt>
      <trkpt lat="71.110745016485453" lon="25.697007989510894">
        <ele>221.72</ele>
        <time>2017-06-26T11:20:06Z</time>
      </trkpt>
      <trkpt lat="71.110601015388966" lon="25.697013018652797">
        <ele>220.28</ele>
        <time>2017-06-26T11:20:07Z</time>
      </trkpt>
      <trkpt lat="71.110319970175624" lon="25.697030033916235">
        <ele>217.88</ele>
        <time>2017-06-26T11:20:09Z</time>
      </trkpt>
      <trkpt lat="71.110187033191323" lon="25.696945963427424">
        <ele>216.43000000000001</ele>
        <time>2017-06-26T11:20:10Z</time>
      </trkpt>
      <trkpt lat="71.110057029873133" lon="25.696807997301221">
        <ele>215.47</ele>
        <time>2017-06-26T11:20:11Z</time>
      </trkpt>
      <trkpt lat="71.109941024333239" lon="25.696628959849477">
        <ele>214.03</ele>
        <time>2017-06-26T11:20:12Z</time>
      </trkpt>
      <trkpt lat="71.109831975772977" lon="25.696416981518269">
        <ele>213.06999999999999</ele>
        <time>2017-06-26T11:20:13Z</time>
      </trkpt>
      <trkpt lat="71.109739020466805" lon="25.696182958781719">
        <ele>212.11000000000001</ele>
        <time>2017-06-26T11:20:14Z</time>
      </trkpt>
      <trkpt lat="71.109654027968645" lon="25.695927981287241">
        <ele>211.63</ele>
        <time>2017-06-26T11:20:15Z</time>
      </trkpt>
      <trkpt lat="71.109578004106879" lon="25.695649031549692">
        <ele>210.66999999999999</ele>
        <time>2017-06-26T11:20:16Z</time>
      </trkpt>
      <trkpt lat="71.109512038528919" lon="25.695351976901293">
        <ele>209.69999999999999</ele>
        <time>2017-06-26T11:20:17Z</time>
      </trkpt>
      <trkpt lat="71.109460992738605" lon="25.695064980536699">
        <ele>209.22</ele>
        <time>2017-06-26T11:20:18Z</time>
      </trkpt>
      <trkpt lat="71.109315985813737" lon="25.69439803250134">
        <ele>207.78</ele>
        <time>2017-06-26T11:20:21Z</time>
      </trkpt>
      <trkpt lat="71.109268963336945" lon="25.694282026961446">
        <ele>207.30000000000001</ele>
        <time>2017-06-26T11:20:22Z</time>
      </trkpt>
      <trkpt lat="71.109219007194042" lon="25.694181025028229">
        <ele>207.78</ele>
        <time>2017-06-26T11:20:23Z</time>
      </trkpt>
      <trkpt lat="71.109147006645799" lon="25.694105001166463">
        <ele>207.30000000000001</ele>
        <time>2017-06-26T11:20:24Z</time>
      </trkpt>
      <trkpt lat="71.10906695947051" lon="25.694030988961458">
        <ele>205.86000000000001</ele>
        <time>2017-06-26T11:20:25Z</time>
      </trkpt>
      <trkpt lat="71.108972998335958" lon="25.693969968706369">
        <ele>204.90000000000001</ele>
        <time>2017-06-26T11:20:26Z</time>
      </trkpt>
      <trkpt lat="71.108873002231121" lon="25.693910960108042">
        <ele>203.94</ele>
        <time>2017-06-26T11:20:27Z</time>
      </trkpt>
      <trkpt lat="71.108073033392429" lon="25.693395975977182">
        <ele>197.21000000000001</ele>
        <time>2017-06-26T11:20:38Z</time>
      </trkpt>
      <trkpt lat="71.108029028400779" lon="25.693377032876015">
        <ele>195.28</ele>
        <time>2017-06-26T11:20:49Z</time>
      </trkpt>
      <trkpt lat="71.107871029525995" lon="25.693542994558811">
        <ele>192.40000000000001</ele>
        <time>2017-06-26T11:21:37Z</time>
      </trkpt>
      <trkpt lat="71.107817972078919" lon="25.693651959300041">
        <ele>191.91999999999999</ele>
        <time>2017-06-26T11:21:38Z</time>
      </trkpt>
      <trkpt lat="71.10736601985991" lon="25.695120971649885">
        <ele>185.19</ele>
        <time>2017-06-26T11:21:46Z</time>
      </trkpt>
      <trkpt lat="71.107325032353401" lon="25.69534501992166">
        <ele>184.22999999999999</ele>
        <time>2017-06-26T11:21:47Z</time>
      </trkpt>
      <trkpt lat="71.107289995998144" lon="25.695576025173068">
        <ele>183.75</ele>
        <time>2017-06-26T11:21:48Z</time>
      </trkpt>
      <trkpt lat="71.107263006269932" lon="25.695822034031153">
        <ele>182.78999999999999</ele>
        <time>2017-06-26T11:21:49Z</time>
      </trkpt>
      <trkpt lat="71.107240961864591" lon="25.696083968505263">
        <ele>182.31</ele>
        <time>2017-06-26T11:21:50Z</time>
      </trkpt>
      <trkpt lat="71.107225036248565" lon="25.696369959041476">
        <ele>181.83000000000001</ele>
        <time>2017-06-26T11:21:51Z</time>
      </trkpt>
      <trkpt lat="71.107215983793139" lon="25.696663996204734">
        <ele>180.87</ele>
        <time>2017-06-26T11:21:52Z</time>
      </trkpt>
      <trkpt lat="71.107208020985126" lon="25.696964990347624">
        <ele>179.90000000000001</ele>
        <time>2017-06-26T11:21:53Z</time>
      </trkpt>
      <trkpt lat="71.107206009328365" lon="25.697265984490514">
        <ele>178.94</ele>
        <time>2017-06-26T11:21:54Z</time>
      </trkpt>
      <trkpt lat="71.107299970462918" lon="25.700758974999189">
        <ele>167.88999999999999</ele>
        <time>2017-06-26T11:22:03Z</time>
      </trkpt>
      <trkpt lat="71.107521001249552" lon="25.706770978868008">
        <ele>151.53999999999999</ele>
        <time>2017-06-26T11:22:15Z</time>
      </trkpt>
      <trkpt lat="71.107587972655892" lon="25.70976298302412">
        <ele>140.97</ele>
        <time>2017-06-26T11:22:21Z</time>
      </trkpt>
      <trkpt lat="71.10756098292768" lon="25.710265981033444">
        <ele>139.05000000000001</ele>
        <time>2017-06-26T11:22:22Z</time>
      </trkpt>
      <trkpt lat="71.107516977936029" lon="25.710762022063136">
        <ele>137.13</ele>
        <time>2017-06-26T11:22:23Z</time>
      </trkpt>
      <trkpt lat="71.107263006269932" lon="25.715134022757411">
        <ele>123.67</ele>
        <time>2017-06-26T11:22:32Z</time>
      </trkpt>
      <trkpt lat="71.107165021821856" lon="25.718137007206678">
        <ele>114.53</ele>
        <time>2017-06-26T11:22:38Z</time>
      </trkpt>
      <trkpt lat="71.107109030708671" lon="25.718622989952564">
        <ele>113.56999999999999</ele>
        <time>2017-06-26T11:22:39Z</time>
      </trkpt>
      <trkpt lat="71.107040969654918" lon="25.719103021547198">
        <ele>112.13</ele>
        <time>2017-06-26T11:22:40Z</time>
      </trkpt>
      <trkpt lat="71.106956982985139" lon="25.719557991251349">
        <ele>110.69</ele>
        <time>2017-06-26T11:22:41Z</time>
      </trkpt>
      <trkpt lat="71.106864027678967" lon="25.719991000369191">
        <ele>109.25</ele>
        <time>2017-06-26T11:22:42Z</time>
      </trkpt>
      <trkpt lat="71.106765037402511" lon="25.720400037243962">
        <ele>108.29000000000001</ele>
        <time>2017-06-26T11:22:43Z</time>
      </trkpt>
      <trkpt lat="71.106217028573155" lon="25.72280396707356">
        <ele>102.04000000000001</ele>
        <time>2017-06-26T11:22:49Z</time>
      </trkpt>
      <trkpt lat="71.10616103745997" lon="25.723219960927963">
        <ele>101.08</ele>
        <time>2017-06-26T11:22:50Z</time>
      </trkpt>
      <trkpt lat="71.106131030246615" lon="25.723634026944637">
        <ele>100.11</ele>
        <time>2017-06-26T11:22:51Z</time>
      </trkpt>
      <trkpt lat="71.10612197779119" lon="25.724051026627421">
        <ele>98.670000000000002</ele>
        <time>2017-06-26T11:22:52Z</time>
      </trkpt>
      <trkpt lat="71.106131030246615" lon="25.724487975239754">
        <ele>97.230000000000004</ele>
        <time>2017-06-26T11:22:53Z</time>
      </trkpt>
      <trkpt lat="71.106160031631589" lon="25.72492802515626">
        <ele>95.790000000000006</ele>
        <time>2017-06-26T11:22:54Z</time>
      </trkpt>
      <trkpt lat="71.106200013309717" lon="25.725372014567256">
        <ele>93.870000000000005</ele>
        <time>2017-06-26T11:22:55Z</time>
      </trkpt>
      <trkpt lat="71.106251981109381" lon="25.725809969007969">
        <ele>92.420000000000002</ele>
        <time>2017-06-26T11:22:56Z</time>
      </trkpt>
      <trkpt lat="71.106306966394186" lon="25.726237026974559">
        <ele>90.980000000000004</ele>
        <time>2017-06-26T11:22:57Z</time>
      </trkpt>
      <trkpt lat="71.106366980820894" lon="25.726660983636975">
        <ele>89.540000000000006</ele>
        <time>2017-06-26T11:22:58Z</time>
      </trkpt>
      <trkpt lat="71.106770988553762" lon="25.729633960872889">
        <ele>78</ele>
        <time>2017-06-26T11:23:05Z</time>
      </trkpt>
      <trkpt lat="71.106791021302342" lon="25.73008700273931">
        <ele>76.560000000000002</ele>
        <time>2017-06-26T11:23:06Z</time>
      </trkpt>
      <trkpt lat="71.106793032959104" lon="25.73053702712059">
        <ele>75.120000000000005</ele>
        <time>2017-06-26T11:23:07Z</time>
      </trkpt>
      <trkpt lat="71.106781968846917" lon="25.730999037623405">
        <ele>73.680000000000007</ele>
        <time>2017-06-26T11:23:08Z</time>
      </trkpt>
      <trkpt lat="71.106754979118705" lon="25.731456018984318">
        <ele>72.239999999999995</ele>
        <time>2017-06-26T11:23:09Z</time>
      </trkpt>
      <trkpt lat="71.106713991612196" lon="25.731894979253411">
        <ele>70.790000000000006</ele>
        <time>2017-06-26T11:23:10Z</time>
      </trkpt>
      <trkpt lat="71.106654983013868" lon="25.732308039441705">
        <ele>69.349999999999994</ele>
        <time>2017-06-26T11:23:11Z</time>
      </trkpt>
      <trkpt lat="71.106578959152102" lon="25.732695031911135">
        <ele>67.909999999999997</ele>
        <time>2017-06-26T11:23:12Z</time>
      </trkpt>
      <trkpt lat="71.106483992189169" lon="25.733052017167211">
        <ele>66.950000000000003</ele>
        <time>2017-06-26T11:23:13Z</time>
      </trkpt>
      <trkpt lat="71.106369998306036" lon="25.733375977724791">
        <ele>65.989999999999995</ele>
        <time>2017-06-26T11:23:14Z</time>
      </trkpt>
      <trkpt lat="71.10624996945262" lon="25.73369599878788">
        <ele>65.030000000000001</ele>
        <time>2017-06-26T11:23:15Z</time>
      </trkpt>
      <trkpt lat="71.104427995160222" lon="25.738377962261438">
        <ele>76.560000000000002</ele>
        <time>2017-06-26T11:23:30Z</time>
      </trkpt>
      <trkpt lat="71.10371695831418" lon="25.739922998473048">
        <ele>78.969999999999999</ele>
        <time>2017-06-26T11:23:36Z</time>
      </trkpt>
      <trkpt lat="71.103573963046074" lon="25.740044033154845">
        <ele>79.930000000000007</ele>
        <time>2017-06-26T11:23:37Z</time>
      </trkpt>
      <trkpt lat="71.103429961949587" lon="25.740101030096412">
        <ele>80.890000000000001</ele>
        <time>2017-06-26T11:23:38Z</time>
      </trkpt>
      <trkpt lat="71.10328696668148" lon="25.740119973197579">
        <ele>82.329999999999998</ele>
        <time>2017-06-26T11:23:39Z</time>
      </trkpt>
      <trkpt lat="71.103141037747264" lon="25.740112010389566">
        <ele>83.290000000000006</ele>
        <time>2017-06-26T11:23:40Z</time>
      </trkpt>
      <trkpt lat="71.102154990658164" lon="25.740230027586222">
        <ele>87.140000000000001</ele>
        <time>2017-06-26T11:23:47Z</time>
      </trkpt>
      <trkpt lat="71.102018030360341" lon="25.740370005369186">
        <ele>87.620000000000005</ele>
        <time>2017-06-26T11:23:48Z</time>
      </trkpt>
      <trkpt lat="71.10119903460145" lon="25.741810016334057">
        <ele>90.019999999999996</ele>
        <time>2017-06-26T11:23:55Z</time>
      </trkpt>
      <trkpt lat="71.101124016568065" lon="25.74209701269865">
        <ele>90.5</ele>
        <time>2017-06-26T11:23:56Z</time>
      </trkpt>
      <trkpt lat="71.101064002141356" lon="25.74241703376174">
        <ele>90.5</ele>
        <time>2017-06-26T11:23:57Z</time>
      </trkpt>
      <trkpt lat="71.101013962179422" lon="25.742767984047532">
        <ele>90.5</ele>
        <time>2017-06-26T11:23:58Z</time>
      </trkpt>
      <trkpt lat="71.100972974672914" lon="25.743139972910285">
        <ele>90.5</ele>
        <time>2017-06-26T11:23:59Z</time>
      </trkpt>
      <trkpt lat="71.100418008863926" lon="25.748926000669599">
        <ele>87.140000000000001</ele>
        <time>2017-06-26T11:24:13Z</time>
      </trkpt>
      <trkpt lat="71.100409040227532" lon="25.74933897703886">
        <ele>86.659999999999997</ele>
        <time>2017-06-26T11:24:14Z</time>
      </trkpt>
      <trkpt lat="71.100417003035545" lon="25.749741978943348">
        <ele>85.689999999999998</ele>
        <time>2017-06-26T11:24:15Z</time>
      </trkpt>
      <trkpt lat="71.100434018298984" lon="25.750165013596416">
        <ele>84.730000000000004</ele>
        <time>2017-06-26T11:24:16Z</time>
      </trkpt>
      <trkpt lat="71.100773988291621" lon="25.756022036075592">
        <ele>76.560000000000002</ele>
        <time>2017-06-26T11:24:29Z</time>
      </trkpt>
      <trkpt lat="71.101032989099622" lon="25.761631960049272">
        <ele>65.030000000000001</ele>
        <time>2017-06-26T11:24:42Z</time>
      </trkpt>
      <trkpt lat="71.101010022684932" lon="25.762032028287649">
        <ele>63.579999999999998</ele>
        <time>2017-06-26T11:24:43Z</time>
      </trkpt>
      <trkpt lat="71.100968029350042" lon="25.762411979958415">
        <ele>62.619999999999997</ele>
        <time>2017-06-26T11:24:44Z</time>
      </trkpt>
      <trkpt lat="71.100908014923334" lon="25.762754967436194">
        <ele>62.619999999999997</ele>
        <time>2017-06-26T11:24:45Z</time>
      </trkpt>
      <trkpt lat="71.100829979404807" lon="25.763063002377748">
        <ele>62.140000000000001</ele>
        <time>2017-06-26T11:24:46Z</time>
      </trkpt>
      <trkpt lat="71.100740041583776" lon="25.763336000964046">
        <ele>61.659999999999997</ele>
        <time>2017-06-26T11:24:47Z</time>
      </trkpt>
      <trkpt lat="71.10064297914505" lon="25.763578992336988">
        <ele>61.18</ele>
        <time>2017-06-26T11:24:48Z</time>
      </trkpt>
      <trkpt lat="71.100537031888962" lon="25.763790970668197">
        <ele>60.700000000000003</ele>
        <time>2017-06-26T11:24:49Z</time>
      </trkpt>
      <trkpt lat="71.100431000813842" lon="25.763965984806418">
        <ele>60.219999999999999</ele>
        <time>2017-06-26T11:24:50Z</time>
      </trkpt>
      <trkpt lat="71.100324969738722" lon="25.764091964811087">
        <ele>60.219999999999999</ele>
        <time>2017-06-26T11:24:51Z</time>
      </trkpt>
      <trkpt lat="71.100228996947408" lon="25.764166982844472">
        <ele>60.219999999999999</ele>
        <time>2017-06-26T11:24:52Z</time>
      </trkpt>
      <trkpt lat="71.100152973085642" lon="25.764195984229445">
        <ele>60.219999999999999</ele>
        <time>2017-06-26T11:24:53Z</time>
      </trkpt>
      <trkpt lat="71.100102011114359" lon="25.764190033078194">
        <ele>60.219999999999999</ele>
        <time>2017-06-26T11:24:54Z</time>
      </trkpt>
      <trkpt lat="71.100066974759102" lon="25.76416396535933">
        <ele>60.219999999999999</ele>
        <time>2017-06-26T11:24:55Z</time>
      </trkpt>
      <trkpt lat="71.100037973374128" lon="25.764102023094893">
        <ele>60.219999999999999</ele>
        <time>2017-06-26T11:24:56Z</time>
      </trkpt>
      <trkpt lat="71.100014001131058" lon="25.764058018103242">
        <ele>60.219999999999999</ele>
        <time>2017-06-26T11:24:57Z</time>
      </trkpt>
      <trkpt lat="71.09993495978415" lon="25.763932038098574">
        <ele>60.700000000000003</ele>
        <time>2017-06-26T11:25:08Z</time>
      </trkpt>
      <trkpt lat="71.099936971440911" lon="25.763943018391728">
        <ele>60.700000000000003</ele>
        <time>2017-06-26T11:26:59Z</time>
      </trkpt>
      <trkpt lat="71.099939988926053" lon="25.763942012563348">
        <ele>61.18</ele>
        <time>2017-06-26T11:28:59Z</time>
      </trkpt>
      <trkpt lat="71.099939988926053" lon="25.763938995078206">
        <ele>61.18</ele>
        <time>2017-06-26T11:31:20Z</time>
      </trkpt>
      <trkpt lat="71.099870000034571" lon="25.763979982584715">
        <ele>60.700000000000003</ele>
        <time>2017-06-26T11:32:15Z</time>
      </trkpt>
      <trkpt lat="71.099817026406527" lon="25.764044020324945">
        <ele>60.700000000000003</ele>
        <time>2017-06-26T11:32:16Z</time>
      </trkpt>
      <trkpt lat="71.099599013105035" lon="25.764257004484534">
        <ele>60.700000000000003</ele>
        <time>2017-06-26T11:32:19Z</time>
      </trkpt>
      <trkpt lat="71.099506979808211" lon="25.764302015304565">
        <ele>60.219999999999999</ele>
        <time>2017-06-26T11:32:20Z</time>
      </trkpt>
      <trkpt lat="71.098482040688396" lon="25.764622036367655">
        <ele>60.219999999999999</ele>
        <time>2017-06-26T11:32:28Z</time>
      </trkpt>
      <trkpt lat="71.09699098393321" lon="25.765596013516188">
        <ele>71.269999999999996</ele>
        <time>2017-06-26T11:32:38Z</time>
      </trkpt>
      <trkpt lat="71.094816969707608" lon="25.76768402941525">
        <ele>79.930000000000007</ele>
        <time>2017-06-26T11:32:51Z</time>
      </trkpt>
      <trkpt lat="71.094183968380094" lon="25.768277971073985">
        <ele>78</ele>
        <time>2017-06-26T11:32:55Z</time>
      </trkpt>
      <trkpt lat="71.094043990597129" lon="25.768504031002522">
        <ele>76.560000000000002</ele>
        <time>2017-06-26T11:32:56Z</time>
      </trkpt>
      <trkpt lat="71.093911975622177" lon="25.768758002668619">
        <ele>75.120000000000005</ele>
        <time>2017-06-26T11:32:57Z</time>
      </trkpt>
      <trkpt lat="71.093791024759412" lon="25.769052961841226">
        <ele>73.680000000000007</ele>
        <time>2017-06-26T11:32:58Z</time>
      </trkpt>
      <trkpt lat="71.093687005341053" lon="25.769396033138037">
        <ele>72.239999999999995</ele>
        <time>2017-06-26T11:32:59Z</time>
      </trkpt>
      <trkpt lat="71.093597989529371" lon="25.769781013950706">
        <ele>70.790000000000006</ele>
        <time>2017-06-26T11:33:00Z</time>
      </trkpt>
      <trkpt lat="71.093515008687973" lon="25.770187033340335">
        <ele>69.349999999999994</ele>
        <time>2017-06-26T11:33:01Z</time>
      </trkpt>
      <trkpt lat="71.093332031741738" lon="25.770912989974022">
        <ele>65.510000000000005</ele>
        <time>2017-06-26T11:33:03Z</time>
      </trkpt>
      <trkpt lat="71.093234969303012" lon="25.771179031580687">
        <ele>64.549999999999997</ele>
        <time>2017-06-26T11:33:04Z</time>
      </trkpt>
      <trkpt lat="71.093131033703685" lon="25.771365026012063">
        <ele>64.069999999999993</ele>
        <time>2017-06-26T11:33:05Z</time>
      </trkpt>
      <trkpt lat="71.093027014285326" lon="25.771492011845112">
        <ele>63.100000000000001</ele>
        <time>2017-06-26T11:33:06Z</time>
      </trkpt>
      <trkpt lat="71.092924000695348" lon="25.77164095826447">
        <ele>62.619999999999997</ele>
        <time>2017-06-26T11:33:07Z</time>
      </trkpt>
      <trkpt lat="71.092826016247272" lon="25.771814966574311">
        <ele>61.659999999999997</ele>
        <time>2017-06-26T11:33:08Z</time>
      </trkpt>
      <trkpt lat="71.092732977122068" lon="25.772042032331228">
        <ele>60.700000000000003</ele>
        <time>2017-06-26T11:33:09Z</time>
      </trkpt>
      <trkpt lat="71.092654019594193" lon="25.772341014817357">
        <ele>59.259999999999998</ele>
        <time>2017-06-26T11:33:10Z</time>
      </trkpt>
      <trkpt lat="71.09258403070271" lon="25.772699005901814">
        <ele>57.82</ele>
        <time>2017-06-26T11:33:11Z</time>
      </trkpt>
      <trkpt lat="71.092522004619241" lon="25.77309999614954">
        <ele>56.369999999999997</ele>
        <time>2017-06-26T11:33:12Z</time>
      </trkpt>
      <trkpt lat="71.092461990192533" lon="25.773522024974227">
        <ele>54.93</ele>
        <time>2017-06-26T11:33:13Z</time>
      </trkpt>
      <trkpt lat="71.091908030211926" lon="25.776069033890963">
        <ele>47.240000000000002</ele>
        <time>2017-06-26T11:33:20Z</time>
      </trkpt>
      <trkpt lat="71.091593038290739" lon="25.777393039315939">
        <ele>44.840000000000003</ele>
        <time>2017-06-26T11:33:24Z</time>
      </trkpt>
      <trkpt lat="71.091549033299088" lon="25.777767039835453">
        <ele>43.880000000000003</ele>
        <time>2017-06-26T11:33:25Z</time>
      </trkpt>
      <trkpt lat="71.091522965580225" lon="25.778173981234431">
        <ele>42.920000000000002</ele>
        <time>2017-06-26T11:33:26Z</time>
      </trkpt>
      <trkpt lat="71.091512991115451" lon="25.778603972867131">
        <ele>41.469999999999999</ele>
        <time>2017-06-26T11:33:27Z</time>
      </trkpt>
      <trkpt lat="71.091508967801929" lon="25.779045028612018">
        <ele>40.030000000000001</ele>
        <time>2017-06-26T11:33:28Z</time>
      </trkpt>
      <trkpt lat="71.091476026922464" lon="25.78031999990344">
        <ele>36.670000000000002</ele>
        <time>2017-06-26T11:33:31Z</time>
      </trkpt>
      <trkpt lat="71.091441996395588" lon="25.780700035393238">
        <ele>36.189999999999998</ele>
        <time>2017-06-26T11:33:32Z</time>
      </trkpt>
      <trkpt lat="71.09140201471746" lon="25.781061965972185">
        <ele>36.189999999999998</ele>
        <time>2017-06-26T11:33:33Z</time>
      </trkpt>
      <trkpt lat="71.091358009725809" lon="25.78139397315681">
        <ele>36.189999999999998</ele>
        <time>2017-06-26T11:33:34Z</time>
      </trkpt>
      <trkpt lat="71.091309981420636" lon="25.781679041683674">
        <ele>36.189999999999998</ele>
        <time>2017-06-26T11:33:35Z</time>
      </trkpt>
      <trkpt lat="71.091261031106114" lon="25.78190702944994">
        <ele>36.670000000000002</ele>
        <time>2017-06-26T11:33:36Z</time>
      </trkpt>
      <trkpt lat="71.091219959780574" lon="25.782067039981484">
        <ele>36.670000000000002</ele>
        <time>2017-06-26T11:33:37Z</time>
      </trkpt>
      <trkpt lat="71.091174026951194" lon="25.782163012772799">
        <ele>36.670000000000002</ele>
        <time>2017-06-26T11:33:38Z</time>
      </trkpt>
      <trkpt lat="71.091118035838008" lon="25.782196959480643">
        <ele>36.670000000000002</ele>
        <time>2017-06-26T11:33:39Z</time>
      </trkpt>
      <trkpt lat="71.091050980612636" lon="25.782183967530727">
        <ele>36.189999999999998</ele>
        <time>2017-06-26T11:33:40Z</time>
      </trkpt>
      <trkpt lat="71.090971017256379" lon="25.782110039144754">
        <ele>36.189999999999998</ele>
        <time>2017-06-26T11:33:41Z</time>
      </trkpt>
      <trkpt lat="71.090878983959556" lon="25.781986992806196">
        <ele>36.189999999999998</ele>
        <time>2017-06-26T11:33:42Z</time>
      </trkpt>
      <trkpt lat="71.08994297683239" lon="25.781147964298725">
        <ele>36.670000000000002</ele>
        <time>2017-06-26T11:33:49Z</time>
      </trkpt>
      <trkpt lat="71.088096024468541" lon="25.780472969636321">
        <ele>36.189999999999998</ele>
        <time>2017-06-26T11:33:59Z</time>
      </trkpt>
      <trkpt lat="71.085239974781871" lon="25.779345016926527">
        <ele>39.07</ele>
        <time>2017-06-26T11:34:13Z</time>
      </trkpt>
      <trkpt lat="71.083722012117505" lon="25.777364959940314">
        <ele>46.280000000000001</ele>
        <time>2017-06-26T11:34:21Z</time>
      </trkpt>
      <trkpt lat="71.080879038199782" lon="25.771540962159634">
        <ele>71.269999999999996</ele>
        <time>2017-06-26T11:34:38Z</time>
      </trkpt>
      <trkpt lat="71.079616975039244" lon="25.770442010834813">
        <ele>83.290000000000006</ele>
        <time>2017-06-26T11:34:45Z</time>
      </trkpt>
      <trkpt lat="71.078388020396233" lon="25.771030001342297">
        <ele>93.870000000000005</ele>
        <time>2017-06-26T11:34:52Z</time>
      </trkpt>
      <trkpt lat="71.075802035629749" lon="25.773248020559549">
        <ele>116.45999999999999</ele>
        <time>2017-06-26T11:35:07Z</time>
      </trkpt>
      <trkpt lat="71.073692981153727" lon="25.773435020819306">
        <ele>131.36000000000001</ele>
        <time>2017-06-26T11:35:18Z</time>
      </trkpt>
      <trkpt lat="71.072397977113724" lon="25.774231972172856">
        <ele>140.00999999999999</ele>
        <time>2017-06-26T11:35:25Z</time>
      </trkpt>
      <trkpt lat="71.07137898914516" lon="25.776637997478247">
        <ele>141.44999999999999</ele>
        <time>2017-06-26T11:35:32Z</time>
      </trkpt>
      <trkpt lat="71.070790998637676" lon="25.780183961614966">
        <ele>135.68000000000001</ele>
        <time>2017-06-26T11:35:39Z</time>
      </trkpt>
      <trkpt lat="71.070033023133874" lon="25.785533040761948">
        <ele>126.06999999999999</ele>
        <time>2017-06-26T11:35:49Z</time>
      </trkpt>
      <trkpt lat="71.06905804015696" lon="25.788049958646297">
        <ele>124.63</ele>
        <time>2017-06-26T11:35:56Z</time>
      </trkpt>
      <trkpt lat="71.067767981439829" lon="25.789131978526711">
        <ele>127.98999999999999</ele>
        <time>2017-06-26T11:36:03Z</time>
      </trkpt>
      <trkpt lat="71.066427966579795" lon="25.788438962772489">
        <ele>137.61000000000001</ele>
        <time>2017-06-26T11:36:10Z</time>
      </trkpt>
      <trkpt lat="71.065394980832934" lon="25.786339966580272">
        <ele>148.18000000000001</ele>
        <time>2017-06-26T11:36:16Z</time>
      </trkpt>
      <trkpt lat="71.064315978437662" lon="25.78218899667263">
        <ele>162.59999999999999</ele>
        <time>2017-06-26T11:36:24Z</time>
      </trkpt>
      <trkpt lat="71.06254898943007" lon="25.777088021859527">
        <ele>177.02000000000001</ele>
        <time>2017-06-26T11:36:35Z</time>
      </trkpt>
      <trkpt lat="71.061647012829781" lon="25.773332007229328">
        <ele>186.63</ele>
        <time>2017-06-26T11:36:42Z</time>
      </trkpt>
      <trkpt lat="71.06050699017942" lon="25.76856798492372">
        <ele>199.13</ele>
        <time>2017-06-26T11:36:51Z</time>
      </trkpt>
      <trkpt lat="71.059295972809196" lon="25.766187021508813">
        <ele>206.34</ele>
        <time>2017-06-26T11:36:58Z</time>
      </trkpt>
      <trkpt lat="71.057323040440679" lon="25.764084002003074">
        <ele>210.19</ele>
        <time>2017-06-26T11:37:08Z</time>
      </trkpt>
      <trkpt lat="71.055679013952613" lon="25.763766998425126">
        <ele>211.63</ele>
        <time>2017-06-26T11:37:16Z</time>
      </trkpt>
      <trkpt lat="71.053880006074905" lon="25.764984972774982">
        <ele>207.30000000000001</ele>
        <time>2017-06-26T11:37:25Z</time>
      </trkpt>
      <trkpt lat="71.052331030368805" lon="25.765274986624718">
        <ele>200.56999999999999</ele>
        <time>2017-06-26T11:37:32Z</time>
      </trkpt>
      <trkpt lat="71.051077013835311" lon="25.763814020901918">
        <ele>205.86000000000001</ele>
        <time>2017-06-26T11:37:38Z</time>
      </trkpt>
      <trkpt lat="71.048827981576324" lon="25.759662967175245">
        <ele>227.49000000000001</ele>
        <time>2017-06-26T11:37:50Z</time>
      </trkpt>
      <trkpt lat="71.048640981316566" lon="25.759519971907139">
        <ele>228.44999999999999</ele>
        <time>2017-06-26T11:37:51Z</time>
      </trkpt>
      <trkpt lat="71.048450963571668" lon="25.759441014379263">
        <ele>229.41</ele>
        <time>2017-06-26T11:37:52Z</time>
      </trkpt>
      <trkpt lat="71.048263041302562" lon="25.759411007165909">
        <ele>229.88999999999999</ele>
        <time>2017-06-26T11:37:53Z</time>
      </trkpt>
      <trkpt lat="71.048078974708915" lon="25.759422993287444">
        <ele>230.37</ele>
        <time>2017-06-26T11:37:54Z</time>
      </trkpt>
      <trkpt lat="71.047894991934299" lon="25.759474961087108">
        <ele>230.84999999999999</ele>
        <time>2017-06-26T11:37:55Z</time>
      </trkpt>
      <trkpt lat="71.047714026644826" lon="25.759575963020325">
        <ele>230.84999999999999</ele>
        <time>2017-06-26T11:37:56Z</time>
      </trkpt>
      <trkpt lat="71.047538006678224" lon="25.759724993258715">
        <ele>230.84999999999999</ele>
        <time>2017-06-26T11:37:57Z</time>
      </trkpt>
      <trkpt lat="71.047370033338666" lon="25.759930014610291">
        <ele>230.84999999999999</ele>
        <time>2017-06-26T11:37:58Z</time>
      </trkpt>
      <trkpt lat="71.047203987836838" lon="25.760167976841331">
        <ele>230.84999999999999</ele>
        <time>2017-06-26T11:37:59Z</time>
      </trkpt>
      <trkpt lat="71.047042971476912" lon="25.760462014004588">
        <ele>230.37</ele>
        <time>2017-06-26T11:38:00Z</time>
      </trkpt>
      <trkpt lat="71.046891007572412" lon="25.760805001482368">
        <ele>229.88999999999999</ele>
        <time>2017-06-26T11:38:01Z</time>
      </trkpt>
      <trkpt lat="71.046743988990784" lon="25.761179002001882">
        <ele>229.88999999999999</ele>
        <time>2017-06-26T11:38:02Z</time>
      </trkpt>
      <trkpt lat="71.046608034521341" lon="25.761594995856285">
        <ele>229.88999999999999</ele>
        <time>2017-06-26T11:38:03Z</time>
      </trkpt>
      <trkpt lat="71.046481970697641" lon="25.762029010802507">
        <ele>229.88999999999999</ele>
        <time>2017-06-26T11:38:04Z</time>
      </trkpt>
      <trkpt lat="71.046364037320018" lon="25.762495966628194">
        <ele>230.37</ele>
        <time>2017-06-26T11:38:05Z</time>
      </trkpt>
      <trkpt lat="71.046257000416517" lon="25.762977004051208">
        <ele>230.84999999999999</ele>
        <time>2017-06-26T11:38:06Z</time>
      </trkpt>
      <trkpt lat="71.044945986941457" lon="25.768512999638915">
        <ele>242.38999999999999</ele>
        <time>2017-06-26T11:38:18Z</time>
      </trkpt>
      <trkpt lat="71.043932028114796" lon="25.770132970064878">
        <ele>245.27000000000001</ele>
        <time>2017-06-26T11:38:24Z</time>
      </trkpt>
      <trkpt lat="71.041930010542274" lon="25.771393021568656">
        <ele>250.56</ele>
        <time>2017-06-26T11:38:34Z</time>
      </trkpt>
      <trkpt lat="71.04057096876204" lon="25.773323960602283">
        <ele>256.81</ele>
        <time>2017-06-26T11:38:42Z</time>
      </trkpt>
      <trkpt lat="71.039574025198817" lon="25.776372961699963">
        <ele>263.06</ele>
        <time>2017-06-26T11:38:50Z</time>
      </trkpt>
      <trkpt lat="71.039071027189493" lon="25.780384037643671">
        <ele>269.79000000000002</ele>
        <time>2017-06-26T11:38:58Z</time>
      </trkpt>
      <trkpt lat="71.038856031373143" lon="25.787096014246345">
        <ele>272.19</ele>
        <time>2017-06-26T11:39:09Z</time>
      </trkpt>
      <trkpt lat="71.038434002548456" lon="25.792017029598355">
        <ele>265.45999999999998</ele>
        <time>2017-06-26T11:39:17Z</time>
      </trkpt>
      <trkpt lat="71.037526996806264" lon="25.796246035024524">
        <ele>260.64999999999998</ele>
        <time>2017-06-26T11:39:25Z</time>
      </trkpt>
      <trkpt lat="71.036287983879447" lon="25.800163988023996">
        <ele>257.29000000000002</ele>
        <time>2017-06-26T11:39:34Z</time>
      </trkpt>
      <trkpt lat="71.035829996690154" lon="25.803852025419474">
        <ele>252.47999999999999</ele>
        <time>2017-06-26T11:39:41Z</time>
      </trkpt>
      <trkpt lat="71.035961005836725" lon="25.807470995932817">
        <ele>246.72</ele>
        <time>2017-06-26T11:39:47Z</time>
      </trkpt>
      <trkpt lat="71.036892989650369" lon="25.815256023779511">
        <ele>241.91</ele>
        <time>2017-06-26T11:40:00Z</time>
      </trkpt>
      <trkpt lat="71.037204964086413" lon="25.820395974442363">
        <ele>239.99000000000001</ele>
        <time>2017-06-26T11:40:09Z</time>
      </trkpt>
      <trkpt lat="71.037170011550188" lon="25.820976002141833">
        <ele>240.47</ele>
        <time>2017-06-26T11:40:10Z</time>
      </trkpt>
      <trkpt lat="71.037115026265383" lon="25.82154999487102">
        <ele>240.94999999999999</ele>
        <time>2017-06-26T11:40:11Z</time>
      </trkpt>
      <trkpt lat="71.037043025717139" lon="25.82210898399353">
        <ele>241.91</ele>
        <time>2017-06-26T11:40:12Z</time>
      </trkpt>
      <trkpt lat="71.03695803321898" lon="25.822640983387828">
        <ele>242.87</ele>
        <time>2017-06-26T11:40:13Z</time>
      </trkpt>
      <trkpt lat="71.036862982437015" lon="25.823151022195816">
        <ele>244.78999999999999</ele>
        <time>2017-06-26T11:40:14Z</time>
      </trkpt>
      <trkpt lat="71.036758041009307" lon="25.823639016598463">
        <ele>246.72</ele>
        <time>2017-06-26T11:40:15Z</time>
      </trkpt>
      <trkpt lat="71.035771993920207" lon="25.829102005809546">
        <ele>250.56</ele>
        <time>2017-06-26T11:40:26Z</time>
      </trkpt>
      <trkpt lat="71.034894995391369" lon="25.833013001829386">
        <ele>248.63999999999999</ele>
        <time>2017-06-26T11:40:34Z</time>
      </trkpt>
      <trkpt lat="71.033834014087915" lon="25.834675971418619">
        <ele>242.38999999999999</ele>
        <time>2017-06-26T11:40:40Z</time>
      </trkpt>
      <trkpt lat="71.03262098506093" lon="25.834903037175536">
        <ele>237.58000000000001</ele>
        <time>2017-06-26T11:40:46Z</time>
      </trkpt>
      <trkpt lat="71.030749976634979" lon="25.834786025807261">
        <ele>237.58000000000001</ele>
        <time>2017-06-26T11:40:56Z</time>
      </trkpt>
      <trkpt lat="71.030606981366873" lon="25.834875041618943">
        <ele>237.58000000000001</ele>
        <time>2017-06-26T11:40:57Z</time>
      </trkpt>
      <trkpt lat="71.030464991927147" lon="25.835019964724779">
        <ele>237.09999999999999</ele>
        <time>2017-06-26T11:40:58Z</time>
      </trkpt>
      <trkpt lat="71.030328031629324" lon="25.835210988298059">
        <ele>236.62</ele>
        <time>2017-06-26T11:40:59Z</time>
      </trkpt>
      <trkpt lat="71.030190987512469" lon="25.835438976064324">
        <ele>235.66</ele>
        <time>2017-06-26T11:41:00Z</time>
      </trkpt>
      <trkpt lat="71.030061990022659" lon="25.835705017670989">
        <ele>235.18000000000001</ele>
        <time>2017-06-26T11:41:01Z</time>
      </trkpt>
      <trkpt lat="71.029938021674752" lon="25.836011040955782">
        <ele>234.22</ele>
        <time>2017-06-26T11:41:02Z</time>
      </trkpt>
      <trkpt lat="71.029817992821336" lon="25.836347993463278">
        <ele>233.25999999999999</ele>
        <time>2017-06-26T11:41:03Z</time>
      </trkpt>
      <trkpt lat="71.0296989697963" lon="25.836714031174779">
        <ele>231.81</ele>
        <time>2017-06-26T11:41:04Z</time>
      </trkpt>
      <trkpt lat="71.028111018240452" lon="25.841515017673373">
        <ele>218.84</ele>
        <time>2017-06-26T11:41:16Z</time>
      </trkpt>
      <trkpt lat="71.027362011373043" lon="25.843963036313653">
        <ele>213.06999999999999</ele>
        <time>2017-06-26T11:41:23Z</time>
      </trkpt>
      <trkpt lat="71.027296967804432" lon="25.844327984377742">
        <ele>212.59</ele>
        <time>2017-06-26T11:41:24Z</time>
      </trkpt>
      <trkpt lat="71.02724801748991" lon="25.844721011817455">
        <ele>211.63</ele>
        <time>2017-06-26T11:41:25Z</time>
      </trkpt>
      <trkpt lat="71.027215998619795" lon="25.845128037035465">
        <ele>210.66999999999999</ele>
        <time>2017-06-26T11:41:26Z</time>
      </trkpt>
      <trkpt lat="71.027202000841498" lon="25.845542019233108">
        <ele>209.69999999999999</ele>
        <time>2017-06-26T11:41:27Z</time>
      </trkpt>
      <trkpt lat="71.027202000841498" lon="25.84597603417933">
        <ele>208.74000000000001</ele>
        <time>2017-06-26T11:41:28Z</time>
      </trkpt>
      <trkpt lat="71.027223039418459" lon="25.846410971134901">
        <ele>207.78</ele>
        <time>2017-06-26T11:41:29Z</time>
      </trkpt>
      <trkpt lat="71.027264026924968" lon="25.846840962767601">
        <ele>206.34</ele>
        <time>2017-06-26T11:41:30Z</time>
      </trkpt>
      <trkpt lat="71.027324963361025" lon="25.847262991592288">
        <ele>204.41999999999999</ele>
        <time>2017-06-26T11:41:31Z</time>
      </trkpt>
      <trkpt lat="71.02739998139441" lon="25.847678985446692">
        <ele>202.97999999999999</ele>
        <time>2017-06-26T11:41:32Z</time>
      </trkpt>
      <trkpt lat="71.027493020519614" lon="25.848087016493082">
        <ele>201.53</ele>
        <time>2017-06-26T11:41:33Z</time>
      </trkpt>
      <trkpt lat="71.027588993310928" lon="25.848496975377202">
        <ele>199.61000000000001</ele>
        <time>2017-06-26T11:41:34Z</time>
      </trkpt>
      <trkpt lat="71.027755038812757" lon="25.849357964470983">
        <ele>196.72999999999999</ele>
        <time>2017-06-26T11:41:36Z</time>
      </trkpt>
      <trkpt lat="71.027813041582704" lon="25.84980396553874">
        <ele>195.28</ele>
        <time>2017-06-26T11:41:37Z</time>
      </trkpt>
      <trkpt lat="71.027854029089212" lon="25.850260024890304">
        <ele>193.84</ele>
        <time>2017-06-26T11:41:38Z</time>
      </trkpt>
      <trkpt lat="71.027943966910243" lon="25.851514041423798">
        <ele>190</ele>
        <time>2017-06-26T11:41:41Z</time>
      </trkpt>
      <trkpt lat="71.027989983558655" lon="25.851822998374701">
        <ele>189.03999999999999</ele>
        <time>2017-06-26T11:41:42Z</time>
      </trkpt>
      <trkpt lat="71.028049997985363" lon="25.852085016667843">
        <ele>187.59</ele>
        <time>2017-06-26T11:41:43Z</time>
      </trkpt>
      <trkpt lat="71.028116969391704" lon="25.852318033576012">
        <ele>186.63</ele>
        <time>2017-06-26T11:41:44Z</time>
      </trkpt>
      <trkpt lat="71.028182012960315" lon="25.852502016350627">
        <ele>186.15000000000001</ele>
        <time>2017-06-26T11:41:45Z</time>
      </trkpt>
      <trkpt lat="71.028249990195036" lon="25.85263897664845">
        <ele>185.19</ele>
        <time>2017-06-26T11:41:46Z</time>
      </trkpt>
      <trkpt lat="71.028332971036434" lon="25.852764034643769">
        <ele>183.75</ele>
        <time>2017-06-26T11:41:47Z</time>
      </trkpt>
      <trkpt lat="71.028421986848116" lon="25.852889008820057">
        <ele>183.27000000000001</ele>
        <time>2017-06-26T11:41:48Z</time>
      </trkpt>
      <trkpt lat="71.028522988781333" lon="25.852998979389668">
        <ele>182.31</ele>
        <time>2017-06-26T11:41:49Z</time>
      </trkpt>
      <trkpt lat="71.028729015961289" lon="25.853257980197668">
        <ele>179.90000000000001</ele>
        <time>2017-06-26T11:41:51Z</time>
      </trkpt>
      <trkpt lat="71.028824988752604" lon="25.853437017649412">
        <ele>178.94</ele>
        <time>2017-06-26T11:41:52Z</time>
      </trkpt>
      <trkpt lat="71.028908975422382" lon="25.8536690287292">
        <ele>177.97999999999999</ele>
        <time>2017-06-26T11:41:53Z</time>
      </trkpt>
      <trkpt lat="71.028978964313865" lon="25.85394898429513">
        <ele>176.53999999999999</ele>
        <time>2017-06-26T11:41:54Z</time>
      </trkpt>
      <trkpt lat="71.029029004275799" lon="25.854264982044697">
        <ele>175.58000000000001</ele>
        <time>2017-06-26T11:41:55Z</time>
      </trkpt>
      <trkpt lat="71.029056999832392" lon="25.854607969522476">
        <ele>175.09999999999999</ele>
        <time>2017-06-26T11:41:56Z</time>
      </trkpt>
      <trkpt lat="71.029064040631056" lon="25.854956991970539">
        <ele>173.66</ele>
        <time>2017-06-26T11:41:57Z</time>
      </trkpt>
      <trkpt lat="71.029051970690489" lon="25.855312971398234">
        <ele>172.69</ele>
        <time>2017-06-26T11:41:58Z</time>
      </trkpt>
      <trkpt lat="71.029035039246082" lon="25.855672974139452">
        <ele>171.72999999999999</ele>
        <time>2017-06-26T11:41:59Z</time>
      </trkpt>
      <trkpt lat="71.029021041467786" lon="25.856403037905693">
        <ele>169.33000000000001</ele>
        <time>2017-06-26T11:42:01Z</time>
      </trkpt>
      <trkpt lat="71.029035961255431" lon="25.856776032596827">
        <ele>168.37</ele>
        <time>2017-06-26T11:42:02Z</time>
      </trkpt>
      <trkpt lat="71.029072003439069" lon="25.857137963175774">
        <ele>167.41</ele>
        <time>2017-06-26T11:42:03Z</time>
      </trkpt>
      <trkpt lat="71.029122965410352" lon="25.857481034472585">
        <ele>165.96000000000001</ele>
        <time>2017-06-26T11:42:04Z</time>
      </trkpt>
      <trkpt lat="71.029192032292485" lon="25.85779401473701">
        <ele>164.52000000000001</ele>
        <time>2017-06-26T11:42:05Z</time>
      </trkpt>
      <trkpt lat="71.029280964285135" lon="25.858055027201772">
        <ele>163.08000000000001</ele>
        <time>2017-06-26T11:42:06Z</time>
      </trkpt>
      <trkpt lat="71.029380960389972" lon="25.858285026624799">
        <ele>162.12</ele>
        <time>2017-06-26T11:42:07Z</time>
      </trkpt>
      <trkpt lat="71.029494032263756" lon="25.858490969985723">
        <ele>160.68000000000001</ele>
        <time>2017-06-26T11:42:08Z</time>
      </trkpt>
      <trkpt lat="71.029615988954902" lon="25.858669001609087">
        <ele>159.72</ele>
        <time>2017-06-26T11:42:09Z</time>
      </trkpt>
      <trkpt lat="71.030763974413276" lon="25.860275980085135">
        <ele>150.58000000000001</ele>
        <time>2017-06-26T11:42:18Z</time>
      </trkpt>
      <trkpt lat="71.030842009931803" lon="25.860488964244723">
        <ele>150.09999999999999</ele>
        <time>2017-06-26T11:42:19Z</time>
      </trkpt>
      <trkpt lat="71.030899006873369" lon="25.860721981152892">
        <ele>149.13999999999999</ele>
        <time>2017-06-26T11:42:20Z</time>
      </trkpt>
      <trkpt lat="71.030933037400246" lon="25.860980981960893">
        <ele>148.66</ele>
        <time>2017-06-26T11:42:21Z</time>
      </trkpt>
      <trkpt lat="71.03094301186502" lon="25.861250963062048">
        <ele>147.69999999999999</ele>
        <time>2017-06-26T11:42:22Z</time>
      </trkpt>
      <trkpt lat="71.030925996601582" lon="25.861523961648345">
        <ele>146.74000000000001</ele>
        <time>2017-06-26T11:42:23Z</time>
      </trkpt>
      <trkpt lat="71.030884003266692" lon="25.86176997050643">
        <ele>145.78</ele>
        <time>2017-06-26T11:42:24Z</time>
      </trkpt>
      <trkpt lat="71.030828012153506" lon="25.861991001293063">
        <ele>144.81999999999999</ele>
        <time>2017-06-26T11:42:25Z</time>
      </trkpt>
      <trkpt lat="71.030747964978218" lon="25.862129973247647">
        <ele>143.84999999999999</ele>
        <time>2017-06-26T11:42:26Z</time>
      </trkpt>
      <trkpt lat="71.030648974701762" lon="25.862208008766174">
        <ele>142.41</ele>
        <time>2017-06-26T11:42:27Z</time>
      </trkpt>
      <trkpt lat="71.030541015788913" lon="25.862213959917426">
        <ele>141.44999999999999</ele>
        <time>2017-06-26T11:42:28Z</time>
      </trkpt>
      <trkpt lat="71.03042802773416" lon="25.862172972410917">
        <ele>140.97</ele>
        <time>2017-06-26T11:42:29Z</time>
      </trkpt>
      <trkpt lat="71.030304981395602" lon="25.862085968255997">
        <ele>139.53</ele>
        <time>2017-06-26T11:42:30Z</time>
      </trkpt>
      <trkpt lat="71.030179001390934" lon="25.86202503181994">
        <ele>138.56999999999999</ele>
        <time>2017-06-26T11:42:31Z</time>
      </trkpt>
      <trkpt lat="71.030048998072743" lon="25.862009022384882">
        <ele>137.13</ele>
        <time>2017-06-26T11:42:32Z</time>
      </trkpt>
      <trkpt lat="71.029916983097792" lon="25.862036012113094">
        <ele>136.63999999999999</ele>
        <time>2017-06-26T11:42:33Z</time>
      </trkpt>
      <trkpt lat="71.02978496812284" lon="25.862118992954493">
        <ele>135.19999999999999</ele>
        <time>2017-06-26T11:42:34Z</time>
      </trkpt>
      <trkpt lat="71.029656976461411" lon="25.862255031242967">
        <ele>133.75999999999999</ele>
        <time>2017-06-26T11:42:35Z</time>
      </trkpt>
      <trkpt lat="71.029538959264755" lon="25.862448988482356">
        <ele>132.80000000000001</ele>
        <time>2017-06-26T11:42:36Z</time>
      </trkpt>
      <trkpt lat="71.029431000351906" lon="25.862684017047286">
        <ele>131.36000000000001</ele>
        <time>2017-06-26T11:42:37Z</time>
      </trkpt>
      <trkpt lat="71.029340978711843" lon="25.862962966784835">
        <ele>130.40000000000001</ele>
        <time>2017-06-26T11:42:38Z</time>
      </trkpt>
      <trkpt lat="71.029265038669109" lon="25.86327200755477">
        <ele>129.43000000000001</ele>
        <time>2017-06-26T11:42:39Z</time>
      </trkpt>
      <trkpt lat="71.029205024242401" lon="25.863604014739394">
        <ele>127.98999999999999</ele>
        <time>2017-06-26T11:42:40Z</time>
      </trkpt>
      <trkpt lat="71.02916001342237" lon="25.863974997773767">
        <ele>127.03</ele>
        <time>2017-06-26T11:42:41Z</time>
      </trkpt>
      <trkpt lat="71.029131012037396" lon="25.864366013556719">
        <ele>126.06999999999999</ele>
        <time>2017-06-26T11:42:42Z</time>
      </trkpt>
      <trkpt lat="71.029120031744242" lon="25.864760968834162">
        <ele>124.63</ele>
        <time>2017-06-26T11:42:43Z</time>
      </trkpt>
      <trkpt lat="71.029136963188648" lon="25.865156007930636">
        <ele>123.67</ele>
        <time>2017-06-26T11:42:44Z</time>
      </trkpt>
      <trkpt lat="71.029175017029047" lon="25.86555004119873">
        <ele>122.22</ele>
        <time>2017-06-26T11:42:45Z</time>
      </trkpt>
      <trkpt lat="71.029226984828711" lon="25.86593996733427">
        <ele>120.3</ele>
        <time>2017-06-26T11:42:46Z</time>
      </trkpt>
      <trkpt lat="71.029295967891812" lon="25.866338023915887">
        <ele>119.34</ele>
        <time>2017-06-26T11:42:47Z</time>
      </trkpt>
      <trkpt lat="71.029379032552242" lon="25.866706995293498">
        <ele>117.90000000000001</ele>
        <time>2017-06-26T11:42:48Z</time>
      </trkpt>
      <trkpt lat="71.029473999515176" lon="25.867056017741561">
        <ele>116.94</ele>
        <time>2017-06-26T11:42:49Z</time>
      </trkpt>
      <trkpt lat="71.029577013105154" lon="25.867393976077437">
        <ele>115.01000000000001</ele>
        <time>2017-06-26T11:42:50Z</time>
      </trkpt>
      <trkpt lat="71.030597006902099" lon="25.871495995670557">
        <ele>102.52</ele>
        <time>2017-06-26T11:43:01Z</time>
      </trkpt>
      <trkpt lat="71.030670013278723" lon="25.871904026716948">
        <ele>101.56</ele>
        <time>2017-06-26T11:43:02Z</time>
      </trkpt>
      <trkpt lat="71.030757017433643" lon="25.872282972559333">
        <ele>100.59999999999999</ele>
        <time>2017-06-26T11:43:03Z</time>
      </trkpt>
      <trkpt lat="71.030927002429962" lon="25.87302996776998">
        <ele>98.189999999999998</ele>
        <time>2017-06-26T11:43:05Z</time>
      </trkpt>
      <trkpt lat="71.030988022685051" lon="25.873420983552933">
        <ele>97.230000000000004</ele>
        <time>2017-06-26T11:43:06Z</time>
      </trkpt>
      <trkpt lat="71.031033033505082" lon="25.87382398545742">
        <ele>96.75</ele>
        <time>2017-06-26T11:43:07Z</time>
      </trkpt>
      <trkpt lat="71.031055999919772" lon="25.874237967655063">
        <ele>95.310000000000002</ele>
        <time>2017-06-26T11:43:08Z</time>
      </trkpt>
      <trkpt lat="71.031049964949489" lon="25.874662008136511">
        <ele>93.870000000000005</ele>
        <time>2017-06-26T11:43:09Z</time>
      </trkpt>
      <trkpt lat="71.031020963564515" lon="25.875095017254353">
        <ele>92.420000000000002</ele>
        <time>2017-06-26T11:43:10Z</time>
      </trkpt>
      <trkpt lat="71.03096698410809" lon="25.875534983351827">
        <ele>90.980000000000004</ele>
        <time>2017-06-26T11:43:11Z</time>
      </trkpt>
      <trkpt lat="71.030902024358511" lon="25.875989031046629">
        <ele>89.540000000000006</ele>
        <time>2017-06-26T11:43:12Z</time>
      </trkpt>
      <trkpt lat="71.030502039939165" lon="25.879394011572003">
        <ele>79.450000000000003</ele>
        <time>2017-06-26T11:43:19Z</time>
      </trkpt>
      <trkpt lat="71.030497010797262" lon="25.879887035116553">
        <ele>78.480000000000004</ele>
        <time>2017-06-26T11:43:20Z</time>
      </trkpt>
      <trkpt lat="71.030504973605275" lon="25.880364971235394">
        <ele>77.519999999999996</ele>
        <time>2017-06-26T11:43:21Z</time>
      </trkpt>
      <trkpt lat="71.030528023838997" lon="25.880846008658409">
        <ele>76.560000000000002</ele>
        <time>2017-06-26T11:43:22Z</time>
      </trkpt>
      <trkpt lat="71.030563982203603" lon="25.881312964484096">
        <ele>75.599999999999994</ele>
        <time>2017-06-26T11:43:23Z</time>
      </trkpt>
      <trkpt lat="71.030669007450342" lon="25.882227011024952">
        <ele>73.680000000000007</ele>
        <time>2017-06-26T11:43:25Z</time>
      </trkpt>
      <trkpt lat="71.030741007998586" lon="25.882675023749471">
        <ele>72.239999999999995</ele>
        <time>2017-06-26T11:43:26Z</time>
      </trkpt>
      <trkpt lat="71.030828012153506" lon="25.883099986240268">
        <ele>71.269999999999996</ele>
        <time>2017-06-26T11:43:27Z</time>
      </trkpt>
      <trkpt lat="71.030924990773201" lon="25.883510028943419">
        <ele>70.310000000000002</ele>
        <time>2017-06-26T11:43:28Z</time>
      </trkpt>
      <trkpt lat="71.031040996313095" lon="25.883897021412849">
        <ele>68.870000000000005</ele>
        <time>2017-06-26T11:43:29Z</time>
      </trkpt>
      <trkpt lat="71.031168987974524" lon="25.88424202054739">
        <ele>67.430000000000007</ele>
        <time>2017-06-26T11:43:30Z</time>
      </trkpt>
      <trkpt lat="71.031307959929109" lon="25.884551983326674">
        <ele>66.469999999999999</ele>
        <time>2017-06-26T11:43:31Z</time>
      </trkpt>
      <trkpt lat="71.031454978510737" lon="25.884827999398112">
        <ele>65.510000000000005</ele>
        <time>2017-06-26T11:43:32Z</time>
      </trkpt>
      <trkpt lat="71.031601997092366" lon="25.885056992992759">
        <ele>64.549999999999997</ele>
        <time>2017-06-26T11:43:33Z</time>
      </trkpt>
      <trkpt lat="71.03175999596715" lon="25.885252961888909">
        <ele>63.579999999999998</ele>
        <time>2017-06-26T11:43:34Z</time>
      </trkpt>
      <trkpt lat="71.031920006498694" lon="25.885405009612441">
        <ele>62.619999999999997</ele>
        <time>2017-06-26T11:43:35Z</time>
      </trkpt>
      <trkpt lat="71.032083034515381" lon="25.88553199544549">
        <ele>61.659999999999997</ele>
        <time>2017-06-26T11:43:36Z</time>
      </trkpt>
      <trkpt lat="71.033805012702942" lon="25.886745024472475">
        <ele>60.700000000000003</ele>
        <time>2017-06-26T11:43:48Z</time>
      </trkpt>
      <trkpt lat="71.034201979637146" lon="25.886796992272139">
        <ele>60.700000000000003</ele>
        <time>2017-06-26T11:43:52Z</time>
      </trkpt>
      <trkpt lat="71.034297030419111" lon="25.886882990598679">
        <ele>60.219999999999999</ele>
        <time>2017-06-26T11:43:53Z</time>
      </trkpt>
      <trkpt lat="71.034387974068522" lon="25.886998996138573">
        <ele>60.219999999999999</ele>
        <time>2017-06-26T11:43:54Z</time>
      </trkpt>
      <trkpt lat="71.034463997930288" lon="25.887156995013356">
        <ele>60.219999999999999</ele>
        <time>2017-06-26T11:43:55Z</time>
      </trkpt>
      <trkpt lat="71.034522000700235" lon="25.887353969737887">
        <ele>60.219999999999999</ele>
        <time>2017-06-26T11:43:56Z</time>
      </trkpt>
      <trkpt lat="71.034564999863505" lon="25.887567959725857">
        <ele>60.219999999999999</ele>
        <time>2017-06-26T11:43:57Z</time>
      </trkpt>
      <trkpt lat="71.034582015126944" lon="25.887800976634026">
        <ele>60.219999999999999</ele>
        <time>2017-06-26T11:43:58Z</time>
      </trkpt>
      <trkpt lat="71.034576985985041" lon="25.888042962178588">
        <ele>60.219999999999999</ele>
        <time>2017-06-26T11:43:59Z</time>
      </trkpt>
      <trkpt lat="71.034554019570351" lon="25.888270027935505">
        <ele>59.740000000000002</ele>
        <time>2017-06-26T11:44:00Z</time>
      </trkpt>
      <trkpt lat="71.034511020407081" lon="25.888461973518133">
        <ele>59.740000000000002</ele>
        <time>2017-06-26T11:44:01Z</time>
      </trkpt>
      <trkpt lat="71.034450000151992" lon="25.888613015413284">
        <ele>59.259999999999998</ele>
        <time>2017-06-26T11:44:02Z</time>
      </trkpt>
      <trkpt lat="71.034371964633465" lon="25.888729020953178">
        <ele>59.259999999999998</ele>
        <time>2017-06-26T11:44:03Z</time>
      </trkpt>
      <trkpt lat="71.034283032640815" lon="25.88881996460259">
        <ele>58.780000000000001</ele>
        <time>2017-06-26T11:44:04Z</time>
      </trkpt>
      <trkpt lat="71.034185970202088" lon="25.888898000121117">
        <ele>58.299999999999997</ele>
        <time>2017-06-26T11:44:05Z</time>
      </trkpt>
      <trkpt lat="71.034078011289239" lon="25.888953991234303">
        <ele>58.299999999999997</ele>
        <time>2017-06-26T11:44:06Z</time>
      </trkpt>
      <trkpt lat="71.033957982435822" lon="25.888979975134134">
        <ele>57.340000000000003</ele>
        <time>2017-06-26T11:44:07Z</time>
      </trkpt>
      <trkpt lat="71.03382202796638" lon="25.888981986790895">
        <ele>56.859999999999999</ele>
        <time>2017-06-26T11:44:08Z</time>
      </trkpt>
      <trkpt lat="71.033678026869893" lon="25.888934964314103">
        <ele>55.890000000000001</ele>
        <time>2017-06-26T11:44:09Z</time>
      </trkpt>
      <trkpt lat="71.032221000641584" lon="25.887965010479093">
        <ele>44.840000000000003</ele>
        <time>2017-06-26T11:44:18Z</time>
      </trkpt>
      <trkpt lat="71.032075993716717" lon="25.887717995792627">
        <ele>43.399999999999999</ele>
        <time>2017-06-26T11:44:19Z</time>
      </trkpt>
      <trkpt lat="71.031949007883668" lon="25.887419013306499">
        <ele>42.439999999999998</ele>
        <time>2017-06-26T11:44:20Z</time>
      </trkpt>
      <trkpt lat="71.031835014000535" lon="25.887081976979971">
        <ele>40.990000000000002</ele>
        <time>2017-06-26T11:44:21Z</time>
      </trkpt>
      <trkpt lat="71.031721020117402" lon="25.886741001158953">
        <ele>40.030000000000001</ele>
        <time>2017-06-26T11:44:22Z</time>
      </trkpt>
      <trkpt lat="71.031598979607224" lon="25.886432966217399">
        <ele>39.549999999999997</ele>
        <time>2017-06-26T11:44:23Z</time>
      </trkpt>
      <trkpt lat="71.031464030966163" lon="25.886201960965991">
        <ele>38.109999999999999</ele>
        <time>2017-06-26T11:44:24Z</time>
      </trkpt>
      <trkpt lat="71.031317012384534" lon="25.886049997061491">
        <ele>36.670000000000002</ele>
        <time>2017-06-26T11:44:25Z</time>
      </trkpt>
      <trkpt lat="71.031162030994892" lon="25.885975984856486">
        <ele>35.229999999999997</ele>
        <time>2017-06-26T11:44:26Z</time>
      </trkpt>
      <trkpt lat="71.031005959957838" lon="25.885950000956655">
        <ele>34.259999999999998</ele>
        <time>2017-06-26T11:44:27Z</time>
      </trkpt>
      <trkpt lat="71.030852990224957" lon="25.885943965986371">
        <ele>33.299999999999997</ele>
        <time>2017-06-26T11:44:28Z</time>
      </trkpt>
      <trkpt lat="71.03055702522397" lon="25.886033987626433">
        <ele>32.340000000000003</ele>
        <time>2017-06-26T11:44:30Z</time>
      </trkpt>
      <trkpt lat="71.030420986935496" lon="25.886171031743288">
        <ele>32.340000000000003</ele>
        <time>2017-06-26T11:44:31Z</time>
      </trkpt>
      <trkpt lat="71.030287966132164" lon="25.886367000639439">
        <ele>31.859999999999999</ele>
        <time>2017-06-26T11:44:32Z</time>
      </trkpt>
      <trkpt lat="71.029597967863083" lon="25.887180967256427">
        <ele>30.420000000000002</ele>
        <time>2017-06-26T11:44:37Z</time>
      </trkpt>
      <trkpt lat="71.029442986473441" lon="25.887256991118193">
        <ele>29.940000000000001</ele>
        <time>2017-06-26T11:44:38Z</time>
      </trkpt>
      <trkpt lat="71.029281970113516" lon="25.887304013594985">
        <ele>29.460000000000001</ele>
        <time>2017-06-26T11:44:39Z</time>
      </trkpt>
      <trkpt lat="71.027232008054852" lon="25.887782033532858">
        <ele>26.57</ele>
        <time>2017-06-26T11:44:52Z</time>
      </trkpt>
      <trkpt lat="71.026049992069602" lon="25.889371996745467">
        <ele>26.57</ele>
        <time>2017-06-26T11:45:00Z</time>
      </trkpt>
      <trkpt lat="71.025756960734725" lon="25.889792013913393">
        <ele>26.09</ele>
        <time>2017-06-26T11:45:02Z</time>
      </trkpt>
      <trkpt lat="71.025614971294999" lon="25.889907013624907">
        <ele>25.609999999999999</ele>
        <time>2017-06-26T11:45:03Z</time>
      </trkpt>
      <trkpt lat="71.025477005168796" lon="25.889939032495022">
        <ele>25.129999999999999</ele>
        <time>2017-06-26T11:45:04Z</time>
      </trkpt>
      <trkpt lat="71.025337027385831" lon="25.889884969219565">
        <ele>24.649999999999999</ele>
        <time>2017-06-26T11:45:05Z</time>
      </trkpt>
      <trkpt lat="71.025199983268976" lon="25.889747003093362">
        <ele>24.649999999999999</ele>
        <time>2017-06-26T11:45:06Z</time>
      </trkpt>
      <trkpt lat="71.025072997435927" lon="25.889533013105392">
        <ele>24.170000000000002</ele>
        <time>2017-06-26T11:45:07Z</time>
      </trkpt>
      <trkpt lat="71.024953974410892" lon="25.889254985377192">
        <ele>24.170000000000002</ele>
        <time>2017-06-26T11:45:08Z</time>
      </trkpt>
      <trkpt lat="71.024836041033268" lon="25.888924989849329">
        <ele>23.690000000000001</ele>
        <time>2017-06-26T11:45:09Z</time>
      </trkpt>
      <trkpt lat="71.023714039474726" lon="25.886569004505873">
        <ele>22.25</ele>
        <time>2017-06-26T11:45:17Z</time>
      </trkpt>
      <trkpt lat="71.022375030443072" lon="25.884902011603117">
        <ele>19.84</ele>
        <time>2017-06-26T11:45:25Z</time>
      </trkpt>
      <trkpt lat="71.022214014083147" lon="25.884637981653214">
        <ele>18.879999999999999</ele>
        <time>2017-06-26T11:45:26Z</time>
      </trkpt>
      <trkpt lat="71.022063978016376" lon="25.884331036359072">
        <ele>18.399999999999999</ele>
        <time>2017-06-26T11:45:27Z</time>
      </trkpt>
      <trkpt lat="71.021918971091509" lon="25.883983019739389">
        <ele>17.920000000000002</ele>
        <time>2017-06-26T11:45:28Z</time>
      </trkpt>
      <trkpt lat="71.021786034107208" lon="25.883611030876637">
        <ele>17.440000000000001</ele>
        <time>2017-06-26T11:45:29Z</time>
      </trkpt>
      <trkpt lat="71.021207012236118" lon="25.882305968552828">
        <ele>14.56</ele>
        <time>2017-06-26T11:45:33Z</time>
      </trkpt>
      <trkpt lat="71.021037027239799" lon="25.882085021585226">
        <ele>14.08</ele>
        <time>2017-06-26T11:45:34Z</time>
      </trkpt>
      <trkpt lat="71.020872993394732" lon="25.881904978305101">
        <ele>13.6</ele>
        <time>2017-06-26T11:45:35Z</time>
      </trkpt>
      <trkpt lat="71.02069697342813" lon="25.881754020228982">
        <ele>13.119999999999999</ele>
        <time>2017-06-26T11:45:36Z</time>
      </trkpt>
      <trkpt lat="71.02052103728056" lon="25.881654024124146">
        <ele>12.630000000000001</ele>
        <time>2017-06-26T11:45:37Z</time>
      </trkpt>
      <trkpt lat="71.020339988172054" lon="25.881603984162211">
        <ele>12.630000000000001</ele>
        <time>2017-06-26T11:45:38Z</time>
      </trkpt>
      <trkpt lat="71.020153993740678" lon="25.881604989990592">
        <ele>12.15</ele>
        <time>2017-06-26T11:45:39Z</time>
      </trkpt>
      <trkpt lat="71.019973028451204" lon="25.881646983325481">
        <ele>11.67</ele>
        <time>2017-06-26T11:45:40Z</time>
      </trkpt>
      <trkpt lat="71.019791979342699" lon="25.881710015237331">
        <ele>11.19</ele>
        <time>2017-06-26T11:45:41Z</time>
      </trkpt>
      <trkpt lat="71.01682897657156" lon="25.88245801627636">
        <ele>7.35</ele>
        <time>2017-06-26T11:45:58Z</time>
      </trkpt>
      <trkpt lat="71.015875032171607" lon="25.881958035752177">
        <ele>4.94</ele>
        <time>2017-06-26T11:46:04Z</time>
      </trkpt>
      <trkpt lat="71.01571099832654" lon="25.881984019652009">
        <ele>4.94</ele>
        <time>2017-06-26T11:46:05Z</time>
      </trkpt>
      <trkpt lat="71.015555011108518" lon="25.882091978564858">
        <ele>4.94</ele>
        <time>2017-06-26T11:46:06Z</time>
      </trkpt>
      <trkpt lat="71.015402963384986" lon="25.882264981046319">
        <ele>5.42</ele>
        <time>2017-06-26T11:46:07Z</time>
      </trkpt>
      <trkpt lat="71.015254016965628" lon="25.882491040974855">
        <ele>5.42</ele>
        <time>2017-06-26T11:46:08Z</time>
      </trkpt>
      <trkpt lat="71.015117978677154" lon="25.882756998762488">
        <ele>5.42</ele>
        <time>2017-06-26T11:46:09Z</time>
      </trkpt>
      <trkpt lat="71.014989987015724" lon="25.883052041754127">
        <ele>5.42</ele>
        <time>2017-06-26T11:46:10Z</time>
      </trkpt>
      <trkpt lat="71.014875993132591" lon="25.883381031453609">
        <ele>5.91</ele>
        <time>2017-06-26T11:46:11Z</time>
      </trkpt>
      <trkpt lat="71.014775997027755" lon="25.883750002831221">
        <ele>5.91</ele>
        <time>2017-06-26T11:46:12Z</time>
      </trkpt>
      <trkpt lat="71.014693016186357" lon="25.884162979200482">
        <ele>6.39</ele>
        <time>2017-06-26T11:46:13Z</time>
      </trkpt>
      <trkpt lat="71.014633001759648" lon="25.884596994146705">
        <ele>6.39</ele>
        <time>2017-06-26T11:46:14Z</time>
      </trkpt>
      <trkpt lat="71.014600982889533" lon="25.885055987164378">
        <ele>6.39</ele>
        <time>2017-06-26T11:46:15Z</time>
      </trkpt>
      <trkpt lat="71.014590002596378" lon="25.885521015152335">
        <ele>6.87</ele>
        <time>2017-06-26T11:46:16Z</time>
      </trkpt>
      <trkpt lat="71.014601988717914" lon="25.88598302565515">
        <ele>7.35</ele>
        <time>2017-06-26T11:46:17Z</time>
      </trkpt>
      <trkpt lat="71.014621015638113" lon="25.886460039764643">
        <ele>7.83</ele>
        <time>2017-06-26T11:46:18Z</time>
      </trkpt>
      <trkpt lat="71.014646999537945" lon="25.886936970055103">
        <ele>7.83</ele>
        <time>2017-06-26T11:46:19Z</time>
      </trkpt>
      <trkpt lat="71.014720005914569" lon="25.888306992128491">
        <ele>8.310000000000001</ele>
        <time>2017-06-26T11:46:22Z</time>
      </trkpt>
      <trkpt lat="71.014713970944285" lon="25.888728015124798">
        <ele>8.789999999999999</ele>
        <time>2017-06-26T11:46:23Z</time>
      </trkpt>
      <trkpt lat="71.014689998701215" lon="25.889135962352157">
        <ele>9.27</ele>
        <time>2017-06-26T11:46:24Z</time>
      </trkpt>
      <trkpt lat="71.014643982052803" lon="25.889525972306728">
        <ele>9.27</ele>
        <time>2017-06-26T11:46:25Z</time>
      </trkpt>
      <trkpt lat="71.014578016474843" lon="25.889887986704707">
        <ele>9.27</ele>
        <time>2017-06-26T11:46:26Z</time>
      </trkpt>
      <trkpt lat="71.014496963471174" lon="25.890202978625894">
        <ele>8.789999999999999</ele>
        <time>2017-06-26T11:46:27Z</time>
      </trkpt>
      <trkpt lat="71.014405013993382" lon="25.890482012182474">
        <ele>8.789999999999999</ele>
        <time>2017-06-26T11:46:28Z</time>
      </trkpt>
      <trkpt lat="71.014296971261501" lon="25.890717040747404">
        <ele>9.27</ele>
        <time>2017-06-26T11:46:29Z</time>
      </trkpt>
      <trkpt lat="71.014176020398736" lon="25.890908986330032">
        <ele>8.789999999999999</ele>
        <time>2017-06-26T11:46:30Z</time>
      </trkpt>
      <trkpt lat="71.014044005423784" lon="25.89107695966959">
        <ele>8.789999999999999</ele>
        <time>2017-06-26T11:46:31Z</time>
      </trkpt>
      <trkpt lat="71.012871963903308" lon="25.892624007537961">
        <ele>7.83</ele>
        <time>2017-06-26T11:46:39Z</time>
      </trkpt>
      <trkpt lat="71.012706002220511" lon="25.892730038613081">
        <ele>7.83</ele>
        <time>2017-06-26T11:46:40Z</time>
      </trkpt>
      <trkpt lat="71.012541968375444" lon="25.892788963392377">
        <ele>7.35</ele>
        <time>2017-06-26T11:46:41Z</time>
      </trkpt>
      <trkpt lat="71.010541040450335" lon="25.893402015790343">
        <ele>6.39</ele>
        <time>2017-06-26T11:46:53Z</time>
      </trkpt>
      <trkpt lat="71.010138960555196" lon="25.893539981916547">
        <ele>5.91</ele>
        <time>2017-06-26T11:46:56Z</time>
      </trkpt>
      <trkpt lat="71.010023960843682" lon="25.893664034083486">
        <ele>5.91</ele>
        <time>2017-06-26T11:46:57Z</time>
      </trkpt>
      <trkpt lat="71.009914996102452" lon="25.893856985494494">
        <ele>5.91</ele>
        <time>2017-06-26T11:46:58Z</time>
      </trkpt>
      <trkpt lat="71.009811982512474" lon="25.894077010452747">
        <ele>5.91</ele>
        <time>2017-06-26T11:46:59Z</time>
      </trkpt>
      <trkpt lat="71.009721038863063" lon="25.894321007654071">
        <ele>5.91</ele>
        <time>2017-06-26T11:47:00Z</time>
      </trkpt>
      <trkpt lat="71.009640991687775" lon="25.89459802955389">
        <ele>5.91</ele>
        <time>2017-06-26T11:47:01Z</time>
      </trkpt>
      <trkpt lat="71.009571002796292" lon="25.894887037575245">
        <ele>6.39</ele>
        <time>2017-06-26T11:47:02Z</time>
      </trkpt>
      <trkpt lat="71.009520962834358" lon="25.895206974819303">
        <ele>6.39</ele>
        <time>2017-06-26T11:47:03Z</time>
      </trkpt>
      <trkpt lat="71.009483998641372" lon="25.895563960075378">
        <ele>6.87</ele>
        <time>2017-06-26T11:47:04Z</time>
      </trkpt>
      <trkpt lat="71.009464971721172" lon="25.895945001393557">
        <ele>7.35</ele>
        <time>2017-06-26T11:47:05Z</time>
      </trkpt>
      <trkpt lat="71.009468995034695" lon="25.89634096249938">
        <ele>7.83</ele>
        <time>2017-06-26T11:47:06Z</time>
      </trkpt>
      <trkpt lat="71.009494978934526" lon="25.896748993545771">
        <ele>8.310000000000001</ele>
        <time>2017-06-26T11:47:07Z</time>
      </trkpt>
      <trkpt lat="71.009539989754558" lon="25.897159036248922">
        <ele>8.789999999999999</ele>
        <time>2017-06-26T11:47:08Z</time>
      </trkpt>
      <trkpt lat="71.009597992524505" lon="25.897575030103326">
        <ele>9.27</ele>
        <time>2017-06-26T11:47:09Z</time>
      </trkpt>
      <trkpt lat="71.009661024436355" lon="25.897993035614491">
        <ele>9.27</ele>
        <time>2017-06-26T11:47:10Z</time>
      </trkpt>
      <trkpt lat="71.010135021060705" lon="25.902122966945171">
        <ele>11.19</ele>
        <time>2017-06-26T11:47:19Z</time>
      </trkpt>
      <trkpt lat="71.010142983868718" lon="25.905732968822122">
        <ele>9.27</ele>
        <time>2017-06-26T11:47:26Z</time>
      </trkpt>
      <trkpt lat="71.010099984705448" lon="25.906145023182034">
        <ele>9.27</ele>
        <time>2017-06-26T11:47:27Z</time>
      </trkpt>
      <trkpt lat="71.01003997027874" lon="25.906520029529929">
        <ele>8.789999999999999</ele>
        <time>2017-06-26T11:47:28Z</time>
      </trkpt>
      <trkpt lat="71.009963024407625" lon="25.906875003129244">
        <ele>8.789999999999999</ele>
        <time>2017-06-26T11:47:29Z</time>
      </trkpt>
      <trkpt lat="71.009876020252705" lon="25.90721002779901">
        <ele>8.789999999999999</ele>
        <time>2017-06-26T11:47:30Z</time>
      </trkpt>
      <trkpt lat="71.009780969470739" lon="25.907546980306506">
        <ele>8.310000000000001</ele>
        <time>2017-06-26T11:47:31Z</time>
      </trkpt>
      <trkpt lat="71.009697988629341" lon="25.907906983047724">
        <ele>8.310000000000001</ele>
        <time>2017-06-26T11:47:32Z</time>
      </trkpt>
      <trkpt lat="71.00963001139462" lon="25.908291963860393">
        <ele>8.310000000000001</ele>
        <time>2017-06-26T11:47:33Z</time>
      </trkpt>
      <trkpt lat="71.009583994746208" lon="25.90871499851346">
        <ele>7.83</ele>
        <time>2017-06-26T11:47:34Z</time>
      </trkpt>
      <trkpt lat="71.009563039988279" lon="25.909153036773205">
        <ele>7.83</ele>
        <time>2017-06-26T11:47:35Z</time>
      </trkpt>
      <trkpt lat="71.009569996967912" lon="25.909598032012582">
        <ele>8.310000000000001</ele>
        <time>2017-06-26T11:47:36Z</time>
      </trkpt>
      <trkpt lat="71.009596986696124" lon="25.910056019201875">
        <ele>8.789999999999999</ele>
        <time>2017-06-26T11:47:37Z</time>
      </trkpt>
      <trkpt lat="71.009646020829678" lon="25.910505959764123">
        <ele>8.789999999999999</ele>
        <time>2017-06-26T11:47:38Z</time>
      </trkpt>
      <trkpt lat="71.009712992236018" lon="25.910942992195487">
        <ele>9.27</ele>
        <time>2017-06-26T11:47:39Z</time>
      </trkpt>
      <trkpt lat="71.009794967249036" lon="25.911365021020174">
        <ele>9.75</ele>
        <time>2017-06-26T11:47:40Z</time>
      </trkpt>
      <trkpt lat="71.009889012202621" lon="25.911772968247533">
        <ele>9.75</ele>
        <time>2017-06-26T11:47:41Z</time>
      </trkpt>
      <trkpt lat="71.010846979916096" lon="25.916592981666327">
        <ele>12.630000000000001</ele>
        <time>2017-06-26T11:47:52Z</time>
      </trkpt>
      <trkpt lat="71.011067004874349" lon="25.920204995200038">
        <ele>11.67</ele>
        <time>2017-06-26T11:47:59Z</time>
      </trkpt>
      <trkpt lat="71.011400017887354" lon="25.923183001577854">
        <ele>10.710000000000001</ele>
        <time>2017-06-26T11:48:05Z</time>
      </trkpt>
      <trkpt lat="71.011415021494031" lon="25.923648029565811">
        <ele>10.23</ele>
        <time>2017-06-26T11:48:06Z</time>
      </trkpt>
      <trkpt lat="71.011406974866986" lon="25.924113979563117">
        <ele>10.710000000000001</ele>
        <time>2017-06-26T11:48:07Z</time>
      </trkpt>
      <trkpt lat="71.011367999017239" lon="25.924567021429539">
        <ele>10.710000000000001</ele>
        <time>2017-06-26T11:48:08Z</time>
      </trkpt>
      <trkpt lat="71.011302033439279" lon="25.924998018890619">
        <ele>11.19</ele>
        <time>2017-06-26T11:48:09Z</time>
      </trkpt>
      <trkpt lat="71.011212011799216" lon="25.925410995259881">
        <ele>10.710000000000001</ele>
        <time>2017-06-26T11:48:10Z</time>
      </trkpt>
      <trkpt lat="71.01111302152276" lon="25.925822965800762">
        <ele>10.710000000000001</ele>
        <time>2017-06-26T11:48:11Z</time>
      </trkpt>
      <trkpt lat="71.010927027091384" lon="25.926728965714574">
        <ele>10.710000000000001</ele>
        <time>2017-06-26T11:48:13Z</time>
      </trkpt>
      <trkpt lat="71.010875981301069" lon="25.927225006744266">
        <ele>10.710000000000001</ele>
        <time>2017-06-26T11:48:14Z</time>
      </trkpt>
      <trkpt lat="71.010846979916096" lon="25.927747031673789">
        <ele>10.710000000000001</ele>
        <time>2017-06-26T11:48:15Z</time>
      </trkpt>
      <trkpt lat="71.010838011279702" lon="25.928281964734197">
        <ele>10.710000000000001</ele>
        <time>2017-06-26T11:48:16Z</time>
      </trkpt>
      <trkpt lat="71.010843962430954" lon="25.928822010755539">
        <ele>10.710000000000001</ele>
        <time>2017-06-26T11:48:17Z</time>
      </trkpt>
      <trkpt lat="71.010825019329786" lon="25.929852984845638">
        <ele>11.19</ele>
        <time>2017-06-26T11:48:19Z</time>
      </trkpt>
      <trkpt lat="71.010783025994897" lon="25.930351037532091">
        <ele>11.19</ele>
        <time>2017-06-26T11:48:20Z</time>
      </trkpt>
      <trkpt lat="71.010723011568189" lon="25.930838026106358">
        <ele>11.67</ele>
        <time>2017-06-26T11:48:21Z</time>
      </trkpt>
      <trkpt lat="71.01021003909409" lon="25.934915989637375">
        <ele>12.15</ele>
        <time>2017-06-26T11:48:29Z</time>
      </trkpt>
      <trkpt lat="71.009547030553222" lon="25.938638979569077">
        <ele>12.15</ele>
        <time>2017-06-26T11:48:37Z</time>
      </trkpt>
      <trkpt lat="71.009485004469752" lon="25.939079029485583">
        <ele>12.15</ele>
        <time>2017-06-26T11:48:38Z</time>
      </trkpt>
      <trkpt lat="71.00943798199296" lon="25.939541961997747">
        <ele>12.630000000000001</ele>
        <time>2017-06-26T11:48:39Z</time>
      </trkpt>
      <trkpt lat="71.009413003921509" lon="25.940021993592381">
        <ele>13.119999999999999</ele>
        <time>2017-06-26T11:48:40Z</time>
      </trkpt>
      <trkpt lat="71.009405963122845" lon="25.940517028793693">
        <ele>13.6</ele>
        <time>2017-06-26T11:48:41Z</time>
      </trkpt>
      <trkpt lat="71.009411998093128" lon="25.941022038459778">
        <ele>13.6</ele>
        <time>2017-06-26T11:48:42Z</time>
      </trkpt>
      <trkpt lat="71.009425995871425" lon="25.941536016762257">
        <ele>14.08</ele>
        <time>2017-06-26T11:48:43Z</time>
      </trkpt>
      <trkpt lat="71.009477041661739" lon="25.947002023458481">
        <ele>15.52</ele>
        <time>2017-06-26T11:48:53Z</time>
      </trkpt>
      <trkpt lat="71.009115027263761" lon="25.951473014429212">
        <ele>15.52</ele>
        <time>2017-06-26T11:49:01Z</time>
      </trkpt>
      <trkpt lat="71.008786959573627" lon="25.9545630030334">
        <ele>18.399999999999999</ele>
        <time>2017-06-26T11:49:07Z</time>
      </trkpt>
      <trkpt lat="71.008700961247087" lon="25.955023001879454">
        <ele>18.879999999999999</ele>
        <time>2017-06-26T11:49:08Z</time>
      </trkpt>
      <trkpt lat="71.008602976799011" lon="25.955460034310818">
        <ele>19.84</ele>
        <time>2017-06-26T11:49:09Z</time>
      </trkpt>
      <trkpt lat="71.008498035371304" lon="25.955870999023318">
        <ele>19.84</ele>
        <time>2017-06-26T11:49:10Z</time>
      </trkpt>
      <trkpt lat="71.008380018174648" lon="25.956263020634651">
        <ele>19.84</ele>
        <time>2017-06-26T11:49:11Z</time>
      </trkpt>
      <trkpt lat="71.008266024291515" lon="25.956613970920444">
        <ele>19.84</ele>
        <time>2017-06-26T11:49:12Z</time>
      </trkpt>
      <trkpt lat="71.008143983781338" lon="25.956918988376856">
        <ele>18.879999999999999</ele>
        <time>2017-06-26T11:49:13Z</time>
      </trkpt>
      <trkpt lat="71.006547985598445" lon="25.96077298745513">
        <ele>11.67</ele>
        <time>2017-06-26T11:49:25Z</time>
      </trkpt>
      <trkpt lat="71.005052989348769" lon="25.965386973693967">
        <ele>12.15</ele>
        <time>2017-06-26T11:49:37Z</time>
      </trkpt>
      <trkpt lat="71.004918962717056" lon="25.965699031949043">
        <ele>12.630000000000001</ele>
        <time>2017-06-26T11:49:38Z</time>
      </trkpt>
      <trkpt lat="71.00477303378284" lon="25.965956021100283">
        <ele>13.119999999999999</ele>
        <time>2017-06-26T11:49:39Z</time>
      </trkpt>
      <trkpt lat="71.004622997716069" lon="25.96614696085453">
        <ele>13.6</ele>
        <time>2017-06-26T11:49:40Z</time>
      </trkpt>
      <trkpt lat="71.004469022154808" lon="25.966291967779398">
        <ele>14.56</ele>
        <time>2017-06-26T11:49:41Z</time>
      </trkpt>
      <trkpt lat="71.004319991916418" lon="25.966400010511279">
        <ele>15.52</ele>
        <time>2017-06-26T11:49:42Z</time>
      </trkpt>
      <trkpt lat="71.00417397916317" lon="25.966485003009439">
        <ele>16</ele>
        <time>2017-06-26T11:49:43Z</time>
      </trkpt>
      <trkpt lat="71.002903031185269" lon="25.966633027419448">
        <ele>13.119999999999999</ele>
        <time>2017-06-26T11:49:52Z</time>
      </trkpt>
      <trkpt lat="71.002343036234379" lon="25.966534037142992">
        <ele>12.15</ele>
        <time>2017-06-26T11:49:56Z</time>
      </trkpt>
      <trkpt lat="71.002202974632382" lon="25.966432029381394">
        <ele>12.15</ele>
        <time>2017-06-26T11:49:57Z</time>
      </trkpt>
      <trkpt lat="71.002065008506179" lon="25.966299008578062">
        <ele>12.15</ele>
        <time>2017-06-26T11:49:58Z</time>
      </trkpt>
      <trkpt lat="71.001256993040442" lon="25.965489987283945">
        <ele>13.119999999999999</ele>
        <time>2017-06-26T11:50:04Z</time>
      </trkpt>
      <trkpt lat="71.001133024692535" lon="25.965468026697636">
        <ele>13.6</ele>
        <time>2017-06-26T11:50:05Z</time>
      </trkpt>
      <trkpt lat="71.0010140016675" lon="25.965513959527016">
        <ele>13.6</ele>
        <time>2017-06-26T11:50:06Z</time>
      </trkpt>
      <trkpt lat="71.000906964763999" lon="25.965614039450884">
        <ele>14.08</ele>
        <time>2017-06-26T11:50:07Z</time>
      </trkpt>
      <trkpt lat="71.000813003629446" lon="25.965775977820158">
        <ele>13.6</ele>
        <time>2017-06-26T11:50:08Z</time>
      </trkpt>
      <trkpt lat="71.000730022788048" lon="25.96597496420145">
        <ele>13.6</ele>
        <time>2017-06-26T11:50:09Z</time>
      </trkpt>
      <trkpt lat="71.000646036118269" lon="25.966189038008451">
        <ele>13.119999999999999</ele>
        <time>2017-06-26T11:50:10Z</time>
      </trkpt>
      <trkpt lat="70.999864004552364" lon="25.968264983966947">
        <ele>12.630000000000001</ele>
        <time>2017-06-26T11:50:21Z</time>
      </trkpt>
      <trkpt lat="70.999788986518979" lon="25.968348970636725">
        <ele>12.630000000000001</ele>
        <time>2017-06-26T11:50:22Z</time>
      </trkpt>
      <trkpt lat="70.999717991799116" lon="25.968396998941898">
        <ele>12.630000000000001</ele>
        <time>2017-06-26T11:50:23Z</time>
      </trkpt>
      <trkpt lat="70.999644985422492" lon="25.968388030305505">
        <ele>12.630000000000001</ele>
        <time>2017-06-26T11:50:24Z</time>
      </trkpt>
      <trkpt lat="70.999583965167403" lon="25.968311000615358">
        <ele>12.630000000000001</ele>
        <time>2017-06-26T11:50:25Z</time>
      </trkpt>
      <trkpt lat="70.999535014852881" lon="25.968156019225717">
        <ele>12.630000000000001</ele>
        <time>2017-06-26T11:50:26Z</time>
      </trkpt>
      <trkpt lat="70.999482963234186" lon="25.968040013685822">
        <ele>12.630000000000001</ele>
        <time>2017-06-26T11:50:27Z</time>
      </trkpt>
      <trkpt lat="70.99938003346324" lon="25.967923002317548">
        <ele>13.119999999999999</ele>
        <time>2017-06-26T11:50:29Z</time>
      </trkpt>
      <trkpt lat="70.999195966869593" lon="25.967724015936255">
        <ele>14.08</ele>
        <time>2017-06-26T11:50:35Z</time>
      </trkpt>
      <trkpt lat="70.999179035425186" lon="25.967658972367644">
        <ele>13.6</ele>
        <time>2017-06-26T11:50:44Z</time>
      </trkpt>
      <trkpt lat="70.999177023768425" lon="25.967638017609715">
        <ele>14.08</ele>
        <time>2017-06-26T11:51:45Z</time>
      </trkpt>
      <trkpt lat="70.999184986576438" lon="25.967355966567993">
        <ele>4.46</ele>
        <time>2017-06-26T11:56:43Z</time>
      </trkpt>
      <trkpt lat="70.999093037098646" lon="25.967397037893534">
        <ele>6.87</ele>
        <time>2017-06-26T11:58:06Z</time>
      </trkpt>
      <trkpt lat="70.999083984643221" lon="25.967510025948286">
        <ele>11.67</ele>
        <time>2017-06-26T11:58:51Z</time>
      </trkpt>
      <trkpt lat="70.999099994078279" lon="25.967559982091188">
        <ele>13.6</ele>
        <time>2017-06-26T11:59:19Z</time>
      </trkpt>
      <trkpt lat="70.999093959107995" lon="25.967551013454795">
        <ele>14.08</ele>
        <time>2017-06-26T12:00:50Z</time>
      </trkpt>
      <trkpt lat="70.999093959107995" lon="25.967550007626414">
        <ele>14.08</ele>
        <time>2017-06-26T12:01:07Z</time>
      </trkpt>
      <trkpt lat="70.999046014621854" lon="25.967665007337928">
        <ele>14.56</ele>
        <time>2017-06-26T12:01:10Z</time>
      </trkpt>
      <trkpt lat="70.999009972438216" lon="25.967771038413048">
        <ele>14.56</ele>
        <time>2017-06-26T12:01:11Z</time>
      </trkpt>
      <trkpt lat="70.998987006023526" lon="25.967888971790671">
        <ele>14.56</ele>
        <time>2017-06-26T12:01:12Z</time>
      </trkpt>
      <trkpt lat="70.998978959396482" lon="25.968004977330565">
        <ele>15.039999999999999</ele>
        <time>2017-06-26T12:01:13Z</time>
      </trkpt>
      <trkpt lat="70.998987006023526" lon="25.968107990920544">
        <ele>14.56</ele>
        <time>2017-06-26T12:01:14Z</time>
      </trkpt>
      <trkpt lat="70.999005027115345" lon="25.968209998682141">
        <ele>15.039999999999999</ele>
        <time>2017-06-26T12:01:15Z</time>
      </trkpt>
      <trkpt lat="70.999042997136712" lon="25.968294991180301">
        <ele>15.039999999999999</ele>
        <time>2017-06-26T12:01:16Z</time>
      </trkpt>
      <trkpt lat="70.999095970764756" lon="25.968348970636725">
        <ele>15.039999999999999</ele>
        <time>2017-06-26T12:01:17Z</time>
      </trkpt>
      <trkpt lat="70.999160008504987" lon="25.968380989506841">
        <ele>15.039999999999999</ele>
        <time>2017-06-26T12:01:18Z</time>
      </trkpt>
      <trkpt lat="70.999234020709991" lon="25.968408985063434">
        <ele>15.039999999999999</ele>
        <time>2017-06-26T12:01:19Z</time>
      </trkpt>
      <trkpt lat="70.999760990962386" lon="25.968409990891814">
        <ele>14.56</ele>
        <time>2017-06-26T12:01:25Z</time>
      </trkpt>
      <trkpt lat="70.9998569637537" lon="25.968337990343571">
        <ele>14.56</ele>
        <time>2017-06-26T12:01:26Z</time>
      </trkpt>
      <trkpt lat="70.999951008707285" lon="25.96822701394558">
        <ele>14.56</ele>
        <time>2017-06-26T12:01:27Z</time>
      </trkpt>
      <trkpt lat="71.000042958185077" lon="25.968089969828725">
        <ele>14.56</ele>
        <time>2017-06-26T12:01:28Z</time>
      </trkpt>
      <trkpt lat="71.00013398565352" lon="25.967921996489167">
        <ele>14.56</ele>
        <time>2017-06-26T12:01:29Z</time>
      </trkpt>
      <trkpt lat="71.00021998398006" lon="25.967728961259127">
        <ele>14.56</ele>
        <time>2017-06-26T12:01:30Z</time>
      </trkpt>
      <trkpt lat="71.000301958993077" lon="25.967515977099538">
        <ele>14.56</ele>
        <time>2017-06-26T12:01:31Z</time>
      </trkpt>
      <trkpt lat="71.000379994511604" lon="25.967286983504891">
        <ele>14.56</ele>
        <time>2017-06-26T12:01:32Z</time>
      </trkpt>
      <trkpt lat="71.000912999734282" lon="25.965769020840526">
        <ele>14.56</ele>
        <time>2017-06-26T12:01:39Z</time>
      </trkpt>
      <trkpt lat="71.000980976969004" lon="25.965653015300632">
        <ele>14.56</ele>
        <time>2017-06-26T12:01:40Z</time>
      </trkpt>
      <trkpt lat="71.001049960032105" lon="25.965572968125343">
        <ele>15.039999999999999</ele>
        <time>2017-06-26T12:01:41Z</time>
      </trkpt>
      <trkpt lat="71.001117015257478" lon="25.965517982840538">
        <ele>15.039999999999999</ele>
        <time>2017-06-26T12:01:42Z</time>
      </trkpt>
      <trkpt lat="71.001188009977341" lon="25.965480012819171">
        <ele>15.039999999999999</ele>
        <time>2017-06-26T12:01:43Z</time>
      </trkpt>
      <trkpt lat="71.001265961676836" lon="25.965464003384113">
        <ele>14.56</ele>
        <time>2017-06-26T12:01:44Z</time>
      </trkpt>
      <trkpt lat="71.001354977488518" lon="25.965484958142042">
        <ele>14.56</ele>
        <time>2017-06-26T12:01:45Z</time>
      </trkpt>
      <trkpt lat="71.001448016613722" lon="25.965534998103976">
        <ele>14.56</ele>
        <time>2017-06-26T12:01:46Z</time>
      </trkpt>
      <trkpt lat="71.001539966091514" lon="25.965625019744039">
        <ele>14.08</ele>
        <time>2017-06-26T12:01:47Z</time>
      </trkpt>
      <trkpt lat="71.001624958589673" lon="25.965711018070579">
        <ele>14.08</ele>
        <time>2017-06-26T12:01:48Z</time>
      </trkpt>
      <trkpt lat="71.001695031300187" lon="25.965745970606804">
        <ele>14.08</ele>
        <time>2017-06-26T12:01:49Z</time>
      </trkpt>
      <trkpt lat="71.001757979393005" lon="25.96573599614203">
        <ele>13.6</ele>
        <time>2017-06-26T12:01:50Z</time>
      </trkpt>
      <trkpt lat="71.001803996041417" lon="25.96564999781549">
        <ele>13.119999999999999</ele>
        <time>2017-06-26T12:01:51Z</time>
      </trkpt>
      <trkpt lat="71.001826040446758" lon="25.965513037517667">
        <ele>12.630000000000001</ele>
        <time>2017-06-26T12:01:52Z</time>
      </trkpt>
      <trkpt lat="71.001823022961617" lon="25.965325031429529">
        <ele>12.630000000000001</ele>
        <time>2017-06-26T12:01:53Z</time>
      </trkpt>
      <trkpt lat="71.001798966899514" lon="25.965130990371108">
        <ele>12.15</ele>
        <time>2017-06-26T12:01:54Z</time>
      </trkpt>
      <trkpt lat="71.001756973564625" lon="25.964917000383139">
        <ele>13.119999999999999</ele>
        <time>2017-06-26T12:01:55Z</time>
      </trkpt>
      <trkpt lat="71.0017029941082" lon="25.964681971818209">
        <ele>13.119999999999999</ele>
        <time>2017-06-26T12:01:56Z</time>
      </trkpt>
      <trkpt lat="71.00107703357935" lon="25.962381977587938">
        <ele>13.119999999999999</ele>
        <time>2017-06-26T12:02:04Z</time>
      </trkpt>
      <trkpt lat="71.000967985019088" lon="25.962143009528518">
        <ele>13.119999999999999</ele>
        <time>2017-06-26T12:02:05Z</time>
      </trkpt>
      <trkpt lat="71.000847034156322" lon="25.961929019540548">
        <ele>13.119999999999999</ele>
        <time>2017-06-26T12:02:06Z</time>
      </trkpt>
      <trkpt lat="71.000715019181371" lon="25.961731960996985">
        <ele>13.119999999999999</ele>
        <time>2017-06-26T12:02:07Z</time>
      </trkpt>
      <trkpt lat="71.000574035570025" lon="25.961552001535892">
        <ele>13.119999999999999</ele>
        <time>2017-06-26T12:02:08Z</time>
      </trkpt>
      <trkpt lat="71.000429028645158" lon="25.96139500848949">
        <ele>13.119999999999999</ele>
        <time>2017-06-26T12:02:09Z</time>
      </trkpt>
      <trkpt lat="71.000274969264865" lon="25.961271962150931">
        <ele>12.630000000000001</ele>
        <time>2017-06-26T12:02:10Z</time>
      </trkpt>
      <trkpt lat="71.00011495873332" lon="25.961176995187998">
        <ele>11.67</ele>
        <time>2017-06-26T12:02:11Z</time>
      </trkpt>
      <trkpt lat="70.99871601909399" lon="25.960733005777001">
        <ele>10.710000000000001</ele>
        <time>2017-06-26T12:02:20Z</time>
      </trkpt>
      <trkpt lat="70.99802803248167" lon="25.960780028253794">
        <ele>6.87</ele>
        <time>2017-06-26T12:02:25Z</time>
      </trkpt>
      <trkpt lat="70.997889982536435" lon="25.960694029927254">
        <ele>5.91</ele>
        <time>2017-06-26T12:02:26Z</time>
      </trkpt>
      <trkpt lat="70.99774899892509" lon="25.960565032437444">
        <ele>4.94</ele>
        <time>2017-06-26T12:02:27Z</time>
      </trkpt>
      <trkpt lat="70.996893960982561" lon="25.959522994235158">
        <ele>3.5</ele>
        <time>2017-06-26T12:02:33Z</time>
      </trkpt>
      <trkpt lat="70.996741997078061" lon="25.959421992301941">
        <ele>3.98</ele>
        <time>2017-06-26T12:02:34Z</time>
      </trkpt>
      <trkpt lat="70.996444020420313" lon="25.959238009527326">
        <ele>3.98</ele>
        <time>2017-06-26T12:02:36Z</time>
      </trkpt>
      <trkpt lat="70.996313011273742" lon="25.959069030359387">
        <ele>3.98</ele>
        <time>2017-06-26T12:02:37Z</time>
      </trkpt>
      <trkpt lat="70.996199017390609" lon="25.958822015672922">
        <ele>4.46</ele>
        <time>2017-06-26T12:02:38Z</time>
      </trkpt>
      <trkpt lat="70.996106984093785" lon="25.958513980731368">
        <ele>4.94</ele>
        <time>2017-06-26T12:02:39Z</time>
      </trkpt>
      <trkpt lat="70.996038001030684" lon="25.958148026838899">
        <ele>4.94</ele>
        <time>2017-06-26T12:02:40Z</time>
      </trkpt>
      <trkpt lat="70.995987039059401" lon="25.957736978307366">
        <ele>5.42</ele>
        <time>2017-06-26T12:02:41Z</time>
      </trkpt>
      <trkpt lat="70.995944961905479" lon="25.957322996109724">
        <ele>5.42</ele>
        <time>2017-06-26T12:02:42Z</time>
      </trkpt>
      <trkpt lat="70.995890982449055" lon="25.956909013912082">
        <ele>5.42</ele>
        <time>2017-06-26T12:02:43Z</time>
      </trkpt>
      <trkpt lat="70.995818981900811" lon="25.956530990079045">
        <ele>6.87</ele>
        <time>2017-06-26T12:02:44Z</time>
      </trkpt>
      <trkpt lat="70.995732983574271" lon="25.956239970400929">
        <ele>7.83</ele>
        <time>2017-06-26T12:02:45Z</time>
      </trkpt>
      <trkpt lat="70.995631981641054" lon="25.956013994291425">
        <ele>8.310000000000001</ele>
        <time>2017-06-26T12:02:46Z</time>
      </trkpt>
      <trkpt lat="70.995518993586302" lon="25.95585398375988">
        <ele>8.789999999999999</ele>
        <time>2017-06-26T12:02:47Z</time>
      </trkpt>
      <trkpt lat="70.995394019410014" lon="25.955760022625327">
        <ele>9.75</ele>
        <time>2017-06-26T12:02:48Z</time>
      </trkpt>
      <trkpt lat="70.995267033576965" lon="25.955722974613309">
        <ele>10.23</ele>
        <time>2017-06-26T12:02:49Z</time>
      </trkpt>
      <trkpt lat="70.995143987238407" lon="25.955743007361889">
        <ele>10.710000000000001</ele>
        <time>2017-06-26T12:02:50Z</time>
      </trkpt>
      <trkpt lat="70.995021024718881" lon="25.955817019566894">
        <ele>11.67</ele>
        <time>2017-06-26T12:02:51Z</time>
      </trkpt>
      <trkpt lat="70.994897978380322" lon="25.955897988751531">
        <ele>12.630000000000001</ele>
        <time>2017-06-26T12:02:52Z</time>
      </trkpt>
      <trkpt lat="70.994649035856128" lon="25.955985998734832">
        <ele>14.08</ele>
        <time>2017-06-26T12:02:54Z</time>
      </trkpt>
      <trkpt lat="70.994518026709557" lon="25.955959009006619">
        <ele>14.56</ele>
        <time>2017-06-26T12:02:55Z</time>
      </trkpt>
      <trkpt lat="70.994389029219747" lon="25.955863036215305">
        <ele>15.039999999999999</ele>
        <time>2017-06-26T12:02:56Z</time>
      </trkpt>
      <trkpt lat="70.994261959567666" lon="25.955713000148535">
        <ele>15.039999999999999</ele>
        <time>2017-06-26T12:02:57Z</time>
      </trkpt>
      <trkpt lat="70.994145032018423" lon="25.95548702403903">
        <ele>16</ele>
        <time>2017-06-26T12:02:58Z</time>
      </trkpt>
      <trkpt lat="70.994043024256825" lon="25.955182006582618">
        <ele>15.52</ele>
        <time>2017-06-26T12:02:59Z</time>
      </trkpt>
      <trkpt lat="70.993954008445144" lon="25.954833989962935">
        <ele>15.039999999999999</ele>
        <time>2017-06-26T12:03:00Z</time>
      </trkpt>
      <trkpt lat="70.993886031210423" lon="25.954449009150267">
        <ele>15.039999999999999</ele>
        <time>2017-06-26T12:03:01Z</time>
      </trkpt>
      <trkpt lat="70.993834985420108" lon="25.954031003639102">
        <ele>14.56</ele>
        <time>2017-06-26T12:03:02Z</time>
      </trkpt>
      <trkpt lat="70.993802966549993" lon="25.953590031713247">
        <ele>14.56</ele>
        <time>2017-06-26T12:03:03Z</time>
      </trkpt>
      <trkpt lat="70.993791986256838" lon="25.953157022595406">
        <ele>14.08</ele>
        <time>2017-06-26T12:03:04Z</time>
      </trkpt>
      <trkpt lat="70.993803972378373" lon="25.95273700542748">
        <ele>13.119999999999999</ele>
        <time>2017-06-26T12:03:05Z</time>
      </trkpt>
      <trkpt lat="70.993828028440475" lon="25.952322017401457">
        <ele>12.630000000000001</ele>
        <time>2017-06-26T12:03:06Z</time>
      </trkpt>
      <trkpt lat="70.99386197514832" lon="25.951088033616543">
        <ele>8.789999999999999</ele>
        <time>2017-06-26T12:03:09Z</time>
      </trkpt>
      <trkpt lat="70.993849989026785" lon="25.950712021440268">
        <ele>8.310000000000001</ele>
        <time>2017-06-26T12:03:10Z</time>
      </trkpt>
      <trkpt lat="70.993830962106586" lon="25.950338020920753">
        <ele>7.83</ele>
        <time>2017-06-26T12:03:11Z</time>
      </trkpt>
      <trkpt lat="70.993716968223453" lon="25.946726007387042">
        <ele>0.62</ele>
        <time>2017-06-26T12:03:20Z</time>
      </trkpt>
      <trkpt lat="70.99370900541544" lon="25.945425974205136">
        <ele>-0.82</ele>
        <time>2017-06-26T12:03:23Z</time>
      </trkpt>
      <trkpt lat="70.993681009858847" lon="25.945011992007494">
        <ele>-1.79</ele>
        <time>2017-06-26T12:03:24Z</time>
      </trkpt>
      <trkpt lat="70.993640022352338" lon="25.944621982052922">
        <ele>-0.82</ele>
        <time>2017-06-26T12:03:25Z</time>
      </trkpt>
      <trkpt lat="70.993587970733643" lon="25.944274971261621">
        <ele>-0.82</ele>
        <time>2017-06-26T12:03:26Z</time>
      </trkpt>
      <trkpt lat="70.993524016812444" lon="25.943947993218899">
        <ele>-0.34</ele>
        <time>2017-06-26T12:03:27Z</time>
      </trkpt>
      <trkpt lat="70.993450004607439" lon="25.943646999076009">
        <ele>-0.34</ele>
        <time>2017-06-26T12:03:28Z</time>
      </trkpt>
      <trkpt lat="70.993370963260531" lon="25.943385986611247">
        <ele>0.14</ele>
        <time>2017-06-26T12:03:29Z</time>
      </trkpt>
      <trkpt lat="70.993297034874558" lon="25.943166967481375">
        <ele>0.14</ele>
        <time>2017-06-26T12:03:30Z</time>
      </trkpt>
      <trkpt lat="70.993229979649186" lon="25.942992037162185">
        <ele>0.14</ele>
        <time>2017-06-26T12:03:31Z</time>
      </trkpt>
      <trkpt lat="70.993168037384748" lon="25.942851975560188">
        <ele>1.1</ele>
        <time>2017-06-26T12:03:32Z</time>
      </trkpt>
      <trkpt lat="70.993117997422814" lon="25.942778969183564">
        <ele>1.58</ele>
        <time>2017-06-26T12:03:33Z</time>
      </trkpt>
      <trkpt lat="70.993073992431164" lon="25.942752985283732">
        <ele>1.58</ele>
        <time>2017-06-26T12:03:34Z</time>
      </trkpt>
      <trkpt lat="70.993036022409797" lon="25.942763965576887">
        <ele>2.06</ele>
        <time>2017-06-26T12:03:35Z</time>
      </trkpt>
      <trkpt lat="70.993002997711301" lon="25.942801013588905">
        <ele>2.06</ele>
        <time>2017-06-26T12:03:36Z</time>
      </trkpt>
      <trkpt lat="70.992971984669566" lon="25.942837977781892">
        <ele>2.06</ele>
        <time>2017-06-26T12:03:37Z</time>
      </trkpt>
      <trkpt lat="70.992947006598115" lon="25.942874019965529">
        <ele>1.58</ele>
        <time>2017-06-26T12:03:38Z</time>
      </trkpt>
      <trkpt lat="70.992916999384761" lon="25.943006034940481">
        <ele>0.62</ele>
        <time>2017-06-26T12:03:49Z</time>
      </trkpt>
      <trkpt lat="70.992908030748367" lon="25.943007040768862">
        <ele>0.14</ele>
        <time>2017-06-26T12:04:37Z</time>
      </trkpt>
      <trkpt lat="70.992795964702964" lon="25.942299021407962">
        <ele>0.62</ele>
        <time>2017-06-26T12:04:44Z</time>
      </trkpt>
      <trkpt lat="70.992781966924667" lon="25.942099029198289">
        <ele>0.62</ele>
        <time>2017-06-26T12:04:45Z</time>
      </trkpt>
      <trkpt lat="70.992775009945035" lon="25.941851008683443">
        <ele>1.1</ele>
        <time>2017-06-26T12:04:46Z</time>
      </trkpt>
      <trkpt lat="70.992706026881933" lon="25.939875980839133">
        <ele>1.1</ele>
        <time>2017-06-26T12:04:52Z</time>
      </trkpt>
      <trkpt lat="70.992708960548043" lon="25.93948102556169">
        <ele>0.62</ele>
        <time>2017-06-26T12:04:53Z</time>
      </trkpt>
      <trkpt lat="70.99272396415472" lon="25.939066959545016">
        <ele>0.62</ele>
        <time>2017-06-26T12:04:54Z</time>
      </trkpt>
      <trkpt lat="70.992751037701964" lon="25.938641997054219">
        <ele>0.62</ele>
        <time>2017-06-26T12:04:55Z</time>
      </trkpt>
      <trkpt lat="70.992788001894951" lon="25.938208987936378">
        <ele>1.1</ele>
        <time>2017-06-26T12:04:56Z</time>
      </trkpt>
      <trkpt lat="70.992836030200124" lon="25.937763992697001">
        <ele>0.62</ele>
        <time>2017-06-26T12:04:57Z</time>
      </trkpt>
      <trkpt lat="70.993085978552699" lon="25.933392997831106">
        <ele>0.14</ele>
        <time>2017-06-26T12:05:06Z</time>
      </trkpt>
      <trkpt lat="70.975432014092803" lon="25.815095007419586">
        <ele>5.42</ele>
        <time>2017-06-26T12:08:12Z</time>
      </trkpt>
      <trkpt lat="70.975245013833046" lon="25.810825014486909">
        <ele>7.83</ele>
        <time>2017-06-26T12:08:18Z</time>
      </trkpt>
      <trkpt lat="70.975620020180941" lon="25.804835977032781">
        <ele>2.06</ele>
        <time>2017-06-26T12:08:26Z</time>
      </trkpt>
      <trkpt lat="70.976397022604942" lon="25.796483997255564">
        <ele>-1.3</ele>
        <time>2017-06-26T12:08:38Z</time>
      </trkpt>
      <trkpt lat="70.976678989827633" lon="25.788863003253937">
        <ele>-1.79</ele>
        <time>2017-06-26T12:08:50Z</time>
      </trkpt>
      <trkpt lat="70.976537000387907" lon="25.785109000280499">
        <ele>-2.75</ele>
        <time>2017-06-26T12:08:56Z</time>
      </trkpt>
      <trkpt lat="70.976560972630978" lon="25.784467030316591">
        <ele>-2.27</ele>
        <time>2017-06-26T12:08:57Z</time>
      </trkpt>
      <trkpt lat="70.976601960137486" lon="25.783836962655187">
        <ele>-2.27</ele>
        <time>2017-06-26T12:08:58Z</time>
      </trkpt>
      <trkpt lat="70.976658035069704" lon="25.783212007954717">
        <ele>-1.79</ele>
        <time>2017-06-26T12:08:59Z</time>
      </trkpt>
      <trkpt lat="70.976731963455677" lon="25.782600967213511">
        <ele>-0.82</ele>
        <time>2017-06-26T12:09:00Z</time>
      </trkpt>
      <trkpt lat="70.976818967610598" lon="25.781991016119719">
        <ele>-0.34</ele>
        <time>2017-06-26T12:09:01Z</time>
      </trkpt>
      <trkpt lat="70.976914018392563" lon="25.781405037268996">
        <ele>0.14</ele>
        <time>2017-06-26T12:09:02Z</time>
      </trkpt>
      <trkpt lat="70.977913979440928" lon="25.777149964123964">
        <ele>4.94</ele>
        <time>2017-06-26T12:09:10Z</time>
      </trkpt>
      <trkpt lat="70.979911973699927" lon="25.771043999120593">
        <ele>9.27</ele>
        <time>2017-06-26T12:09:23Z</time>
      </trkpt>
      <trkpt lat="70.981515012681484" lon="25.764364963397384">
        <ele>3.5</ele>
        <time>2017-06-26T12:09:35Z</time>
      </trkpt>
      <trkpt lat="70.982723012566566" lon="25.759593984112144">
        <ele>-0.34</ele>
        <time>2017-06-26T12:09:44Z</time>
      </trkpt>
      <trkpt lat="70.983950039371848" lon="25.757864965125918">
        <ele>-2.27</ele>
        <time>2017-06-26T12:09:50Z</time>
      </trkpt>
      <trkpt lat="70.98563396371901" lon="25.757442014291883">
        <ele>-1.79</ele>
        <time>2017-06-26T12:09:57Z</time>
      </trkpt>
      <trkpt lat="70.986912958323956" lon="25.756157990545034">
        <ele>0.14</ele>
        <time>2017-06-26T12:10:03Z</time>
      </trkpt>
      <trkpt lat="70.987968994304538" lon="25.753447031602263">
        <ele>2.06</ele>
        <time>2017-06-26T12:10:09Z</time>
      </trkpt>
      <trkpt lat="70.988859990611672" lon="25.749708032235503">
        <ele>2.54</ele>
        <time>2017-06-26T12:10:16Z</time>
      </trkpt>
      <trkpt lat="70.989834973588586" lon="25.747657986357808">
        <ele>1.1</ele>
        <time>2017-06-26T12:10:22Z</time>
      </trkpt>
      <trkpt lat="70.990806017071009" lon="25.745469974353909">
        <ele>-0.82</ele>
        <time>2017-06-26T12:10:28Z</time>
      </trkpt>
      <trkpt lat="70.990926967933774" lon="25.744966976344585">
        <ele>-0.82</ele>
        <time>2017-06-26T12:10:29Z</time>
      </trkpt>
      <trkpt lat="70.991036016494036" lon="25.744434976950288">
        <ele>-0.82</ele>
        <time>2017-06-26T12:10:30Z</time>
      </trkpt>
      <trkpt lat="70.991130983456969" lon="25.743872970342636">
        <ele>-0.34</ele>
        <time>2017-06-26T12:10:31Z</time>
      </trkpt>
      <trkpt lat="70.991212958469987" lon="25.743284979835153">
        <ele>-0.34</ele>
        <time>2017-06-26T12:10:32Z</time>
      </trkpt>
      <trkpt lat="70.991276996210217" lon="25.742677040398121">
        <ele>0.14</ele>
        <time>2017-06-26T12:10:33Z</time>
      </trkpt>
      <trkpt lat="70.99132401868701" lon="25.742050996050239">
        <ele>0.14</ele>
        <time>2017-06-26T12:10:34Z</time>
      </trkpt>
      <trkpt lat="70.99134799093008" lon="25.741406008601189">
        <ele>0.62</ele>
        <time>2017-06-26T12:10:35Z</time>
      </trkpt>
      <trkpt lat="70.991354025900364" lon="25.740759009495378">
        <ele>0.62</ele>
        <time>2017-06-26T12:10:36Z</time>
      </trkpt>
      <trkpt lat="70.991341033950448" lon="25.740111004561186">
        <ele>0.62</ele>
        <time>2017-06-26T12:10:37Z</time>
      </trkpt>
      <trkpt lat="70.991307003423572" lon="25.739459982141852">
        <ele>0.62</ele>
        <time>2017-06-26T12:10:38Z</time>
      </trkpt>
      <trkpt lat="70.991252018138766" lon="25.738811977207661">
        <ele>0.62</ele>
        <time>2017-06-26T12:10:39Z</time>
      </trkpt>
      <trkpt lat="70.99117498844862" lon="25.738172018900514">
        <ele>0.14</ele>
        <time>2017-06-26T12:10:40Z</time>
      </trkpt>
      <trkpt lat="70.991085972636938" lon="25.73756399564445">
        <ele>0.14</ele>
        <time>2017-06-26T12:10:41Z</time>
      </trkpt>
      <trkpt lat="70.990979019552469" lon="25.736985979601741">
        <ele>0.62</ele>
        <time>2017-06-26T12:10:42Z</time>
      </trkpt>
      <trkpt lat="70.99085203371942" lon="25.736430007964373">
        <ele>0.62</ele>
        <time>2017-06-26T12:10:43Z</time>
      </trkpt>
      <trkpt lat="70.990708032622933" lon="25.735913012176752">
        <ele>0.62</ele>
        <time>2017-06-26T12:10:44Z</time>
      </trkpt>
      <trkpt lat="70.99055103957653" lon="25.735441027209163">
        <ele>0.14</ele>
        <time>2017-06-26T12:10:45Z</time>
      </trkpt>
      <trkpt lat="70.990378959104419" lon="25.735017992556095">
        <ele>0.14</ele>
        <time>2017-06-26T12:10:46Z</time>
      </trkpt>
      <trkpt lat="70.990193970501423" lon="25.734637035056949">
        <ele>0.62</ele>
        <time>2017-06-26T12:10:47Z</time>
      </trkpt>
      <trkpt lat="70.989998001605272" lon="25.734307039529085">
        <ele>1.1</ele>
        <time>2017-06-26T12:10:48Z</time>
      </trkpt>
      <trkpt lat="70.989788034930825" lon="25.734034962952137">
        <ele>1.1</ele>
        <time>2017-06-26T12:10:49Z</time>
      </trkpt>
      <trkpt lat="70.989572033286095" lon="25.733805969357491">
        <ele>0.62</ele>
        <time>2017-06-26T12:10:50Z</time>
      </trkpt>
      <trkpt lat="70.9893489908427" lon="25.733612012118101">
        <ele>0.62</ele>
        <time>2017-06-26T12:10:51Z</time>
      </trkpt>
      <trkpt lat="70.986824026331306" lon="25.73120498098433">
        <ele>-0.82</ele>
        <time>2017-06-26T12:11:02Z</time>
      </trkpt>
      <trkpt lat="70.9858020208776" lon="25.728537021204829">
        <ele>-2.27</ele>
        <time>2017-06-26T12:11:08Z</time>
      </trkpt>
      <trkpt lat="70.985150998458266" lon="25.72662896476686">
        <ele>-2.27</ele>
        <time>2017-06-26T12:11:12Z</time>
      </trkpt>
      <trkpt lat="70.984962992370129" lon="25.7262849714607">
        <ele>-2.27</ele>
        <time>2017-06-26T12:11:13Z</time>
      </trkpt>
      <trkpt lat="70.984765011817217" lon="25.726024964824319">
        <ele>-1.79</ele>
        <time>2017-06-26T12:11:14Z</time>
      </trkpt>
      <trkpt lat="70.984554961323738" lon="25.725819021463394">
        <ele>-1.79</ele>
        <time>2017-06-26T12:11:15Z</time>
      </trkpt>
      <trkpt lat="70.984341977164149" lon="25.725676026195288">
        <ele>-1.79</ele>
        <time>2017-06-26T12:11:16Z</time>
      </trkpt>
      <trkpt lat="70.984124969691038" lon="25.72559597902">
        <ele>-1.3</ele>
        <time>2017-06-26T12:11:17Z</time>
      </trkpt>
      <trkpt lat="70.983905028551817" lon="25.725560020655394">
        <ele>-1.79</ele>
        <time>2017-06-26T12:11:18Z</time>
      </trkpt>
      <trkpt lat="70.983679974451661" lon="25.725548034533858">
        <ele>-1.3</ele>
        <time>2017-06-26T12:11:19Z</time>
      </trkpt>
      <trkpt lat="70.982799958437681" lon="25.725231030955911">
        <ele>-0.34</ele>
        <time>2017-06-26T12:11:23Z</time>
      </trkpt>
      <trkpt lat="70.982594015076756" lon="25.725008994340897">
        <ele>0.14</ele>
        <time>2017-06-26T12:11:24Z</time>
      </trkpt>
      <trkpt lat="70.982394022867084" lon="25.724724009633064">
        <ele>0.14</ele>
        <time>2017-06-26T12:11:25Z</time>
      </trkpt>
      <trkpt lat="70.982206016778946" lon="25.724366018548608">
        <ele>0.14</ele>
        <time>2017-06-26T12:11:26Z</time>
      </trkpt>
      <trkpt lat="70.982039971277118" lon="25.723955975845456">
        <ele>-0.34</ele>
        <time>2017-06-26T12:11:27Z</time>
      </trkpt>
      <trkpt lat="70.981880966573954" lon="25.723497988656163">
        <ele>-0.34</ele>
        <time>2017-06-26T12:11:28Z</time>
      </trkpt>
      <trkpt lat="70.981735959649086" lon="25.722990967333317">
        <ele>-0.82</ele>
        <time>2017-06-26T12:11:29Z</time>
      </trkpt>
      <trkpt lat="70.981607967987657" lon="25.722443964332342">
        <ele>-0.82</ele>
        <time>2017-06-26T12:11:30Z</time>
      </trkpt>
      <trkpt lat="70.98148500546813" lon="25.721882963553071">
        <ele>-0.82</ele>
        <time>2017-06-26T12:11:31Z</time>
      </trkpt>
      <trkpt lat="70.981113016605377" lon="25.720252012833953">
        <ele>-1.3</ele>
        <time>2017-06-26T12:11:34Z</time>
      </trkpt>
      <trkpt lat="70.98096800968051" lon="25.719790002331138">
        <ele>-1.3</ele>
        <time>2017-06-26T12:11:35Z</time>
      </trkpt>
      <trkpt lat="70.980807999148965" lon="25.719376020133495">
        <ele>-1.3</ele>
        <time>2017-06-26T12:11:36Z</time>
      </trkpt>
      <trkpt lat="70.980638014152646" lon="25.71902196854353">
        <ele>-1.3</ele>
        <time>2017-06-26T12:11:37Z</time>
      </trkpt>
      <trkpt lat="70.980456965044141" lon="25.718716029077768">
        <ele>-0.34</ele>
        <time>2017-06-26T12:11:38Z</time>
      </trkpt>
      <trkpt lat="70.980265019461513" lon="25.718469014391303">
        <ele>-0.34</ele>
        <time>2017-06-26T12:11:39Z</time>
      </trkpt>
      <trkpt lat="70.980070978403091" lon="25.718266004696488">
        <ele>-0.34</ele>
        <time>2017-06-26T12:11:40Z</time>
      </trkpt>
      <trkpt lat="70.979879032820463" lon="25.718098031356931">
        <ele>-0.34</ele>
        <time>2017-06-26T12:11:41Z</time>
      </trkpt>
      <trkpt lat="70.978795001283288" lon="25.716892965137959">
        <ele>-0.34</ele>
        <time>2017-06-26T12:11:48Z</time>
      </trkpt>
      <trkpt lat="70.977176958695054" lon="25.713103003799915">
        <ele>4.94</ele>
        <time>2017-06-26T12:12:00Z</time>
      </trkpt>
      <trkpt lat="70.975545002147555" lon="25.707817962393165">
        <ele>10.710000000000001</ele>
        <time>2017-06-26T12:12:10Z</time>
      </trkpt>
      <trkpt lat="70.97428604029119" lon="25.703845024108887">
        <ele>16</ele>
        <time>2017-06-26T12:12:18Z</time>
      </trkpt>
      <trkpt lat="70.974110020324588" lon="25.703496001660824">
        <ele>17.440000000000001</ele>
        <time>2017-06-26T12:12:19Z</time>
      </trkpt>
      <trkpt lat="70.973929977044463" lon="25.70318796671927">
        <ele>18.399999999999999</ele>
        <time>2017-06-26T12:12:20Z</time>
      </trkpt>
      <trkpt lat="70.973733002319932" lon="25.702911028638482">
        <ele>19.84</ele>
        <time>2017-06-26T12:12:21Z</time>
      </trkpt>
      <trkpt lat="70.97353502176702" lon="25.702684968709946">
        <ele>20.809999999999999</ele>
        <time>2017-06-26T12:12:22Z</time>
      </trkpt>
      <trkpt lat="70.973334023728967" lon="25.702514983713627">
        <ele>21.289999999999999</ele>
        <time>2017-06-26T12:12:23Z</time>
      </trkpt>
      <trkpt lat="70.973124979063869" lon="25.702381962910295">
        <ele>21.77</ele>
        <time>2017-06-26T12:12:24Z</time>
      </trkpt>
      <trkpt lat="70.972917024046183" lon="25.702299987897277">
        <ele>22.25</ele>
        <time>2017-06-26T12:12:25Z</time>
      </trkpt>
      <trkpt lat="70.972705967724323" lon="25.702295964583755">
        <ele>21.77</ele>
        <time>2017-06-26T12:12:26Z</time>
      </trkpt>
      <trkpt lat="70.972497006878257" lon="25.702331000939012">
        <ele>22.25</ele>
        <time>2017-06-26T12:12:27Z</time>
      </trkpt>
      <trkpt lat="70.97228704020381" lon="25.702410964295268">
        <ele>22.25</ele>
        <time>2017-06-26T12:12:28Z</time>
      </trkpt>
      <trkpt lat="70.972077995538712" lon="25.702533004805446">
        <ele>22.73</ele>
        <time>2017-06-26T12:12:29Z</time>
      </trkpt>
      <trkpt lat="70.971872974187136" lon="25.702697960659862">
        <ele>23.210000000000001</ele>
        <time>2017-06-26T12:12:30Z</time>
      </trkpt>
      <trkpt lat="70.971668036654592" lon="25.702904993668199">
        <ele>23.210000000000001</ele>
        <time>2017-06-26T12:12:31Z</time>
      </trkpt>
      <trkpt lat="70.971468966454268" lon="25.703135998919606">
        <ele>22.73</ele>
        <time>2017-06-26T12:12:32Z</time>
      </trkpt>
      <trkpt lat="70.970089975744486" lon="25.70432698354125">
        <ele>17.920000000000002</ele>
        <time>2017-06-26T12:12:39Z</time>
      </trkpt>
      <trkpt lat="70.968783991411328" lon="25.703742010518909">
        <ele>11.67</ele>
        <time>2017-06-26T12:12:45Z</time>
      </trkpt>
      <trkpt lat="70.968574024736881" lon="25.703447973355651">
        <ele>11.19</ele>
        <time>2017-06-26T12:12:46Z</time>
      </trkpt>
      <trkpt lat="70.968371015042067" lon="25.703108003363013">
        <ele>10.23</ele>
        <time>2017-06-26T12:12:47Z</time>
      </trkpt>
      <trkpt lat="70.966501012444496" lon="25.699780974537134">
        <ele>1.58</ele>
        <time>2017-06-26T12:12:56Z</time>
      </trkpt>
      <trkpt lat="70.964385000988841" lon="25.69708501920104">
        <ele>-1.3</ele>
        <time>2017-06-26T12:13:05Z</time>
      </trkpt>
      <trkpt lat="70.962942978367209" lon="25.694666001945734">
        <ele>-1.79</ele>
        <time>2017-06-26T12:13:12Z</time>
      </trkpt>
      <trkpt lat="70.962726976722479" lon="25.694497022777796">
        <ele>-1.3</ele>
        <time>2017-06-26T12:13:13Z</time>
      </trkpt>
      <trkpt lat="70.962505023926497" lon="25.694396020844579">
        <ele>-1.3</ele>
        <time>2017-06-26T12:13:14Z</time>
      </trkpt>
      <trkpt lat="70.962279969826341" lon="25.694330977275968">
        <ele>-1.3</ele>
        <time>2017-06-26T12:13:15Z</time>
      </trkpt>
      <trkpt lat="70.962050976231694" lon="25.694323014467955">
        <ele>-1.3</ele>
        <time>2017-06-26T12:13:16Z</time>
      </trkpt>
      <trkpt lat="70.961821982637048" lon="25.69435503333807">
        <ele>-1.3</ele>
        <time>2017-06-26T12:13:17Z</time>
      </trkpt>
      <trkpt lat="70.961596006527543" lon="25.694428961724043">
        <ele>-1.3</ele>
        <time>2017-06-26T12:13:18Z</time>
      </trkpt>
      <trkpt lat="70.959940999746323" lon="25.695548029616475">
        <ele>3.5</ele>
        <time>2017-06-26T12:13:26Z</time>
      </trkpt>
      <trkpt lat="70.958271995186806" lon="25.697955982759595">
        <ele>4.94</ele>
        <time>2017-06-26T12:13:35Z</time>
      </trkpt>
      <trkpt lat="70.956466030329466" lon="25.702170990407467">
        <ele>3.02</ele>
        <time>2017-06-26T12:13:45Z</time>
      </trkpt>
      <trkpt lat="70.953518031165004" lon="25.709616970270872">
        <ele>3.02</ele>
        <time>2017-06-26T12:14:02Z</time>
      </trkpt>
      <trkpt lat="70.95200995914638" lon="25.711744967848063">
        <ele>4.46</ele>
        <time>2017-06-26T12:14:10Z</time>
      </trkpt>
      <trkpt lat="70.890199961140752" lon="25.681759966537356">
        <ele>0.14</ele>
        <time>2017-06-26T12:18:31Z</time>
      </trkpt>
      <trkpt lat="70.889452965930104" lon="25.685501983389258">
        <ele>4.46</ele>
        <time>2017-06-26T12:18:38Z</time>
      </trkpt>
      <trkpt lat="70.889131017029285" lon="25.690171960741282">
        <ele>3.5</ele>
        <time>2017-06-26T12:18:45Z</time>
      </trkpt>
      <trkpt lat="70.888657020404935" lon="25.696168038994074">
        <ele>4.46</ele>
        <time>2017-06-26T12:18:54Z</time>
      </trkpt>
      <trkpt lat="70.887886974960566" lon="25.70043602026999">
        <ele>6.39</ele>
        <time>2017-06-26T12:19:01Z</time>
      </trkpt>
      <trkpt lat="70.887538036331534" lon="25.705290986225009">
        <ele>6.39</ele>
        <time>2017-06-26T12:19:08Z</time>
      </trkpt>
      <trkpt lat="70.886723985895514" lon="25.713744973763824">
        <ele>5.91</ele>
        <time>2017-06-26T12:19:20Z</time>
      </trkpt>
      <trkpt lat="70.885629979893565" lon="25.720262993127108">
        <ele>5.91</ele>
        <time>2017-06-26T12:19:30Z</time>
      </trkpt>
      <trkpt lat="70.884966971352696" lon="25.722334999591112">
        <ele>5.42</ele>
        <time>2017-06-26T12:19:34Z</time>
      </trkpt>
      <trkpt lat="70.884766979143023" lon="25.722712017595768">
        <ele>5.42</ele>
        <time>2017-06-26T12:19:35Z</time>
      </trkpt>
      <trkpt lat="70.884557012468576" lon="25.723048970103264">
        <ele>4.94</ele>
        <time>2017-06-26T12:19:36Z</time>
      </trkpt>
      <trkpt lat="70.884340004995465" lon="25.723337978124619">
        <ele>4.94</ele>
        <time>2017-06-26T12:19:37Z</time>
      </trkpt>
      <trkpt lat="70.884117968380451" lon="25.723567977547646">
        <ele>4.94</ele>
        <time>2017-06-26T12:19:38Z</time>
      </trkpt>
      <trkpt lat="70.883888974785805" lon="25.723742991685867">
        <ele>4.94</ele>
        <time>2017-06-26T12:19:39Z</time>
      </trkpt>
      <trkpt lat="70.883656963706017" lon="25.723847011104226">
        <ele>4.46</ele>
        <time>2017-06-26T12:19:40Z</time>
      </trkpt>
      <trkpt lat="70.883421013131738" lon="25.723880035802722">
        <ele>4.46</ele>
        <time>2017-06-26T12:19:41Z</time>
      </trkpt>
      <trkpt lat="70.883186990395188" lon="25.723861008882523">
        <ele>4.46</ele>
        <time>2017-06-26T12:19:42Z</time>
      </trkpt>
      <trkpt lat="70.882951961830258" lon="25.723797976970673">
        <ele>4.46</ele>
        <time>2017-06-26T12:19:43Z</time>
      </trkpt>
      <trkpt lat="70.882715005427599" lon="25.723687000572681">
        <ele>3.98</ele>
        <time>2017-06-26T12:19:44Z</time>
      </trkpt>
      <trkpt lat="70.881370967254043" lon="25.723292967304587">
        <ele>3.5</ele>
        <time>2017-06-26T12:19:50Z</time>
      </trkpt>
      <trkpt lat="70.881153037771583" lon="25.723408972844481">
        <ele>3.98</ele>
        <time>2017-06-26T12:19:51Z</time>
      </trkpt>
      <trkpt lat="70.88093301281333" lon="25.723567977547646">
        <ele>3.5</ele>
        <time>2017-06-26T12:19:52Z</time>
      </trkpt>
      <trkpt lat="70.880722040310502" lon="25.723795965313911">
        <ele>3.98</ele>
        <time>2017-06-26T12:19:53Z</time>
      </trkpt>
      <trkpt lat="70.880518024787307" lon="25.724081033840775">
        <ele>3.98</ele>
        <time>2017-06-26T12:19:54Z</time>
      </trkpt>
      <trkpt lat="70.880319960415363" lon="25.724424021318555">
        <ele>3.98</ele>
        <time>2017-06-26T12:19:55Z</time>
      </trkpt>
      <trkpt lat="70.880132960155606" lon="25.724803972989321">
        <ele>3.98</ele>
        <time>2017-06-26T12:19:56Z</time>
      </trkpt>
      <trkpt lat="70.879949983209372" lon="25.725212004035711">
        <ele>3.98</ele>
        <time>2017-06-26T12:19:57Z</time>
      </trkpt>
      <trkpt lat="70.877829026430845" lon="25.731002977117896">
        <ele>4.46</ele>
        <time>2017-06-26T12:20:09Z</time>
      </trkpt>
      <trkpt lat="70.876652961596847" lon="25.733360974118114">
        <ele>4.94</ele>
        <time>2017-06-26T12:20:15Z</time>
      </trkpt>
      <trkpt lat="70.875310013070703" lon="25.733836982399225">
        <ele>3.98</ele>
        <time>2017-06-26T12:20:21Z</time>
      </trkpt>
      <trkpt lat="70.873969998210669" lon="25.732472995296121">
        <ele>3.5</ele>
        <time>2017-06-26T12:20:27Z</time>
      </trkpt>
      <trkpt lat="70.871849963441491" lon="25.73053602129221">
        <ele>4.94</ele>
        <time>2017-06-26T12:20:36Z</time>
      </trkpt>
      <trkpt lat="70.869731018319726" lon="25.729502029716969">
        <ele>9.75</ele>
        <time>2017-06-26T12:20:45Z</time>
      </trkpt>
      <trkpt lat="70.867450973019004" lon="25.726193021982908">
        <ele>8.789999999999999</ele>
        <time>2017-06-26T12:20:55Z</time>
      </trkpt>
      <trkpt lat="70.865195989608765" lon="25.722966995090246">
        <ele>8.789999999999999</ele>
        <time>2017-06-26T12:21:05Z</time>
      </trkpt>
      <trkpt lat="70.864975964650512" lon="25.72284403257072">
        <ele>8.310000000000001</ele>
        <time>2017-06-26T12:21:06Z</time>
      </trkpt>
      <trkpt lat="70.864756023511291" lon="25.72276096791029">
        <ele>8.310000000000001</ele>
        <time>2017-06-26T12:21:07Z</time>
      </trkpt>
      <trkpt lat="70.864534992724657" lon="25.722722997888923">
        <ele>7.83</ele>
        <time>2017-06-26T12:21:08Z</time>
      </trkpt>
      <trkpt lat="70.864316979423165" lon="25.722743030637503">
        <ele>7.35</ele>
        <time>2017-06-26T12:21:09Z</time>
      </trkpt>
      <trkpt lat="70.864098966121674" lon="25.722820982336998">
        <ele>6.87</ele>
        <time>2017-06-26T12:21:10Z</time>
      </trkpt>
      <trkpt lat="70.863884976133704" lon="25.722936987876892">
        <ele>6.39</ele>
        <time>2017-06-26T12:21:11Z</time>
      </trkpt>
      <trkpt lat="70.863677021116018" lon="25.723096998408437">
        <ele>5.42</ele>
        <time>2017-06-26T12:21:12Z</time>
      </trkpt>
      <trkpt lat="70.863477028906345" lon="25.723299002274871">
        <ele>4.46</ele>
        <time>2017-06-26T12:21:13Z</time>
      </trkpt>
      <trkpt lat="70.863291034474969" lon="25.723547022789717">
        <ele>3.98</ele>
        <time>2017-06-26T12:21:14Z</time>
      </trkpt>
      <trkpt lat="70.863118031993508" lon="25.723839970305562">
        <ele>3.5</ele>
        <time>2017-06-26T12:21:15Z</time>
      </trkpt>
      <trkpt lat="70.862953998148441" lon="25.72417700663209">
        <ele>3.02</ele>
        <time>2017-06-26T12:21:16Z</time>
      </trkpt>
      <trkpt lat="70.862793987616897" lon="25.724553018808365">
        <ele>2.06</ele>
        <time>2017-06-26T12:21:17Z</time>
      </trkpt>
      <trkpt lat="70.861869966611266" lon="25.728008039295673">
        <ele>3.02</ele>
        <time>2017-06-26T12:21:24Z</time>
      </trkpt>
      <trkpt lat="70.861614989116788" lon="25.731691969558597">
        <ele>5.42</ele>
        <time>2017-06-26T12:21:30Z</time>
      </trkpt>
      <trkpt lat="70.861868960782886" lon="25.735405990853906">
        <ele>7.83</ele>
        <time>2017-06-26T12:21:36Z</time>
      </trkpt>
      <trkpt lat="70.862645041197538" lon="25.738644003868103">
        <ele>8.310000000000001</ele>
        <time>2017-06-26T12:21:42Z</time>
      </trkpt>
      <trkpt lat="70.863794032484293" lon="25.740832015872002">
        <ele>7.83</ele>
        <time>2017-06-26T12:21:48Z</time>
      </trkpt>
      <trkpt lat="70.865708040073514" lon="25.744647961109877">
        <ele>6.39</ele>
        <time>2017-06-26T12:21:58Z</time>
      </trkpt>
      <trkpt lat="70.866890978068113" lon="25.749132027849555">
        <ele>6.87</ele>
        <time>2017-06-26T12:22:06Z</time>
      </trkpt>
      <trkpt lat="70.868426961824298" lon="25.753636965528131">
        <ele>14.08</ele>
        <time>2017-06-26T12:22:15Z</time>
      </trkpt>
      <trkpt lat="70.869885999709368" lon="25.757676037028432">
        <ele>22.73</ele>
        <time>2017-06-26T12:22:24Z</time>
      </trkpt>
      <trkpt lat="70.870323032140732" lon="25.76119601726532">
        <ele>28.98</ele>
        <time>2017-06-26T12:22:30Z</time>
      </trkpt>
      <trkpt lat="70.870270980522037" lon="25.764823034405708">
        <ele>35.710000000000001</ele>
        <time>2017-06-26T12:22:36Z</time>
      </trkpt>
      <trkpt lat="70.869620963931084" lon="25.770516023039818">
        <ele>48.68</ele>
        <time>2017-06-26T12:22:46Z</time>
      </trkpt>
      <trkpt lat="70.869241012260318" lon="25.775381969287992">
        <ele>52.530000000000001</ele>
        <time>2017-06-26T12:22:54Z</time>
      </trkpt>
      <trkpt lat="70.86954602971673" lon="25.779968965798616">
        <ele>52.530000000000001</ele>
        <time>2017-06-26T12:23:01Z</time>
      </trkpt>
      <trkpt lat="70.870339041575789" lon="25.785798998549581">
        <ele>54.450000000000003</ele>
        <time>2017-06-26T12:23:10Z</time>
      </trkpt>
      <trkpt lat="70.871691964566708" lon="25.791718969121575">
        <ele>52.049999999999997</ele>
        <time>2017-06-26T12:23:20Z</time>
      </trkpt>
      <trkpt lat="70.873578982427716" lon="25.797183969989419">
        <ele>59.259999999999998</ele>
        <time>2017-06-26T12:23:31Z</time>
      </trkpt>
      <trkpt lat="70.876192962750793" lon="25.804443033412099">
        <ele>66.950000000000003</ele>
        <time>2017-06-26T12:23:45Z</time>
      </trkpt>
      <trkpt lat="70.878084003925323" lon="25.810085982084274">
        <ele>79.930000000000007</ele>
        <time>2017-06-26T12:23:56Z</time>
      </trkpt>
      <trkpt lat="70.878650033846498" lon="25.813950039446354">
        <ele>83.769999999999996</ele>
        <time>2017-06-26T12:24:02Z</time>
      </trkpt>
      <trkpt lat="70.87943097576499" lon="25.823370041325688">
        <ele>76.079999999999998</ele>
        <time>2017-06-26T12:24:15Z</time>
      </trkpt>
      <trkpt lat="70.879835989326239" lon="25.828881980851293">
        <ele>62.619999999999997</ele>
        <time>2017-06-26T12:24:24Z</time>
      </trkpt>
      <trkpt lat="70.879833977669477" lon="25.829443987458944">
        <ele>61.659999999999997</ele>
        <time>2017-06-26T12:24:25Z</time>
      </trkpt>
      <trkpt lat="70.879813022911549" lon="25.829996019601822">
        <ele>61.18</ele>
        <time>2017-06-26T12:24:26Z</time>
      </trkpt>
      <trkpt lat="70.87977203540504" lon="25.830536987632513">
        <ele>60.700000000000003</ele>
        <time>2017-06-26T12:24:27Z</time>
      </trkpt>
      <trkpt lat="70.879705986008048" lon="25.831035040318966">
        <ele>61.18</ele>
        <time>2017-06-26T12:24:28Z</time>
      </trkpt>
      <trkpt lat="70.879621999338269" lon="25.831508031114936">
        <ele>61.18</ele>
        <time>2017-06-26T12:24:29Z</time>
      </trkpt>
      <trkpt lat="70.879520997405052" lon="25.831958977505565">
        <ele>61.659999999999997</ele>
        <time>2017-06-26T12:24:30Z</time>
      </trkpt>
      <trkpt lat="70.879410021007061" lon="25.832370026037097">
        <ele>62.140000000000001</ele>
        <time>2017-06-26T12:24:31Z</time>
      </trkpt>
      <trkpt lat="70.879286974668503" lon="25.832749977707863">
        <ele>62.140000000000001</ele>
        <time>2017-06-26T12:24:32Z</time>
      </trkpt>
      <trkpt lat="70.879152026027441" lon="25.833091037347913">
        <ele>62.619999999999997</ele>
        <time>2017-06-26T12:24:33Z</time>
      </trkpt>
      <trkpt lat="70.879005007445812" lon="25.833392031490803">
        <ele>62.619999999999997</ele>
        <time>2017-06-26T12:24:34Z</time>
      </trkpt>
      <trkpt lat="70.878847008571029" lon="25.833633011206985">
        <ele>63.100000000000001</ele>
        <time>2017-06-26T12:24:35Z</time>
      </trkpt>
      <trkpt lat="70.878682974725962" lon="25.833843983709812">
        <ele>62.619999999999997</ele>
        <time>2017-06-26T12:24:36Z</time>
      </trkpt>
      <trkpt lat="70.878511983901262" lon="25.834020003676414">
        <ele>62.619999999999997</ele>
        <time>2017-06-26T12:24:37Z</time>
      </trkpt>
      <trkpt lat="70.878334036096931" lon="25.834133997559547">
        <ele>62.140000000000001</ele>
        <time>2017-06-26T12:24:38Z</time>
      </trkpt>
      <trkpt lat="70.878148963674903" lon="25.834183031693101">
        <ele>61.659999999999997</ele>
        <time>2017-06-26T12:24:39Z</time>
      </trkpt>
      <trkpt lat="70.877967998385429" lon="25.834179008379579">
        <ele>61.659999999999997</ele>
        <time>2017-06-26T12:24:40Z</time>
      </trkpt>
      <trkpt lat="70.877788038924336" lon="25.834126034751534">
        <ele>61.18</ele>
        <time>2017-06-26T12:24:41Z</time>
      </trkpt>
      <trkpt lat="70.877615958452225" lon="25.834014974534512">
        <ele>60.700000000000003</ele>
        <time>2017-06-26T12:24:42Z</time>
      </trkpt>
      <trkpt lat="70.877461982890964" lon="25.833854964002967">
        <ele>59.740000000000002</ele>
        <time>2017-06-26T12:24:43Z</time>
      </trkpt>
      <trkpt lat="70.877337008714676" lon="25.833693025633693">
        <ele>58.780000000000001</ele>
        <time>2017-06-26T12:24:44Z</time>
      </trkpt>
      <trkpt lat="70.877240030094981" lon="25.833549024537206">
        <ele>58.299999999999997</ele>
        <time>2017-06-26T12:24:45Z</time>
      </trkpt>
      <trkpt lat="70.877170041203499" lon="25.833424972370267">
        <ele>57.82</ele>
        <time>2017-06-26T12:24:46Z</time>
      </trkpt>
      <trkpt lat="70.87710902094841" lon="25.833320030942559">
        <ele>57.340000000000003</ele>
        <time>2017-06-26T12:24:47Z</time>
      </trkpt>
      <trkpt lat="70.876761004328728" lon="25.832486031576991">
        <ele>54.450000000000003</ele>
        <time>2017-06-26T12:24:56Z</time>
      </trkpt>
      <trkpt lat="70.876204026862979" lon="25.831198990345001">
        <ele>49.159999999999997</ele>
        <time>2017-06-26T12:25:04Z</time>
      </trkpt>
      <trkpt lat="70.875203981995583" lon="25.828850967809558">
        <ele>40.509999999999998</ele>
        <time>2017-06-26T12:25:11Z</time>
      </trkpt>
      <trkpt lat="70.873224008828402" lon="25.824684994295239">
        <ele>25.609999999999999</ele>
        <time>2017-06-26T12:25:22Z</time>
      </trkpt>
      <trkpt lat="70.870055984705687" lon="25.818896032869816">
        <ele>4.94</ele>
        <time>2017-06-26T12:25:37Z</time>
      </trkpt>
      <trkpt lat="70.868078023195267" lon="25.814546998590231">
        <ele>2.54</ele>
        <time>2017-06-26T12:25:47Z</time>
      </trkpt>
      <trkpt lat="70.865285005420446" lon="25.807335963472724">
        <ele>6.87</ele>
        <time>2017-06-26T12:26:02Z</time>
      </trkpt>
      <trkpt lat="70.863581970334053" lon="25.804916024208069">
        <ele>6.39</ele>
        <time>2017-06-26T12:26:10Z</time>
      </trkpt>
      <trkpt lat="70.861465036869049" lon="25.803464027121663">
        <ele>3.02</ele>
        <time>2017-06-26T12:26:19Z</time>
      </trkpt>
      <trkpt lat="70.856802016496658" lon="25.801408030092716">
        <ele>19.359999999999999</ele>
        <time>2017-06-26T12:26:38Z</time>
      </trkpt>
      <trkpt lat="70.853282958269119" lon="25.799018014222383">
        <ele>26.09</ele>
        <time>2017-06-26T12:26:52Z</time>
      </trkpt>
      <trkpt lat="70.849872026592493" lon="25.79705597832799">
        <ele>24.170000000000002</ele>
        <time>2017-06-26T12:27:05Z</time>
      </trkpt>
      <trkpt lat="70.846650023013353" lon="25.793827017769217">
        <ele>16.960000000000001</ele>
        <time>2017-06-26T12:27:18Z</time>
      </trkpt>
      <trkpt lat="70.842468962073326" lon="25.789702031761408">
        <ele>6.39</ele>
        <time>2017-06-26T12:27:35Z</time>
      </trkpt>
      <trkpt lat="70.840141978114843" lon="25.788748003542423">
        <ele>7.35</ele>
        <time>2017-06-26T12:27:44Z</time>
      </trkpt>
      <trkpt lat="70.83688803948462" lon="25.787075981497765">
        <ele>19.359999999999999</ele>
        <time>2017-06-26T12:27:57Z</time>
      </trkpt>
      <trkpt lat="70.835258010774851" lon="25.784521009773016">
        <ele>17.920000000000002</ele>
        <time>2017-06-26T12:28:04Z</time>
      </trkpt>
      <trkpt lat="70.8331089746207" lon="25.779463034123182">
        <ele>11.67</ele>
        <time>2017-06-26T12:28:14Z</time>
      </trkpt>
      <trkpt lat="70.831611966714263" lon="25.777767961844802">
        <ele>8.789999999999999</ele>
        <time>2017-06-26T12:28:20Z</time>
      </trkpt>
      <trkpt lat="70.828476967290044" lon="25.775897037237883">
        <ele>7.35</ele>
        <time>2017-06-26T12:28:32Z</time>
      </trkpt>
      <trkpt lat="70.82651199772954" lon="25.773341981694102">
        <ele>3.02</ele>
        <time>2017-06-26T12:28:40Z</time>
      </trkpt>
      <trkpt lat="70.823359983041883" lon="25.769241973757744">
        <ele>-3.23</ele>
        <time>2017-06-26T12:28:53Z</time>
      </trkpt>
      <trkpt lat="70.821117991581559" lon="25.766996964812279">
        <ele>4.94</ele>
        <time>2017-06-26T12:29:03Z</time>
      </trkpt>
      <trkpt lat="70.819969000294805" lon="25.764177041128278">
        <ele>10.23</ele>
        <time>2017-06-26T12:29:09Z</time>
      </trkpt>
      <trkpt lat="70.817726003006101" lon="25.757976025342941">
        <ele>22.25</ele>
        <time>2017-06-26T12:29:21Z</time>
      </trkpt>
      <trkpt lat="70.81557503901422" lon="25.753752971068025">
        <ele>26.09</ele>
        <time>2017-06-26T12:29:31Z</time>
      </trkpt>
      <trkpt lat="70.813409993425012" lon="25.748030981048942">
        <ele>30.420000000000002</ele>
        <time>2017-06-26T12:29:42Z</time>
      </trkpt>
      <trkpt lat="70.811951039358974" lon="25.74529797770083">
        <ele>34.740000000000002</ele>
        <time>2017-06-26T12:29:49Z</time>
      </trkpt>
      <trkpt lat="70.809148969128728" lon="25.741897020488977">
        <ele>36.670000000000002</ele>
        <time>2017-06-26T12:30:01Z</time>
      </trkpt>
      <trkpt lat="70.806906977668405" lon="25.738429008051753">
        <ele>35.229999999999997</ele>
        <time>2017-06-26T12:30:11Z</time>
      </trkpt>
      <trkpt lat="70.804972015321255" lon="25.736063970252872">
        <ele>35.710000000000001</ele>
        <time>2017-06-26T12:30:19Z</time>
      </trkpt>
      <trkpt lat="70.800483003258705" lon="25.731425005942583">
        <ele>38.590000000000003</ele>
        <time>2017-06-26T12:30:37Z</time>
      </trkpt>
      <trkpt lat="70.79752896912396" lon="25.726931970566511">
        <ele>38.590000000000003</ele>
        <time>2017-06-26T12:30:49Z</time>
      </trkpt>
      <trkpt lat="70.795774972066283" lon="25.7251469604671">
        <ele>39.549999999999997</ele>
        <time>2017-06-26T12:30:56Z</time>
      </trkpt>
      <trkpt lat="70.793570028617978" lon="25.722721992060542">
        <ele>41.469999999999999</ele>
        <time>2017-06-26T12:31:05Z</time>
      </trkpt>
      <trkpt lat="70.792065979912877" lon="25.719205029308796">
        <ele>40.030000000000001</ele>
        <time>2017-06-26T12:31:12Z</time>
      </trkpt>
      <trkpt lat="70.791614027693868" lon="25.718391984701157">
        <ele>39.549999999999997</ele>
        <time>2017-06-26T12:31:14Z</time>
      </trkpt>
      <trkpt lat="70.791377993300557" lon="25.718091996386647">
        <ele>39.07</ele>
        <time>2017-06-26T12:31:15Z</time>
      </trkpt>
      <trkpt lat="70.791136007755995" lon="25.717859985306859">
        <ele>38.590000000000003</ele>
        <time>2017-06-26T12:31:16Z</time>
      </trkpt>
      <trkpt lat="70.79088999889791" lon="25.717708021402359">
        <ele>37.630000000000003</ele>
        <time>2017-06-26T12:31:17Z</time>
      </trkpt>
      <trkpt lat="70.790638960897923" lon="25.717594027519226">
        <ele>37.149999999999999</ele>
        <time>2017-06-26T12:31:18Z</time>
      </trkpt>
      <trkpt lat="70.78947102651" lon="25.716843008995056">
        <ele>35.229999999999997</ele>
        <time>2017-06-26T12:31:23Z</time>
      </trkpt>
      <trkpt lat="70.789271034300327" lon="25.716545032337308">
        <ele>34.740000000000002</ele>
        <time>2017-06-26T12:31:24Z</time>
      </trkpt>
      <trkpt lat="70.78908302821219" lon="25.716187041252851">
        <ele>33.780000000000001</ele>
        <time>2017-06-26T12:31:25Z</time>
      </trkpt>
      <trkpt lat="70.788907008245587" lon="25.715772975236177">
        <ele>32.82</ele>
        <time>2017-06-26T12:31:26Z</time>
      </trkpt>
      <trkpt lat="70.788751021027565" lon="25.715330997481942">
        <ele>31.859999999999999</ele>
        <time>2017-06-26T12:31:27Z</time>
      </trkpt>
      <trkpt lat="70.788620011880994" lon="25.71489698253572">
        <ele>30.420000000000002</ele>
        <time>2017-06-26T12:31:28Z</time>
      </trkpt>
      <trkpt lat="70.7885040063411" lon="25.714447963982821">
        <ele>28.98</ele>
        <time>2017-06-26T12:31:29Z</time>
      </trkpt>
      <trkpt lat="70.787418968975544" lon="25.71021200157702">
        <ele>21.289999999999999</ele>
        <time>2017-06-26T12:31:37Z</time>
      </trkpt>
      <trkpt lat="70.787040023133159" lon="25.708517013117671">
        <ele>23.210000000000001</ele>
        <time>2017-06-26T12:31:40Z</time>
      </trkpt>
      <trkpt lat="70.786965005099773" lon="25.707966992631555">
        <ele>23.690000000000001</ele>
        <time>2017-06-26T12:31:41Z</time>
      </trkpt>
      <trkpt lat="70.786921000108123" lon="25.707433987408876">
        <ele>23.690000000000001</ele>
        <time>2017-06-26T12:31:42Z</time>
      </trkpt>
      <trkpt lat="70.786910019814968" lon="25.706893019378185">
        <ele>23.690000000000001</ele>
        <time>2017-06-26T12:31:43Z</time>
      </trkpt>
      <trkpt lat="70.786927035078406" lon="25.70634501054883">
        <ele>24.170000000000002</ele>
        <time>2017-06-26T12:31:44Z</time>
      </trkpt>
      <trkpt lat="70.786970034241676" lon="25.705800019204617">
        <ele>24.170000000000002</ele>
        <time>2017-06-26T12:31:45Z</time>
      </trkpt>
      <trkpt lat="70.787040023133159" lon="25.705266008153558">
        <ele>24.170000000000002</ele>
        <time>2017-06-26T12:31:46Z</time>
      </trkpt>
      <trkpt lat="70.787140019237995" lon="25.70477600209415">
        <ele>24.649999999999999</ele>
        <time>2017-06-26T12:31:47Z</time>
      </trkpt>
      <trkpt lat="70.78725703060627" lon="25.704319020733237">
        <ele>24.170000000000002</ele>
        <time>2017-06-26T12:31:48Z</time>
      </trkpt>
      <trkpt lat="70.787396002560854" lon="25.703901015222073">
        <ele>23.690000000000001</ele>
        <time>2017-06-26T12:31:49Z</time>
      </trkpt>
      <trkpt lat="70.787543021142483" lon="25.70352902635932">
        <ele>23.690000000000001</ele>
        <time>2017-06-26T12:31:50Z</time>
      </trkpt>
      <trkpt lat="70.787686016410589" lon="25.703174974769354">
        <ele>23.210000000000001</ele>
        <time>2017-06-26T12:31:51Z</time>
      </trkpt>
      <trkpt lat="70.787954991683364" lon="25.702446000650525">
        <ele>22.73</ele>
        <time>2017-06-26T12:31:53Z</time>
      </trkpt>
      <trkpt lat="70.788066973909736" lon="25.702009974047542">
        <ele>22.73</ele>
        <time>2017-06-26T12:31:54Z</time>
      </trkpt>
      <trkpt lat="70.788156995549798" lon="25.70153396576643">
        <ele>22.73</ele>
        <time>2017-06-26T12:31:55Z</time>
      </trkpt>
      <trkpt lat="70.788220027461648" lon="25.701048988848925">
        <ele>22.25</ele>
        <time>2017-06-26T12:31:56Z</time>
      </trkpt>
      <trkpt lat="70.788254979997873" lon="25.700564011931419">
        <ele>22.25</ele>
        <time>2017-06-26T12:31:57Z</time>
      </trkpt>
      <trkpt lat="70.788264032453299" lon="25.70007199421525">
        <ele>22.73</ele>
        <time>2017-06-26T12:31:58Z</time>
      </trkpt>
      <trkpt lat="70.788242993876338" lon="25.699600009247661">
        <ele>22.73</ele>
        <time>2017-06-26T12:31:59Z</time>
      </trkpt>
      <trkpt lat="70.788193959742785" lon="25.699135987088084">
        <ele>23.690000000000001</ele>
        <time>2017-06-26T12:32:00Z</time>
      </trkpt>
      <trkpt lat="70.788127994164824" lon="25.698705995455384">
        <ele>24.649999999999999</ele>
        <time>2017-06-26T12:32:01Z</time>
      </trkpt>
      <trkpt lat="70.788044007495046" lon="25.698299976065755">
        <ele>25.129999999999999</ele>
        <time>2017-06-26T12:32:02Z</time>
      </trkpt>
      <trkpt lat="70.787948034703732" lon="25.697907032445073">
        <ele>25.129999999999999</ele>
        <time>2017-06-26T12:32:03Z</time>
      </trkpt>
      <trkpt lat="70.787835968658328" lon="25.697512999176979">
        <ele>25.609999999999999</ele>
        <time>2017-06-26T12:32:04Z</time>
      </trkpt>
      <trkpt lat="70.786591004580259" lon="25.6937559787184">
        <ele>25.129999999999999</ele>
        <time>2017-06-26T12:32:13Z</time>
      </trkpt>
      <trkpt lat="70.786165036261082" lon="25.692409006878734">
        <ele>26.09</ele>
        <time>2017-06-26T12:32:16Z</time>
      </trkpt>
      <trkpt lat="70.78605598770082" lon="25.69190600886941">
        <ele>26.09</ele>
        <time>2017-06-26T12:32:17Z</time>
      </trkpt>
      <trkpt lat="70.785966971889138" lon="25.69136998616159">
        <ele>25.609999999999999</ele>
        <time>2017-06-26T12:32:18Z</time>
      </trkpt>
      <trkpt lat="70.785551983863115" lon="25.688417041674256">
        <ele>24.649999999999999</ele>
        <time>2017-06-26T12:32:23Z</time>
      </trkpt>
      <trkpt lat="70.785432960838079" lon="25.687865009531379">
        <ele>24.649999999999999</ele>
        <time>2017-06-26T12:32:24Z</time>
      </trkpt>
      <trkpt lat="70.785297006368637" lon="25.6873510312289">
        <ele>24.170000000000002</ele>
        <time>2017-06-26T12:32:25Z</time>
      </trkpt>
      <trkpt lat="70.785144958645105" lon="25.686855996027589">
        <ele>24.170000000000002</ele>
        <time>2017-06-26T12:32:26Z</time>
      </trkpt>
      <trkpt lat="70.784988971427083" lon="25.686379987746477">
        <ele>24.170000000000002</ele>
        <time>2017-06-26T12:32:27Z</time>
      </trkpt>
      <trkpt lat="70.783128021284938" lon="25.681025041267276">
        <ele>22.73</ele>
        <time>2017-06-26T12:32:38Z</time>
      </trkpt>
      <trkpt lat="70.782139040529728" lon="25.677933963015676">
        <ele>21.289999999999999</ele>
        <time>2017-06-26T12:32:45Z</time>
      </trkpt>
      <trkpt lat="70.781943993642926" lon="25.677070962265134">
        <ele>22.73</ele>
        <time>2017-06-26T12:32:50Z</time>
      </trkpt>
      <trkpt lat="70.781827988103032" lon="25.676619010046124">
        <ele>23.210000000000001</ele>
        <time>2017-06-26T12:32:53Z</time>
      </trkpt>
      <trkpt lat="70.781779959797859" lon="25.676361015066504">
        <ele>23.210000000000001</ele>
        <time>2017-06-26T12:32:54Z</time>
      </trkpt>
      <trkpt lat="70.781366983428597" lon="25.67373001947999">
        <ele>22.25</ele>
        <time>2017-06-26T12:33:01Z</time>
      </trkpt>
      <trkpt lat="70.780546981841326" lon="25.668527036905289">
        <ele>21.289999999999999</ele>
        <time>2017-06-26T12:33:11Z</time>
      </trkpt>
      <trkpt lat="70.77999796718359" lon="25.665926970541477">
        <ele>20.32</ele>
        <time>2017-06-26T12:33:16Z</time>
      </trkpt>
      <trkpt lat="70.77993200160563" lon="25.665418021380901">
        <ele>20.32</ele>
        <time>2017-06-26T12:33:17Z</time>
      </trkpt>
      <trkpt lat="70.779893025755882" lon="25.664905970916152">
        <ele>21.289999999999999</ele>
        <time>2017-06-26T12:33:18Z</time>
      </trkpt>
      <trkpt lat="70.779880033805966" lon="25.664381012320518">
        <ele>20.809999999999999</ele>
        <time>2017-06-26T12:33:19Z</time>
      </trkpt>
      <trkpt lat="70.779895959421992" lon="25.663853036239743">
        <ele>20.32</ele>
        <time>2017-06-26T12:33:20Z</time>
      </trkpt>
      <trkpt lat="70.779936024919152" lon="25.663307961076498">
        <ele>19.359999999999999</ele>
        <time>2017-06-26T12:33:21Z</time>
      </trkpt>
      <trkpt lat="70.780000984668732" lon="25.662779984995723">
        <ele>18.879999999999999</ele>
        <time>2017-06-26T12:33:22Z</time>
      </trkpt>
      <trkpt lat="70.780082959681749" lon="25.662271035835147">
        <ele>17.920000000000002</ele>
        <time>2017-06-26T12:33:23Z</time>
      </trkpt>
      <trkpt lat="70.780171975493431" lon="25.661760997027159">
        <ele>17.440000000000001</ele>
        <time>2017-06-26T12:33:24Z</time>
      </trkpt>
      <trkpt lat="70.780628034844995" lon="25.658343024551868">
        <ele>14.56</ele>
        <time>2017-06-26T12:33:30Z</time>
      </trkpt>
      <trkpt lat="70.780651001259685" lon="25.657726032659411">
        <ele>14.08</ele>
        <time>2017-06-26T12:33:31Z</time>
      </trkpt>
      <trkpt lat="70.780645972117782" lon="25.657089008018374">
        <ele>13.119999999999999</ele>
        <time>2017-06-26T12:33:32Z</time>
      </trkpt>
      <trkpt lat="70.780614959076047" lon="25.65645600669086">
        <ele>12.15</ele>
        <time>2017-06-26T12:33:33Z</time>
      </trkpt>
      <trkpt lat="70.780560979619622" lon="25.655802972614765">
        <ele>11.67</ele>
        <time>2017-06-26T12:33:34Z</time>
      </trkpt>
      <trkpt lat="70.780493002384901" lon="25.655167959630489">
        <ele>11.19</ele>
        <time>2017-06-26T12:33:35Z</time>
      </trkpt>
      <trkpt lat="70.780412033200264" lon="25.654531018808484">
        <ele>10.710000000000001</ele>
        <time>2017-06-26T12:33:36Z</time>
      </trkpt>
      <trkpt lat="70.779807027429342" lon="25.648117018863559">
        <ele>6.87</ele>
        <time>2017-06-26T12:33:46Z</time>
      </trkpt>
      <trkpt lat="70.779707031324506" lon="25.646792007610202">
        <ele>4.46</ele>
        <time>2017-06-26T12:33:48Z</time>
      </trkpt>
      <trkpt lat="70.779623966664076" lon="25.646146014332771">
        <ele>3.98</ele>
        <time>2017-06-26T12:33:49Z</time>
      </trkpt>
      <trkpt lat="70.779521036893129" lon="25.645524999126792">
        <ele>3.5</ele>
        <time>2017-06-26T12:33:50Z</time>
      </trkpt>
      <trkpt lat="70.779403019696474" lon="25.644923010841012">
        <ele>3.5</ele>
        <time>2017-06-26T12:33:51Z</time>
      </trkpt>
      <trkpt lat="70.779275028035045" lon="25.644343988969922">
        <ele>3.5</ele>
        <time>2017-06-26T12:33:52Z</time>
      </trkpt>
      <trkpt lat="70.778285041451454" lon="25.63915902748704">
        <ele>3.98</ele>
        <time>2017-06-26T12:34:01Z</time>
      </trkpt>
      <trkpt lat="70.777507033199072" lon="25.634377989917994">
        <ele>4.94</ele>
        <time>2017-06-26T12:34:09Z</time>
      </trkpt>
      <trkpt lat="70.776700023561716" lon="25.630393987521529">
        <ele>5.91</ele>
        <time>2017-06-26T12:34:16Z</time>
      </trkpt>
      <trkpt lat="70.776645038276911" lon="25.629781018942595">
        <ele>5.91</ele>
        <time>2017-06-26T12:34:17Z</time>
      </trkpt>
      <trkpt lat="70.77660002745688" lon="25.629151035100222">
        <ele>5.91</ele>
        <time>2017-06-26T12:34:18Z</time>
      </trkpt>
      <trkpt lat="70.776254022493958" lon="25.622625974938273">
        <ele>3.98</ele>
        <time>2017-06-26T12:34:28Z</time>
      </trkpt>
      <trkpt lat="70.775651028379798" lon="25.619772020727396">
        <ele>3.5</ele>
        <time>2017-06-26T12:34:33Z</time>
      </trkpt>
      <trkpt lat="70.77451997436583" lon="25.617302963510156">
        <ele>2.54</ele>
        <time>2017-06-26T12:34:39Z</time>
      </trkpt>
      <trkpt lat="70.772810988128185" lon="25.614273995161057">
        <ele>2.06</ele>
        <time>2017-06-26T12:34:48Z</time>
      </trkpt>
      <trkpt lat="70.772618958726525" lon="25.614112978801131">
        <ele>2.06</ele>
        <time>2017-06-26T12:34:49Z</time>
      </trkpt>
      <trkpt lat="70.772425001487136" lon="25.614005019888282">
        <ele>2.06</ele>
        <time>2017-06-26T12:34:50Z</time>
      </trkpt>
      <trkpt lat="70.772222997620702" lon="25.613923966884613">
        <ele>2.06</ele>
        <time>2017-06-26T12:34:51Z</time>
      </trkpt>
      <trkpt lat="70.772020993754268" lon="25.613879961892962">
        <ele>1.58</ele>
        <time>2017-06-26T12:34:52Z</time>
      </trkpt>
      <trkpt lat="70.770133975893259" lon="25.613200021907687">
        <ele>-0.82</ele>
        <time>2017-06-26T12:35:01Z</time>
      </trkpt>
      <trkpt lat="70.769932977855206" lon="25.612947978079319">
        <ele>-0.82</ele>
        <time>2017-06-26T12:35:02Z</time>
      </trkpt>
      <trkpt lat="70.76764496974647" lon="25.609647016972303">
        <ele>1.1</ele>
        <time>2017-06-26T12:35:14Z</time>
      </trkpt>
      <trkpt lat="70.766882970929146" lon="25.608546976000071">
        <ele>3.02</ele>
        <time>2017-06-26T12:35:21Z</time>
      </trkpt>
      <trkpt lat="70.766766965389252" lon="25.608370034024119">
        <ele>2.54</ele>
        <time>2017-06-26T12:35:28Z</time>
      </trkpt>
      <trkpt lat="70.766618018969893" lon="25.608135005459189">
        <ele>3.02</ele>
        <time>2017-06-26T12:36:33Z</time>
      </trkpt>
      <trkpt lat="70.766126001253724" lon="25.607301006093621">
        <ele>3.98</ele>
        <time>2017-06-26T12:36:43Z</time>
      </trkpt>
      <trkpt lat="70.765669019892812" lon="25.606462983414531">
        <ele>4.94</ele>
        <time>2017-06-26T12:36:50Z</time>
      </trkpt>
      <trkpt lat="70.764607032760978" lon="25.604260973632336">
        <ele>3.98</ele>
        <time>2017-06-26T12:37:00Z</time>
      </trkpt>
      <trkpt lat="70.762954959645867" lon="25.600625993683934">
        <ele>1.1</ele>
        <time>2017-06-26T12:37:12Z</time>
      </trkpt>
      <trkpt lat="70.760830985382199" lon="25.596151985228062">
        <ele>0.14</ele>
        <time>2017-06-26T12:37:26Z</time>
      </trkpt>
      <trkpt lat="70.75887699611485" lon="25.593665996566415">
        <ele>3.5</ele>
        <time>2017-06-26T12:37:38Z</time>
      </trkpt>
      <trkpt lat="70.756477005779743" lon="25.592362023890018">
        <ele>8.310000000000001</ele>
        <time>2017-06-26T12:37:51Z</time>
      </trkpt>
      <trkpt lat="70.754217999055982" lon="25.590935004875064">
        <ele>3.02</ele>
        <time>2017-06-26T12:38:02Z</time>
      </trkpt>
      <trkpt lat="70.751521959900856" lon="25.5890560336411">
        <ele>0.14</ele>
        <time>2017-06-26T12:38:15Z</time>
      </trkpt>
      <trkpt lat="70.750371040776372" lon="25.589879974722862">
        <ele>-2.75</ele>
        <time>2017-06-26T12:38:21Z</time>
      </trkpt>
      <trkpt lat="70.747692016884685" lon="25.593320997431874">
        <ele>6.39</ele>
        <time>2017-06-26T12:38:34Z</time>
      </trkpt>
      <trkpt lat="70.746533973142505" lon="25.594935016706586">
        <ele>13.6</ele>
        <time>2017-06-26T12:38:40Z</time>
      </trkpt>
      <trkpt lat="70.74637396261096" lon="25.595298036932945">
        <ele>14.56</ele>
        <time>2017-06-26T12:38:41Z</time>
      </trkpt>
      <trkpt lat="70.746233984827995" lon="25.595724005252123">
        <ele>16</ele>
        <time>2017-06-26T12:38:42Z</time>
      </trkpt>
      <trkpt lat="70.746120996773243" lon="25.596192972734571">
        <ele>17.440000000000001</ele>
        <time>2017-06-26T12:38:43Z</time>
      </trkpt>
      <trkpt lat="70.746034998446703" lon="25.596708040684462">
        <ele>18.879999999999999</ele>
        <time>2017-06-26T12:38:44Z</time>
      </trkpt>
      <trkpt lat="70.745969032868743" lon="25.597238028421998">
        <ele>20.32</ele>
        <time>2017-06-26T12:38:45Z</time>
      </trkpt>
      <trkpt lat="70.745923016220331" lon="25.597796011716127">
        <ele>21.289999999999999</ele>
        <time>2017-06-26T12:38:46Z</time>
      </trkpt>
      <trkpt lat="70.745894014835358" lon="25.598376961424947">
        <ele>22.73</ele>
        <time>2017-06-26T12:38:47Z</time>
      </trkpt>
      <trkpt lat="70.745869958773255" lon="25.59894097968936">
        <ele>23.690000000000001</ele>
        <time>2017-06-26T12:38:48Z</time>
      </trkpt>
      <trkpt lat="70.745705002918839" lon="25.601613968610764">
        <ele>28.02</ele>
        <time>2017-06-26T12:38:53Z</time>
      </trkpt>
      <trkpt lat="70.745625961571932" lon="25.602091988548636">
        <ele>28.5</ele>
        <time>2017-06-26T12:38:54Z</time>
      </trkpt>
      <trkpt lat="70.745528982952237" lon="25.60252801515162">
        <ele>28.5</ele>
        <time>2017-06-26T12:38:55Z</time>
      </trkpt>
      <trkpt lat="70.745415994897485" lon="25.602918025106192">
        <ele>28.5</ele>
        <time>2017-06-26T12:38:56Z</time>
      </trkpt>
      <trkpt lat="70.745284985750914" lon="25.60326000675559">
        <ele>28.5</ele>
        <time>2017-06-26T12:38:57Z</time>
      </trkpt>
      <trkpt lat="70.745136039331555" lon="25.603541973978281">
        <ele>28.02</ele>
        <time>2017-06-26T12:38:58Z</time>
      </trkpt>
      <trkpt lat="70.744973011314869" lon="25.603772979229689">
        <ele>27.050000000000001</ele>
        <time>2017-06-26T12:38:59Z</time>
      </trkpt>
      <trkpt lat="70.744799003005028" lon="25.603964002802968">
        <ele>26.09</ele>
        <time>2017-06-26T12:39:00Z</time>
      </trkpt>
      <trkpt lat="70.744615020230412" lon="25.604109009727836">
        <ele>24.649999999999999</ele>
        <time>2017-06-26T12:39:01Z</time>
      </trkpt>
      <trkpt lat="70.744420979171991" lon="25.604238007217646">
        <ele>23.690000000000001</ele>
        <time>2017-06-26T12:39:02Z</time>
      </trkpt>
      <trkpt lat="70.742786005139351" lon="25.605866024270654">
        <ele>16.48</ele>
        <time>2017-06-26T12:39:10Z</time>
      </trkpt>
      <trkpt lat="70.741437021642923" lon="25.607005041092634">
        <ele>14.08</ele>
        <time>2017-06-26T12:39:17Z</time>
      </trkpt>
      <trkpt lat="70.741118006408215" lon="25.607250966131687">
        <ele>12.630000000000001</ele>
        <time>2017-06-26T12:39:19Z</time>
      </trkpt>
      <trkpt lat="70.740966964513063" lon="25.607457999140024">
        <ele>12.630000000000001</ele>
        <time>2017-06-26T12:39:20Z</time>
      </trkpt>
      <trkpt lat="70.740823969244957" lon="25.607739966362715">
        <ele>12.630000000000001</ele>
        <time>2017-06-26T12:39:21Z</time>
      </trkpt>
      <trkpt lat="70.740691032260656" lon="25.608080020174384">
        <ele>13.119999999999999</ele>
        <time>2017-06-26T12:39:22Z</time>
      </trkpt>
      <trkpt lat="70.740560023114085" lon="25.608465000987053">
        <ele>13.6</ele>
        <time>2017-06-26T12:39:23Z</time>
      </trkpt>
      <trkpt lat="70.740434965118766" lon="25.608888035640121">
        <ele>14.08</ele>
        <time>2017-06-26T12:39:24Z</time>
      </trkpt>
      <trkpt lat="70.738782975822687" lon="25.615032976493239">
        <ele>24.170000000000002</ele>
        <time>2017-06-26T12:39:37Z</time>
      </trkpt>
      <trkpt lat="70.737961968407035" lon="25.617819959297776">
        <ele>28.5</ele>
        <time>2017-06-26T12:39:43Z</time>
      </trkpt>
      <trkpt lat="70.737795000895858" lon="25.618173005059361">
        <ele>28.98</ele>
        <time>2017-06-26T12:39:44Z</time>
      </trkpt>
      <trkpt lat="70.737617975100875" lon="25.618477016687393">
        <ele>29.460000000000001</ele>
        <time>2017-06-26T12:39:45Z</time>
      </trkpt>
      <trkpt lat="70.73743499815464" lon="25.618703998625278">
        <ele>29.940000000000001</ele>
        <time>2017-06-26T12:39:46Z</time>
      </trkpt>
      <trkpt lat="70.737245986238122" lon="25.618856968358159">
        <ele>30.420000000000002</ele>
        <time>2017-06-26T12:39:47Z</time>
      </trkpt>
      <trkpt lat="70.737054962664843" lon="25.618955958634615">
        <ele>30.420000000000002</ele>
        <time>2017-06-26T12:39:48Z</time>
      </trkpt>
      <trkpt lat="70.736861005425453" lon="25.618974985554814">
        <ele>30.420000000000002</ele>
        <time>2017-06-26T12:39:49Z</time>
      </trkpt>
      <trkpt lat="70.7366600073874" lon="25.618927963078022">
        <ele>29.940000000000001</ele>
        <time>2017-06-26T12:39:50Z</time>
      </trkpt>
      <trkpt lat="70.736461021006107" lon="25.618818998336792">
        <ele>29.460000000000001</ele>
        <time>2017-06-26T12:39:51Z</time>
      </trkpt>
      <trkpt lat="70.736263040453196" lon="25.61864398419857">
        <ele>28.98</ele>
        <time>2017-06-26T12:39:52Z</time>
      </trkpt>
      <trkpt lat="70.736064976081252" lon="25.618414990603924">
        <ele>28.98</ele>
        <time>2017-06-26T12:39:53Z</time>
      </trkpt>
      <trkpt lat="70.73586699552834" lon="25.618140986189246">
        <ele>28.98</ele>
        <time>2017-06-26T12:39:54Z</time>
      </trkpt>
      <trkpt lat="70.733361979946494" lon="25.614480022341013">
        <ele>34.259999999999998</ele>
        <time>2017-06-26T12:40:06Z</time>
      </trkpt>
      <trkpt lat="70.730487992987037" lon="25.609561018645763">
        <ele>18.879999999999999</ele>
        <time>2017-06-26T12:40:19Z</time>
      </trkpt>
      <trkpt lat="70.728779006749392" lon="25.60575102455914">
        <ele>16.48</ele>
        <time>2017-06-26T12:40:27Z</time>
      </trkpt>
      <trkpt lat="70.725120976567268" lon="25.596080990508199">
        <ele>9.75</ele>
        <time>2017-06-26T12:40:45Z</time>
      </trkpt>
      <trkpt lat="70.722171971574426" lon="25.588770965114236">
        <ele>1.58</ele>
        <time>2017-06-26T12:40:59Z</time>
      </trkpt>
      <trkpt lat="70.720358965918422" lon="25.582943027839065">
        <ele>3.98</ele>
        <time>2017-06-26T12:41:09Z</time>
      </trkpt>
      <trkpt lat="70.718212025240064" lon="25.576852988451719">
        <ele>-0.34</ele>
        <time>2017-06-26T12:41:20Z</time>
      </trkpt>
      <trkpt lat="70.715166041627526" lon="25.570245031267405">
        <ele>-0.34</ele>
        <time>2017-06-26T12:41:34Z</time>
      </trkpt>
      <trkpt lat="70.712328013032675" lon="25.564570985734463">
        <ele>0.62</ele>
        <time>2017-06-26T12:41:47Z</time>
      </trkpt>
      <trkpt lat="70.708431014791131" lon="25.557592967525125">
        <ele>0.14</ele>
        <time>2017-06-26T12:42:05Z</time>
      </trkpt>
      <trkpt lat="70.707216979935765" lon="25.554028982296586">
        <ele>-1.3</ele>
        <time>2017-06-26T12:42:12Z</time>
      </trkpt>
      <trkpt lat="70.706062959507108" lon="25.550372041761875">
        <ele>-0.82</ele>
        <time>2017-06-26T12:42:20Z</time>
      </trkpt>
      <trkpt lat="70.705339014530182" lon="25.547422030940652">
        <ele>-0.34</ele>
        <time>2017-06-26T12:42:28Z</time>
      </trkpt>
      <trkpt lat="70.705211022868752" lon="25.546460961923003">
        <ele>0.14</ele>
        <time>2017-06-26T12:42:30Z</time>
      </trkpt>
      <trkpt lat="70.705171963199973" lon="25.54593600332737">
        <ele>0.14</ele>
        <time>2017-06-26T12:42:31Z</time>
      </trkpt>
      <trkpt lat="70.705145979300141" lon="25.545392017811537">
        <ele>0.62</ele>
        <time>2017-06-26T12:42:32Z</time>
      </trkpt>
      <trkpt lat="70.705138016492128" lon="25.544848032295704">
        <ele>0.62</ele>
        <time>2017-06-26T12:42:33Z</time>
      </trkpt>
      <trkpt lat="70.705146985128522" lon="25.544293988496065">
        <ele>0.62</ele>
        <time>2017-06-26T12:42:34Z</time>
      </trkpt>
      <trkpt lat="70.705173974856734" lon="25.543727036565542">
        <ele>0.62</ele>
        <time>2017-06-26T12:42:35Z</time>
      </trkpt>
      <trkpt lat="70.705210017040372" lon="25.543148014694452">
        <ele>0.14</ele>
        <time>2017-06-26T12:42:36Z</time>
      </trkpt>
      <trkpt lat="70.70544102229178" lon="25.540857994928956">
        <ele>-2.27</ele>
        <time>2017-06-26T12:42:40Z</time>
      </trkpt>
      <trkpt lat="70.705533977597952" lon="25.540366983041167">
        <ele>-2.27</ele>
        <time>2017-06-26T12:42:41Z</time>
      </trkpt>
      <trkpt lat="70.70563699118793" lon="25.539931962266564">
        <ele>-2.27</ele>
        <time>2017-06-26T12:42:42Z</time>
      </trkpt>
      <trkpt lat="70.705760959535837" lon="25.539548993110657">
        <ele>-1.79</ele>
        <time>2017-06-26T12:42:43Z</time>
      </trkpt>
      <trkpt lat="70.705889035016298" lon="25.539193013682961">
        <ele>-1.3</ele>
        <time>2017-06-26T12:42:44Z</time>
      </trkpt>
      <trkpt lat="70.706239985302091" lon="25.537977972999215">
        <ele>-0.82</ele>
        <time>2017-06-26T12:42:47Z</time>
      </trkpt>
      <trkpt lat="70.706332018598914" lon="25.537498025223613">
        <ele>-0.34</ele>
        <time>2017-06-26T12:42:48Z</time>
      </trkpt>
      <trkpt lat="70.706407036632299" lon="25.536980023607612">
        <ele>0.14</ele>
        <time>2017-06-26T12:42:49Z</time>
      </trkpt>
      <trkpt lat="70.706460010260344" lon="25.536425979807973">
        <ele>0.62</ele>
        <time>2017-06-26T12:42:50Z</time>
      </trkpt>
      <trkpt lat="70.706494962796569" lon="25.535852992907166">
        <ele>1.1</ele>
        <time>2017-06-26T12:42:51Z</time>
      </trkpt>
      <trkpt lat="70.706516001373529" lon="25.535267014056444">
        <ele>1.1</ele>
        <time>2017-06-26T12:42:52Z</time>
      </trkpt>
      <trkpt lat="70.706591019406915" lon="25.528105013072491">
        <ele>1.1</ele>
        <time>2017-06-26T12:43:03Z</time>
      </trkpt>
      <trkpt lat="70.706460010260344" lon="25.524465003982186">
        <ele>1.1</ele>
        <time>2017-06-26T12:43:09Z</time>
      </trkpt>
      <trkpt lat="70.706385998055339" lon="25.523923030123115">
        <ele>1.1</ele>
        <time>2017-06-26T12:43:10Z</time>
      </trkpt>
      <trkpt lat="70.706294970586896" lon="25.523426989093423">
        <ele>0.62</ele>
        <time>2017-06-26T12:43:11Z</time>
      </trkpt>
      <trkpt lat="70.706182988360524" lon="25.522982999682426">
        <ele>0.62</ele>
        <time>2017-06-26T12:43:12Z</time>
      </trkpt>
      <trkpt lat="70.706053990870714" lon="25.522593995556235">
        <ele>0.62</ele>
        <time>2017-06-26T12:43:13Z</time>
      </trkpt>
      <trkpt lat="70.705901021137834" lon="25.52223801612854">
        <ele>1.1</ele>
        <time>2017-06-26T12:43:14Z</time>
      </trkpt>
      <trkpt lat="70.705737993121147" lon="25.521886982023716">
        <ele>1.1</ele>
        <time>2017-06-26T12:43:15Z</time>
      </trkpt>
      <trkpt lat="70.704608028754592" lon="25.5196169950068">
        <ele>-0.82</ele>
        <time>2017-06-26T12:43:21Z</time>
      </trkpt>
      <trkpt lat="70.70438900962472" lon="25.519304014742374">
        <ele>-0.34</ele>
        <time>2017-06-26T12:43:22Z</time>
      </trkpt>
      <trkpt lat="70.702126985415816" lon="25.516858007758856">
        <ele>-1.79</ele>
        <time>2017-06-26T12:43:32Z</time>
      </trkpt>
      <trkpt lat="70.701717026531696" lon="25.516641000285745">
        <ele>-1.79</ele>
        <time>2017-06-26T12:43:34Z</time>
      </trkpt>
      <trkpt lat="70.701514016836882" lon="25.516642006114125">
        <ele>-2.27</ele>
        <time>2017-06-26T12:43:35Z</time>
      </trkpt>
      <trkpt lat="70.701312012970448" lon="25.516691040247679">
        <ele>-2.75</ele>
        <time>2017-06-26T12:43:36Z</time>
      </trkpt>
      <trkpt lat="70.700578009709716" lon="25.516913998872042">
        <ele>-2.27</ele>
        <time>2017-06-26T12:43:40Z</time>
      </trkpt>
      <trkpt lat="70.700400983914733" lon="25.516876028850675">
        <ele>-2.75</ele>
        <time>2017-06-26T12:43:41Z</time>
      </trkpt>
      <trkpt lat="70.700220018625259" lon="25.516785001382232">
        <ele>-2.75</ele>
        <time>2017-06-26T12:43:42Z</time>
      </trkpt>
      <trkpt lat="70.700032012537122" lon="25.516653992235661">
        <ele>-2.75</ele>
        <time>2017-06-26T12:43:43Z</time>
      </trkpt>
      <trkpt lat="70.699840988963842" lon="25.516492975875735">
        <ele>-2.75</ele>
        <time>2017-06-26T12:43:44Z</time>
      </trkpt>
      <trkpt lat="70.698724016547203" lon="25.514706037938595">
        <ele>1.58</ele>
        <time>2017-06-26T12:43:50Z</time>
      </trkpt>
      <trkpt lat="70.697844000533223" lon="25.512659009546041">
        <ele>7.35</ele>
        <time>2017-06-26T12:43:55Z</time>
      </trkpt>
      <trkpt lat="70.697718020528555" lon="25.512207979336381">
        <ele>8.789999999999999</ele>
        <time>2017-06-26T12:43:56Z</time>
      </trkpt>
      <trkpt lat="70.697616012766957" lon="25.511715039610863">
        <ele>10.710000000000001</ele>
        <time>2017-06-26T12:43:57Z</time>
      </trkpt>
      <trkpt lat="70.697526996955276" lon="25.511191003024578">
        <ele>12.15</ele>
        <time>2017-06-26T12:43:58Z</time>
      </trkpt>
      <trkpt lat="70.69745097309351" lon="25.510630002245307">
        <ele>13.119999999999999</ele>
        <time>2017-06-26T12:43:59Z</time>
      </trkpt>
      <trkpt lat="70.697108991444111" lon="25.50842204131186">
        <ele>13.6</ele>
        <time>2017-06-26T12:44:03Z</time>
      </trkpt>
      <trkpt lat="70.696979993954301" lon="25.507946033030748">
        <ele>12.630000000000001</ele>
        <time>2017-06-26T12:44:04Z</time>
      </trkpt>
      <trkpt lat="70.696830963715911" lon="25.50749802030623">
        <ele>11.67</ele>
        <time>2017-06-26T12:44:05Z</time>
      </trkpt>
      <trkpt lat="70.69504695944488" lon="25.502669038251042">
        <ele>0.62</ele>
        <time>2017-06-26T12:44:15Z</time>
      </trkpt>
      <trkpt lat="70.692803962156177" lon="25.497443005442619">
        <ele>0.62</ele>
        <time>2017-06-26T12:44:27Z</time>
      </trkpt>
      <trkpt lat="70.690216971561313" lon="25.493859993293881">
        <ele>-4.19</ele>
        <time>2017-06-26T12:44:39Z</time>
      </trkpt>
      <trkpt lat="70.687582958489656" lon="25.49067797139287">
        <ele>-1.3</ele>
        <time>2017-06-26T12:44:51Z</time>
      </trkpt>
      <trkpt lat="70.685745980590582" lon="25.489788986742496">
        <ele>0.62</ele>
        <time>2017-06-26T12:44:59Z</time>
      </trkpt>
      <trkpt lat="70.684015033766627" lon="25.48949402756989">
        <ele>1.1</ele>
        <time>2017-06-26T12:45:07Z</time>
      </trkpt>
      <trkpt lat="70.682568987831473" lon="25.487772971391678">
        <ele>3.02</ele>
        <time>2017-06-26T12:45:14Z</time>
      </trkpt>
      <trkpt lat="70.681527033448219" lon="25.485824011266232">
        <ele>0.62</ele>
        <time>2017-06-26T12:45:21Z</time>
      </trkpt>
      <trkpt lat="70.680595971643925" lon="25.483327964320779">
        <ele>-2.27</ele>
        <time>2017-06-26T12:45:28Z</time>
      </trkpt>
      <trkpt lat="70.679729031398892" lon="25.47984997741878">
        <ele>1.58</ele>
        <time>2017-06-26T12:45:36Z</time>
      </trkpt>
      <trkpt lat="70.679007014259696" lon="25.476121958345175">
        <ele>1.58</ele>
        <time>2017-06-26T12:45:44Z</time>
      </trkpt>
      <trkpt lat="70.678610969334841" lon="25.473752981051803">
        <ele>2.06</ele>
        <time>2017-06-26T12:45:49Z</time>
      </trkpt>
      <trkpt lat="70.67852295935154" lon="25.473375041037798">
        <ele>2.54</ele>
        <time>2017-06-26T12:45:50Z</time>
      </trkpt>
      <trkpt lat="70.678418017923832" lon="25.47301696613431">
        <ele>3.02</ele>
        <time>2017-06-26T12:45:51Z</time>
      </trkpt>
      <trkpt lat="70.678293965756893" lon="25.472682025283575">
        <ele>3.02</ele>
        <time>2017-06-26T12:45:52Z</time>
      </trkpt>
      <trkpt lat="70.678163040429354" lon="25.47235001809895">
        <ele>3.02</ele>
        <time>2017-06-26T12:45:53Z</time>
      </trkpt>
      <trkpt lat="70.678017027676105" lon="25.472038965672255">
        <ele>3.5</ele>
        <time>2017-06-26T12:45:54Z</time>
      </trkpt>
      <trkpt lat="70.676619010046124" lon="25.469038998708129">
        <ele>0.62</ele>
        <time>2017-06-26T12:46:03Z</time>
      </trkpt>
      <trkpt lat="70.675112027674913" lon="25.464674960821867">
        <ele>0.14</ele>
        <time>2017-06-26T12:46:13Z</time>
      </trkpt>
      <trkpt lat="70.673837978392839" lon="25.460633961483836">
        <ele>-0.82</ele>
        <time>2017-06-26T12:46:22Z</time>
      </trkpt>
      <trkpt lat="70.672515984624624" lon="25.454296991229057">
        <ele>0.62</ele>
        <time>2017-06-26T12:46:34Z</time>
      </trkpt>
      <trkpt lat="70.671680979430676" lon="25.448318012058735">
        <ele>-1.3</ele>
        <time>2017-06-26T12:46:44Z</time>
      </trkpt>
      <trkpt lat="70.670751007273793" lon="25.440000984817743">
        <ele>1.1</ele>
        <time>2017-06-26T12:46:57Z</time>
      </trkpt>
      <trkpt lat="70.670398967340589" lon="25.433378024026752">
        <ele>1.58</ele>
        <time>2017-06-26T12:47:07Z</time>
      </trkpt>
      <trkpt lat="70.670414976775646" lon="25.432763965800405">
        <ele>1.58</ele>
        <time>2017-06-26T12:47:08Z</time>
      </trkpt>
      <trkpt lat="70.670449007302523" lon="25.43215200304985">
        <ele>1.1</ele>
        <time>2017-06-26T12:47:09Z</time>
      </trkpt>
      <trkpt lat="70.671062981709838" lon="25.425837999209762">
        <ele>0.14</ele>
        <time>2017-06-26T12:47:19Z</time>
      </trkpt>
      <trkpt lat="70.671268003061414" lon="25.421426016837358">
        <ele>3.5</ele>
        <time>2017-06-26T12:47:26Z</time>
      </trkpt>
      <trkpt lat="70.67083197645843" lon="25.417762035503983">
        <ele>1.58</ele>
        <time>2017-06-26T12:47:32Z</time>
      </trkpt>
      <trkpt lat="70.669960007071495" lon="25.413687005639076">
        <ele>-0.82</ele>
        <time>2017-06-26T12:47:39Z</time>
      </trkpt>
      <trkpt lat="70.66988599486649" lon="25.413040006533265">
        <ele>-1.3</ele>
        <time>2017-06-26T12:47:40Z</time>
      </trkpt>
      <trkpt lat="70.669839978218079" lon="25.412380015477538">
        <ele>-1.3</ele>
        <time>2017-06-26T12:47:41Z</time>
      </trkpt>
      <trkpt lat="70.66981902346015" lon="25.411709966138005">
        <ele>-1.3</ele>
        <time>2017-06-26T12:47:42Z</time>
      </trkpt>
      <trkpt lat="70.66982296295464" lon="25.411046035587788">
        <ele>-1.3</ele>
        <time>2017-06-26T12:47:43Z</time>
      </trkpt>
      <trkpt lat="70.669850958511233" lon="25.410383027046919">
        <ele>-1.3</ele>
        <time>2017-06-26T12:47:44Z</time>
      </trkpt>
      <trkpt lat="70.669902004301548" lon="25.409736027941108">
        <ele>-0.82</ele>
        <time>2017-06-26T12:47:45Z</time>
      </trkpt>
      <trkpt lat="70.669978028163314" lon="25.409113001078367">
        <ele>-0.34</ele>
        <time>2017-06-26T12:47:46Z</time>
      </trkpt>
      <trkpt lat="70.670076012611389" lon="25.408521993085742">
        <ele>0.14</ele>
        <time>2017-06-26T12:47:47Z</time>
      </trkpt>
      <trkpt lat="70.670190006494522" lon="25.407949006184936">
        <ele>0.62</ele>
        <time>2017-06-26T12:47:48Z</time>
      </trkpt>
      <trkpt lat="70.670319003984332" lon="25.407388005405664">
        <ele>1.58</ele>
        <time>2017-06-26T12:47:49Z</time>
      </trkpt>
      <trkpt lat="70.670457975938916" lon="25.406844019889832">
        <ele>2.06</ele>
        <time>2017-06-26T12:47:50Z</time>
      </trkpt>
      <trkpt lat="70.671848030760884" lon="25.401571970432997">
        <ele>4.46</ele>
        <time>2017-06-26T12:48:00Z</time>
      </trkpt>
      <trkpt lat="70.671939980238676" lon="25.400994038209319">
        <ele>4.46</ele>
        <time>2017-06-26T12:48:01Z</time>
      </trkpt>
      <trkpt lat="70.672007035464048" lon="25.400390038266778">
        <ele>3.98</ele>
        <time>2017-06-26T12:48:02Z</time>
      </trkpt>
      <trkpt lat="70.672048022970557" lon="25.399759970605373">
        <ele>3.02</ele>
        <time>2017-06-26T12:48:03Z</time>
      </trkpt>
      <trkpt lat="70.672062020748854" lon="25.399116994813085">
        <ele>2.06</ele>
        <time>2017-06-26T12:48:04Z</time>
      </trkpt>
      <trkpt lat="70.672051040455699" lon="25.398466978222132">
        <ele>1.1</ele>
        <time>2017-06-26T12:48:05Z</time>
      </trkpt>
      <trkpt lat="70.672019021585584" lon="25.397815033793449">
        <ele>1.1</ele>
        <time>2017-06-26T12:48:06Z</time>
      </trkpt>
      <trkpt lat="70.671955989673734" lon="25.397179014980793">
        <ele>0.62</ele>
        <time>2017-06-26T12:48:07Z</time>
      </trkpt>
      <trkpt lat="70.671869991347194" lon="25.396564034745097">
        <ele>0.62</ele>
        <time>2017-06-26T12:48:08Z</time>
      </trkpt>
      <trkpt lat="70.671761026605964" lon="25.39598903618753">
        <ele>0.14</ele>
        <time>2017-06-26T12:48:09Z</time>
      </trkpt>
      <trkpt lat="70.671630017459393" lon="25.395435998216271">
        <ele>0.14</ele>
        <time>2017-06-26T12:48:10Z</time>
      </trkpt>
      <trkpt lat="70.671490961685777" lon="25.394911961629987">
        <ele>0.14</ele>
        <time>2017-06-26T12:48:11Z</time>
      </trkpt>
      <trkpt lat="70.67134503275156" lon="25.394416004419327">
        <ele>0.62</ele>
        <time>2017-06-26T12:48:12Z</time>
      </trkpt>
      <trkpt lat="70.66994802094996" lon="25.390993002802134">
        <ele>1.1</ele>
        <time>2017-06-26T12:48:20Z</time>
      </trkpt>
      <trkpt lat="70.668254960328341" lon="25.388937005773187">
        <ele>-1.3</ele>
        <time>2017-06-26T12:48:28Z</time>
      </trkpt>
      <trkpt lat="70.667836032807827" lon="25.3887739777565">
        <ele>-2.27</ele>
        <time>2017-06-26T12:48:30Z</time>
      </trkpt>
      <trkpt lat="70.667625982314348" lon="25.388795016333461">
        <ele>-2.75</ele>
        <time>2017-06-26T12:48:31Z</time>
      </trkpt>
      <trkpt lat="70.667420960962772" lon="25.388873973861337">
        <ele>-3.23</ele>
        <time>2017-06-26T12:48:32Z</time>
      </trkpt>
      <trkpt lat="70.66721904091537" lon="25.389032978564501">
        <ele>-3.23</ele>
        <time>2017-06-26T12:48:33Z</time>
      </trkpt>
      <trkpt lat="70.667023994028568" lon="25.389271024614573">
        <ele>-3.23</ele>
        <time>2017-06-26T12:48:34Z</time>
      </trkpt>
      <trkpt lat="70.666841017082334" lon="25.389585010707378">
        <ele>-2.75</ele>
        <time>2017-06-26T12:48:35Z</time>
      </trkpt>
      <trkpt lat="70.666673965752125" lon="25.38995398208499">
        <ele>-2.27</ele>
        <time>2017-06-26T12:48:36Z</time>
      </trkpt>
      <trkpt lat="70.666523007676005" lon="25.390371987596154">
        <ele>-1.3</ele>
        <time>2017-06-26T12:48:37Z</time>
      </trkpt>
      <trkpt lat="70.666390992701054" lon="25.390842966735363">
        <ele>-0.34</ele>
        <time>2017-06-26T12:48:38Z</time>
      </trkpt>
      <trkpt lat="70.666284039616585" lon="25.391348982229829">
        <ele>0.62</ele>
        <time>2017-06-26T12:48:39Z</time>
      </trkpt>
      <trkpt lat="70.666198041290045" lon="25.391896991059184">
        <ele>1.58</ele>
        <time>2017-06-26T12:48:40Z</time>
      </trkpt>
      <trkpt lat="70.666138026863337" lon="25.392491016536951">
        <ele>2.06</ele>
        <time>2017-06-26T12:48:41Z</time>
      </trkpt>
      <trkpt lat="70.666082035750151" lon="25.393095016479492">
        <ele>2.54</ele>
        <time>2017-06-26T12:48:42Z</time>
      </trkpt>
      <trkpt lat="70.665509970858693" lon="25.39672396145761">
        <ele>3.02</ele>
        <time>2017-06-26T12:48:48Z</time>
      </trkpt>
      <trkpt lat="70.664053028449416" lon="25.401224959641695">
        <ele>1.58</ele>
        <time>2017-06-26T12:48:57Z</time>
      </trkpt>
      <trkpt lat="70.662467004731297" lon="25.404558023437858">
        <ele>0.14</ele>
        <time>2017-06-26T12:49:06Z</time>
      </trkpt>
      <trkpt lat="70.661470983177423" lon="25.406415034085512">
        <ele>-0.34</ele>
        <time>2017-06-26T12:49:14Z</time>
      </trkpt>
      <trkpt lat="70.661108968779445" lon="25.406930018216372">
        <ele>-0.82</ele>
        <time>2017-06-26T12:49:17Z</time>
      </trkpt>
      <trkpt lat="70.660987012088299" lon="25.40705700404942">
        <ele>-0.82</ele>
        <time>2017-06-26T12:49:18Z</time>
      </trkpt>
      <trkpt lat="70.660850973799825" lon="25.407136967405677">
        <ele>-0.82</ele>
        <time>2017-06-26T12:49:19Z</time>
      </trkpt>
      <trkpt lat="70.660717030987144" lon="25.407194970175624">
        <ele>-0.82</ele>
        <time>2017-06-26T12:49:20Z</time>
      </trkpt>
      <trkpt lat="70.660577975213528" lon="25.40720896795392">
        <ele>-0.82</ele>
        <time>2017-06-26T12:49:21Z</time>
      </trkpt>
      <trkpt lat="70.660428022965789" lon="25.407157000154257">
        <ele>-0.82</ele>
        <time>2017-06-26T12:49:22Z</time>
      </trkpt>
      <trkpt lat="70.660271029919386" lon="25.407064966857433">
        <ele>-1.3</ele>
        <time>2017-06-26T12:49:23Z</time>
      </trkpt>
      <trkpt lat="70.660115964710712" lon="25.406944015994668">
        <ele>-0.82</ele>
        <time>2017-06-26T12:49:24Z</time>
      </trkpt>
      <trkpt lat="70.659957965835929" lon="25.4067990090698">
        <ele>-0.82</ele>
        <time>2017-06-26T12:49:25Z</time>
      </trkpt>
      <trkpt lat="70.65907996147871" lon="25.40594195947051">
        <ele>3.02</ele>
        <time>2017-06-26T12:49:31Z</time>
      </trkpt>
      <trkpt lat="70.657577002421021" lon="25.404891958460212">
        <ele>3.98</ele>
        <time>2017-06-26T12:49:40Z</time>
      </trkpt>
      <trkpt lat="70.656582992523909" lon="25.402967976406217">
        <ele>4.46</ele>
        <time>2017-06-26T12:49:46Z</time>
      </trkpt>
      <trkpt lat="70.655326964333653" lon="25.400519035756588">
        <ele>3.98</ele>
        <time>2017-06-26T12:49:55Z</time>
      </trkpt>
      <trkpt lat="70.654075965285301" lon="25.399782015010715">
        <ele>3.98</ele>
        <time>2017-06-26T12:50:03Z</time>
      </trkpt>
      <trkpt lat="70.653230985626578" lon="25.399129986763">
        <ele>4.46</ele>
        <time>2017-06-26T12:50:08Z</time>
      </trkpt>
      <trkpt lat="70.653079021722078" lon="25.398871991783381">
        <ele>4.46</ele>
        <time>2017-06-26T12:50:09Z</time>
      </trkpt>
      <trkpt lat="70.652936026453972" lon="25.398578960448503">
        <ele>4.46</ele>
        <time>2017-06-26T12:50:10Z</time>
      </trkpt>
      <trkpt lat="70.652800993993878" lon="25.398252988234162">
        <ele>4.94</ele>
        <time>2017-06-26T12:50:11Z</time>
      </trkpt>
      <trkpt lat="70.652661016210914" lon="25.39790497161448">
        <ele>4.94</ele>
        <time>2017-06-26T12:50:12Z</time>
      </trkpt>
      <trkpt lat="70.652513997629285" lon="25.397555027157068">
        <ele>5.42</ele>
        <time>2017-06-26T12:50:13Z</time>
      </trkpt>
      <trkpt lat="70.648777009919286" lon="25.386268962174654">
        <ele>3.02</ele>
        <time>2017-06-26T12:50:41Z</time>
      </trkpt>
      <trkpt lat="70.647461973130703" lon="25.383828990161419">
        <ele>0.14</ele>
        <time>2017-06-26T12:50:48Z</time>
      </trkpt>
      <trkpt lat="70.647299028933048" lon="25.383376032114029">
        <ele>0.14</ele>
        <time>2017-06-26T12:50:49Z</time>
      </trkpt>
      <trkpt lat="70.647160978987813" lon="25.382875967770815">
        <ele>-0.34</ele>
        <time>2017-06-26T12:50:50Z</time>
      </trkpt>
      <trkpt lat="70.647033993154764" lon="25.382331982254982">
        <ele>-0.34</ele>
        <time>2017-06-26T12:50:51Z</time>
      </trkpt>
      <trkpt lat="70.646937014535069" lon="25.381738040596247">
        <ele>0.14</ele>
        <time>2017-06-26T12:50:52Z</time>
      </trkpt>
      <trkpt lat="70.646859984844923" lon="25.381114007905126">
        <ele>-0.34</ele>
        <time>2017-06-26T12:50:53Z</time>
      </trkpt>
      <trkpt lat="70.64680902287364" lon="25.380482012405992">
        <ele>0.14</ele>
        <time>2017-06-26T12:50:54Z</time>
      </trkpt>
      <trkpt lat="70.646793013438582" lon="25.379806011915207">
        <ele>0.14</ele>
        <time>2017-06-26T12:50:55Z</time>
      </trkpt>
      <trkpt lat="70.646786978468299" lon="25.379148032516241">
        <ele>0.62</ele>
        <time>2017-06-26T12:50:56Z</time>
      </trkpt>
      <trkpt lat="70.646798964589834" lon="25.378478989005089">
        <ele>0.14</ele>
        <time>2017-06-26T12:50:57Z</time>
      </trkpt>
      <trkpt lat="70.646967021748424" lon="25.371780004352331">
        <ele>0.62</ele>
        <time>2017-06-26T12:51:07Z</time>
      </trkpt>
      <trkpt lat="70.647371029481292" lon="25.366629995405674">
        <ele>2.06</ele>
        <time>2017-06-26T12:51:15Z</time>
      </trkpt>
      <trkpt lat="70.647375974804163" lon="25.365987019613385">
        <ele>2.54</ele>
        <time>2017-06-26T12:51:16Z</time>
      </trkpt>
      <trkpt lat="70.647356025874615" lon="25.365356029942632">
        <ele>2.54</ele>
        <time>2017-06-26T12:51:17Z</time>
      </trkpt>
      <trkpt lat="70.647312020882964" lon="25.364724034443498">
        <ele>2.54</ele>
        <time>2017-06-26T12:51:18Z</time>
      </trkpt>
      <trkpt lat="70.647245971485972" lon="25.364126991480589">
        <ele>2.54</ele>
        <time>2017-06-26T12:51:19Z</time>
      </trkpt>
      <trkpt lat="70.647154022008181" lon="25.363552998751402">
        <ele>2.54</ele>
        <time>2017-06-26T12:51:20Z</time>
      </trkpt>
      <trkpt lat="70.647042961791158" lon="25.363022005185485">
        <ele>3.02</ele>
        <time>2017-06-26T12:51:21Z</time>
      </trkpt>
      <trkpt lat="70.646906001493335" lon="25.362524036318064">
        <ele>3.98</ele>
        <time>2017-06-26T12:51:22Z</time>
      </trkpt>
      <trkpt lat="70.646754037588835" lon="25.362075017765164">
        <ele>4.46</ele>
        <time>2017-06-26T12:51:23Z</time>
      </trkpt>
      <trkpt lat="70.646584974601865" lon="25.361672015860677">
        <ele>4.94</ele>
        <time>2017-06-26T12:51:24Z</time>
      </trkpt>
      <trkpt lat="70.646403003484011" lon="25.361315030604601">
        <ele>5.42</ele>
        <time>2017-06-26T12:51:25Z</time>
      </trkpt>
      <trkpt lat="70.646213991567492" lon="25.361004984006286">
        <ele>5.91</ele>
        <time>2017-06-26T12:51:26Z</time>
      </trkpt>
      <trkpt lat="70.6460150051862" lon="25.36071396432817">
        <ele>5.91</ele>
        <time>2017-06-26T12:51:27Z</time>
      </trkpt>
      <trkpt lat="70.645813001319766" lon="25.360468961298466">
        <ele>6.39</ele>
        <time>2017-06-26T12:51:28Z</time>
      </trkpt>
      <trkpt lat="70.645604962483048" lon="25.360267041251063">
        <ele>6.87</ele>
        <time>2017-06-26T12:51:29Z</time>
      </trkpt>
      <trkpt lat="70.645390972495079" lon="25.360121028497815">
        <ele>6.87</ele>
        <time>2017-06-26T12:51:30Z</time>
      </trkpt>
      <trkpt lat="70.645175976678729" lon="25.360010974109173">
        <ele>6.39</ele>
        <time>2017-06-26T12:51:31Z</time>
      </trkpt>
      <trkpt lat="70.644954023882747" lon="25.359941991046071">
        <ele>6.87</ele>
        <time>2017-06-26T12:51:32Z</time>
      </trkpt>
      <trkpt lat="70.644732993096113" lon="25.359933022409678">
        <ele>6.87</ele>
        <time>2017-06-26T12:51:33Z</time>
      </trkpt>
      <trkpt lat="70.644508022814989" lon="25.359950959682465">
        <ele>6.87</ele>
        <time>2017-06-26T12:51:34Z</time>
      </trkpt>
      <trkpt lat="70.644282968714833" lon="25.360008040443063">
        <ele>7.35</ele>
        <time>2017-06-26T12:51:35Z</time>
      </trkpt>
      <trkpt lat="70.64406001009047" lon="25.360094038769603">
        <ele>7.35</ele>
        <time>2017-06-26T12:51:36Z</time>
      </trkpt>
      <trkpt lat="70.642558978870511" lon="25.361547041684389">
        <ele>16.48</ele>
        <time>2017-06-26T12:51:43Z</time>
      </trkpt>
      <trkpt lat="70.640800036489964" lon="25.364577015861869">
        <ele>22.73</ele>
        <time>2017-06-26T12:51:52Z</time>
      </trkpt>
      <trkpt lat="70.639726985245943" lon="25.368109988048673">
        <ele>25.609999999999999</ele>
        <time>2017-06-26T12:51:59Z</time>
      </trkpt>
      <trkpt lat="70.638955011963844" lon="25.37270100787282">
        <ele>28.02</ele>
        <time>2017-06-26T12:52:07Z</time>
      </trkpt>
      <trkpt lat="70.638833977282047" lon="25.37315396592021">
        <ele>28.02</ele>
        <time>2017-06-26T12:52:08Z</time>
      </trkpt>
      <trkpt lat="70.638691987842321" lon="25.37354095838964">
        <ele>28.02</ele>
        <time>2017-06-26T12:52:09Z</time>
      </trkpt>
      <trkpt lat="70.638530971482396" lon="25.373832983896136">
        <ele>28.5</ele>
        <time>2017-06-26T12:52:10Z</time>
      </trkpt>
      <trkpt lat="70.638356963172555" lon="25.374036999419332">
        <ele>28.5</ele>
        <time>2017-06-26T12:52:11Z</time>
      </trkpt>
      <trkpt lat="70.63817398622632" lon="25.37414101883769">
        <ele>28.5</ele>
        <time>2017-06-26T12:52:12Z</time>
      </trkpt>
      <trkpt lat="70.637990003451705" lon="25.374160967767239">
        <ele>28.5</ele>
        <time>2017-06-26T12:52:13Z</time>
      </trkpt>
      <trkpt lat="70.637811971828341" lon="25.374082010239363">
        <ele>28.5</ele>
        <time>2017-06-26T12:52:14Z</time>
      </trkpt>
      <trkpt lat="70.637643998488784" lon="25.373909007757902">
        <ele>28.5</ele>
        <time>2017-06-26T12:52:15Z</time>
      </trkpt>
      <trkpt lat="70.637487005442381" lon="25.373633997514844">
        <ele>28.02</ele>
        <time>2017-06-26T12:52:16Z</time>
      </trkpt>
      <trkpt lat="70.637341998517513" lon="25.373296961188316">
        <ele>27.530000000000001</ele>
        <time>2017-06-26T12:52:17Z</time>
      </trkpt>
      <trkpt lat="70.637216018512845" lon="25.372882978990674">
        <ele>26.57</ele>
        <time>2017-06-26T12:52:18Z</time>
      </trkpt>
      <trkpt lat="70.637105964124203" lon="25.372420968487859">
        <ele>25.129999999999999</ele>
        <time>2017-06-26T12:52:19Z</time>
      </trkpt>
      <trkpt lat="70.637019965797663" lon="25.371910007670522">
        <ele>24.170000000000002</ele>
        <time>2017-06-26T12:52:20Z</time>
      </trkpt>
      <trkpt lat="70.636954000219703" lon="25.371351018548012">
        <ele>22.25</ele>
        <time>2017-06-26T12:52:21Z</time>
      </trkpt>
      <trkpt lat="70.636893985792994" lon="25.370740983635187">
        <ele>20.32</ele>
        <time>2017-06-26T12:52:22Z</time>
      </trkpt>
      <trkpt lat="70.636300966143608" lon="25.366954961791635">
        <ele>9.27</ele>
        <time>2017-06-26T12:52:28Z</time>
      </trkpt>
      <trkpt lat="70.63531500287354" lon="25.360956033691764">
        <ele>3.5</ele>
        <time>2017-06-26T12:52:37Z</time>
      </trkpt>
      <trkpt lat="70.634271036833525" lon="25.35536203533411">
        <ele>5.91</ele>
        <time>2017-06-26T12:52:46Z</time>
      </trkpt>
      <trkpt lat="70.632490972056985" lon="25.348712000995874">
        <ele>4.94</ele>
        <time>2017-06-26T12:52:58Z</time>
      </trkpt>
      <trkpt lat="70.631392020732164" lon="25.344607969745994">
        <ele>4.94</ele>
        <time>2017-06-26T12:53:06Z</time>
      </trkpt>
      <trkpt lat="70.629906998947263" lon="25.338050974532962">
        <ele>4.46</ele>
        <time>2017-06-26T12:53:18Z</time>
      </trkpt>
      <trkpt lat="70.628952970728278" lon="25.333518963307142">
        <ele>3.5</ele>
        <time>2017-06-26T12:53:27Z</time>
      </trkpt>
      <trkpt lat="70.628834031522274" lon="25.333118978887796">
        <ele>3.02</ele>
        <time>2017-06-26T12:53:28Z</time>
      </trkpt>
      <trkpt lat="70.628706039860845" lon="25.332773979753256">
        <ele>2.54</ele>
        <time>2017-06-26T12:53:29Z</time>
      </trkpt>
      <trkpt lat="70.62856899574399" lon="25.332499975338578">
        <ele>1.58</ele>
        <time>2017-06-26T12:53:30Z</time>
      </trkpt>
      <trkpt lat="70.628421977162361" lon="25.332299983128905">
        <ele>1.1</ele>
        <time>2017-06-26T12:53:31Z</time>
      </trkpt>
      <trkpt lat="70.628266995772719" lon="25.332197975367308">
        <ele>0.14</ele>
        <time>2017-06-26T12:53:32Z</time>
      </trkpt>
      <trkpt lat="70.628102961927652" lon="25.332172997295856">
        <ele>-0.34</ele>
        <time>2017-06-26T12:53:33Z</time>
      </trkpt>
      <trkpt lat="70.627934988588095" lon="25.332234017550945">
        <ele>-1.3</ele>
        <time>2017-06-26T12:53:34Z</time>
      </trkpt>
      <trkpt lat="70.627765003591776" lon="25.332353040575981">
        <ele>-1.79</ele>
        <time>2017-06-26T12:53:35Z</time>
      </trkpt>
      <trkpt lat="70.627598036080599" lon="25.332544986158609">
        <ele>-2.75</ele>
        <time>2017-06-26T12:53:36Z</time>
      </trkpt>
      <trkpt lat="70.627425033599138" lon="25.332795018330216">
        <ele>-3.23</ele>
        <time>2017-06-26T12:53:37Z</time>
      </trkpt>
      <trkpt lat="70.627252031117678" lon="25.333098024129868">
        <ele>-3.71</ele>
        <time>2017-06-26T12:53:38Z</time>
      </trkpt>
      <trkpt lat="70.627085985615849" lon="25.333444029092789">
        <ele>-3.71</ele>
        <time>2017-06-26T12:53:39Z</time>
      </trkpt>
      <trkpt lat="70.626922035589814" lon="25.333832027390599">
        <ele>-4.19</ele>
        <time>2017-06-26T12:53:40Z</time>
      </trkpt>
      <trkpt lat="70.626621963456273" lon="25.334698967635632">
        <ele>-3.71</ele>
        <time>2017-06-26T12:53:42Z</time>
      </trkpt>
      <trkpt lat="70.626493971794844" lon="25.335187967866659">
        <ele>-3.71</ele>
        <time>2017-06-26T12:53:43Z</time>
      </trkpt>
      <trkpt lat="70.626392969861627" lon="25.335708986967802">
        <ele>-3.71</ele>
        <time>2017-06-26T12:53:44Z</time>
      </trkpt>
      <trkpt lat="70.626309989020228" lon="25.336235035210848">
        <ele>-3.71</ele>
        <time>2017-06-26T12:53:45Z</time>
      </trkpt>
      <trkpt lat="70.626245029270649" lon="25.336797963827848">
        <ele>-4.19</ele>
        <time>2017-06-26T12:53:46Z</time>
      </trkpt>
      <trkpt lat="70.626201024278998" lon="25.337374974042177">
        <ele>-4.67</ele>
        <time>2017-06-26T12:53:47Z</time>
      </trkpt>
      <trkpt lat="70.626178979873657" lon="25.337976040318608">
        <ele>-5.15</ele>
        <time>2017-06-26T12:53:48Z</time>
      </trkpt>
      <trkpt lat="70.626176968216896" lon="25.338581968098879">
        <ele>-5.15</ele>
        <time>2017-06-26T12:53:49Z</time>
      </trkpt>
      <trkpt lat="70.626197000965476" lon="25.339196026325226">
        <ele>-5.63</ele>
        <time>2017-06-26T12:53:50Z</time>
      </trkpt>
      <trkpt lat="70.626234970986843" lon="25.339818969368935">
        <ele>-6.11</ele>
        <time>2017-06-26T12:53:51Z</time>
      </trkpt>
      <trkpt lat="70.62629297375679" lon="25.340435961261392">
        <ele>-6.11</ele>
        <time>2017-06-26T12:53:52Z</time>
      </trkpt>
      <trkpt lat="70.626358017325401" lon="25.34105496481061">
        <ele>-6.59</ele>
        <time>2017-06-26T12:53:53Z</time>
      </trkpt>
      <trkpt lat="70.627127978950739" lon="25.347952013835311">
        <ele>-5.15</ele>
        <time>2017-06-26T12:54:04Z</time>
      </trkpt>
      <trkpt lat="70.627916967496276" lon="25.35254898481071">
        <ele>-4.19</ele>
        <time>2017-06-26T12:54:12Z</time>
      </trkpt>
      <trkpt lat="70.628318041563034" lon="25.355698987841606">
        <ele>-1.3</ele>
        <time>2017-06-26T12:54:18Z</time>
      </trkpt>
      <trkpt lat="70.628348970785737" lon="25.356105007231236">
        <ele>-0.34</ele>
        <time>2017-06-26T12:54:19Z</time>
      </trkpt>
      <trkpt lat="70.628361962735653" lon="25.356517983600497">
        <ele>0.14</ele>
        <time>2017-06-26T12:54:20Z</time>
      </trkpt>
      <trkpt lat="70.628426000475883" lon="25.359693970531225">
        <ele>-1.79</ele>
        <time>2017-06-26T12:54:28Z</time>
      </trkpt>
      <trkpt lat="70.628409991040826" lon="25.360035030171275">
        <ele>-1.79</ele>
        <time>2017-06-26T12:54:29Z</time>
      </trkpt>
      <trkpt lat="70.628375960513949" lon="25.360359996557236">
        <ele>-1.79</ele>
        <time>2017-06-26T12:54:30Z</time>
      </trkpt>
      <trkpt lat="70.628321981057525" lon="25.360650010406971">
        <ele>-1.79</ele>
        <time>2017-06-26T12:54:31Z</time>
      </trkpt>
      <trkpt lat="70.62824796885252" lon="25.36088696680963">
        <ele>-1.79</ele>
        <time>2017-06-26T12:54:32Z</time>
      </trkpt>
      <trkpt lat="70.628156019374728" lon="25.361060975119472">
        <ele>-1.79</ele>
        <time>2017-06-26T12:54:33Z</time>
      </trkpt>
      <trkpt lat="70.628046970814466" lon="25.361143033951521">
        <ele>-2.27</ele>
        <time>2017-06-26T12:54:34Z</time>
      </trkpt>
      <trkpt lat="70.627932976931334" lon="25.361146973446012">
        <ele>-2.27</ele>
        <time>2017-06-26T12:54:35Z</time>
      </trkpt>
      <trkpt lat="70.627815965563059" lon="25.361082013696432">
        <ele>-2.27</ele>
        <time>2017-06-26T12:54:36Z</time>
      </trkpt>
      <trkpt lat="70.627694008871913" lon="25.360951004549861">
        <ele>-2.75</ele>
        <time>2017-06-26T12:54:37Z</time>
      </trkpt>
      <trkpt lat="70.627573980018497" lon="25.3607780020684">
        <ele>-2.27</ele>
        <time>2017-06-26T12:54:38Z</time>
      </trkpt>
      <trkpt lat="70.626458013430238" lon="25.358514972031116">
        <ele>1.58</ele>
        <time>2017-06-26T12:54:46Z</time>
      </trkpt>
      <trkpt lat="70.624752966687083" lon="25.35529900342226">
        <ele>6.39</ele>
        <time>2017-06-26T12:54:56Z</time>
      </trkpt>
      <trkpt lat="70.623456034809351" lon="25.353361023589969">
        <ele>3.5</ele>
        <time>2017-06-26T12:55:04Z</time>
      </trkpt>
      <trkpt lat="70.622555986046791" lon="25.351074021309614">
        <ele>6.87</ele>
        <time>2017-06-26T12:55:10Z</time>
      </trkpt>
      <trkpt lat="70.621330970898271" lon="25.347620006650686">
        <ele>5.91</ele>
        <time>2017-06-26T12:55:18Z</time>
      </trkpt>
      <trkpt lat="70.619485024362803" lon="25.342506961897016">
        <ele>9.27</ele>
        <time>2017-06-26T12:55:29Z</time>
      </trkpt>
      <trkpt lat="70.618271995335817" lon="25.340277040377259">
        <ele>15.039999999999999</ele>
        <time>2017-06-26T12:55:36Z</time>
      </trkpt>
      <trkpt lat="70.617562970146537" lon="25.339184040203691">
        <ele>22.25</ele>
        <time>2017-06-26T12:55:42Z</time>
      </trkpt>
      <trkpt lat="70.617171032354236" lon="25.338525976985693">
        <ele>26.09</ele>
        <time>2017-06-26T12:55:48Z</time>
      </trkpt>
      <trkpt lat="70.617131972685456" lon="25.338385999202728">
        <ele>26.57</ele>
        <time>2017-06-26T12:55:49Z</time>
      </trkpt>
      <trkpt lat="70.617106994614005" lon="25.338246021419764">
        <ele>27.530000000000001</ele>
        <time>2017-06-26T12:55:50Z</time>
      </trkpt>
      <trkpt lat="70.596008989959955" lon="25.290804030373693">
        <ele>6.87</ele>
        <time>2017-06-26T12:58:37Z</time>
      </trkpt>
      <trkpt lat="70.595382023602724" lon="25.289078028872609">
        <ele>3.02</ele>
        <time>2017-06-26T12:58:42Z</time>
      </trkpt>
      <trkpt lat="70.595275992527604" lon="25.288675026968122">
        <ele>3.98</ele>
        <time>2017-06-26T12:58:43Z</time>
      </trkpt>
      <trkpt lat="70.595177002251148" lon="25.288228020071983">
        <ele>3.98</ele>
        <time>2017-06-26T12:58:44Z</time>
      </trkpt>
      <trkpt lat="70.594210987910628" lon="25.28386096470058">
        <ele>2.06</ele>
        <time>2017-06-26T12:58:53Z</time>
      </trkpt>
      <trkpt lat="70.593045987188816" lon="25.279722986742854">
        <ele>3.5</ele>
        <time>2017-06-26T12:59:02Z</time>
      </trkpt>
      <trkpt lat="70.592466965317726" lon="25.275100031867623">
        <ele>5.91</ele>
        <time>2017-06-26T12:59:10Z</time>
      </trkpt>
      <trkpt lat="70.591611005365849" lon="25.266875959932804">
        <ele>7.83</ele>
        <time>2017-06-26T12:59:23Z</time>
      </trkpt>
      <trkpt lat="70.59161301702261" lon="25.26628696359694">
        <ele>7.83</ele>
        <time>2017-06-26T12:59:24Z</time>
      </trkpt>
      <trkpt lat="70.59163698926568" lon="25.265704002231359">
        <ele>7.35</ele>
        <time>2017-06-26T12:59:25Z</time>
      </trkpt>
      <trkpt lat="70.591862965375185" lon="25.259456969797611">
        <ele>1.58</ele>
        <time>2017-06-26T12:59:35Z</time>
      </trkpt>
      <trkpt lat="70.591475972905755" lon="25.255055967718363">
        <ele>0.14</ele>
        <time>2017-06-26T12:59:42Z</time>
      </trkpt>
      <trkpt lat="70.590686984360218" lon="25.249958010390401">
        <ele>-0.34</ele>
        <time>2017-06-26T12:59:51Z</time>
      </trkpt>
      <trkpt lat="70.589778972789645" lon="25.245880968868732">
        <ele>-1.3</ele>
        <time>2017-06-26T12:59:59Z</time>
      </trkpt>
      <trkpt lat="70.58961602859199" lon="25.245480984449387">
        <ele>-1.3</ele>
        <time>2017-06-26T13:00:00Z</time>
      </trkpt>
      <trkpt lat="70.589441014453769" lon="25.24512299336493">
        <ele>-1.79</ele>
        <time>2017-06-26T13:00:01Z</time>
      </trkpt>
      <trkpt lat="70.589255020022392" lon="25.244786040857434">
        <ele>-1.79</ele>
        <time>2017-06-26T13:00:02Z</time>
      </trkpt>
      <trkpt lat="70.58905896730721" lon="25.24449996650219">
        <ele>-1.79</ele>
        <time>2017-06-26T13:00:03Z</time>
      </trkpt>
      <trkpt lat="70.588853023946285" lon="25.244283964857459">
        <ele>-1.79</ele>
        <time>2017-06-26T13:00:04Z</time>
      </trkpt>
      <trkpt lat="70.588646996766329" lon="25.244143987074494">
        <ele>-1.79</ele>
        <time>2017-06-26T13:00:05Z</time>
      </trkpt>
      <trkpt lat="70.588433006778359" lon="25.244083972647786">
        <ele>-1.79</ele>
        <time>2017-06-26T13:00:06Z</time>
      </trkpt>
      <trkpt lat="70.588218010962009" lon="25.244109034538269">
        <ele>-1.79</ele>
        <time>2017-06-26T13:00:07Z</time>
      </trkpt>
      <trkpt lat="70.588002009317279" lon="25.244202995672822">
        <ele>-1.3</ele>
        <time>2017-06-26T13:00:08Z</time>
      </trkpt>
      <trkpt lat="70.587792964652181" lon="25.24437197484076">
        <ele>-0.82</ele>
        <time>2017-06-26T13:00:09Z</time>
      </trkpt>
      <trkpt lat="70.587593978270888" lon="25.244618989527225">
        <ele>0.14</ele>
        <time>2017-06-26T13:00:10Z</time>
      </trkpt>
      <trkpt lat="70.58740496635437" lon="25.244945967569947">
        <ele>0.62</ele>
        <time>2017-06-26T13:00:11Z</time>
      </trkpt>
      <trkpt lat="70.587224001064897" lon="25.245318962261081">
        <ele>1.58</ele>
        <time>2017-06-26T13:00:12Z</time>
      </trkpt>
      <trkpt lat="70.587044041603804" lon="25.245718024671078">
        <ele>2.54</ele>
        <time>2017-06-26T13:00:13Z</time>
      </trkpt>
      <trkpt lat="70.58630601502955" lon="25.247021997347474">
        <ele>3.98</ele>
        <time>2017-06-26T13:00:17Z</time>
      </trkpt>
      <trkpt lat="70.586106022819877" lon="25.247218972072005">
        <ele>3.98</ele>
        <time>2017-06-26T13:00:18Z</time>
      </trkpt>
      <trkpt lat="70.585894966498017" lon="25.247331960126758">
        <ele>3.5</ele>
        <time>2017-06-26T13:00:19Z</time>
      </trkpt>
      <trkpt lat="70.585680976510048" lon="25.247366996482015">
        <ele>3.5</ele>
        <time>2017-06-26T13:00:20Z</time>
      </trkpt>
      <trkpt lat="70.585466986522079" lon="25.247345035895705">
        <ele>3.98</ele>
        <time>2017-06-26T13:00:21Z</time>
      </trkpt>
      <trkpt lat="70.585249979048967" lon="25.247288960963488">
        <ele>3.98</ele>
        <time>2017-06-26T13:00:22Z</time>
      </trkpt>
      <trkpt lat="70.58192303404212" lon="25.246480023488402">
        <ele>7.83</ele>
        <time>2017-06-26T13:00:37Z</time>
      </trkpt>
      <trkpt lat="70.580821987241507" lon="25.245999991893768">
        <ele>8.789999999999999</ele>
        <time>2017-06-26T13:00:42Z</time>
      </trkpt>
      <trkpt lat="70.580617971718311" lon="25.245777033269405">
        <ele>8.789999999999999</ele>
        <time>2017-06-26T13:00:43Z</time>
      </trkpt>
      <trkpt lat="70.578519981354475" lon="25.242830961942673">
        <ele>4.94</ele>
        <time>2017-06-26T13:00:53Z</time>
      </trkpt>
      <trkpt lat="70.577038982883096" lon="25.239076036959887">
        <ele>3.5</ele>
        <time>2017-06-26T13:01:01Z</time>
      </trkpt>
      <trkpt lat="70.576001973822713" lon="25.237768040969968">
        <ele>2.06</ele>
        <time>2017-06-26T13:01:06Z</time>
      </trkpt>
      <trkpt lat="70.575782032683492" lon="25.237651029601693">
        <ele>1.58</ele>
        <time>2017-06-26T13:01:07Z</time>
      </trkpt>
      <trkpt lat="70.574437994509935" lon="25.237815985456109">
        <ele>3.5</ele>
        <time>2017-06-26T13:01:13Z</time>
      </trkpt>
      <trkpt lat="70.574227022007108" lon="25.238024024292827">
        <ele>3.5</ele>
        <time>2017-06-26T13:01:14Z</time>
      </trkpt>
      <trkpt lat="70.574029041454196" lon="25.238279001787305">
        <ele>3.98</ele>
        <time>2017-06-26T13:01:15Z</time>
      </trkpt>
      <trkpt lat="70.573840029537678" lon="25.238579995930195">
        <ele>4.46</ele>
        <time>2017-06-26T13:01:16Z</time>
      </trkpt>
      <trkpt lat="70.572596993297338" lon="25.240648984909058">
        <ele>7.35</ele>
        <time>2017-06-26T13:01:23Z</time>
      </trkpt>
      <trkpt lat="70.572402030229568" lon="25.240790974348783">
        <ele>7.35</ele>
        <time>2017-06-26T13:01:24Z</time>
      </trkpt>
      <trkpt lat="70.572203965857625" lon="25.240853000432253">
        <ele>6.87</ele>
        <time>2017-06-26T13:01:25Z</time>
      </trkpt>
      <trkpt lat="70.572009002789855" lon="25.240832967683673">
        <ele>6.87</ele>
        <time>2017-06-26T13:01:26Z</time>
      </trkpt>
      <trkpt lat="70.571816973388195" lon="25.240724002942443">
        <ele>6.87</ele>
        <time>2017-06-26T13:01:27Z</time>
      </trkpt>
      <trkpt lat="70.571627039462328" lon="25.24054697714746">
        <ele>7.35</ele>
        <time>2017-06-26T13:01:28Z</time>
      </trkpt>
      <trkpt lat="70.57143903337419" lon="25.240313960239291">
        <ele>7.35</ele>
        <time>2017-06-26T13:01:29Z</time>
      </trkpt>
      <trkpt lat="70.571243986487389" lon="25.240050014108419">
        <ele>7.35</ele>
        <time>2017-06-26T13:01:30Z</time>
      </trkpt>
      <trkpt lat="70.569105008617043" lon="25.237007969990373">
        <ele>6.39</ele>
        <time>2017-06-26T13:01:40Z</time>
      </trkpt>
      <trkpt lat="70.567561984062195" lon="25.235486989840865">
        <ele>5.42</ele>
        <time>2017-06-26T13:01:47Z</time>
      </trkpt>
      <trkpt lat="70.567366015166044" lon="25.235179960727692">
        <ele>5.42</ele>
        <time>2017-06-26T13:01:48Z</time>
      </trkpt>
      <trkpt lat="70.567180020734668" lon="25.234817024320364">
        <ele>5.42</ele>
        <time>2017-06-26T13:01:49Z</time>
      </trkpt>
      <trkpt lat="70.566999977454543" lon="25.234403964132071">
        <ele>5.42</ele>
        <time>2017-06-26T13:01:50Z</time>
      </trkpt>
      <trkpt lat="70.565098961815238" lon="25.229080030694604">
        <ele>5.42</ele>
        <time>2017-06-26T13:02:01Z</time>
      </trkpt>
      <trkpt lat="70.563851986080408" lon="25.224611973389983">
        <ele>5.42</ele>
        <time>2017-06-26T13:02:09Z</time>
      </trkpt>
      <trkpt lat="70.56374897249043" lon="25.223995987325907">
        <ele>5.42</ele>
        <time>2017-06-26T13:02:10Z</time>
      </trkpt>
      <trkpt lat="70.56366297416389" lon="25.223354017361999">
        <ele>5.91</ele>
        <time>2017-06-26T13:02:11Z</time>
      </trkpt>
      <trkpt lat="70.562880020588636" lon="25.215310994535685">
        <ele>7.83</ele>
        <time>2017-06-26T13:02:23Z</time>
      </trkpt>
      <trkpt lat="70.562033029273152" lon="25.210228962823749">
        <ele>8.789999999999999</ele>
        <time>2017-06-26T13:02:31Z</time>
      </trkpt>
      <trkpt lat="70.560146011412144" lon="25.202939976006746">
        <ele>5.91</ele>
        <time>2017-06-26T13:02:43Z</time>
      </trkpt>
      <trkpt lat="70.55880599655211" lon="25.19635003991425">
        <ele>4.46</ele>
        <time>2017-06-26T13:02:53Z</time>
      </trkpt>
      <trkpt lat="70.55775498971343" lon="25.191339002922177">
        <ele>4.94</ele>
        <time>2017-06-26T13:03:01Z</time>
      </trkpt>
      <trkpt lat="70.556017002090812" lon="25.186104001477361">
        <ele>3.98</ele>
        <time>2017-06-26T13:03:11Z</time>
      </trkpt>
      <trkpt lat="70.554873961955309" lon="25.182231981307268">
        <ele>4.94</ele>
        <time>2017-06-26T13:03:18Z</time>
      </trkpt>
      <trkpt lat="70.553409978747368" lon="25.178528018295765">
        <ele>4.46</ele>
        <time>2017-06-26T13:03:26Z</time>
      </trkpt>
      <trkpt lat="70.551490020006895" lon="25.175805995240808">
        <ele>4.46</ele>
        <time>2017-06-26T13:03:35Z</time>
      </trkpt>
      <trkpt lat="70.550014972686768" lon="25.171809000894427">
        <ele>3.98</ele>
        <time>2017-06-26T13:03:43Z</time>
      </trkpt>
      <trkpt lat="70.54825896397233" lon="25.165881989523768">
        <ele>3.5</ele>
        <time>2017-06-26T13:03:53Z</time>
      </trkpt>
      <trkpt lat="70.544923972338438" lon="25.155881959944963">
        <ele>3.98</ele>
        <time>2017-06-26T13:04:11Z</time>
      </trkpt>
      <trkpt lat="70.543540036305785" lon="25.150290979072452">
        <ele>3.02</ele>
        <time>2017-06-26T13:04:20Z</time>
      </trkpt>
      <trkpt lat="70.542811984196305" lon="25.146562959998846">
        <ele>2.54</ele>
        <time>2017-06-26T13:04:26Z</time>
      </trkpt>
      <trkpt lat="70.54264803417027" lon="25.14607597142458">
        <ele>2.54</ele>
        <time>2017-06-26T13:04:27Z</time>
      </trkpt>
      <trkpt lat="70.542464973405004" lon="25.145655032247305">
        <ele>2.06</ele>
        <time>2017-06-26T13:04:28Z</time>
      </trkpt>
      <trkpt lat="70.542272021993995" lon="25.145287988707423">
        <ele>2.06</ele>
        <time>2017-06-26T13:04:29Z</time>
      </trkpt>
      <trkpt lat="70.542070018127561" lon="25.144974002614617">
        <ele>2.06</ele>
        <time>2017-06-26T13:04:30Z</time>
      </trkpt>
      <trkpt lat="70.541863990947604" lon="25.144687006250024">
        <ele>1.58</ele>
        <time>2017-06-26T13:04:31Z</time>
      </trkpt>
      <trkpt lat="70.541655030101538" lon="25.144450971856713">
        <ele>1.58</ele>
        <time>2017-06-26T13:04:32Z</time>
      </trkpt>
      <trkpt lat="70.541449002921581" lon="25.144244022667408">
        <ele>1.1</ele>
        <time>2017-06-26T13:04:33Z</time>
      </trkpt>
      <trkpt lat="70.541067039594054" lon="25.143783017992973">
        <ele>1.1</ele>
        <time>2017-06-26T13:04:35Z</time>
      </trkpt>
      <trkpt lat="70.540896970778704" lon="25.143447993323207">
        <ele>1.1</ele>
        <time>2017-06-26T13:04:36Z</time>
      </trkpt>
      <trkpt lat="70.540741989389062" lon="25.143043985590339">
        <ele>1.58</ele>
        <time>2017-06-26T13:04:37Z</time>
      </trkpt>
      <trkpt lat="70.540595976635814" lon="25.142583986744285">
        <ele>2.06</ele>
        <time>2017-06-26T13:04:38Z</time>
      </trkpt>
      <trkpt lat="70.540451975539327" lon="25.142085012048483">
        <ele>2.06</ele>
        <time>2017-06-26T13:04:39Z</time>
      </trkpt>
      <trkpt lat="70.539649995043874" lon="25.13962903060019">
        <ele>2.54</ele>
        <time>2017-06-26T13:04:44Z</time>
      </trkpt>
      <trkpt lat="70.539464000612497" lon="25.13928797096014">
        <ele>3.02</ele>
        <time>2017-06-26T13:04:45Z</time>
      </trkpt>
      <trkpt lat="70.539272977039218" lon="25.139017989858985">
        <ele>3.5</ele>
        <time>2017-06-26T13:04:46Z</time>
      </trkpt>
      <trkpt lat="70.537690976634622" lon="25.136997029185295">
        <ele>1.1</ele>
        <time>2017-06-26T13:04:54Z</time>
      </trkpt>
      <trkpt lat="70.53751403465867" lon="25.136660998687148">
        <ele>1.1</ele>
        <time>2017-06-26T13:04:55Z</time>
      </trkpt>
      <trkpt lat="70.537354024127126" lon="25.136271994560957">
        <ele>1.1</ele>
        <time>2017-06-26T13:04:56Z</time>
      </trkpt>
      <trkpt lat="70.53721496835351" lon="25.135819036513567">
        <ele>1.1</ele>
        <time>2017-06-26T13:04:57Z</time>
      </trkpt>
      <trkpt lat="70.537100974470377" lon="25.135312015190721">
        <ele>1.58</ele>
        <time>2017-06-26T13:04:58Z</time>
      </trkpt>
      <trkpt lat="70.537013970315456" lon="25.134757971391082">
        <ele>2.06</ele>
        <time>2017-06-26T13:04:59Z</time>
      </trkpt>
      <trkpt lat="70.536946998909116" lon="25.134167969226837">
        <ele>2.54</ele>
        <time>2017-06-26T13:05:00Z</time>
      </trkpt>
      <trkpt lat="70.536894025281072" lon="25.133548965677619">
        <ele>2.54</ele>
        <time>2017-06-26T13:05:01Z</time>
      </trkpt>
      <trkpt lat="70.536481970921159" lon="25.128557961434126">
        <ele>-3.71</ele>
        <time>2017-06-26T13:05:08Z</time>
      </trkpt>
      <trkpt lat="70.535761965438724" lon="25.123671982437372">
        <ele>-3.71</ele>
        <time>2017-06-26T13:05:15Z</time>
      </trkpt>
      <trkpt lat="70.535678984597325" lon="25.123012997210026">
        <ele>-3.71</ele>
        <time>2017-06-26T13:05:16Z</time>
      </trkpt>
      <trkpt lat="70.535622993484139" lon="25.122368009760976">
        <ele>-3.23</ele>
        <time>2017-06-26T13:05:17Z</time>
      </trkpt>
      <trkpt lat="70.535593992099166" lon="25.121713969856501">
        <ele>-2.75</ele>
        <time>2017-06-26T13:05:18Z</time>
      </trkpt>
      <trkpt lat="70.535588040947914" lon="25.121051967144012">
        <ele>-2.27</ele>
        <time>2017-06-26T13:05:19Z</time>
      </trkpt>
      <trkpt lat="70.535597009584308" lon="25.120385019108653">
        <ele>-2.27</ele>
        <time>2017-06-26T13:05:20Z</time>
      </trkpt>
      <trkpt lat="70.53556096740067" lon="25.114995958283544">
        <ele>2.06</ele>
        <time>2017-06-26T13:05:28Z</time>
      </trkpt>
      <trkpt lat="70.535199958831072" lon="25.111151011660695">
        <ele>-0.82</ele>
        <time>2017-06-26T13:05:34Z</time>
      </trkpt>
      <trkpt lat="70.535097029060125" lon="25.110610965639353">
        <ele>-2.27</ele>
        <time>2017-06-26T13:05:35Z</time>
      </trkpt>
      <trkpt lat="70.534968031570315" lon="25.110124982893467">
        <ele>-3.23</ele>
        <time>2017-06-26T13:05:36Z</time>
      </trkpt>
      <trkpt lat="70.534821012988687" lon="25.109672024846077">
        <ele>-3.71</ele>
        <time>2017-06-26T13:05:37Z</time>
      </trkpt>
      <trkpt lat="70.53465697914362" lon="25.109245972707868">
        <ele>-4.19</ele>
        <time>2017-06-26T13:05:38Z</time>
      </trkpt>
      <trkpt lat="70.534480959177017" lon="25.108860991895199">
        <ele>-4.19</ele>
        <time>2017-06-26T13:05:39Z</time>
      </trkpt>
      <trkpt lat="70.534296976402402" lon="25.108494032174349">
        <ele>-4.67</ele>
        <time>2017-06-26T13:05:40Z</time>
      </trkpt>
      <trkpt lat="70.533751985058188" lon="25.107373958453536">
        <ele>-4.67</ele>
        <time>2017-06-26T13:05:43Z</time>
      </trkpt>
      <trkpt lat="70.53360597230494" lon="25.106944972649217">
        <ele>-4.67</ele>
        <time>2017-06-26T13:05:44Z</time>
      </trkpt>
      <trkpt lat="70.533493990078568" lon="25.106474999338388">
        <ele>-4.19</ele>
        <time>2017-06-26T13:05:45Z</time>
      </trkpt>
      <trkpt lat="70.533413020893931" lon="25.105977030470967">
        <ele>-4.67</ele>
        <time>2017-06-26T13:05:46Z</time>
      </trkpt>
      <trkpt lat="70.5333680100739" lon="25.105458023026586">
        <ele>-4.19</ele>
        <time>2017-06-26T13:05:47Z</time>
      </trkpt>
      <trkpt lat="70.533350994810462" lon="25.104915965348482">
        <ele>-4.19</ele>
        <time>2017-06-26T13:05:48Z</time>
      </trkpt>
      <trkpt lat="70.533353006467223" lon="25.104353036731482">
        <ele>-4.19</ele>
        <time>2017-06-26T13:05:49Z</time>
      </trkpt>
      <trkpt lat="70.533344959840178" lon="25.103202033787966">
        <ele>-4.19</ele>
        <time>2017-06-26T13:05:51Z</time>
      </trkpt>
      <trkpt lat="70.533314030617476" lon="25.102623011916876">
        <ele>-4.19</ele>
        <time>2017-06-26T13:05:52Z</time>
      </trkpt>
      <trkpt lat="70.533256027847528" lon="25.10205396451056">
        <ele>-4.19</ele>
        <time>2017-06-26T13:05:53Z</time>
      </trkpt>
      <trkpt lat="70.53317598067224" lon="25.101511990651488">
        <ele>-3.71</ele>
        <time>2017-06-26T13:05:54Z</time>
      </trkpt>
      <trkpt lat="70.533075984567404" lon="25.100997006520629">
        <ele>-3.71</ele>
        <time>2017-06-26T13:05:55Z</time>
      </trkpt>
      <trkpt lat="70.532957967370749" lon="25.100519992411137">
        <ele>-4.19</ele>
        <time>2017-06-26T13:05:56Z</time>
      </trkpt>
      <trkpt lat="70.5328309815377" lon="25.100063011050224">
        <ele>-4.19</ele>
        <time>2017-06-26T13:05:57Z</time>
      </trkpt>
      <trkpt lat="70.531037002801895" lon="25.094938986003399">
        <ele>-2.75</ele>
        <time>2017-06-26T13:06:09Z</time>
      </trkpt>
      <trkpt lat="70.529202958568931" lon="25.092166000977159">
        <ele>-5.15</ele>
        <time>2017-06-26T13:06:19Z</time>
      </trkpt>
      <trkpt lat="70.529022999107838" lon="25.09199702180922">
        <ele>-5.63</ele>
        <time>2017-06-26T13:06:20Z</time>
      </trkpt>
      <trkpt lat="70.528843961656094" lon="25.091909011825919">
        <ele>-5.63</ele>
        <time>2017-06-26T13:06:21Z</time>
      </trkpt>
      <trkpt lat="70.52866299636662" lon="25.09191102348268">
        <ele>-6.11</ele>
        <time>2017-06-26T13:06:22Z</time>
      </trkpt>
      <trkpt lat="70.528481025248766" lon="25.091990986838937">
        <ele>-6.11</ele>
        <time>2017-06-26T13:06:23Z</time>
      </trkpt>
      <trkpt lat="70.528295030817389" lon="25.092152003198862">
        <ele>-5.63</ele>
        <time>2017-06-26T13:06:24Z</time>
      </trkpt>
      <trkpt lat="70.528108030557632" lon="25.092364987358451">
        <ele>-5.15</ele>
        <time>2017-06-26T13:06:25Z</time>
      </trkpt>
      <trkpt lat="70.52793100476265" lon="25.092607978731394">
        <ele>-4.67</ele>
        <time>2017-06-26T13:06:26Z</time>
      </trkpt>
      <trkpt lat="70.527752973139286" lon="25.092863962054253">
        <ele>-4.67</ele>
        <time>2017-06-26T13:06:27Z</time>
      </trkpt>
      <trkpt lat="70.527220973744988" lon="25.093476008623838">
        <ele>-3.71</ele>
        <time>2017-06-26T13:06:30Z</time>
      </trkpt>
      <trkpt lat="70.527049982920289" lon="25.093556977808475">
        <ele>-3.71</ele>
        <time>2017-06-26T13:06:31Z</time>
      </trkpt>
      <trkpt lat="70.526883015409112" lon="25.093547003343701">
        <ele>-3.23</ele>
        <time>2017-06-26T13:06:32Z</time>
      </trkpt>
      <trkpt lat="70.5267299618572" lon="25.093447007238865">
        <ele>-3.23</ele>
        <time>2017-06-26T13:06:33Z</time>
      </trkpt>
      <trkpt lat="70.526587972417474" lon="25.093265036121011">
        <ele>-2.75</ele>
        <time>2017-06-26T13:06:34Z</time>
      </trkpt>
      <trkpt lat="70.526467021554708" lon="25.093002011999488">
        <ele>-2.75</ele>
        <time>2017-06-26T13:06:35Z</time>
      </trkpt>
      <trkpt lat="70.526361996307969" lon="25.092671010643244">
        <ele>-2.75</ele>
        <time>2017-06-26T13:06:36Z</time>
      </trkpt>
      <trkpt lat="70.526281027123332" lon="25.092283012345433">
        <ele>-2.75</ele>
        <time>2017-06-26T13:06:37Z</time>
      </trkpt>
      <trkpt lat="70.526217995211482" lon="25.091853020712733">
        <ele>-2.75</ele>
        <time>2017-06-26T13:06:38Z</time>
      </trkpt>
      <trkpt lat="70.526172984391451" lon="25.091385981068015">
        <ele>-2.75</ele>
        <time>2017-06-26T13:06:39Z</time>
      </trkpt>
      <trkpt lat="70.526136020198464" lon="25.090910978615284">
        <ele>-3.23</ele>
        <time>2017-06-26T13:06:40Z</time>
      </trkpt>
      <trkpt lat="70.526107018813491" lon="25.090417033061385">
        <ele>-3.23</ele>
        <time>2017-06-26T13:06:41Z</time>
      </trkpt>
      <trkpt lat="70.526009034365416" lon="25.088396994397044">
        <ele>-3.71</ele>
        <time>2017-06-26T13:06:45Z</time>
      </trkpt>
      <trkpt lat="70.525948014110327" lon="25.087926015257835">
        <ele>-3.23</ele>
        <time>2017-06-26T13:06:46Z</time>
      </trkpt>
      <trkpt lat="70.525867966935039" lon="25.087479008361697">
        <ele>-2.75</ele>
        <time>2017-06-26T13:06:47Z</time>
      </trkpt>
      <trkpt lat="70.525768976658583" lon="25.087054967880249">
        <ele>-2.27</ele>
        <time>2017-06-26T13:06:48Z</time>
      </trkpt>
      <trkpt lat="70.52565598860383" lon="25.086665963754058">
        <ele>-2.27</ele>
        <time>2017-06-26T13:06:49Z</time>
      </trkpt>
      <trkpt lat="70.525535037741065" lon="25.086280982941389">
        <ele>-1.79</ele>
        <time>2017-06-26T13:06:50Z</time>
      </trkpt>
      <trkpt lat="70.524196028709412" lon="25.082955965772271">
        <ele>-5.15</ele>
        <time>2017-06-26T13:06:59Z</time>
      </trkpt>
      <trkpt lat="70.522261988371611" lon="25.079379994422197">
        <ele>-2.27</ele>
        <time>2017-06-26T13:07:10Z</time>
      </trkpt>
      <trkpt lat="70.520639000460505" lon="25.077454000711441">
        <ele>-4.19</ele>
        <time>2017-06-26T13:07:19Z</time>
      </trkpt>
      <trkpt lat="70.518635977059603" lon="25.077141020447016">
        <ele>-3.71</ele>
        <time>2017-06-26T13:07:30Z</time>
      </trkpt>
      <trkpt lat="70.518458029255271" lon="25.07702199742198">
        <ele>-3.23</ele>
        <time>2017-06-26T13:07:31Z</time>
      </trkpt>
      <trkpt lat="70.518282009288669" lon="25.076847989112139">
        <ele>-2.75</ele>
        <time>2017-06-26T13:07:32Z</time>
      </trkpt>
      <trkpt lat="70.518115041777492" lon="25.076626958325505">
        <ele>-2.27</ele>
        <time>2017-06-26T13:07:33Z</time>
      </trkpt>
      <trkpt lat="70.517953019589186" lon="25.076347002759576">
        <ele>-1.79</ele>
        <time>2017-06-26T13:07:34Z</time>
      </trkpt>
      <trkpt lat="70.517800971865654" lon="25.076042991131544">
        <ele>-1.3</ele>
        <time>2017-06-26T13:07:35Z</time>
      </trkpt>
      <trkpt lat="70.517651019617915" lon="25.075706038624048">
        <ele>-0.34</ele>
        <time>2017-06-26T13:07:36Z</time>
      </trkpt>
      <trkpt lat="70.515654031187296" lon="25.07128500379622">
        <ele>0.62</ele>
        <time>2017-06-26T13:07:50Z</time>
      </trkpt>
      <trkpt lat="70.513717979192734" lon="25.067701991647482">
        <ele>0.62</ele>
        <time>2017-06-26T13:08:01Z</time>
      </trkpt>
      <trkpt lat="70.511029986664653" lon="25.063933990895748">
        <ele>-0.34</ele>
        <time>2017-06-26T13:08:13Z</time>
      </trkpt>
      <trkpt lat="70.506981024518609" lon="25.057808998972178">
        <ele>4.46</ele>
        <time>2017-06-26T13:08:31Z</time>
      </trkpt>
      <trkpt lat="70.503978962078691" lon="25.051934039220214">
        <ele>2.54</ele>
        <time>2017-06-26T13:08:46Z</time>
      </trkpt>
      <trkpt lat="70.503522986546159" lon="25.050668958574533">
        <ele>0.14</ele>
        <time>2017-06-26T13:08:49Z</time>
      </trkpt>
      <trkpt lat="70.503401029855013" lon="25.050189010798931">
        <ele>-0.34</ele>
        <time>2017-06-26T13:08:50Z</time>
      </trkpt>
      <trkpt lat="70.503294998779893" lon="25.049680983647704">
        <ele>-1.3</ele>
        <time>2017-06-26T13:08:51Z</time>
      </trkpt>
      <trkpt lat="70.503202965483069" lon="25.049148984253407">
        <ele>-1.79</ele>
        <time>2017-06-26T13:08:52Z</time>
      </trkpt>
      <trkpt lat="70.503123002126813" lon="25.048583038151264">
        <ele>-2.75</ele>
        <time>2017-06-26T13:08:53Z</time>
      </trkpt>
      <trkpt lat="70.50305200740695" lon="25.048004016280174">
        <ele>-3.23</ele>
        <time>2017-06-26T13:08:54Z</time>
      </trkpt>
      <trkpt lat="70.502379024401307" lon="25.042298035696149">
        <ele>-4.19</ele>
        <time>2017-06-26T13:09:04Z</time>
      </trkpt>
      <trkpt lat="70.502277016639709" lon="25.041851028800011">
        <ele>-4.19</ele>
        <time>2017-06-26T13:09:05Z</time>
      </trkpt>
      <trkpt lat="70.502156987786293" lon="25.04144199192524">
        <ele>-4.19</ele>
        <time>2017-06-26T13:09:06Z</time>
      </trkpt>
      <trkpt lat="70.502023966982961" lon="25.041074026376009">
        <ele>-4.19</ele>
        <time>2017-06-26T13:09:07Z</time>
      </trkpt>
      <trkpt lat="70.501873008906841" lon="25.040727015584707">
        <ele>-4.67</ele>
        <time>2017-06-26T13:09:08Z</time>
      </trkpt>
      <trkpt lat="70.501712998375297" lon="25.04041001200676">
        <ele>-4.67</ele>
        <time>2017-06-26T13:09:09Z</time>
      </trkpt>
      <trkpt lat="70.500392010435462" lon="25.03884200938046">
        <ele>-4.19</ele>
        <time>2017-06-26T13:09:16Z</time>
      </trkpt>
      <trkpt lat="70.500185983255506" lon="25.038790041580796">
        <ele>-3.71</ele>
        <time>2017-06-26T13:09:17Z</time>
      </trkpt>
      <trkpt lat="70.499980039894581" lon="25.038796998560429">
        <ele>-3.23</ele>
        <time>2017-06-26T13:09:18Z</time>
      </trkpt>
      <trkpt lat="70.499769989401102" lon="25.038844021037221">
        <ele>-2.75</ele>
        <time>2017-06-26T13:09:19Z</time>
      </trkpt>
      <trkpt lat="70.499558011069894" lon="25.038934964686632">
        <ele>-2.27</ele>
        <time>2017-06-26T13:09:20Z</time>
      </trkpt>
      <trkpt lat="70.496522001922131" lon="25.040063001215458">
        <ele>15.52</ele>
        <time>2017-06-26T13:09:34Z</time>
      </trkpt>
      <trkpt lat="70.494661973789334" lon="25.041337972506881">
        <ele>20.32</ele>
        <time>2017-06-26T13:09:43Z</time>
      </trkpt>
      <trkpt lat="70.494484025985003" lon="25.041668973863125">
        <ele>20.809999999999999</ele>
        <time>2017-06-26T13:09:44Z</time>
      </trkpt>
      <trkpt lat="70.494314040988684" lon="25.042040040716529">
        <ele>21.289999999999999</ele>
        <time>2017-06-26T13:09:45Z</time>
      </trkpt>
      <trkpt lat="70.492703039199114" lon="25.046504996716976">
        <ele>26.57</ele>
        <time>2017-06-26T13:09:55Z</time>
      </trkpt>
      <trkpt lat="70.491074016317725" lon="25.05038196220994">
        <ele>26.57</ele>
        <time>2017-06-26T13:10:05Z</time>
      </trkpt>
      <trkpt lat="70.489142993465066" lon="25.052927965298295">
        <ele>20.32</ele>
        <time>2017-06-26T13:10:15Z</time>
      </trkpt>
      <trkpt lat="70.486892033368349" lon="25.05502101033926">
        <ele>9.75</ele>
        <time>2017-06-26T13:10:26Z</time>
      </trkpt>
      <trkpt lat="70.48616599291563" lon="25.055746966972947">
        <ele>6.39</ele>
        <time>2017-06-26T13:10:30Z</time>
      </trkpt>
      <trkpt lat="70.486018974334002" lon="25.056010996922851">
        <ele>5.42</ele>
        <time>2017-06-26T13:10:31Z</time>
      </trkpt>
      <trkpt lat="70.485889976844192" lon="25.056326994672418">
        <ele>4.46</ele>
        <time>2017-06-26T13:10:32Z</time>
      </trkpt>
      <trkpt lat="70.485782017931342" lon="25.056699989363551">
        <ele>3.5</ele>
        <time>2017-06-26T13:10:33Z</time>
      </trkpt>
      <trkpt lat="70.485690990462899" lon="25.057113971561193">
        <ele>2.54</ele>
        <time>2017-06-26T13:10:34Z</time>
      </trkpt>
      <trkpt lat="70.485623013228178" lon="25.057571036741138">
        <ele>1.58</ele>
        <time>2017-06-26T13:10:35Z</time>
      </trkpt>
      <trkpt lat="70.485574984923005" lon="25.058065988123417">
        <ele>1.1</ele>
        <time>2017-06-26T13:10:36Z</time>
      </trkpt>
      <trkpt lat="70.485555035993457" lon="25.058579966425896">
        <ele>0.62</ele>
        <time>2017-06-26T13:10:37Z</time>
      </trkpt>
      <trkpt lat="70.485557969659567" lon="25.059106014668941">
        <ele>0.62</ele>
        <time>2017-06-26T13:10:38Z</time>
      </trkpt>
      <trkpt lat="70.48558596521616" lon="25.059633990749717">
        <ele>1.1</ele>
        <time>2017-06-26T13:10:39Z</time>
      </trkpt>
      <trkpt lat="70.485639022663236" lon="25.060146963223815">
        <ele>0.62</ele>
        <time>2017-06-26T13:10:40Z</time>
      </trkpt>
      <trkpt lat="70.485709011554718" lon="25.060660019516945">
        <ele>1.1</ele>
        <time>2017-06-26T13:10:41Z</time>
      </trkpt>
      <trkpt lat="70.486291972920299" lon="25.065868031233549">
        <ele>4.94</ele>
        <time>2017-06-26T13:10:51Z</time>
      </trkpt>
      <trkpt lat="70.48629499040544" lon="25.066412016749382">
        <ele>5.42</ele>
        <time>2017-06-26T13:10:52Z</time>
      </trkpt>
      <trkpt lat="70.486275041475892" lon="25.066950973123312">
        <ele>5.42</ele>
        <time>2017-06-26T13:10:53Z</time>
      </trkpt>
      <trkpt lat="70.486234975978732" lon="25.067469980567694">
        <ele>5.42</ele>
        <time>2017-06-26T13:10:54Z</time>
      </trkpt>
      <trkpt lat="70.486169010400772" lon="25.06795302964747">
        <ele>5.42</ele>
        <time>2017-06-26T13:10:55Z</time>
      </trkpt>
      <trkpt lat="70.486086029559374" lon="25.068400036543608">
        <ele>5.42</ele>
        <time>2017-06-26T13:10:56Z</time>
      </trkpt>
      <trkpt lat="70.48597396351397" lon="25.068808989599347">
        <ele>4.94</ele>
        <time>2017-06-26T13:10:57Z</time>
      </trkpt>
      <trkpt lat="70.48584396019578" lon="25.069173015654087">
        <ele>4.94</ele>
        <time>2017-06-26T13:10:58Z</time>
      </trkpt>
      <trkpt lat="70.485702976584435" lon="25.069516003131866">
        <ele>4.46</ele>
        <time>2017-06-26T13:10:59Z</time>
      </trkpt>
      <trkpt lat="70.485556041821837" lon="25.069842981174588">
        <ele>4.46</ele>
        <time>2017-06-26T13:11:00Z</time>
      </trkpt>
      <trkpt lat="70.485281031578779" lon="25.070578996092081">
        <ele>4.94</ele>
        <time>2017-06-26T13:11:02Z</time>
      </trkpt>
      <trkpt lat="70.485167959704995" lon="25.071008987724781">
        <ele>5.42</ele>
        <time>2017-06-26T13:11:03Z</time>
      </trkpt>
      <trkpt lat="70.485076010227203" lon="25.07147703319788">
        <ele>5.42</ele>
        <time>2017-06-26T13:11:04Z</time>
      </trkpt>
      <trkpt lat="70.484995963051915" lon="25.071967961266637">
        <ele>5.91</ele>
        <time>2017-06-26T13:11:05Z</time>
      </trkpt>
      <trkpt lat="70.484923040494323" lon="25.072474982589483">
        <ele>5.91</ele>
        <time>2017-06-26T13:11:06Z</time>
      </trkpt>
      <trkpt lat="70.484540993347764" lon="25.075079994276166">
        <ele>5.91</ele>
        <time>2017-06-26T13:11:11Z</time>
      </trkpt>
      <trkpt lat="70.484423981979489" lon="25.075525995343924">
        <ele>5.91</ele>
        <time>2017-06-26T13:11:12Z</time>
      </trkpt>
      <trkpt lat="70.484287021681666" lon="25.075925979763269">
        <ele>5.91</ele>
        <time>2017-06-26T13:11:13Z</time>
      </trkpt>
      <trkpt lat="70.484133968129754" lon="25.076276008039713">
        <ele>6.39</ele>
        <time>2017-06-26T13:11:14Z</time>
      </trkpt>
      <trkpt lat="70.483973035588861" lon="25.076565016061068">
        <ele>6.39</ele>
        <time>2017-06-26T13:11:15Z</time>
      </trkpt>
      <trkpt lat="70.483801960945129" lon="25.076788980513811">
        <ele>6.39</ele>
        <time>2017-06-26T13:11:16Z</time>
      </trkpt>
      <trkpt lat="70.483620995655656" lon="25.076943039894104">
        <ele>6.39</ele>
        <time>2017-06-26T13:11:17Z</time>
      </trkpt>
      <trkpt lat="70.483428966253996" lon="25.077048987150192">
        <ele>6.87</ele>
        <time>2017-06-26T13:11:18Z</time>
      </trkpt>
      <trkpt lat="70.483234003186226" lon="25.077101038768888">
        <ele>6.87</ele>
        <time>2017-06-26T13:11:19Z</time>
      </trkpt>
      <trkpt lat="70.483037028461695" lon="25.077080000191927">
        <ele>6.87</ele>
        <time>2017-06-26T13:11:20Z</time>
      </trkpt>
      <trkpt lat="70.482847010716796" lon="25.076988972723484">
        <ele>6.87</ele>
        <time>2017-06-26T13:11:21Z</time>
      </trkpt>
      <trkpt lat="70.482659004628658" lon="25.076828962191939">
        <ele>6.87</ele>
        <time>2017-06-26T13:11:22Z</time>
      </trkpt>
      <trkpt lat="70.482478039339185" lon="25.076596029102802">
        <ele>6.87</ele>
        <time>2017-06-26T13:11:23Z</time>
      </trkpt>
      <trkpt lat="70.482304031029344" lon="25.076301991939545">
        <ele>6.87</ele>
        <time>2017-06-26T13:11:24Z</time>
      </trkpt>
      <trkpt lat="70.482139997184277" lon="25.075957998633385">
        <ele>6.87</ele>
        <time>2017-06-26T13:11:25Z</time>
      </trkpt>
      <trkpt lat="70.481987027451396" lon="25.075559020042419">
        <ele>5.91</ele>
        <time>2017-06-26T13:11:26Z</time>
      </trkpt>
      <trkpt lat="70.48184403218329" lon="25.075114024803042">
        <ele>5.91</ele>
        <time>2017-06-26T13:11:27Z</time>
      </trkpt>
      <trkpt lat="70.48171604052186" lon="25.074625024572015">
        <ele>5.42</ele>
        <time>2017-06-26T13:11:28Z</time>
      </trkpt>
      <trkpt lat="70.481592994183302" lon="25.074104005470872">
        <ele>4.46</ele>
        <time>2017-06-26T13:11:29Z</time>
      </trkpt>
      <trkpt lat="70.480138985440135" lon="25.06808202713728">
        <ele>3.98</ele>
        <time>2017-06-26T13:11:41Z</time>
      </trkpt>
      <trkpt lat="70.480003030970693" lon="25.067757982760668">
        <ele>3.98</ele>
        <time>2017-06-26T13:11:42Z</time>
      </trkpt>
      <trkpt lat="70.479854000732303" lon="25.06748397834599">
        <ele>3.5</ele>
        <time>2017-06-26T13:11:43Z</time>
      </trkpt>
      <trkpt lat="70.479691978543997" lon="25.067241992801428">
        <ele>3.02</ele>
        <time>2017-06-26T13:11:44Z</time>
      </trkpt>
      <trkpt lat="70.479522999376059" lon="25.067039988934994">
        <ele>1.58</ele>
        <time>2017-06-26T13:11:45Z</time>
      </trkpt>
      <trkpt lat="70.47935402020812" lon="25.066875033080578">
        <ele>0.62</ele>
        <time>2017-06-26T13:11:46Z</time>
      </trkpt>
      <trkpt lat="70.479185963049531" lon="25.066760033369064">
        <ele>-0.82</ele>
        <time>2017-06-26T13:11:47Z</time>
      </trkpt>
      <trkpt lat="70.479023018851876" lon="25.066699013113976">
        <ele>-1.79</ele>
        <time>2017-06-26T13:11:48Z</time>
      </trkpt>
      <trkpt lat="70.478868037462234" lon="25.066697001457214">
        <ele>-2.75</ele>
        <time>2017-06-26T13:11:49Z</time>
      </trkpt>
      <trkpt lat="70.478716995567083" lon="25.066743018105626">
        <ele>-3.71</ele>
        <time>2017-06-26T13:11:50Z</time>
      </trkpt>
      <trkpt lat="70.478566037490964" lon="25.06681895814836">
        <ele>-3.71</ele>
        <time>2017-06-26T13:11:51Z</time>
      </trkpt>
      <trkpt lat="70.476683964952826" lon="25.068455021828413">
        <ele>-5.15</ele>
        <time>2017-06-26T13:12:04Z</time>
      </trkpt>
      <trkpt lat="70.474404003471136" lon="25.070815030485392">
        <ele>-5.63</ele>
        <time>2017-06-26T13:12:20Z</time>
      </trkpt>
      <trkpt lat="70.473967976868153" lon="25.071234963834286">
        <ele>-6.11</ele>
        <time>2017-06-26T13:12:24Z</time>
      </trkpt>
      <trkpt lat="70.473894970491529" lon="25.071246027946472">
        <ele>-6.11</ele>
        <time>2017-06-26T13:12:25Z</time>
      </trkpt>
      <trkpt lat="70.473833028227091" lon="25.071203028783202">
        <ele>-6.11</ele>
        <time>2017-06-26T13:12:26Z</time>
      </trkpt>
      <trkpt lat="70.473779970780015" lon="25.071089034900069">
        <ele>-6.11</ele>
        <time>2017-06-26T13:12:27Z</time>
      </trkpt>
      <trkpt lat="70.473738983273506" lon="25.07089801132679">
        <ele>-5.63</ele>
        <time>2017-06-26T13:12:28Z</time>
      </trkpt>
      <trkpt lat="70.473709981888533" lon="25.070642028003931">
        <ele>-5.63</ele>
        <time>2017-06-26T13:12:29Z</time>
      </trkpt>
      <trkpt lat="70.473690032958984" lon="25.070327958092093">
        <ele>-5.63</ele>
        <time>2017-06-26T13:12:30Z</time>
      </trkpt>
      <trkpt lat="70.473673017695546" lon="25.069978013634682">
        <ele>-5.63</ele>
        <time>2017-06-26T13:12:31Z</time>
      </trkpt>
      <trkpt lat="70.473520969972014" lon="25.065964004024863">
        <ele>-3.23</ele>
        <time>2017-06-26T13:12:40Z</time>
      </trkpt>
      <trkpt lat="70.473437989130616" lon="25.06503202021122">
        <ele>-1.3</ele>
        <time>2017-06-26T13:12:42Z</time>
      </trkpt>
      <trkpt lat="70.473376968875527" lon="25.064598005264997">
        <ele>-0.82</ele>
        <time>2017-06-26T13:12:43Z</time>
      </trkpt>
      <trkpt lat="70.473300023004413" lon="25.064189974218607">
        <ele>0.14</ele>
        <time>2017-06-26T13:12:44Z</time>
      </trkpt>
      <trkpt lat="70.473211007192731" lon="25.063816979527473">
        <ele>1.1</ele>
        <time>2017-06-26T13:12:45Z</time>
      </trkpt>
      <trkpt lat="70.473111011087894" lon="25.063490001484752">
        <ele>1.58</ele>
        <time>2017-06-26T13:12:46Z</time>
      </trkpt>
      <trkpt lat="70.472998023033142" lon="25.063172997906804">
        <ele>2.06</ele>
        <time>2017-06-26T13:12:47Z</time>
      </trkpt>
      <trkpt lat="70.472549004480243" lon="25.061773974448442">
        <ele>4.94</ele>
        <time>2017-06-26T13:12:51Z</time>
      </trkpt>
      <trkpt lat="70.472469041123986" lon="25.061399973928928">
        <ele>5.42</ele>
        <time>2017-06-26T13:12:52Z</time>
      </trkpt>
      <trkpt lat="70.472411038354039" lon="25.061011975631118">
        <ele>5.91</ele>
        <time>2017-06-26T13:12:53Z</time>
      </trkpt>
      <trkpt lat="70.472382958978415" lon="25.060615008696914">
        <ele>6.87</ele>
        <time>2017-06-26T13:12:54Z</time>
      </trkpt>
      <trkpt lat="70.472385976463556" lon="25.060232961550355">
        <ele>7.35</ele>
        <time>2017-06-26T13:12:55Z</time>
      </trkpt>
      <trkpt lat="70.472420006990433" lon="25.059857033193111">
        <ele>7.83</ele>
        <time>2017-06-26T13:12:56Z</time>
      </trkpt>
      <trkpt lat="70.47247901558876" lon="25.059492001309991">
        <ele>8.310000000000001</ele>
        <time>2017-06-26T13:12:57Z</time>
      </trkpt>
      <trkpt lat="70.472560990601778" lon="25.059141973033547">
        <ele>10.23</ele>
        <time>2017-06-26T13:12:58Z</time>
      </trkpt>
      <trkpt lat="70.472654029726982" lon="25.058792028576136">
        <ele>11.19</ele>
        <time>2017-06-26T13:12:59Z</time>
      </trkpt>
      <trkpt lat="70.473728002980351" lon="25.055173980072141">
        <ele>23.690000000000001</ele>
        <time>2017-06-26T13:13:08Z</time>
      </trkpt>
      <trkpt lat="70.473956996574998" lon="25.054266974329948">
        <ele>26.09</ele>
        <time>2017-06-26T13:13:10Z</time>
      </trkpt>
      <trkpt lat="70.474049029871821" lon="25.053746961057186">
        <ele>27.050000000000001</ele>
        <time>2017-06-26T13:13:11Z</time>
      </trkpt>
      <trkpt lat="70.474122958257794" lon="25.053182020783424">
        <ele>28.5</ele>
        <time>2017-06-26T13:13:12Z</time>
      </trkpt>
      <trkpt lat="70.474172998219728" lon="25.052596963942051">
        <ele>29.940000000000001</ele>
        <time>2017-06-26T13:13:13Z</time>
      </trkpt>
      <trkpt lat="70.47419797629118" lon="25.052018025889993">
        <ele>30.899999999999999</ele>
        <time>2017-06-26T13:13:14Z</time>
      </trkpt>
      <trkpt lat="70.474195964634418" lon="25.051472028717399">
        <ele>31.859999999999999</ele>
        <time>2017-06-26T13:13:15Z</time>
      </trkpt>
      <trkpt lat="70.474166041240096" lon="25.050962995737791">
        <ele>32.82</ele>
        <time>2017-06-26T13:13:16Z</time>
      </trkpt>
      <trkpt lat="70.474105020985007" lon="25.050470978021622">
        <ele>34.259999999999998</ele>
        <time>2017-06-26T13:13:17Z</time>
      </trkpt>
      <trkpt lat="70.474022040143609" lon="25.050006033852696">
        <ele>35.229999999999997</ele>
        <time>2017-06-26T13:13:18Z</time>
      </trkpt>
      <trkpt lat="70.473910979926586" lon="25.049565983936191">
        <ele>35.710000000000001</ele>
        <time>2017-06-26T13:13:19Z</time>
      </trkpt>
      <trkpt lat="70.473777037113905" lon="25.049131968989968">
        <ele>36.189999999999998</ele>
        <time>2017-06-26T13:13:20Z</time>
      </trkpt>
      <trkpt lat="70.473633036017418" lon="25.048692002892494">
        <ele>36.670000000000002</ele>
        <time>2017-06-26T13:13:21Z</time>
      </trkpt>
      <trkpt lat="70.471964031457901" lon="25.043718013912439">
        <ele>36.670000000000002</ele>
        <time>2017-06-26T13:13:31Z</time>
      </trkpt>
      <trkpt lat="70.471069011837244" lon="25.040484024211764">
        <ele>35.710000000000001</ele>
        <time>2017-06-26T13:13:37Z</time>
      </trkpt>
      <trkpt lat="70.470973961055279" lon="25.039845993742347">
        <ele>35.710000000000001</ele>
        <time>2017-06-26T13:13:38Z</time>
      </trkpt>
      <trkpt lat="70.470896009355783" lon="25.039195977151394">
        <ele>35.229999999999997</ele>
        <time>2017-06-26T13:13:39Z</time>
      </trkpt>
      <trkpt lat="70.470838006585836" lon="25.038525005802512">
        <ele>35.229999999999997</ele>
        <time>2017-06-26T13:13:40Z</time>
      </trkpt>
      <trkpt lat="70.470794001594186" lon="25.037840036675334">
        <ele>34.740000000000002</ele>
        <time>2017-06-26T13:13:41Z</time>
      </trkpt>
      <trkpt lat="70.470762988552451" lon="25.037136040627956">
        <ele>33.780000000000001</ele>
        <time>2017-06-26T13:13:42Z</time>
      </trkpt>
      <trkpt lat="70.470765000209212" lon="25.030746012926102">
        <ele>33.780000000000001</ele>
        <time>2017-06-26T13:13:51Z</time>
      </trkpt>
      <trkpt lat="70.470806993544102" lon="25.02726199105382">
        <ele>35.710000000000001</ele>
        <time>2017-06-26T13:13:56Z</time>
      </trkpt>
      <trkpt lat="70.470772041007876" lon="25.026598982512951">
        <ele>35.710000000000001</ele>
        <time>2017-06-26T13:13:57Z</time>
      </trkpt>
      <trkpt lat="70.470714038237929" lon="25.025934968143702">
        <ele>36.189999999999998</ele>
        <time>2017-06-26T13:13:58Z</time>
      </trkpt>
      <trkpt lat="70.470230989158154" lon="25.019994964823127">
        <ele>40.030000000000001</ele>
        <time>2017-06-26T13:14:06Z</time>
      </trkpt>
      <trkpt lat="70.469435965642333" lon="25.008178995922208">
        <ele>45.32</ele>
        <time>2017-06-26T13:14:21Z</time>
      </trkpt>
      <trkpt lat="70.469292970374227" lon="24.999523004516959">
        <ele>44.359999999999999</ele>
        <time>2017-06-26T13:14:32Z</time>
      </trkpt>
      <trkpt lat="70.469344016164541" lon="24.994255984202027">
        <ele>46.280000000000001</ele>
        <time>2017-06-26T13:14:39Z</time>
      </trkpt>
      <trkpt lat="70.468939002603292" lon="24.987479969859123">
        <ele>49.159999999999997</ele>
        <time>2017-06-26T13:14:48Z</time>
      </trkpt>
      <trkpt lat="70.46888804063201" lon="24.98143301345408">
        <ele>54.450000000000003</ele>
        <time>2017-06-26T13:14:56Z</time>
      </trkpt>
      <trkpt lat="70.469257012009621" lon="24.972665039822459">
        <ele>73.200000000000003</ele>
        <time>2017-06-26T13:15:08Z</time>
      </trkpt>
      <trkpt lat="70.469270003959537" lon="24.964747997000813">
        <ele>87.140000000000001</ele>
        <time>2017-06-26T13:15:19Z</time>
      </trkpt>
      <trkpt lat="70.470083970576525" lon="24.95539496652782">
        <ele>107.31999999999999</ele>
        <time>2017-06-26T13:15:32Z</time>
      </trkpt>
      <trkpt lat="70.470807999372482" lon="24.946466982364655">
        <ele>128.94999999999999</ele>
        <time>2017-06-26T13:15:44Z</time>
      </trkpt>
      <trkpt lat="70.471982974559069" lon="24.935032976791263">
        <ele>144.81999999999999</ele>
        <time>2017-06-26T13:15:59Z</time>
      </trkpt>
      <trkpt lat="70.472267037257552" lon="24.9288609623909">
        <ele>155.38999999999999</ele>
        <time>2017-06-26T13:16:07Z</time>
      </trkpt>
      <trkpt lat="70.472804987803102" lon="24.923085998743773">
        <ele>169.81</ele>
        <time>2017-06-26T13:16:15Z</time>
      </trkpt>
      <trkpt lat="70.474414983764291" lon="24.913809997960925">
        <ele>190</ele>
        <time>2017-06-26T13:16:28Z</time>
      </trkpt>
      <trkpt lat="70.476596038788557" lon="24.90122901275754">
        <ele>200.09</ele>
        <time>2017-06-26T13:16:45Z</time>
      </trkpt>
      <trkpt lat="70.4786660335958" lon="24.889123030006886">
        <ele>189.52000000000001</ele>
        <time>2017-06-26T13:17:01Z</time>
      </trkpt>
      <trkpt lat="70.479438006877899" lon="24.882911033928394">
        <ele>179.90000000000001</ele>
        <time>2017-06-26T13:17:09Z</time>
      </trkpt>
      <trkpt lat="70.479520987719297" lon="24.877041019499302">
        <ele>176.06</ele>
        <time>2017-06-26T13:17:16Z</time>
      </trkpt>
      <trkpt lat="70.479063000530005" lon="24.871379965916276">
        <ele>175.58000000000001</ele>
        <time>2017-06-26T13:17:23Z</time>
      </trkpt>
      <trkpt lat="70.478134034201503" lon="24.866414023563266">
        <ele>178.94</ele>
        <time>2017-06-26T13:17:30Z</time>
      </trkpt>
      <trkpt lat="70.475308997556567" lon="24.854022972285748">
        <ele>189.03999999999999</ele>
        <time>2017-06-26T13:17:49Z</time>
      </trkpt>
      <trkpt lat="70.473893964663148" lon="24.846280021592975">
        <ele>195.28</ele>
        <time>2017-06-26T13:18:00Z</time>
      </trkpt>
      <trkpt lat="70.472398968413472" lon="24.836631026118994">
        <ele>191.44</ele>
        <time>2017-06-26T13:18:12Z</time>
      </trkpt>
      <trkpt lat="70.470370966941118" lon="24.823468001559377">
        <ele>191.91999999999999</ele>
        <time>2017-06-26T13:18:28Z</time>
      </trkpt>
      <trkpt lat="70.468963980674744" lon="24.81612796895206">
        <ele>191.91999999999999</ele>
        <time>2017-06-26T13:18:38Z</time>
      </trkpt>
      <trkpt lat="70.466868001967669" lon="24.806085024029016">
        <ele>192.40000000000001</ele>
        <time>2017-06-26T13:18:52Z</time>
      </trkpt>
      <trkpt lat="70.466221002861857" lon="24.80020503513515">
        <ele>190.47999999999999</ele>
        <time>2017-06-26T13:18:59Z</time>
      </trkpt>
      <trkpt lat="70.46495801769197" lon="24.78832402266562">
        <ele>190</ele>
        <time>2017-06-26T13:19:13Z</time>
      </trkpt>
      <trkpt lat="70.462449984624982" lon="24.772137980908155">
        <ele>187.59</ele>
        <time>2017-06-26T13:19:33Z</time>
      </trkpt>
      <trkpt lat="70.459718992933631" lon="24.754476975649595">
        <ele>184.71000000000001</ele>
        <time>2017-06-26T13:19:55Z</time>
      </trkpt>
      <trkpt lat="70.458094999194145" lon="24.742663018405437">
        <ele>182.31</ele>
        <time>2017-06-26T13:20:10Z</time>
      </trkpt>
      <trkpt lat="70.45748102478683" lon="24.732011966407299">
        <ele>186.63</ele>
        <time>2017-06-26T13:20:23Z</time>
      </trkpt>
      <trkpt lat="70.457340963184834" lon="24.723800970241427">
        <ele>192.40000000000001</ele>
        <time>2017-06-26T13:20:33Z</time>
      </trkpt>
      <trkpt lat="70.456953970715404" lon="24.718249971047044">
        <ele>193.36000000000001</ele>
        <time>2017-06-26T13:20:40Z</time>
      </trkpt>
      <trkpt lat="70.456071021035314" lon="24.713013041764498">
        <ele>197.69</ele>
        <time>2017-06-26T13:20:47Z</time>
      </trkpt>
      <trkpt lat="70.452942978590727" lon="24.695206023752689">
        <ele>223.63999999999999</ele>
        <time>2017-06-26T13:21:11Z</time>
      </trkpt>
      <trkpt lat="70.451391991227865" lon="24.685118990018964">
        <ele>234.69999999999999</ele>
        <time>2017-06-26T13:21:24Z</time>
      </trkpt>
      <trkpt lat="70.449142958968878" lon="24.667035033926368">
        <ele>238.06</ele>
        <time>2017-06-26T13:21:46Z</time>
      </trkpt>
      <trkpt lat="70.447214031592011" lon="24.651539996266365">
        <ele>226.53</ele>
        <time>2017-06-26T13:22:05Z</time>
      </trkpt>
      <trkpt lat="70.445717023685575" lon="24.641024982556701">
        <ele>214.99000000000001</ele>
        <time>2017-06-26T13:22:18Z</time>
      </trkpt>
      <trkpt lat="70.443310998380184" lon="24.629697008058429">
        <ele>199.13</ele>
        <time>2017-06-26T13:22:33Z</time>
      </trkpt>
      <trkpt lat="70.442422013729811" lon="24.623315026983619">
        <ele>198.16999999999999</ele>
        <time>2017-06-26T13:22:41Z</time>
      </trkpt>
      <trkpt lat="70.441871993243694" lon="24.615641981363297">
        <ele>192.40000000000001</ele>
        <time>2017-06-26T13:22:50Z</time>
      </trkpt>
      <trkpt lat="70.440840013325214" lon="24.599055033177137">
        <ele>187.11000000000001</ele>
        <time>2017-06-26T13:23:09Z</time>
      </trkpt>
      <trkpt lat="70.439590020105243" lon="24.578706035390496">
        <ele>179.90000000000001</ele>
        <time>2017-06-26T13:23:32Z</time>
      </trkpt>
      <trkpt lat="70.438975961878896" lon="24.563569994643331">
        <ele>162.12</ele>
        <time>2017-06-26T13:23:49Z</time>
      </trkpt>
      <trkpt lat="70.438474975526333" lon="24.553756965324283">
        <ele>152.99000000000001</ele>
        <time>2017-06-26T13:24:01Z</time>
      </trkpt>
      <trkpt lat="70.437900982797146" lon="24.550236985087395">
        <ele>147.69999999999999</ele>
        <time>2017-06-26T13:24:07Z</time>
      </trkpt>
      <trkpt lat="70.436774035915732" lon="24.546828987076879">
        <ele>139.53</ele>
        <time>2017-06-26T13:24:14Z</time>
      </trkpt>
      <trkpt lat="70.435254983603954" lon="24.543462982401252">
        <ele>124.63</ele>
        <time>2017-06-26T13:24:22Z</time>
      </trkpt>
      <trkpt lat="70.434981985017657" lon="24.542537033557892">
        <ele>121.73999999999999</ele>
        <time>2017-06-26T13:24:24Z</time>
      </trkpt>
      <trkpt lat="70.434876037761569" lon="24.5420600194484">
        <ele>120.3</ele>
        <time>2017-06-26T13:24:25Z</time>
      </trkpt>
      <trkpt lat="70.434787021949887" lon="24.541560960933566">
        <ele>118.38</ele>
        <time>2017-06-26T13:24:26Z</time>
      </trkpt>
      <trkpt lat="70.434544030576944" lon="24.539970997720957">
        <ele>114.05</ele>
        <time>2017-06-26T13:24:29Z</time>
      </trkpt>
      <trkpt lat="70.434447973966599" lon="24.539547963067889">
        <ele>112.61</ele>
        <time>2017-06-26T13:24:30Z</time>
      </trkpt>
      <trkpt lat="70.43434102088213" lon="24.539201036095619">
        <ele>111.65000000000001</ele>
        <time>2017-06-26T13:24:31Z</time>
      </trkpt>
      <trkpt lat="70.434217974543571" lon="24.538908004760742">
        <ele>110.69</ele>
        <time>2017-06-26T13:24:32Z</time>
      </trkpt>
      <trkpt lat="70.43408302590251" lon="24.538597036153078">
        <ele>109.25</ele>
        <time>2017-06-26T13:24:33Z</time>
      </trkpt>
      <trkpt lat="70.433679018169641" lon="24.537445027381182">
        <ele>105.88</ele>
        <time>2017-06-26T13:24:36Z</time>
      </trkpt>
      <trkpt lat="70.433564018458128" lon="24.536961978301406">
        <ele>104.92</ele>
        <time>2017-06-26T13:24:37Z</time>
      </trkpt>
      <trkpt lat="70.433466034010053" lon="24.536439031362534">
        <ele>104.44</ele>
        <time>2017-06-26T13:24:38Z</time>
      </trkpt>
      <trkpt lat="70.432960018515587" lon="24.531901990994811">
        <ele>93.870000000000005</ele>
        <time>2017-06-26T13:24:46Z</time>
      </trkpt>
      <trkpt lat="70.432536983862519" lon="24.525472987443209">
        <ele>84.730000000000004</ele>
        <time>2017-06-26T13:24:57Z</time>
      </trkpt>
      <trkpt lat="70.43242902494967" lon="24.521733988076448">
        <ele>78.480000000000004</ele>
        <time>2017-06-26T13:25:03Z</time>
      </trkpt>
      <trkpt lat="70.432361969724298" lon="24.521124036982656">
        <ele>78</ele>
        <time>2017-06-26T13:25:04Z</time>
      </trkpt>
      <trkpt lat="70.432270020246506" lon="24.52053202316165">
        <ele>77.040000000000006</ele>
        <time>2017-06-26T13:25:05Z</time>
      </trkpt>
      <trkpt lat="70.432163989171386" lon="24.519961969926953">
        <ele>76.560000000000002</ele>
        <time>2017-06-26T13:25:06Z</time>
      </trkpt>
      <trkpt lat="70.432057036086917" lon="24.519418990239501">
        <ele>75.599999999999994</ele>
        <time>2017-06-26T13:25:07Z</time>
      </trkpt>
      <trkpt lat="70.431699967011809" lon="24.517299961298704">
        <ele>73.200000000000003</ele>
        <time>2017-06-26T13:25:11Z</time>
      </trkpt>
      <trkpt lat="70.431645987555385" lon="24.516754969954491">
        <ele>71.760000000000005</ele>
        <time>2017-06-26T13:25:12Z</time>
      </trkpt>
      <trkpt lat="70.431612962856889" lon="24.516187012195587">
        <ele>70.790000000000006</ele>
        <time>2017-06-26T13:25:13Z</time>
      </trkpt>
      <trkpt lat="70.431591002270579" lon="24.515597010031343">
        <ele>69.829999999999998</ele>
        <time>2017-06-26T13:25:14Z</time>
      </trkpt>
      <trkpt lat="70.431580021977425" lon="24.514994015917182">
        <ele>69.349999999999994</ele>
        <time>2017-06-26T13:25:15Z</time>
      </trkpt>
      <trkpt lat="70.431581027805805" lon="24.510558983311057">
        <ele>66.950000000000003</ele>
        <time>2017-06-26T13:25:23Z</time>
      </trkpt>
      <trkpt lat="70.43187296949327" lon="24.507118966430426">
        <ele>66.950000000000003</ele>
        <time>2017-06-26T13:25:32Z</time>
      </trkpt>
      <trkpt lat="70.432503037154675" lon="24.502835981547832">
        <ele>65.989999999999995</ele>
        <time>2017-06-26T13:25:44Z</time>
      </trkpt>
      <trkpt lat="70.433157999068499" lon="24.499581959098577">
        <ele>64.549999999999997</ele>
        <time>2017-06-26T13:25:52Z</time>
      </trkpt>
      <trkpt lat="70.434588035568595" lon="24.493972035124898">
        <ele>61.659999999999997</ele>
        <time>2017-06-26T13:26:03Z</time>
      </trkpt>
      <trkpt lat="70.436332980170846" lon="24.487891970202327">
        <ele>58.299999999999997</ele>
        <time>2017-06-26T13:26:14Z</time>
      </trkpt>
      <trkpt lat="70.437469985336065" lon="24.483074974268675">
        <ele>54.93</ele>
        <time>2017-06-26T13:26:22Z</time>
      </trkpt>
      <trkpt lat="70.438744034618139" lon="24.478000989183784">
        <ele>52.049999999999997</ele>
        <time>2017-06-26T13:26:31Z</time>
      </trkpt>
      <trkpt lat="70.440413039177656" lon="24.473989997059107">
        <ele>49.159999999999997</ele>
        <time>2017-06-26T13:26:42Z</time>
      </trkpt>
      <trkpt lat="70.441489024087787" lon="24.469960983842611">
        <ele>45.32</ele>
        <time>2017-06-26T13:26:51Z</time>
      </trkpt>
      <trkpt lat="70.442153960466385" lon="24.464989006519318">
        <ele>40.509999999999998</ele>
        <time>2017-06-26T13:27:00Z</time>
      </trkpt>
      <trkpt lat="70.442930040881038" lon="24.456261014565825">
        <ele>37.630000000000003</ele>
        <time>2017-06-26T13:27:15Z</time>
      </trkpt>
      <trkpt lat="70.443347962573171" lon="24.448541030287743">
        <ele>28.98</ele>
        <time>2017-06-26T13:27:27Z</time>
      </trkpt>
      <trkpt lat="70.443797986954451" lon="24.43994496949017">
        <ele>25.129999999999999</ele>
        <time>2017-06-26T13:27:39Z</time>
      </trkpt>
      <trkpt lat="70.444051036611199" lon="24.432709040120244">
        <ele>23.690000000000001</ele>
        <time>2017-06-26T13:27:49Z</time>
      </trkpt>
      <trkpt lat="70.444606002420187" lon="24.424154972657561">
        <ele>21.77</ele>
        <time>2017-06-26T13:28:01Z</time>
      </trkpt>
      <trkpt lat="70.445452993735671" lon="24.414287963882089">
        <ele>23.210000000000001</ele>
        <time>2017-06-26T13:28:15Z</time>
      </trkpt>
      <trkpt lat="70.446784039959311" lon="24.404993019998074">
        <ele>22.25</ele>
        <time>2017-06-26T13:28:28Z</time>
      </trkpt>
      <trkpt lat="70.44736398383975" lon="24.398005027323961">
        <ele>21.77</ele>
        <time>2017-06-26T13:28:37Z</time>
      </trkpt>
      <trkpt lat="70.447445958852768" lon="24.391970979049802">
        <ele>24.170000000000002</ele>
        <time>2017-06-26T13:28:45Z</time>
      </trkpt>
      <trkpt lat="70.447345962747931" lon="24.387016016989946">
        <ele>26.09</ele>
        <time>2017-06-26T13:28:52Z</time>
      </trkpt>
      <trkpt lat="70.447830017656088" lon="24.380307979881763">
        <ele>20.32</ele>
        <time>2017-06-26T13:29:01Z</time>
      </trkpt>
      <trkpt lat="70.448197983205318" lon="24.373125024139881">
        <ele>16.960000000000001</ele>
        <time>2017-06-26T13:29:10Z</time>
      </trkpt>
      <trkpt lat="70.449344962835312" lon="24.363227002322674">
        <ele>16.960000000000001</ele>
        <time>2017-06-26T13:29:23Z</time>
      </trkpt>
      <trkpt lat="70.449585020542145" lon="24.357755966484547">
        <ele>16</ele>
        <time>2017-06-26T13:29:30Z</time>
      </trkpt>
      <trkpt lat="70.449251001700759" lon="24.352652980014682">
        <ele>12.630000000000001</ele>
        <time>2017-06-26T13:29:37Z</time>
      </trkpt>
      <trkpt lat="70.448464024811983" lon="24.348076963797212">
        <ele>10.710000000000001</ele>
        <time>2017-06-26T13:29:44Z</time>
      </trkpt>
      <trkpt lat="70.445981975644827" lon="24.335962012410164">
        <ele>6.87</ele>
        <time>2017-06-26T13:30:04Z</time>
      </trkpt>
      <trkpt lat="70.445165997371078" lon="24.330766992643476">
        <ele>7.35</ele>
        <time>2017-06-26T13:30:13Z</time>
      </trkpt>
      <trkpt lat="70.445167003199458" lon="24.326570006087422">
        <ele>9.27</ele>
        <time>2017-06-26T13:30:19Z</time>
      </trkpt>
      <trkpt lat="70.44566597789526" lon="24.322230024263263">
        <ele>13.6</ele>
        <time>2017-06-26T13:30:25Z</time>
      </trkpt>
      <trkpt lat="70.445789024233818" lon="24.320847010239959">
        <ele>14.08</ele>
        <time>2017-06-26T13:30:27Z</time>
      </trkpt>
      <trkpt lat="70.445817019790411" lon="24.320145025849342">
        <ele>14.08</ele>
        <time>2017-06-26T13:30:28Z</time>
      </trkpt>
      <trkpt lat="70.445828000083566" lon="24.315833039581776">
        <ele>10.23</ele>
        <time>2017-06-26T13:30:35Z</time>
      </trkpt>
      <trkpt lat="70.44609303586185" lon="24.312440967187285">
        <ele>8.789999999999999</ele>
        <time>2017-06-26T13:30:42Z</time>
      </trkpt>
      <trkpt lat="70.446899961680174" lon="24.30815395899117">
        <ele>7.83</ele>
        <time>2017-06-26T13:30:53Z</time>
      </trkpt>
      <trkpt lat="70.447998996824026" lon="24.302830025553703">
        <ele>6.39</ele>
        <time>2017-06-26T13:31:04Z</time>
      </trkpt>
      <trkpt lat="70.449321996420622" lon="24.298880975693464">
        <ele>5.91</ele>
        <time>2017-06-26T13:31:12Z</time>
      </trkpt>
      <trkpt lat="70.451731039211154" lon="24.293591994792223">
        <ele>5.42</ele>
        <time>2017-06-26T13:31:25Z</time>
      </trkpt>
      <trkpt lat="70.45202499255538" lon="24.292805017903447">
        <ele>5.91</ele>
        <time>2017-06-26T13:31:27Z</time>
      </trkpt>
      <trkpt lat="70.452151978388429" lon="24.292340995743871">
        <ele>5.91</ele>
        <time>2017-06-26T13:31:28Z</time>
      </trkpt>
      <trkpt lat="70.452265972271562" lon="24.291817964985967">
        <ele>5.91</ele>
        <time>2017-06-26T13:31:29Z</time>
      </trkpt>
      <trkpt lat="70.452367980033159" lon="24.291254030540586">
        <ele>5.91</ele>
        <time>2017-06-26T13:31:30Z</time>
      </trkpt>
      <trkpt lat="70.452466970309615" lon="24.290661010891199">
        <ele>5.91</ele>
        <time>2017-06-26T13:31:31Z</time>
      </trkpt>
      <trkpt lat="70.453123021870852" lon="24.286609031260014">
        <ele>5.42</ele>
        <time>2017-06-26T13:31:39Z</time>
      </trkpt>
      <trkpt lat="70.453976970165968" lon="24.281913992017508">
        <ele>7.83</ele>
        <time>2017-06-26T13:31:51Z</time>
      </trkpt>
      <trkpt lat="70.454897973686457" lon="24.279174031689763">
        <ele>5.91</ele>
        <time>2017-06-26T13:32:00Z</time>
      </trkpt>
      <trkpt lat="70.456135980784893" lon="24.277598988264799">
        <ele>5.42</ele>
        <time>2017-06-26T13:32:09Z</time>
      </trkpt>
      <trkpt lat="70.457201991230249" lon="24.275355990976095">
        <ele>3.5</ele>
        <time>2017-06-26T13:32:16Z</time>
      </trkpt>
      <trkpt lat="70.459302999079227" lon="24.270155020058155">
        <ele>3.98</ele>
        <time>2017-06-26T13:32:28Z</time>
      </trkpt>
      <trkpt lat="70.46087896451354" lon="24.266657000407577">
        <ele>4.94</ele>
        <time>2017-06-26T13:32:37Z</time>
      </trkpt>
      <trkpt lat="70.461058001965284" lon="24.266460025683045">
        <ele>4.94</ele>
        <time>2017-06-26T13:32:38Z</time>
      </trkpt>
      <trkpt lat="70.461238967254758" lon="24.26632096990943">
        <ele>4.94</ele>
        <time>2017-06-26T13:32:39Z</time>
      </trkpt>
      <trkpt lat="70.461424039676785" lon="24.266228014603257">
        <ele>4.94</ele>
        <time>2017-06-26T13:32:40Z</time>
      </trkpt>
      <trkpt lat="70.461614979431033" lon="24.266199013218284">
        <ele>4.94</ele>
        <time>2017-06-26T13:32:41Z</time>
      </trkpt>
      <trkpt lat="70.461806003004313" lon="24.26623203791678">
        <ele>5.42</ele>
        <time>2017-06-26T13:32:42Z</time>
      </trkpt>
      <trkpt lat="70.461995014920831" lon="24.266319964081049">
        <ele>5.42</ele>
        <time>2017-06-26T13:32:43Z</time>
      </trkpt>
      <trkpt lat="70.462177991867065" lon="24.266465976834297">
        <ele>5.91</ele>
        <time>2017-06-26T13:32:44Z</time>
      </trkpt>
      <trkpt lat="70.46235803514719" lon="24.266646020114422">
        <ele>6.39</ele>
        <time>2017-06-26T13:32:45Z</time>
      </trkpt>
      <trkpt lat="70.462539000436664" lon="24.266865961253643">
        <ele>6.39</ele>
        <time>2017-06-26T13:32:46Z</time>
      </trkpt>
      <trkpt lat="70.464600026607513" lon="24.269574992358685">
        <ele>10.23</ele>
        <time>2017-06-26T13:32:57Z</time>
      </trkpt>
      <trkpt lat="70.464795995503664" lon="24.269653027877212">
        <ele>10.23</ele>
        <time>2017-06-26T13:32:58Z</time>
      </trkpt>
      <trkpt lat="70.464996993541718" lon="24.26967398263514">
        <ele>10.710000000000001</ele>
        <time>2017-06-26T13:32:59Z</time>
      </trkpt>
      <trkpt lat="70.465202014893293" lon="24.269653027877212">
        <ele>11.19</ele>
        <time>2017-06-26T13:33:00Z</time>
      </trkpt>
      <trkpt lat="70.465408964082599" lon="24.269594019278884">
        <ele>11.19</ele>
        <time>2017-06-26T13:33:01Z</time>
      </trkpt>
      <trkpt lat="70.46687101945281" lon="24.268797989934683">
        <ele>9.27</ele>
        <time>2017-06-26T13:33:08Z</time>
      </trkpt>
      <trkpt lat="70.467078974470496" lon="24.268786003813148">
        <ele>8.789999999999999</ele>
        <time>2017-06-26T13:33:09Z</time>
      </trkpt>
      <trkpt lat="70.467288019135594" lon="24.268851969391108">
        <ele>8.789999999999999</ele>
        <time>2017-06-26T13:33:10Z</time>
      </trkpt>
      <trkpt lat="70.46749304048717" lon="24.268989013507962">
        <ele>8.789999999999999</ele>
        <time>2017-06-26T13:33:11Z</time>
      </trkpt>
      <trkpt lat="70.467700995504856" lon="24.269182970747352">
        <ele>9.27</ele>
        <time>2017-06-26T13:33:12Z</time>
      </trkpt>
      <trkpt lat="70.46790299937129" lon="24.269427973777056">
        <ele>9.75</ele>
        <time>2017-06-26T13:33:13Z</time>
      </trkpt>
      <trkpt lat="70.468100979924202" lon="24.269724022597075">
        <ele>9.75</ele>
        <time>2017-06-26T13:33:14Z</time>
      </trkpt>
      <trkpt lat="70.469894036650658" lon="24.272416960448027">
        <ele>13.6</ele>
        <time>2017-06-26T13:33:23Z</time>
      </trkpt>
      <trkpt lat="70.470099980011582" lon="24.27252902649343">
        <ele>15.039999999999999</ele>
        <time>2017-06-26T13:33:24Z</time>
      </trkpt>
      <trkpt lat="70.470306007191539" lon="24.27257495932281">
        <ele>16</ele>
        <time>2017-06-26T13:33:25Z</time>
      </trkpt>
      <trkpt lat="70.470514968037605" lon="24.272554004564881">
        <ele>16.48</ele>
        <time>2017-06-26T13:33:26Z</time>
      </trkpt>
      <trkpt lat="70.47071797773242" lon="24.272479992359877">
        <ele>17.440000000000001</ele>
        <time>2017-06-26T13:33:27Z</time>
      </trkpt>
      <trkpt lat="70.470918975770473" lon="24.27235602401197">
        <ele>17.920000000000002</ele>
        <time>2017-06-26T13:33:28Z</time>
      </trkpt>
      <trkpt lat="70.471116034314036" lon="24.272169023752213">
        <ele>18.399999999999999</ele>
        <time>2017-06-26T13:33:29Z</time>
      </trkpt>
      <trkpt lat="70.471304040402174" lon="24.27192703820765">
        <ele>18.879999999999999</ele>
        <time>2017-06-26T13:33:30Z</time>
      </trkpt>
      <trkpt lat="70.471485005691648" lon="24.27162797190249">
        <ele>19.359999999999999</ele>
        <time>2017-06-26T13:33:31Z</time>
      </trkpt>
      <trkpt lat="70.471657002344728" lon="24.271274004131556">
        <ele>19.84</ele>
        <time>2017-06-26T13:33:32Z</time>
      </trkpt>
      <trkpt lat="70.471821958199143" lon="24.27087502554059">
        <ele>20.32</ele>
        <time>2017-06-26T13:33:33Z</time>
      </trkpt>
      <trkpt lat="70.471977023407817" lon="24.270429024472833">
        <ele>20.32</ele>
        <time>2017-06-26T13:33:34Z</time>
      </trkpt>
      <trkpt lat="70.472124963998795" lon="24.269957039505243">
        <ele>20.809999999999999</ele>
        <time>2017-06-26T13:33:35Z</time>
      </trkpt>
      <trkpt lat="70.473491968587041" lon="24.264332028105855">
        <ele>26.57</ele>
        <time>2017-06-26T13:33:46Z</time>
      </trkpt>
      <trkpt lat="70.473547959700227" lon="24.263717969879508">
        <ele>26.57</ele>
        <time>2017-06-26T13:33:47Z</time>
      </trkpt>
      <trkpt lat="70.473590036854148" lon="24.263081029057503">
        <ele>26.57</ele>
        <time>2017-06-26T13:33:48Z</time>
      </trkpt>
      <trkpt lat="70.473944004625082" lon="24.257743014022708">
        <ele>26.57</ele>
        <time>2017-06-26T13:33:56Z</time>
      </trkpt>
      <trkpt lat="70.474617993459105" lon="24.254540959373116">
        <ele>22.25</ele>
        <time>2017-06-26T13:34:02Z</time>
      </trkpt>
      <trkpt lat="70.475721973925829" lon="24.252185979858041">
        <ele>24.649999999999999</ele>
        <time>2017-06-26T13:34:08Z</time>
      </trkpt>
      <trkpt lat="70.476867025718093" lon="24.250384038314223">
        <ele>31.379999999999999</ele>
        <time>2017-06-26T13:34:14Z</time>
      </trkpt>
      <trkpt lat="70.477015972137451" lon="24.249996040016413">
        <ele>32.340000000000003</ele>
        <time>2017-06-26T13:34:15Z</time>
      </trkpt>
      <trkpt lat="70.477157961577177" lon="24.249565964564681">
        <ele>32.82</ele>
        <time>2017-06-26T13:34:16Z</time>
      </trkpt>
      <trkpt lat="70.477287964895368" lon="24.249084005132318">
        <ele>33.780000000000001</ele>
        <time>2017-06-26T13:34:17Z</time>
      </trkpt>
      <trkpt lat="70.477405982092023" lon="24.248563991859555">
        <ele>33.780000000000001</ele>
        <time>2017-06-26T13:34:18Z</time>
      </trkpt>
      <trkpt lat="70.477507989853621" lon="24.248002991080284">
        <ele>34.259999999999998</ele>
        <time>2017-06-26T13:34:19Z</time>
      </trkpt>
      <trkpt lat="70.477593988180161" lon="24.247403014451265">
        <ele>34.740000000000002</ele>
        <time>2017-06-26T13:34:20Z</time>
      </trkpt>
      <trkpt lat="70.477660959586501" lon="24.246779987588525">
        <ele>35.710000000000001</ele>
        <time>2017-06-26T13:34:21Z</time>
      </trkpt>
      <trkpt lat="70.477712005376816" lon="24.246147992089391">
        <ele>36.189999999999998</ele>
        <time>2017-06-26T13:34:22Z</time>
      </trkpt>
      <trkpt lat="70.477747041732073" lon="24.245511973276734">
        <ele>37.149999999999999</ele>
        <time>2017-06-26T13:34:23Z</time>
      </trkpt>
      <trkpt lat="70.477763973176479" lon="24.244871009141207">
        <ele>38.590000000000003</ele>
        <time>2017-06-26T13:34:24Z</time>
      </trkpt>
      <trkpt lat="70.477771013975143" lon="24.244215963408351">
        <ele>40.030000000000001</ele>
        <time>2017-06-26T13:34:25Z</time>
      </trkpt>
      <trkpt lat="70.477574961259961" lon="24.237590990960598">
        <ele>46.280000000000001</ele>
        <time>2017-06-26T13:34:35Z</time>
      </trkpt>
      <trkpt lat="70.477283019572496" lon="24.230420021340251">
        <ele>42.920000000000002</ele>
        <time>2017-06-26T13:34:45Z</time>
      </trkpt>
      <trkpt lat="70.477216970175505" lon="24.224561993032694">
        <ele>36.189999999999998</ele>
        <time>2017-06-26T13:34:54Z</time>
      </trkpt>
      <trkpt lat="70.477547971531749" lon="24.217694029211998">
        <ele>18.879999999999999</ele>
        <time>2017-06-26T13:35:06Z</time>
      </trkpt>
      <trkpt lat="70.477617960423231" lon="24.2171620298177">
        <ele>16.960000000000001</ele>
        <time>2017-06-26T13:35:07Z</time>
      </trkpt>
      <trkpt lat="70.477706976234913" lon="24.216646961867809">
        <ele>15.52</ele>
        <time>2017-06-26T13:35:08Z</time>
      </trkpt>
      <trkpt lat="70.477814013138413" lon="24.216156033799052">
        <ele>14.08</ele>
        <time>2017-06-26T13:35:09Z</time>
      </trkpt>
      <trkpt lat="70.477925995364785" lon="24.215705003589392">
        <ele>12.630000000000001</ele>
        <time>2017-06-26T13:35:10Z</time>
      </trkpt>
      <trkpt lat="70.479345973581076" lon="24.210100024938583">
        <ele>15.039999999999999</ele>
        <time>2017-06-26T13:35:23Z</time>
      </trkpt>
      <trkpt lat="70.480430005118251" lon="24.205411020666361">
        <ele>28.02</ele>
        <time>2017-06-26T13:35:33Z</time>
      </trkpt>
      <trkpt lat="70.480896038934588" lon="24.201181009411812">
        <ele>36.189999999999998</ele>
        <time>2017-06-26T13:35:41Z</time>
      </trkpt>
      <trkpt lat="70.481731966137886" lon="24.196193022653461">
        <ele>38.109999999999999</ele>
        <time>2017-06-26T13:35:50Z</time>
      </trkpt>
      <trkpt lat="70.482590021565557" lon="24.191355993971229">
        <ele>37.630000000000003</ele>
        <time>2017-06-26T13:35:58Z</time>
      </trkpt>
      <trkpt lat="70.483985021710396" lon="24.183400981128216">
        <ele>29.940000000000001</ele>
        <time>2017-06-26T13:36:10Z</time>
      </trkpt>
      <trkpt lat="70.484978025779128" lon="24.179413039237261">
        <ele>19.359999999999999</ele>
        <time>2017-06-26T13:36:17Z</time>
      </trkpt>
      <trkpt lat="70.486137997359037" lon="24.175126031041145">
        <ele>14.08</ele>
        <time>2017-06-26T13:36:25Z</time>
      </trkpt>
      <trkpt lat="70.486225001513958" lon="24.174548014998436">
        <ele>13.6</ele>
        <time>2017-06-26T13:36:26Z</time>
      </trkpt>
      <trkpt lat="70.48629398457706" lon="24.173942003399134">
        <ele>13.119999999999999</ele>
        <time>2017-06-26T13:36:27Z</time>
      </trkpt>
      <trkpt lat="70.486341007053852" lon="24.173312019556761">
        <ele>12.630000000000001</ele>
        <time>2017-06-26T13:36:28Z</time>
      </trkpt>
      <trkpt lat="70.486371014267206" lon="24.172660997137427">
        <ele>12.15</ele>
        <time>2017-06-26T13:36:29Z</time>
      </trkpt>
      <trkpt lat="70.486384006217122" lon="24.171996982768178">
        <ele>11.67</ele>
        <time>2017-06-26T13:36:30Z</time>
      </trkpt>
      <trkpt lat="70.486375037580729" lon="24.171345038339496">
        <ele>11.67</ele>
        <time>2017-06-26T13:36:31Z</time>
      </trkpt>
      <trkpt lat="70.486345030367374" lon="24.170679012313485">
        <ele>11.19</ele>
        <time>2017-06-26T13:36:32Z</time>
      </trkpt>
      <trkpt lat="70.48629398457706" lon="24.170021032914519">
        <ele>10.710000000000001</ele>
        <time>2017-06-26T13:36:33Z</time>
      </trkpt>
      <trkpt lat="70.486232964321971" lon="24.169348971918225">
        <ele>10.710000000000001</ele>
        <time>2017-06-26T13:36:34Z</time>
      </trkpt>
      <trkpt lat="70.485933981835842" lon="24.165199007838964">
        <ele>5.42</ele>
        <time>2017-06-26T13:36:40Z</time>
      </trkpt>
      <trkpt lat="70.485944962128997" lon="24.164512027055025">
        <ele>5.42</ele>
        <time>2017-06-26T13:36:41Z</time>
      </trkpt>
      <trkpt lat="70.485983015969396" lon="24.163847006857395">
        <ele>4.94</ele>
        <time>2017-06-26T13:36:42Z</time>
      </trkpt>
      <trkpt lat="70.486044036224484" lon="24.163195984438062">
        <ele>4.94</ele>
        <time>2017-06-26T13:36:43Z</time>
      </trkpt>
      <trkpt lat="70.48612299375236" lon="24.162554014474154">
        <ele>4.94</ele>
        <time>2017-06-26T13:36:44Z</time>
      </trkpt>
      <trkpt lat="70.486217038705945" lon="24.161919001489878">
        <ele>4.94</ele>
        <time>2017-06-26T13:36:45Z</time>
      </trkpt>
      <trkpt lat="70.48758203163743" lon="24.153877990320325">
        <ele>7.35</ele>
        <time>2017-06-26T13:36:57Z</time>
      </trkpt>
      <trkpt lat="70.488520972430706" lon="24.149504983797669">
        <ele>10.710000000000001</ele>
        <time>2017-06-26T13:37:04Z</time>
      </trkpt>
      <trkpt lat="70.488897990435362" lon="24.145053019747138">
        <ele>11.67</ele>
        <time>2017-06-26T13:37:10Z</time>
      </trkpt>
      <trkpt lat="70.489568039774895" lon="24.13979597389698">
        <ele>12.630000000000001</ele>
        <time>2017-06-26T13:37:17Z</time>
      </trkpt>
      <trkpt lat="70.490646958351135" lon="24.132127035409212">
        <ele>14.08</ele>
        <time>2017-06-26T13:37:28Z</time>
      </trkpt>
      <trkpt lat="70.491249030455947" lon="24.124779039993882">
        <ele>13.119999999999999</ele>
        <time>2017-06-26T13:37:39Z</time>
      </trkpt>
      <trkpt lat="70.491422032937407" lon="24.118018029257655">
        <ele>13.119999999999999</ele>
        <time>2017-06-26T13:37:49Z</time>
      </trkpt>
      <trkpt lat="70.491479029878974" lon="24.111770996823907">
        <ele>15.039999999999999</ele>
        <time>2017-06-26T13:37:59Z</time>
      </trkpt>
      <trkpt lat="70.491866022348404" lon="24.106656024232507">
        <ele>14.56</ele>
        <time>2017-06-26T13:38:07Z</time>
      </trkpt>
      <trkpt lat="70.492086969316006" lon="24.101064037531614">
        <ele>15.039999999999999</ele>
        <time>2017-06-26T13:38:16Z</time>
      </trkpt>
      <trkpt lat="70.492197023704648" lon="24.100097017362714">
        <ele>15.52</ele>
        <time>2017-06-26T13:38:18Z</time>
      </trkpt>
      <trkpt lat="70.492273969575763" lon="24.099640036001801">
        <ele>15.52</ele>
        <time>2017-06-26T13:38:19Z</time>
      </trkpt>
      <trkpt lat="70.492363991215825" lon="24.099196968600154">
        <ele>16</ele>
        <time>2017-06-26T13:38:20Z</time>
      </trkpt>
      <trkpt lat="70.492467004805803" lon="24.098772006109357">
        <ele>16</ele>
        <time>2017-06-26T13:38:21Z</time>
      </trkpt>
      <trkpt lat="70.492582004517317" lon="24.09837101586163">
        <ele>16</ele>
        <time>2017-06-26T13:38:22Z</time>
      </trkpt>
      <trkpt lat="70.492707984521985" lon="24.097991986200213">
        <ele>16</ele>
        <time>2017-06-26T13:38:23Z</time>
      </trkpt>
      <trkpt lat="70.492843016982079" lon="24.097625026479363">
        <ele>16</ele>
        <time>2017-06-26T13:38:24Z</time>
      </trkpt>
      <trkpt lat="70.494940001517534" lon="24.092536037787795">
        <ele>17.440000000000001</ele>
        <time>2017-06-26T13:38:38Z</time>
      </trkpt>
      <trkpt lat="70.496998010203242" lon="24.086979003623128">
        <ele>16.960000000000001</ele>
        <time>2017-06-26T13:38:53Z</time>
      </trkpt>
      <trkpt lat="70.497846007347107" lon="24.082987038418651">
        <ele>15.52</ele>
        <time>2017-06-26T13:39:02Z</time>
      </trkpt>
      <trkpt lat="70.49832402728498" lon="24.079667972400784">
        <ele>14.56</ele>
        <time>2017-06-26T13:39:10Z</time>
      </trkpt>
      <trkpt lat="70.499168001115322" lon="24.074008008465171">
        <ele>14.56</ele>
        <time>2017-06-26T13:39:25Z</time>
      </trkpt>
      <trkpt lat="70.500177014619112" lon="24.069162011146545">
        <ele>16</ele>
        <time>2017-06-26T13:39:35Z</time>
      </trkpt>
      <trkpt lat="70.50152700394392" lon="24.06487500295043">
        <ele>16.48</ele>
        <time>2017-06-26T13:39:45Z</time>
      </trkpt>
      <trkpt lat="70.504946988075972" lon="24.056053971871734">
        <ele>13.119999999999999</ele>
        <time>2017-06-26T13:40:09Z</time>
      </trkpt>
      <trkpt lat="70.506538040935993" lon="24.053532024845481">
        <ele>12.630000000000001</ele>
        <time>2017-06-26T13:40:19Z</time>
      </trkpt>
      <trkpt lat="70.508839963003993" lon="24.050203990191221">
        <ele>11.67</ele>
        <time>2017-06-26T13:40:32Z</time>
      </trkpt>
      <trkpt lat="70.510835023596883" lon="24.047924028709531">
        <ele>10.710000000000001</ele>
        <time>2017-06-26T13:40:42Z</time>
      </trkpt>
      <trkpt lat="70.511509012430906" lon="24.047235958278179">
        <ele>12.15</ele>
        <time>2017-06-26T13:40:46Z</time>
      </trkpt>
      <trkpt lat="70.511615965515375" lon="24.046942004933953">
        <ele>13.119999999999999</ele>
        <time>2017-06-26T13:40:47Z</time>
      </trkpt>
      <trkpt lat="70.511692995205522" lon="24.046586025506258">
        <ele>14.08</ele>
        <time>2017-06-26T13:40:48Z</time>
      </trkpt>
      <trkpt lat="70.511743035167456" lon="24.046197021380067">
        <ele>14.08</ele>
        <time>2017-06-26T13:40:49Z</time>
      </trkpt>
      <trkpt lat="70.511772958561778" lon="24.045741967856884">
        <ele>15.039999999999999</ele>
        <time>2017-06-26T13:40:50Z</time>
      </trkpt>
      <trkpt lat="70.511788967996836" lon="24.045269982889295">
        <ele>15.52</ele>
        <time>2017-06-26T13:40:51Z</time>
      </trkpt>
      <trkpt lat="70.511800032109022" lon="24.044760027900338">
        <ele>16.48</ele>
        <time>2017-06-26T13:40:52Z</time>
      </trkpt>
      <trkpt lat="70.511774970218539" lon="24.041646989062428">
        <ele>18.879999999999999</ele>
        <time>2017-06-26T13:40:58Z</time>
      </trkpt>
      <trkpt lat="70.511735994368792" lon="24.041195958852768">
        <ele>18.399999999999999</ele>
        <time>2017-06-26T13:40:59Z</time>
      </trkpt>
      <trkpt lat="70.511680003255606" lon="24.040755992755294">
        <ele>17.440000000000001</ele>
        <time>2017-06-26T13:41:00Z</time>
      </trkpt>
      <trkpt lat="70.511611020192504" lon="24.040305968374014">
        <ele>16</ele>
        <time>2017-06-26T13:41:01Z</time>
      </trkpt>
      <trkpt lat="70.511533990502357" lon="24.039870025590062">
        <ele>15.039999999999999</ele>
        <time>2017-06-26T13:41:02Z</time>
      </trkpt>
      <trkpt lat="70.511471964418888" lon="24.039412038400769">
        <ele>14.56</ele>
        <time>2017-06-26T13:41:03Z</time>
      </trkpt>
      <trkpt lat="70.511430976912379" lon="24.038949022069573">
        <ele>14.08</ele>
        <time>2017-06-26T13:41:04Z</time>
      </trkpt>
      <trkpt lat="70.511415973305702" lon="24.038489023223519">
        <ele>13.6</ele>
        <time>2017-06-26T13:41:05Z</time>
      </trkpt>
      <trkpt lat="70.511414967477322" lon="24.038037993013859">
        <ele>13.119999999999999</ele>
        <time>2017-06-26T13:41:06Z</time>
      </trkpt>
      <trkpt lat="70.511417984962463" lon="24.03758998028934">
        <ele>12.630000000000001</ele>
        <time>2017-06-26T13:41:07Z</time>
      </trkpt>
      <trkpt lat="70.511509012430906" lon="24.032436031848192">
        <ele>13.119999999999999</ele>
        <time>2017-06-26T13:41:20Z</time>
      </trkpt>
      <trkpt lat="70.511412033811212" lon="24.027247969061136">
        <ele>14.56</ele>
        <time>2017-06-26T13:41:32Z</time>
      </trkpt>
      <trkpt lat="70.510930996388197" lon="24.023919012397528">
        <ele>15.039999999999999</ele>
        <time>2017-06-26T13:41:40Z</time>
      </trkpt>
      <trkpt lat="70.510546015575528" lon="24.021607032045722">
        <ele>14.08</ele>
        <time>2017-06-26T13:41:46Z</time>
      </trkpt>
      <trkpt lat="70.510513996705413" lon="24.021214004606009">
        <ele>14.08</ele>
        <time>2017-06-26T13:41:47Z</time>
      </trkpt>
      <trkpt lat="70.510499998927116" lon="24.020803961902857">
        <ele>14.08</ele>
        <time>2017-06-26T13:41:48Z</time>
      </trkpt>
      <trkpt lat="70.510510979220271" lon="24.017108967527747">
        <ele>12.630000000000001</ele>
        <time>2017-06-26T13:41:56Z</time>
      </trkpt>
      <trkpt lat="70.510538974776864" lon="24.011927023530006">
        <ele>13.119999999999999</ele>
        <time>2017-06-26T13:42:09Z</time>
      </trkpt>
      <trkpt lat="70.510429004207253" lon="24.009178010746837">
        <ele>11.19</ele>
        <time>2017-06-26T13:42:16Z</time>
      </trkpt>
      <trkpt lat="70.509763984009624" lon="24.004485988989472">
        <ele>7.35</ele>
        <time>2017-06-26T13:42:27Z</time>
      </trkpt>
      <trkpt lat="70.508922021836042" lon="24.000338958576322">
        <ele>7.35</ele>
        <time>2017-06-26T13:42:38Z</time>
      </trkpt>
      <trkpt lat="70.507966987788677" lon="23.995425989851356">
        <ele>6.87</ele>
        <time>2017-06-26T13:42:52Z</time>
      </trkpt>
      <trkpt lat="70.507062999531627" lon="23.993271002545953">
        <ele>4.94</ele>
        <time>2017-06-26T13:43:00Z</time>
      </trkpt>
      <trkpt lat="70.505997994914651" lon="23.99051696062088">
        <ele>5.42</ele>
        <time>2017-06-26T13:43:10Z</time>
      </trkpt>
      <trkpt lat="70.504476008936763" lon="23.988061985000968">
        <ele>5.91</ele>
        <time>2017-06-26T13:43:22Z</time>
      </trkpt>
      <trkpt lat="70.502752019092441" lon="23.984887003898621">
        <ele>4.46</ele>
        <time>2017-06-26T13:43:36Z</time>
      </trkpt>
      <trkpt lat="70.502571975812316" lon="23.984323991462588">
        <ele>4.46</ele>
        <time>2017-06-26T13:43:38Z</time>
      </trkpt>
      <trkpt lat="70.502499975264072" lon="23.984000030905008">
        <ele>4.46</ele>
        <time>2017-06-26T13:43:39Z</time>
      </trkpt>
      <trkpt lat="70.502448007464409" lon="23.983653020113707">
        <ele>3.98</ele>
        <time>2017-06-26T13:43:40Z</time>
      </trkpt>
      <trkpt lat="70.502409031614661" lon="23.983281031250954">
        <ele>3.98</ele>
        <time>2017-06-26T13:43:41Z</time>
      </trkpt>
      <trkpt lat="70.502385981380939" lon="23.982899989932775">
        <ele>4.46</ele>
        <time>2017-06-26T13:43:42Z</time>
      </trkpt>
      <trkpt lat="70.502383969724178" lon="23.982512997463346">
        <ele>4.46</ele>
        <time>2017-06-26T13:43:43Z</time>
      </trkpt>
      <trkpt lat="70.502396961674094" lon="23.982132039964199">
        <ele>3.98</ele>
        <time>2017-06-26T13:43:44Z</time>
      </trkpt>
      <trkpt lat="70.502426968887448" lon="23.981753010302782">
        <ele>3.98</ele>
        <time>2017-06-26T13:43:45Z</time>
      </trkpt>
      <trkpt lat="70.502473991364241" lon="23.9813859667629">
        <ele>3.98</ele>
        <time>2017-06-26T13:43:46Z</time>
      </trkpt>
      <trkpt lat="70.502534005790949" lon="23.981035016477108">
        <ele>3.5</ele>
        <time>2017-06-26T13:43:47Z</time>
      </trkpt>
      <trkpt lat="70.502610029652715" lon="23.980712983757257">
        <ele>3.98</ele>
        <time>2017-06-26T13:43:48Z</time>
      </trkpt>
      <trkpt lat="70.502697033807635" lon="23.980410983785987">
        <ele>3.98</ele>
        <time>2017-06-26T13:43:49Z</time>
      </trkpt>
      <trkpt lat="70.502793006598949" lon="23.980133039876819">
        <ele>3.98</ele>
        <time>2017-06-26T13:43:50Z</time>
      </trkpt>
      <trkpt lat="70.502898031845689" lon="23.979884013533592">
        <ele>3.98</ele>
        <time>2017-06-26T13:43:51Z</time>
      </trkpt>
      <trkpt lat="70.503012025728822" lon="23.9796660002321">
        <ele>3.98</ele>
        <time>2017-06-26T13:43:52Z</time>
      </trkpt>
      <trkpt lat="70.503130964934826" lon="23.979462990537286">
        <ele>4.46</ele>
        <time>2017-06-26T13:43:53Z</time>
      </trkpt>
      <trkpt lat="70.503256022930145" lon="23.979284036904573">
        <ele>4.46</ele>
        <time>2017-06-26T13:43:54Z</time>
      </trkpt>
      <trkpt lat="70.503388037905097" lon="23.979113968089223">
        <ele>4.46</ele>
        <time>2017-06-26T13:43:55Z</time>
      </trkpt>
      <trkpt lat="70.505077997222543" lon="23.977425014600158">
        <ele>6.87</ele>
        <time>2017-06-26T13:44:08Z</time>
      </trkpt>
      <trkpt lat="70.507000973448157" lon="23.975492985919118">
        <ele>8.310000000000001</ele>
        <time>2017-06-26T13:44:22Z</time>
      </trkpt>
      <trkpt lat="70.508757987990975" lon="23.974804999306798">
        <ele>7.35</ele>
        <time>2017-06-26T13:44:34Z</time>
      </trkpt>
      <trkpt lat="70.509154032915831" lon="23.974622022360563">
        <ele>7.35</ele>
        <time>2017-06-26T13:44:37Z</time>
      </trkpt>
      <trkpt lat="70.509270038455725" lon="23.974500987678766">
        <ele>7.35</ele>
        <time>2017-06-26T13:44:38Z</time>
      </trkpt>
      <trkpt lat="70.509369028732181" lon="23.974312981590629">
        <ele>7.35</ele>
        <time>2017-06-26T13:44:39Z</time>
      </trkpt>
      <trkpt lat="70.509455027058721" lon="23.974064961075783">
        <ele>7.83</ele>
        <time>2017-06-26T13:44:40Z</time>
      </trkpt>
      <trkpt lat="70.509524010121822" lon="23.973773019388318">
        <ele>7.83</ele>
        <time>2017-06-26T13:44:41Z</time>
      </trkpt>
      <trkpt lat="70.509576983749866" lon="23.973443023860455">
        <ele>7.83</ele>
        <time>2017-06-26T13:44:42Z</time>
      </trkpt>
      <trkpt lat="70.509607996791601" lon="23.973104981705546">
        <ele>7.83</ele>
        <time>2017-06-26T13:44:43Z</time>
      </trkpt>
      <trkpt lat="70.509616965427995" lon="23.972765011712909">
        <ele>7.83</ele>
        <time>2017-06-26T13:44:44Z</time>
      </trkpt>
      <trkpt lat="70.509614031761885" lon="23.97242303006351">
        <ele>7.83</ele>
        <time>2017-06-26T13:44:45Z</time>
      </trkpt>
      <trkpt lat="70.509593999013305" lon="23.972080964595079">
        <ele>7.83</ele>
        <time>2017-06-26T13:44:46Z</time>
      </trkpt>
      <trkpt lat="70.509569020941854" lon="23.971744012087584">
        <ele>7.83</ele>
        <time>2017-06-26T13:44:47Z</time>
      </trkpt>
      <trkpt lat="70.509533984586596" lon="23.971403958275914">
        <ele>7.35</ele>
        <time>2017-06-26T13:44:48Z</time>
      </trkpt>
      <trkpt lat="70.509168030694127" lon="23.967923037707806">
        <ele>3.02</ele>
        <time>2017-06-26T13:45:00Z</time>
      </trkpt>
      <trkpt lat="70.509160989895463" lon="23.967765038833022">
        <ele>2.54</ele>
        <time>2017-06-26T13:45:01Z</time>
      </trkpt>
      <trkpt lat="70.509158978238702" lon="23.967650039121509">
        <ele>2.54</ele>
        <time>2017-06-26T13:45:02Z</time>
      </trkpt>
      <trkpt lat="70.509168030694127" lon="23.967577032744884">
        <ele>2.54</ele>
        <time>2017-06-26T13:45:03Z</time>
      </trkpt>
      <trkpt lat="70.509171970188618" lon="23.96752699278295">
        <ele>2.54</ele>
        <time>2017-06-26T13:45:04Z</time>
      </trkpt>
      <trkpt lat="70.509174987673759" lon="23.96752699278295">
        <ele>3.02</ele>
        <time>2017-06-26T13:45:23Z</time>
      </trkpt>
      <trkpt lat="70.50917599350214" lon="23.967451974749565">
        <ele>3.02</ele>
        <time>2017-06-26T13:45:53Z</time>
      </trkpt>
      <trkpt lat="70.509160989895463" lon="23.967345021665096">
        <ele>3.02</ele>
        <time>2017-06-26T13:45:54Z</time>
      </trkpt>
      <trkpt lat="70.509138023480773" lon="23.967230021953583">
        <ele>3.5</ele>
        <time>2017-06-26T13:45:55Z</time>
      </trkpt>
      <trkpt lat="70.509083038195968" lon="23.96664597094059">
        <ele>4.46</ele>
        <time>2017-06-26T13:45:58Z</time>
      </trkpt>
      <trkpt lat="70.50906996242702" lon="23.963907016441226">
        <ele>9.75</ele>
        <time>2017-06-26T13:46:06Z</time>
      </trkpt>
      <trkpt lat="70.509492997080088" lon="23.960268013179302">
        <ele>19.359999999999999</ele>
        <time>2017-06-26T13:46:14Z</time>
      </trkpt>
      <trkpt lat="70.509681003168225" lon="23.958650976419449">
        <ele>21.77</ele>
        <time>2017-06-26T13:46:18Z</time>
      </trkpt>
      <trkpt lat="70.509685026481748" lon="23.958257026970387">
        <ele>21.77</ele>
        <time>2017-06-26T13:46:19Z</time>
      </trkpt>
      <trkpt lat="70.509672034531832" lon="23.957862993702292">
        <ele>22.25</ele>
        <time>2017-06-26T13:46:20Z</time>
      </trkpt>
      <trkpt lat="70.509647978469729" lon="23.957467032596469">
        <ele>22.25</ele>
        <time>2017-06-26T13:46:21Z</time>
      </trkpt>
      <trkpt lat="70.509615037590265" lon="23.957069981843233">
        <ele>22.25</ele>
        <time>2017-06-26T13:46:22Z</time>
      </trkpt>
      <trkpt lat="70.509534990414977" lon="23.955998020246625">
        <ele>22.73</ele>
        <time>2017-06-26T13:46:25Z</time>
      </trkpt>
      <trkpt lat="70.509535996243358" lon="23.955694008618593">
        <ele>22.73</ele>
        <time>2017-06-26T13:46:26Z</time>
      </trkpt>
      <trkpt lat="70.509549994021654" lon="23.955416986718774">
        <ele>22.73</ele>
        <time>2017-06-26T13:46:27Z</time>
      </trkpt>
      <trkpt lat="70.509584024548531" lon="23.955153962597251">
        <ele>22.73</ele>
        <time>2017-06-26T13:46:28Z</time>
      </trkpt>
      <trkpt lat="70.509631969034672" lon="23.954905020073056">
        <ele>23.210000000000001</ele>
        <time>2017-06-26T13:46:29Z</time>
      </trkpt>
      <trkpt lat="70.509689971804619" lon="23.954693963751197">
        <ele>23.210000000000001</ele>
        <time>2017-06-26T13:46:30Z</time>
      </trkpt>
      <trkpt lat="70.50975501537323" lon="23.95450696349144">
        <ele>23.210000000000001</ele>
        <time>2017-06-26T13:46:31Z</time>
      </trkpt>
      <trkpt lat="70.509830033406615" lon="23.954363968223333">
        <ele>23.210000000000001</ele>
        <time>2017-06-26T13:46:32Z</time>
      </trkpt>
      <trkpt lat="70.509912008419633" lon="23.954236982390285">
        <ele>23.690000000000001</ele>
        <time>2017-06-26T13:46:33Z</time>
      </trkpt>
      <trkpt lat="70.510000018402934" lon="23.954133968800306">
        <ele>23.690000000000001</ele>
        <time>2017-06-26T13:46:34Z</time>
      </trkpt>
      <trkpt lat="70.510093979537487" lon="23.954052999615669">
        <ele>24.170000000000002</ele>
        <time>2017-06-26T13:46:35Z</time>
      </trkpt>
      <trkpt lat="70.510187018662691" lon="23.953964989632368">
        <ele>24.649999999999999</ele>
        <time>2017-06-26T13:46:36Z</time>
      </trkpt>
      <trkpt lat="70.511327963322401" lon="23.952852040529251">
        <ele>29.940000000000001</ele>
        <time>2017-06-26T13:46:46Z</time>
      </trkpt>
      <trkpt lat="70.513532990589738" lon="23.950735023245215">
        <ele>36.670000000000002</ele>
        <time>2017-06-26T13:47:01Z</time>
      </trkpt>
      <trkpt lat="70.514876022934914" lon="23.94937296397984">
        <ele>36.670000000000002</ele>
        <time>2017-06-26T13:47:11Z</time>
      </trkpt>
      <trkpt lat="70.515529979020357" lon="23.948668967932463">
        <ele>37.149999999999999</ele>
        <time>2017-06-26T13:47:17Z</time>
      </trkpt>
      <trkpt lat="70.515602985396981" lon="23.948502000421286">
        <ele>36.189999999999998</ele>
        <time>2017-06-26T13:47:18Z</time>
      </trkpt>
      <trkpt lat="70.51566400565207" lon="23.948285998776555">
        <ele>36.670000000000002</ele>
        <time>2017-06-26T13:47:19Z</time>
      </trkpt>
      <trkpt lat="70.515698036178946" lon="23.948021968826652">
        <ele>36.670000000000002</ele>
        <time>2017-06-26T13:47:20Z</time>
      </trkpt>
      <trkpt lat="70.515709016472101" lon="23.947713011875749">
        <ele>36.670000000000002</ele>
        <time>2017-06-26T13:47:21Z</time>
      </trkpt>
      <trkpt lat="70.515698036178946" lon="23.947385028004646">
        <ele>36.670000000000002</ele>
        <time>2017-06-26T13:47:22Z</time>
      </trkpt>
      <trkpt lat="70.515670040622354" lon="23.947036005556583">
        <ele>36.670000000000002</ele>
        <time>2017-06-26T13:47:23Z</time>
      </trkpt>
      <trkpt lat="70.515632992610335" lon="23.946671979501843">
        <ele>36.670000000000002</ele>
        <time>2017-06-26T13:47:24Z</time>
      </trkpt>
      <trkpt lat="70.515166958793998" lon="23.942805994302034">
        <ele>37.149999999999999</ele>
        <time>2017-06-26T13:47:33Z</time>
      </trkpt>
      <trkpt lat="70.514303036034107" lon="23.936230977997184">
        <ele>37.149999999999999</ele>
        <time>2017-06-26T13:47:46Z</time>
      </trkpt>
      <trkpt lat="70.51431099884212" lon="23.935703001916409">
        <ele>36.670000000000002</ele>
        <time>2017-06-26T13:47:47Z</time>
      </trkpt>
      <trkpt lat="70.509247994050384" lon="23.870769990608096">
        <ele>18.399999999999999</ele>
        <time>2017-06-26T13:49:22Z</time>
      </trkpt>
      <trkpt lat="70.508942976593971" lon="23.866621032357216">
        <ele>11.19</ele>
        <time>2017-06-26T13:49:28Z</time>
      </trkpt>
      <trkpt lat="70.508850021287799" lon="23.86282897554338">
        <ele>11.67</ele>
        <time>2017-06-26T13:49:34Z</time>
      </trkpt>
      <trkpt lat="70.508899977430701" lon="23.862210977822542">
        <ele>11.67</ele>
        <time>2017-06-26T13:49:35Z</time>
      </trkpt>
      <trkpt lat="70.508964015170932" lon="23.861614018678665">
        <ele>11.67</ele>
        <time>2017-06-26T13:49:36Z</time>
      </trkpt>
      <trkpt lat="70.509054036810994" lon="23.861038014292717">
        <ele>12.15</ele>
        <time>2017-06-26T13:49:37Z</time>
      </trkpt>
      <trkpt lat="70.509159984067082" lon="23.860490005463362">
        <ele>11.67</ele>
        <time>2017-06-26T13:49:38Z</time>
      </trkpt>
      <trkpt lat="70.509286969900131" lon="23.859961023554206">
        <ele>11.67</ele>
        <time>2017-06-26T13:49:39Z</time>
      </trkpt>
      <trkpt lat="70.509427031502128" lon="23.859456013888121">
        <ele>11.67</ele>
        <time>2017-06-26T13:49:40Z</time>
      </trkpt>
      <trkpt lat="70.509572960436344" lon="23.858959972858429">
        <ele>12.15</ele>
        <time>2017-06-26T13:49:41Z</time>
      </trkpt>
      <trkpt lat="70.511230984702706" lon="23.852790975943208">
        <ele>14.08</ele>
        <time>2017-06-26T13:49:52Z</time>
      </trkpt>
      <trkpt lat="70.511913020163774" lon="23.847106033936143">
        <ele>20.32</ele>
        <time>2017-06-26T13:50:00Z</time>
      </trkpt>
      <trkpt lat="70.512253995984793" lon="23.842759011313319">
        <ele>20.32</ele>
        <time>2017-06-26T13:50:06Z</time>
      </trkpt>
      <trkpt lat="70.512252990156412" lon="23.842015033587813">
        <ele>21.77</ele>
        <time>2017-06-26T13:50:07Z</time>
      </trkpt>
      <trkpt lat="70.51199097186327" lon="23.833641009405255">
        <ele>28.02</ele>
        <time>2017-06-26T13:50:18Z</time>
      </trkpt>
      <trkpt lat="70.511527033522725" lon="23.826614962890744">
        <ele>28.02</ele>
        <time>2017-06-26T13:50:27Z</time>
      </trkpt>
      <trkpt lat="70.510587003082037" lon="23.820422999560833">
        <ele>30.420000000000002</ele>
        <time>2017-06-26T13:50:36Z</time>
      </trkpt>
      <trkpt lat="70.510190036147833" lon="23.816015040501952">
        <ele>30.899999999999999</ele>
        <time>2017-06-26T13:50:43Z</time>
      </trkpt>
      <trkpt lat="70.510302018374205" lon="23.811474982649088">
        <ele>33.780000000000001</ele>
        <time>2017-06-26T13:50:50Z</time>
      </trkpt>
      <trkpt lat="70.510688005015254" lon="23.804543986916542">
        <ele>34.259999999999998</ele>
        <time>2017-06-26T13:51:00Z</time>
      </trkpt>
      <trkpt lat="70.510625978931785" lon="23.796921987086535">
        <ele>35.710000000000001</ele>
        <time>2017-06-26T13:51:11Z</time>
      </trkpt>
      <trkpt lat="70.511048007756472" lon="23.787684962153435">
        <ele>32.82</ele>
        <time>2017-06-26T13:51:23Z</time>
      </trkpt>
      <trkpt lat="70.511609008535743" lon="23.777813008055091">
        <ele>41.950000000000003</ele>
        <time>2017-06-26T13:51:36Z</time>
      </trkpt>
      <trkpt lat="70.511821992695332" lon="23.776537030935287">
        <ele>45.32</ele>
        <time>2017-06-26T13:51:38Z</time>
      </trkpt>
      <trkpt lat="70.511953001841903" lon="23.77598499879241">
        <ele>46.759999999999998</ele>
        <time>2017-06-26T13:51:39Z</time>
      </trkpt>
      <trkpt lat="70.512101026251912" lon="23.775470014661551">
        <ele>48.200000000000003</ele>
        <time>2017-06-26T13:51:40Z</time>
      </trkpt>
      <trkpt lat="70.512265982106328" lon="23.774988977238536">
        <ele>48.68</ele>
        <time>2017-06-26T13:51:41Z</time>
      </trkpt>
      <trkpt lat="70.512444013729692" lon="23.774526966735721">
        <ele>49.649999999999999</ele>
        <time>2017-06-26T13:51:42Z</time>
      </trkpt>
      <trkpt lat="70.512630008161068" lon="23.774094041436911">
        <ele>50.130000000000003</ele>
        <time>2017-06-26T13:51:43Z</time>
      </trkpt>
      <trkpt lat="70.513907996937633" lon="23.772351024672389">
        <ele>50.609999999999999</ele>
        <time>2017-06-26T13:51:49Z</time>
      </trkpt>
      <trkpt lat="70.516829006373882" lon="23.770268959924579">
        <ele>52.049999999999997</ele>
        <time>2017-06-26T13:52:01Z</time>
      </trkpt>
      <trkpt lat="70.518083022907376" lon="23.768356963992119">
        <ele>48.68</ele>
        <time>2017-06-26T13:52:07Z</time>
      </trkpt>
      <trkpt lat="70.51933603361249" lon="23.764697005972266">
        <ele>39.07</ele>
        <time>2017-06-26T13:52:14Z</time>
      </trkpt>
      <trkpt lat="70.522248996421695" lon="23.753767004236579">
        <ele>30.899999999999999</ele>
        <time>2017-06-26T13:52:32Z</time>
      </trkpt>
      <trkpt lat="70.522359972819686" lon="23.753153029829264">
        <ele>30.420000000000002</ele>
        <time>2017-06-26T13:52:33Z</time>
      </trkpt>
      <trkpt lat="70.522447982802987" lon="23.752506030723453">
        <ele>30.420000000000002</ele>
        <time>2017-06-26T13:52:34Z</time>
      </trkpt>
      <trkpt lat="70.522515038028359" lon="23.751832041889429">
        <ele>29.460000000000001</ele>
        <time>2017-06-26T13:52:35Z</time>
      </trkpt>
      <trkpt lat="70.522564994171262" lon="23.75112603418529">
        <ele>28.98</ele>
        <time>2017-06-26T13:52:36Z</time>
      </trkpt>
      <trkpt lat="70.52260497584939" lon="23.750393958762288">
        <ele>28.5</ele>
        <time>2017-06-26T13:52:37Z</time>
      </trkpt>
      <trkpt lat="70.522956009954214" lon="23.745465986430645">
        <ele>28.5</ele>
        <time>2017-06-26T13:52:44Z</time>
      </trkpt>
      <trkpt lat="70.523060029372573" lon="23.744889982044697">
        <ele>28.98</ele>
        <time>2017-06-26T13:52:45Z</time>
      </trkpt>
      <trkpt lat="70.523178968578577" lon="23.74433996155858">
        <ele>28.98</ele>
        <time>2017-06-26T13:52:46Z</time>
      </trkpt>
      <trkpt lat="70.523296985775232" lon="23.743834029883146">
        <ele>29.460000000000001</ele>
        <time>2017-06-26T13:52:47Z</time>
      </trkpt>
      <trkpt lat="70.523450039327145" lon="23.743367996066809">
        <ele>29.940000000000001</ele>
        <time>2017-06-26T13:52:48Z</time>
      </trkpt>
      <trkpt lat="70.523622035980225" lon="23.742918977513909">
        <ele>30.899999999999999</ele>
        <time>2017-06-26T13:52:49Z</time>
      </trkpt>
      <trkpt lat="70.523801995441318" lon="23.742495020851493">
        <ele>31.859999999999999</ele>
        <time>2017-06-26T13:52:50Z</time>
      </trkpt>
      <trkpt lat="70.52498702891171" lon="23.740314971655607">
        <ele>33.299999999999997</ele>
        <time>2017-06-26T13:52:57Z</time>
      </trkpt>
      <trkpt lat="70.52621497772634" lon="23.740023029968143">
        <ele>31.859999999999999</ele>
        <time>2017-06-26T13:53:04Z</time>
      </trkpt>
      <trkpt lat="70.526412036269903" lon="23.74016803689301">
        <ele>31.379999999999999</ele>
        <time>2017-06-26T13:53:05Z</time>
      </trkpt>
      <trkpt lat="70.526612028479576" lon="23.740359982475638">
        <ele>30.899999999999999</ele>
        <time>2017-06-26T13:53:06Z</time>
      </trkpt>
      <trkpt lat="70.526810009032488" lon="23.740606997162104">
        <ele>30.420000000000002</ele>
        <time>2017-06-26T13:53:07Z</time>
      </trkpt>
      <trkpt lat="70.527004972100258" lon="23.740910002961755">
        <ele>29.940000000000001</ele>
        <time>2017-06-26T13:53:08Z</time>
      </trkpt>
      <trkpt lat="70.527194989845157" lon="23.741250978782773">
        <ele>29.460000000000001</ele>
        <time>2017-06-26T13:53:09Z</time>
      </trkpt>
      <trkpt lat="70.527381990104914" lon="23.741624979302287">
        <ele>28.98</ele>
        <time>2017-06-26T13:53:10Z</time>
      </trkpt>
      <trkpt lat="70.529171023517847" lon="23.744295034557581">
        <ele>32.82</ele>
        <time>2017-06-26T13:53:19Z</time>
      </trkpt>
      <trkpt lat="70.530898030847311" lon="23.744957037270069">
        <ele>40.990000000000002</ele>
        <time>2017-06-26T13:53:27Z</time>
      </trkpt>
      <trkpt lat="70.538702001795173" lon="23.738746969029307">
        <ele>34.740000000000002</ele>
        <time>2017-06-26T13:54:04Z</time>
      </trkpt>
      <trkpt lat="70.540256006643176" lon="23.736720979213715">
        <ele>33.299999999999997</ele>
        <time>2017-06-26T13:54:11Z</time>
      </trkpt>
      <trkpt lat="70.542072029784322" lon="23.735202010720968">
        <ele>28.98</ele>
        <time>2017-06-26T13:54:19Z</time>
      </trkpt>
      <trkpt lat="70.54265096783638" lon="23.73466900549829">
        <ele>28.98</ele>
        <time>2017-06-26T13:54:24Z</time>
      </trkpt>
      <trkpt lat="70.54305799305439" lon="23.734211018308997">
        <ele>27.530000000000001</ele>
        <time>2017-06-26T13:54:32Z</time>
      </trkpt>
      <trkpt lat="70.543310036882758" lon="23.733893008902669">
        <ele>26.09</ele>
        <time>2017-06-26T13:54:41Z</time>
      </trkpt>
      <trkpt lat="70.543983019888401" lon="23.7330780364573">
        <ele>26.09</ele>
        <time>2017-06-26T13:54:49Z</time>
      </trkpt>
      <trkpt lat="70.545455971732736" lon="23.73107903636992">
        <ele>28.5</ele>
        <time>2017-06-26T13:55:00Z</time>
      </trkpt>
      <trkpt lat="70.547051969915628" lon="23.729561995714903">
        <ele>27.530000000000001</ele>
        <time>2017-06-26T13:55:11Z</time>
      </trkpt>
      <trkpt lat="70.547184990718961" lon="23.729338031262159">
        <ele>28.02</ele>
        <time>2017-06-26T13:55:12Z</time>
      </trkpt>
      <trkpt lat="70.54731298238039" lon="23.729084981605411">
        <ele>28.02</ele>
        <time>2017-06-26T13:55:13Z</time>
      </trkpt>
      <trkpt lat="70.547438962385058" lon="23.728801002725959">
        <ele>28.02</ele>
        <time>2017-06-26T13:55:14Z</time>
      </trkpt>
      <trkpt lat="70.547561002895236" lon="23.728494979441166">
        <ele>28.02</ele>
        <time>2017-06-26T13:55:15Z</time>
      </trkpt>
      <trkpt lat="70.54767700843513" lon="23.728176970034838">
        <ele>28.5</ele>
        <time>2017-06-26T13:55:16Z</time>
      </trkpt>
      <trkpt lat="70.548930019140244" lon="23.725333996117115">
        <ele>29.940000000000001</ele>
        <time>2017-06-26T13:55:26Z</time>
      </trkpt>
      <trkpt lat="70.550972018390894" lon="23.723360979929566">
        <ele>21.289999999999999</ele>
        <time>2017-06-26T13:55:38Z</time>
      </trkpt>
      <trkpt lat="70.552957020699978" lon="23.72078899294138">
        <ele>16.48</ele>
        <time>2017-06-26T13:55:49Z</time>
      </trkpt>
      <trkpt lat="70.554548995569348" lon="23.717241017147899">
        <ele>21.77</ele>
        <time>2017-06-26T13:55:59Z</time>
      </trkpt>
      <trkpt lat="70.556018007919192" lon="23.715506969019771">
        <ele>23.690000000000001</ele>
        <time>2017-06-26T13:56:07Z</time>
      </trkpt>
      <trkpt lat="70.556374993175268" lon="23.715000031515956">
        <ele>22.73</ele>
        <time>2017-06-26T13:56:09Z</time>
      </trkpt>
      <trkpt lat="70.556542966514826" lon="23.714664001017809">
        <ele>23.690000000000001</ele>
        <time>2017-06-26T13:56:10Z</time>
      </trkpt>
      <trkpt lat="70.558620002120733" lon="23.709856979548931">
        <ele>28.02</ele>
        <time>2017-06-26T13:56:23Z</time>
      </trkpt>
      <trkpt lat="70.559592973440886" lon="23.707586992532015">
        <ele>27.050000000000001</ele>
        <time>2017-06-26T13:56:29Z</time>
      </trkpt>
      <trkpt lat="70.559705961495638" lon="23.707120036706328">
        <ele>27.050000000000001</ele>
        <time>2017-06-26T13:56:30Z</time>
      </trkpt>
      <trkpt lat="70.559805035591125" lon="23.706605974584818">
        <ele>27.050000000000001</ele>
        <time>2017-06-26T13:56:31Z</time>
      </trkpt>
      <trkpt lat="70.56069795973599" lon="23.70188201777637">
        <ele>27.050000000000001</ele>
        <time>2017-06-26T13:56:40Z</time>
      </trkpt>
      <trkpt lat="70.561673026531935" lon="23.699598032981157">
        <ele>27.050000000000001</ele>
        <time>2017-06-26T13:56:46Z</time>
      </trkpt>
      <trkpt lat="70.563345970585942" lon="23.697761977091432">
        <ele>31.859999999999999</ele>
        <time>2017-06-26T13:56:55Z</time>
      </trkpt>
      <trkpt lat="70.564410975202918" lon="23.697746973484755">
        <ele>28.98</ele>
        <time>2017-06-26T13:57:01Z</time>
      </trkpt>
      <trkpt lat="70.5657450389117" lon="23.699315981939435">
        <ele>22.73</ele>
        <time>2017-06-26T13:57:08Z</time>
      </trkpt>
      <trkpt lat="70.56613102555275" lon="23.699622005224228">
        <ele>20.809999999999999</ele>
        <time>2017-06-26T13:57:10Z</time>
      </trkpt>
      <trkpt lat="70.566320037469268" lon="23.699683025479317">
        <ele>19.84</ele>
        <time>2017-06-26T13:57:11Z</time>
      </trkpt>
      <trkpt lat="70.566509971395135" lon="23.699683025479317">
        <ele>18.399999999999999</ele>
        <time>2017-06-26T13:57:12Z</time>
      </trkpt>
      <trkpt lat="70.566700994968414" lon="23.699637008830905">
        <ele>17.440000000000001</ele>
        <time>2017-06-26T13:57:13Z</time>
      </trkpt>
      <trkpt lat="70.566889001056552" lon="23.69953902438283">
        <ele>16</ele>
        <time>2017-06-26T13:57:14Z</time>
      </trkpt>
      <trkpt lat="70.567072983831167" lon="23.69936996139586">
        <ele>15.039999999999999</ele>
        <time>2017-06-26T13:57:15Z</time>
      </trkpt>
      <trkpt lat="70.56724900379777" lon="23.699139039963484">
        <ele>13.6</ele>
        <time>2017-06-26T13:57:16Z</time>
      </trkpt>
      <trkpt lat="70.56742100045085" lon="23.69885103777051">
        <ele>12.15</ele>
        <time>2017-06-26T13:57:17Z</time>
      </trkpt>
      <trkpt lat="70.567589979618788" lon="23.698534034192562">
        <ele>10.710000000000001</ele>
        <time>2017-06-26T13:57:18Z</time>
      </trkpt>
      <trkpt lat="70.56843101978302" lon="23.697188990190625">
        <ele>6.87</ele>
        <time>2017-06-26T13:57:23Z</time>
      </trkpt>
      <trkpt lat="70.568590024486184" lon="23.697067033499479">
        <ele>6.39</ele>
        <time>2017-06-26T13:57:24Z</time>
      </trkpt>
      <trkpt lat="70.5687549803406" lon="23.697002995759249">
        <ele>5.42</ele>
        <time>2017-06-26T13:57:25Z</time>
      </trkpt>
      <trkpt lat="70.568932006135583" lon="23.696988997980952">
        <ele>5.91</ele>
        <time>2017-06-26T13:57:26Z</time>
      </trkpt>
      <trkpt lat="70.569111965596676" lon="23.697034008800983">
        <ele>5.42</ele>
        <time>2017-06-26T13:57:27Z</time>
      </trkpt>
      <trkpt lat="70.569294020533562" lon="23.697120007127523">
        <ele>4.94</ele>
        <time>2017-06-26T13:57:28Z</time>
      </trkpt>
      <trkpt lat="70.569481020793319" lon="23.697228971868753">
        <ele>4.94</ele>
        <time>2017-06-26T13:57:29Z</time>
      </trkpt>
      <trkpt lat="70.569867007434368" lon="23.697383031249046">
        <ele>5.42</ele>
        <time>2017-06-26T13:57:31Z</time>
      </trkpt>
      <trkpt lat="70.570063982158899" lon="23.697370961308479">
        <ele>5.42</ele>
        <time>2017-06-26T13:57:32Z</time>
      </trkpt>
      <trkpt lat="70.570260034874082" lon="23.697281023487449">
        <ele>5.42</ele>
        <time>2017-06-26T13:57:33Z</time>
      </trkpt>
      <trkpt lat="70.57045198045671" lon="23.697130987420678">
        <ele>5.42</ele>
        <time>2017-06-26T13:57:34Z</time>
      </trkpt>
      <trkpt lat="70.57064501568675" lon="23.696942981332541">
        <ele>5.42</ele>
        <time>2017-06-26T13:57:35Z</time>
      </trkpt>
      <trkpt lat="70.570837967097759" lon="23.696731003001332">
        <ele>5.42</ele>
        <time>2017-06-26T13:57:36Z</time>
      </trkpt>
      <trkpt lat="70.573292020708323" lon="23.693979978561401">
        <ele>9.75</ele>
        <time>2017-06-26T13:57:48Z</time>
      </trkpt>
      <trkpt lat="70.577278034761548" lon="23.690695026889443">
        <ele>6.39</ele>
        <time>2017-06-26T13:58:07Z</time>
      </trkpt>
      <trkpt lat="70.579402009025216" lon="23.689789026975632">
        <ele>7.35</ele>
        <time>2017-06-26T13:58:17Z</time>
      </trkpt>
      <trkpt lat="70.579588003456593" lon="23.689559027552605">
        <ele>7.83</ele>
        <time>2017-06-26T13:58:18Z</time>
      </trkpt>
      <trkpt lat="70.579767040908337" lon="23.68929298594594">
        <ele>8.310000000000001</ele>
        <time>2017-06-26T13:58:19Z</time>
      </trkpt>
      <trkpt lat="70.581199005246162" lon="23.687167000025511">
        <ele>10.710000000000001</ele>
        <time>2017-06-26T13:58:27Z</time>
      </trkpt>
      <trkpt lat="70.583487013354897" lon="23.685974003747106">
        <ele>5.91</ele>
        <time>2017-06-26T13:58:38Z</time>
      </trkpt>
      <trkpt lat="70.585177978500724" lon="23.684398960322142">
        <ele>5.42</ele>
        <time>2017-06-26T13:58:46Z</time>
      </trkpt>
      <trkpt lat="70.586425960063934" lon="23.682470032945275">
        <ele>6.87</ele>
        <time>2017-06-26T13:58:53Z</time>
      </trkpt>
      <trkpt lat="70.586621006950736" lon="23.682324020192027">
        <ele>6.87</ele>
        <time>2017-06-26T13:58:54Z</time>
      </trkpt>
      <trkpt lat="70.58682200498879" lon="23.682216983288527">
        <ele>6.87</ele>
        <time>2017-06-26T13:58:55Z</time>
      </trkpt>
      <trkpt lat="70.588510958477855" lon="23.681222973391414">
        <ele>8.310000000000001</ele>
        <time>2017-06-26T13:59:03Z</time>
      </trkpt>
      <trkpt lat="70.589678976684809" lon="23.681034967303276">
        <ele>5.42</ele>
        <time>2017-06-26T13:59:09Z</time>
      </trkpt>
      <trkpt lat="70.590295968577266" lon="23.681062962859869">
        <ele>5.42</ele>
        <time>2017-06-26T13:59:12Z</time>
      </trkpt>
      <trkpt lat="70.591658027842641" lon="23.681004038080573">
        <ele>8.789999999999999</ele>
        <time>2017-06-26T13:59:19Z</time>
      </trkpt>
      <trkpt lat="70.593271041288972" lon="23.681819010525942">
        <ele>5.91</ele>
        <time>2017-06-26T13:59:27Z</time>
      </trkpt>
      <trkpt lat="70.594047959893942" lon="23.68157702498138">
        <ele>6.39</ele>
        <time>2017-06-26T13:59:32Z</time>
      </trkpt>
      <trkpt lat="70.594108980149031" lon="23.681520028039813">
        <ele>6.39</ele>
        <time>2017-06-26T13:59:33Z</time>
      </trkpt>
      <trkpt lat="70.594138987362385" lon="23.681459007784724">
        <ele>6.39</ele>
        <time>2017-06-26T13:59:34Z</time>
      </trkpt>
      <trkpt lat="70.594153990969062" lon="23.681402010843158">
        <ele>6.39</ele>
        <time>2017-06-26T13:59:35Z</time>
      </trkpt>
      <trkpt lat="70.594168994575739" lon="23.681348031386733">
        <ele>5.42</ele>
        <time>2017-06-26T13:59:48Z</time>
      </trkpt>
      <trkpt lat="70.594186009839177" lon="23.681350965052843">
        <ele>4.94</ele>
        <time>2017-06-26T14:00:37Z</time>
      </trkpt>
      <trkpt lat="70.594459008425474" lon="23.681335961446166">
        <ele>6.39</ele>
        <time>2017-06-26T14:00:41Z</time>
      </trkpt>
      <trkpt lat="70.595404990017414" lon="23.681051982566714">
        <ele>7.35</ele>
        <time>2017-06-26T14:00:49Z</time>
      </trkpt>
      <trkpt lat="70.596487009897828" lon="23.681830996647477">
        <ele>6.87</ele>
        <time>2017-06-26T14:00:56Z</time>
      </trkpt>
      <trkpt lat="70.598245030269027" lon="23.684556959196925">
        <ele>9.27</ele>
        <time>2017-06-26T14:01:06Z</time>
      </trkpt>
      <trkpt lat="70.600260961800814" lon="23.687604032456875">
        <ele>16.48</ele>
        <time>2017-06-26T14:01:17Z</time>
      </trkpt>
      <trkpt lat="70.601340970024467" lon="23.687870996072888">
        <ele>22.25</ele>
        <time>2017-06-26T14:01:23Z</time>
      </trkpt>
      <trkpt lat="70.601520007476211" lon="23.687763037160039">
        <ele>23.690000000000001</ele>
        <time>2017-06-26T14:01:24Z</time>
      </trkpt>
      <trkpt lat="70.601697033271194" lon="23.687607971951365">
        <ele>25.129999999999999</ele>
        <time>2017-06-26T14:01:25Z</time>
      </trkpt>
      <trkpt lat="70.601864000782371" lon="23.687409991398454">
        <ele>26.09</ele>
        <time>2017-06-26T14:01:26Z</time>
      </trkpt>
      <trkpt lat="70.602019988000393" lon="23.687203964218497">
        <ele>27.050000000000001</ele>
        <time>2017-06-26T14:01:27Z</time>
      </trkpt>
      <trkpt lat="70.602158037945628" lon="23.686972036957741">
        <ele>27.530000000000001</ele>
        <time>2017-06-26T14:01:28Z</time>
      </trkpt>
      <trkpt lat="70.602288041263819" lon="23.686724016442895">
        <ele>28.02</ele>
        <time>2017-06-26T14:01:29Z</time>
      </trkpt>
      <trkpt lat="70.603065965697169" lon="23.684230986982584">
        <ele>25.609999999999999</ele>
        <time>2017-06-26T14:01:36Z</time>
      </trkpt>
      <trkpt lat="70.603146012872458" lon="23.683759002014995">
        <ele>25.129999999999999</ele>
        <time>2017-06-26T14:01:37Z</time>
      </trkpt>
      <trkpt lat="70.603212984278798" lon="23.683252986520529">
        <ele>25.129999999999999</ele>
        <time>2017-06-26T14:01:38Z</time>
      </trkpt>
      <trkpt lat="70.603270987048745" lon="23.682734984904528">
        <ele>24.649999999999999</ele>
        <time>2017-06-26T14:01:39Z</time>
      </trkpt>
      <trkpt lat="70.603313986212015" lon="23.682217989116907">
        <ele>24.649999999999999</ele>
        <time>2017-06-26T14:01:40Z</time>
      </trkpt>
      <trkpt lat="70.603341981768608" lon="23.681697975844145">
        <ele>24.170000000000002</ele>
        <time>2017-06-26T14:01:41Z</time>
      </trkpt>
      <trkpt lat="70.603353967890143" lon="23.681167988106608">
        <ele>23.210000000000001</ele>
        <time>2017-06-26T14:01:42Z</time>
      </trkpt>
      <trkpt lat="70.603352040052414" lon="23.680613022297621">
        <ele>22.25</ele>
        <time>2017-06-26T14:01:43Z</time>
      </trkpt>
      <trkpt lat="70.603337958455086" lon="23.680049004033208">
        <ele>21.289999999999999</ele>
        <time>2017-06-26T14:01:44Z</time>
      </trkpt>
      <trkpt lat="70.603309040889144" lon="23.679467970505357">
        <ele>20.32</ele>
        <time>2017-06-26T14:01:45Z</time>
      </trkpt>
      <trkpt lat="70.603269981220365" lon="23.67887201718986">
        <ele>19.359999999999999</ele>
        <time>2017-06-26T14:01:46Z</time>
      </trkpt>
      <trkpt lat="70.60321700759232" lon="23.678273968398571">
        <ele>18.879999999999999</ele>
        <time>2017-06-26T14:01:47Z</time>
      </trkpt>
      <trkpt lat="70.60315003618598" lon="23.677677009254694">
        <ele>18.879999999999999</ele>
        <time>2017-06-26T14:01:48Z</time>
      </trkpt>
      <trkpt lat="70.603074012324214" lon="23.677077032625675">
        <ele>18.879999999999999</ele>
        <time>2017-06-26T14:01:49Z</time>
      </trkpt>
      <trkpt lat="70.601856037974358" lon="23.668256001546979">
        <ele>19.359999999999999</ele>
        <time>2017-06-26T14:02:03Z</time>
      </trkpt>
      <trkpt lat="70.601529981940985" lon="23.662975989282131">
        <ele>23.690000000000001</ele>
        <time>2017-06-26T14:02:11Z</time>
      </trkpt>
      <trkpt lat="70.6012839730829" lon="23.657075967639685">
        <ele>27.050000000000001</ele>
        <time>2017-06-26T14:02:20Z</time>
      </trkpt>
      <trkpt lat="70.601100996136665" lon="23.652141960337758">
        <ele>24.649999999999999</ele>
        <time>2017-06-26T14:02:28Z</time>
      </trkpt>
      <trkpt lat="70.601241979748011" lon="23.649095976725221">
        <ele>17.920000000000002</ele>
        <time>2017-06-26T14:02:33Z</time>
      </trkpt>
      <trkpt lat="70.60123804025352" lon="23.647068981081247">
        <ele>13.119999999999999</ele>
        <time>2017-06-26T14:02:37Z</time>
      </trkpt>
      <trkpt lat="70.601267041638494" lon="23.646694980561733">
        <ele>12.15</ele>
        <time>2017-06-26T14:02:38Z</time>
      </trkpt>
      <trkpt lat="70.601316997781396" lon="23.646352998912334">
        <ele>11.19</ele>
        <time>2017-06-26T14:02:39Z</time>
      </trkpt>
      <trkpt lat="70.601388998329639" lon="23.646034989506006">
        <ele>10.23</ele>
        <time>2017-06-26T14:02:40Z</time>
      </trkpt>
      <trkpt lat="70.601491006091237" lon="23.645752016454935">
        <ele>9.27</ele>
        <time>2017-06-26T14:02:41Z</time>
      </trkpt>
      <trkpt lat="70.601613968610764" lon="23.645574990659952">
        <ele>8.789999999999999</ele>
        <time>2017-06-26T14:02:42Z</time>
      </trkpt>
      <trkpt lat="70.601750006899238" lon="23.645444987341762">
        <ele>7.83</ele>
        <time>2017-06-26T14:02:43Z</time>
      </trkpt>
      <trkpt lat="70.601901970803738" lon="23.645374998450279">
        <ele>7.35</ele>
        <time>2017-06-26T14:02:44Z</time>
      </trkpt>
      <trkpt lat="70.602078996598721" lon="23.64539997652173">
        <ele>6.39</ele>
        <time>2017-06-26T14:02:45Z</time>
      </trkpt>
      <trkpt lat="70.602261973544955" lon="23.645417997613549">
        <ele>5.42</ele>
        <time>2017-06-26T14:02:46Z</time>
      </trkpt>
      <trkpt lat="70.604156032204628" lon="23.645682027563453">
        <ele>2.06</ele>
        <time>2017-06-26T14:02:55Z</time>
      </trkpt>
      <trkpt lat="70.605368977412581" lon="23.64591202698648">
        <ele>2.54</ele>
        <time>2017-06-26T14:03:01Z</time>
      </trkpt>
      <trkpt lat="70.605538040399551" lon="23.646060973405838">
        <ele>2.54</ele>
        <time>2017-06-26T14:03:02Z</time>
      </trkpt>
      <trkpt lat="70.605696961283684" lon="23.646285021677613">
        <ele>2.54</ele>
        <time>2017-06-26T14:03:03Z</time>
      </trkpt>
      <trkpt lat="70.605843979865313" lon="23.646576041355729">
        <ele>3.02</ele>
        <time>2017-06-26T14:03:04Z</time>
      </trkpt>
      <trkpt lat="70.605984963476658" lon="23.64694501273334">
        <ele>3.02</ele>
        <time>2017-06-26T14:03:05Z</time>
      </trkpt>
      <trkpt lat="70.606115972623229" lon="23.647343991324306">
        <ele>3.02</ele>
        <time>2017-06-26T14:03:06Z</time>
      </trkpt>
      <trkpt lat="70.60714895837009" lon="23.650636989623308">
        <ele>4.46</ele>
        <time>2017-06-26T14:03:15Z</time>
      </trkpt>
      <trkpt lat="70.607740972191095" lon="23.651969963684678">
        <ele>1.1</ele>
        <time>2017-06-26T14:03:20Z</time>
      </trkpt>
      <trkpt lat="70.607893019914627" lon="23.652156963944435">
        <ele>0.62</ele>
        <time>2017-06-26T14:03:21Z</time>
      </trkpt>
      <trkpt lat="70.60805001296103" lon="23.652299959212542">
        <ele>0.62</ele>
        <time>2017-06-26T14:03:22Z</time>
      </trkpt>
      <trkpt lat="70.608211029320955" lon="23.652398027479649">
        <ele>0.62</ele>
        <time>2017-06-26T14:03:23Z</time>
      </trkpt>
      <trkpt lat="70.608374979346991" lon="23.652469022199512">
        <ele>1.1</ele>
        <time>2017-06-26T14:03:24Z</time>
      </trkpt>
      <trkpt lat="70.610354030504823" lon="23.653010996058583">
        <ele>3.02</ele>
        <time>2017-06-26T14:03:35Z</time>
      </trkpt>
      <trkpt lat="70.611910969018936" lon="23.653205959126353">
        <ele>9.75</ele>
        <time>2017-06-26T14:03:44Z</time>
      </trkpt>
      <trkpt lat="70.612064022570848" lon="23.653104035183787">
        <ele>10.710000000000001</ele>
        <time>2017-06-26T14:03:45Z</time>
      </trkpt>
      <trkpt lat="70.612215986475348" lon="23.652943018823862">
        <ele>11.19</ele>
        <time>2017-06-26T14:03:46Z</time>
      </trkpt>
      <trkpt lat="70.612361999228597" lon="23.652721988037229">
        <ele>12.15</ele>
        <time>2017-06-26T14:03:47Z</time>
      </trkpt>
      <trkpt lat="70.612501977011561" lon="23.652451001107693">
        <ele>13.119999999999999</ele>
        <time>2017-06-26T14:03:48Z</time>
      </trkpt>
      <trkpt lat="70.612628040835261" lon="23.652152018621564">
        <ele>14.08</ele>
        <time>2017-06-26T14:03:49Z</time>
      </trkpt>
      <trkpt lat="70.612735999748111" lon="23.65184498950839">
        <ele>14.56</ele>
        <time>2017-06-26T14:03:50Z</time>
      </trkpt>
      <trkpt lat="70.612826021388173" lon="23.651550030335784">
        <ele>15.52</ele>
        <time>2017-06-26T14:03:51Z</time>
      </trkpt>
      <trkpt lat="70.612897016108036" lon="23.651273008435965">
        <ele>16</ele>
        <time>2017-06-26T14:03:52Z</time>
      </trkpt>
      <trkpt lat="70.612953007221222" lon="23.651013001799583">
        <ele>16.48</ele>
        <time>2017-06-26T14:03:53Z</time>
      </trkpt>
      <trkpt lat="70.612999023869634" lon="23.650757018476725">
        <ele>16.48</ele>
        <time>2017-06-26T14:03:54Z</time>
      </trkpt>
      <trkpt lat="70.613616015762091" lon="23.647597040981054">
        <ele>18.399999999999999</ele>
        <time>2017-06-26T14:04:04Z</time>
      </trkpt>
      <trkpt lat="70.614571971818805" lon="23.644873006269336">
        <ele>21.289999999999999</ele>
        <time>2017-06-26T14:04:12Z</time>
      </trkpt>
      <trkpt lat="70.615659020841122" lon="23.643136024475098">
        <ele>26.09</ele>
        <time>2017-06-26T14:04:20Z</time>
      </trkpt>
      <trkpt lat="70.616759983822703" lon="23.641986027359962">
        <ele>20.809999999999999</ele>
        <time>2017-06-26T14:04:30Z</time>
      </trkpt>
      <trkpt lat="70.61711504124105" lon="23.641925007104874">
        <ele>17.440000000000001</ele>
        <time>2017-06-26T14:04:33Z</time>
      </trkpt>
      <trkpt lat="70.617232974618673" lon="23.641975969076157">
        <ele>16</ele>
        <time>2017-06-26T14:04:34Z</time>
      </trkpt>
      <trkpt lat="70.617346968501806" lon="23.642085017636418">
        <ele>15.039999999999999</ele>
        <time>2017-06-26T14:04:35Z</time>
      </trkpt>
      <trkpt lat="70.617452999576926" lon="23.642214015126228">
        <ele>14.08</ele>
        <time>2017-06-26T14:04:36Z</time>
      </trkpt>
      <trkpt lat="70.617554001510143" lon="23.642356004565954">
        <ele>13.6</ele>
        <time>2017-06-26T14:04:37Z</time>
      </trkpt>
      <trkpt lat="70.618010982871056" lon="23.643259992823005">
        <ele>9.27</ele>
        <time>2017-06-26T14:04:43Z</time>
      </trkpt>
      <trkpt lat="70.618073008954525" lon="23.643444981426001">
        <ele>8.789999999999999</ele>
        <time>2017-06-26T14:04:44Z</time>
      </trkpt>
      <trkpt lat="70.618511969223619" lon="23.645085990428925">
        <ele>3.02</ele>
        <time>2017-06-26T14:04:55Z</time>
      </trkpt>
      <trkpt lat="70.61857801862061" lon="23.64542000927031">
        <ele>1.1</ele>
        <time>2017-06-26T14:05:05Z</time>
      </trkpt>
      <trkpt lat="70.618609031662345" lon="23.645523022860289">
        <ele>1.1</ele>
        <time>2017-06-26T14:07:31Z</time>
      </trkpt>
      <trkpt lat="70.618877001106739" lon="23.646415024995804">
        <ele>0.14</ele>
        <time>2017-06-26T14:07:37Z</time>
      </trkpt>
      <trkpt lat="70.619620978832245" lon="23.64896597340703">
        <ele>0.14</ele>
        <time>2017-06-26T14:07:47Z</time>
      </trkpt>
      <trkpt lat="70.620567966252565" lon="23.653015019372106">
        <ele>0.62</ele>
        <time>2017-06-26T14:07:59Z</time>
      </trkpt>
      <trkpt lat="70.621141958981752" lon="23.655524980276823">
        <ele>0.14</ele>
        <time>2017-06-26T14:08:06Z</time>
      </trkpt>
      <trkpt lat="70.621254025027156" lon="23.655794961377978">
        <ele>0.14</ele>
        <time>2017-06-26T14:08:07Z</time>
      </trkpt>
      <trkpt lat="70.621388973668218" lon="23.655998976901174">
        <ele>0.14</ele>
        <time>2017-06-26T14:08:08Z</time>
      </trkpt>
      <trkpt lat="70.621527023613453" lon="23.656163010746241">
        <ele>0.62</ele>
        <time>2017-06-26T14:08:09Z</time>
      </trkpt>
      <trkpt lat="70.62167395837605" lon="23.656303994357586">
        <ele>0.62</ele>
        <time>2017-06-26T14:08:10Z</time>
      </trkpt>
      <trkpt lat="70.621825000271201" lon="23.656413964927197">
        <ele>1.1</ele>
        <time>2017-06-26T14:08:11Z</time>
      </trkpt>
      <trkpt lat="70.621980987489223" lon="23.656499041244388">
        <ele>2.06</ele>
        <time>2017-06-26T14:08:12Z</time>
      </trkpt>
      <trkpt lat="70.623488975688815" lon="23.65721401758492">
        <ele>12.15</ele>
        <time>2017-06-26T14:08:21Z</time>
      </trkpt>
      <trkpt lat="70.62504599802196" lon="23.658465016633272">
        <ele>24.170000000000002</ele>
        <time>2017-06-26T14:08:30Z</time>
      </trkpt>
      <trkpt lat="70.625930959358811" lon="23.658709013834596">
        <ele>24.170000000000002</ele>
        <time>2017-06-26T14:08:35Z</time>
      </trkpt>
      <trkpt lat="70.626103961840272" lon="23.658870030194521">
        <ele>24.170000000000002</ele>
        <time>2017-06-26T14:08:36Z</time>
      </trkpt>
      <trkpt lat="70.626275036484003" lon="23.659082008525729">
        <ele>24.649999999999999</ele>
        <time>2017-06-26T14:08:37Z</time>
      </trkpt>
      <trkpt lat="70.626443009823561" lon="23.659332962706685">
        <ele>24.649999999999999</ele>
        <time>2017-06-26T14:08:38Z</time>
      </trkpt>
      <trkpt lat="70.626606037840247" lon="23.659609984606504">
        <ele>24.649999999999999</ele>
        <time>2017-06-26T14:08:39Z</time>
      </trkpt>
      <trkpt lat="70.628201030194759" lon="23.661777963861823">
        <ele>24.170000000000002</ele>
        <time>2017-06-26T14:08:49Z</time>
      </trkpt>
      <trkpt lat="70.629525035619736" lon="23.661843007430434">
        <ele>27.530000000000001</ele>
        <time>2017-06-26T14:08:57Z</time>
      </trkpt>
      <trkpt lat="70.630705039948225" lon="23.66237198933959">
        <ele>30.899999999999999</ele>
        <time>2017-06-26T14:09:05Z</time>
      </trkpt>
      <trkpt lat="70.632159970700741" lon="23.664699979126453">
        <ele>38.109999999999999</ele>
        <time>2017-06-26T14:09:16Z</time>
      </trkpt>
      <trkpt lat="70.632226020097733" lon="23.664879016578197">
        <ele>38.109999999999999</ele>
        <time>2017-06-26T14:09:17Z</time>
      </trkpt>
      <trkpt lat="70.632269019261003" lon="23.665061993524432">
        <ele>37.630000000000003</ele>
        <time>2017-06-26T14:09:18Z</time>
      </trkpt>
      <trkpt lat="70.632303971797228" lon="23.665281012654305">
        <ele>37.149999999999999</ele>
        <time>2017-06-26T14:09:19Z</time>
      </trkpt>
      <trkpt lat="70.63233096152544" lon="23.66553196683526">
        <ele>36.189999999999998</ele>
        <time>2017-06-26T14:09:20Z</time>
      </trkpt>
      <trkpt lat="70.632352000102401" lon="23.665795996785164">
        <ele>35.710000000000001</ele>
        <time>2017-06-26T14:09:21Z</time>
      </trkpt>
      <trkpt lat="70.632364992052317" lon="23.666062960401177">
        <ele>34.740000000000002</ele>
        <time>2017-06-26T14:09:22Z</time>
      </trkpt>
      <trkpt lat="70.632373038679361" lon="23.666301006451249">
        <ele>33.780000000000001</ele>
        <time>2017-06-26T14:09:23Z</time>
      </trkpt>
      <trkpt lat="70.632387036457658" lon="23.667159983888268">
        <ele>30.899999999999999</ele>
        <time>2017-06-26T14:09:30Z</time>
      </trkpt>
      <trkpt lat="70.63237002119422" lon="23.66722896695137">
        <ele>30.899999999999999</ele>
        <time>2017-06-26T14:09:40Z</time>
      </trkpt>
      <trkpt lat="70.632415032014251" lon="23.668005969375372">
        <ele>29.940000000000001</ele>
        <time>2017-06-26T14:10:20Z</time>
      </trkpt>
      <trkpt lat="70.632717031985521" lon="23.670701002702117">
        <ele>23.210000000000001</ele>
        <time>2017-06-26T14:10:29Z</time>
      </trkpt>
      <trkpt lat="70.632936973124743" lon="23.674346040934324">
        <ele>13.119999999999999</ele>
        <time>2017-06-26T14:10:40Z</time>
      </trkpt>
      <trkpt lat="70.632924987003207" lon="23.674676958471537">
        <ele>12.15</ele>
        <time>2017-06-26T14:10:41Z</time>
      </trkpt>
      <trkpt lat="70.632902020588517" lon="23.674995973706245">
        <ele>11.67</ele>
        <time>2017-06-26T14:10:42Z</time>
      </trkpt>
      <trkpt lat="70.632870001718402" lon="23.675301996991038">
        <ele>11.19</ele>
        <time>2017-06-26T14:10:43Z</time>
      </trkpt>
      <trkpt lat="70.632829014211893" lon="23.675599973648787">
        <ele>10.710000000000001</ele>
        <time>2017-06-26T14:10:44Z</time>
      </trkpt>
      <trkpt lat="70.63277998007834" lon="23.675898034125566">
        <ele>10.23</ele>
        <time>2017-06-26T14:10:45Z</time>
      </trkpt>
      <trkpt lat="70.632726000621915" lon="23.676186036318541">
        <ele>10.23</ele>
        <time>2017-06-26T14:10:46Z</time>
      </trkpt>
      <trkpt lat="70.632497007027268" lon="23.677547005936503">
        <ele>9.75</ele>
        <time>2017-06-26T14:10:51Z</time>
      </trkpt>
      <trkpt lat="70.632471023127437" lon="23.677829978987575">
        <ele>9.75</ele>
        <time>2017-06-26T14:10:52Z</time>
      </trkpt>
      <trkpt lat="70.63245702534914" lon="23.678107000887394">
        <ele>9.75</ele>
        <time>2017-06-26T14:10:53Z</time>
      </trkpt>
      <trkpt lat="70.632459037005901" lon="23.678400032222271">
        <ele>9.75</ele>
        <time>2017-06-26T14:10:54Z</time>
      </trkpt>
      <trkpt lat="70.63247898593545" lon="23.678687028586864">
        <ele>9.27</ele>
        <time>2017-06-26T14:10:55Z</time>
      </trkpt>
      <trkpt lat="70.632509998977184" lon="23.678959021344781">
        <ele>9.27</ele>
        <time>2017-06-26T14:10:56Z</time>
      </trkpt>
      <trkpt lat="70.632558027282357" lon="23.679219027981162">
        <ele>9.27</ele>
        <time>2017-06-26T14:10:57Z</time>
      </trkpt>
      <trkpt lat="70.632620975375175" lon="23.679461013525724">
        <ele>9.75</ele>
        <time>2017-06-26T14:10:58Z</time>
      </trkpt>
      <trkpt lat="70.632701022550464" lon="23.679671986028552">
        <ele>9.75</ele>
        <time>2017-06-26T14:10:59Z</time>
      </trkpt>
      <trkpt lat="70.632790038362145" lon="23.679841971024871">
        <ele>10.23</ele>
        <time>2017-06-26T14:11:00Z</time>
      </trkpt>
      <trkpt lat="70.632885005325079" lon="23.679971974343061">
        <ele>10.710000000000001</ele>
        <time>2017-06-26T14:11:01Z</time>
      </trkpt>
      <trkpt lat="70.632991036400199" lon="23.680058978497982">
        <ele>11.19</ele>
        <time>2017-06-26T14:11:02Z</time>
      </trkpt>
      <trkpt lat="70.633098995313048" lon="23.680100971832871">
        <ele>11.19</ele>
        <time>2017-06-26T14:11:03Z</time>
      </trkpt>
      <trkpt lat="70.63321097753942" lon="23.680113963782787">
        <ele>11.67</ele>
        <time>2017-06-26T14:11:04Z</time>
      </trkpt>
      <trkpt lat="70.633322037756443" lon="23.680099966004491">
        <ele>11.67</ele>
        <time>2017-06-26T14:11:05Z</time>
      </trkpt>
      <trkpt lat="70.635148035362363" lon="23.679441986605525">
        <ele>9.75</ele>
        <time>2017-06-26T14:11:22Z</time>
      </trkpt>
      <trkpt lat="70.635799979791045" lon="23.678497010841966">
        <ele>7.83</ele>
        <time>2017-06-26T14:11:30Z</time>
      </trkpt>
      <trkpt lat="70.635822024196386" lon="23.678397014737129">
        <ele>7.83</ele>
        <time>2017-06-26T14:11:31Z</time>
      </trkpt>
      <trkpt lat="70.635826969519258" lon="23.678280003368855">
        <ele>7.83</ele>
        <time>2017-06-26T14:11:32Z</time>
      </trkpt>
      <trkpt lat="70.635818000882864" lon="23.678171038627625">
        <ele>8.310000000000001</ele>
        <time>2017-06-26T14:11:33Z</time>
      </trkpt>
      <trkpt lat="70.635802997276187" lon="23.678067019209266">
        <ele>7.83</ele>
        <time>2017-06-26T14:11:34Z</time>
      </trkpt>
      <trkpt lat="70.63578799366951" lon="23.677974985912442">
        <ele>7.83</ele>
        <time>2017-06-26T14:11:35Z</time>
      </trkpt>
      <trkpt lat="70.635779025033116" lon="23.677829978987575">
        <ele>7.35</ele>
        <time>2017-06-26T14:11:37Z</time>
      </trkpt>
      <trkpt lat="70.635780030861497" lon="23.677764013409615">
        <ele>7.35</ele>
        <time>2017-06-26T14:11:38Z</time>
      </trkpt>
      <trkpt lat="70.635793022811413" lon="23.677653959020972">
        <ele>5.91</ele>
        <time>2017-06-26T14:11:48Z</time>
      </trkpt>
      <trkpt lat="70.6358109600842" lon="23.677677009254694">
        <ele>6.39</ele>
        <time>2017-06-26T14:13:06Z</time>
      </trkpt>
      <trkpt lat="70.635872986167669" lon="23.677812041714787">
        <ele>-79.170000000000002</ele>
        <time>2017-06-26T14:19:12Z</time>
      </trkpt>
      <trkpt lat="70.635903999209404" lon="23.677552035078406">
        <ele>-108.01000000000001</ele>
        <time>2017-06-26T14:19:47Z</time>
      </trkpt>
      <trkpt lat="70.635925037786365" lon="23.677413985133171">
        <ele>-105.13</ele>
        <time>2017-06-26T14:19:50Z</time>
      </trkpt>
      <trkpt lat="70.636020004749298" lon="23.677507024258375">
        <ele>-46.969999999999999</ele>
        <time>2017-06-26T14:19:57Z</time>
      </trkpt>
      <trkpt lat="70.63608999364078" lon="23.677493026480079">
        <ele>-46.009999999999998</ele>
        <time>2017-06-26T14:19:59Z</time>
      </trkpt>
      <trkpt lat="70.636141961440444" lon="23.677437035366893">
        <ele>-44.079999999999998</ele>
        <time>2017-06-26T14:20:00Z</time>
      </trkpt>
      <trkpt lat="70.636208010837436" lon="23.677340978756547">
        <ele>-43.119999999999997</ele>
        <time>2017-06-26T14:20:01Z</time>
      </trkpt>
      <trkpt lat="70.636275988072157" lon="23.677208963781595">
        <ele>-42.640000000000001</ele>
        <time>2017-06-26T14:20:02Z</time>
      </trkpt>
      <trkpt lat="70.636345976963639" lon="23.677054988220334">
        <ele>-42.640000000000001</ele>
        <time>2017-06-26T14:20:03Z</time>
      </trkpt>
      <trkpt lat="70.637288019061089" lon="23.67502698674798">
        <ele>-37.829999999999998</ele>
        <time>2017-06-26T14:20:13Z</time>
      </trkpt>
      <trkpt lat="70.638600960373878" lon="23.672264982014894">
        <ele>-32.07</ele>
        <time>2017-06-26T14:20:25Z</time>
      </trkpt>
      <trkpt lat="70.638723000884056" lon="23.672130033373833">
        <ele>-31.59</ele>
        <time>2017-06-26T14:20:26Z</time>
      </trkpt>
      <trkpt lat="70.638849986717105" lon="23.672044035047293">
        <ele>-31.109999999999999</ele>
        <time>2017-06-26T14:20:27Z</time>
      </trkpt>
      <trkpt lat="70.638983007520437" lon="23.671993995085359">
        <ele>-31.109999999999999</ele>
        <time>2017-06-26T14:20:28Z</time>
      </trkpt>
      <trkpt lat="70.640240963548422" lon="23.671324029564857">
        <ele>-20.050000000000001</ele>
        <time>2017-06-26T14:20:37Z</time>
      </trkpt>
      <trkpt lat="70.640382030978799" lon="23.671281030401587">
        <ele>-19.09</ele>
        <time>2017-06-26T14:20:38Z</time>
      </trkpt>
      <trkpt lat="70.640524020418525" lon="23.671280024573207">
        <ele>-16.210000000000001</ele>
        <time>2017-06-26T14:20:39Z</time>
      </trkpt>
      <trkpt lat="70.640660980716348" lon="23.67133098654449">
        <ele>-14.76</ele>
        <time>2017-06-26T14:20:40Z</time>
      </trkpt>
      <trkpt lat="70.640807999297976" lon="23.671446992084384">
        <ele>-12.359999999999999</ele>
        <time>2017-06-26T14:20:41Z</time>
      </trkpt>
      <trkpt lat="70.640949988737702" lon="23.671586969867349">
        <ele>-10.44</ele>
        <time>2017-06-26T14:20:42Z</time>
      </trkpt>
      <trkpt lat="70.641093989834189" lon="23.671755027025938">
        <ele>-8.51</ele>
        <time>2017-06-26T14:20:43Z</time>
      </trkpt>
      <trkpt lat="70.641232961788774" lon="23.671959964558482">
        <ele>-7.07</ele>
        <time>2017-06-26T14:20:44Z</time>
      </trkpt>
      <trkpt lat="70.641369000077248" lon="23.672186024487019">
        <ele>-5.15</ele>
        <time>2017-06-26T14:20:45Z</time>
      </trkpt>
      <trkpt lat="70.641499003395438" lon="23.672433961182833">
        <ele>-4.19</ele>
        <time>2017-06-26T14:20:46Z</time>
      </trkpt>
      <trkpt lat="70.6426009722054" lon="23.67517501115799">
        <ele>2.54</ele>
        <time>2017-06-26T14:20:56Z</time>
      </trkpt>
      <trkpt lat="70.643188962712884" lon="23.676405977457762">
        <ele>9.27</ele>
        <time>2017-06-26T14:21:04Z</time>
      </trkpt>
      <trkpt lat="70.644139973446727" lon="23.677697964012623">
        <ele>16</ele>
        <time>2017-06-26T14:21:13Z</time>
      </trkpt>
      <trkpt lat="70.644628973677754" lon="23.678070036694407">
        <ele>16</ele>
        <time>2017-06-26T14:21:17Z</time>
      </trkpt>
      <trkpt lat="70.644757971167564" lon="23.678073976188898">
        <ele>16</ele>
        <time>2017-06-26T14:21:18Z</time>
      </trkpt>
      <trkpt lat="70.644890991970897" lon="23.678024020045996">
        <ele>16</ele>
        <time>2017-06-26T14:21:19Z</time>
      </trkpt>
      <trkpt lat="70.645024012774229" lon="23.677917988970876">
        <ele>16</ele>
        <time>2017-06-26T14:21:20Z</time>
      </trkpt>
      <trkpt lat="70.645148986950517" lon="23.677752027288079">
        <ele>16</ele>
        <time>2017-06-26T14:21:21Z</time>
      </trkpt>
      <trkpt lat="70.645271027460694" lon="23.677547005936503">
        <ele>16</ele>
        <time>2017-06-26T14:21:22Z</time>
      </trkpt>
      <trkpt lat="70.645390972495079" lon="23.677331004291773">
        <ele>16</ele>
        <time>2017-06-26T14:21:23Z</time>
      </trkpt>
      <trkpt lat="70.645776959136128" lon="23.676782995462418">
        <ele>15.52</ele>
        <time>2017-06-26T14:21:26Z</time>
      </trkpt>
      <trkpt lat="70.645917020738125" lon="23.676666989922523">
        <ele>15.039999999999999</ele>
        <time>2017-06-26T14:21:27Z</time>
      </trkpt>
      <trkpt lat="70.646066972985864" lon="23.676588032394648">
        <ele>15.52</ele>
        <time>2017-06-26T14:21:28Z</time>
      </trkpt>
      <trkpt lat="70.646785972639918" lon="23.67618796415627">
        <ele>15.52</ele>
        <time>2017-06-26T14:21:33Z</time>
      </trkpt>
      <trkpt lat="70.646912036463618" lon="23.676000963896513">
        <ele>16</ele>
        <time>2017-06-26T14:21:34Z</time>
      </trkpt>
      <trkpt lat="70.647027036175132" lon="23.675755960866809">
        <ele>16</ele>
        <time>2017-06-26T14:21:35Z</time>
      </trkpt>
      <trkpt lat="70.647131977602839" lon="23.675464019179344">
        <ele>16.48</ele>
        <time>2017-06-26T14:21:36Z</time>
      </trkpt>
      <trkpt lat="70.647226022556424" lon="23.675134023651481">
        <ele>16.48</ele>
        <time>2017-06-26T14:21:37Z</time>
      </trkpt>
      <trkpt lat="70.647310009226203" lon="23.674774020910263">
        <ele>16.960000000000001</ele>
        <time>2017-06-26T14:21:38Z</time>
      </trkpt>
      <trkpt lat="70.647389972582459" lon="23.674395997077227">
        <ele>17.440000000000001</ele>
        <time>2017-06-26T14:21:39Z</time>
      </trkpt>
      <trkpt lat="70.648779021576047" lon="23.668862013146281">
        <ele>26.57</ele>
        <time>2017-06-26T14:21:55Z</time>
      </trkpt>
      <trkpt lat="70.648966021835804" lon="23.668306041508913">
        <ele>27.530000000000001</ele>
        <time>2017-06-26T14:21:57Z</time>
      </trkpt>
      <trkpt lat="70.649068029597402" lon="23.668072018772364">
        <ele>28.02</ele>
        <time>2017-06-26T14:21:58Z</time>
      </trkpt>
      <trkpt lat="70.64917498268187" lon="23.667874038219452">
        <ele>28.5</ele>
        <time>2017-06-26T14:21:59Z</time>
      </trkpt>
      <trkpt lat="70.649292999878526" lon="23.667692989110947">
        <ele>29.460000000000001</ele>
        <time>2017-06-26T14:22:00Z</time>
      </trkpt>
      <trkpt lat="70.649412022903562" lon="23.667564997449517">
        <ele>29.940000000000001</ele>
        <time>2017-06-26T14:22:01Z</time>
      </trkpt>
      <trkpt lat="70.649540014564991" lon="23.667457038536668">
        <ele>32.340000000000003</ele>
        <time>2017-06-26T14:22:02Z</time>
      </trkpt>
      <trkpt lat="70.650733010843396" lon="23.666155999526381">
        <ele>38.590000000000003</ele>
        <time>2017-06-26T14:22:11Z</time>
      </trkpt>
      <trkpt lat="70.651714028790593" lon="23.664062032476068">
        <ele>44.840000000000003</ele>
        <time>2017-06-26T14:22:19Z</time>
      </trkpt>
      <trkpt lat="70.651810001581907" lon="23.663747040554881">
        <ele>45.799999999999997</ele>
        <time>2017-06-26T14:22:20Z</time>
      </trkpt>
      <trkpt lat="70.651894994080067" lon="23.663418972864747">
        <ele>46.759999999999998</ele>
        <time>2017-06-26T14:22:21Z</time>
      </trkpt>
      <trkpt lat="70.652262037619948" lon="23.661949038505554">
        <ele>50.130000000000003</ele>
        <time>2017-06-26T14:22:26Z</time>
      </trkpt>
      <trkpt lat="70.652315011247993" lon="23.661815011873841">
        <ele>50.130000000000003</ele>
        <time>2017-06-26T14:22:27Z</time>
      </trkpt>
      <trkpt lat="70.652499999850988" lon="23.661272032186389">
        <ele>51.090000000000003</ele>
        <time>2017-06-26T14:22:31Z</time>
      </trkpt>
      <trkpt lat="70.652649030089378" lon="23.660692004486918">
        <ele>51.090000000000003</ele>
        <time>2017-06-26T14:22:34Z</time>
      </trkpt>
      <trkpt lat="70.652723964303732" lon="23.660538028925657">
        <ele>50.609999999999999</ele>
        <time>2017-06-26T14:22:35Z</time>
      </trkpt>
      <trkpt lat="70.652807028964162" lon="23.660401990637183">
        <ele>50.609999999999999</ele>
        <time>2017-06-26T14:22:36Z</time>
      </trkpt>
      <trkpt lat="70.652898978441954" lon="23.660279028117657">
        <ele>50.130000000000003</ele>
        <time>2017-06-26T14:22:37Z</time>
      </trkpt>
      <trkpt lat="70.65299897454679" lon="23.66018196567893">
        <ele>49.649999999999999</ele>
        <time>2017-06-26T14:22:38Z</time>
      </trkpt>
      <trkpt lat="70.65310399979353" lon="23.660096973180771">
        <ele>49.649999999999999</ele>
        <time>2017-06-26T14:22:39Z</time>
      </trkpt>
      <trkpt lat="70.653211958706379" lon="23.660036036744714">
        <ele>49.159999999999997</ele>
        <time>2017-06-26T14:22:40Z</time>
      </trkpt>
      <trkpt lat="70.653321007266641" lon="23.660005023702979">
        <ele>48.68</ele>
        <time>2017-06-26T14:22:41Z</time>
      </trkpt>
      <trkpt lat="70.653429972007871" lon="23.660008041188121">
        <ele>48.200000000000003</ele>
        <time>2017-06-26T14:22:42Z</time>
      </trkpt>
      <trkpt lat="70.653539020568132" lon="23.66005296818912">
        <ele>48.200000000000003</ele>
        <time>2017-06-26T14:22:43Z</time>
      </trkpt>
      <trkpt lat="70.653648991137743" lon="23.660128992050886">
        <ele>47.719999999999999</ele>
        <time>2017-06-26T14:22:44Z</time>
      </trkpt>
      <trkpt lat="70.653759967535734" lon="23.660225970670581">
        <ele>48.200000000000003</ele>
        <time>2017-06-26T14:22:45Z</time>
      </trkpt>
      <trkpt lat="70.655065029859543" lon="23.662229999899864">
        <ele>43.399999999999999</ele>
        <time>2017-06-26T14:22:57Z</time>
      </trkpt>
      <trkpt lat="70.655709011480212" lon="23.663935968652368">
        <ele>40.990000000000002</ele>
        <time>2017-06-26T14:23:03Z</time>
      </trkpt>
      <trkpt lat="70.655839014798403" lon="23.664117017760873">
        <ele>40.509999999999998</ele>
        <time>2017-06-26T14:23:04Z</time>
      </trkpt>
      <trkpt lat="70.655974969267845" lon="23.664249032735825">
        <ele>40.030000000000001</ele>
        <time>2017-06-26T14:23:05Z</time>
      </trkpt>
      <trkpt lat="70.657598963007331" lon="23.665157966315746">
        <ele>33.299999999999997</ele>
        <time>2017-06-26T14:23:17Z</time>
      </trkpt>
      <trkpt lat="70.657713962718844" lon="23.665223009884357">
        <ele>32.340000000000003</ele>
        <time>2017-06-26T14:23:18Z</time>
      </trkpt>
      <trkpt lat="70.657823011279106" lon="23.66533599793911">
        <ele>32.340000000000003</ele>
        <time>2017-06-26T14:23:19Z</time>
      </trkpt>
      <trkpt lat="70.657922001555562" lon="23.665498020127416">
        <ele>31.859999999999999</ele>
        <time>2017-06-26T14:23:20Z</time>
      </trkpt>
      <trkpt lat="70.658000959083438" lon="23.665672028437257">
        <ele>30.899999999999999</ele>
        <time>2017-06-26T14:23:21Z</time>
      </trkpt>
      <trkpt lat="70.658057034015656" lon="23.665838995948434">
        <ele>30.899999999999999</ele>
        <time>2017-06-26T14:23:22Z</time>
      </trkpt>
      <trkpt lat="70.658096009865403" lon="23.66598199121654">
        <ele>30.420000000000002</ele>
        <time>2017-06-26T14:23:23Z</time>
      </trkpt>
      <trkpt lat="70.658114030957222" lon="23.666068995371461">
        <ele>30.420000000000002</ele>
        <time>2017-06-26T14:23:24Z</time>
      </trkpt>
      <trkpt lat="70.658124005421996" lon="23.666133033111691">
        <ele>29.940000000000001</ele>
        <time>2017-06-26T14:23:25Z</time>
      </trkpt>
      <trkpt lat="70.65817303955555" lon="23.666323972865939">
        <ele>30.420000000000002</ele>
        <time>2017-06-26T14:23:40Z</time>
      </trkpt>
      <trkpt lat="70.658234981819987" lon="23.666499992832541">
        <ele>29.940000000000001</ele>
        <time>2017-06-26T14:24:31Z</time>
      </trkpt>
      <trkpt lat="70.658629015088081" lon="23.668045029044151">
        <ele>26.57</ele>
        <time>2017-06-26T14:24:38Z</time>
      </trkpt>
      <trkpt lat="70.65959201194346" lon="23.670942988246679">
        <ele>20.32</ele>
        <time>2017-06-26T14:24:50Z</time>
      </trkpt>
      <trkpt lat="70.660586021840572" lon="23.672365983948112">
        <ele>16.48</ele>
        <time>2017-06-26T14:25:00Z</time>
      </trkpt>
      <trkpt lat="70.661437958478928" lon="23.675023969262838">
        <ele>16.960000000000001</ele>
        <time>2017-06-26T14:25:12Z</time>
      </trkpt>
      <trkpt lat="70.662117982283235" lon="23.679003026336432">
        <ele>13.6</ele>
        <time>2017-06-26T14:25:27Z</time>
      </trkpt>
      <trkpt lat="70.662210015580058" lon="23.681347025558352">
        <ele>6.87</ele>
        <time>2017-06-26T14:25:37Z</time>
      </trkpt>
      <trkpt lat="70.662248991429806" lon="23.681612983345985">
        <ele>6.39</ele>
        <time>2017-06-26T14:25:41Z</time>
      </trkpt>
      <trkpt lat="70.662273969501257" lon="23.681636033579707">
        <ele>6.39</ele>
        <time>2017-06-26T14:25:42Z</time>
      </trkpt>
      <trkpt lat="70.662310011684895" lon="23.681623041629791">
        <ele>5.91</ele>
        <time>2017-06-26T14:25:43Z</time>
      </trkpt>
      <trkpt lat="70.662360973656178" lon="23.681589011102915">
        <ele>5.91</ele>
        <time>2017-06-26T14:25:44Z</time>
      </trkpt>
      <trkpt lat="70.662419982254505" lon="23.681536037474871">
        <ele>5.42</ele>
        <time>2017-06-26T14:25:45Z</time>
      </trkpt>
      <trkpt lat="70.662551997229457" lon="23.681411985307932">
        <ele>4.94</ele>
        <time>2017-06-26T14:25:47Z</time>
      </trkpt>
      <trkpt lat="70.663018031045794" lon="23.681033039465547">
        <ele>3.5</ele>
        <time>2017-06-26T14:25:54Z</time>
      </trkpt>
      <trkpt lat="70.663088019937277" lon="23.681036978960037">
        <ele>4.46</ele>
        <time>2017-06-26T14:25:55Z</time>
      </trkpt>
      <trkpt lat="70.663302009925246" lon="23.680958021432161">
        <ele>4.46</ele>
        <time>2017-06-26T14:26:01Z</time>
      </trkpt>
      <trkpt lat="70.663320031017065" lon="23.68102197535336">
        <ele>4.46</ele>
        <time>2017-06-26T14:26:02Z</time>
      </trkpt>
      <trkpt lat="70.66333101131022" lon="23.681110991165042">
        <ele>3.98</ele>
        <time>2017-06-26T14:26:03Z</time>
      </trkpt>
      <trkpt lat="70.663339979946613" lon="23.68119103834033">
        <ele>4.46</ele>
        <time>2017-06-26T14:26:04Z</time>
      </trkpt>
      <trkpt lat="70.663361018523574" lon="23.681316012516618">
        <ele>6.39</ele>
        <time>2017-06-26T14:26:05Z</time>
      </trkpt>
      <trkpt lat="70.663383984938264" lon="23.681997964158654">
        <ele>15.039999999999999</ele>
        <time>2017-06-26T14:26:15Z</time>
      </trkpt>
      <trkpt lat="70.663380967453122" lon="23.682029983028769">
        <ele>15.039999999999999</ele>
        <time>2017-06-26T14:26:24Z</time>
      </trkpt>
      <trkpt lat="70.663365041837096" lon="23.682084968313575">
        <ele>14.56</ele>
        <time>2017-06-26T14:26:25Z</time>
      </trkpt>
      <trkpt lat="70.663365963846445" lon="23.682131990790367">
        <ele>15.039999999999999</ele>
        <time>2017-06-26T14:26:26Z</time>
      </trkpt>
      <trkpt lat="70.663378033787012" lon="23.682165015488863">
        <ele>14.56</ele>
        <time>2017-06-26T14:26:27Z</time>
      </trkpt>
      <trkpt lat="70.663393037393689" lon="23.68218001909554">
        <ele>15.039999999999999</ele>
        <time>2017-06-26T14:26:28Z</time>
      </trkpt>
      <trkpt lat="70.663407035171986" lon="23.682158980518579">
        <ele>15.52</ele>
        <time>2017-06-26T14:26:29Z</time>
      </trkpt>
      <trkpt lat="70.663420027121902" lon="23.682136014103889">
        <ele>16</ele>
        <time>2017-06-26T14:26:30Z</time>
      </trkpt>
      <trkpt lat="70.663422960788012" lon="23.682072982192039">
        <ele>16.48</ele>
        <time>2017-06-26T14:26:31Z</time>
      </trkpt>
      <trkpt lat="70.663423966616392" lon="23.681953959167004">
        <ele>16.960000000000001</ele>
        <time>2017-06-26T14:26:32Z</time>
      </trkpt>
      <trkpt lat="70.663413992151618" lon="23.681819010525942">
        <ele>17.440000000000001</ele>
        <time>2017-06-26T14:26:33Z</time>
      </trkpt>
      <trkpt lat="70.66339798271656" lon="23.681502006947994">
        <ele>18.399999999999999</ele>
        <time>2017-06-26T14:26:35Z</time>
      </trkpt>
      <trkpt lat="70.663361018523574" lon="23.680797005072236">
        <ele>20.809999999999999</ele>
        <time>2017-06-26T14:26:40Z</time>
      </trkpt>
      <trkpt lat="70.66324601881206" lon="23.679657988250256">
        <ele>21.77</ele>
        <time>2017-06-26T14:26:48Z</time>
      </trkpt>
      <trkpt lat="70.663206959143281" lon="23.67958003655076">
        <ele>21.289999999999999</ele>
        <time>2017-06-26T14:26:49Z</time>
      </trkpt>
      <trkpt lat="70.663158008828759" lon="23.67953896522522">
        <ele>20.32</ele>
        <time>2017-06-26T14:26:50Z</time>
      </trkpt>
      <trkpt lat="70.663100006058812" lon="23.679513987153769">
        <ele>20.32</ele>
        <time>2017-06-26T14:26:51Z</time>
      </trkpt>
      <trkpt lat="70.663033034652472" lon="23.679529996588826">
        <ele>20.809999999999999</ele>
        <time>2017-06-26T14:26:52Z</time>
      </trkpt>
      <trkpt lat="70.662962039932609" lon="23.679555980488658">
        <ele>20.809999999999999</ele>
        <time>2017-06-26T14:26:53Z</time>
      </trkpt>
      <trkpt lat="70.662209009751678" lon="23.680066019296646">
        <ele>19.359999999999999</ele>
        <time>2017-06-26T14:27:06Z</time>
      </trkpt>
      <trkpt lat="70.662146983668208" lon="23.680232986807823">
        <ele>17.920000000000002</ele>
        <time>2017-06-26T14:27:13Z</time>
      </trkpt>
      <trkpt lat="70.662153018638492" lon="23.680372964590788">
        <ele>17.920000000000002</ele>
        <time>2017-06-26T14:27:14Z</time>
      </trkpt>
      <trkpt lat="70.662163998931646" lon="23.680529035627842">
        <ele>17.920000000000002</ele>
        <time>2017-06-26T14:27:15Z</time>
      </trkpt>
      <trkpt lat="70.662147989496589" lon="23.681582976132631">
        <ele>15.52</ele>
        <time>2017-06-26T14:27:23Z</time>
      </trkpt>
      <trkpt lat="70.662112031131983" lon="23.68162396363914">
        <ele>15.52</ele>
        <time>2017-06-26T14:27:24Z</time>
      </trkpt>
      <trkpt lat="70.662072971463203" lon="23.68162396363914">
        <ele>16</ele>
        <time>2017-06-26T14:27:25Z</time>
      </trkpt>
      <trkpt lat="70.66204397007823" lon="23.681623041629791">
        <ele>16</ele>
        <time>2017-06-26T14:27:26Z</time>
      </trkpt>
      <trkpt lat="70.662029972299933" lon="23.681597979739308">
        <ele>16</ele>
        <time>2017-06-26T14:27:33Z</time>
      </trkpt>
      <trkpt lat="70.662013040855527" lon="23.681635027751327">
        <ele>16</ele>
        <time>2017-06-26T14:27:34Z</time>
      </trkpt>
      <trkpt lat="70.66182604059577" lon="23.681925041601062">
        <ele>15.52</ele>
        <time>2017-06-26T14:27:42Z</time>
      </trkpt>
      <trkpt lat="70.661832997575402" lon="23.68207398802042">
        <ele>15.039999999999999</ele>
        <time>2017-06-26T14:27:43Z</time>
      </trkpt>
      <trkpt lat="70.661988984793425" lon="23.684328971430659">
        <ele>16</ele>
        <time>2017-06-26T14:27:53Z</time>
      </trkpt>
      <trkpt lat="70.662484019994736" lon="23.686900036409497">
        <ele>20.809999999999999</ele>
        <time>2017-06-26T14:28:06Z</time>
      </trkpt>
      <trkpt lat="70.663140993565321" lon="23.689343025907874">
        <ele>24.170000000000002</ele>
        <time>2017-06-26T14:28:21Z</time>
      </trkpt>
      <trkpt lat="70.663192039355636" lon="23.689506975933909">
        <ele>25.129999999999999</ele>
        <time>2017-06-26T14:28:30Z</time>
      </trkpt>
      <trkpt lat="70.663416003808379" lon="23.69023896753788">
        <ele>20.32</ele>
        <time>2017-06-26T14:28:38Z</time>
      </trkpt>
      <trkpt lat="70.663821017369628" lon="23.691473035141826">
        <ele>21.77</ele>
        <time>2017-06-26T14:28:52Z</time>
      </trkpt>
      <trkpt lat="70.664290990680456" lon="23.692640969529748">
        <ele>20.809999999999999</ele>
        <time>2017-06-26T14:29:03Z</time>
      </trkpt>
      <trkpt lat="70.664817960932851" lon="23.693613018840551">
        <ele>20.32</ele>
        <time>2017-06-26T14:29:15Z</time>
      </trkpt>
      <trkpt lat="70.664880992844701" lon="23.693596003577113">
        <ele>18.399999999999999</ele>
        <time>2017-06-26T14:29:24Z</time>
      </trkpt>
      <trkpt lat="70.664894990622997" lon="23.693712009117007">
        <ele>16</ele>
        <time>2017-06-26T14:29:35Z</time>
      </trkpt>
      <trkpt lat="70.664947964251041" lon="23.693862967193127">
        <ele>17.440000000000001</ele>
        <time>2017-06-26T14:29:37Z</time>
      </trkpt>
      <trkpt lat="70.665001021698117" lon="23.693945026025176">
        <ele>17.440000000000001</ele>
        <time>2017-06-26T14:29:38Z</time>
      </trkpt>
      <trkpt lat="70.665816999971867" lon="23.694811966270208">
        <ele>16.48</ele>
        <time>2017-06-26T14:29:48Z</time>
      </trkpt>
      <trkpt lat="70.666456036269665" lon="23.695524008944631">
        <ele>14.56</ele>
        <time>2017-06-26T14:29:58Z</time>
      </trkpt>
      <trkpt lat="70.666493000462651" lon="23.695507999509573">
        <ele>14.08</ele>
        <time>2017-06-26T14:29:59Z</time>
      </trkpt>
      <trkpt lat="70.66653398796916" lon="23.695451002568007">
        <ele>13.6</ele>
        <time>2017-06-26T14:30:00Z</time>
      </trkpt>
      <trkpt lat="70.666575981304049" lon="23.695353018119931">
        <ele>13.119999999999999</ele>
        <time>2017-06-26T14:30:01Z</time>
      </trkpt>
      <trkpt lat="70.666623003780842" lon="23.695231983438134">
        <ele>12.630000000000001</ele>
        <time>2017-06-26T14:30:02Z</time>
      </trkpt>
      <trkpt lat="70.666666002944112" lon="23.695102985948324">
        <ele>12.15</ele>
        <time>2017-06-26T14:30:03Z</time>
      </trkpt>
      <trkpt lat="70.666707996279001" lon="23.695001984015107">
        <ele>12.630000000000001</ele>
        <time>2017-06-26T14:30:04Z</time>
      </trkpt>
      <trkpt lat="70.666857026517391" lon="23.694781959056854">
        <ele>12.630000000000001</ele>
        <time>2017-06-26T14:30:09Z</time>
      </trkpt>
      <trkpt lat="70.666882004588842" lon="23.694839039817452">
        <ele>11.67</ele>
        <time>2017-06-26T14:30:10Z</time>
      </trkpt>
      <trkpt lat="70.666912011802197" lon="23.694906011223793">
        <ele>11.67</ele>
        <time>2017-06-26T14:30:11Z</time>
      </trkpt>
      <trkpt lat="70.667175035923719" lon="23.695363998413086">
        <ele>11.19</ele>
        <time>2017-06-26T14:30:17Z</time>
      </trkpt>
      <trkpt lat="70.667860005050898" lon="23.696505026891828">
        <ele>9.75</ele>
        <time>2017-06-26T14:30:28Z</time>
      </trkpt>
      <trkpt lat="70.667933011427522" lon="23.696558000519872">
        <ele>9.27</ele>
        <time>2017-06-26T14:30:29Z</time>
      </trkpt>
      <trkpt lat="70.668010963127017" lon="23.696576021611691">
        <ele>9.27</ele>
        <time>2017-06-26T14:30:30Z</time>
      </trkpt>
      <trkpt lat="70.668088998645544" lon="23.696571998298168">
        <ele>8.789999999999999</ele>
        <time>2017-06-26T14:30:31Z</time>
      </trkpt>
      <trkpt lat="70.668168962001801" lon="23.696541991084814">
        <ele>8.789999999999999</ele>
        <time>2017-06-26T14:30:32Z</time>
      </trkpt>
      <trkpt lat="70.668250015005469" lon="23.696482982486486">
        <ele>8.789999999999999</ele>
        <time>2017-06-26T14:30:33Z</time>
      </trkpt>
      <trkpt lat="70.668328972533345" lon="23.696402013301849">
        <ele>8.789999999999999</ele>
        <time>2017-06-26T14:30:34Z</time>
      </trkpt>
      <trkpt lat="70.668408013880253" lon="23.696309980005026">
        <ele>8.789999999999999</ele>
        <time>2017-06-26T14:30:35Z</time>
      </trkpt>
      <trkpt lat="70.668483031913638" lon="23.696200009435415">
        <ele>8.310000000000001</ele>
        <time>2017-06-26T14:30:36Z</time>
      </trkpt>
      <trkpt lat="70.669132964685559" lon="23.695185966789722">
        <ele>8.789999999999999</ele>
        <time>2017-06-26T14:30:45Z</time>
      </trkpt>
      <trkpt lat="70.669183004647493" lon="23.695067027583718">
        <ele>8.789999999999999</ele>
        <time>2017-06-26T14:30:46Z</time>
      </trkpt>
      <trkpt lat="70.669266991317272" lon="23.694847002625465">
        <ele>8.789999999999999</ele>
        <time>2017-06-26T14:30:48Z</time>
      </trkpt>
      <trkpt lat="70.669292975217104" lon="23.694713981822133">
        <ele>8.789999999999999</ele>
        <time>2017-06-26T14:30:49Z</time>
      </trkpt>
      <trkpt lat="70.669319964945316" lon="23.694564029574394">
        <ele>8.789999999999999</ele>
        <time>2017-06-26T14:30:50Z</time>
      </trkpt>
      <trkpt lat="70.669769989326596" lon="23.692568968981504">
        <ele>9.75</ele>
        <time>2017-06-26T14:31:01Z</time>
      </trkpt>
      <trkpt lat="70.66990896128118" lon="23.691918030381203">
        <ele>10.23</ele>
        <time>2017-06-26T14:31:04Z</time>
      </trkpt>
      <trkpt lat="70.670483037829399" lon="23.688201997429132">
        <ele>9.27</ele>
        <time>2017-06-26T14:31:18Z</time>
      </trkpt>
      <trkpt lat="70.670681018382311" lon="23.685208987444639">
        <ele>8.310000000000001</ele>
        <time>2017-06-26T14:31:29Z</time>
      </trkpt>
      <trkpt lat="70.670755030587316" lon="23.684660978615284">
        <ele>6.39</ele>
        <time>2017-06-26T14:31:36Z</time>
      </trkpt>
    </trkseg>
  </trk>

  <trk>
    <name>Track vom: 26 JUN 2017 16:46</name>
    <extensions>
      <gpxx:TrackExtension>
        <gpxx:DisplayColor>DarkGray</gpxx:DisplayColor>
      </gpxx:TrackExtension>
    </extensions>
    <trkseg>
      <trkpt lat="70.670707002282143" lon="23.684211038053036">
        <ele>3.02</ele>
        <time>2017-06-26T14:46:37Z</time>
      </trkpt>
      <trkpt lat="70.670341970399022" lon="23.688937006518245">
        <ele>7.83</ele>
        <time>2017-06-26T14:46:58Z</time>
      </trkpt>
      <trkpt lat="70.669966964051127" lon="23.691289974376559">
        <ele>7.83</ele>
        <time>2017-06-26T14:47:08Z</time>
      </trkpt>
      <trkpt lat="70.669936034828424" lon="23.691394999623299">
        <ele>7.83</ele>
        <time>2017-06-26T14:47:09Z</time>
      </trkpt>
      <trkpt lat="70.669904015958309" lon="23.691474962979555">
        <ele>7.83</ele>
        <time>2017-06-26T14:47:10Z</time>
      </trkpt>
      <trkpt lat="70.669870991259813" lon="23.691534977406263">
        <ele>7.83</ele>
        <time>2017-06-26T14:47:11Z</time>
      </trkpt>
      <trkpt lat="70.66984299570322" lon="23.691593986004591">
        <ele>9.27</ele>
        <time>2017-06-26T14:47:12Z</time>
      </trkpt>
      <trkpt lat="70.669731013476849" lon="23.691775035113096">
        <ele>9.27</ele>
        <time>2017-06-26T14:47:17Z</time>
      </trkpt>
      <trkpt lat="70.669703017920256" lon="23.691967986524105">
        <ele>8.789999999999999</ele>
        <time>2017-06-26T14:47:21Z</time>
      </trkpt>
      <trkpt lat="70.669704023748636" lon="23.692103018984199">
        <ele>8.310000000000001</ele>
        <time>2017-06-26T14:47:23Z</time>
      </trkpt>
      <trkpt lat="70.669657001271844" lon="23.692298987880349">
        <ele>8.789999999999999</ele>
        <time>2017-06-26T14:47:43Z</time>
      </trkpt>
      <trkpt lat="70.669653983786702" lon="23.69242899119854">
        <ele>8.310000000000001</ele>
        <time>2017-06-26T14:48:02Z</time>
      </trkpt>
      <trkpt lat="70.66966999322176" lon="23.693023016676307">
        <ele>-5.63</ele>
        <time>2017-06-26T14:48:28Z</time>
      </trkpt>
      <trkpt lat="70.669716009870172" lon="23.69356700219214">
        <ele>-19.09</ele>
        <time>2017-06-26T14:48:48Z</time>
      </trkpt>
      <trkpt lat="70.669679967686534" lon="23.693380001932383">
        <ele>-26.300000000000001</ele>
        <time>2017-06-26T14:49:03Z</time>
      </trkpt>
      <trkpt lat="70.66966999322176" lon="23.693220997229218">
        <ele>-26.300000000000001</ele>
        <time>2017-06-26T14:49:21Z</time>
      </trkpt>
      <trkpt lat="70.669635040685534" lon="23.692918997257948">
        <ele>-22.449999999999999</ele>
        <time>2017-06-26T14:49:50Z</time>
      </trkpt>
      <trkpt lat="70.669655995443463" lon="23.692791005596519">
        <ele>-22.449999999999999</ele>
        <time>2017-06-26T14:49:52Z</time>
      </trkpt>
      <trkpt lat="70.66977602429688" lon="23.692333018407226">
        <ele>-15.24</ele>
        <time>2017-06-26T14:50:07Z</time>
      </trkpt>
      <trkpt lat="70.669825980439782" lon="23.692250037565827">
        <ele>-14.76</ele>
        <time>2017-06-26T14:50:17Z</time>
      </trkpt>
      <trkpt lat="70.669866967946291" lon="23.69210897013545">
        <ele>-13.32</ele>
        <time>2017-06-26T14:50:18Z</time>
      </trkpt>
      <trkpt lat="70.669907033443451" lon="23.691917024552822">
        <ele>-13.32</ele>
        <time>2017-06-26T14:50:19Z</time>
      </trkpt>
      <trkpt lat="70.670286985114217" lon="23.689573025330901">
        <ele>-12.359999999999999</ele>
        <time>2017-06-26T14:50:27Z</time>
      </trkpt>
      <trkpt lat="70.67059300839901" lon="23.686496028676629">
        <ele>-8.029999999999999</ele>
        <time>2017-06-26T14:50:37Z</time>
      </trkpt>
      <trkpt lat="70.670725023373961" lon="23.6849329713732">
        <ele>-0.82</ele>
        <time>2017-06-26T14:50:46Z</time>
      </trkpt>
      <trkpt lat="70.67076601088047" lon="23.684914028272033">
        <ele>-2.75</ele>
        <time>2017-06-26T14:50:55Z</time>
      </trkpt>
      <trkpt lat="70.670740026980639" lon="23.68499499745667">
        <ele>-2.75</ele>
        <time>2017-06-26T14:51:03Z</time>
      </trkpt>
      <trkpt lat="70.670691998675466" lon="23.685427000746131">
        <ele>-3.71</ele>
        <time>2017-06-26T14:51:11Z</time>
      </trkpt>
      <trkpt lat="70.67069903947413" lon="23.685397999361157">
        <ele>-4.19</ele>
        <time>2017-06-26T14:51:13Z</time>
      </trkpt>
      <trkpt lat="70.670705996453762" lon="23.685361035168171">
        <ele>-4.67</ele>
        <time>2017-06-26T14:51:14Z</time>
      </trkpt>
      <trkpt lat="70.670726029202342" lon="23.68531602434814">
        <ele>-5.15</ele>
        <time>2017-06-26T14:51:27Z</time>
      </trkpt>
      <trkpt lat="70.6707230117172" lon="23.685386013239622">
        <ele>-5.63</ele>
        <time>2017-06-26T14:51:47Z</time>
      </trkpt>
      <trkpt lat="70.670714965090156" lon="23.685358017683029">
        <ele>-5.15</ele>
        <time>2017-06-26T14:52:11Z</time>
      </trkpt>
    </trkseg>
  </trk>

</gpx>